<?xml version='1.0' encoding='UTF-8'?><gpx version="1.1" creator="JPX - https://github.com/jenetics/jpx" xmlns="http://www.topografix.com/GPX/1/1"><trk><trkseg><trkpt lat="43.273732236939054" lon="11.355305494998186"><ele>217.0</ele><time>2026-04-11T07:30:30.999Z</time></trkpt><trkpt lat="43.27358984819054" lon="11.355460935813724"><ele>217.0</ele><time>2026-04-11T07:30:31.999Z</time></trkpt><trkpt lat="43.2734461704161" lon="11.35563332333584"><ele>217.0</ele><time>2026-04-11T07:30:32.999Z</time></trkpt><trkpt lat="43.27329734582941" lon="11.35580726669154"><ele>217.33333333333331</ele><time>2026-04-11T07:30:34Z</time></trkpt><trkpt lat="43.27314383039316" lon="11.35598003843102"><ele>217.66666666666669</ele><time>2026-04-11T07:30:35Z</time></trkpt><trkpt lat="43.27298864244994" lon="11.356155968425547"><ele>218.0</ele><time>2026-04-11T07:30:36Z</time></trkpt><trkpt lat="43.2728282006283" lon="11.356338690533866"><ele>221.0</ele><time>2026-04-11T07:30:37Z</time></trkpt><trkpt lat="43.27266889901826" lon="11.356521668241784"><ele>224.0</ele><time>2026-04-11T07:30:38Z</time></trkpt><trkpt lat="43.27250421258845" lon="11.356703879094642"><ele>227.0</ele><time>2026-04-11T07:30:39Z</time></trkpt><trkpt lat="43.272347925308786" lon="11.356885455925664"><ele>225.66666666666669</ele><time>2026-04-11T07:30:40Z</time></trkpt><trkpt lat="43.27218991668978" lon="11.357070130072408"><ele>224.33333333333331</ele><time>2026-04-11T07:30:41Z</time></trkpt><trkpt lat="43.27203087920905" lon="11.357247183661123"><ele>223.0</ele><time>2026-04-11T07:30:42Z</time></trkpt><trkpt lat="43.27186847506805" lon="11.35742201857107"><ele>223.0</ele><time>2026-04-11T07:30:43Z</time></trkpt><trkpt lat="43.27170742721476" lon="11.357597555789031"><ele>223.0</ele><time>2026-04-11T07:30:44Z</time></trkpt><trkpt lat="43.27154376093709" lon="11.35777111032074"><ele>223.0</ele><time>2026-04-11T07:30:45Z</time></trkpt><trkpt lat="43.271382166480194" lon="11.357950512183109"><ele>224.33333333333331</ele><time>2026-04-11T07:30:46Z</time></trkpt><trkpt lat="43.271225253025044" lon="11.358128137371265"><ele>225.66666666666669</ele><time>2026-04-11T07:30:47Z</time></trkpt><trkpt lat="43.27108227972158" lon="11.35830536896834"><ele>227.0</ele><time>2026-04-11T07:30:48Z</time></trkpt><trkpt lat="43.27095694768194" lon="11.358505119507104"><ele>227.0</ele><time>2026-04-11T07:30:49Z</time></trkpt><trkpt lat="43.270849140497546" lon="11.358723012814664"><ele>227.0</ele><time>2026-04-11T07:30:50Z</time></trkpt><trkpt lat="43.27076822937291" lon="11.358966789631623"><ele>227.0</ele><time>2026-04-11T07:30:51Z</time></trkpt><trkpt lat="43.270697058497205" lon="11.359228046995463"><ele>226.33333333333334</ele><time>2026-04-11T07:30:52Z</time></trkpt><trkpt lat="43.27062893657034" lon="11.359501534077808"><ele>225.66666666666669</ele><time>2026-04-11T07:30:53Z</time></trkpt><trkpt lat="43.27055304978591" lon="11.359770641000505"><ele>225.0</ele><time>2026-04-11T07:30:54Z</time></trkpt><trkpt lat="43.27048237982741" lon="11.360036983294957"><ele>224.66666666666669</ele><time>2026-04-11T07:30:55Z</time></trkpt><trkpt lat="43.270405124261906" lon="11.360301132983595"><ele>224.33333333333334</ele><time>2026-04-11T07:30:56Z</time></trkpt><trkpt lat="43.270331970783374" lon="11.360555875299694"><ele>224.0</ele><time>2026-04-11T07:30:57Z</time></trkpt><trkpt lat="43.27025833521942" lon="11.360811510002975"><ele>224.0</ele><time>2026-04-11T07:30:58Z</time></trkpt><trkpt lat="43.270187448362265" lon="11.36106809371268"><ele>224.0</ele><time>2026-04-11T07:30:59Z</time></trkpt><trkpt lat="43.27011087806709" lon="11.361320453384383"><ele>224.0</ele><time>2026-04-11T07:31:00Z</time></trkpt><trkpt lat="43.27003249510908" lon="11.36155329264303"><ele>224.66666666666669</ele><time>2026-04-11T07:31:01Z</time></trkpt><trkpt lat="43.2699404543098" lon="11.361779515249738"><ele>225.33333333333331</ele><time>2026-04-11T07:31:02Z</time></trkpt><trkpt lat="43.269812363427526" lon="11.361990250294276"><ele>226.0</ele><time>2026-04-11T07:31:03Z</time></trkpt><trkpt lat="43.26967491338682" lon="11.362187803541396"><ele>223.66666666666666</ele><time>2026-04-11T07:31:04Z</time></trkpt><trkpt lat="43.269531202330135" lon="11.362385462530092"><ele>221.33333333333331</ele><time>2026-04-11T07:31:05Z</time></trkpt><trkpt lat="43.269390740995455" lon="11.362590797246446"><ele>219.0</ele><time>2026-04-11T07:31:06Z</time></trkpt><trkpt lat="43.269244681465274" lon="11.362799568465318"><ele>219.0</ele><time>2026-04-11T07:31:07Z</time></trkpt><trkpt lat="43.269100411965404" lon="11.363019866560627"><ele>219.0</ele><time>2026-04-11T07:31:08Z</time></trkpt><trkpt lat="43.26895276459035" lon="11.363240110750072"><ele>219.0</ele><time>2026-04-11T07:31:09Z</time></trkpt><trkpt lat="43.268803474461535" lon="11.363463477932177"><ele>218.66666666666669</ele><time>2026-04-11T07:31:10Z</time></trkpt><trkpt lat="43.26865408410275" lon="11.363687290677923"><ele>218.33333333333334</ele><time>2026-04-11T07:31:11Z</time></trkpt><trkpt lat="43.268506549265055" lon="11.363916354946442"><ele>218.0</ele><time>2026-04-11T07:31:12Z</time></trkpt><trkpt lat="43.268360562198566" lon="11.36414635702684"><ele>217.0</ele><time>2026-04-11T07:31:13Z</time></trkpt><trkpt lat="43.26821615861547" lon="11.364375304715193"><ele>216.0</ele><time>2026-04-11T07:31:14Z</time></trkpt><trkpt lat="43.2680701319551" lon="11.364606866814446"><ele>215.0</ele><time>2026-04-11T07:31:15Z</time></trkpt><trkpt lat="43.267931140527324" lon="11.364837656730487"><ele>214.0</ele><time>2026-04-11T07:31:16Z</time></trkpt><trkpt lat="43.267794487885396" lon="11.365064011053668"><ele>213.0</ele><time>2026-04-11T07:31:17Z</time></trkpt><trkpt lat="43.26765581948683" lon="11.365285748084238"><ele>212.0</ele><time>2026-04-11T07:31:18Z</time></trkpt><trkpt lat="43.267501151648844" lon="11.36548714202985"><ele>213.33333333333334</ele><time>2026-04-11T07:31:19Z</time></trkpt><trkpt lat="43.26733069377702" lon="11.365654412249794"><ele>214.66666666666669</ele><time>2026-04-11T07:31:20Z</time></trkpt><trkpt lat="43.26715709430543" lon="11.365795975482895"><ele>216.0</ele><time>2026-04-11T07:31:21Z</time></trkpt><trkpt lat="43.26697672589682" lon="11.365923840545449"><ele>216.33333333333331</ele><time>2026-04-11T07:31:22Z</time></trkpt><trkpt lat="43.26679002462297" lon="11.3660310858426"><ele>216.66666666666666</ele><time>2026-04-11T07:31:23Z</time></trkpt><trkpt lat="43.26659748960554" lon="11.366117034399025"><ele>217.0</ele><time>2026-04-11T07:31:24Z</time></trkpt><trkpt lat="43.26639656335381" lon="11.366188965388307"><ele>215.33333333333331</ele><time>2026-04-11T07:31:25Z</time></trkpt><trkpt lat="43.266195397813235" lon="11.366262488662215"><ele>213.66666666666669</ele><time>2026-04-11T07:31:26Z</time></trkpt><trkpt lat="43.26599880394467" lon="11.366341074815194"><ele>212.0</ele><time>2026-04-11T07:31:27Z</time></trkpt><trkpt lat="43.265800354383266" lon="11.366407779634422"><ele>212.0</ele><time>2026-04-11T07:31:28Z</time></trkpt><trkpt lat="43.265594039346254" lon="11.366454632223654"><ele>212.0</ele><time>2026-04-11T07:31:29Z</time></trkpt><trkpt lat="43.265382037512886" lon="11.366476865807442"><ele>212.0</ele><time>2026-04-11T07:31:30Z</time></trkpt><trkpt lat="43.26516494424075" lon="11.366475616654554"><ele>212.0</ele><time>2026-04-11T07:31:31Z</time></trkpt><trkpt lat="43.264948321784765" lon="11.366470186785419"><ele>212.0</ele><time>2026-04-11T07:31:32Z</time></trkpt><trkpt lat="43.26473904851222" lon="11.366468281219861"><ele>212.0</ele><time>2026-04-11T07:31:33Z</time></trkpt><trkpt lat="43.26453863122702" lon="11.366471878973677"><ele>210.33333333333334</ele><time>2026-04-11T07:31:34Z</time></trkpt><trkpt lat="43.264347595492936" lon="11.36650312154986"><ele>208.66666666666669</ele><time>2026-04-11T07:31:35Z</time></trkpt><trkpt lat="43.264159236575075" lon="11.366585770545623"><ele>207.0</ele><time>2026-04-11T07:31:36Z</time></trkpt><trkpt lat="43.26397679806896" lon="11.366708067940353"><ele>204.66666666666669</ele><time>2026-04-11T07:31:37Z</time></trkpt><trkpt lat="43.26381863680806" lon="11.366866241090671"><ele>202.33333333333334</ele><time>2026-04-11T07:31:38Z</time></trkpt><trkpt lat="43.26367963740941" lon="11.367056026028685"><ele>200.0</ele><time>2026-04-11T07:31:39Z</time></trkpt><trkpt lat="43.26356725442918" lon="11.367275374694339"><ele>200.0</ele><time>2026-04-11T07:31:40Z</time></trkpt><trkpt lat="43.2634851273455" lon="11.367525593756634"><ele>200.0</ele><time>2026-04-11T07:31:41Z</time></trkpt><trkpt lat="43.26343193597306" lon="11.36778764692784"><ele>200.0</ele><time>2026-04-11T07:31:42Z</time></trkpt><trkpt lat="43.26340403066468" lon="11.368068719856634"><ele>200.0</ele><time>2026-04-11T07:31:43Z</time></trkpt><trkpt lat="43.26340729118154" lon="11.368366852870105"><ele>200.0</ele><time>2026-04-11T07:31:44Z</time></trkpt><trkpt lat="43.26341844932274" lon="11.368676747512627"><ele>200.0</ele><time>2026-04-11T07:31:45Z</time></trkpt><trkpt lat="43.26343388188322" lon="11.368997704547558"><ele>198.5</ele><time>2026-04-11T07:31:46Z</time></trkpt><trkpt lat="43.26345291744363" lon="11.369326590981206"><ele>197.0</ele><time>2026-04-11T07:31:46.999Z</time></trkpt><trkpt lat="43.26347130007194" lon="11.36965240816076"><ele>197.5</ele><time>2026-04-11T07:31:47.999Z</time></trkpt><trkpt lat="43.26348708157904" lon="11.369983971298703"><ele>198.0</ele><time>2026-04-11T07:31:48.999Z</time></trkpt><trkpt lat="43.263500756262644" lon="11.370313801241775"><ele>198.0</ele><time>2026-04-11T07:31:49.999Z</time></trkpt><trkpt lat="43.263514375542215" lon="11.370628067719405"><ele>198.0</ele><time>2026-04-11T07:31:50.999Z</time></trkpt><trkpt lat="43.26352368296688" lon="11.370928385647373"><ele>198.0</ele><time>2026-04-11T07:31:51.999Z</time></trkpt><trkpt lat="43.26351648929359" lon="11.371213174758449"><ele>196.66666666666669</ele><time>2026-04-11T07:31:52.999Z</time></trkpt><trkpt lat="43.26347820670669" lon="11.371483795698811"><ele>195.33333333333334</ele><time>2026-04-11T07:31:53.999Z</time></trkpt><trkpt lat="43.26349066802024" lon="11.37173074708252"><ele>194.0</ele><time>2026-04-11T07:31:54.999Z</time></trkpt><trkpt lat="43.26331477716379" lon="11.371981571452867"><ele>191.0</ele><time>2026-04-11T07:31:55.999Z</time></trkpt><trkpt lat="43.26318332444021" lon="11.372209380205705"><ele>188.0</ele><time>2026-04-11T07:31:56.999Z</time></trkpt><trkpt lat="43.26302359107197" lon="11.372418460097991"><ele>185.0</ele><time>2026-04-11T07:31:57.999Z</time></trkpt><trkpt lat="43.26284570114741" lon="11.3726182812858"><ele>185.0</ele><time>2026-04-11T07:31:58.999Z</time></trkpt><trkpt lat="43.26268372308701" lon="11.372806890431395"><ele>185.0</ele><time>2026-04-11T07:31:59.999Z</time></trkpt><trkpt lat="43.26254443537965" lon="11.372970231718357"><ele>185.0</ele><time>2026-04-11T07:32:00.999Z</time></trkpt><trkpt lat="43.26242790561572" lon="11.373105124063809"><ele>184.4</ele><time>2026-04-11T07:32:01.999Z</time></trkpt><trkpt lat="43.26233099296846" lon="11.373202653046683"><ele>183.8</ele><time>2026-04-11T07:32:02.999Z</time></trkpt><trkpt lat="43.26225429636125" lon="11.373259959908935"><ele>183.2</ele><time>2026-04-11T07:32:03.999Z</time></trkpt><trkpt lat="43.262161948707906" lon="11.37328333123829"><ele>182.6</ele><time>2026-04-11T07:32:04.999Z</time></trkpt><trkpt lat="43.26206206850419" lon="11.37328552556637"><ele>182.0</ele><time>2026-04-11T07:32:05.999Z</time></trkpt><trkpt lat="43.261972800065514" lon="11.373345847856504"><ele>181.0</ele><time>2026-04-11T07:32:06.999Z</time></trkpt><trkpt lat="43.26191043205719" lon="11.373463765424106"><ele>180.0</ele><time>2026-04-11T07:32:07.999Z</time></trkpt><trkpt lat="43.26187658902165" lon="11.37362492288965"><ele>179.0</ele><time>2026-04-11T07:32:08.999Z</time></trkpt><trkpt lat="43.26182549116243" lon="11.373793882639463"><ele>178.0</ele><time>2026-04-11T07:32:09.999Z</time></trkpt><trkpt lat="43.261722887876" lon="11.373944196988676"><ele>177.66666666666669</ele><time>2026-04-11T07:32:10.999Z</time></trkpt><trkpt lat="43.26159629791405" lon="11.374096114327472"><ele>177.33333333333334</ele><time>2026-04-11T07:32:11.999Z</time></trkpt><trkpt lat="43.2614598733627" lon="11.374256221863375"><ele>177.0</ele><time>2026-04-11T07:32:12.999Z</time></trkpt><trkpt lat="43.26132068785013" lon="11.374424092882762"><ele>176.66666666666666</ele><time>2026-04-11T07:32:13.999Z</time></trkpt><trkpt lat="43.261172324237755" lon="11.374601459475958"><ele>176.33333333333331</ele><time>2026-04-11T07:32:14.999Z</time></trkpt><trkpt lat="43.26101733222624" lon="11.374784490603652"><ele>176.0</ele><time>2026-04-11T07:32:15.999Z</time></trkpt><trkpt lat="43.26085619767" lon="11.374967083922652"><ele>175.66666666666666</ele><time>2026-04-11T07:32:16.999Z</time></trkpt><trkpt lat="43.26069737437351" lon="11.375155109781726"><ele>175.33333333333334</ele><time>2026-04-11T07:32:17.999Z</time></trkpt><trkpt lat="43.26053696021925" lon="11.375348440442352"><ele>175.0</ele><time>2026-04-11T07:32:18.999Z</time></trkpt><trkpt lat="43.26038176496373" lon="11.375529556257568"><ele>175.0</ele><time>2026-04-11T07:32:19.999Z</time></trkpt><trkpt lat="43.2602448550932" lon="11.375696653205642"><ele>175.0</ele><time>2026-04-11T07:32:20.999Z</time></trkpt><trkpt lat="43.260131372949026" lon="11.375863604022973"><ele>175.0</ele><time>2026-04-11T07:32:21.999Z</time></trkpt><trkpt lat="43.2600609723238" lon="11.376072390321998"><ele>175.0</ele><time>2026-04-11T07:32:22.999Z</time></trkpt><trkpt lat="43.26003666453222" lon="11.376281413180013"><ele>175.0</ele><time>2026-04-11T07:32:23.999Z</time></trkpt><trkpt lat="43.26002447051944" lon="11.37650278764206"><ele>175.0</ele><time>2026-04-11T07:32:24.999Z</time></trkpt><trkpt lat="43.26000347511855" lon="11.37671584008983"><ele>174.33333333333334</ele><time>2026-04-11T07:32:25.999Z</time></trkpt><trkpt lat="43.25998311134322" lon="11.376943065986381"><ele>173.66666666666666</ele><time>2026-04-11T07:32:26.999Z</time></trkpt><trkpt lat="43.25995498235436" lon="11.37716860533854"><ele>173.0</ele><time>2026-04-11T07:32:27.999Z</time></trkpt><trkpt lat="43.25992990186669" lon="11.377394185254838"><ele>173.0</ele><time>2026-04-11T07:32:28.999Z</time></trkpt><trkpt lat="43.25990631195117" lon="11.377623448627068"><ele>173.0</ele><time>2026-04-11T07:32:29.999Z</time></trkpt><trkpt lat="43.25988061174073" lon="11.377844278896871"><ele>173.0</ele><time>2026-04-11T07:32:30.999Z</time></trkpt><trkpt lat="43.25984667408885" lon="11.378045859262372"><ele>173.25</ele><time>2026-04-11T07:32:31.999Z</time></trkpt><trkpt lat="43.25978324812903" lon="11.378225488900481"><ele>173.5</ele><time>2026-04-11T07:32:32.999Z</time></trkpt><trkpt lat="43.25968979043278" lon="11.378376324901696"><ele>173.75</ele><time>2026-04-11T07:32:33.999Z</time></trkpt><trkpt lat="43.25961328722954" lon="11.378527763860607"><ele>174.0</ele><time>2026-04-11T07:32:34.999Z</time></trkpt><trkpt lat="43.25954866698447" lon="11.378651473896987"><ele>174.0</ele><time>2026-04-11T07:32:35.999Z</time></trkpt><trkpt lat="43.25948692928465" lon="11.3787017553876"><ele>174.0</ele><time>2026-04-11T07:32:38.999Z</time></trkpt><trkpt lat="43.2594296476352" lon="11.378758838898834"><ele>174.0</ele><time>2026-04-11T07:32:43Z</time></trkpt><trkpt lat="43.25937218595574" lon="11.378870025453413"><ele>174.0</ele><time>2026-04-11T07:32:44Z</time></trkpt><trkpt lat="43.25928448960194" lon="11.379056018487208"><ele>174.0</ele><time>2026-04-11T07:32:45Z</time></trkpt><trkpt lat="43.25915144180925" lon="11.379277210204398"><ele>174.0</ele><time>2026-04-11T07:32:46Z</time></trkpt><trkpt lat="43.25898990152656" lon="11.379528521033969"><ele>174.0</ele><time>2026-04-11T07:32:47Z</time></trkpt><trkpt lat="43.25882722912764" lon="11.3798024954575"><ele>174.0</ele><time>2026-04-11T07:32:48Z</time></trkpt><trkpt lat="43.25868815077432" lon="11.38005093705671"><ele>174.0</ele><time>2026-04-11T07:32:49Z</time></trkpt><trkpt lat="43.25855700485269" lon="11.380285520983055"><ele>174.0</ele><time>2026-04-11T07:32:50Z</time></trkpt><trkpt lat="43.25845262023897" lon="11.380491388289753"><ele>173.66666666666666</ele><time>2026-04-11T07:32:51Z</time></trkpt><trkpt lat="43.25833207994225" lon="11.380647537486002"><ele>173.33333333333331</ele><time>2026-04-11T07:32:52Z</time></trkpt><trkpt lat="43.25820694794971" lon="11.380779362438341"><ele>173.0</ele><time>2026-04-11T07:32:53Z</time></trkpt><trkpt lat="43.2580474932556" lon="11.380898743381513"><ele>173.0</ele><time>2026-04-11T07:32:54Z</time></trkpt><trkpt lat="43.25783813304098" lon="11.380945082244628"><ele>173.0</ele><time>2026-04-11T07:32:55Z</time></trkpt><trkpt lat="43.25764349969941" lon="11.380952441026848"><ele>173.0</ele><time>2026-04-11T07:32:56Z</time></trkpt><trkpt lat="43.25744259522464" lon="11.380958677193316"><ele>173.33333333333331</ele><time>2026-04-11T07:32:57Z</time></trkpt><trkpt lat="43.257265515159595" lon="11.38095386279168"><ele>173.66666666666666</ele><time>2026-04-11T07:32:58Z</time></trkpt><trkpt lat="43.25709722965825" lon="11.380969056745801"><ele>174.0</ele><time>2026-04-11T07:32:59Z</time></trkpt><trkpt lat="43.25692551489207" lon="11.381020345898957"><ele>174.0</ele><time>2026-04-11T07:33:00Z</time></trkpt><trkpt lat="43.25676846360784" lon="11.381126422719383"><ele>174.0</ele><time>2026-04-11T07:33:01Z</time></trkpt><trkpt lat="43.256623765527365" lon="11.38127230439991"><ele>174.0</ele><time>2026-04-11T07:33:02Z</time></trkpt><trkpt lat="43.256481345523575" lon="11.381444917135472"><ele>173.66666666666666</ele><time>2026-04-11T07:33:03Z</time></trkpt><trkpt lat="43.256367123618524" lon="11.381620102672844"><ele>173.33333333333331</ele><time>2026-04-11T07:33:04Z</time></trkpt><trkpt lat="43.256277038771294" lon="11.38182064558654"><ele>173.0</ele><time>2026-04-11T07:33:05Z</time></trkpt><trkpt lat="43.25620935647782" lon="11.382052251464183"><ele>172.66666666666666</ele><time>2026-04-11T07:33:06Z</time></trkpt><trkpt lat="43.256152152315536" lon="11.382303800783328"><ele>172.33333333333334</ele><time>2026-04-11T07:33:07Z</time></trkpt><trkpt lat="43.25609379264263" lon="11.3825720093004"><ele>172.0</ele><time>2026-04-11T07:33:08Z</time></trkpt><trkpt lat="43.256031256818176" lon="11.382855780925864"><ele>171.33333333333334</ele><time>2026-04-11T07:33:09Z</time></trkpt><trkpt lat="43.25596527725172" lon="11.383141729254177"><ele>170.66666666666666</ele><time>2026-04-11T07:33:10Z</time></trkpt><trkpt lat="43.255899738521826" lon="11.383434728724577"><ele>170.0</ele><time>2026-04-11T07:33:11Z</time></trkpt><trkpt lat="43.25583282677214" lon="11.383733717084912"><ele>170.0</ele><time>2026-04-11T07:33:12Z</time></trkpt><trkpt lat="43.255763746651176" lon="11.384038575943576"><ele>170.0</ele><time>2026-04-11T07:33:13Z</time></trkpt><trkpt lat="43.25569208232188" lon="11.384347974302658"><ele>171.0</ele><time>2026-04-11T07:33:14Z</time></trkpt><trkpt lat="43.255617916840855" lon="11.384660423152454"><ele>172.0</ele><time>2026-04-11T07:33:15Z</time></trkpt><trkpt lat="43.255547693065246" lon="11.38497648676083"><ele>172.0</ele><time>2026-04-11T07:33:16Z</time></trkpt><trkpt lat="43.25547348478829" lon="11.385293925463005"><ele>172.0</ele><time>2026-04-11T07:33:17Z</time></trkpt><trkpt lat="43.25540464255663" lon="11.38560360288089"><ele>172.5</ele><time>2026-04-11T07:33:18Z</time></trkpt><trkpt lat="43.255337321421514" lon="11.38591554630384"><ele>173.0</ele><time>2026-04-11T07:33:19Z</time></trkpt><trkpt lat="43.25527432465512" lon="11.386226031506565"><ele>171.5</ele><time>2026-04-11T07:33:20Z</time></trkpt><trkpt lat="43.25521161299571" lon="11.386536625698216"><ele>170.0</ele><time>2026-04-11T07:33:21Z</time></trkpt><trkpt lat="43.25514820620568" lon="11.386853051831613"><ele>170.0</ele><time>2026-04-11T07:33:22Z</time></trkpt><trkpt lat="43.255084967040624" lon="11.387174356532734"><ele>170.0</ele><time>2026-04-11T07:33:23Z</time></trkpt><trkpt lat="43.2550208100034" lon="11.387493540732793"><ele>169.0</ele><time>2026-04-11T07:33:24Z</time></trkpt><trkpt lat="43.25495646869019" lon="11.387814157193247"><ele>168.0</ele><time>2026-04-11T07:33:25Z</time></trkpt><trkpt lat="43.25489327069691" lon="11.38812677085496"><ele>167.5</ele><time>2026-04-11T07:33:26Z</time></trkpt><trkpt lat="43.25482461352604" lon="11.388440221000181"><ele>167.0</ele><time>2026-04-11T07:33:27Z</time></trkpt><trkpt lat="43.25475282600718" lon="11.388748896400406"><ele>168.0</ele><time>2026-04-11T07:33:28Z</time></trkpt><trkpt lat="43.254668140753786" lon="11.389052917352611"><ele>169.0</ele><time>2026-04-11T07:33:29Z</time></trkpt><trkpt lat="43.25456893031946" lon="11.389340588548084"><ele>169.0</ele><time>2026-04-11T07:33:30Z</time></trkpt><trkpt lat="43.25445597202763" lon="11.389618529747501"><ele>169.0</ele><time>2026-04-11T07:33:31Z</time></trkpt><trkpt lat="43.25434334694504" lon="11.389895283202286"><ele>169.5</ele><time>2026-04-11T07:33:32Z</time></trkpt><trkpt lat="43.25423469936642" lon="11.390173765029965"><ele>170.0</ele><time>2026-04-11T07:33:33Z</time></trkpt><trkpt lat="43.25412926175539" lon="11.39045198654419"><ele>170.5</ele><time>2026-04-11T07:33:34Z</time></trkpt><trkpt lat="43.254021468101065" lon="11.39072602218423"><ele>171.0</ele><time>2026-04-11T07:33:35Z</time></trkpt><trkpt lat="43.253920429306476" lon="11.390998707531987"><ele>170.33333333333334</ele><time>2026-04-11T07:33:36Z</time></trkpt><trkpt lat="43.25381940923423" lon="11.39125741516557"><ele>169.66666666666669</ele><time>2026-04-11T07:33:37Z</time></trkpt><trkpt lat="43.253723855714995" lon="11.391510061538087"><ele>169.0</ele><time>2026-04-11T07:33:38Z</time></trkpt><trkpt lat="43.25363557741893" lon="11.391754110982117"><ele>169.0</ele><time>2026-04-11T07:33:39Z</time></trkpt><trkpt lat="43.253548471715796" lon="11.391979760536406"><ele>169.0</ele><time>2026-04-11T07:33:40Z</time></trkpt><trkpt lat="43.253461399586975" lon="11.392203230738808"><ele>169.0</ele><time>2026-04-11T07:33:41Z</time></trkpt><trkpt lat="43.2533727687912" lon="11.39242511077704"><ele>169.33333333333334</ele><time>2026-04-11T07:33:42Z</time></trkpt><trkpt lat="43.253275758951816" lon="11.392641602621651"><ele>169.66666666666666</ele><time>2026-04-11T07:33:43Z</time></trkpt><trkpt lat="43.253175254236005" lon="11.392853145554401"><ele>170.0</ele><time>2026-04-11T07:33:44Z</time></trkpt><trkpt lat="43.25308834320857" lon="11.393075011479674"><ele>170.33333333333331</ele><time>2026-04-11T07:33:45Z</time></trkpt><trkpt lat="43.252992794347584" lon="11.39327409933092"><ele>170.66666666666666</ele><time>2026-04-11T07:33:46Z</time></trkpt><trkpt lat="43.25296771606878" lon="11.393527374469794"><ele>171.0</ele><time>2026-04-11T07:33:47Z</time></trkpt><trkpt lat="43.252895986556716" lon="11.39373710441382"><ele>171.66666666666666</ele><time>2026-04-11T07:33:48Z</time></trkpt><trkpt lat="43.25280810047675" lon="11.393920493636056"><ele>172.33333333333331</ele><time>2026-04-11T07:33:49Z</time></trkpt><trkpt lat="43.25271591172738" lon="11.39409544491286"><ele>173.0</ele><time>2026-04-11T07:33:50Z</time></trkpt><trkpt lat="43.252625536226894" lon="11.394264793953695"><ele>173.0</ele><time>2026-04-11T07:33:51Z</time></trkpt><trkpt lat="43.252537813452406" lon="11.394432896052573"><ele>173.0</ele><time>2026-04-11T07:33:52Z</time></trkpt><trkpt lat="43.25245365262322" lon="11.394596130437089"><ele>173.0</ele><time>2026-04-11T07:33:53Z</time></trkpt><trkpt lat="43.25236199204655" lon="11.394748868474169"><ele>173.0</ele><time>2026-04-11T07:33:54Z</time></trkpt><trkpt lat="43.25226273902356" lon="11.394893901199943"><ele>172.75</ele><time>2026-04-11T07:33:55Z</time></trkpt><trkpt lat="43.25216267400793" lon="11.395035479979885"><ele>172.5</ele><time>2026-04-11T07:33:56Z</time></trkpt><trkpt lat="43.25206879664864" lon="11.395176186936524"><ele>172.25</ele><time>2026-04-11T07:33:57Z</time></trkpt><trkpt lat="43.251979783010064" lon="11.39531681633487"><ele>172.0</ele><time>2026-04-11T07:33:58Z</time></trkpt><trkpt lat="43.25189753447586" lon="11.39545276999277"><ele>171.6</ele><time>2026-04-11T07:33:59Z</time></trkpt><trkpt lat="43.25182233026848" lon="11.395581482315203"><ele>171.2</ele><time>2026-04-11T07:34:00Z</time></trkpt><trkpt lat="43.25175900077201" lon="11.39571310388231"><ele>170.8</ele><time>2026-04-11T07:34:01Z</time></trkpt><trkpt lat="43.2517013536715" lon="11.39583817608471"><ele>170.4</ele><time>2026-04-11T07:34:02Z</time></trkpt><trkpt lat="43.251646240257784" lon="11.395955277729641"><ele>170.0</ele><time>2026-04-11T07:34:02.999Z</time></trkpt><trkpt lat="43.25159282151811" lon="11.396067248279389"><ele>170.0</ele><time>2026-04-11T07:34:03.999Z</time></trkpt><trkpt lat="43.25154358084481" lon="11.396196644768848"><ele>170.0</ele><time>2026-04-11T07:34:04.999Z</time></trkpt><trkpt lat="43.25148639324806" lon="11.396349133320996"><ele>170.0</ele><time>2026-04-11T07:34:05.999Z</time></trkpt><trkpt lat="43.2514223785041" lon="11.396535351640818"><ele>170.0</ele><time>2026-04-11T07:34:06.999Z</time></trkpt><trkpt lat="43.25134155403353" lon="11.396750615111147"><ele>170.33333333333331</ele><time>2026-04-11T07:34:07.999Z</time></trkpt><trkpt lat="43.25125511475436" lon="11.396971750365932"><ele>170.66666666666666</ele><time>2026-04-11T07:34:08.999Z</time></trkpt><trkpt lat="43.25117147638803" lon="11.39719112329838"><ele>171.0</ele><time>2026-04-11T07:34:09.999Z</time></trkpt><trkpt lat="43.25108967815421" lon="11.397425119526687"><ele>171.0</ele><time>2026-04-11T07:34:10.999Z</time></trkpt><trkpt lat="43.2510011989713" lon="11.397648791201746"><ele>171.0</ele><time>2026-04-11T07:34:11.999Z</time></trkpt><trkpt lat="43.25092135133708" lon="11.397882829069347"><ele>171.0</ele><time>2026-04-11T07:34:12.999Z</time></trkpt><trkpt lat="43.250837143914346" lon="11.398110664383797"><ele>171.0</ele><time>2026-04-11T07:34:13.999Z</time></trkpt><trkpt lat="43.25075914004603" lon="11.398350517718779"><ele>171.0</ele><time>2026-04-11T07:34:14.999Z</time></trkpt><trkpt lat="43.250677362280804" lon="11.398583680169974"><ele>171.0</ele><time>2026-04-11T07:34:15.999Z</time></trkpt><trkpt lat="43.25059473259501" lon="11.398822289369289"><ele>170.66666666666666</ele><time>2026-04-11T07:34:16.999Z</time></trkpt><trkpt lat="43.25050696951925" lon="11.399063143420596"><ele>170.33333333333331</ele><time>2026-04-11T07:34:17.999Z</time></trkpt><trkpt lat="43.25041039318768" lon="11.399302646032602"><ele>170.0</ele><time>2026-04-11T07:34:18.999Z</time></trkpt><trkpt lat="43.25030904864306" lon="11.399542836729553"><ele>169.33333333333331</ele><time>2026-04-11T07:34:19.999Z</time></trkpt><trkpt lat="43.25020193833567" lon="11.399779273537941"><ele>168.66666666666666</ele><time>2026-04-11T07:34:20.999Z</time></trkpt><trkpt lat="43.25009525049576" lon="11.400013041458301"><ele>168.0</ele><time>2026-04-11T07:34:21.999Z</time></trkpt><trkpt lat="43.24997710832562" lon="11.40024193952206"><ele>168.0</ele><time>2026-04-11T07:34:22.999Z</time></trkpt><trkpt lat="43.249844270570016" lon="11.40046220105258"><ele>168.0</ele><time>2026-04-11T07:34:23.999Z</time></trkpt><trkpt lat="43.24970812999285" lon="11.400681033735664"><ele>168.0</ele><time>2026-04-11T07:34:24.999Z</time></trkpt><trkpt lat="43.24957715886418" lon="11.400908911559245"><ele>168.0</ele><time>2026-04-11T07:34:25.999Z</time></trkpt><trkpt lat="43.24944843514312" lon="11.401137786692836"><ele>168.0</ele><time>2026-04-11T07:34:26.999Z</time></trkpt><trkpt lat="43.249330833734135" lon="11.401353648215698"><ele>168.0</ele><time>2026-04-11T07:34:27.999Z</time></trkpt><trkpt lat="43.24922027447499" lon="11.401554306008084"><ele>168.0</ele><time>2026-04-11T07:34:28.999Z</time></trkpt><trkpt lat="43.24911598193601" lon="11.401744263773407"><ele>168.0</ele><time>2026-04-11T07:34:29.999Z</time></trkpt><trkpt lat="43.249023743556506" lon="11.401910309958833"><ele>168.0</ele><time>2026-04-11T07:34:30.999Z</time></trkpt><trkpt lat="43.24893266534132" lon="11.40207355434962"><ele>168.66666666666666</ele><time>2026-04-11T07:34:31.999Z</time></trkpt><trkpt lat="43.24885098780557" lon="11.402246527977406"><ele>169.33333333333331</ele><time>2026-04-11T07:34:32.999Z</time></trkpt><trkpt lat="43.24875287563547" lon="11.402423538682966"><ele>170.0</ele><time>2026-04-11T07:34:33.999Z</time></trkpt><trkpt lat="43.2486634084136" lon="11.402617305582952"><ele>170.0</ele><time>2026-04-11T07:34:34.999Z</time></trkpt><trkpt lat="43.24856947763979" lon="11.402828048481936"><ele>170.0</ele><time>2026-04-11T07:34:35.999Z</time></trkpt><trkpt lat="43.24848519997811" lon="11.403035859101998"><ele>170.0</ele><time>2026-04-11T07:34:36.999Z</time></trkpt><trkpt lat="43.248404418719474" lon="11.403246864524998"><ele>169.66666666666666</ele><time>2026-04-11T07:34:37.999Z</time></trkpt><trkpt lat="43.24832127771855" lon="11.403459013316443"><ele>169.33333333333334</ele><time>2026-04-11T07:34:38.999Z</time></trkpt><trkpt lat="43.248251160303475" lon="11.403660511032351"><ele>169.0</ele><time>2026-04-11T07:34:39.999Z</time></trkpt><trkpt lat="43.2481742977733" lon="11.403857814677636"><ele>169.33333333333334</ele><time>2026-04-11T07:34:40.999Z</time></trkpt><trkpt lat="43.2480954488345" lon="11.404057520216192"><ele>169.66666666666666</ele><time>2026-04-11T07:34:41.999Z</time></trkpt><trkpt lat="43.24802144919722" lon="11.404256451686393"><ele>170.0</ele><time>2026-04-11T07:34:42.999Z</time></trkpt><trkpt lat="43.24794151559965" lon="11.404434511997353"><ele>170.0</ele><time>2026-04-11T07:34:43.999Z</time></trkpt><trkpt lat="43.24784828247081" lon="11.404610373562042"><ele>170.0</ele><time>2026-04-11T07:34:44.999Z</time></trkpt><trkpt lat="43.24773566560838" lon="11.404772884096152"><ele>170.0</ele><time>2026-04-11T07:34:46Z</time></trkpt><trkpt lat="43.24761197269497" lon="11.404939239696308"><ele>169.33333333333331</ele><time>2026-04-11T07:34:47Z</time></trkpt><trkpt lat="43.24747335083307" lon="11.405095163447156"><ele>168.66666666666666</ele><time>2026-04-11T07:34:48Z</time></trkpt><trkpt lat="43.24732291454441" lon="11.405235583866922"><ele>168.0</ele><time>2026-04-11T07:34:49Z</time></trkpt><trkpt lat="43.24716532131904" lon="11.405382698088658"><ele>167.66666666666666</ele><time>2026-04-11T07:34:50Z</time></trkpt><trkpt lat="43.247006193632416" lon="11.405536422970902"><ele>167.33333333333331</ele><time>2026-04-11T07:34:51Z</time></trkpt><trkpt lat="43.246845999666895" lon="11.405688601355765"><ele>167.0</ele><time>2026-04-11T07:34:52Z</time></trkpt><trkpt lat="43.246687564006606" lon="11.40583777768617"><ele>167.0</ele><time>2026-04-11T07:34:53Z</time></trkpt><trkpt lat="43.2465251581047" lon="11.405986433529861"><ele>167.0</ele><time>2026-04-11T07:34:54Z</time></trkpt><trkpt lat="43.24638143977534" lon="11.406114000451083"><ele>167.0</ele><time>2026-04-11T07:34:55Z</time></trkpt><trkpt lat="43.24624547307949" lon="11.406225300543188"><ele>166.5</ele><time>2026-04-11T07:34:56Z</time></trkpt><trkpt lat="43.24611826606186" lon="11.406331633981457"><ele>166.0</ele><time>2026-04-11T07:34:57Z</time></trkpt><trkpt lat="43.24602703975811" lon="11.406406565218642"><ele>165.5</ele><time>2026-04-11T07:34:58Z</time></trkpt><trkpt lat="43.245967944267264" lon="11.406454365919618"><ele>165.0</ele><time>2026-04-11T07:34:59Z</time></trkpt><trkpt lat="43.24598590611004" lon="11.406626460973913"><ele>165.0</ele><time>2026-04-11T07:35:00Z</time></trkpt><trkpt lat="43.24602077935465" lon="11.406762139078655"><ele>165.0</ele><time>2026-04-11T07:35:01Z</time></trkpt><trkpt lat="43.24610466878063" lon="11.406897443629308"><ele>165.0</ele><time>2026-04-11T07:35:02Z</time></trkpt><trkpt lat="43.24615231819306" lon="11.407027386743914"><ele>165.0</ele><time>2026-04-11T07:35:03Z</time></trkpt><trkpt lat="43.246154904999344" lon="11.407191173163074"><ele>164.66666666666666</ele><time>2026-04-11T07:35:04Z</time></trkpt><trkpt lat="43.24610683560072" lon="11.407365311921962"><ele>164.33333333333331</ele><time>2026-04-11T07:35:05Z</time></trkpt><trkpt lat="43.24600902107769" lon="11.407522898227734"><ele>164.0</ele><time>2026-04-11T07:35:06Z</time></trkpt><trkpt lat="43.245865182405325" lon="11.407645830440508"><ele>164.0</ele><time>2026-04-11T07:35:07Z</time></trkpt><trkpt lat="43.2457028662038" lon="11.407783568920062"><ele>164.0</ele><time>2026-04-11T07:35:08Z</time></trkpt><trkpt lat="43.245495984090105" lon="11.407890504682625"><ele>164.0</ele><time>2026-04-11T07:35:09Z</time></trkpt><trkpt lat="43.24531675205158" lon="11.408036358087156"><ele>164.0</ele><time>2026-04-11T07:35:10Z</time></trkpt><trkpt lat="43.24514136906241" lon="11.408197287382047"><ele>164.0</ele><time>2026-04-11T07:35:11Z</time></trkpt><trkpt lat="43.244946668888446" lon="11.408357345032512"><ele>164.0</ele><time>2026-04-11T07:35:12Z</time></trkpt><trkpt lat="43.24475299089342" lon="11.408507615652672"><ele>163.66666666666666</ele><time>2026-04-11T07:35:13Z</time></trkpt><trkpt lat="43.24456168032439" lon="11.408659538445612"><ele>163.33333333333334</ele><time>2026-04-11T07:35:14Z</time></trkpt><trkpt lat="43.244390200408915" lon="11.408806887210057"><ele>163.0</ele><time>2026-04-11T07:35:15Z</time></trkpt><trkpt lat="43.24422317963841" lon="11.408945595031105"><ele>162.66666666666669</ele><time>2026-04-11T07:35:16Z</time></trkpt><trkpt lat="43.244047550370226" lon="11.409086875458348"><ele>162.33333333333334</ele><time>2026-04-11T07:35:17Z</time></trkpt><trkpt lat="43.24387108282299" lon="11.409237083072405"><ele>162.0</ele><time>2026-04-11T07:35:18Z</time></trkpt><trkpt lat="43.24368243699325" lon="11.40938364167154"><ele>162.5</ele><time>2026-04-11T07:35:19Z</time></trkpt><trkpt lat="43.243483969434315" lon="11.409536917288206"><ele>163.0</ele><time>2026-04-11T07:35:20Z</time></trkpt><trkpt lat="43.24328220939423" lon="11.409695458638158"><ele>163.5</ele><time>2026-04-11T07:35:21Z</time></trkpt><trkpt lat="43.243074699718576" lon="11.409861809388879"><ele>164.0</ele><time>2026-04-11T07:35:22Z</time></trkpt><trkpt lat="43.24286377440855" lon="11.41003503324643"><ele>164.0</ele><time>2026-04-11T07:35:23Z</time></trkpt><trkpt lat="43.242651015571475" lon="11.41021968405263"><ele>164.0</ele><time>2026-04-11T07:35:24Z</time></trkpt><trkpt lat="43.24243994324505" lon="11.410421684053615"><ele>164.0</ele><time>2026-04-11T07:35:25Z</time></trkpt><trkpt lat="43.24223041828894" lon="11.410634831649286"><ele>164.0</ele><time>2026-04-11T07:35:26Z</time></trkpt><trkpt lat="43.242023956652616" lon="11.410865550007832"><ele>164.0</ele><time>2026-04-11T07:35:27Z</time></trkpt><trkpt lat="43.24182050564958" lon="11.41111409379716"><ele>164.0</ele><time>2026-04-11T07:35:28Z</time></trkpt><trkpt lat="43.24162141103415" lon="11.411381343646582"><ele>163.5</ele><time>2026-04-11T07:35:29Z</time></trkpt><trkpt lat="43.241427932409465" lon="11.411662842633676"><ele>163.0</ele><time>2026-04-11T07:35:30Z</time></trkpt><trkpt lat="43.24123333046106" lon="11.411949388705597"><ele>162.0</ele><time>2026-04-11T07:35:31Z</time></trkpt><trkpt lat="43.24103427933376" lon="11.41223514768951"><ele>161.0</ele><time>2026-04-11T07:35:32Z</time></trkpt><trkpt lat="43.24084066619286" lon="11.412527614097058"><ele>161.0</ele><time>2026-04-11T07:35:33Z</time></trkpt><trkpt lat="43.24064003915642" lon="11.412817253826423"><ele>161.0</ele><time>2026-04-11T07:35:34Z</time></trkpt><trkpt lat="43.24044332487601" lon="11.413106532265935"><ele>161.5</ele><time>2026-04-11T07:35:35Z</time></trkpt><trkpt lat="43.24024274383072" lon="11.41339762770844"><ele>162.0</ele><time>2026-04-11T07:35:36Z</time></trkpt><trkpt lat="43.24005104693083" lon="11.413686550546835"><ele>162.0</ele><time>2026-04-11T07:35:37Z</time></trkpt><trkpt lat="43.23985820131911" lon="11.413974378246055"><ele>162.0</ele><time>2026-04-11T07:35:38Z</time></trkpt><trkpt lat="43.239667252747246" lon="11.414262987610973"><ele>162.5</ele><time>2026-04-11T07:35:39Z</time></trkpt><trkpt lat="43.23946765466441" lon="11.414548211131303"><ele>163.0</ele><time>2026-04-11T07:35:40Z</time></trkpt><trkpt lat="43.23927463233197" lon="11.414835983369326"><ele>163.0</ele><time>2026-04-11T07:35:41Z</time></trkpt><trkpt lat="43.23907839910844" lon="11.415122125706375"><ele>163.0</ele><time>2026-04-11T07:35:42Z</time></trkpt><trkpt lat="43.238877450891835" lon="11.415405550161845"><ele>163.5</ele><time>2026-04-11T07:35:43Z</time></trkpt><trkpt lat="43.23868276200862" lon="11.415697255881271"><ele>164.0</ele><time>2026-04-11T07:35:44Z</time></trkpt><trkpt lat="43.23848801589808" lon="11.415986847506357"><ele>164.0</ele><time>2026-04-11T07:35:45Z</time></trkpt><trkpt lat="43.23829658473819" lon="11.416274313801045"><ele>164.0</ele><time>2026-04-11T07:35:46Z</time></trkpt><trkpt lat="43.23810168714232" lon="11.416567546805313"><ele>163.0</ele><time>2026-04-11T07:35:47Z</time></trkpt><trkpt lat="43.23790345058028" lon="11.416860593767613"><ele>162.0</ele><time>2026-04-11T07:35:48Z</time></trkpt><trkpt lat="43.237702822918855" lon="11.417150480824967"><ele>162.5</ele><time>2026-04-11T07:35:49Z</time></trkpt><trkpt lat="43.23750160321916" lon="11.417435262186459"><ele>163.0</ele><time>2026-04-11T07:35:50Z</time></trkpt><trkpt lat="43.237291648266925" lon="11.417713131964629"><ele>162.0</ele><time>2026-04-11T07:35:51Z</time></trkpt><trkpt lat="43.237071085315144" lon="11.41797294756426"><ele>161.0</ele><time>2026-04-11T07:35:52Z</time></trkpt><trkpt lat="43.236838065140546" lon="11.418206258201389"><ele>160.5</ele><time>2026-04-11T07:35:53Z</time></trkpt><trkpt lat="43.23660040480135" lon="11.418427226452565"><ele>160.0</ele><time>2026-04-11T07:35:54Z</time></trkpt><trkpt lat="43.23635411417935" lon="11.418637384055792"><ele>161.5</ele><time>2026-04-11T07:35:55Z</time></trkpt><trkpt lat="43.23610406294163" lon="11.418833806536348"><ele>163.0</ele><time>2026-04-11T07:35:56Z</time></trkpt><trkpt lat="43.235853325794736" lon="11.419030849022214"><ele>163.5</ele><time>2026-04-11T07:35:57Z</time></trkpt><trkpt lat="43.235604359033815" lon="11.419235231961531"><ele>164.0</ele><time>2026-04-11T07:35:58Z</time></trkpt><trkpt lat="43.23535760444173" lon="11.41944362266947"><ele>163.0</ele><time>2026-04-11T07:35:59Z</time></trkpt><trkpt lat="43.235119319347945" lon="11.41965891052683"><ele>162.0</ele><time>2026-04-11T07:36:00Z</time></trkpt><trkpt lat="43.234886287073785" lon="11.419889805419349"><ele>163.0</ele><time>2026-04-11T07:36:01Z</time></trkpt><trkpt lat="43.23466114152197" lon="11.420135892904025"><ele>164.0</ele><time>2026-04-11T07:36:02Z</time></trkpt><trkpt lat="43.23444268950629" lon="11.420401608262322"><ele>163.5</ele><time>2026-04-11T07:36:03Z</time></trkpt><trkpt lat="43.23423474076558" lon="11.420678293587235"><ele>163.0</ele><time>2026-04-11T07:36:04Z</time></trkpt><trkpt lat="43.234035080823155" lon="11.420963172352105"><ele>163.0</ele><time>2026-04-11T07:36:05Z</time></trkpt><trkpt lat="43.23384483010087" lon="11.421260314941355"><ele>163.0</ele><time>2026-04-11T07:36:06Z</time></trkpt><trkpt lat="43.23365250093725" lon="11.421553903532448"><ele>163.0</ele><time>2026-04-11T07:36:07Z</time></trkpt><trkpt lat="43.233462022043895" lon="11.421849883695506"><ele>163.0</ele><time>2026-04-11T07:36:08Z</time></trkpt><trkpt lat="43.23326994196684" lon="11.42214478202815"><ele>164.0</ele><time>2026-04-11T07:36:09Z</time></trkpt><trkpt lat="43.23306804863426" lon="11.422429408802538"><ele>165.0</ele><time>2026-04-11T07:36:10Z</time></trkpt><trkpt lat="43.23285407613423" lon="11.42269828061876"><ele>165.0</ele><time>2026-04-11T07:36:11Z</time></trkpt><trkpt lat="43.232629886417556" lon="11.422951591360654"><ele>165.0</ele><time>2026-04-11T07:36:12Z</time></trkpt><trkpt lat="43.232394916240494" lon="11.423184310936112"><ele>163.5</ele><time>2026-04-11T07:36:13Z</time></trkpt><trkpt lat="43.232150555952146" lon="11.423396424606244"><ele>162.0</ele><time>2026-04-11T07:36:14Z</time></trkpt><trkpt lat="43.23189659403799" lon="11.423589007418807"><ele>162.0</ele><time>2026-04-11T07:36:15Z</time></trkpt><trkpt lat="43.23163896725052" lon="11.423768440120801"><ele>162.0</ele><time>2026-04-11T07:36:16Z</time></trkpt><trkpt lat="43.231382441380944" lon="11.423946430901536"><ele>162.0</ele><time>2026-04-11T07:36:17Z</time></trkpt><trkpt lat="43.23112737496711" lon="11.424129242490492"><ele>162.0</ele><time>2026-04-11T07:36:18Z</time></trkpt><trkpt lat="43.23087206680318" lon="11.424311254339184"><ele>162.0</ele><time>2026-04-11T07:36:19Z</time></trkpt><trkpt lat="43.230615531508896" lon="11.424494733410516"><ele>162.0</ele><time>2026-04-11T07:36:20Z</time></trkpt><trkpt lat="43.23035817937802" lon="11.424677346990398"><ele>162.0</ele><time>2026-04-11T07:36:21Z</time></trkpt><trkpt lat="43.230099068743485" lon="11.424854964921016"><ele>162.0</ele><time>2026-04-11T07:36:22Z</time></trkpt><trkpt lat="43.22984154529681" lon="11.42503349110373"><ele>162.0</ele><time>2026-04-11T07:36:23Z</time></trkpt><trkpt lat="43.22958311290849" lon="11.425214158796996"><ele>162.0</ele><time>2026-04-11T07:36:24Z</time></trkpt><trkpt lat="43.22932155298791" lon="11.425386452487242"><ele>162.0</ele><time>2026-04-11T07:36:24.999Z</time></trkpt><trkpt lat="43.22905521167958" lon="11.425544919850731"><ele>162.0</ele><time>2026-04-11T07:36:25.999Z</time></trkpt><trkpt lat="43.228783637265146" lon="11.425691422667711"><ele>162.0</ele><time>2026-04-11T07:36:26.999Z</time></trkpt><trkpt lat="43.22850679351448" lon="11.425821683579235"><ele>162.0</ele><time>2026-04-11T07:36:27.999Z</time></trkpt><trkpt lat="43.22822633105052" lon="11.425931802895326"><ele>161.0</ele><time>2026-04-11T07:36:28.999Z</time></trkpt><trkpt lat="43.227941672136325" lon="11.426023821992805"><ele>160.0</ele><time>2026-04-11T07:36:29.999Z</time></trkpt><trkpt lat="43.22765859231602" lon="11.426107595212125"><ele>160.0</ele><time>2026-04-11T07:36:30.999Z</time></trkpt><trkpt lat="43.22737229200133" lon="11.426190138092615"><ele>160.0</ele><time>2026-04-11T07:36:31.999Z</time></trkpt><trkpt lat="43.22708900833379" lon="11.426271890260168"><ele>159.0</ele><time>2026-04-11T07:36:32.999Z</time></trkpt><trkpt lat="43.22680527940376" lon="11.426350751673198"><ele>158.0</ele><time>2026-04-11T07:36:33.999Z</time></trkpt><trkpt lat="43.22652124629925" lon="11.426431429135716"><ele>158.0</ele><time>2026-04-11T07:36:34.999Z</time></trkpt><trkpt lat="43.22623955163932" lon="11.426520235819453"><ele>158.0</ele><time>2026-04-11T07:36:35.999Z</time></trkpt><trkpt lat="43.22596123438491" lon="11.426611315378338"><ele>158.0</ele><time>2026-04-11T07:36:36.999Z</time></trkpt><trkpt lat="43.225684914770945" lon="11.42671651250134"><ele>158.0</ele><time>2026-04-11T07:36:37.999Z</time></trkpt><trkpt lat="43.22541498082357" lon="11.426847428426624"><ele>158.5</ele><time>2026-04-11T07:36:38.999Z</time></trkpt><trkpt lat="43.22515299616337" lon="11.42700498727865"><ele>159.0</ele><time>2026-04-11T07:36:39.999Z</time></trkpt><trkpt lat="43.224898432343224" lon="11.427188764261158"><ele>158.5</ele><time>2026-04-11T07:36:40.999Z</time></trkpt><trkpt lat="43.224652132779724" lon="11.427392261619921"><ele>158.0</ele><time>2026-04-11T07:36:41.999Z</time></trkpt><trkpt lat="43.224416523693314" lon="11.427615984494377"><ele>158.0</ele><time>2026-04-11T07:36:42.999Z</time></trkpt><trkpt lat="43.22418781901659" lon="11.42784966605692"><ele>158.0</ele><time>2026-04-11T07:36:43.999Z</time></trkpt><trkpt lat="43.22396361000359" lon="11.428092513720001"><ele>158.5</ele><time>2026-04-11T07:36:44.999Z</time></trkpt><trkpt lat="43.223739290294105" lon="11.428339043749705"><ele>159.0</ele><time>2026-04-11T07:36:45.999Z</time></trkpt><trkpt lat="43.22351079502382" lon="11.42858193677099"><ele>158.5</ele><time>2026-04-11T07:36:46.999Z</time></trkpt><trkpt lat="43.22328280076963" lon="11.42881976712834"><ele>158.0</ele><time>2026-04-11T07:36:47.999Z</time></trkpt><trkpt lat="43.22305027389311" lon="11.429049563550567"><ele>159.5</ele><time>2026-04-11T07:36:48.999Z</time></trkpt><trkpt lat="43.222808991361006" lon="11.429269503160658"><ele>161.0</ele><time>2026-04-11T07:36:49.999Z</time></trkpt><trkpt lat="43.222566310144636" lon="11.429482877890733"><ele>161.0</ele><time>2026-04-11T07:36:50.999Z</time></trkpt><trkpt lat="43.222320223973945" lon="11.42969220934179"><ele>161.0</ele><time>2026-04-11T07:36:52Z</time></trkpt><trkpt lat="43.22207200273873" lon="11.42989785112175"><ele>160.0</ele><time>2026-04-11T07:36:53Z</time></trkpt><trkpt lat="43.22182480593678" lon="11.430099668586086"><ele>159.0</ele><time>2026-04-11T07:36:54Z</time></trkpt><trkpt lat="43.2215657949006" lon="11.430298548615557"><ele>158.5</ele><time>2026-04-11T07:36:55Z</time></trkpt><trkpt lat="43.221298427039905" lon="11.430500320780157"><ele>158.0</ele><time>2026-04-11T07:36:56Z</time></trkpt><trkpt lat="43.22102640408439" lon="11.430702234512086"><ele>158.0</ele><time>2026-04-11T07:36:57Z</time></trkpt><trkpt lat="43.22075460135302" lon="11.430913772493007"><ele>158.0</ele><time>2026-04-11T07:36:58Z</time></trkpt><trkpt lat="43.22047535063794" lon="11.43113544751611"><ele>158.0</ele><time>2026-04-11T07:36:59Z</time></trkpt><trkpt lat="43.22019138203106" lon="11.43135803111084"><ele>158.0</ele><time>2026-04-11T07:37:00Z</time></trkpt><trkpt lat="43.21990530442767" lon="11.431574935736657"><ele>159.0</ele><time>2026-04-11T07:37:01Z</time></trkpt><trkpt lat="43.219647988466235" lon="11.431766006019952"><ele>160.0</ele><time>2026-04-11T07:37:02Z</time></trkpt><trkpt lat="43.21942059855223" lon="11.431934157581985"><ele>160.0</ele><time>2026-04-11T07:37:03Z</time></trkpt><trkpt lat="43.21919921826097" lon="11.432099113275541"><ele>160.0</ele><time>2026-04-11T07:37:04Z</time></trkpt><trkpt lat="43.21899170320437" lon="11.432251347326178"><ele>159.66666666666669</ele><time>2026-04-11T07:37:05Z</time></trkpt><trkpt lat="43.21879659376104" lon="11.432396959119115"><ele>159.33333333333334</ele><time>2026-04-11T07:37:06Z</time></trkpt><trkpt lat="43.21860754054844" lon="11.432539429665809"><ele>159.0</ele><time>2026-04-11T07:37:07Z</time></trkpt><trkpt lat="43.21841891614682" lon="11.43268071692886"><ele>159.0</ele><time>2026-04-11T07:37:08Z</time></trkpt><trkpt lat="43.21822475718182" lon="11.432822222501773"><ele>159.0</ele><time>2026-04-11T07:37:09Z</time></trkpt><trkpt lat="43.21803758651805" lon="11.432960805255934"><ele>159.0</ele><time>2026-04-11T07:37:10Z</time></trkpt><trkpt lat="43.217856406118436" lon="11.433099306371439"><ele>159.0</ele><time>2026-04-11T07:37:11Z</time></trkpt><trkpt lat="43.21766917963498" lon="11.433232192752607"><ele>159.0</ele><time>2026-04-11T07:37:12Z</time></trkpt><trkpt lat="43.21749226383799" lon="11.433355642024313"><ele>159.0</ele><time>2026-04-11T07:37:13Z</time></trkpt><trkpt lat="43.217313243199044" lon="11.433455255027534"><ele>159.0</ele><time>2026-04-11T07:37:14Z</time></trkpt><trkpt lat="43.21715376441464" lon="11.433528617194275"><ele>159.0</ele><time>2026-04-11T07:37:15Z</time></trkpt><trkpt lat="43.2169962321914" lon="11.433573428520983"><ele>159.0</ele><time>2026-04-11T07:37:16Z</time></trkpt><trkpt lat="43.21683923049127" lon="11.43358444977153"><ele>159.0</ele><time>2026-04-11T07:37:17Z</time></trkpt><trkpt lat="43.216674916737944" lon="11.433531554203437"><ele>159.0</ele><time>2026-04-11T07:37:18Z</time></trkpt><trkpt lat="43.21653079702674" lon="11.433449977705092"><ele>159.0</ele><time>2026-04-11T07:37:19Z</time></trkpt><trkpt lat="43.21640930336766" lon="11.433416123236062"><ele>159.0</ele><time>2026-04-11T07:37:20Z</time></trkpt><trkpt lat="43.216293808357136" lon="11.433365401773434"><ele>159.2</ele><time>2026-04-11T07:37:21Z</time></trkpt><trkpt lat="43.21620950418186" lon="11.433316540381458"><ele>159.4</ele><time>2026-04-11T07:37:22Z</time></trkpt><trkpt lat="43.21612432395542" lon="11.433235842992085"><ele>159.6</ele><time>2026-04-11T07:37:24Z</time></trkpt><trkpt lat="43.21606587918001" lon="11.433112502916028"><ele>159.8</ele><time>2026-04-11T07:37:26Z</time></trkpt><trkpt lat="43.21605156031844" lon="11.432992089049003"><ele>160.0</ele><time>2026-04-11T07:37:27Z</time></trkpt><trkpt lat="43.21604312169208" lon="11.43286740999152"><ele>160.0</ele><time>2026-04-11T07:37:28Z</time></trkpt><trkpt lat="43.216009888421354" lon="11.432754946015384"><ele>160.0</ele><time>2026-04-11T07:37:29Z</time></trkpt><trkpt lat="43.2159448592145" lon="11.432656856323439"><ele>160.0</ele><time>2026-04-11T07:37:30Z</time></trkpt><trkpt lat="43.21585811941053" lon="11.432596589048387"><ele>160.0</ele><time>2026-04-11T07:37:31Z</time></trkpt><trkpt lat="43.21576367088057" lon="11.43256984830232"><ele>160.0</ele><time>2026-04-11T07:37:32Z</time></trkpt><trkpt lat="43.21567112394697" lon="11.432577000742736"><ele>160.2</ele><time>2026-04-11T07:37:33Z</time></trkpt><trkpt lat="43.2155720164204" lon="11.43261516916232"><ele>160.4</ele><time>2026-04-11T07:37:34Z</time></trkpt><trkpt lat="43.21547872180583" lon="11.432670340485126"><ele>160.60000000000002</ele><time>2026-04-11T07:37:35Z</time></trkpt><trkpt lat="43.21537857023645" lon="11.432704842606903"><ele>160.8</ele><time>2026-04-11T07:37:36Z</time></trkpt><trkpt lat="43.215276861005975" lon="11.43269323427026"><ele>161.0</ele><time>2026-04-11T07:37:37Z</time></trkpt><trkpt lat="43.215175262722695" lon="11.432653107174232"><ele>161.0</ele><time>2026-04-11T07:37:38Z</time></trkpt><trkpt lat="43.21506583406486" lon="11.432598229242501"><ele>161.0</ele><time>2026-04-11T07:37:39Z</time></trkpt><trkpt lat="43.214929598122005" lon="11.432529528766477"><ele>161.0</ele><time>2026-04-11T07:37:40Z</time></trkpt><trkpt lat="43.2147886324536" lon="11.432451942352616"><ele>161.0</ele><time>2026-04-11T07:37:41Z</time></trkpt><trkpt lat="43.21464307182473" lon="11.43238091656858"><ele>162.0</ele><time>2026-04-11T07:37:42Z</time></trkpt><trkpt lat="43.214494753631925" lon="11.432303389142943"><ele>163.0</ele><time>2026-04-11T07:37:43Z</time></trkpt><trkpt lat="43.21435193300467" lon="11.43223418521683"><ele>164.0</ele><time>2026-04-11T07:37:44Z</time></trkpt><trkpt lat="43.21420638424839" lon="11.432175938215618"><ele>163.66666666666666</ele><time>2026-04-11T07:37:45Z</time></trkpt><trkpt lat="43.214064487319284" lon="11.432124884048003"><ele>163.33333333333334</ele><time>2026-04-11T07:37:46Z</time></trkpt><trkpt lat="43.21389270837546" lon="11.432091742873771"><ele>163.0</ele><time>2026-04-11T07:37:47Z</time></trkpt><trkpt lat="43.213676232735004" lon="11.432053248912851"><ele>163.0</ele><time>2026-04-11T07:37:48Z</time></trkpt><trkpt lat="43.21344018519129" lon="11.431975481877842"><ele>163.0</ele><time>2026-04-11T07:37:49Z</time></trkpt><trkpt lat="43.213188357691116" lon="11.431896505073224"><ele>164.0</ele><time>2026-04-11T07:37:50Z</time></trkpt><trkpt lat="43.21293538164075" lon="11.431840993087139"><ele>165.0</ele><time>2026-04-11T07:37:51Z</time></trkpt><trkpt lat="43.21269004161552" lon="11.431810580403654"><ele>165.0</ele><time>2026-04-11T07:37:52Z</time></trkpt><trkpt lat="43.212442931216785" lon="11.431803137120408"><ele>165.0</ele><time>2026-04-11T07:37:53Z</time></trkpt><trkpt lat="43.21217941083698" lon="11.431828593587957"><ele>165.5</ele><time>2026-04-11T07:37:54Z</time></trkpt><trkpt lat="43.211894198920355" lon="11.431868606565779"><ele>166.0</ele><time>2026-04-11T07:37:55Z</time></trkpt><trkpt lat="43.21159437752764" lon="11.431881020433647"><ele>165.5</ele><time>2026-04-11T07:37:56Z</time></trkpt><trkpt lat="43.21128729404793" lon="11.431876849989782"><ele>165.0</ele><time>2026-04-11T07:37:57Z</time></trkpt><trkpt lat="43.21098944525103" lon="11.43189387140515"><ele>165.0</ele><time>2026-04-11T07:37:58Z</time></trkpt><trkpt lat="43.21070151045427" lon="11.431914465865788"><ele>165.0</ele><time>2026-04-11T07:37:59Z</time></trkpt><trkpt lat="43.21041832096988" lon="11.431934450020234"><ele>165.5</ele><time>2026-04-11T07:38:00Z</time></trkpt><trkpt lat="43.21015290264198" lon="11.431952335378908"><ele>166.0</ele><time>2026-04-11T07:38:01Z</time></trkpt><trkpt lat="43.20992844113622" lon="11.431954222890424"><ele>165.66666666666669</ele><time>2026-04-11T07:38:02Z</time></trkpt><trkpt lat="43.20972965565986" lon="11.431943100107787"><ele>165.33333333333334</ele><time>2026-04-11T07:38:03Z</time></trkpt><trkpt lat="43.20954320469413" lon="11.431964350396012"><ele>165.0</ele><time>2026-04-11T07:38:04Z</time></trkpt><trkpt lat="43.20938652768796" lon="11.432012931133691"><ele>165.0</ele><time>2026-04-11T07:38:05Z</time></trkpt><trkpt lat="43.209249961762666" lon="11.432112759813576"><ele>165.0</ele><time>2026-04-11T07:38:06Z</time></trkpt><trkpt lat="43.20912953495449" lon="11.432284417829512"><ele>165.0</ele><time>2026-04-11T07:38:07Z</time></trkpt><trkpt lat="43.209023085432925" lon="11.432516658352002"><ele>164.0</ele><time>2026-04-11T07:38:08Z</time></trkpt><trkpt lat="43.20892621352366" lon="11.432801586823409"><ele>163.0</ele><time>2026-04-11T07:38:09Z</time></trkpt><trkpt lat="43.208824153327754" lon="11.433117176694974"><ele>163.0</ele><time>2026-04-11T07:38:10Z</time></trkpt><trkpt lat="43.208715253424174" lon="11.433436830396667"><ele>163.0</ele><time>2026-04-11T07:38:11Z</time></trkpt><trkpt lat="43.20862094957135" lon="11.43371034036984"><ele>163.0</ele><time>2026-04-11T07:38:12Z</time></trkpt><trkpt lat="43.20856261531814" lon="11.433933907221714"><ele>163.0</ele><time>2026-04-11T07:38:13Z</time></trkpt><trkpt lat="43.20853985856321" lon="11.43417472019067"><ele>163.0</ele><time>2026-04-11T07:38:14Z</time></trkpt><trkpt lat="43.20858011030637" lon="11.434438655359564"><ele>161.5</ele><time>2026-04-11T07:38:15Z</time></trkpt><trkpt lat="43.208626310784915" lon="11.434762503942915"><ele>160.0</ele><time>2026-04-11T07:38:16Z</time></trkpt><trkpt lat="43.208666216486215" lon="11.435126049586625"><ele>159.5</ele><time>2026-04-11T07:38:17Z</time></trkpt><trkpt lat="43.208653717994814" lon="11.435471142552577"><ele>159.0</ele><time>2026-04-11T07:38:18Z</time></trkpt><trkpt lat="43.20856537005282" lon="11.43578292207583"><ele>159.0</ele><time>2026-04-11T07:38:19Z</time></trkpt><trkpt lat="43.20847786838857" lon="11.436151896164375"><ele>159.0</ele><time>2026-04-11T07:38:20Z</time></trkpt><trkpt lat="43.20839457809469" lon="11.436552091460271"><ele>159.0</ele><time>2026-04-11T07:38:21Z</time></trkpt><trkpt lat="43.208283907672275" lon="11.436939310683625"><ele>159.0</ele><time>2026-04-11T07:38:22Z</time></trkpt><trkpt lat="43.208167065787954" lon="11.437330993901623"><ele>158.0</ele><time>2026-04-11T07:38:23Z</time></trkpt><trkpt lat="43.208036837539495" lon="11.437718332485288"><ele>157.0</ele><time>2026-04-11T07:38:24Z</time></trkpt><trkpt lat="43.2078977903736" lon="11.438098126540396"><ele>157.0</ele><time>2026-04-11T07:38:25Z</time></trkpt><trkpt lat="43.20777235830759" lon="11.438448458028828"><ele>157.0</ele><time>2026-04-11T07:38:26Z</time></trkpt><trkpt lat="43.20767315902856" lon="11.438732971579597"><ele>157.0</ele><time>2026-04-11T07:38:27Z</time></trkpt><trkpt lat="43.20758570173045" lon="11.438964770214145"><ele>157.0</ele><time>2026-04-11T07:38:28Z</time></trkpt><trkpt lat="43.20747081110224" lon="11.439165096073738"><ele>157.0</ele><time>2026-04-11T07:38:29Z</time></trkpt><trkpt lat="43.20732034092751" lon="11.43933540120704"><ele>157.5</ele><time>2026-04-11T07:38:30Z</time></trkpt><trkpt lat="43.207122116187804" lon="11.439469887952663"><ele>158.0</ele><time>2026-04-11T07:38:31Z</time></trkpt><trkpt lat="43.20688165409487" lon="11.439582906972813"><ele>157.5</ele><time>2026-04-11T07:38:32Z</time></trkpt><trkpt lat="43.20663491849695" lon="11.439710163297013"><ele>157.0</ele><time>2026-04-11T07:38:33Z</time></trkpt><trkpt lat="43.206383125797615" lon="11.43985812287555"><ele>157.0</ele><time>2026-04-11T07:38:34Z</time></trkpt><trkpt lat="43.2061299937892" lon="11.440014289094751"><ele>157.0</ele><time>2026-04-11T07:38:35Z</time></trkpt><trkpt lat="43.2058898328802" lon="11.440164171668638"><ele>157.5</ele><time>2026-04-11T07:38:36Z</time></trkpt><trkpt lat="43.20565492708989" lon="11.440305841054593"><ele>158.0</ele><time>2026-04-11T07:38:37Z</time></trkpt><trkpt lat="43.20543023054167" lon="11.440445282065422"><ele>158.0</ele><time>2026-04-11T07:38:38Z</time></trkpt><trkpt lat="43.20521945356003" lon="11.440574910264363"><ele>158.0</ele><time>2026-04-11T07:38:39Z</time></trkpt><trkpt lat="43.20501289236769" lon="11.44069697635397"><ele>158.5</ele><time>2026-04-11T07:38:40Z</time></trkpt><trkpt lat="43.20479547417886" lon="11.440823544975212"><ele>159.0</ele><time>2026-04-11T07:38:41Z</time></trkpt><trkpt lat="43.20458036644826" lon="11.440956025375227"><ele>159.0</ele><time>2026-04-11T07:38:42Z</time></trkpt><trkpt lat="43.20438615134642" lon="11.44108670425395"><ele>159.0</ele><time>2026-04-11T07:38:43Z</time></trkpt><trkpt lat="43.20420143585178" lon="11.441223681867964"><ele>159.0</ele><time>2026-04-11T07:38:44Z</time></trkpt><trkpt lat="43.20403852163151" lon="11.441362342354477"><ele>159.5</ele><time>2026-04-11T07:38:45Z</time></trkpt><trkpt lat="43.20390002132105" lon="11.441489451719232"><ele>160.0</ele><time>2026-04-11T07:38:46Z</time></trkpt><trkpt lat="43.20379680706604" lon="11.441595478054108"><ele>160.5</ele><time>2026-04-11T07:38:47Z</time></trkpt><trkpt lat="43.20368527511074" lon="11.441722532364567"><ele>161.0</ele><time>2026-04-11T07:38:48Z</time></trkpt><trkpt lat="43.203560992362114" lon="11.44188504757827"><ele>161.0</ele><time>2026-04-11T07:38:48.999Z</time></trkpt><trkpt lat="43.20341699814631" lon="11.442085993511073"><ele>161.0</ele><time>2026-04-11T07:38:49.999Z</time></trkpt><trkpt lat="43.20327734127089" lon="11.442250147968029"><ele>161.0</ele><time>2026-04-11T07:38:50.999Z</time></trkpt><trkpt lat="43.203172917752326" lon="11.44238705796637"><ele>160.75</ele><time>2026-04-11T07:38:51.999Z</time></trkpt><trkpt lat="43.20307025116508" lon="11.442515169361315"><ele>160.5</ele><time>2026-04-11T07:38:52.999Z</time></trkpt><trkpt lat="43.20297333100248" lon="11.442635362462353"><ele>160.25</ele><time>2026-04-11T07:38:53.999Z</time></trkpt><trkpt lat="43.202864529395185" lon="11.442728574990877"><ele>160.0</ele><time>2026-04-11T07:38:54.999Z</time></trkpt><trkpt lat="43.202741253717356" lon="11.442802174506372"><ele>160.0</ele><time>2026-04-11T07:38:55.999Z</time></trkpt><trkpt lat="43.20256789299402" lon="11.442867596784938"><ele>160.0</ele><time>2026-04-11T07:38:56.999Z</time></trkpt><trkpt lat="43.20234330481825" lon="11.44289558242858"><ele>160.0</ele><time>2026-04-11T07:38:58Z</time></trkpt><trkpt lat="43.202074798653726" lon="11.442899229517153"><ele>159.5</ele><time>2026-04-11T07:38:59Z</time></trkpt><trkpt lat="43.20176886341857" lon="11.442902640903672"><ele>159.0</ele><time>2026-04-11T07:39:00Z</time></trkpt><trkpt lat="43.201435725539554" lon="11.44292622673955"><ele>158.0</ele><time>2026-04-11T07:39:01Z</time></trkpt><trkpt lat="43.20108345918865" lon="11.442963760064366"><ele>157.0</ele><time>2026-04-11T07:39:02Z</time></trkpt><trkpt lat="43.20071403056574" lon="11.443004156956524"><ele>157.5</ele><time>2026-04-11T07:39:03Z</time></trkpt><trkpt lat="43.20032989263355" lon="11.443045550884971"><ele>158.0</ele><time>2026-04-11T07:39:04Z</time></trkpt><trkpt lat="43.1999692548464" lon="11.443079338579363"><ele>157.5</ele><time>2026-04-11T07:39:05Z</time></trkpt><trkpt lat="43.19965131379562" lon="11.443108527815957"><ele>157.0</ele><time>2026-04-11T07:39:06Z</time></trkpt><trkpt lat="43.19936074167127" lon="11.44313535136615"><ele>157.0</ele><time>2026-04-11T07:39:07Z</time></trkpt><trkpt lat="43.19908352076703" lon="11.44316617851996"><ele>157.0</ele><time>2026-04-11T07:39:08Z</time></trkpt><trkpt lat="43.1988046050547" lon="11.443209952371205"><ele>157.5</ele><time>2026-04-11T07:39:09Z</time></trkpt><trkpt lat="43.19852710336319" lon="11.443288362314457"><ele>158.0</ele><time>2026-04-11T07:39:10Z</time></trkpt><trkpt lat="43.19824095571141" lon="11.443407701186622"><ele>158.5</ele><time>2026-04-11T07:39:11Z</time></trkpt><trkpt lat="43.197945294768346" lon="11.443560653795357"><ele>159.0</ele><time>2026-04-11T07:39:12Z</time></trkpt><trkpt lat="43.19764167750712" lon="11.443722523917996"><ele>158.5</ele><time>2026-04-11T07:39:13Z</time></trkpt><trkpt lat="43.19733622271958" lon="11.443877273667402"><ele>158.0</ele><time>2026-04-11T07:39:14Z</time></trkpt><trkpt lat="43.19706189969425" lon="11.444016702782331"><ele>158.0</ele><time>2026-04-11T07:39:15Z</time></trkpt><trkpt lat="43.196827803845835" lon="11.444138166954845"><ele>158.0</ele><time>2026-04-11T07:39:16Z</time></trkpt><trkpt lat="43.196617853237846" lon="11.44425475647307"><ele>159.0</ele><time>2026-04-11T07:39:17Z</time></trkpt><trkpt lat="43.19642855613222" lon="11.444386138748163"><ele>160.0</ele><time>2026-04-11T07:39:18Z</time></trkpt><trkpt lat="43.19625875891525" lon="11.444551876113003"><ele>161.0</ele><time>2026-04-11T07:39:19Z</time></trkpt><trkpt lat="43.19609770479412" lon="11.444782124510631"><ele>161.0</ele><time>2026-04-11T07:39:20Z</time></trkpt><trkpt lat="43.19595485082539" lon="11.445069533487404"><ele>161.0</ele><time>2026-04-11T07:39:21Z</time></trkpt><trkpt lat="43.19582596990636" lon="11.445403957028445"><ele>160.0</ele><time>2026-04-11T07:39:22Z</time></trkpt><trkpt lat="43.195722980935784" lon="11.445763395203878"><ele>159.0</ele><time>2026-04-11T07:39:23Z</time></trkpt><trkpt lat="43.1956464658142" lon="11.446152418442017"><ele>164.0</ele><time>2026-04-11T07:39:24Z</time></trkpt><trkpt lat="43.1955816419402" lon="11.446557667163528"><ele>169.0</ele><time>2026-04-11T07:39:25Z</time></trkpt><trkpt lat="43.19549346166196" lon="11.446960957095225"><ele>167.5</ele><time>2026-04-11T07:39:26Z</time></trkpt><trkpt lat="43.195402971422716" lon="11.447356780483826"><ele>166.0</ele><time>2026-04-11T07:39:27Z</time></trkpt><trkpt lat="43.19532394814566" lon="11.44772163576019"><ele>163.5</ele><time>2026-04-11T07:39:28Z</time></trkpt><trkpt lat="43.19525771188316" lon="11.448044464877047"><ele>161.0</ele><time>2026-04-11T07:39:29Z</time></trkpt><trkpt lat="43.19517728255092" lon="11.448347224026383"><ele>161.0</ele><time>2026-04-11T07:39:30Z</time></trkpt><trkpt lat="43.19506435250741" lon="11.448625902186205"><ele>161.0</ele><time>2026-04-11T07:39:31Z</time></trkpt><trkpt lat="43.194925488505255" lon="11.448906153623168"><ele>164.5</ele><time>2026-04-11T07:39:32Z</time></trkpt><trkpt lat="43.19474949417215" lon="11.449177530048006"><ele>168.0</ele><time>2026-04-11T07:39:33Z</time></trkpt><trkpt lat="43.19458406007796" lon="11.449487630280565"><ele>164.0</ele><time>2026-04-11T07:39:34Z</time></trkpt><trkpt lat="43.19439699214619" lon="11.449789970579376"><ele>160.0</ele><time>2026-04-11T07:39:35Z</time></trkpt><trkpt lat="43.19421471208035" lon="11.450106159408035"><ele>160.0</ele><time>2026-04-11T07:39:36Z</time></trkpt><trkpt lat="43.194029392948536" lon="11.450412526506042"><ele>160.0</ele><time>2026-04-11T07:39:37Z</time></trkpt><trkpt lat="43.193847052919054" lon="11.45071640095232"><ele>159.0</ele><time>2026-04-11T07:39:38Z</time></trkpt><trkpt lat="43.1936672579295" lon="11.451045560545614"><ele>158.0</ele><time>2026-04-11T07:39:39Z</time></trkpt><trkpt lat="43.19347184536661" lon="11.451383923945887"><ele>156.0</ele><time>2026-04-11T07:39:40Z</time></trkpt><trkpt lat="43.19327650246915" lon="11.451716333068946"><ele>154.0</ele><time>2026-04-11T07:39:41Z</time></trkpt><trkpt lat="43.19310266909398" lon="11.4520085390641"><ele>157.66666666666669</ele><time>2026-04-11T07:39:42Z</time></trkpt><trkpt lat="43.1929492676343" lon="11.452249933670359"><ele>161.33333333333334</ele><time>2026-04-11T07:39:43Z</time></trkpt><trkpt lat="43.19282762137742" lon="11.45245811573174"><ele>165.0</ele><time>2026-04-11T07:39:44Z</time></trkpt><trkpt lat="43.19272876764408" lon="11.452632725466552"><ele>165.0</ele><time>2026-04-11T07:39:45Z</time></trkpt><trkpt lat="43.19265651663952" lon="11.45280827021395"><ele>165.0</ele><time>2026-04-11T07:39:46Z</time></trkpt><trkpt lat="43.1926403229085" lon="11.452987628498645"><ele>165.0</ele><time>2026-04-11T07:39:47Z</time></trkpt><trkpt lat="43.19271942201828" lon="11.453195926087554"><ele>165.66666666666666</ele><time>2026-04-11T07:39:48Z</time></trkpt><trkpt lat="43.19281101674106" lon="11.453399810706394"><ele>166.33333333333331</ele><time>2026-04-11T07:39:49Z</time></trkpt><trkpt lat="43.192924476681384" lon="11.453587746095005"><ele>167.0</ele><time>2026-04-11T07:39:50Z</time></trkpt><trkpt lat="43.19300189976784" lon="11.453796462275395"><ele>167.33333333333331</ele><time>2026-04-11T07:39:51Z</time></trkpt><trkpt lat="43.193057781488214" lon="11.454057451449517"><ele>167.66666666666666</ele><time>2026-04-11T07:39:52Z</time></trkpt><trkpt lat="43.1931176515011" lon="11.454343885106793"><ele>168.0</ele><time>2026-04-11T07:39:53Z</time></trkpt><trkpt lat="43.19312939245166" lon="11.454552212885707"><ele>167.5</ele><time>2026-04-11T07:39:54Z</time></trkpt><trkpt lat="43.193088951042796" lon="11.454702827796584"><ele>167.0</ele><time>2026-04-11T07:39:55Z</time></trkpt><trkpt lat="43.19300981356645" lon="11.454815425081945"><ele>166.5</ele><time>2026-04-11T07:39:56Z</time></trkpt><trkpt lat="43.1928628133183" lon="11.45494038906995"><ele>166.0</ele><time>2026-04-11T07:39:57Z</time></trkpt><trkpt lat="43.19270163671998" lon="11.455028444930901"><ele>166.0</ele><time>2026-04-11T07:39:58Z</time></trkpt><trkpt lat="43.19252707484046" lon="11.455018690243893"><ele>166.0</ele><time>2026-04-11T07:39:59Z</time></trkpt><trkpt lat="43.19234050909155" lon="11.454928197545147"><ele>166.0</ele><time>2026-04-11T07:40:00Z</time></trkpt><trkpt lat="43.192144584330364" lon="11.45481058765571"><ele>166.0</ele><time>2026-04-11T07:40:01Z</time></trkpt><trkpt lat="43.19201915657901" lon="11.454630328907545"><ele>166.0</ele><time>2026-04-11T07:40:02Z</time></trkpt><trkpt lat="43.19192294758475" lon="11.454406811471443"><ele>166.0</ele><time>2026-04-11T07:40:03Z</time></trkpt><trkpt lat="43.191813042977714" lon="11.45412779662336"><ele>166.0</ele><time>2026-04-11T07:40:04Z</time></trkpt><trkpt lat="43.19169150897069" lon="11.45381591781504"><ele>166.0</ele><time>2026-04-11T07:40:05Z</time></trkpt><trkpt lat="43.191578817931294" lon="11.453558793935136"><ele>167.25</ele><time>2026-04-11T07:40:06Z</time></trkpt><trkpt lat="43.19150934474651" lon="11.45337801372811"><ele>168.5</ele><time>2026-04-11T07:40:07Z</time></trkpt><trkpt lat="43.1914244211746" lon="11.453308747637646"><ele>169.75</ele><time>2026-04-11T07:40:08Z</time></trkpt><trkpt lat="43.19126224562558" lon="11.453259700560915"><ele>171.0</ele><time>2026-04-11T07:40:09Z</time></trkpt><trkpt lat="43.191036577138895" lon="11.453282662288775"><ele>171.0</ele><time>2026-04-11T07:40:10Z</time></trkpt><trkpt lat="43.19076742282622" lon="11.45334783738872"><ele>171.0</ele><time>2026-04-11T07:40:11Z</time></trkpt><trkpt lat="43.190487114621526" lon="11.453467354942232"><ele>172.5</ele><time>2026-04-11T07:40:12Z</time></trkpt><trkpt lat="43.190207452220996" lon="11.453645566852675"><ele>174.0</ele><time>2026-04-11T07:40:13Z</time></trkpt><trkpt lat="43.18995912111796" lon="11.453823593687085"><ele>175.0</ele><time>2026-04-11T07:40:14Z</time></trkpt><trkpt lat="43.189777012745566" lon="11.45395447222136"><ele>176.0</ele><time>2026-04-11T07:40:15Z</time></trkpt><trkpt lat="43.18960367844355" lon="11.454037473101259"><ele>177.0</ele><time>2026-04-11T07:40:16Z</time></trkpt><trkpt lat="43.189382165536884" lon="11.454017952254096"><ele>177.0</ele><time>2026-04-11T07:40:17Z</time></trkpt><trkpt lat="43.18911754531435" lon="11.454011336956716"><ele>177.0</ele><time>2026-04-11T07:40:18Z</time></trkpt><trkpt lat="43.188825902328894" lon="11.453999217486658"><ele>179.0</ele><time>2026-04-11T07:40:19Z</time></trkpt><trkpt lat="43.18854846445178" lon="11.453987860188562"><ele>181.0</ele><time>2026-04-11T07:40:20Z</time></trkpt><trkpt lat="43.188329330069244" lon="11.453989794055248"><ele>180.33333333333334</ele><time>2026-04-11T07:40:21Z</time></trkpt><trkpt lat="43.188141980204655" lon="11.454013796504881"><ele>179.66666666666666</ele><time>2026-04-11T07:40:22Z</time></trkpt><trkpt lat="43.18794457119587" lon="11.45410108690386"><ele>179.0</ele><time>2026-04-11T07:40:23Z</time></trkpt><trkpt lat="43.18771165251913" lon="11.454236463738221"><ele>179.0</ele><time>2026-04-11T07:40:24Z</time></trkpt><trkpt lat="43.18745821798096" lon="11.454395306154805"><ele>179.0</ele><time>2026-04-11T07:40:25Z</time></trkpt><trkpt lat="43.18718108248127" lon="11.454554758568534"><ele>174.5</ele><time>2026-04-11T07:40:26Z</time></trkpt><trkpt lat="43.18689381213377" lon="11.45471489790401"><ele>170.0</ele><time>2026-04-11T07:40:27Z</time></trkpt><trkpt lat="43.18661918630366" lon="11.454868411364172"><ele>169.5</ele><time>2026-04-11T07:40:28Z</time></trkpt><trkpt lat="43.18636863274124" lon="11.455024521673003"><ele>169.0</ele><time>2026-04-11T07:40:29Z</time></trkpt><trkpt lat="43.18613325050339" lon="11.455198271863926"><ele>169.0</ele><time>2026-04-11T07:40:30Z</time></trkpt><trkpt lat="43.185900971684774" lon="11.455395726888497"><ele>169.0</ele><time>2026-04-11T07:40:31Z</time></trkpt><trkpt lat="43.18568283521673" lon="11.45562081184384"><ele>167.5</ele><time>2026-04-11T07:40:32Z</time></trkpt><trkpt lat="43.1854852655616" lon="11.455866191644203"><ele>166.0</ele><time>2026-04-11T07:40:33Z</time></trkpt><trkpt lat="43.185289369540165" lon="11.456121403522861"><ele>164.5</ele><time>2026-04-11T07:40:34Z</time></trkpt><trkpt lat="43.18509564139107" lon="11.456378626422559"><ele>163.0</ele><time>2026-04-11T07:40:35Z</time></trkpt><trkpt lat="43.18490083765484" lon="11.456626730992566"><ele>163.5</ele><time>2026-04-11T07:40:36Z</time></trkpt><trkpt lat="43.18471336910153" lon="11.456872359035412"><ele>164.0</ele><time>2026-04-11T07:40:36.999Z</time></trkpt><trkpt lat="43.18451773092987" lon="11.457109673125938"><ele>163.5</ele><time>2026-04-11T07:40:37.999Z</time></trkpt><trkpt lat="43.184326465585855" lon="11.457344905324224"><ele>163.0</ele><time>2026-04-11T07:40:38.999Z</time></trkpt><trkpt lat="43.18413219411098" lon="11.457575354465103"><ele>163.0</ele><time>2026-04-11T07:40:39.999Z</time></trkpt><trkpt lat="43.183931351496675" lon="11.457804138878814"><ele>163.0</ele><time>2026-04-11T07:40:40.999Z</time></trkpt><trkpt lat="43.18372491778615" lon="11.45803285269884"><ele>162.5</ele><time>2026-04-11T07:40:41.999Z</time></trkpt><trkpt lat="43.18351000459422" lon="11.45826438692955"><ele>162.0</ele><time>2026-04-11T07:40:42.999Z</time></trkpt><trkpt lat="43.183290912171266" lon="11.458505231842677"><ele>162.5</ele><time>2026-04-11T07:40:43.999Z</time></trkpt><trkpt lat="43.18305515114191" lon="11.458744373532651"><ele>163.0</ele><time>2026-04-11T07:40:44.999Z</time></trkpt><trkpt lat="43.182800678757225" lon="11.458990613536436"><ele>162.0</ele><time>2026-04-11T07:40:45.999Z</time></trkpt><trkpt lat="43.18253750399495" lon="11.45923986384906"><ele>161.0</ele><time>2026-04-11T07:40:46.999Z</time></trkpt><trkpt lat="43.182275880624246" lon="11.459486373611647"><ele>160.5</ele><time>2026-04-11T07:40:47.999Z</time></trkpt><trkpt lat="43.18202692691918" lon="11.459736293797356"><ele>160.0</ele><time>2026-04-11T07:40:48.999Z</time></trkpt><trkpt lat="43.181782816826214" lon="11.459979051351299"><ele>160.0</ele><time>2026-04-11T07:40:49.999Z</time></trkpt><trkpt lat="43.18154961698701" lon="11.460208591758937"><ele>160.0</ele><time>2026-04-11T07:40:50.999Z</time></trkpt><trkpt lat="43.18133830322835" lon="11.460426540245559"><ele>161.0</ele><time>2026-04-11T07:40:51.999Z</time></trkpt><trkpt lat="43.181142003118445" lon="11.460636479215257"><ele>162.0</ele><time>2026-04-11T07:40:52.999Z</time></trkpt><trkpt lat="43.180949795559684" lon="11.460836006930792"><ele>162.0</ele><time>2026-04-11T07:40:53.999Z</time></trkpt><trkpt lat="43.18077598358596" lon="11.46102329651414"><ele>162.0</ele><time>2026-04-11T07:40:54.999Z</time></trkpt><trkpt lat="43.18062263742647" lon="11.461215382366829"><ele>162.0</ele><time>2026-04-11T07:40:55.999Z</time></trkpt><trkpt lat="43.180487682567815" lon="11.461430089091849"><ele>163.66666666666666</ele><time>2026-04-11T07:40:56.999Z</time></trkpt><trkpt lat="43.18037502899187" lon="11.46167877208282"><ele>165.33333333333331</ele><time>2026-04-11T07:40:57.999Z</time></trkpt><trkpt lat="43.18029267469619" lon="11.46190721931597"><ele>167.0</ele><time>2026-04-11T07:40:58.999Z</time></trkpt><trkpt lat="43.180216278505334" lon="11.462102474269303"><ele>164.75</ele><time>2026-04-11T07:40:59.999Z</time></trkpt><trkpt lat="43.18013147485351" lon="11.462277436432794"><ele>162.5</ele><time>2026-04-11T07:41:00.999Z</time></trkpt><trkpt lat="43.18004315642361" lon="11.462431457530085"><ele>160.25</ele><time>2026-04-11T07:41:01.999Z</time></trkpt><trkpt lat="43.17993908353878" lon="11.462560962523613"><ele>158.0</ele><time>2026-04-11T07:41:02.999Z</time></trkpt><trkpt lat="43.179820232789034" lon="11.46265915891476"><ele>157.75</ele><time>2026-04-11T07:41:04Z</time></trkpt><trkpt lat="43.17968973296729" lon="11.462728637153742"><ele>157.5</ele><time>2026-04-11T07:41:05Z</time></trkpt><trkpt lat="43.17955672144021" lon="11.462769209645437"><ele>157.25</ele><time>2026-04-11T07:41:06Z</time></trkpt><trkpt lat="43.17941289712891" lon="11.462777055949424"><ele>157.0</ele><time>2026-04-11T07:41:07Z</time></trkpt><trkpt lat="43.17924214549783" lon="11.462768255446392"><ele>157.0</ele><time>2026-04-11T07:41:08Z</time></trkpt><trkpt lat="43.179028831110095" lon="11.462709504023682"><ele>157.0</ele><time>2026-04-11T07:41:09Z</time></trkpt><trkpt lat="43.178791569872885" lon="11.462596972861943"><ele>155.0</ele><time>2026-04-11T07:41:10Z</time></trkpt><trkpt lat="43.17853621854402" lon="11.462478466501056"><ele>153.0</ele><time>2026-04-11T07:41:11Z</time></trkpt><trkpt lat="43.17832594621864" lon="11.46240356637276"><ele>153.33333333333334</ele><time>2026-04-11T07:41:12Z</time></trkpt><trkpt lat="43.178115329671215" lon="11.462384698284351"><ele>153.66666666666669</ele><time>2026-04-11T07:41:13Z</time></trkpt><trkpt lat="43.17788799212542" lon="11.462422662122718"><ele>154.0</ele><time>2026-04-11T07:41:14Z</time></trkpt><trkpt lat="43.17764738842812" lon="11.462521116393052"><ele>154.0</ele><time>2026-04-11T07:41:15Z</time></trkpt><trkpt lat="43.1773833168879" lon="11.462641312775826"><ele>154.0</ele><time>2026-04-11T07:41:16Z</time></trkpt><trkpt lat="43.177099658765464" lon="11.462761207740044"><ele>153.5</ele><time>2026-04-11T07:41:17Z</time></trkpt><trkpt lat="43.176805188839054" lon="11.462881093456767"><ele>153.0</ele><time>2026-04-11T07:41:18Z</time></trkpt><trkpt lat="43.17653748813393" lon="11.462994913026838"><ele>152.5</ele><time>2026-04-11T07:41:19Z</time></trkpt><trkpt lat="43.176325927474004" lon="11.463086521404719"><ele>152.0</ele><time>2026-04-11T07:41:20Z</time></trkpt><trkpt lat="43.17610812845842" lon="11.4631806261059"><ele>152.0</ele><time>2026-04-11T07:41:21Z</time></trkpt><trkpt lat="43.17587043184523" lon="11.46326214996102"><ele>152.0</ele><time>2026-04-11T07:41:22Z</time></trkpt><trkpt lat="43.1756188548055" lon="11.463362734486362"><ele>151.0</ele><time>2026-04-11T07:41:23Z</time></trkpt><trkpt lat="43.17534828511776" lon="11.463470912814746"><ele>150.0</ele><time>2026-04-11T07:41:24Z</time></trkpt><trkpt lat="43.17506596807577" lon="11.463583787742191"><ele>149.5</ele><time>2026-04-11T07:41:25Z</time></trkpt><trkpt lat="43.17479638987037" lon="11.463698707551812"><ele>149.0</ele><time>2026-04-11T07:41:26Z</time></trkpt><trkpt lat="43.17453266825596" lon="11.463774740760892"><ele>148.5</ele><time>2026-04-11T07:41:27Z</time></trkpt><trkpt lat="43.17428406436428" lon="11.46388524049572"><ele>148.0</ele><time>2026-04-11T07:41:28Z</time></trkpt><trkpt lat="43.174053012511536" lon="11.463986084768791"><ele>149.0</ele><time>2026-04-11T07:41:29Z</time></trkpt><trkpt lat="43.17383360645312" lon="11.464072767532175"><ele>150.0</ele><time>2026-04-11T07:41:30Z</time></trkpt><trkpt lat="43.17362151689655" lon="11.464162542749044"><ele>150.0</ele><time>2026-04-11T07:41:31Z</time></trkpt><trkpt lat="43.1734142763887" lon="11.46425886113272"><ele>150.0</ele><time>2026-04-11T07:41:32Z</time></trkpt><trkpt lat="43.17319150780735" lon="11.464334152264486"><ele>150.0</ele><time>2026-04-11T07:41:33Z</time></trkpt><trkpt lat="43.172943555523894" lon="11.464449103984755"><ele>150.0</ele><time>2026-04-11T07:41:34Z</time></trkpt><trkpt lat="43.17271437803649" lon="11.46451281509733"><ele>150.0</ele><time>2026-04-11T07:41:35Z</time></trkpt><trkpt lat="43.17251616812076" lon="11.4645896978266"><ele>150.0</ele><time>2026-04-11T07:41:36Z</time></trkpt><trkpt lat="43.17235087370458" lon="11.46465984648972"><ele>149.5</ele><time>2026-04-11T07:41:37Z</time></trkpt><trkpt lat="43.17220413814651" lon="11.464720087110924"><ele>149.0</ele><time>2026-04-11T07:41:38Z</time></trkpt><trkpt lat="43.172066889185736" lon="11.464776997727034"><ele>148.5</ele><time>2026-04-11T07:41:39Z</time></trkpt><trkpt lat="43.17194046309722" lon="11.464824614454306"><ele>148.0</ele><time>2026-04-11T07:41:40Z</time></trkpt><trkpt lat="43.17183483123555" lon="11.46486687073868"><ele>148.0</ele><time>2026-04-11T07:41:41Z</time></trkpt><trkpt lat="43.17172879391143" lon="11.464909214217867"><ele>148.0</ele><time>2026-04-11T07:41:42Z</time></trkpt><trkpt lat="43.17161962322279" lon="11.464954429245747"><ele>148.0</ele><time>2026-04-11T07:41:43Z</time></trkpt><trkpt lat="43.17150636950764" lon="11.46499749787199"><ele>148.0</ele><time>2026-04-11T07:41:44Z</time></trkpt><trkpt lat="43.17139319674887" lon="11.4650426346712"><ele>148.25</ele><time>2026-04-11T07:41:45Z</time></trkpt><trkpt lat="43.171277818861306" lon="11.465088955701493"><ele>148.5</ele><time>2026-04-11T07:41:46Z</time></trkpt><trkpt lat="43.1711608391448" lon="11.465134805564702"><ele>148.75</ele><time>2026-04-11T07:41:47Z</time></trkpt><trkpt lat="43.171044763862604" lon="11.465180131813337"><ele>149.0</ele><time>2026-04-11T07:41:48Z</time></trkpt><trkpt lat="43.17092607191873" lon="11.465225653227463"><ele>149.0</ele><time>2026-04-11T07:41:49Z</time></trkpt><trkpt lat="43.17080951716698" lon="11.46527192150977"><ele>149.0</ele><time>2026-04-11T07:41:50Z</time></trkpt><trkpt lat="43.170697351351166" lon="11.465317923114283"><ele>149.0</ele><time>2026-04-11T07:41:51Z</time></trkpt><trkpt lat="43.17058849709302" lon="11.46536019272486"><ele>149.0</ele><time>2026-04-11T07:41:52Z</time></trkpt><trkpt lat="43.17048693741734" lon="11.46540205714029"><ele>149.0</ele><time>2026-04-11T07:41:53Z</time></trkpt><trkpt lat="43.170387356815844" lon="11.46545259680833"><ele>149.0</ele><time>2026-04-11T07:41:54Z</time></trkpt><trkpt lat="43.170277096529276" lon="11.465494408728702"><ele>149.0</ele><time>2026-04-11T07:41:55Z</time></trkpt><trkpt lat="43.17016112656214" lon="11.465537813395624"><ele>149.0</ele><time>2026-04-11T07:41:56Z</time></trkpt><trkpt lat="43.17004322482176" lon="11.465580562037635"><ele>149.0</ele><time>2026-04-11T07:41:57Z</time></trkpt><trkpt lat="43.16993514340046" lon="11.465614694587241"><ele>149.0</ele><time>2026-04-11T07:41:58Z</time></trkpt><trkpt lat="43.16982665759885" lon="11.465649481349274"><ele>149.0</ele><time>2026-04-11T07:41:59Z</time></trkpt><trkpt lat="43.169717448706685" lon="11.465674648477515"><ele>149.0</ele><time>2026-04-11T07:42:00Z</time></trkpt><trkpt lat="43.16960526976386" lon="11.46569720312003"><ele>149.0</ele><time>2026-04-11T07:42:01Z</time></trkpt><trkpt lat="43.16948755627113" lon="11.465717774685933"><ele>149.0</ele><time>2026-04-11T07:42:02Z</time></trkpt><trkpt lat="43.16937255855912" lon="11.465721347110378"><ele>149.0</ele><time>2026-04-11T07:42:03Z</time></trkpt><trkpt lat="43.16925482274966" lon="11.465728345743706"><ele>149.0</ele><time>2026-04-11T07:42:04Z</time></trkpt><trkpt lat="43.16910666586419" lon="11.465733456156196"><ele>149.0</ele><time>2026-04-11T07:42:05Z</time></trkpt><trkpt lat="43.16892469214371" lon="11.465689322927354"><ele>149.0</ele><time>2026-04-11T07:42:06Z</time></trkpt><trkpt lat="43.16871325019396" lon="11.465621126271227"><ele>149.0</ele><time>2026-04-11T07:42:07Z</time></trkpt><trkpt lat="43.16849165968404" lon="11.465543039649218"><ele>149.0</ele><time>2026-04-11T07:42:08Z</time></trkpt><trkpt lat="43.1682769436877" lon="11.465425903466743"><ele>149.0</ele><time>2026-04-11T07:42:09Z</time></trkpt><trkpt lat="43.16808297505157" lon="11.4652910976943"><ele>149.0</ele><time>2026-04-11T07:42:10Z</time></trkpt><trkpt lat="43.16789509905039" lon="11.465170536823226"><ele>149.0</ele><time>2026-04-11T07:42:11Z</time></trkpt><trkpt lat="43.167714170010605" lon="11.46508309745355"><ele>149.0</ele><time>2026-04-11T07:42:12Z</time></trkpt><trkpt lat="43.16753351541279" lon="11.465046018195544"><ele>149.0</ele><time>2026-04-11T07:42:13Z</time></trkpt><trkpt lat="43.16735903151948" lon="11.465024915319777"><ele>149.0</ele><time>2026-04-11T07:42:14Z</time></trkpt><trkpt lat="43.167192924037224" lon="11.465027484877396"><ele>148.66666666666666</ele><time>2026-04-11T07:42:15Z</time></trkpt><trkpt lat="43.167034335114295" lon="11.465061288714173"><ele>148.33333333333334</ele><time>2026-04-11T07:42:16Z</time></trkpt><trkpt lat="43.1668870844502" lon="11.465121662797262"><ele>148.0</ele><time>2026-04-11T07:42:17Z</time></trkpt><trkpt lat="43.16674887089674" lon="11.46518588131177"><ele>148.0</ele><time>2026-04-11T07:42:18Z</time></trkpt><trkpt lat="43.166616868992286" lon="11.465281972112365"><ele>148.0</ele><time>2026-04-11T07:42:19Z</time></trkpt><trkpt lat="43.16648913124607" lon="11.465405774867758"><ele>148.0</ele><time>2026-04-11T07:42:20Z</time></trkpt><trkpt lat="43.16635935062217" lon="11.46557342661096"><ele>146.66666666666669</ele><time>2026-04-11T07:42:21Z</time></trkpt><trkpt lat="43.16621986073189" lon="11.465757308409305"><ele>145.33333333333334</ele><time>2026-04-11T07:42:22Z</time></trkpt><trkpt lat="43.16607934370532" lon="11.46592904685497"><ele>144.0</ele><time>2026-04-11T07:42:23Z</time></trkpt><trkpt lat="43.16595704906485" lon="11.466090793707924"><ele>144.0</ele><time>2026-04-11T07:42:24Z</time></trkpt><trkpt lat="43.16584424990366" lon="11.466248224464932"><ele>144.0</ele><time>2026-04-11T07:42:25Z</time></trkpt><trkpt lat="43.1657243209857" lon="11.466389119558611"><ele>144.0</ele><time>2026-04-11T07:42:26Z</time></trkpt><trkpt lat="43.16557366597056" lon="11.46647683278051"><ele>145.33333333333334</ele><time>2026-04-11T07:42:27Z</time></trkpt><trkpt lat="43.1654050206426" lon="11.46655813386411"><ele>146.66666666666669</ele><time>2026-04-11T07:42:28Z</time></trkpt><trkpt lat="43.165239688652804" lon="11.466653904127721"><ele>148.0</ele><time>2026-04-11T07:42:29Z</time></trkpt><trkpt lat="43.165078090347905" lon="11.466762334907862"><ele>148.0</ele><time>2026-04-11T07:42:30Z</time></trkpt><trkpt lat="43.16491375947833" lon="11.466881451449938"><ele>148.0</ele><time>2026-04-11T07:42:31Z</time></trkpt><trkpt lat="43.164744921913474" lon="11.46700222163912"><ele>148.0</ele><time>2026-04-11T07:42:32Z</time></trkpt><trkpt lat="43.16457052647596" lon="11.46712517294617"><ele>147.33333333333334</ele><time>2026-04-11T07:42:33Z</time></trkpt><trkpt lat="43.16438931368041" lon="11.467251328945812"><ele>146.66666666666666</ele><time>2026-04-11T07:42:34Z</time></trkpt><trkpt lat="43.16420249679895" lon="11.467378055934736"><ele>146.0</ele><time>2026-04-11T07:42:35Z</time></trkpt><trkpt lat="43.164019414042876" lon="11.467505390397305"><ele>145.33333333333331</ele><time>2026-04-11T07:42:36Z</time></trkpt><trkpt lat="43.16382824184563" lon="11.467635324738355"><ele>144.66666666666666</ele><time>2026-04-11T07:42:37Z</time></trkpt><trkpt lat="43.16363480829875" lon="11.467768925966032"><ele>144.0</ele><time>2026-04-11T07:42:38Z</time></trkpt><trkpt lat="43.163438769420395" lon="11.467905628613469"><ele>144.66666666666666</ele><time>2026-04-11T07:42:39Z</time></trkpt><trkpt lat="43.16324809809502" lon="11.46804045446221"><ele>145.33333333333331</ele><time>2026-04-11T07:42:39.999Z</time></trkpt><trkpt lat="43.16306226140137" lon="11.468170019354789"><ele>146.0</ele><time>2026-04-11T07:42:40.999Z</time></trkpt><trkpt lat="43.16286828895034" lon="11.468278816898014"><ele>146.66666666666666</ele><time>2026-04-11T07:42:41.999Z</time></trkpt><trkpt lat="43.16266220351181" lon="11.468352533323355"><ele>147.33333333333334</ele><time>2026-04-11T07:42:42.999Z</time></trkpt><trkpt lat="43.16244472455698" lon="11.468392915422111"><ele>148.0</ele><time>2026-04-11T07:42:43.999Z</time></trkpt><trkpt lat="43.162218422400386" lon="11.468429722846446"><ele>149.5</ele><time>2026-04-11T07:42:44.999Z</time></trkpt><trkpt lat="43.1619904438828" lon="11.468472686096783"><ele>151.0</ele><time>2026-04-11T07:42:45.999Z</time></trkpt><trkpt lat="43.16176290483711" lon="11.468516986082964"><ele>151.0</ele><time>2026-04-11T07:42:46.999Z</time></trkpt><trkpt lat="43.16153879941412" lon="11.468556844238115"><ele>151.0</ele><time>2026-04-11T07:42:47.999Z</time></trkpt><trkpt lat="43.16131955721009" lon="11.468598725486393"><ele>151.0</ele><time>2026-04-11T07:42:48.999Z</time></trkpt><trkpt lat="43.161111826788236" lon="11.468644264254669"><ele>150.33333333333334</ele><time>2026-04-11T07:42:49.999Z</time></trkpt><trkpt lat="43.16091858697559" lon="11.468698574959939"><ele>149.66666666666666</ele><time>2026-04-11T07:42:50.999Z</time></trkpt><trkpt lat="43.16072726588938" lon="11.46877821063301"><ele>149.0</ele><time>2026-04-11T07:42:51.999Z</time></trkpt><trkpt lat="43.16053652527127" lon="11.468897307742637"><ele>147.5</ele><time>2026-04-11T07:42:52.999Z</time></trkpt><trkpt lat="43.16035007820455" lon="11.469056776063306"><ele>146.0</ele><time>2026-04-11T07:42:53.999Z</time></trkpt><trkpt lat="43.16016219547178" lon="11.469240753304316"><ele>146.0</ele><time>2026-04-11T07:42:54.999Z</time></trkpt><trkpt lat="43.15996689351436" lon="11.469432704129026"><ele>146.0</ele><time>2026-04-11T07:42:55.999Z</time></trkpt><trkpt lat="43.15977033118559" lon="11.469625365103376"><ele>146.5</ele><time>2026-04-11T07:42:56.999Z</time></trkpt><trkpt lat="43.1595642647417" lon="11.46982007486246"><ele>147.0</ele><time>2026-04-11T07:42:57.999Z</time></trkpt><trkpt lat="43.15935466204142" lon="11.470019008065986"><ele>147.0</ele><time>2026-04-11T07:42:58.999Z</time></trkpt><trkpt lat="43.15913603570366" lon="11.470223323464207"><ele>147.0</ele><time>2026-04-11T07:42:59.999Z</time></trkpt><trkpt lat="43.15891015179717" lon="11.4704232521353"><ele>147.0</ele><time>2026-04-11T07:43:00.999Z</time></trkpt><trkpt lat="43.158677567133445" lon="11.470613564050714"><ele>147.0</ele><time>2026-04-11T07:43:01.999Z</time></trkpt><trkpt lat="43.15844353473583" lon="11.470788520684792"><ele>147.0</ele><time>2026-04-11T07:43:02.999Z</time></trkpt><trkpt lat="43.15821906686262" lon="11.470946665683426"><ele>147.0</ele><time>2026-04-11T07:43:03.999Z</time></trkpt><trkpt lat="43.15800853023735" lon="11.471091072719432"><ele>146.66666666666666</ele><time>2026-04-11T07:43:04.999Z</time></trkpt><trkpt lat="43.157802210837374" lon="11.471210897756533"><ele>146.33333333333331</ele><time>2026-04-11T07:43:05.999Z</time></trkpt><trkpt lat="43.157594365392846" lon="11.471292165545778"><ele>146.0</ele><time>2026-04-11T07:43:06.999Z</time></trkpt><trkpt lat="43.1573906639849" lon="11.471340200335117"><ele>147.0</ele><time>2026-04-11T07:43:07.999Z</time></trkpt><trkpt lat="43.15718997596411" lon="11.471383841684606"><ele>148.0</ele><time>2026-04-11T07:43:08.999Z</time></trkpt><trkpt lat="43.15699991669541" lon="11.471429946588751"><ele>149.0</ele><time>2026-04-11T07:43:10Z</time></trkpt><trkpt lat="43.156812784721026" lon="11.471477184828762"><ele>149.0</ele><time>2026-04-11T07:43:11Z</time></trkpt><trkpt lat="43.15660589580818" lon="11.471524970295375"><ele>149.0</ele><time>2026-04-11T07:43:12Z</time></trkpt><trkpt lat="43.15638599289359" lon="11.47157596609734"><ele>149.0</ele><time>2026-04-11T07:43:13Z</time></trkpt><trkpt lat="43.156156009884846" lon="11.471631682335293"><ele>148.5</ele><time>2026-04-11T07:43:14Z</time></trkpt><trkpt lat="43.15591881498774" lon="11.47169797629913"><ele>148.0</ele><time>2026-04-11T07:43:15Z</time></trkpt><trkpt lat="43.15566977113415" lon="11.47176599609919"><ele>146.5</ele><time>2026-04-11T07:43:16Z</time></trkpt><trkpt lat="43.155410299158156" lon="11.471825736948743"><ele>145.0</ele><time>2026-04-11T07:43:17Z</time></trkpt><trkpt lat="43.15514137537435" lon="11.471880320485054"><ele>144.5</ele><time>2026-04-11T07:43:18Z</time></trkpt><trkpt lat="43.154865743840794" lon="11.471930328916152"><ele>144.0</ele><time>2026-04-11T07:43:19Z</time></trkpt><trkpt lat="43.154585606026224" lon="11.471983872154393"><ele>144.0</ele><time>2026-04-11T07:43:20Z</time></trkpt><trkpt lat="43.15430420602362" lon="11.47204641650048"><ele>144.0</ele><time>2026-04-11T07:43:21Z</time></trkpt><trkpt lat="43.154023587618745" lon="11.472114002751825"><ele>143.5</ele><time>2026-04-11T07:43:22Z</time></trkpt><trkpt lat="43.15373973159172" lon="11.472182963968672"><ele>143.0</ele><time>2026-04-11T07:43:23Z</time></trkpt><trkpt lat="43.15346127729375" lon="11.472250149856224"><ele>143.0</ele><time>2026-04-11T07:43:24Z</time></trkpt><trkpt lat="43.15319820809158" lon="11.472309126944193"><ele>143.0</ele><time>2026-04-11T07:43:25Z</time></trkpt><trkpt lat="43.152949450079255" lon="11.472365908633185"><ele>143.0</ele><time>2026-04-11T07:43:26Z</time></trkpt><trkpt lat="43.15271079599158" lon="11.472420083632631"><ele>143.0</ele><time>2026-04-11T07:43:27Z</time></trkpt><trkpt lat="43.15246993349815" lon="11.472477675181203"><ele>143.0</ele><time>2026-04-11T07:43:28Z</time></trkpt><trkpt lat="43.15223993102553" lon="11.472551794921966"><ele>143.0</ele><time>2026-04-11T07:43:29Z</time></trkpt><trkpt lat="43.15201601657506" lon="11.472653478121899"><ele>143.0</ele><time>2026-04-11T07:43:30Z</time></trkpt><trkpt lat="43.15179342678311" lon="11.472783598281229"><ele>143.0</ele><time>2026-04-11T07:43:31Z</time></trkpt><trkpt lat="43.15157577815199" lon="11.472934533049647"><ele>145.5</ele><time>2026-04-11T07:43:32Z</time></trkpt><trkpt lat="43.15136201102857" lon="11.473113052966784"><ele>148.0</ele><time>2026-04-11T07:43:33Z</time></trkpt><trkpt lat="43.15114788907775" lon="11.473313134396273"><ele>148.0</ele><time>2026-04-11T07:43:34Z</time></trkpt><trkpt lat="43.15093558230778" lon="11.473527438933624"><ele>148.0</ele><time>2026-04-11T07:43:35Z</time></trkpt><trkpt lat="43.15074077325477" lon="11.473730046223995"><ele>147.5</ele><time>2026-04-11T07:43:36Z</time></trkpt><trkpt lat="43.15054973156608" lon="11.473922201902576"><ele>147.0</ele><time>2026-04-11T07:43:37Z</time></trkpt><trkpt lat="43.15035017337487" lon="11.474103123023854"><ele>147.0</ele><time>2026-04-11T07:43:38Z</time></trkpt><trkpt lat="43.150133269817864" lon="11.474261096155772"><ele>147.0</ele><time>2026-04-11T07:43:39Z</time></trkpt><trkpt lat="43.14989402262581" lon="11.474394479763426"><ele>147.5</ele><time>2026-04-11T07:43:40Z</time></trkpt><trkpt lat="43.149658863720376" lon="11.474528594452039"><ele>148.0</ele><time>2026-04-11T07:43:41Z</time></trkpt><trkpt lat="43.1494367990047" lon="11.47466428141205"><ele>148.0</ele><time>2026-04-11T07:43:42Z</time></trkpt><trkpt lat="43.149217520824095" lon="11.474791671770657"><ele>148.0</ele><time>2026-04-11T07:43:43Z</time></trkpt><trkpt lat="43.14899035624899" lon="11.474897366278334"><ele>147.0</ele><time>2026-04-11T07:43:44Z</time></trkpt><trkpt lat="43.148749536254506" lon="11.474984781505489"><ele>146.0</ele><time>2026-04-11T07:43:45Z</time></trkpt><trkpt lat="43.14850085812134" lon="11.475069000406643"><ele>146.0</ele><time>2026-04-11T07:43:46Z</time></trkpt><trkpt lat="43.148253811999226" lon="11.475151103616572"><ele>146.0</ele><time>2026-04-11T07:43:47Z</time></trkpt><trkpt lat="43.14802567181193" lon="11.47523709221804"><ele>145.33333333333331</ele><time>2026-04-11T07:43:48Z</time></trkpt><trkpt lat="43.14781126899678" lon="11.475323454503139"><ele>144.66666666666666</ele><time>2026-04-11T07:43:49Z</time></trkpt><trkpt lat="43.14760647700815" lon="11.475402680620064"><ele>144.0</ele><time>2026-04-11T07:43:50Z</time></trkpt><trkpt lat="43.14739753284739" lon="11.47547590671301"><ele>145.33333333333334</ele><time>2026-04-11T07:43:51Z</time></trkpt><trkpt lat="43.14718695587543" lon="11.475552606104031"><ele>146.66666666666669</ele><time>2026-04-11T07:43:52Z</time></trkpt><trkpt lat="43.14697327739436" lon="11.475630065354656"><ele>148.0</ele><time>2026-04-11T07:43:53Z</time></trkpt><trkpt lat="43.1467610887352" lon="11.47571220229894"><ele>146.5</ele><time>2026-04-11T07:43:54Z</time></trkpt><trkpt lat="43.1465444089975" lon="11.47580267716268"><ele>145.0</ele><time>2026-04-11T07:43:55Z</time></trkpt><trkpt lat="43.14632408578244" lon="11.475882332058536"><ele>145.0</ele><time>2026-04-11T07:43:56Z</time></trkpt><trkpt lat="43.14609520035735" lon="11.47596923895429"><ele>145.0</ele><time>2026-04-11T07:43:57Z</time></trkpt><trkpt lat="43.14586350824559" lon="11.47605471493456"><ele>143.5</ele><time>2026-04-11T07:43:58Z</time></trkpt><trkpt lat="43.145628460645774" lon="11.476144309852955"><ele>142.0</ele><time>2026-04-11T07:43:59Z</time></trkpt><trkpt lat="43.1453937872221" lon="11.476208078579205"><ele>142.0</ele><time>2026-04-11T07:44:00Z</time></trkpt><trkpt lat="43.14517377034654" lon="11.476246016431464"><ele>142.0</ele><time>2026-04-11T07:44:01Z</time></trkpt><trkpt lat="43.144953837921264" lon="11.476249930531514"><ele>142.0</ele><time>2026-04-11T07:44:02Z</time></trkpt><trkpt lat="43.14473834847233" lon="11.476230988483211"><ele>142.0</ele><time>2026-04-11T07:44:03Z</time></trkpt><trkpt lat="43.144544589840464" lon="11.476191318660184"><ele>142.0</ele><time>2026-04-11T07:44:04Z</time></trkpt><trkpt lat="43.14437600264672" lon="11.476151874321479"><ele>142.0</ele><time>2026-04-11T07:44:05Z</time></trkpt><trkpt lat="43.14422947825734" lon="11.47619355422659"><ele>142.33333333333334</ele><time>2026-04-11T07:44:06Z</time></trkpt><trkpt lat="43.14408520456881" lon="11.476309330594576"><ele>142.66666666666666</ele><time>2026-04-11T07:44:07Z</time></trkpt><trkpt lat="43.14394165283599" lon="11.476434515212238"><ele>143.0</ele><time>2026-04-11T07:44:08Z</time></trkpt><trkpt lat="43.14380964172614" lon="11.476616530974496"><ele>143.0</ele><time>2026-04-11T07:44:09Z</time></trkpt><trkpt lat="43.14367580682991" lon="11.476773714037954"><ele>143.0</ele><time>2026-04-11T07:44:10Z</time></trkpt><trkpt lat="43.14355003169898" lon="11.476910709949136"><ele>143.0</ele><time>2026-04-11T07:44:11Z</time></trkpt><trkpt lat="43.143434469344555" lon="11.477027545525905"><ele>143.0</ele><time>2026-04-11T07:44:12Z</time></trkpt><trkpt lat="43.143348156140036" lon="11.477158354662928"><ele>143.0</ele><time>2026-04-11T07:44:13Z</time></trkpt><trkpt lat="43.14326046546331" lon="11.477294757980227"><ele>143.0</ele><time>2026-04-11T07:44:14Z</time></trkpt><trkpt lat="43.14318162773364" lon="11.477448570968095"><ele>143.0</ele><time>2026-04-11T07:44:15Z</time></trkpt><trkpt lat="43.14310835726358" lon="11.477627371822047"><ele>143.0</ele><time>2026-04-11T07:44:16Z</time></trkpt><trkpt lat="43.14303970529008" lon="11.477838384558936"><ele>143.0</ele><time>2026-04-11T07:44:17Z</time></trkpt><trkpt lat="43.142985466062555" lon="11.478083068505049"><ele>143.0</ele><time>2026-04-11T07:44:18Z</time></trkpt><trkpt lat="43.142940069817364" lon="11.478338184289111"><ele>143.0</ele><time>2026-04-11T07:44:19Z</time></trkpt><trkpt lat="43.14290194192619" lon="11.478583280371708"><ele>143.0</ele><time>2026-04-11T07:44:20Z</time></trkpt><trkpt lat="43.14286152714591" lon="11.478813868567894"><ele>143.0</ele><time>2026-04-11T07:44:21Z</time></trkpt><trkpt lat="43.14282283491496" lon="11.479037287019347"><ele>143.0</ele><time>2026-04-11T07:44:22Z</time></trkpt><trkpt lat="43.142785337185344" lon="11.479251920861488"><ele>143.0</ele><time>2026-04-11T07:44:23Z</time></trkpt><trkpt lat="43.142746005673274" lon="11.479453656584335"><ele>143.0</ele><time>2026-04-11T07:44:24Z</time></trkpt><trkpt lat="43.14269741486773" lon="11.479643270408834"><ele>143.25</ele><time>2026-04-11T07:44:25Z</time></trkpt><trkpt lat="43.1426396811253" lon="11.479815086783915"><ele>143.5</ele><time>2026-04-11T07:44:26Z</time></trkpt><trkpt lat="43.142568041023424" lon="11.479969857740114"><ele>143.75</ele><time>2026-04-11T07:44:27Z</time></trkpt><trkpt lat="43.14248187855551" lon="11.480111567109228"><ele>144.0</ele><time>2026-04-11T07:44:28Z</time></trkpt><trkpt lat="43.14238829854396" lon="11.4802479436445"><ele>143.5</ele><time>2026-04-11T07:44:29Z</time></trkpt><trkpt lat="43.14228354827764" lon="11.480380847837084"><ele>143.0</ele><time>2026-04-11T07:44:30Z</time></trkpt><trkpt lat="43.14217419674966" lon="11.480490424593865"><ele>142.5</ele><time>2026-04-11T07:44:31Z</time></trkpt><trkpt lat="43.14206366310069" lon="11.480626201950193"><ele>142.0</ele><time>2026-04-11T07:44:32Z</time></trkpt><trkpt lat="43.14195553614975" lon="11.480760917848185"><ele>142.0</ele><time>2026-04-11T07:44:33Z</time></trkpt><trkpt lat="43.14184674700935" lon="11.480895982572406"><ele>142.0</ele><time>2026-04-11T07:44:34Z</time></trkpt><trkpt lat="43.141745259189925" lon="11.481049116927027"><ele>142.0</ele><time>2026-04-11T07:44:35Z</time></trkpt><trkpt lat="43.14162837349973" lon="11.481188490517294"><ele>141.66666666666669</ele><time>2026-04-11T07:44:36Z</time></trkpt><trkpt lat="43.14150084595272" lon="11.481321355322004"><ele>141.33333333333334</ele><time>2026-04-11T07:44:37Z</time></trkpt><trkpt lat="43.14135310476878" lon="11.4814512001247"><ele>141.0</ele><time>2026-04-11T07:44:38Z</time></trkpt><trkpt lat="43.14119063476297" lon="11.481573232075274"><ele>141.0</ele><time>2026-04-11T07:44:39Z</time></trkpt><trkpt lat="43.14102502665888" lon="11.481688521459178"><ele>141.0</ele><time>2026-04-11T07:44:40Z</time></trkpt><trkpt lat="43.14085936218261" lon="11.481802495428997"><ele>141.0</ele><time>2026-04-11T07:44:41Z</time></trkpt><trkpt lat="43.140697642965705" lon="11.481911617441638"><ele>141.33333333333334</ele><time>2026-04-11T07:44:42Z</time></trkpt><trkpt lat="43.14054402200793" lon="11.482016109404805"><ele>141.66666666666669</ele><time>2026-04-11T07:44:43Z</time></trkpt><trkpt lat="43.14039232232681" lon="11.482119166124509"><ele>142.0</ele><time>2026-04-11T07:44:44Z</time></trkpt><trkpt lat="43.14024973575365" lon="11.48222090591327"><ele>142.25</ele><time>2026-04-11T07:44:45Z</time></trkpt><trkpt lat="43.140113970635305" lon="11.482321388699681"><ele>142.5</ele><time>2026-04-11T07:44:46Z</time></trkpt><trkpt lat="43.139986944567056" lon="11.482420217957396"><ele>142.75</ele><time>2026-04-11T07:44:47Z</time></trkpt><trkpt lat="43.13986245654076" lon="11.48250855605853"><ele>143.0</ele><time>2026-04-11T07:44:48Z</time></trkpt><trkpt lat="43.139744879915156" lon="11.482591622765101"><ele>144.0</ele><time>2026-04-11T07:44:49Z</time></trkpt><trkpt lat="43.13962890714647" lon="11.482679502498772"><ele>145.0</ele><time>2026-04-11T07:44:50Z</time></trkpt><trkpt lat="43.139512356448925" lon="11.482765844492405"><ele>146.0</ele><time>2026-04-11T07:44:51Z</time></trkpt><trkpt lat="43.13939804567865" lon="11.482837064141814"><ele>147.0</ele><time>2026-04-11T07:44:52Z</time></trkpt><trkpt lat="43.13928801853435" lon="11.482908523296274"><ele>146.75</ele><time>2026-04-11T07:44:53Z</time></trkpt><trkpt lat="43.13918326246376" lon="11.482973009105311"><ele>146.5</ele><time>2026-04-11T07:44:54Z</time></trkpt><trkpt lat="43.139080731882984" lon="11.483045029993564"><ele>146.25</ele><time>2026-04-11T07:44:55Z</time></trkpt><trkpt lat="43.13897468272805" lon="11.483107585808556"><ele>146.0</ele><time>2026-04-11T07:44:56Z</time></trkpt><trkpt lat="43.13886025745784" lon="11.483172701951549"><ele>146.0</ele><time>2026-04-11T07:44:57Z</time></trkpt><trkpt lat="43.13873830087639" lon="11.483224268122878"><ele>146.0</ele><time>2026-04-11T07:44:58Z</time></trkpt><trkpt lat="43.13862053905368" lon="11.48325348456507"><ele>146.0</ele><time>2026-04-11T07:44:59Z</time></trkpt><trkpt lat="43.13850830003081" lon="11.483290511860693"><ele>146.0</ele><time>2026-04-11T07:45:00Z</time></trkpt><trkpt lat="43.13839231596061" lon="11.483321415227977"><ele>146.0</ele><time>2026-04-11T07:45:01Z</time></trkpt><trkpt lat="43.13827621860019" lon="11.483334400397343"><ele>146.0</ele><time>2026-04-11T07:45:02Z</time></trkpt><trkpt lat="43.13816487254273" lon="11.483333661519959"><ele>146.0</ele><time>2026-04-11T07:45:03Z</time></trkpt><trkpt lat="43.138063700873985" lon="11.483331674079267"><ele>146.0</ele><time>2026-04-11T07:45:04Z</time></trkpt><trkpt lat="43.137979395848944" lon="11.483333865201027"><ele>146.0</ele><time>2026-04-11T07:45:05Z</time></trkpt><trkpt lat="43.137909699695356" lon="11.483336946965386"><ele>146.2</ele><time>2026-04-11T07:45:06Z</time></trkpt><trkpt lat="43.13782092611067" lon="11.48334104181364"><ele>146.39999999999998</ele><time>2026-04-11T07:45:08Z</time></trkpt><trkpt lat="43.13774032485624" lon="11.483350638551578"><ele>146.6</ele><time>2026-04-11T07:45:22Z</time></trkpt><trkpt lat="43.13764264729849" lon="11.483353198958723"><ele>146.79999999999998</ele><time>2026-04-11T07:45:23Z</time></trkpt><trkpt lat="43.13753588698504" lon="11.483354104422244"><ele>147.0</ele><time>2026-04-11T07:45:24Z</time></trkpt><trkpt lat="43.13740101436571" lon="11.483351295015662"><ele>146.66666666666666</ele><time>2026-04-11T07:45:25Z</time></trkpt><trkpt lat="43.1372595796637" lon="11.483351279669604"><ele>146.33333333333331</ele><time>2026-04-11T07:45:26Z</time></trkpt><trkpt lat="43.13710158044834" lon="11.483352899836047"><ele>146.0</ele><time>2026-04-11T07:45:27Z</time></trkpt><trkpt lat="43.1369403063394" lon="11.483357564365658"><ele>146.0</ele><time>2026-04-11T07:45:28Z</time></trkpt><trkpt lat="43.13677427176176" lon="11.483369263023866"><ele>146.0</ele><time>2026-04-11T07:45:29Z</time></trkpt><trkpt lat="43.13659714320713" lon="11.483372251895107"><ele>146.0</ele><time>2026-04-11T07:45:30Z</time></trkpt><trkpt lat="43.13641626284492" lon="11.48337809332027"><ele>146.0</ele><time>2026-04-11T07:45:31Z</time></trkpt><trkpt lat="43.13623590004717" lon="11.483382255018494"><ele>146.0</ele><time>2026-04-11T07:45:32Z</time></trkpt><trkpt lat="43.1360519466459" lon="11.483382635070564"><ele>146.0</ele><time>2026-04-11T07:45:33Z</time></trkpt><trkpt lat="43.13587770680649" lon="11.483371705260053"><ele>146.0</ele><time>2026-04-11T07:45:34Z</time></trkpt><trkpt lat="43.135724025238034" lon="11.483370267612939"><ele>146.0</ele><time>2026-04-11T07:45:35Z</time></trkpt><trkpt lat="43.1355983337631" lon="11.483348707346055"><ele>146.0</ele><time>2026-04-11T07:45:36Z</time></trkpt><trkpt lat="43.13546355234864" lon="11.483328300721219"><ele>146.0</ele><time>2026-04-11T07:45:37Z</time></trkpt><trkpt lat="43.135315097381955" lon="11.483296610243142"><ele>146.0</ele><time>2026-04-11T07:45:38Z</time></trkpt><trkpt lat="43.1351520789126" lon="11.483271660604236"><ele>146.0</ele><time>2026-04-11T07:45:39Z</time></trkpt><trkpt lat="43.13497094121147" lon="11.48323312428506"><ele>146.0</ele><time>2026-04-11T07:45:40Z</time></trkpt><trkpt lat="43.13478092146131" lon="11.483197300362162"><ele>145.75</ele><time>2026-04-11T07:45:41Z</time></trkpt><trkpt lat="43.134619173250826" lon="11.483168825660783"><ele>145.5</ele><time>2026-04-11T07:45:42Z</time></trkpt><trkpt lat="43.134498700749944" lon="11.483150394625092"><ele>145.25</ele><time>2026-04-11T07:45:43Z</time></trkpt><trkpt lat="43.13443275836831" lon="11.483139351180588"><ele>145.0</ele><time>2026-04-11T07:45:44Z</time></trkpt><trkpt lat="43.13433285740757" lon="11.483086597524606"><ele>145.0</ele><time>2026-04-11T07:45:46Z</time></trkpt><trkpt lat="43.13419943629096" lon="11.483095960583078"><ele>145.0</ele><time>2026-04-11T07:45:48Z</time></trkpt><trkpt lat="43.134107010640925" lon="11.483098141233087"><ele>145.0</ele><time>2026-04-11T07:45:49Z</time></trkpt><trkpt lat="43.13399573214111" lon="11.483067132151485"><ele>145.0</ele><time>2026-04-11T07:45:50Z</time></trkpt><trkpt lat="43.13385229916369" lon="11.483039078159525"><ele>145.0</ele><time>2026-04-11T07:45:51Z</time></trkpt><trkpt lat="43.13369357374324" lon="11.48300653528079"><ele>145.0</ele><time>2026-04-11T07:45:52Z</time></trkpt><trkpt lat="43.13351191931606" lon="11.482945105470682"><ele>145.0</ele><time>2026-04-11T07:45:53Z</time></trkpt><trkpt lat="43.13332645224758" lon="11.482860974492203"><ele>144.33333333333334</ele><time>2026-04-11T07:45:54Z</time></trkpt><trkpt lat="43.1331208473734" lon="11.482783954232056"><ele>143.66666666666666</ele><time>2026-04-11T07:45:55Z</time></trkpt><trkpt lat="43.132908693196285" lon="11.482701800261143"><ele>143.0</ele><time>2026-04-11T07:45:56Z</time></trkpt><trkpt lat="43.132692136535006" lon="11.482615799037575"><ele>143.0</ele><time>2026-04-11T07:45:57Z</time></trkpt><trkpt lat="43.13247843893726" lon="11.482531948700522"><ele>143.0</ele><time>2026-04-11T07:45:58Z</time></trkpt><trkpt lat="43.13227178362752" lon="11.482453148876616"><ele>143.0</ele><time>2026-04-11T07:45:59Z</time></trkpt><trkpt lat="43.13206757974906" lon="11.482383185918845"><ele>143.33333333333331</ele><time>2026-04-11T07:46:00Z</time></trkpt><trkpt lat="43.13186182102761" lon="11.48233844772943"><ele>143.66666666666666</ele><time>2026-04-11T07:46:01Z</time></trkpt><trkpt lat="43.131651006081704" lon="11.482331010455175"><ele>144.0</ele><time>2026-04-11T07:46:02Z</time></trkpt><trkpt lat="43.13143383011777" lon="11.482353747912391"><ele>143.0</ele><time>2026-04-11T07:46:03Z</time></trkpt><trkpt lat="43.13121520640088" lon="11.482383928422923"><ele>142.0</ele><time>2026-04-11T07:46:04Z</time></trkpt><trkpt lat="43.13099432182312" lon="11.482405797264343"><ele>141.0</ele><time>2026-04-11T07:46:05Z</time></trkpt><trkpt lat="43.13077857794043" lon="11.482419875698044"><ele>141.33333333333334</ele><time>2026-04-11T07:46:06Z</time></trkpt><trkpt lat="43.1305730604969" lon="11.482428165449724"><ele>141.66666666666669</ele><time>2026-04-11T07:46:07Z</time></trkpt><trkpt lat="43.130366933061616" lon="11.482446409193438"><ele>142.0</ele><time>2026-04-11T07:46:08Z</time></trkpt><trkpt lat="43.130163391854744" lon="11.482462374522443"><ele>142.0</ele><time>2026-04-11T07:46:09Z</time></trkpt><trkpt lat="43.129964241073665" lon="11.482476284405834"><ele>142.0</ele><time>2026-04-11T07:46:10Z</time></trkpt><trkpt lat="43.12976993503108" lon="11.48249060348801"><ele>142.0</ele><time>2026-04-11T07:46:11Z</time></trkpt><trkpt lat="43.12957192601925" lon="11.482502624804297"><ele>142.66666666666669</ele><time>2026-04-11T07:46:12Z</time></trkpt><trkpt lat="43.12937330829886" lon="11.482516966493353"><ele>143.33333333333334</ele><time>2026-04-11T07:46:13Z</time></trkpt><trkpt lat="43.12917442434028" lon="11.482538524346797"><ele>144.0</ele><time>2026-04-11T07:46:14Z</time></trkpt><trkpt lat="43.128969771932475" lon="11.482559014044924"><ele>144.33333333333334</ele><time>2026-04-11T07:46:15Z</time></trkpt><trkpt lat="43.12876139309053" lon="11.482579787563221"><ele>144.66666666666669</ele><time>2026-04-11T07:46:16Z</time></trkpt><trkpt lat="43.12855202942252" lon="11.482590312134597"><ele>145.0</ele><time>2026-04-11T07:46:17Z</time></trkpt><trkpt lat="43.12835711520399" lon="11.482609142508469"><ele>145.0</ele><time>2026-04-11T07:46:18Z</time></trkpt><trkpt lat="43.1281864477392" lon="11.482627752511355"><ele>145.0</ele><time>2026-04-11T07:46:19Z</time></trkpt><trkpt lat="43.12803976797247" lon="11.482645991638408"><ele>145.0</ele><time>2026-04-11T07:46:20Z</time></trkpt><trkpt lat="43.127897370897045" lon="11.482658758269073"><ele>145.0</ele><time>2026-04-11T07:46:21Z</time></trkpt><trkpt lat="43.127767913615195" lon="11.482668187165162"><ele>145.0</ele><time>2026-04-11T07:46:22Z</time></trkpt><trkpt lat="43.12765134732094" lon="11.482685806738953"><ele>145.0</ele><time>2026-04-11T07:46:23Z</time></trkpt><trkpt lat="43.12755456584245" lon="11.482689814006898"><ele>145.0</ele><time>2026-04-11T07:46:24Z</time></trkpt><trkpt lat="43.127468569872384" lon="11.482693583433829"><ele>145.0</ele><time>2026-04-11T07:46:25Z</time></trkpt><trkpt lat="43.12737910073285" lon="11.482697953976972"><ele>144.83333333333334</ele><time>2026-04-11T07:46:26Z</time></trkpt><trkpt lat="43.12729681554005" lon="11.482701139542712"><ele>144.66666666666669</ele><time>2026-04-11T07:46:27Z</time></trkpt><trkpt lat="43.12721976947816" lon="11.482715324373226"><ele>144.5</ele><time>2026-04-11T07:46:28Z</time></trkpt><trkpt lat="43.127144432383645" lon="11.482724289148695"><ele>144.33333333333334</ele><time>2026-04-11T07:46:29Z</time></trkpt><trkpt lat="43.12705698359285" lon="11.482732945481445"><ele>144.16666666666666</ele><time>2026-04-11T07:46:30Z</time></trkpt><trkpt lat="43.12697246078921" lon="11.48273540791854"><ele>144.0</ele><time>2026-04-11T07:46:31Z</time></trkpt><trkpt lat="43.12687121862433" lon="11.482749264529163"><ele>144.0</ele><time>2026-04-11T07:46:32Z</time></trkpt><trkpt lat="43.126748269389765" lon="11.482765180385591"><ele>144.0</ele><time>2026-04-11T07:46:33Z</time></trkpt><trkpt lat="43.1266165969529" lon="11.482775720111993"><ele>144.0</ele><time>2026-04-11T07:46:34Z</time></trkpt><trkpt lat="43.12647438528934" lon="11.482787836938988"><ele>144.0</ele><time>2026-04-11T07:46:35Z</time></trkpt><trkpt lat="43.126321971431935" lon="11.482800500435763"><ele>143.5</ele><time>2026-04-11T07:46:36Z</time></trkpt><trkpt lat="43.126163389820164" lon="11.482810691988414"><ele>143.0</ele><time>2026-04-11T07:46:37Z</time></trkpt><trkpt lat="43.126018198943314" lon="11.482826572300814"><ele>142.5</ele><time>2026-04-11T07:46:38Z</time></trkpt><trkpt lat="43.12587425313266" lon="11.48283836780531"><ele>142.0</ele><time>2026-04-11T07:46:39Z</time></trkpt><trkpt lat="43.12573449721091" lon="11.482849812735992"><ele>141.75</ele><time>2026-04-11T07:46:40Z</time></trkpt><trkpt lat="43.1256022028581" lon="11.482861190380374"><ele>141.5</ele><time>2026-04-11T07:46:41Z</time></trkpt><trkpt lat="43.12547145447917" lon="11.482874173084179"><ele>141.25</ele><time>2026-04-11T07:46:42Z</time></trkpt><trkpt lat="43.12534450022502" lon="11.482887949077375"><ele>141.0</ele><time>2026-04-11T07:46:43Z</time></trkpt><trkpt lat="43.12521872727624" lon="11.482901903456805"><ele>141.0</ele><time>2026-04-11T07:46:44Z</time></trkpt><trkpt lat="43.12509097951635" lon="11.482912509068585"><ele>141.0</ele><time>2026-04-11T07:46:45Z</time></trkpt><trkpt lat="43.124953332797986" lon="11.482919929037667"><ele>141.0</ele><time>2026-04-11T07:46:46Z</time></trkpt><trkpt lat="43.12480939123616" lon="11.482929130156323"><ele>141.0</ele><time>2026-04-11T07:46:47Z</time></trkpt><trkpt lat="43.12465890809739" lon="11.48294945171199"><ele>141.66666666666666</ele><time>2026-04-11T07:46:48Z</time></trkpt><trkpt lat="43.124504984471024" lon="11.482965771723656"><ele>142.33333333333331</ele><time>2026-04-11T07:46:49Z</time></trkpt><trkpt lat="43.12434106456384" lon="11.482979206435244"><ele>143.0</ele><time>2026-04-11T07:46:50Z</time></trkpt><trkpt lat="43.124173184641165" lon="11.482997528959125"><ele>143.66666666666666</ele><time>2026-04-11T07:46:51Z</time></trkpt><trkpt lat="43.12399886095982" lon="11.483013415247186"><ele>144.33333333333334</ele><time>2026-04-11T07:46:52Z</time></trkpt><trkpt lat="43.12382348720493" lon="11.483027856295381"><ele>145.0</ele><time>2026-04-11T07:46:53Z</time></trkpt><trkpt lat="43.12364215656623" lon="11.483045599706026"><ele>145.0</ele><time>2026-04-11T07:46:54Z</time></trkpt><trkpt lat="43.123458541737314" lon="11.483059735551603"><ele>145.0</ele><time>2026-04-11T07:46:55Z</time></trkpt><trkpt lat="43.12327957783415" lon="11.483075685973388"><ele>145.0</ele><time>2026-04-11T07:46:56Z</time></trkpt><trkpt lat="43.12310676623313" lon="11.483088659995131"><ele>145.66666666666669</ele><time>2026-04-11T07:46:57Z</time></trkpt><trkpt lat="43.12293891486572" lon="11.483104136413909"><ele>146.33333333333334</ele><time>2026-04-11T07:46:58Z</time></trkpt><trkpt lat="43.12278221350869" lon="11.483120101691128"><ele>147.0</ele><time>2026-04-11T07:46:59Z</time></trkpt><trkpt lat="43.122637484517924" lon="11.483131998208432"><ele>147.0</ele><time>2026-04-11T07:47:00Z</time></trkpt><trkpt lat="43.122499427823485" lon="11.483144740482357"><ele>147.0</ele><time>2026-04-11T07:47:01Z</time></trkpt><trkpt lat="43.12236821552197" lon="11.483158024357117"><ele>147.0</ele><time>2026-04-11T07:47:02Z</time></trkpt><trkpt lat="43.12223728653197" lon="11.483168772615835"><ele>147.0</ele><time>2026-04-11T07:47:03Z</time></trkpt><trkpt lat="43.12210969860722" lon="11.483176448561554"><ele>146.25</ele><time>2026-04-11T07:47:04Z</time></trkpt><trkpt lat="43.121989104181104" lon="11.483181705026302"><ele>145.5</ele><time>2026-04-11T07:47:05Z</time></trkpt><trkpt lat="43.121867556885476" lon="11.48319723537289"><ele>144.75</ele><time>2026-04-11T07:47:06Z</time></trkpt><trkpt lat="43.12173997172225" lon="11.483213775476848"><ele>144.0</ele><time>2026-04-11T07:47:07Z</time></trkpt><trkpt lat="43.12161520517639" lon="11.483217147356081"><ele>143.75</ele><time>2026-04-11T07:47:08Z</time></trkpt><trkpt lat="43.12148981783937" lon="11.483232265171353"><ele>143.5</ele><time>2026-04-11T07:47:09Z</time></trkpt><trkpt lat="43.121362157571056" lon="11.48324048242266"><ele>143.25</ele><time>2026-04-11T07:47:10Z</time></trkpt><trkpt lat="43.1212369178643" lon="11.483258415278206"><ele>143.0</ele><time>2026-04-11T07:47:11Z</time></trkpt><trkpt lat="43.12111798543364" lon="11.48326639789"><ele>143.0</ele><time>2026-04-11T07:47:12Z</time></trkpt><trkpt lat="43.12099810887871" lon="11.483275314025464"><ele>143.0</ele><time>2026-04-11T07:47:13Z</time></trkpt><trkpt lat="43.120874327607424" lon="11.48328549036635"><ele>143.0</ele><time>2026-04-11T07:47:14Z</time></trkpt><trkpt lat="43.12074812288192" lon="11.483293858332022"><ele>143.0</ele><time>2026-04-11T07:47:15Z</time></trkpt><trkpt lat="43.12061150267696" lon="11.483303701732718"><ele>142.66666666666666</ele><time>2026-04-11T07:47:16Z</time></trkpt><trkpt lat="43.12046339777673" lon="11.483315774051693"><ele>142.33333333333334</ele><time>2026-04-11T07:47:17Z</time></trkpt><trkpt lat="43.12030056370585" lon="11.483336962237162"><ele>142.0</ele><time>2026-04-11T07:47:18Z</time></trkpt><trkpt lat="43.12013022450902" lon="11.48336830295968"><ele>142.0</ele><time>2026-04-11T07:47:19Z</time></trkpt><trkpt lat="43.119928259824306" lon="11.483377957524786"><ele>142.0</ele><time>2026-04-11T07:47:20Z</time></trkpt><trkpt lat="43.11969816301073" lon="11.483421321408121"><ele>142.0</ele><time>2026-04-11T07:47:21Z</time></trkpt><trkpt lat="43.11944733012092" lon="11.48347266930935"><ele>142.0</ele><time>2026-04-11T07:47:22Z</time></trkpt><trkpt lat="43.11917623568239" lon="11.483538985659987"><ele>142.0</ele><time>2026-04-11T07:47:23Z</time></trkpt><trkpt lat="43.11888987723596" lon="11.483590800588509"><ele>142.5</ele><time>2026-04-11T07:47:24Z</time></trkpt><trkpt lat="43.1185954787237" lon="11.48365057895495"><ele>143.0</ele><time>2026-04-11T07:47:25Z</time></trkpt><trkpt lat="43.11831520537232" lon="11.483707406941626"><ele>144.5</ele><time>2026-04-11T07:47:26Z</time></trkpt><trkpt lat="43.11806050738265" lon="11.483763010647554"><ele>146.0</ele><time>2026-04-11T07:47:27Z</time></trkpt><trkpt lat="43.1178207704156" lon="11.483814503794203"><ele>146.66666666666666</ele><time>2026-04-11T07:47:28Z</time></trkpt><trkpt lat="43.117601215821125" lon="11.48385805057947"><ele>147.33333333333334</ele><time>2026-04-11T07:47:29Z</time></trkpt><trkpt lat="43.117411139386526" lon="11.483892456849507"><ele>148.0</ele><time>2026-04-11T07:47:30Z</time></trkpt><trkpt lat="43.117239236754" lon="11.483904544119525"><ele>150.0</ele><time>2026-04-11T07:47:31Z</time></trkpt><trkpt lat="43.117075654704024" lon="11.483875169512736"><ele>152.0</ele><time>2026-04-11T07:47:32Z</time></trkpt><trkpt lat="43.1169318730513" lon="11.48381606198028"><ele>154.0</ele><time>2026-04-11T07:47:33Z</time></trkpt><trkpt lat="43.11680107722197" lon="11.483741576936822"><ele>154.0</ele><time>2026-04-11T07:47:34Z</time></trkpt><trkpt lat="43.116683005262765" lon="11.48366781192"><ele>154.0</ele><time>2026-04-11T07:47:35Z</time></trkpt><trkpt lat="43.116577944232645" lon="11.483606397733194"><ele>154.0</ele><time>2026-04-11T07:47:36Z</time></trkpt><trkpt lat="43.116470987585444" lon="11.483576952514454"><ele>154.0</ele><time>2026-04-11T07:47:37Z</time></trkpt><trkpt lat="43.11636175046992" lon="11.48359332130781"><ele>156.5</ele><time>2026-04-11T07:47:38Z</time></trkpt><trkpt lat="43.116251848308785" lon="11.483657485053856"><ele>159.0</ele><time>2026-04-11T07:47:39Z</time></trkpt><trkpt lat="43.11617802728353" lon="11.483783794382676"><ele>161.5</ele><time>2026-04-11T07:47:40Z</time></trkpt><trkpt lat="43.1161151868153" lon="11.48394981808948"><ele>164.0</ele><time>2026-04-11T07:47:41Z</time></trkpt><trkpt lat="43.11609792037438" lon="11.484114163668911"><ele>164.5</ele><time>2026-04-11T07:47:42Z</time></trkpt><trkpt lat="43.11606123557227" lon="11.484272203322709"><ele>165.0</ele><time>2026-04-11T07:47:43Z</time></trkpt><trkpt lat="43.11600240150882" lon="11.484409824055835"><ele>165.5</ele><time>2026-04-11T07:47:44Z</time></trkpt><trkpt lat="43.11594816662485" lon="11.484557958776744"><ele>166.0</ele><time>2026-04-11T07:47:45Z</time></trkpt><trkpt lat="43.11584101961347" lon="11.484669167926217"><ele>168.0</ele><time>2026-04-11T07:47:46Z</time></trkpt><trkpt lat="43.115727028966944" lon="11.484787797366176"><ele>170.0</ele><time>2026-04-11T07:47:47Z</time></trkpt><trkpt lat="43.11560449426886" lon="11.484884534295679"><ele>172.0</ele><time>2026-04-11T07:47:48Z</time></trkpt><trkpt lat="43.11545204069015" lon="11.485005321405232"><ele>172.0</ele><time>2026-04-11T07:47:49Z</time></trkpt><trkpt lat="43.11526837729574" lon="11.485151664514513"><ele>172.0</ele><time>2026-04-11T07:47:50Z</time></trkpt><trkpt lat="43.11506504884155" lon="11.485313676779723"><ele>172.0</ele><time>2026-04-11T07:47:51Z</time></trkpt><trkpt lat="43.11485235068881" lon="11.485491386399783"><ele>174.0</ele><time>2026-04-11T07:47:52Z</time></trkpt><trkpt lat="43.11465401837346" lon="11.485656106947971"><ele>176.0</ele><time>2026-04-11T07:47:53Z</time></trkpt><trkpt lat="43.11445935634818" lon="11.485792625238323"><ele>176.0</ele><time>2026-04-11T07:47:54Z</time></trkpt><trkpt lat="43.11428273623372" lon="11.48595648533561"><ele>176.0</ele><time>2026-04-11T07:47:55Z</time></trkpt><trkpt lat="43.11409200200942" lon="11.486096284812279"><ele>176.0</ele><time>2026-04-11T07:47:56Z</time></trkpt><trkpt lat="43.11389513032696" lon="11.486264637571985"><ele>175.5</ele><time>2026-04-11T07:47:57Z</time></trkpt><trkpt lat="43.11368474496552" lon="11.48643154066476"><ele>175.0</ele><time>2026-04-11T07:47:58Z</time></trkpt><trkpt lat="43.113466247374724" lon="11.486611974883255"><ele>175.0</ele><time>2026-04-11T07:47:59Z</time></trkpt><trkpt lat="43.11324900942546" lon="11.486811910360053"><ele>175.0</ele><time>2026-04-11T07:48:00Z</time></trkpt><trkpt lat="43.11302939346786" lon="11.486994852089277"><ele>174.33333333333334</ele><time>2026-04-11T07:48:01Z</time></trkpt><trkpt lat="43.11282374793375" lon="11.487152117132531"><ele>173.66666666666666</ele><time>2026-04-11T07:48:02Z</time></trkpt><trkpt lat="43.112642046320836" lon="11.48730280004417"><ele>173.0</ele><time>2026-04-11T07:48:03Z</time></trkpt><trkpt lat="43.112476462536414" lon="11.487459653586916"><ele>171.0</ele><time>2026-04-11T07:48:04Z</time></trkpt><trkpt lat="43.1123270182346" lon="11.487639051330286"><ele>169.0</ele><time>2026-04-11T07:48:05Z</time></trkpt><trkpt lat="43.11218479681177" lon="11.487870026142367"><ele>167.0</ele><time>2026-04-11T07:48:06Z</time></trkpt><trkpt lat="43.11205543485921" lon="11.48813124151759"><ele>167.0</ele><time>2026-04-11T07:48:07Z</time></trkpt><trkpt lat="43.111924863057304" lon="11.48841573802398"><ele>167.0</ele><time>2026-04-11T07:48:08Z</time></trkpt><trkpt lat="43.111787669718595" lon="11.488717203568921"><ele>167.5</ele><time>2026-04-11T07:48:09Z</time></trkpt><trkpt lat="43.11164196798961" lon="11.489023254818623"><ele>168.0</ele><time>2026-04-11T07:48:10Z</time></trkpt><trkpt lat="43.111505678100265" lon="11.48933349914181"><ele>166.0</ele><time>2026-04-11T07:48:11Z</time></trkpt><trkpt lat="43.11139277921524" lon="11.489630413866035"><ele>164.0</ele><time>2026-04-11T07:48:12Z</time></trkpt><trkpt lat="43.11128280350529" lon="11.489895664826843"><ele>164.0</ele><time>2026-04-11T07:48:13Z</time></trkpt><trkpt lat="43.11114560892521" lon="11.490154024663518"><ele>164.0</ele><time>2026-04-11T07:48:14Z</time></trkpt><trkpt lat="43.11098486736151" lon="11.490392761203413"><ele>164.66666666666666</ele><time>2026-04-11T07:48:15Z</time></trkpt><trkpt lat="43.11082989925641" lon="11.490602236410474"><ele>165.33333333333334</ele><time>2026-04-11T07:48:16Z</time></trkpt><trkpt lat="43.11068587497126" lon="11.490784710777072"><ele>166.0</ele><time>2026-04-11T07:48:17Z</time></trkpt><trkpt lat="43.110550688259664" lon="11.490979733858069"><ele>163.33333333333334</ele><time>2026-04-11T07:48:18Z</time></trkpt><trkpt lat="43.11043259603841" lon="11.491188248480732"><ele>160.66666666666666</ele><time>2026-04-11T07:48:19Z</time></trkpt><trkpt lat="43.11032703587093" lon="11.491413381202136"><ele>158.0</ele><time>2026-04-11T07:48:20Z</time></trkpt><trkpt lat="43.11022469322434" lon="11.491654439631551"><ele>158.0</ele><time>2026-04-11T07:48:21Z</time></trkpt><trkpt lat="43.11012962378559" lon="11.491882682974607"><ele>158.0</ele><time>2026-04-11T07:48:22Z</time></trkpt><trkpt lat="43.1100579683073" lon="11.492106096900592"><ele>158.0</ele><time>2026-04-11T07:48:23Z</time></trkpt><trkpt lat="43.110014536202804" lon="11.49236792666922"><ele>158.0</ele><time>2026-04-11T07:48:24Z</time></trkpt><trkpt lat="43.11000291341669" lon="11.492648568534461"><ele>158.0</ele><time>2026-04-11T07:48:25Z</time></trkpt><trkpt lat="43.1100052807971" lon="11.492946882679448"><ele>158.0</ele><time>2026-04-11T07:48:26Z</time></trkpt><trkpt lat="43.109997122277186" lon="11.49325459852391"><ele>157.33333333333331</ele><time>2026-04-11T07:48:27Z</time></trkpt><trkpt lat="43.10997572069962" lon="11.493561481353673"><ele>156.66666666666666</ele><time>2026-04-11T07:48:28Z</time></trkpt><trkpt lat="43.109960445732035" lon="11.493859065778862"><ele>156.0</ele><time>2026-04-11T07:48:29Z</time></trkpt><trkpt lat="43.1099276574582" lon="11.494161151902528"><ele>151.5</ele><time>2026-04-11T07:48:30Z</time></trkpt><trkpt lat="43.10985810107708" lon="11.494476775927211"><ele>147.0</ele><time>2026-04-11T07:48:31Z</time></trkpt><trkpt lat="43.10974649076578" lon="11.49478629732661"><ele>147.0</ele><time>2026-04-11T07:48:32Z</time></trkpt><trkpt lat="43.109625611830936" lon="11.49507692209145"><ele>147.0</ele><time>2026-04-11T07:48:33Z</time></trkpt><trkpt lat="43.10951241482101" lon="11.49537215026484"><ele>150.0</ele><time>2026-04-11T07:48:34Z</time></trkpt><trkpt lat="43.109382710915774" lon="11.495654331310869"><ele>153.0</ele><time>2026-04-11T07:48:35Z</time></trkpt><trkpt lat="43.10925947451464" lon="11.4959268332452"><ele>153.0</ele><time>2026-04-11T07:48:36Z</time></trkpt><trkpt lat="43.109144977212175" lon="11.496188426791903"><ele>153.0</ele><time>2026-04-11T07:48:37Z</time></trkpt><trkpt lat="43.109028120972766" lon="11.496448849321226"><ele>153.0</ele><time>2026-04-11T07:48:38Z</time></trkpt><trkpt lat="43.10891148758758" lon="11.496711941860092"><ele>151.66666666666666</ele><time>2026-04-11T07:48:39Z</time></trkpt><trkpt lat="43.108803106180666" lon="11.49697128781374"><ele>150.33333333333331</ele><time>2026-04-11T07:48:40Z</time></trkpt><trkpt lat="43.10869544209533" lon="11.4972118953875"><ele>149.0</ele><time>2026-04-11T07:48:41Z</time></trkpt><trkpt lat="43.10857801085943" lon="11.497430453678726"><ele>149.0</ele><time>2026-04-11T07:48:42Z</time></trkpt><trkpt lat="43.108433556830605" lon="11.497617438182651"><ele>149.0</ele><time>2026-04-11T07:48:43Z</time></trkpt><trkpt lat="43.108251966477745" lon="11.49775066175638"><ele>149.0</ele><time>2026-04-11T07:48:44Z</time></trkpt><trkpt lat="43.10805078443608" lon="11.497845873190943"><ele>148.66666666666666</ele><time>2026-04-11T07:48:45Z</time></trkpt><trkpt lat="43.107838976262926" lon="11.497921138307001"><ele>148.33333333333334</ele><time>2026-04-11T07:48:46Z</time></trkpt><trkpt lat="43.10762572633409" lon="11.497983836880731"><ele>148.0</ele><time>2026-04-11T07:48:47Z</time></trkpt><trkpt lat="43.10741573276065" lon="11.498047358497082"><ele>149.33333333333334</ele><time>2026-04-11T07:48:48Z</time></trkpt><trkpt lat="43.107201960029236" lon="11.498119746710918"><ele>150.66666666666666</ele><time>2026-04-11T07:48:49Z</time></trkpt><trkpt lat="43.10698708936589" lon="11.498190656008704"><ele>152.0</ele><time>2026-04-11T07:48:50Z</time></trkpt><trkpt lat="43.10678578919462" lon="11.498257418838946"><ele>152.0</ele><time>2026-04-11T07:48:51Z</time></trkpt><trkpt lat="43.10659627553814" lon="11.498333546651207"><ele>152.0</ele><time>2026-04-11T07:48:52Z</time></trkpt><trkpt lat="43.106427336351494" lon="11.498448171346505"><ele>152.0</ele><time>2026-04-11T07:48:53Z</time></trkpt><trkpt lat="43.10628488247178" lon="11.498620213379029"><ele>155.66666666666666</ele><time>2026-04-11T07:48:54Z</time></trkpt><trkpt lat="43.10617111766405" lon="11.498822789755275"><ele>159.33333333333334</ele><time>2026-04-11T07:48:55Z</time></trkpt><trkpt lat="43.10608509488578" lon="11.499062981440613"><ele>163.0</ele><time>2026-04-11T07:48:56Z</time></trkpt><trkpt lat="43.10604839443112" lon="11.499331753027196"><ele>162.0</ele><time>2026-04-11T07:48:57Z</time></trkpt><trkpt lat="43.10603032878957" lon="11.49962653897556"><ele>161.0</ele><time>2026-04-11T07:48:58Z</time></trkpt><trkpt lat="43.106020610700405" lon="11.49993135944623"><ele>160.0</ele><time>2026-04-11T07:48:59Z</time></trkpt><trkpt lat="43.1060027143745" lon="11.500244976128982"><ele>159.5</ele><time>2026-04-11T07:49:00Z</time></trkpt><trkpt lat="43.10597913406075" lon="11.50055627542205"><ele>159.0</ele><time>2026-04-11T07:49:01Z</time></trkpt><trkpt lat="43.105961231298544" lon="11.500872639612338"><ele>159.0</ele><time>2026-04-11T07:49:02Z</time></trkpt><trkpt lat="43.10595249370902" lon="11.501191607904612"><ele>159.0</ele><time>2026-04-11T07:49:03Z</time></trkpt><trkpt lat="43.105943203353675" lon="11.5015147098945"><ele>157.5</ele><time>2026-04-11T07:49:04Z</time></trkpt><trkpt lat="43.10593080469972" lon="11.501840371154023"><ele>156.0</ele><time>2026-04-11T07:49:05Z</time></trkpt><trkpt lat="43.105910705510766" lon="11.502165436072472"><ele>154.5</ele><time>2026-04-11T07:49:06Z</time></trkpt><trkpt lat="43.10589501103491" lon="11.502499281881683"><ele>153.0</ele><time>2026-04-11T07:49:07Z</time></trkpt><trkpt lat="43.10586995372231" lon="11.502831452812801"><ele>152.5</ele><time>2026-04-11T07:49:08Z</time></trkpt><trkpt lat="43.105853452743204" lon="11.503168349794288"><ele>152.0</ele><time>2026-04-11T07:49:09Z</time></trkpt><trkpt lat="43.10584008995705" lon="11.503507616394876"><ele>153.5</ele><time>2026-04-11T07:49:10Z</time></trkpt><trkpt lat="43.10582303829926" lon="11.503840795070316"><ele>155.0</ele><time>2026-04-11T07:49:10.999Z</time></trkpt><trkpt lat="43.10580097511277" lon="11.504160250471143"><ele>155.0</ele><time>2026-04-11T07:49:11.999Z</time></trkpt><trkpt lat="43.10578603963379" lon="11.504483536158723"><ele>155.0</ele><time>2026-04-11T07:49:12.999Z</time></trkpt><trkpt lat="43.10577244393294" lon="11.50480192727304"><ele>155.5</ele><time>2026-04-11T07:49:13.999Z</time></trkpt><trkpt lat="43.10575553871137" lon="11.505116857862179"><ele>156.0</ele><time>2026-04-11T07:49:14.999Z</time></trkpt><trkpt lat="43.10573135796669" lon="11.505422774188572"><ele>163.0</ele><time>2026-04-11T07:49:15.999Z</time></trkpt><trkpt lat="43.10568485371455" lon="11.505718925254067"><ele>170.0</ele><time>2026-04-11T07:49:16.999Z</time></trkpt><trkpt lat="43.105610374239355" lon="11.506016002463411"><ele>169.0</ele><time>2026-04-11T07:49:17.999Z</time></trkpt><trkpt lat="43.105520799573085" lon="11.506311738015437"><ele>168.0</ele><time>2026-04-11T07:49:18.999Z</time></trkpt><trkpt lat="43.10542949296275" lon="11.50661111770527"><ele>168.0</ele><time>2026-04-11T07:49:19.999Z</time></trkpt><trkpt lat="43.10533879086233" lon="11.506911307362632"><ele>168.0</ele><time>2026-04-11T07:49:20.999Z</time></trkpt><trkpt lat="43.105257488184755" lon="11.507206693425326"><ele>165.5</ele><time>2026-04-11T07:49:21.999Z</time></trkpt><trkpt lat="43.105174769648016" lon="11.50749887112939"><ele>163.0</ele><time>2026-04-11T07:49:22.999Z</time></trkpt><trkpt lat="43.10509021034093" lon="11.507791360239976"><ele>160.0</ele><time>2026-04-11T07:49:23.999Z</time></trkpt><trkpt lat="43.105005070355205" lon="11.508083870391335"><ele>157.0</ele><time>2026-04-11T07:49:24.999Z</time></trkpt><trkpt lat="43.10491788925259" lon="11.508382097236273"><ele>165.0</ele><time>2026-04-11T07:49:25.999Z</time></trkpt><trkpt lat="43.104835555129235" lon="11.508684728850886"><ele>173.0</ele><time>2026-04-11T07:49:26.999Z</time></trkpt><trkpt lat="43.10474968542971" lon="11.50898640247074"><ele>173.0</ele><time>2026-04-11T07:49:28Z</time></trkpt><trkpt lat="43.10466267480328" lon="11.509290956796367"><ele>173.0</ele><time>2026-04-11T07:49:29Z</time></trkpt><trkpt lat="43.104588352837915" lon="11.509597719769909"><ele>171.5</ele><time>2026-04-11T07:49:30Z</time></trkpt><trkpt lat="43.10452930830805" lon="11.50991318294587"><ele>170.0</ele><time>2026-04-11T07:49:31Z</time></trkpt><trkpt lat="43.10448305507179" lon="11.510236489399547"><ele>167.0</ele><time>2026-04-11T07:49:32Z</time></trkpt><trkpt lat="43.10444115163811" lon="11.510559547562915"><ele>164.0</ele><time>2026-04-11T07:49:33Z</time></trkpt><trkpt lat="43.104376472433934" lon="11.51087229483426"><ele>164.0</ele><time>2026-04-11T07:49:34Z</time></trkpt><trkpt lat="43.104295915127516" lon="11.511190775585145"><ele>164.0</ele><time>2026-04-11T07:49:35Z</time></trkpt><trkpt lat="43.10421298577415" lon="11.511510984625966"><ele>164.0</ele><time>2026-04-11T07:49:36Z</time></trkpt><trkpt lat="43.104126135612844" lon="11.511826465901562"><ele>164.0</ele><time>2026-04-11T07:49:37Z</time></trkpt><trkpt lat="43.10404485166252" lon="11.512123685098974"><ele>164.0</ele><time>2026-04-11T07:49:38Z</time></trkpt><trkpt lat="43.103965513032186" lon="11.512416752515307"><ele>164.0</ele><time>2026-04-11T07:49:39Z</time></trkpt><trkpt lat="43.103871833828734" lon="11.512703320727908"><ele>161.66666666666666</ele><time>2026-04-11T07:49:40Z</time></trkpt><trkpt lat="43.10377659919314" lon="11.512976571120069"><ele>159.33333333333334</ele><time>2026-04-11T07:49:41Z</time></trkpt><trkpt lat="43.1037040979625" lon="11.513267527924675"><ele>157.0</ele><time>2026-04-11T07:49:42Z</time></trkpt><trkpt lat="43.10365487285228" lon="11.513578960269562"><ele>157.0</ele><time>2026-04-11T07:49:43Z</time></trkpt><trkpt lat="43.10357427700779" lon="11.513881539492006"><ele>157.0</ele><time>2026-04-11T07:49:44Z</time></trkpt><trkpt lat="43.103459023882436" lon="11.514166374788136"><ele>157.0</ele><time>2026-04-11T07:49:45Z</time></trkpt><trkpt lat="43.10334393718532" lon="11.514446762432872"><ele>157.0</ele><time>2026-04-11T07:49:46Z</time></trkpt><trkpt lat="43.10325726884684" lon="11.51474087083502"><ele>164.0</ele><time>2026-04-11T07:49:47Z</time></trkpt><trkpt lat="43.103199492638346" lon="11.515046586564905"><ele>171.0</ele><time>2026-04-11T07:49:48Z</time></trkpt><trkpt lat="43.10316589210127" lon="11.51535679522908"><ele>172.0</ele><time>2026-04-11T07:49:49Z</time></trkpt><trkpt lat="43.10313573499588" lon="11.515645661568918"><ele>173.0</ele><time>2026-04-11T07:49:50Z</time></trkpt><trkpt lat="43.10310945841092" lon="11.515919339608987"><ele>174.0</ele><time>2026-04-11T07:49:51Z</time></trkpt><trkpt lat="43.10307875494224" lon="11.51619800779801"><ele>172.66666666666666</ele><time>2026-04-11T07:49:52Z</time></trkpt><trkpt lat="43.10304119119709" lon="11.51645770098316"><ele>171.33333333333331</ele><time>2026-04-11T07:49:53Z</time></trkpt><trkpt lat="43.10300397011506" lon="11.516688021602628"><ele>170.0</ele><time>2026-04-11T07:49:54Z</time></trkpt><trkpt lat="43.10295968645528" lon="11.51688835300546"><ele>168.75</ele><time>2026-04-11T07:49:55Z</time></trkpt><trkpt lat="43.102904304011346" lon="11.5170697253684"><ele>167.5</ele><time>2026-04-11T07:49:56Z</time></trkpt><trkpt lat="43.102833635975735" lon="11.517230114202459"><ele>166.25</ele><time>2026-04-11T07:49:57Z</time></trkpt><trkpt lat="43.10275491853612" lon="11.517384036618516"><ele>165.0</ele><time>2026-04-11T07:49:58Z</time></trkpt><trkpt lat="43.10267000037329" lon="11.517528646501722"><ele>165.0</ele><time>2026-04-11T07:49:59Z</time></trkpt><trkpt lat="43.102570229996985" lon="11.517674215775532"><ele>165.0</ele><time>2026-04-11T07:50:00Z</time></trkpt><trkpt lat="43.10245578307067" lon="11.517844688754234"><ele>165.0</ele><time>2026-04-11T07:50:01Z</time></trkpt><trkpt lat="43.102326411530754" lon="11.518059729694523"><ele>165.66666666666666</ele><time>2026-04-11T07:50:02Z</time></trkpt><trkpt lat="43.10221481732899" lon="11.518294706920504"><ele>166.33333333333331</ele><time>2026-04-11T07:50:03Z</time></trkpt><trkpt lat="43.10212694105407" lon="11.518516792675594"><ele>167.0</ele><time>2026-04-11T07:50:04Z</time></trkpt><trkpt lat="43.102013597441676" lon="11.518703533130571"><ele>166.0</ele><time>2026-04-11T07:50:05Z</time></trkpt><trkpt lat="43.10186826566602" lon="11.51885532454263"><ele>165.0</ele><time>2026-04-11T07:50:06Z</time></trkpt><trkpt lat="43.10171994258184" lon="11.5189591096437"><ele>164.0</ele><time>2026-04-11T07:50:07Z</time></trkpt><trkpt lat="43.101605059394174" lon="11.519051869031157"><ele>166.66666666666666</ele><time>2026-04-11T07:50:08Z</time></trkpt><trkpt lat="43.10153026066669" lon="11.519208225685796"><ele>169.33333333333334</ele><time>2026-04-11T07:50:09Z</time></trkpt><trkpt lat="43.10144200731521" lon="11.51943778516487"><ele>172.0</ele><time>2026-04-11T07:50:10Z</time></trkpt><trkpt lat="43.1013482528397" lon="11.519699857238615"><ele>172.0</ele><time>2026-04-11T07:50:11Z</time></trkpt><trkpt lat="43.10123719071689" lon="11.519980360498332"><ele>172.0</ele><time>2026-04-11T07:50:12Z</time></trkpt><trkpt lat="43.101118432829686" lon="11.520223335872467"><ele>172.0</ele><time>2026-04-11T07:50:13Z</time></trkpt><trkpt lat="43.10102427816427" lon="11.520434842148603"><ele>169.0</ele><time>2026-04-11T07:50:14Z</time></trkpt><trkpt lat="43.100940847556465" lon="11.520645255483782"><ele>166.0</ele><time>2026-04-11T07:50:15Z</time></trkpt><trkpt lat="43.100821246054785" lon="11.520878858458426"><ele>163.0</ele><time>2026-04-11T07:50:16Z</time></trkpt><trkpt lat="43.10064453062013" lon="11.52108308830385"><ele>161.0</ele><time>2026-04-11T07:50:17Z</time></trkpt><trkpt lat="43.10046002417647" lon="11.521317379497113"><ele>159.0</ele><time>2026-04-11T07:50:18Z</time></trkpt><trkpt lat="43.100286837365566" lon="11.521556504953846"><ele>159.0</ele><time>2026-04-11T07:50:19Z</time></trkpt><trkpt lat="43.100132721981225" lon="11.52173898876499"><ele>159.0</ele><time>2026-04-11T07:50:20Z</time></trkpt><trkpt lat="43.1000160973551" lon="11.521903748510432"><ele>159.0</ele><time>2026-04-11T07:50:21Z</time></trkpt><trkpt lat="43.09988959310502" lon="11.522062834746867"><ele>162.5</ele><time>2026-04-11T07:50:22Z</time></trkpt><trkpt lat="43.099696153223" lon="11.522204422150352"><ele>166.0</ele><time>2026-04-11T07:50:23Z</time></trkpt><trkpt lat="43.099489278125546" lon="11.522356978459916"><ele>166.0</ele><time>2026-04-11T07:50:24Z</time></trkpt><trkpt lat="43.099287385543185" lon="11.522526432384181"><ele>166.0</ele><time>2026-04-11T07:50:25Z</time></trkpt><trkpt lat="43.09910084263301" lon="11.522769507814052"><ele>168.5</ele><time>2026-04-11T07:50:26Z</time></trkpt><trkpt lat="43.098893234441114" lon="11.523010989294148"><ele>171.0</ele><time>2026-04-11T07:50:27Z</time></trkpt><trkpt lat="43.09868316772049" lon="11.52326979121315"><ele>171.0</ele><time>2026-04-11T07:50:28Z</time></trkpt><trkpt lat="43.09849432226356" lon="11.523502448560203"><ele>171.0</ele><time>2026-04-11T07:50:29Z</time></trkpt><trkpt lat="43.09833753100571" lon="11.523713927181012"><ele>171.0</ele><time>2026-04-11T07:50:30Z</time></trkpt><trkpt lat="43.09817511676442" lon="11.523897838800778"><ele>171.0</ele><time>2026-04-11T07:50:31Z</time></trkpt><trkpt lat="43.09802349186796" lon="11.524067852940163"><ele>171.0</ele><time>2026-04-11T07:50:32Z</time></trkpt><trkpt lat="43.09787718343148" lon="11.524227358628485"><ele>171.0</ele><time>2026-04-11T07:50:33Z</time></trkpt><trkpt lat="43.09775183704403" lon="11.524362149658048"><ele>171.0</ele><time>2026-04-11T07:50:34Z</time></trkpt><trkpt lat="43.097626213956815" lon="11.52449718810396"><ele>171.0</ele><time>2026-04-11T07:50:35Z</time></trkpt><trkpt lat="43.0975094750537" lon="11.524620794160061"><ele>169.25</ele><time>2026-04-11T07:50:36Z</time></trkpt><trkpt lat="43.097403930059784" lon="11.524731645520617"><ele>167.5</ele><time>2026-04-11T07:50:37Z</time></trkpt><trkpt lat="43.09730053122625" lon="11.524843437503309"><ele>165.75</ele><time>2026-04-11T07:50:38Z</time></trkpt><trkpt lat="43.09720262222928" lon="11.52494562187711"><ele>164.0</ele><time>2026-04-11T07:50:39Z</time></trkpt><trkpt lat="43.09710232484427" lon="11.525041837361767"><ele>164.0</ele><time>2026-04-11T07:50:40Z</time></trkpt><trkpt lat="43.09701209765754" lon="11.525138933287511"><ele>164.0</ele><time>2026-04-11T07:50:41Z</time></trkpt><trkpt lat="43.0969291834942" lon="11.525254139006817"><ele>164.0</ele><time>2026-04-11T07:50:42Z</time></trkpt><trkpt lat="43.09682515565631" lon="11.525367246410157"><ele>164.0</ele><time>2026-04-11T07:50:43Z</time></trkpt><trkpt lat="43.09671604449791" lon="11.525487272676834"><ele>163.75</ele><time>2026-04-11T07:50:44Z</time></trkpt><trkpt lat="43.09660831677709" lon="11.525604346726563"><ele>163.5</ele><time>2026-04-11T07:50:45Z</time></trkpt><trkpt lat="43.09649687863334" lon="11.525728655287395"><ele>163.25</ele><time>2026-04-11T07:50:46Z</time></trkpt><trkpt lat="43.09638041880863" lon="11.525852265497212"><ele>163.0</ele><time>2026-04-11T07:50:47Z</time></trkpt><trkpt lat="43.096267192862435" lon="11.52598075051372"><ele>163.66666666666669</ele><time>2026-04-11T07:50:48Z</time></trkpt><trkpt lat="43.096141831255686" lon="11.526117794866526"><ele>164.33333333333334</ele><time>2026-04-11T07:50:49Z</time></trkpt><trkpt lat="43.09600957131956" lon="11.526261515007413"><ele>165.0</ele><time>2026-04-11T07:50:50Z</time></trkpt><trkpt lat="43.09587145137798" lon="11.526416052999963"><ele>170.66666666666666</ele><time>2026-04-11T07:50:51Z</time></trkpt><trkpt lat="43.09573207454099" lon="11.526577008684129"><ele>176.33333333333331</ele><time>2026-04-11T07:50:52Z</time></trkpt><trkpt lat="43.09559620749175" lon="11.52676052147614"><ele>182.0</ele><time>2026-04-11T07:50:53Z</time></trkpt><trkpt lat="43.0954364342678" lon="11.52695265941211"><ele>174.5</ele><time>2026-04-11T07:50:54Z</time></trkpt><trkpt lat="43.095292265557646" lon="11.527193650530007"><ele>167.0</ele><time>2026-04-11T07:50:55Z</time></trkpt><trkpt lat="43.09513052800829" lon="11.527425812758661"><ele>167.0</ele><time>2026-04-11T07:50:56Z</time></trkpt><trkpt lat="43.094977633341855" lon="11.527673867346769"><ele>167.0</ele><time>2026-04-11T07:50:57Z</time></trkpt><trkpt lat="43.094836900046445" lon="11.52793213707976"><ele>168.0</ele><time>2026-04-11T07:50:58Z</time></trkpt><trkpt lat="43.094702933929995" lon="11.528203537756706"><ele>169.0</ele><time>2026-04-11T07:50:59Z</time></trkpt><trkpt lat="43.09457260545253" lon="11.52848270413718"><ele>166.5</ele><time>2026-04-11T07:51:00Z</time></trkpt><trkpt lat="43.09444494635786" lon="11.52877213329103"><ele>164.0</ele><time>2026-04-11T07:51:01Z</time></trkpt><trkpt lat="43.094317559365784" lon="11.52908706831983"><ele>164.0</ele><time>2026-04-11T07:51:02Z</time></trkpt><trkpt lat="43.09417128493587" lon="11.52939547865965"><ele>164.0</ele><time>2026-04-11T07:51:03Z</time></trkpt><trkpt lat="43.094055361539645" lon="11.529730037054607"><ele>164.5</ele><time>2026-04-11T07:51:04Z</time></trkpt><trkpt lat="43.09395361343131" lon="11.530050182399211"><ele>165.0</ele><time>2026-04-11T07:51:05Z</time></trkpt><trkpt lat="43.09386859601362" lon="11.530358763637606"><ele>165.0</ele><time>2026-04-11T07:51:05.999Z</time></trkpt><trkpt lat="43.093787838194" lon="11.530676193409535"><ele>165.0</ele><time>2026-04-11T07:51:06.999Z</time></trkpt><trkpt lat="43.0937326635014" lon="11.530991264275109"><ele>167.0</ele><time>2026-04-11T07:51:07.999Z</time></trkpt><trkpt lat="43.09366912095545" lon="11.531300775020393"><ele>169.0</ele><time>2026-04-11T07:51:08.999Z</time></trkpt><trkpt lat="43.09361512065498" lon="11.531608596245169"><ele>169.0</ele><time>2026-04-11T07:51:09.999Z</time></trkpt><trkpt lat="43.09356809376419" lon="11.531916467367928"><ele>169.0</ele><time>2026-04-11T07:51:10.999Z</time></trkpt><trkpt lat="43.093532980952105" lon="11.532224746588318"><ele>170.66666666666669</ele><time>2026-04-11T07:51:11.999Z</time></trkpt><trkpt lat="43.093502548519474" lon="11.532529534590148"><ele>172.33333333333334</ele><time>2026-04-11T07:51:12.999Z</time></trkpt><trkpt lat="43.09345442713652" lon="11.532827376091719"><ele>174.0</ele><time>2026-04-11T07:51:13.999Z</time></trkpt><trkpt lat="43.09342383985229" lon="11.5331245915619"><ele>175.66666666666666</ele><time>2026-04-11T07:51:14.999Z</time></trkpt><trkpt lat="43.09340963201271" lon="11.533422658619006"><ele>177.33333333333331</ele><time>2026-04-11T07:51:15.999Z</time></trkpt><trkpt lat="43.09337795208632" lon="11.533711422253514"><ele>179.0</ele><time>2026-04-11T07:51:16.999Z</time></trkpt><trkpt lat="43.09335221366749" lon="11.53400150681905"><ele>181.0</ele><time>2026-04-11T07:51:17.999Z</time></trkpt><trkpt lat="43.093326314528476" lon="11.534289887820046"><ele>183.0</ele><time>2026-04-11T07:51:18.999Z</time></trkpt><trkpt lat="43.09328368727085" lon="11.534575512912877"><ele>185.0</ele><time>2026-04-11T07:51:19.999Z</time></trkpt><trkpt lat="43.09325437446232" lon="11.534878646225838"><ele>185.0</ele><time>2026-04-11T07:51:20.999Z</time></trkpt><trkpt lat="43.09323411051675" lon="11.535184912083698"><ele>185.0</ele><time>2026-04-11T07:51:21.999Z</time></trkpt><trkpt lat="43.09318984582934" lon="11.535485449251125"><ele>185.0</ele><time>2026-04-11T07:51:22.999Z</time></trkpt><trkpt lat="43.09313314404311" lon="11.535772515907441"><ele>186.33333333333331</ele><time>2026-04-11T07:51:23.999Z</time></trkpt><trkpt lat="43.09306702844755" lon="11.53604814777914"><ele>187.66666666666666</ele><time>2026-04-11T07:51:24.999Z</time></trkpt><trkpt lat="43.092999754198026" lon="11.536328856599942"><ele>189.0</ele><time>2026-04-11T07:51:25.999Z</time></trkpt><trkpt lat="43.09292120082766" lon="11.53660591572982"><ele>190.33333333333331</ele><time>2026-04-11T07:51:26.999Z</time></trkpt><trkpt lat="43.09283231179366" lon="11.53687558131442"><ele>191.66666666666666</ele><time>2026-04-11T07:51:27.999Z</time></trkpt><trkpt lat="43.09273252442626" lon="11.537138297025221"><ele>193.0</ele><time>2026-04-11T07:51:28.999Z</time></trkpt><trkpt lat="43.092622857826186" lon="11.53739763393959"><ele>195.66666666666666</ele><time>2026-04-11T07:51:29.999Z</time></trkpt><trkpt lat="43.09250569799894" lon="11.537652344053257"><ele>198.33333333333331</ele><time>2026-04-11T07:51:30.999Z</time></trkpt><trkpt lat="43.09238303951193" lon="11.537904254229742"><ele>201.0</ele><time>2026-04-11T07:51:31.999Z</time></trkpt><trkpt lat="43.092254462539486" lon="11.538149465326828"><ele>203.33333333333331</ele><time>2026-04-11T07:51:32.999Z</time></trkpt><trkpt lat="43.09211714096069" lon="11.538384235365552"><ele>205.66666666666666</ele><time>2026-04-11T07:51:34Z</time></trkpt><trkpt lat="43.091967823665605" lon="11.538589026685493"><ele>208.0</ele><time>2026-04-11T07:51:35Z</time></trkpt><trkpt lat="43.091809782419745" lon="11.53879896576999"><ele>211.5</ele><time>2026-04-11T07:51:36Z</time></trkpt><trkpt lat="43.091640918285684" lon="11.539008481380504"><ele>215.0</ele><time>2026-04-11T07:51:37Z</time></trkpt><trkpt lat="43.0914679350921" lon="11.539202025689354"><ele>215.0</ele><time>2026-04-11T07:51:38Z</time></trkpt><trkpt lat="43.091291515931644" lon="11.539388316499842"><ele>215.0</ele><time>2026-04-11T07:51:39Z</time></trkpt><trkpt lat="43.09111258736952" lon="11.53956329868144"><ele>215.0</ele><time>2026-04-11T07:51:40Z</time></trkpt><trkpt lat="43.09093025799021" lon="11.539735896789752"><ele>217.66666666666669</ele><time>2026-04-11T07:51:41Z</time></trkpt><trkpt lat="43.090741184921754" lon="11.539896349048163"><ele>220.33333333333331</ele><time>2026-04-11T07:51:42Z</time></trkpt><trkpt lat="43.09053872511531" lon="11.540014961541981"><ele>223.0</ele><time>2026-04-11T07:51:43Z</time></trkpt><trkpt lat="43.09033973228729" lon="11.540142789856521"><ele>223.0</ele><time>2026-04-11T07:51:44Z</time></trkpt><trkpt lat="43.09013974262597" lon="11.540271482560241"><ele>223.0</ele><time>2026-04-11T07:51:45Z</time></trkpt><trkpt lat="43.0899297454384" lon="11.540373634028962"><ele>223.0</ele><time>2026-04-11T07:51:46Z</time></trkpt><trkpt lat="43.089724905648865" lon="11.540480868186583"><ele>226.66666666666666</ele><time>2026-04-11T07:51:47Z</time></trkpt><trkpt lat="43.08951943010924" lon="11.540589805830972"><ele>230.33333333333331</ele><time>2026-04-11T07:51:48Z</time></trkpt><trkpt lat="43.089312139691614" lon="11.54069882853727"><ele>234.0</ele><time>2026-04-11T07:51:49Z</time></trkpt><trkpt lat="43.089105825616734" lon="11.540809585179787"><ele>231.66666666666669</ele><time>2026-04-11T07:51:50Z</time></trkpt><trkpt lat="43.08889891383572" lon="11.540917165907594"><ele>229.33333333333334</ele><time>2026-04-11T07:51:51Z</time></trkpt><trkpt lat="43.088691114090146" lon="11.541023603103424"><ele>227.0</ele><time>2026-04-11T07:51:52Z</time></trkpt><trkpt lat="43.08848282391108" lon="11.541129376743612"><ele>231.33333333333334</ele><time>2026-04-11T07:51:53Z</time></trkpt><trkpt lat="43.08827444007742" lon="11.541229492490526"><ele>235.66666666666669</ele><time>2026-04-11T07:51:54Z</time></trkpt><trkpt lat="43.088068671622956" lon="11.541336666129153"><ele>240.0</ele><time>2026-04-11T07:51:55Z</time></trkpt><trkpt lat="43.0878620035034" lon="11.541448409186337"><ele>240.0</ele><time>2026-04-11T07:51:56Z</time></trkpt><trkpt lat="43.087655582857586" lon="11.541553536950483"><ele>240.0</ele><time>2026-04-11T07:51:57Z</time></trkpt><trkpt lat="43.087447819604975" lon="11.541661494149903"><ele>240.0</ele><time>2026-04-11T07:51:58Z</time></trkpt><trkpt lat="43.08723981124962" lon="11.541766848500126"><ele>240.33333333333331</ele><time>2026-04-11T07:51:59Z</time></trkpt><trkpt lat="43.08703472308377" lon="11.541875587902151"><ele>240.66666666666666</ele><time>2026-04-11T07:52:00Z</time></trkpt><trkpt lat="43.086830573017245" lon="11.54199550826069"><ele>241.0</ele><time>2026-04-11T07:52:01Z</time></trkpt><trkpt lat="43.08663632727602" lon="11.542134557570352"><ele>246.0</ele><time>2026-04-11T07:52:02Z</time></trkpt><trkpt lat="43.08643152158391" lon="11.542245069870754"><ele>251.0</ele><time>2026-04-11T07:52:03Z</time></trkpt><trkpt lat="43.08623141386225" lon="11.542367849521737"><ele>256.0</ele><time>2026-04-11T07:52:04Z</time></trkpt><trkpt lat="43.08609612070398" lon="11.542643830198982"><ele>256.0</ele><time>2026-04-11T07:52:05Z</time></trkpt><trkpt lat="43.085951938589815" lon="11.542812689511978"><ele>256.0</ele><time>2026-04-11T07:52:06Z</time></trkpt><trkpt lat="43.08581221388686" lon="11.54298898681168"><ele>256.0</ele><time>2026-04-11T07:52:07Z</time></trkpt><trkpt lat="43.085654264484546" lon="11.543184996678324"><ele>260.3333333333333</ele><time>2026-04-11T07:52:08Z</time></trkpt><trkpt lat="43.08549945017008" lon="11.543384622638891"><ele>264.6666666666667</ele><time>2026-04-11T07:52:09Z</time></trkpt><trkpt lat="43.085339547324764" lon="11.543593438960775"><ele>269.0</ele><time>2026-04-11T07:52:10.02Z</time></trkpt><trkpt lat="43.08518159729382" lon="11.54379989036805"><ele>269.33333333333337</ele><time>2026-04-11T07:52:11.02Z</time></trkpt><trkpt lat="43.08502970159663" lon="11.544000107686156"><ele>269.6666666666667</ele><time>2026-04-11T07:52:12.018Z</time></trkpt><trkpt lat="43.084878495270424" lon="11.544213732765401"><ele>270.0</ele><time>2026-04-11T07:52:13.02Z</time></trkpt><trkpt lat="43.084729466443555" lon="11.544428799630898"><ele>267.5</ele><time>2026-04-11T07:52:14.017Z</time></trkpt><trkpt lat="43.08457214048345" lon="11.54464482107811"><ele>265.0</ele><time>2026-04-11T07:52:15.021Z</time></trkpt><trkpt lat="43.084471674650935" lon="11.544972739407724"><ele>265.0</ele><time>2026-04-11T07:52:16Z</time></trkpt><trkpt lat="43.084444967453756" lon="11.545207827541116"><ele>265.0</ele><time>2026-04-11T07:52:17Z</time></trkpt><trkpt lat="43.084338639515124" lon="11.545408430781151"><ele>265.0</ele><time>2026-04-11T07:52:18Z</time></trkpt><trkpt lat="43.08416950276349" lon="11.545633282383275"><ele>266.5</ele><time>2026-04-11T07:52:19Z</time></trkpt><trkpt lat="43.08400261077481" lon="11.545847845355706"><ele>268.0</ele><time>2026-04-11T07:52:20Z</time></trkpt><trkpt lat="43.08382073043272" lon="11.546048282157633"><ele>265.0</ele><time>2026-04-11T07:52:21Z</time></trkpt><trkpt lat="43.08362797245594" lon="11.546237926320494"><ele>262.0</ele><time>2026-04-11T07:52:22Z</time></trkpt><trkpt lat="43.08342061971214" lon="11.546414137202794"><ele>264.0</ele><time>2026-04-11T07:52:23Z</time></trkpt><trkpt lat="43.083211482357804" lon="11.546577016256766"><ele>266.0</ele><time>2026-04-11T07:52:24Z</time></trkpt><trkpt lat="43.08300465088658" lon="11.546715605922559"><ele>266.0</ele><time>2026-04-11T07:52:25Z</time></trkpt><trkpt lat="43.08279642275161" lon="11.54684631156922"><ele>266.0</ele><time>2026-04-11T07:52:26Z</time></trkpt><trkpt lat="43.082587263251256" lon="11.546952997163045"><ele>261.0</ele><time>2026-04-11T07:52:27Z</time></trkpt><trkpt lat="43.08237516489404" lon="11.54704487674002"><ele>256.0</ele><time>2026-04-11T07:52:28Z</time></trkpt><trkpt lat="43.08216214577116" lon="11.54711483640963"><ele>251.0</ele><time>2026-04-11T07:52:29Z</time></trkpt><trkpt lat="43.08194668708449" lon="11.547167912841347"><ele>251.0</ele><time>2026-04-11T07:52:30Z</time></trkpt><trkpt lat="43.08173175122246" lon="11.547216698962641"><ele>251.0</ele><time>2026-04-11T07:52:31Z</time></trkpt><trkpt lat="43.08151672692932" lon="11.547251270053794"><ele>251.0</ele><time>2026-04-11T07:52:32Z</time></trkpt><trkpt lat="43.08130104230211" lon="11.54726161613718"><ele>250.33333333333334</ele><time>2026-04-11T07:52:33Z</time></trkpt><trkpt lat="43.08108570124467" lon="11.547253307153158"><ele>249.66666666666669</ele><time>2026-04-11T07:52:34Z</time></trkpt><trkpt lat="43.080871544459484" lon="11.547235165596646"><ele>249.0</ele><time>2026-04-11T07:52:35Z</time></trkpt><trkpt lat="43.08065955570732" lon="11.547202507427814"><ele>249.0</ele><time>2026-04-11T07:52:36Z</time></trkpt><trkpt lat="43.08044661525807" lon="11.547160394990652"><ele>249.0</ele><time>2026-04-11T07:52:37Z</time></trkpt><trkpt lat="43.080236241877714" lon="11.547104336319919"><ele>249.0</ele><time>2026-04-11T07:52:38Z</time></trkpt><trkpt lat="43.0800298885641" lon="11.547034551809343"><ele>247.33333333333331</ele><time>2026-04-11T07:52:39Z</time></trkpt><trkpt lat="43.079824458612315" lon="11.546956280874964"><ele>245.66666666666666</ele><time>2026-04-11T07:52:40Z</time></trkpt><trkpt lat="43.079621793461065" lon="11.546878989053779"><ele>244.0</ele><time>2026-04-11T07:52:41Z</time></trkpt><trkpt lat="43.07941789852425" lon="11.54680316822287"><ele>244.0</ele><time>2026-04-11T07:52:42Z</time></trkpt><trkpt lat="43.07921449712715" lon="11.546731160777991"><ele>244.0</ele><time>2026-04-11T07:52:43Z</time></trkpt><trkpt lat="43.0790108016285" lon="11.546669996320913"><ele>244.0</ele><time>2026-04-11T07:52:44Z</time></trkpt><trkpt lat="43.078804959445435" lon="11.546610884263751"><ele>243.66666666666666</ele><time>2026-04-11T07:52:45Z</time></trkpt><trkpt lat="43.078597604324806" lon="11.546570288782991"><ele>243.33333333333331</ele><time>2026-04-11T07:52:46Z</time></trkpt><trkpt lat="43.07838648979762" lon="11.546542954862149"><ele>243.0</ele><time>2026-04-11T07:52:47Z</time></trkpt><trkpt lat="43.07817504105732" lon="11.546528866545865"><ele>243.0</ele><time>2026-04-11T07:52:48Z</time></trkpt><trkpt lat="43.077964058695365" lon="11.546525495295011"><ele>243.0</ele><time>2026-04-11T07:52:49Z</time></trkpt><trkpt lat="43.077753689522844" lon="11.546529367468748"><ele>243.0</ele><time>2026-04-11T07:52:50Z</time></trkpt><trkpt lat="43.07754609606716" lon="11.54654680633511"><ele>244.0</ele><time>2026-04-11T07:52:51Z</time></trkpt><trkpt lat="43.077337218386084" lon="11.546583349306001"><ele>245.0</ele><time>2026-04-11T07:52:52Z</time></trkpt><trkpt lat="43.077130505962764" lon="11.54662746073356"><ele>246.0</ele><time>2026-04-11T07:52:53Z</time></trkpt><trkpt lat="43.076929586468374" lon="11.546672616982953"><ele>246.0</ele><time>2026-04-11T07:52:54Z</time></trkpt><trkpt lat="43.07672734514077" lon="11.546715092121934"><ele>246.0</ele><time>2026-04-11T07:52:55Z</time></trkpt><trkpt lat="43.0765269080905" lon="11.546759730474047"><ele>246.0</ele><time>2026-04-11T07:52:56Z</time></trkpt><trkpt lat="43.07632770181649" lon="11.54680760555581"><ele>247.33333333333331</ele><time>2026-04-11T07:52:57Z</time></trkpt><trkpt lat="43.07613277135549" lon="11.546858517665816"><ele>248.66666666666666</ele><time>2026-04-11T07:52:58Z</time></trkpt><trkpt lat="43.075940766318716" lon="11.546906754134612"><ele>250.0</ele><time>2026-04-11T07:52:58.999Z</time></trkpt><trkpt lat="43.07575460483757" lon="11.54695453741679"><ele>249.0</ele><time>2026-04-11T07:52:59.999Z</time></trkpt><trkpt lat="43.0755692408467" lon="11.546997605176616"><ele>248.0</ele><time>2026-04-11T07:53:00.999Z</time></trkpt><trkpt lat="43.07538637227268" lon="11.547038698089056"><ele>247.0</ele><time>2026-04-11T07:53:01.999Z</time></trkpt><trkpt lat="43.07520802187248" lon="11.54708477301379"><ele>247.0</ele><time>2026-04-11T07:53:02.999Z</time></trkpt><trkpt lat="43.07502987567474" lon="11.547125945708878"><ele>247.0</ele><time>2026-04-11T07:53:03.999Z</time></trkpt><trkpt lat="43.074854010424545" lon="11.547169976440722"><ele>247.0</ele><time>2026-04-11T07:53:04.999Z</time></trkpt><trkpt lat="43.074678153507676" lon="11.547213355681293"><ele>247.66666666666666</ele><time>2026-04-11T07:53:05.999Z</time></trkpt><trkpt lat="43.07450533768467" lon="11.547258389463945"><ele>248.33333333333331</ele><time>2026-04-11T07:53:06.999Z</time></trkpt><trkpt lat="43.07433083010111" lon="11.547300610546392"><ele>249.0</ele><time>2026-04-11T07:53:07.999Z</time></trkpt><trkpt lat="43.074153677991404" lon="11.54734161259291"><ele>248.66666666666669</ele><time>2026-04-11T07:53:08.999Z</time></trkpt><trkpt lat="43.07398379144588" lon="11.54738429133852"><ele>248.33333333333334</ele><time>2026-04-11T07:53:09.999Z</time></trkpt><trkpt lat="43.073811222759176" lon="11.547428189303538"><ele>248.0</ele><time>2026-04-11T07:53:10.999Z</time></trkpt><trkpt lat="43.073633224701496" lon="11.547463047035949"><ele>248.0</ele><time>2026-04-11T07:53:11.999Z</time></trkpt><trkpt lat="43.07345725797996" lon="11.54748843953477"><ele>248.0</ele><time>2026-04-11T07:53:12.999Z</time></trkpt><trkpt lat="43.07327795122131" lon="11.547497588911748"><ele>248.0</ele><time>2026-04-11T07:53:13.999Z</time></trkpt><trkpt lat="43.07309320697458" lon="11.547489814068902"><ele>246.66666666666669</ele><time>2026-04-11T07:53:14.999Z</time></trkpt><trkpt lat="43.07290931487579" lon="11.547476114645661"><ele>245.33333333333331</ele><time>2026-04-11T07:53:15.999Z</time></trkpt><trkpt lat="43.07272253339766" lon="11.547453260978555"><ele>244.0</ele><time>2026-04-11T07:53:16.999Z</time></trkpt><trkpt lat="43.07252849720093" lon="11.547427045053409"><ele>243.0</ele><time>2026-04-11T07:53:17.999Z</time></trkpt><trkpt lat="43.07231954226175" lon="11.547387890395466"><ele>242.0</ele><time>2026-04-11T07:53:18.999Z</time></trkpt><trkpt lat="43.07210420793693" lon="11.547330543167815"><ele>241.0</ele><time>2026-04-11T07:53:19.999Z</time></trkpt><trkpt lat="43.071881378706834" lon="11.547265140233735"><ele>241.0</ele><time>2026-04-11T07:53:20.999Z</time></trkpt><trkpt lat="43.071658153983606" lon="11.54719550546121"><ele>241.0</ele><time>2026-04-11T07:53:21.999Z</time></trkpt><trkpt lat="43.07142635922366" lon="11.547127578150373"><ele>241.5</ele><time>2026-04-11T07:53:22.999Z</time></trkpt><trkpt lat="43.07118904517171" lon="11.547057323678104"><ele>242.0</ele><time>2026-04-11T07:53:23.999Z</time></trkpt><trkpt lat="43.07095003327331" lon="11.54698654539838"><ele>242.5</ele><time>2026-04-11T07:53:24.999Z</time></trkpt><trkpt lat="43.0707076083622" lon="11.546923720268902"><ele>243.0</ele><time>2026-04-11T07:53:25.999Z</time></trkpt><trkpt lat="43.070463080063455" lon="11.546870169612436"><ele>243.0</ele><time>2026-04-11T07:53:26.999Z</time></trkpt><trkpt lat="43.0702149275578" lon="11.546830229873274"><ele>243.0</ele><time>2026-04-11T07:53:27.999Z</time></trkpt><trkpt lat="43.06996186908453" lon="11.546803766324754"><ele>245.0</ele><time>2026-04-11T07:53:28.999Z</time></trkpt><trkpt lat="43.06970884222764" lon="11.546793430019166"><ele>247.0</ele><time>2026-04-11T07:53:29.999Z</time></trkpt><trkpt lat="43.0694531069154" lon="11.54680566138267"><ele>247.0</ele><time>2026-04-11T07:53:30.999Z</time></trkpt><trkpt lat="43.06919579891124" lon="11.546855047179486"><ele>247.0</ele><time>2026-04-11T07:53:31.999Z</time></trkpt><trkpt lat="43.0689389273287" lon="11.54691332868384"><ele>246.5</ele><time>2026-04-11T07:53:32.999Z</time></trkpt><trkpt lat="43.06868508334909" lon="11.546989276965451"><ele>246.0</ele><time>2026-04-11T07:53:33.999Z</time></trkpt><trkpt lat="43.06843746279596" lon="11.547088858480883"><ele>242.5</ele><time>2026-04-11T07:53:34.999Z</time></trkpt><trkpt lat="43.068193964259876" lon="11.547206202566832"><ele>239.0</ele><time>2026-04-11T07:53:35.999Z</time></trkpt><trkpt lat="43.06795577037025" lon="11.547341609195747"><ele>239.0</ele><time>2026-04-11T07:53:36.999Z</time></trkpt><trkpt lat="43.06773160518925" lon="11.547506331605135"><ele>239.0</ele><time>2026-04-11T07:53:37.999Z</time></trkpt><trkpt lat="43.067513578988375" lon="11.547688080542"><ele>240.0</ele><time>2026-04-11T07:53:38.999Z</time></trkpt><trkpt lat="43.0672994325405" lon="11.547882304196644"><ele>241.0</ele><time>2026-04-11T07:53:40Z</time></trkpt><trkpt lat="43.06709765995832" lon="11.548090768960577"><ele>241.0</ele><time>2026-04-11T07:53:41Z</time></trkpt><trkpt lat="43.066915475293804" lon="11.548304360376976"><ele>241.0</ele><time>2026-04-11T07:53:42Z</time></trkpt><trkpt lat="43.06675225355804" lon="11.548517456239363"><ele>240.0</ele><time>2026-04-11T07:53:43Z</time></trkpt><trkpt lat="43.066599645319826" lon="11.548732771181298"><ele>239.0</ele><time>2026-04-11T07:53:44Z</time></trkpt><trkpt lat="43.0664553996356" lon="11.548958763867478"><ele>238.0</ele><time>2026-04-11T07:53:45Z</time></trkpt><trkpt lat="43.06632472526389" lon="11.549194107813369"><ele>238.0</ele><time>2026-04-11T07:53:46Z</time></trkpt><trkpt lat="43.06620261297786" lon="11.549435738700636"><ele>238.0</ele><time>2026-04-11T07:53:47Z</time></trkpt><trkpt lat="43.066085327094996" lon="11.549689084158674"><ele>238.0</ele><time>2026-04-11T07:53:48Z</time></trkpt><trkpt lat="43.0659728017604" lon="11.549953209214504"><ele>237.5</ele><time>2026-04-11T07:53:49Z</time></trkpt><trkpt lat="43.06586933649154" lon="11.55022350914646"><ele>237.0</ele><time>2026-04-11T07:53:50Z</time></trkpt><trkpt lat="43.06577622775956" lon="11.550507919259966"><ele>234.5</ele><time>2026-04-11T07:53:51Z</time></trkpt><trkpt lat="43.065679668260074" lon="11.550797911036904"><ele>232.0</ele><time>2026-04-11T07:53:52Z</time></trkpt><trkpt lat="43.06558473677685" lon="11.551097660206157"><ele>232.5</ele><time>2026-04-11T07:53:53Z</time></trkpt><trkpt lat="43.06548910786076" lon="11.551405454455868"><ele>233.0</ele><time>2026-04-11T07:53:54Z</time></trkpt><trkpt lat="43.06539398894403" lon="11.551715983103163"><ele>233.0</ele><time>2026-04-11T07:53:55Z</time></trkpt><trkpt lat="43.0652793647434" lon="11.552034899675345"><ele>233.0</ele><time>2026-04-11T07:53:56Z</time></trkpt><trkpt lat="43.065171775309125" lon="11.552375338599624"><ele>234.0</ele><time>2026-04-11T07:53:57Z</time></trkpt><trkpt lat="43.06505864752762" lon="11.552733302234724"><ele>235.0</ele><time>2026-04-11T07:53:58Z</time></trkpt><trkpt lat="43.06494105923579" lon="11.553105379958133"><ele>235.0</ele><time>2026-04-11T07:53:59Z</time></trkpt><trkpt lat="43.06482414621602" lon="11.55347532111653"><ele>235.0</ele><time>2026-04-11T07:54:00Z</time></trkpt><trkpt lat="43.06471758869595" lon="11.553844173886532"><ele>238.0</ele><time>2026-04-11T07:54:01Z</time></trkpt><trkpt lat="43.064597736188375" lon="11.554201142207305"><ele>241.0</ele><time>2026-04-11T07:54:02Z</time></trkpt><trkpt lat="43.06448705467196" lon="11.554556307273794"><ele>245.5</ele><time>2026-04-11T07:54:03Z</time></trkpt><trkpt lat="43.06438687615011" lon="11.554909359592148"><ele>250.0</ele><time>2026-04-11T07:54:04Z</time></trkpt><trkpt lat="43.06430426745806" lon="11.555265816728886"><ele>250.0</ele><time>2026-04-11T07:54:05Z</time></trkpt><trkpt lat="43.06424307344293" lon="11.555629452588564"><ele>250.0</ele><time>2026-04-11T07:54:06Z</time></trkpt><trkpt lat="43.064195506870284" lon="11.555996753010579"><ele>248.5</ele><time>2026-04-11T07:54:07Z</time></trkpt><trkpt lat="43.06416563448277" lon="11.55636346024166"><ele>247.0</ele><time>2026-04-11T07:54:08Z</time></trkpt><trkpt lat="43.06412288419709" lon="11.556730641789853"><ele>244.5</ele><time>2026-04-11T07:54:09Z</time></trkpt><trkpt lat="43.064096099130815" lon="11.557091809144492"><ele>242.0</ele><time>2026-04-11T07:54:10Z</time></trkpt><trkpt lat="43.06407349149106" lon="11.557396649306224"><ele>242.0</ele><time>2026-04-11T07:54:11Z</time></trkpt><trkpt lat="43.064063122278924" lon="11.557691043132287"><ele>242.0</ele><time>2026-04-11T07:54:12Z</time></trkpt><trkpt lat="43.064038949100194" lon="11.557948120524223"><ele>242.0</ele><time>2026-04-11T07:54:13Z</time></trkpt><trkpt lat="43.06401948583842" lon="11.558164433669425"><ele>243.2</ele><time>2026-04-11T07:54:14Z</time></trkpt><trkpt lat="43.064003760692785" lon="11.558339730055922"><ele>244.39999999999998</ele><time>2026-04-11T07:54:15Z</time></trkpt><trkpt lat="43.063996079639274" lon="11.558474810930361"><ele>245.60000000000002</ele><time>2026-04-11T07:54:16Z</time></trkpt><trkpt lat="43.06398878914132" lon="11.558576191135405"><ele>246.8</ele><time>2026-04-11T07:54:17Z</time></trkpt><trkpt lat="43.06397983668384" lon="11.558682965264104"><ele>248.0</ele><time>2026-04-11T07:54:19Z</time></trkpt><trkpt lat="43.06397213225064" lon="11.558859612542857"><ele>248.8</ele><time>2026-04-11T07:54:21Z</time></trkpt><trkpt lat="43.06396457256102" lon="11.558984625739864"><ele>249.60000000000002</ele><time>2026-04-11T07:54:22Z</time></trkpt><trkpt lat="43.06396024179065" lon="11.55913104731275"><ele>250.39999999999998</ele><time>2026-04-11T07:54:23Z</time></trkpt><trkpt lat="43.06395540188189" lon="11.559271844689738"><ele>251.2</ele><time>2026-04-11T07:54:24Z</time></trkpt><trkpt lat="43.063950902327974" lon="11.559383564644035"><ele>252.0</ele><time>2026-04-11T07:54:25Z</time></trkpt><trkpt lat="43.063931487420355" lon="11.559493700282271"><ele>252.0</ele><time>2026-04-11T07:54:28Z</time></trkpt><trkpt lat="43.06386295631526" lon="11.559517646249205"><ele>252.0</ele><time>2026-04-11T07:54:33Z</time></trkpt><trkpt lat="43.06380068112396" lon="11.559553229184608"><ele>252.0</ele><time>2026-04-11T07:54:42Z</time></trkpt><trkpt lat="43.0637362638905" lon="11.559531065168338"><ele>252.0</ele><time>2026-04-11T07:54:44Z</time></trkpt><trkpt lat="43.06367470489427" lon="11.55956556989513"><ele>252.0</ele><time>2026-04-11T07:59:50Z</time></trkpt><trkpt lat="43.06362189667013" lon="11.559682326575711"><ele>252.0</ele><time>2026-04-11T07:59:53Z</time></trkpt><trkpt lat="43.06359600935786" lon="11.559785349289127"><ele>253.16666666666666</ele><time>2026-04-11T07:59:55Z</time></trkpt><trkpt lat="43.06355603231684" lon="11.559865599289148"><ele>254.33333333333331</ele><time>2026-04-11T07:59:57.999Z</time></trkpt><trkpt lat="43.06352947452661" lon="11.559944270226005"><ele>255.5</ele><time>2026-04-11T07:59:59.999Z</time></trkpt><trkpt lat="43.06349908729761" lon="11.560030215787545"><ele>256.66666666666663</ele><time>2026-04-11T08:00:01.999Z</time></trkpt><trkpt lat="43.06344091372356" lon="11.560077658380296"><ele>257.8333333333333</ele><time>2026-04-11T08:00:03.999Z</time></trkpt><trkpt lat="43.06340193976906" lon="11.560171020982247"><ele>259.0</ele><time>2026-04-11T08:00:05.999Z</time></trkpt><trkpt lat="43.063315316082644" lon="11.560239967476404"><ele>259.0</ele><time>2026-04-11T08:00:07.999Z</time></trkpt><trkpt lat="43.0632385819563" lon="11.560295590624664"><ele>259.0</ele><time>2026-04-11T08:00:10.999Z</time></trkpt><trkpt lat="43.063170882202975" lon="11.560325759998056"><ele>259.0</ele><time>2026-04-11T08:00:13.999Z</time></trkpt><trkpt lat="43.06310249686149" lon="11.560346668350647"><ele>259.0</ele><time>2026-04-11T08:00:17.999Z</time></trkpt><trkpt lat="43.06318243146683" lon="11.560345412643374"><ele>259.0</ele><time>2026-04-11T08:01:31.001Z</time></trkpt><trkpt lat="43.063250335186005" lon="11.560309058377218"><ele>259.0</ele><time>2026-04-11T08:01:33.001Z</time></trkpt><trkpt lat="43.06330587302238" lon="11.560264995489138"><ele>259.0</ele><time>2026-04-11T08:01:35.001Z</time></trkpt><trkpt lat="43.06336207702601" lon="11.560199194233554"><ele>259.0</ele><time>2026-04-11T08:01:38.001Z</time></trkpt><trkpt lat="43.063415403762285" lon="11.56012761736618"><ele>259.0</ele><time>2026-04-11T08:01:41.001Z</time></trkpt><trkpt lat="43.06346775204252" lon="11.560058541479213"><ele>259.0</ele><time>2026-04-11T08:01:44.001Z</time></trkpt><trkpt lat="43.06350535974202" lon="11.559981716077088"><ele>259.0</ele><time>2026-04-11T08:01:47.001Z</time></trkpt><trkpt lat="43.06354161795926" lon="11.559879181219891"><ele>259.0</ele><time>2026-04-11T08:01:50.001Z</time></trkpt><trkpt lat="43.0635732150337" lon="11.559794406993282"><ele>259.0</ele><time>2026-04-11T08:01:52.001Z</time></trkpt><trkpt lat="43.06358147262578" lon="11.559708237270591"><ele>259.0</ele><time>2026-04-11T08:01:54.001Z</time></trkpt><trkpt lat="43.06360468944645" lon="11.559620534183198"><ele>259.0</ele><time>2026-04-11T08:01:57.001Z</time></trkpt><trkpt lat="43.06362909110005" lon="11.559526237903821"><ele>259.0</ele><time>2026-04-11T08:02:01.001Z</time></trkpt><trkpt lat="43.06360483306506" lon="11.559619979186573"><ele>259.0</ele><time>2026-04-11T08:02:32.998Z</time></trkpt><trkpt lat="43.063563941328695" lon="11.559771615154247"><ele>259.0</ele><time>2026-04-11T08:02:33.998Z</time></trkpt><trkpt lat="43.06350498845973" lon="11.55994786674012"><ele>259.0</ele><time>2026-04-11T08:02:34.998Z</time></trkpt><trkpt lat="43.0634378915707" lon="11.560132261202174"><ele>259.0</ele><time>2026-04-11T08:02:35.998Z</time></trkpt><trkpt lat="43.063370957266166" lon="11.560265257226744"><ele>259.0</ele><time>2026-04-11T08:02:36.998Z</time></trkpt><trkpt lat="43.06381864442567" lon="11.561118299144267"><ele>256.0</ele><time>2026-04-11T08:02:37.998Z</time></trkpt><trkpt lat="43.06379720432032" lon="11.561480375582256"><ele>253.0</ele><time>2026-04-11T08:02:38.998Z</time></trkpt><trkpt lat="43.06378008537966" lon="11.561861818732607"><ele>249.5</ele><time>2026-04-11T08:02:39.998Z</time></trkpt><trkpt lat="43.063770064203695" lon="11.562252438137063"><ele>246.0</ele><time>2026-04-11T08:02:40.999Z</time></trkpt><trkpt lat="43.063767253475696" lon="11.562646319792751"><ele>244.5</ele><time>2026-04-11T08:02:41.999Z</time></trkpt><trkpt lat="43.063782165117594" lon="11.563034331560804"><ele>243.0</ele><time>2026-04-11T08:02:42.999Z</time></trkpt><trkpt lat="43.063802162783496" lon="11.563417408949775"><ele>243.5</ele><time>2026-04-11T08:02:43.999Z</time></trkpt><trkpt lat="43.06383992715749" lon="11.563792460771948"><ele>244.0</ele><time>2026-04-11T08:02:44.999Z</time></trkpt><trkpt lat="43.063895011548155" lon="11.564160893463047"><ele>244.0</ele><time>2026-04-11T08:02:45.999Z</time></trkpt><trkpt lat="43.063970091309166" lon="11.564522815831213"><ele>244.0</ele><time>2026-04-11T08:02:46.999Z</time></trkpt><trkpt lat="43.06406016097505" lon="11.564877005287297"><ele>247.5</ele><time>2026-04-11T08:02:47.999Z</time></trkpt><trkpt lat="43.06416058521394" lon="11.565210129592083"><ele>251.0</ele><time>2026-04-11T08:02:48.999Z</time></trkpt><trkpt lat="43.06425085518073" lon="11.56552237650798"><ele>251.0</ele><time>2026-04-11T08:02:49.999Z</time></trkpt><trkpt lat="43.064377513853216" lon="11.565796236207637"><ele>251.0</ele><time>2026-04-11T08:02:50.999Z</time></trkpt><trkpt lat="43.064497618046275" lon="11.566072394810817"><ele>249.0</ele><time>2026-04-11T08:02:51.999Z</time></trkpt><trkpt lat="43.06462977774482" lon="11.566341330866713"><ele>247.0</ele><time>2026-04-11T08:02:52.999Z</time></trkpt><trkpt lat="43.064770422691325" lon="11.566598995670951"><ele>247.0</ele><time>2026-04-11T08:02:53.999Z</time></trkpt><trkpt lat="43.06491782881749" lon="11.566849400817485"><ele>247.0</ele><time>2026-04-11T08:02:54.999Z</time></trkpt><trkpt lat="43.065073714223736" lon="11.56710092936109"><ele>246.0</ele><time>2026-04-11T08:02:55.999Z</time></trkpt><trkpt lat="43.0652357930599" lon="11.567350695115426"><ele>245.0</ele><time>2026-04-11T08:02:56.999Z</time></trkpt><trkpt lat="43.065397885998" lon="11.567593351297921"><ele>245.0</ele><time>2026-04-11T08:02:57.999Z</time></trkpt><trkpt lat="43.06556841067526" lon="11.567836543045276"><ele>245.0</ele><time>2026-04-11T08:02:58.999Z</time></trkpt><trkpt lat="43.06574512546585" lon="11.56808268328672"><ele>244.5</ele><time>2026-04-11T08:02:59.999Z</time></trkpt><trkpt lat="43.065920146045684" lon="11.568328178053813"><ele>244.0</ele><time>2026-04-11T08:03:00.999Z</time></trkpt><trkpt lat="43.06609455659468" lon="11.568577621552572"><ele>243.5</ele><time>2026-04-11T08:03:01.999Z</time></trkpt><trkpt lat="43.06626827393061" lon="11.568824074705047"><ele>243.0</ele><time>2026-04-11T08:03:02.999Z</time></trkpt><trkpt lat="43.06644147677082" lon="11.569068129025537"><ele>245.5</ele><time>2026-04-11T08:03:03.999Z</time></trkpt><trkpt lat="43.06661550244224" lon="11.569313410287453"><ele>248.0</ele><time>2026-04-11T08:03:05Z</time></trkpt><trkpt lat="43.0667856445964" lon="11.569559959331272"><ele>248.0</ele><time>2026-04-11T08:03:06Z</time></trkpt><trkpt lat="43.0669567996304" lon="11.569804231136184"><ele>248.0</ele><time>2026-04-11T08:03:07Z</time></trkpt><trkpt lat="43.06712842775882" lon="11.570049073758634"><ele>248.0</ele><time>2026-04-11T08:03:08Z</time></trkpt><trkpt lat="43.06730243730805" lon="11.570293151198454"><ele>248.0</ele><time>2026-04-11T08:03:09Z</time></trkpt><trkpt lat="43.06747484882042" lon="11.570537391570134"><ele>248.5</ele><time>2026-04-11T08:03:10Z</time></trkpt><trkpt lat="43.06764880247796" lon="11.570783363823821"><ele>249.0</ele><time>2026-04-11T08:03:11Z</time></trkpt><trkpt lat="43.067822003391754" lon="11.571029086291826"><ele>246.0</ele><time>2026-04-11T08:03:12Z</time></trkpt><trkpt lat="43.06799310446856" lon="11.571278795987213"><ele>243.0</ele><time>2026-04-11T08:03:13Z</time></trkpt><trkpt lat="43.068162024098335" lon="11.571531075674375"><ele>244.0</ele><time>2026-04-11T08:03:14Z</time></trkpt><trkpt lat="43.068329485359385" lon="11.571787358566361"><ele>245.0</ele><time>2026-04-11T08:03:15Z</time></trkpt><trkpt lat="43.068493777083454" lon="11.572048031402522"><ele>245.0</ele><time>2026-04-11T08:03:16Z</time></trkpt><trkpt lat="43.0686546142843" lon="11.572301930581341"><ele>245.0</ele><time>2026-04-11T08:03:17Z</time></trkpt><trkpt lat="43.068815422920935" lon="11.572561857641631"><ele>245.0</ele><time>2026-04-11T08:03:18Z</time></trkpt><trkpt lat="43.06897154085771" lon="11.572827177457617"><ele>245.0</ele><time>2026-04-11T08:03:19Z</time></trkpt><trkpt lat="43.06912025107832" lon="11.573094157805437"><ele>245.5</ele><time>2026-04-11T08:03:20Z</time></trkpt><trkpt lat="43.069255820598414" lon="11.573368393513688"><ele>246.0</ele><time>2026-04-11T08:03:21Z</time></trkpt><trkpt lat="43.06938827852796" lon="11.57365000180171"><ele>245.0</ele><time>2026-04-11T08:03:22Z</time></trkpt><trkpt lat="43.06951392457545" lon="11.57393714403701"><ele>244.0</ele><time>2026-04-11T08:03:23Z</time></trkpt><trkpt lat="43.06963086362915" lon="11.574231290114279"><ele>244.5</ele><time>2026-04-11T08:03:24Z</time></trkpt><trkpt lat="43.0697408337686" lon="11.574531764277037"><ele>245.0</ele><time>2026-04-11T08:03:25Z</time></trkpt><trkpt lat="43.06984298673628" lon="11.574836063517079"><ele>245.0</ele><time>2026-04-11T08:03:26Z</time></trkpt><trkpt lat="43.069935089416425" lon="11.575147511736578"><ele>245.0</ele><time>2026-04-11T08:03:27Z</time></trkpt><trkpt lat="43.070013890044685" lon="11.575464954631299"><ele>246.5</ele><time>2026-04-11T08:03:28Z</time></trkpt><trkpt lat="43.07008263002237" lon="11.575785250367723"><ele>248.0</ele><time>2026-04-11T08:03:29Z</time></trkpt><trkpt lat="43.07013687282712" lon="11.576111609430324"><ele>249.0</ele><time>2026-04-11T08:03:30Z</time></trkpt><trkpt lat="43.07017963877685" lon="11.576443378124798"><ele>250.0</ele><time>2026-04-11T08:03:31Z</time></trkpt><trkpt lat="43.07020805889205" lon="11.576778915324239"><ele>253.5</ele><time>2026-04-11T08:03:32Z</time></trkpt><trkpt lat="43.070218092328695" lon="11.577114530477907"><ele>257.0</ele><time>2026-04-11T08:03:33Z</time></trkpt><trkpt lat="43.07021225751447" lon="11.577452197636799"><ele>257.0</ele><time>2026-04-11T08:03:34Z</time></trkpt><trkpt lat="43.07019582697338" lon="11.577790603312808"><ele>257.0</ele><time>2026-04-11T08:03:35Z</time></trkpt><trkpt lat="43.07016514992056" lon="11.578125184260523"><ele>261.0</ele><time>2026-04-11T08:03:36Z</time></trkpt><trkpt lat="43.07011945241609" lon="11.57845214729706"><ele>265.0</ele><time>2026-04-11T08:03:37Z</time></trkpt><trkpt lat="43.070058162667024" lon="11.578782074536212"><ele>269.5</ele><time>2026-04-11T08:03:38Z</time></trkpt><trkpt lat="43.06998503909016" lon="11.579107022798143"><ele>274.0</ele><time>2026-04-11T08:03:39Z</time></trkpt><trkpt lat="43.06989740578958" lon="11.579427706625085"><ele>279.5</ele><time>2026-04-11T08:03:40Z</time></trkpt><trkpt lat="43.0698036894119" lon="11.579743776334904"><ele>285.0</ele><time>2026-04-11T08:03:41.001Z</time></trkpt><trkpt lat="43.06969834576408" lon="11.580049454943994"><ele>285.0</ele><time>2026-04-11T08:03:42.001Z</time></trkpt><trkpt lat="43.06957568868992" lon="11.580347305891648"><ele>285.0</ele><time>2026-04-11T08:03:43.001Z</time></trkpt><trkpt lat="43.06944380160692" lon="11.580635705772758"><ele>286.5</ele><time>2026-04-11T08:03:44.001Z</time></trkpt><trkpt lat="43.06930139578696" lon="11.580917718163823"><ele>288.0</ele><time>2026-04-11T08:03:45.001Z</time></trkpt><trkpt lat="43.0691480450009" lon="11.581184200997301"><ele>293.0</ele><time>2026-04-11T08:03:46.001Z</time></trkpt><trkpt lat="43.068979073154196" lon="11.581441681751304"><ele>298.0</ele><time>2026-04-11T08:03:47.001Z</time></trkpt><trkpt lat="43.06880561418614" lon="11.581690329274874"><ele>298.0</ele><time>2026-04-11T08:03:48.001Z</time></trkpt><trkpt lat="43.06862405266893" lon="11.581926282272413"><ele>298.0</ele><time>2026-04-11T08:03:49.001Z</time></trkpt><trkpt lat="43.06843380321535" lon="11.582150717399394"><ele>302.0</ele><time>2026-04-11T08:03:50.001Z</time></trkpt><trkpt lat="43.06823260130002" lon="11.582352534758181"><ele>306.0</ele><time>2026-04-11T08:03:51.001Z</time></trkpt><trkpt lat="43.06804827793338" lon="11.5825471861107"><ele>306.0</ele><time>2026-04-11T08:03:52.001Z</time></trkpt><trkpt lat="43.06785373512735" lon="11.582729221303728"><ele>306.0</ele><time>2026-04-11T08:03:53.001Z</time></trkpt><trkpt lat="43.06764860681319" lon="11.582896020223474"><ele>307.5</ele><time>2026-04-11T08:03:54.001Z</time></trkpt><trkpt lat="43.067446941834426" lon="11.583070833477842"><ele>309.0</ele><time>2026-04-11T08:03:55.001Z</time></trkpt><trkpt lat="43.067235845077775" lon="11.583228003355723"><ele>309.0</ele><time>2026-04-11T08:03:56.001Z</time></trkpt><trkpt lat="43.06702554931937" lon="11.583376095645988"><ele>309.0</ele><time>2026-04-11T08:03:57.001Z</time></trkpt><trkpt lat="43.06681137791657" lon="11.583514557554809"><ele>308.0</ele><time>2026-04-11T08:03:58.001Z</time></trkpt><trkpt lat="43.06659661694824" lon="11.583644609844717"><ele>307.0</ele><time>2026-04-11T08:03:59.001Z</time></trkpt><trkpt lat="43.06637783601296" lon="11.583774706927391"><ele>307.0</ele><time>2026-04-11T08:04:00.001Z</time></trkpt><trkpt lat="43.066148832995246" lon="11.5839103495316"><ele>307.0</ele><time>2026-04-11T08:04:01.001Z</time></trkpt><trkpt lat="43.06591558281443" lon="11.584047844274382"><ele>311.5</ele><time>2026-04-11T08:04:02.001Z</time></trkpt><trkpt lat="43.065679377576416" lon="11.584191003367009"><ele>316.0</ele><time>2026-04-11T08:04:03.001Z</time></trkpt><trkpt lat="43.06543828497371" lon="11.584337840655703"><ele>316.0</ele><time>2026-04-11T08:04:04.001Z</time></trkpt><trkpt lat="43.06519409508621" lon="11.584480820934829"><ele>316.0</ele><time>2026-04-11T08:04:05.001Z</time></trkpt><trkpt lat="43.06494246252402" lon="11.584620416978643"><ele>318.0</ele><time>2026-04-11T08:04:06.001Z</time></trkpt><trkpt lat="43.064687551897684" lon="11.584757065816035"><ele>320.0</ele><time>2026-04-11T08:04:07.001Z</time></trkpt><trkpt lat="43.0644320968322" lon="11.584900265925931"><ele>320.0</ele><time>2026-04-11T08:04:08.001Z</time></trkpt><trkpt lat="43.0641819601208" lon="11.585062722581846"><ele>320.0</ele><time>2026-04-11T08:04:09.001Z</time></trkpt><trkpt lat="43.06394440534324" lon="11.58524663380218"><ele>320.0</ele><time>2026-04-11T08:04:09.997Z</time></trkpt><trkpt lat="43.063718871158635" lon="11.585446228292378"><ele>320.0</ele><time>2026-04-11T08:04:10.997Z</time></trkpt><trkpt lat="43.06350393955999" lon="11.585663907141296"><ele>320.0</ele><time>2026-04-11T08:04:11.997Z</time></trkpt><trkpt lat="43.06330198341009" lon="11.585896599544848"><ele>320.0</ele><time>2026-04-11T08:04:12.997Z</time></trkpt><trkpt lat="43.06311455037957" lon="11.586149980784386"><ele>323.5</ele><time>2026-04-11T08:04:13.997Z</time></trkpt><trkpt lat="43.06294181878693" lon="11.586415890834257"><ele>327.0</ele><time>2026-04-11T08:04:14.997Z</time></trkpt><trkpt lat="43.06277816404479" lon="11.5866943694491"><ele>327.0</ele><time>2026-04-11T08:04:15.997Z</time></trkpt><trkpt lat="43.06262312752112" lon="11.586981055333993"><ele>327.0</ele><time>2026-04-11T08:04:16.997Z</time></trkpt><trkpt lat="43.06248149709727" lon="11.587285766139994"><ele>332.5</ele><time>2026-04-11T08:04:17.997Z</time></trkpt><trkpt lat="43.06235205752794" lon="11.587608316494515"><ele>338.0</ele><time>2026-04-11T08:04:18.997Z</time></trkpt><trkpt lat="43.06223316604447" lon="11.587940603128162"><ele>339.0</ele><time>2026-04-11T08:04:19.997Z</time></trkpt><trkpt lat="43.06211585272909" lon="11.588267785443465"><ele>340.0</ele><time>2026-04-11T08:04:20.998Z</time></trkpt><trkpt lat="43.06200658923754" lon="11.58860669573241"><ele>341.0</ele><time>2026-04-11T08:04:21.998Z</time></trkpt><trkpt lat="43.06189654958519" lon="11.588945254866342"><ele>342.0</ele><time>2026-04-11T08:04:22.998Z</time></trkpt><trkpt lat="43.06178080622535" lon="11.589277979932467"><ele>340.5</ele><time>2026-04-11T08:04:23.998Z</time></trkpt><trkpt lat="43.061652887025595" lon="11.589600089038319"><ele>339.0</ele><time>2026-04-11T08:04:24.998Z</time></trkpt><trkpt lat="43.06151400715396" lon="11.589911621646703"><ele>342.5</ele><time>2026-04-11T08:04:25.998Z</time></trkpt><trkpt lat="43.061369117990836" lon="11.590215023256762"><ele>346.0</ele><time>2026-04-11T08:04:26.998Z</time></trkpt><trkpt lat="43.061217777092004" lon="11.590516031334797"><ele>346.0</ele><time>2026-04-11T08:04:27.998Z</time></trkpt><trkpt lat="43.061062818305324" lon="11.590813874364182"><ele>346.0</ele><time>2026-04-11T08:04:28.998Z</time></trkpt><trkpt lat="43.06090660238366" lon="11.591112243845929"><ele>344.5</ele><time>2026-04-11T08:04:29.998Z</time></trkpt><trkpt lat="43.060752738743126" lon="11.591405780129678"><ele>343.0</ele><time>2026-04-11T08:04:30.998Z</time></trkpt><trkpt lat="43.06060141082254" lon="11.59170656409911"><ele>344.5</ele><time>2026-04-11T08:04:31.999Z</time></trkpt><trkpt lat="43.060457588194936" lon="11.59201292126366"><ele>346.0</ele><time>2026-04-11T08:04:32.999Z</time></trkpt><trkpt lat="43.060322634114826" lon="11.592328440422312"><ele>346.0</ele><time>2026-04-11T08:04:33.999Z</time></trkpt><trkpt lat="43.06020029500285" lon="11.59265150287381"><ele>346.0</ele><time>2026-04-11T08:04:34.999Z</time></trkpt><trkpt lat="43.06009452528306" lon="11.592983282928108"><ele>349.5</ele><time>2026-04-11T08:04:35.999Z</time></trkpt><trkpt lat="43.060008024308864" lon="11.593325476513218"><ele>353.0</ele><time>2026-04-11T08:04:36.999Z</time></trkpt><trkpt lat="43.05993451002333" lon="11.593672362240532"><ele>361.0</ele><time>2026-04-11T08:04:37.999Z</time></trkpt><trkpt lat="43.0598758060533" lon="11.594024881513999"><ele>369.0</ele><time>2026-04-11T08:04:38.999Z</time></trkpt><trkpt lat="43.05983303694344" lon="11.594383566033894"><ele>373.0</ele><time>2026-04-11T08:04:39.999Z</time></trkpt><trkpt lat="43.05980247065778" lon="11.594747900952832"><ele>377.0</ele><time>2026-04-11T08:04:40.999Z</time></trkpt><trkpt lat="43.05978815879829" lon="11.595115335830188"><ele>378.5</ele><time>2026-04-11T08:04:41.999Z</time></trkpt><trkpt lat="43.05978643405717" lon="11.595485512839405"><ele>380.0</ele><time>2026-04-11T08:04:42.999Z</time></trkpt><trkpt lat="43.05978889636358" lon="11.59585947067321"><ele>381.5</ele><time>2026-04-11T08:04:43.999Z</time></trkpt><trkpt lat="43.059791986110774" lon="11.596234152705035"><ele>383.0</ele><time>2026-04-11T08:04:44.999Z</time></trkpt><trkpt lat="43.05979679256619" lon="11.596611615372643"><ele>383.0</ele><time>2026-04-11T08:04:45.999Z</time></trkpt><trkpt lat="43.059807128560095" lon="11.596984887195802"><ele>383.0</ele><time>2026-04-11T08:04:46.999Z</time></trkpt><trkpt lat="43.05982614736976" lon="11.597352201250994"><ele>382.0</ele><time>2026-04-11T08:04:47.999Z</time></trkpt><trkpt lat="43.059862672357625" lon="11.597716479468657"><ele>381.0</ele><time>2026-04-11T08:04:49Z</time></trkpt><trkpt lat="43.059912049293" lon="11.598072023263928"><ele>374.0</ele><time>2026-04-11T08:04:50Z</time></trkpt><trkpt lat="43.059981770201915" lon="11.598423157446048"><ele>367.0</ele><time>2026-04-11T08:04:51Z</time></trkpt><trkpt lat="43.06006586019652" lon="11.598768313498306"><ele>367.0</ele><time>2026-04-11T08:04:52Z</time></trkpt><trkpt lat="43.0601634412579" lon="11.599100432064505"><ele>367.0</ele><time>2026-04-11T08:04:53Z</time></trkpt><trkpt lat="43.060280106745076" lon="11.599430720307703"><ele>372.0</ele><time>2026-04-11T08:04:54Z</time></trkpt><trkpt lat="43.06041231975837" lon="11.599753665231873"><ele>377.0</ele><time>2026-04-11T08:04:55Z</time></trkpt><trkpt lat="43.060532424111116" lon="11.600096112030187"><ele>380.5</ele><time>2026-04-11T08:04:56Z</time></trkpt><trkpt lat="43.06066641591075" lon="11.600432639675697"><ele>384.0</ele><time>2026-04-11T08:04:57Z</time></trkpt><trkpt lat="43.06080332352716" lon="11.600769703198383"><ele>384.0</ele><time>2026-04-11T08:04:58Z</time></trkpt><trkpt lat="43.061018424859405" lon="11.601051404241579"><ele>384.0</ele><time>2026-04-11T08:04:59Z</time></trkpt><trkpt lat="43.06116178163786" lon="11.60137193682145"><ele>388.5</ele><time>2026-04-11T08:05:00Z</time></trkpt><trkpt lat="43.06129237079223" lon="11.601689317160359"><ele>393.0</ele><time>2026-04-11T08:05:01Z</time></trkpt><trkpt lat="43.06137628360698" lon="11.602011384268268"><ele>397.0</ele><time>2026-04-11T08:05:02Z</time></trkpt><trkpt lat="43.06143964525224" lon="11.60232487676121"><ele>401.0</ele><time>2026-04-11T08:05:03Z</time></trkpt><trkpt lat="43.06148806714925" lon="11.602649997733325"><ele>404.5</ele><time>2026-04-11T08:05:04Z</time></trkpt><trkpt lat="43.0615230260164" lon="11.602993876290727"><ele>408.0</ele><time>2026-04-11T08:05:05Z</time></trkpt><trkpt lat="43.06155282390243" lon="11.603338395989107"><ele>408.5</ele><time>2026-04-11T08:05:06Z</time></trkpt><trkpt lat="43.06157058015207" lon="11.603682023622289"><ele>409.0</ele><time>2026-04-11T08:05:07Z</time></trkpt><trkpt lat="43.061564949174915" lon="11.604005348630132"><ele>409.0</ele><time>2026-04-11T08:05:08Z</time></trkpt><trkpt lat="43.06153557031249" lon="11.604301986853383"><ele>409.0</ele><time>2026-04-11T08:05:09Z</time></trkpt><trkpt lat="43.06149145748392" lon="11.604580638584117"><ele>409.0</ele><time>2026-04-11T08:05:10Z</time></trkpt><trkpt lat="43.06143773973332" lon="11.60485862794967"><ele>409.0</ele><time>2026-04-11T08:05:11Z</time></trkpt><trkpt lat="43.06135858220126" lon="11.605118604882446"><ele>409.0</ele><time>2026-04-11T08:05:12Z</time></trkpt><trkpt lat="43.061260515807334" lon="11.605369285059407"><ele>409.0</ele><time>2026-04-11T08:05:13Z</time></trkpt><trkpt lat="43.061138367325654" lon="11.60560193191232"><ele>406.0</ele><time>2026-04-11T08:05:14Z</time></trkpt><trkpt lat="43.06099689108185" lon="11.605829193729594"><ele>403.0</ele><time>2026-04-11T08:05:15.001Z</time></trkpt><trkpt lat="43.06084053782743" lon="11.606066279630399"><ele>400.5</ele><time>2026-04-11T08:05:16.001Z</time></trkpt><trkpt lat="43.060690881221596" lon="11.606311915590519"><ele>398.0</ele><time>2026-04-11T08:05:17.001Z</time></trkpt><trkpt lat="43.06053404822341" lon="11.606553793242158"><ele>398.0</ele><time>2026-04-11T08:05:18.001Z</time></trkpt><trkpt lat="43.06041198667886" lon="11.606777416353726"><ele>398.0</ele><time>2026-04-11T08:05:19.001Z</time></trkpt><trkpt lat="43.060277486648985" lon="11.606992120862254"><ele>398.0</ele><time>2026-04-11T08:05:20.001Z</time></trkpt><trkpt lat="43.060143188949205" lon="11.607199254408771"><ele>398.0</ele><time>2026-04-11T08:05:21.001Z</time></trkpt><trkpt lat="43.0600299627045" lon="11.60740002645875"><ele>398.0</ele><time>2026-04-11T08:05:22.001Z</time></trkpt><trkpt lat="43.059927293248954" lon="11.60758708215676"><ele>398.0</ele><time>2026-04-11T08:05:23.001Z</time></trkpt><trkpt lat="43.05981917799251" lon="11.607769345354091"><ele>397.75</ele><time>2026-04-11T08:05:24.001Z</time></trkpt><trkpt lat="43.059716002642766" lon="11.60792409817545"><ele>397.5</ele><time>2026-04-11T08:05:25.001Z</time></trkpt><trkpt lat="43.059631130868894" lon="11.608050203494033"><ele>397.25</ele><time>2026-04-11T08:05:26.001Z</time></trkpt><trkpt lat="43.05953860609164" lon="11.608185360872392"><ele>397.0</ele><time>2026-04-11T08:05:27.001Z</time></trkpt><trkpt lat="43.059444379842255" lon="11.608339920205953"><ele>397.0</ele><time>2026-04-11T08:05:28.001Z</time></trkpt><trkpt lat="43.0593439412001" lon="11.608508585461148"><ele>397.0</ele><time>2026-04-11T08:05:29.001Z</time></trkpt><trkpt lat="43.05923769446546" lon="11.608684100338467"><ele>397.0</ele><time>2026-04-11T08:05:30.001Z</time></trkpt><trkpt lat="43.059124491452444" lon="11.608864213328797"><ele>397.33333333333337</ele><time>2026-04-11T08:05:31.001Z</time></trkpt><trkpt lat="43.059010977251155" lon="11.609042936750793"><ele>397.66666666666663</ele><time>2026-04-11T08:05:32.001Z</time></trkpt><trkpt lat="43.058893538212516" lon="11.609226587077274"><ele>398.0</ele><time>2026-04-11T08:05:33.001Z</time></trkpt><trkpt lat="43.05877345233271" lon="11.609415692742662"><ele>394.3333333333333</ele><time>2026-04-11T08:05:34.001Z</time></trkpt><trkpt lat="43.058650836020746" lon="11.609610237692968"><ele>390.66666666666663</ele><time>2026-04-11T08:05:35.001Z</time></trkpt><trkpt lat="43.05852955514139" lon="11.609813789963214"><ele>387.0</ele><time>2026-04-11T08:05:36.001Z</time></trkpt><trkpt lat="43.058406801155975" lon="11.610022402914709"><ele>387.66666666666663</ele><time>2026-04-11T08:05:37.001Z</time></trkpt><trkpt lat="43.058278579433264" lon="11.61022889967868"><ele>388.3333333333333</ele><time>2026-04-11T08:05:38.001Z</time></trkpt><trkpt lat="43.058150399732185" lon="11.610430506520036"><ele>389.0</ele><time>2026-04-11T08:05:39.001Z</time></trkpt><trkpt lat="43.05802022997775" lon="11.610616797396444"><ele>385.3333333333333</ele><time>2026-04-11T08:05:40.001Z</time></trkpt><trkpt lat="43.05787822817467" lon="11.61077619626999"><ele>381.66666666666663</ele><time>2026-04-11T08:05:41.001Z</time></trkpt><trkpt lat="43.05771563255726" lon="11.610902654525047"><ele>378.0</ele><time>2026-04-11T08:05:42.001Z</time></trkpt><trkpt lat="43.05754038940736" lon="11.610982199203391"><ele>376.6666666666667</ele><time>2026-04-11T08:05:43.001Z</time></trkpt><trkpt lat="43.05735646103801" lon="11.611027738515277"><ele>375.33333333333337</ele><time>2026-04-11T08:05:44.001Z</time></trkpt><trkpt lat="43.05716186053667" lon="11.611031996459333"><ele>374.0</ele><time>2026-04-11T08:05:45.001Z</time></trkpt><trkpt lat="43.056975210077354" lon="11.610971768653393"><ele>374.0</ele><time>2026-04-11T08:05:46.001Z</time></trkpt><trkpt lat="43.05679896292528" lon="11.610853832279012"><ele>374.0</ele><time>2026-04-11T08:05:47.002Z</time></trkpt><trkpt lat="43.0566233699212" lon="11.610707116760057"><ele>374.0</ele><time>2026-04-11T08:05:48.002Z</time></trkpt><trkpt lat="43.056438508366504" lon="11.61057555430784"><ele>373.33333333333337</ele><time>2026-04-11T08:05:49.002Z</time></trkpt><trkpt lat="43.05625925651502" lon="11.610422802205559"><ele>372.6666666666667</ele><time>2026-04-11T08:05:50.002Z</time></trkpt><trkpt lat="43.05608077622369" lon="11.610272862125539"><ele>372.0</ele><time>2026-04-11T08:05:51.002Z</time></trkpt><trkpt lat="43.055906170198014" lon="11.6101232528191"><ele>370.6666666666667</ele><time>2026-04-11T08:05:52.002Z</time></trkpt><trkpt lat="43.05573182743591" lon="11.609972291970568"><ele>369.33333333333337</ele><time>2026-04-11T08:05:53.002Z</time></trkpt><trkpt lat="43.0555567999529" lon="11.609821825898715"><ele>368.0</ele><time>2026-04-11T08:05:54.002Z</time></trkpt><trkpt lat="43.055377450481835" lon="11.609665990898996"><ele>368.0</ele><time>2026-04-11T08:05:55.002Z</time></trkpt><trkpt lat="43.05519835888869" lon="11.609513143935853"><ele>368.0</ele><time>2026-04-11T08:05:56.002Z</time></trkpt><trkpt lat="43.05501624680704" lon="11.609361040883087"><ele>368.0</ele><time>2026-04-11T08:05:57.002Z</time></trkpt><trkpt lat="43.05483371221544" lon="11.609205784596984"><ele>366.33333333333337</ele><time>2026-04-11T08:05:58.002Z</time></trkpt><trkpt lat="43.0546483705609" lon="11.609052136465918"><ele>364.6666666666667</ele><time>2026-04-11T08:05:59.002Z</time></trkpt><trkpt lat="43.05446490307402" lon="11.60889389860577"><ele>363.0</ele><time>2026-04-11T08:06:00.002Z</time></trkpt><trkpt lat="43.05428244585637" lon="11.608735098391481"><ele>363.3333333333333</ele><time>2026-04-11T08:06:01.002Z</time></trkpt><trkpt lat="43.054114669084896" lon="11.608587538639666"><ele>363.66666666666663</ele><time>2026-04-11T08:06:02.002Z</time></trkpt><trkpt lat="43.05396716038027" lon="11.608470901076231"><ele>364.0</ele><time>2026-04-11T08:06:03.002Z</time></trkpt><trkpt lat="43.053832153776476" lon="11.608376064011864"><ele>364.0</ele><time>2026-04-11T08:06:04.002Z</time></trkpt><trkpt lat="43.053705861467236" lon="11.608310386077507"><ele>364.0</ele><time>2026-04-11T08:06:05.002Z</time></trkpt><trkpt lat="43.053572528170655" lon="11.60827812861014"><ele>364.0</ele><time>2026-04-11T08:06:06.002Z</time></trkpt><trkpt lat="43.053424145486545" lon="11.60827424804703"><ele>364.0</ele><time>2026-04-11T08:06:07.002Z</time></trkpt><trkpt lat="43.05326435262478" lon="11.60830263779848"><ele>362.0</ele><time>2026-04-11T08:06:08.002Z</time></trkpt><trkpt lat="43.05309641021372" lon="11.608374543786004"><ele>360.0</ele><time>2026-04-11T08:06:09.002Z</time></trkpt><trkpt lat="43.05292810372035" lon="11.608467065280067"><ele>358.0</ele><time>2026-04-11T08:06:10.002Z</time></trkpt><trkpt lat="43.05276182558869" lon="11.608574372524393"><ele>357.0</ele><time>2026-04-11T08:06:11.002Z</time></trkpt><trkpt lat="43.05258578120393" lon="11.608688360241942"><ele>356.0</ele><time>2026-04-11T08:06:12.002Z</time></trkpt><trkpt lat="43.05241025483468" lon="11.608792377743509"><ele>355.0</ele><time>2026-04-11T08:06:13.002Z</time></trkpt><trkpt lat="43.052223898568215" lon="11.608898102045126"><ele>355.0</ele><time>2026-04-11T08:06:14.002Z</time></trkpt><trkpt lat="43.052033241955854" lon="11.609005841582782"><ele>355.0</ele><time>2026-04-11T08:06:15.002Z</time></trkpt><trkpt lat="43.051838302143544" lon="11.609116174674163"><ele>355.0</ele><time>2026-04-11T08:06:16.001Z</time></trkpt><trkpt lat="43.05163863351201" lon="11.609227367853665"><ele>357.0</ele><time>2026-04-11T08:06:17.001Z</time></trkpt><trkpt lat="43.05144094613973" lon="11.609347236417019"><ele>359.0</ele><time>2026-04-11T08:06:18.001Z</time></trkpt><trkpt lat="43.05124351648516" lon="11.609472109927419"><ele>361.0</ele><time>2026-04-11T08:06:19.001Z</time></trkpt><trkpt lat="43.05105065100133" lon="11.609601179121967"><ele>358.0</ele><time>2026-04-11T08:06:20.001Z</time></trkpt><trkpt lat="43.05087812263748" lon="11.609750904282503"><ele>355.0</ele><time>2026-04-11T08:06:21.001Z</time></trkpt><trkpt lat="43.050717490044036" lon="11.609920891012758"><ele>352.0</ele><time>2026-04-11T08:06:22.001Z</time></trkpt><trkpt lat="43.05055803780953" lon="11.6100971881686"><ele>352.0</ele><time>2026-04-11T08:06:23.001Z</time></trkpt><trkpt lat="43.05039995318647" lon="11.610241289182106"><ele>352.0</ele><time>2026-04-11T08:06:24.001Z</time></trkpt><trkpt lat="43.05024599533959" lon="11.610370721175473"><ele>352.0</ele><time>2026-04-11T08:06:25.001Z</time></trkpt><trkpt lat="43.05009580934576" lon="11.61050080272772"><ele>349.3333333333333</ele><time>2026-04-11T08:06:26.001Z</time></trkpt><trkpt lat="43.04995151153268" lon="11.610612899695726"><ele>346.6666666666667</ele><time>2026-04-11T08:06:27.001Z</time></trkpt><trkpt lat="43.04981203476284" lon="11.610708418195731"><ele>344.0</ele><time>2026-04-11T08:06:28.001Z</time></trkpt><trkpt lat="43.049666833987345" lon="11.610757123559363"><ele>344.0</ele><time>2026-04-11T08:06:29.001Z</time></trkpt><trkpt lat="43.04951952466936" lon="11.610787532548146"><ele>344.0</ele><time>2026-04-11T08:06:30.001Z</time></trkpt><trkpt lat="43.049366363757485" lon="11.610805328933505"><ele>344.0</ele><time>2026-04-11T08:06:31.001Z</time></trkpt><trkpt lat="43.049204844147404" lon="11.610839430803084"><ele>345.0</ele><time>2026-04-11T08:06:32.001Z</time></trkpt><trkpt lat="43.049040499959126" lon="11.610889703352388"><ele>346.0</ele><time>2026-04-11T08:06:33.001Z</time></trkpt><trkpt lat="43.04888357536743" lon="11.610938135446213"><ele>347.0</ele><time>2026-04-11T08:06:34.001Z</time></trkpt><trkpt lat="43.04875138516921" lon="11.610997731747814"><ele>347.0</ele><time>2026-04-11T08:06:35.001Z</time></trkpt><trkpt lat="43.04862421438886" lon="11.611085637612904"><ele>347.0</ele><time>2026-04-11T08:06:36.001Z</time></trkpt><trkpt lat="43.04850894119379" lon="11.611191224217029"><ele>347.0</ele><time>2026-04-11T08:06:37.001Z</time></trkpt><trkpt lat="43.048405930999124" lon="11.61131730014057"><ele>347.0</ele><time>2026-04-11T08:06:38.001Z</time></trkpt><trkpt lat="43.048318401085204" lon="11.611462039228234"><ele>347.25</ele><time>2026-04-11T08:06:39.001Z</time></trkpt><trkpt lat="43.04824011402379" lon="11.611633450272386"><ele>347.5</ele><time>2026-04-11T08:06:40.001Z</time></trkpt><trkpt lat="43.048178699198466" lon="11.611814271793268"><ele>347.75</ele><time>2026-04-11T08:06:41.001Z</time></trkpt><trkpt lat="43.04812405367976" lon="11.612011586556086"><ele>348.0</ele><time>2026-04-11T08:06:42.001Z</time></trkpt><trkpt lat="43.048101202813385" lon="11.612220756294478"><ele>344.3333333333333</ele><time>2026-04-11T08:06:43.001Z</time></trkpt><trkpt lat="43.048096014031245" lon="11.612437134658684"><ele>340.66666666666663</ele><time>2026-04-11T08:06:44.001Z</time></trkpt><trkpt lat="43.04811576137861" lon="11.612650786305506"><ele>337.0</ele><time>2026-04-11T08:06:45.001Z</time></trkpt><trkpt lat="43.048150098284225" lon="11.612887864711047"><ele>334.5</ele><time>2026-04-11T08:06:46.001Z</time></trkpt><trkpt lat="43.048224178117714" lon="11.613170597511719"><ele>332.0</ele><time>2026-04-11T08:06:47.001Z</time></trkpt><trkpt lat="43.048321137616" lon="11.613480965200445"><ele>327.5</ele><time>2026-04-11T08:06:48.001Z</time></trkpt><trkpt lat="43.0484327190137" lon="11.613800072688456"><ele>323.0</ele><time>2026-04-11T08:06:49.001Z</time></trkpt><trkpt lat="43.048542056517434" lon="11.614143964201435"><ele>321.5</ele><time>2026-04-11T08:06:50.001Z</time></trkpt><trkpt lat="43.04865938679234" lon="11.614499335479485"><ele>320.0</ele><time>2026-04-11T08:06:51.001Z</time></trkpt><trkpt lat="43.04877106335926" lon="11.614854200858922"><ele>320.0</ele><time>2026-04-11T08:06:52.001Z</time></trkpt><trkpt lat="43.04888048316413" lon="11.615181961993464"><ele>320.0</ele><time>2026-04-11T08:06:53.001Z</time></trkpt><trkpt lat="43.04896844810026" lon="11.61551630454642"><ele>319.5</ele><time>2026-04-11T08:06:54.001Z</time></trkpt><trkpt lat="43.04906852284634" lon="11.615825361798022"><ele>319.0</ele><time>2026-04-11T08:06:55.001Z</time></trkpt><trkpt lat="43.04911095903962" lon="11.616141383599112"><ele>315.5</ele><time>2026-04-11T08:06:56.001Z</time></trkpt><trkpt lat="43.04914726090559" lon="11.616462412670503"><ele>312.0</ele><time>2026-04-11T08:06:57.001Z</time></trkpt><trkpt lat="43.04917988530172" lon="11.61681883428106"><ele>311.0</ele><time>2026-04-11T08:06:58.001Z</time></trkpt><trkpt lat="43.049213915493006" lon="11.617192716474843"><ele>310.0</ele><time>2026-04-11T08:06:59.001Z</time></trkpt><trkpt lat="43.049249487141104" lon="11.617584582670588"><ele>308.0</ele><time>2026-04-11T08:07:00.001Z</time></trkpt><trkpt lat="43.049284760880056" lon="11.61798099763607"><ele>306.0</ele><time>2026-04-11T08:07:01.001Z</time></trkpt><trkpt lat="43.04933092712872" lon="11.618380739046469"><ele>304.5</ele><time>2026-04-11T08:07:02.001Z</time></trkpt><trkpt lat="43.049371955519206" lon="11.618789671052726"><ele>303.0</ele><time>2026-04-11T08:07:03.001Z</time></trkpt><trkpt lat="43.049396795517346" lon="11.619228246011948"><ele>302.0</ele><time>2026-04-11T08:07:04.001Z</time></trkpt><trkpt lat="43.04943647617053" lon="11.61966669331383"><ele>301.0</ele><time>2026-04-11T08:07:05.001Z</time></trkpt><trkpt lat="43.04947412869412" lon="11.620083191828884"><ele>301.0</ele><time>2026-04-11T08:07:06.001Z</time></trkpt><trkpt lat="43.049513834779624" lon="11.620481390398163"><ele>301.0</ele><time>2026-04-11T08:07:07.001Z</time></trkpt><trkpt lat="43.04953372644552" lon="11.620848381986187"><ele>299.5</ele><time>2026-04-11T08:07:08.001Z</time></trkpt><trkpt lat="43.04953391060211" lon="11.621209253707528"><ele>298.0</ele><time>2026-04-11T08:07:09.001Z</time></trkpt><trkpt lat="43.049513695588324" lon="11.621555719825217"><ele>298.0</ele><time>2026-04-11T08:07:10.001Z</time></trkpt><trkpt lat="43.049478037292644" lon="11.621889075427545"><ele>298.0</ele><time>2026-04-11T08:07:11.001Z</time></trkpt><trkpt lat="43.049423481739126" lon="11.62220820795512"><ele>296.66666666666663</ele><time>2026-04-11T08:07:12.001Z</time></trkpt><trkpt lat="43.04935522891255" lon="11.622516991249467"><ele>295.3333333333333</ele><time>2026-04-11T08:07:13.001Z</time></trkpt><trkpt lat="43.04928802342308" lon="11.622791488049094"><ele>294.0</ele><time>2026-04-11T08:07:14.001Z</time></trkpt><trkpt lat="43.04920931466746" lon="11.62306220874506"><ele>293.6666666666667</ele><time>2026-04-11T08:07:15.001Z</time></trkpt><trkpt lat="43.049110159235795" lon="11.623324911923776"><ele>293.33333333333337</ele><time>2026-04-11T08:07:16.001Z</time></trkpt><trkpt lat="43.04900555323705" lon="11.623567873838777"><ele>293.0</ele><time>2026-04-11T08:07:17.001Z</time></trkpt><trkpt lat="43.04889371378545" lon="11.623819961704903"><ele>293.0</ele><time>2026-04-11T08:07:18.001Z</time></trkpt><trkpt lat="43.048763074720235" lon="11.624089465794713"><ele>293.0</ele><time>2026-04-11T08:07:19.001Z</time></trkpt><trkpt lat="43.04861585522298" lon="11.624363852341899"><ele>290.6666666666667</ele><time>2026-04-11T08:07:20.001Z</time></trkpt><trkpt lat="43.0484767320698" lon="11.624633157583867"><ele>288.3333333333333</ele><time>2026-04-11T08:07:21.001Z</time></trkpt><trkpt lat="43.04836427109356" lon="11.624864805660284"><ele>286.0</ele><time>2026-04-11T08:07:22.001Z</time></trkpt><trkpt lat="43.048243449860315" lon="11.625083376380722"><ele>285.3333333333333</ele><time>2026-04-11T08:07:23.001Z</time></trkpt><trkpt lat="43.04812123376745" lon="11.625265625616667"><ele>284.6666666666667</ele><time>2026-04-11T08:07:24.001Z</time></trkpt><trkpt lat="43.04797800875476" lon="11.625405343733723"><ele>284.0</ele><time>2026-04-11T08:07:25.001Z</time></trkpt><trkpt lat="43.047800948787376" lon="11.625483391051313"><ele>281.5</ele><time>2026-04-11T08:07:26.001Z</time></trkpt><trkpt lat="43.04758661229473" lon="11.62550389213944"><ele>279.0</ele><time>2026-04-11T08:07:27.001Z</time></trkpt><trkpt lat="43.04734840034078" lon="11.625490271609033"><ele>278.0</ele><time>2026-04-11T08:07:28.001Z</time></trkpt><trkpt lat="43.047088755462546" lon="11.625468747241655"><ele>277.0</ele><time>2026-04-11T08:07:29.001Z</time></trkpt><trkpt lat="43.04681854446496" lon="11.625454620607247"><ele>276.0</ele><time>2026-04-11T08:07:30.001Z</time></trkpt><trkpt lat="43.04656812789944" lon="11.625421328687237"><ele>275.0</ele><time>2026-04-11T08:07:31.001Z</time></trkpt><trkpt lat="43.046332964841326" lon="11.625333646843513"><ele>277.0</ele><time>2026-04-11T08:07:32.001Z</time></trkpt><trkpt lat="43.046094433813884" lon="11.625205048571178"><ele>279.0</ele><time>2026-04-11T08:07:33.001Z</time></trkpt><trkpt lat="43.04587127011548" lon="11.625091907853971"><ele>278.5</ele><time>2026-04-11T08:07:34.001Z</time></trkpt><trkpt lat="43.04563404294327" lon="11.62501486453181"><ele>278.0</ele><time>2026-04-11T08:07:35.001Z</time></trkpt><trkpt lat="43.04536775087525" lon="11.624986355204193"><ele>278.0</ele><time>2026-04-11T08:07:36.001Z</time></trkpt><trkpt lat="43.04508655271106" lon="11.624990591505446"><ele>278.0</ele><time>2026-04-11T08:07:37.001Z</time></trkpt><trkpt lat="43.04479805025392" lon="11.625011481568244"><ele>278.5</ele><time>2026-04-11T08:07:38.001Z</time></trkpt><trkpt lat="43.044513549066046" lon="11.625036772493166"><ele>279.0</ele><time>2026-04-11T08:07:39.001Z</time></trkpt><trkpt lat="43.04425819995597" lon="11.625097594985508"><ele>279.0</ele><time>2026-04-11T08:07:40.001Z</time></trkpt><trkpt lat="43.04400542788292" lon="11.625208045681307"><ele>279.0</ele><time>2026-04-11T08:07:41.001Z</time></trkpt><trkpt lat="43.043752609718744" lon="11.625346947092973"><ele>276.5</ele><time>2026-04-11T08:07:42.002Z</time></trkpt><trkpt lat="43.04349006547179" lon="11.625492616090106"><ele>274.0</ele><time>2026-04-11T08:07:43.002Z</time></trkpt><trkpt lat="43.043208887742736" lon="11.625645503043428"><ele>274.0</ele><time>2026-04-11T08:07:44.002Z</time></trkpt><trkpt lat="43.04292464178598" lon="11.625795022742459"><ele>274.0</ele><time>2026-04-11T08:07:45.002Z</time></trkpt><trkpt lat="43.04264676090869" lon="11.625940758328982"><ele>275.0</ele><time>2026-04-11T08:07:46.002Z</time></trkpt><trkpt lat="43.04238525067554" lon="11.626076851453753"><ele>276.0</ele><time>2026-04-11T08:07:47.002Z</time></trkpt><trkpt lat="43.04214057710944" lon="11.626204288833403"><ele>273.0</ele><time>2026-04-11T08:07:48.002Z</time></trkpt><trkpt lat="43.04190522011041" lon="11.626323663594393"><ele>270.0</ele><time>2026-04-11T08:07:49.002Z</time></trkpt><trkpt lat="43.04166849308691" lon="11.62643810107622"><ele>271.5</ele><time>2026-04-11T08:07:50.002Z</time></trkpt><trkpt lat="43.0414165276134" lon="11.626540330505414"><ele>273.0</ele><time>2026-04-11T08:07:51.002Z</time></trkpt><trkpt lat="43.04114766389781" lon="11.626621260213586"><ele>273.0</ele><time>2026-04-11T08:07:52.002Z</time></trkpt><trkpt lat="43.04087218780806" lon="11.626675713328863"><ele>273.0</ele><time>2026-04-11T08:07:53.002Z</time></trkpt><trkpt lat="43.040619889542874" lon="11.626740973340404"><ele>272.0</ele><time>2026-04-11T08:07:54.002Z</time></trkpt><trkpt lat="43.04038278718361" lon="11.626822609942511"><ele>271.0</ele><time>2026-04-11T08:07:55.002Z</time></trkpt><trkpt lat="43.04012431854648" lon="11.62685165377369"><ele>272.0</ele><time>2026-04-11T08:07:56.002Z</time></trkpt><trkpt lat="43.03985224963416" lon="11.626843143857318"><ele>273.0</ele><time>2026-04-11T08:07:57.002Z</time></trkpt><trkpt lat="43.03957263642982" lon="11.626833609233076"><ele>273.0</ele><time>2026-04-11T08:07:58.002Z</time></trkpt><trkpt lat="43.03929864799952" lon="11.626834557391767"><ele>273.0</ele><time>2026-04-11T08:07:59.002Z</time></trkpt><trkpt lat="43.0390302054719" lon="11.626843285422511"><ele>273.0</ele><time>2026-04-11T08:08:00.002Z</time></trkpt><trkpt lat="43.038764356929555" lon="11.626864608267208"><ele>273.0</ele><time>2026-04-11T08:08:01.002Z</time></trkpt><trkpt lat="43.038487949756394" lon="11.626900557016025"><ele>272.0</ele><time>2026-04-11T08:08:02.002Z</time></trkpt><trkpt lat="43.03819783520917" lon="11.62695930971616"><ele>271.0</ele><time>2026-04-11T08:08:03.002Z</time></trkpt><trkpt lat="43.03790535474708" lon="11.627013859101204"><ele>268.5</ele><time>2026-04-11T08:08:04.002Z</time></trkpt><trkpt lat="43.03761507165437" lon="11.627064280611453"><ele>266.0</ele><time>2026-04-11T08:08:05.002Z</time></trkpt><trkpt lat="43.03733016878717" lon="11.627113236705698"><ele>266.0</ele><time>2026-04-11T08:08:06.002Z</time></trkpt><trkpt lat="43.037050087900276" lon="11.627161410361122"><ele>266.0</ele><time>2026-04-11T08:08:07.002Z</time></trkpt><trkpt lat="43.036772115473" lon="11.627206767522557"><ele>268.5</ele><time>2026-04-11T08:08:08.002Z</time></trkpt><trkpt lat="43.03649964801127" lon="11.627255585761285"><ele>271.0</ele><time>2026-04-11T08:08:09.002Z</time></trkpt><trkpt lat="43.03623334832639" lon="11.627305118962907"><ele>271.0</ele><time>2026-04-11T08:08:10.002Z</time></trkpt><trkpt lat="43.03596961141677" lon="11.627351198243822"><ele>271.0</ele><time>2026-04-11T08:08:11.002Z</time></trkpt><trkpt lat="43.035707992462704" lon="11.627391417380656"><ele>270.0</ele><time>2026-04-11T08:08:12.002Z</time></trkpt><trkpt lat="43.035447750915154" lon="11.627430458964794"><ele>269.0</ele><time>2026-04-11T08:08:13.002Z</time></trkpt><trkpt lat="43.03518368680415" lon="11.627472503409775"><ele>268.0</ele><time>2026-04-11T08:08:14.002Z</time></trkpt><trkpt lat="43.03491716160507" lon="11.627521642898191"><ele>267.0</ele><time>2026-04-11T08:08:15.002Z</time></trkpt><trkpt lat="43.03467533622314" lon="11.627568426500252"><ele>267.0</ele><time>2026-04-11T08:08:16.002Z</time></trkpt><trkpt lat="43.03445574123281" lon="11.627610429954226"><ele>267.0</ele><time>2026-04-11T08:08:17.002Z</time></trkpt><trkpt lat="43.03424312913691" lon="11.627628707319788"><ele>267.0</ele><time>2026-04-11T08:08:18.002Z</time></trkpt><trkpt lat="43.034035929899275" lon="11.627595342337676"><ele>264.0</ele><time>2026-04-11T08:08:19.002Z</time></trkpt><trkpt lat="43.03380769176336" lon="11.627517078930087"><ele>261.0</ele><time>2026-04-11T08:08:20.002Z</time></trkpt><trkpt lat="43.03356362576592" lon="11.627435861300436"><ele>261.0</ele><time>2026-04-11T08:08:21.002Z</time></trkpt><trkpt lat="43.0333085203622" lon="11.627359575678696"><ele>261.0</ele><time>2026-04-11T08:08:22.002Z</time></trkpt><trkpt lat="43.03304649149703" lon="11.627276457553647"><ele>259.0</ele><time>2026-04-11T08:08:23.002Z</time></trkpt><trkpt lat="43.03278434275532" lon="11.627185513101072"><ele>257.0</ele><time>2026-04-11T08:08:24.002Z</time></trkpt><trkpt lat="43.032529173616375" lon="11.627098307795844"><ele>257.0</ele><time>2026-04-11T08:08:25.002Z</time></trkpt><trkpt lat="43.03227236309039" lon="11.6270096020851"><ele>257.0</ele><time>2026-04-11T08:08:26.002Z</time></trkpt><trkpt lat="43.032014931183134" lon="11.626923571060567"><ele>259.5</ele><time>2026-04-11T08:08:27.002Z</time></trkpt><trkpt lat="43.03175752422056" lon="11.626840875857988"><ele>262.0</ele><time>2026-04-11T08:08:28.002Z</time></trkpt><trkpt lat="43.03149994574259" lon="11.626761002149493"><ele>263.0</ele><time>2026-04-11T08:08:29.002Z</time></trkpt><trkpt lat="43.03124411227718" lon="11.626683278590018"><ele>264.0</ele><time>2026-04-11T08:08:30.002Z</time></trkpt><trkpt lat="43.030989310168714" lon="11.626607331520074"><ele>261.5</ele><time>2026-04-11T08:08:31.002Z</time></trkpt><trkpt lat="43.030736295427474" lon="11.626538589320958"><ele>259.0</ele><time>2026-04-11T08:08:32.002Z</time></trkpt><trkpt lat="43.03048135468856" lon="11.626484496466418"><ele>259.0</ele><time>2026-04-11T08:08:33.001Z</time></trkpt><trkpt lat="43.03022383697079" lon="11.626430506809331"><ele>259.0</ele><time>2026-04-11T08:08:34.001Z</time></trkpt><trkpt lat="43.02997694700153" lon="11.626339335400544"><ele>257.5</ele><time>2026-04-11T08:08:35.001Z</time></trkpt><trkpt lat="43.02975343242931" lon="11.626207090902287"><ele>256.0</ele><time>2026-04-11T08:08:36.001Z</time></trkpt><trkpt lat="43.0295358220462" lon="11.626087862100475"><ele>258.0</ele><time>2026-04-11T08:08:37.001Z</time></trkpt><trkpt lat="43.02928712150385" lon="11.625970440798724"><ele>260.0</ele><time>2026-04-11T08:08:38.001Z</time></trkpt><trkpt lat="43.02905699831786" lon="11.625867901781954"><ele>260.0</ele><time>2026-04-11T08:08:39.001Z</time></trkpt><trkpt lat="43.02884964751596" lon="11.625740244266972"><ele>260.0</ele><time>2026-04-11T08:08:40.001Z</time></trkpt><trkpt lat="43.028680917219766" lon="11.625581973561326"><ele>260.0</ele><time>2026-04-11T08:08:41.001Z</time></trkpt><trkpt lat="43.028566471068814" lon="11.625425345200869"><ele>259.5</ele><time>2026-04-11T08:08:42.001Z</time></trkpt><trkpt lat="43.02848506763406" lon="11.625297942494987"><ele>259.0</ele><time>2026-04-11T08:08:43.001Z</time></trkpt><trkpt lat="43.02838103527001" lon="11.625252654956714"><ele>258.5</ele><time>2026-04-11T08:08:44.001Z</time></trkpt><trkpt lat="43.02826024297225" lon="11.625281396377968"><ele>258.0</ele><time>2026-04-11T08:08:45.001Z</time></trkpt><trkpt lat="43.02812536470145" lon="11.625384158635619"><ele>259.6666666666667</ele><time>2026-04-11T08:08:46.001Z</time></trkpt><trkpt lat="43.02797971195239" lon="11.625549202812044"><ele>261.33333333333337</ele><time>2026-04-11T08:08:47.001Z</time></trkpt><trkpt lat="43.02784401584946" lon="11.625719681551097"><ele>263.0</ele><time>2026-04-11T08:08:48.001Z</time></trkpt><trkpt lat="43.02771555156453" lon="11.62587346805813"><ele>263.0</ele><time>2026-04-11T08:08:49.001Z</time></trkpt><trkpt lat="43.02761346139168" lon="11.626004341048947"><ele>263.0</ele><time>2026-04-11T08:08:50.001Z</time></trkpt><trkpt lat="43.0275551352249" lon="11.626143762803235"><ele>263.0</ele><time>2026-04-11T08:08:51.001Z</time></trkpt><trkpt lat="43.02755607976508" lon="11.626325267371097"><ele>263.0</ele><time>2026-04-11T08:08:52.001Z</time></trkpt><trkpt lat="43.02761447634625" lon="11.62652686595178"><ele>265.6666666666667</ele><time>2026-04-11T08:08:53.001Z</time></trkpt><trkpt lat="43.027643148042955" lon="11.62674498777346"><ele>268.3333333333333</ele><time>2026-04-11T08:08:54.001Z</time></trkpt><trkpt lat="43.02760518546103" lon="11.626950906706076"><ele>271.0</ele><time>2026-04-11T08:08:55.001Z</time></trkpt><trkpt lat="43.027513685366664" lon="11.627194019320246"><ele>273.66666666666663</ele><time>2026-04-11T08:08:56.001Z</time></trkpt><trkpt lat="43.02739773096144" lon="11.627442647433456"><ele>276.3333333333333</ele><time>2026-04-11T08:08:57.001Z</time></trkpt><trkpt lat="43.027288863796024" lon="11.627616893765612"><ele>279.0</ele><time>2026-04-11T08:08:58.001Z</time></trkpt><trkpt lat="43.02714216751417" lon="11.6277022208574"><ele>279.0</ele><time>2026-04-11T08:08:59.001Z</time></trkpt><trkpt lat="43.02695081991613" lon="11.627720495606496"><ele>279.0</ele><time>2026-04-11T08:09:00.001Z</time></trkpt><trkpt lat="43.02672669327859" lon="11.627766676158162"><ele>279.0</ele><time>2026-04-11T08:09:01.001Z</time></trkpt><trkpt lat="43.026476953917744" lon="11.627788852578862"><ele>277.0</ele><time>2026-04-11T08:09:02.001Z</time></trkpt><trkpt lat="43.02626769125553" lon="11.627815591215477"><ele>275.0</ele><time>2026-04-11T08:09:03.001Z</time></trkpt><trkpt lat="43.02610704535157" lon="11.627841953632013"><ele>273.0</ele><time>2026-04-11T08:09:04.001Z</time></trkpt><trkpt lat="43.02597009382362" lon="11.627870959791007"><ele>273.0</ele><time>2026-04-11T08:09:05.001Z</time></trkpt><trkpt lat="43.02583688440523" lon="11.627914696322959"><ele>273.0</ele><time>2026-04-11T08:09:06.001Z</time></trkpt><trkpt lat="43.025721391801625" lon="11.6280114533714"><ele>273.0</ele><time>2026-04-11T08:09:07.001Z</time></trkpt><trkpt lat="43.02561322731249" lon="11.62819446020462"><ele>273.0</ele><time>2026-04-11T08:09:08.001Z</time></trkpt><trkpt lat="43.02549060318576" lon="11.62848214754646"><ele>272.0</ele><time>2026-04-11T08:09:09.001Z</time></trkpt><trkpt lat="43.02534916276832" lon="11.62879918460549"><ele>271.0</ele><time>2026-04-11T08:09:10.001Z</time></trkpt><trkpt lat="43.02518106985579" lon="11.629127974898818"><ele>271.0</ele><time>2026-04-11T08:09:11.001Z</time></trkpt><trkpt lat="43.025006321656576" lon="11.629451608493394"><ele>271.0</ele><time>2026-04-11T08:09:12.001Z</time></trkpt><trkpt lat="43.02488092047558" lon="11.62971715541478"><ele>269.0</ele><time>2026-04-11T08:09:13.001Z</time></trkpt><trkpt lat="43.024775423724286" lon="11.62993870251939"><ele>267.0</ele><time>2026-04-11T08:09:14.001Z</time></trkpt><trkpt lat="43.02470105220244" lon="11.630179946946292"><ele>265.0</ele><time>2026-04-11T08:09:15.001Z</time></trkpt><trkpt lat="43.024659228065566" lon="11.630462221586649"><ele>264.66666666666663</ele><time>2026-04-11T08:09:16.001Z</time></trkpt><trkpt lat="43.024657425094205" lon="11.630760192109221"><ele>264.3333333333333</ele><time>2026-04-11T08:09:17.001Z</time></trkpt><trkpt lat="43.02465829192223" lon="11.630975984209696"><ele>264.0</ele><time>2026-04-11T08:09:18.001Z</time></trkpt><trkpt lat="43.02461044044064" lon="11.631154328884966"><ele>264.0</ele><time>2026-04-11T08:09:19.001Z</time></trkpt><trkpt lat="43.02449368951877" lon="11.63132982628918"><ele>264.0</ele><time>2026-04-11T08:09:20.001Z</time></trkpt><trkpt lat="43.02429174524744" lon="11.631505804326958"><ele>264.0</ele><time>2026-04-11T08:09:21.001Z</time></trkpt><trkpt lat="43.02405529979462" lon="11.631720793946581"><ele>265.0</ele><time>2026-04-11T08:09:22.001Z</time></trkpt><trkpt lat="43.023798717945105" lon="11.631954092730128"><ele>266.0</ele><time>2026-04-11T08:09:23.001Z</time></trkpt><trkpt lat="43.02354597155692" lon="11.632200660850723"><ele>267.0</ele><time>2026-04-11T08:09:24.001Z</time></trkpt><trkpt lat="43.023325808633416" lon="11.632373558219898"><ele>268.0</ele><time>2026-04-11T08:09:25.001Z</time></trkpt><trkpt lat="43.023128103352335" lon="11.632492883529789"><ele>268.3333333333333</ele><time>2026-04-11T08:09:26.001Z</time></trkpt><trkpt lat="43.022916536337895" lon="11.632518902518822"><ele>268.6666666666667</ele><time>2026-04-11T08:09:27.001Z</time></trkpt><trkpt lat="43.02274375369157" lon="11.632570005915861"><ele>269.0</ele><time>2026-04-11T08:09:28.001Z</time></trkpt><trkpt lat="43.022594292760836" lon="11.632671456119699"><ele>271.0</ele><time>2026-04-11T08:09:29.001Z</time></trkpt><trkpt lat="43.022453261169204" lon="11.632878234478458"><ele>273.0</ele><time>2026-04-11T08:09:30.001Z</time></trkpt><trkpt lat="43.0223388585966" lon="11.633142871491296"><ele>275.0</ele><time>2026-04-11T08:09:31.001Z</time></trkpt><trkpt lat="43.022277320600956" lon="11.633445844106003"><ele>277.0</ele><time>2026-04-11T08:09:32.001Z</time></trkpt><trkpt lat="43.02224317675165" lon="11.633798451427953"><ele>279.0</ele><time>2026-04-11T08:09:33.001Z</time></trkpt><trkpt lat="43.022205614801486" lon="11.6341812109977"><ele>280.5</ele><time>2026-04-11T08:09:34.001Z</time></trkpt><trkpt lat="43.02212983223317" lon="11.634587981568465"><ele>282.0</ele><time>2026-04-11T08:09:35.001Z</time></trkpt><trkpt lat="43.02207701031148" lon="11.63500346014625"><ele>282.6666666666667</ele><time>2026-04-11T08:09:36.001Z</time></trkpt><trkpt lat="43.02203613698148" lon="11.63533344720387"><ele>283.33333333333337</ele><time>2026-04-11T08:09:37.001Z</time></trkpt><trkpt lat="43.02199250412101" lon="11.635590830031415"><ele>284.0</ele><time>2026-04-11T08:09:38.001Z</time></trkpt><trkpt lat="43.021954358330575" lon="11.635804639208136"><ele>284.0</ele><time>2026-04-11T08:09:39.001Z</time></trkpt><trkpt lat="43.02192345079047" lon="11.635973515152742"><ele>284.0</ele><time>2026-04-11T08:09:40.001Z</time></trkpt><trkpt lat="43.021902864886314" lon="11.636094589856857"><ele>284.0</ele><time>2026-04-11T08:09:41.001Z</time></trkpt><trkpt lat="43.021879047921836" lon="11.636196822261507"><ele>284.0</ele><time>2026-04-11T08:09:42.001Z</time></trkpt><trkpt lat="43.021859849239526" lon="11.63631350483631"><ele>284.0</ele><time>2026-04-11T08:09:43.001Z</time></trkpt><trkpt lat="43.021843919740896" lon="11.636430209680006"><ele>284.5</ele><time>2026-04-11T08:09:44.001Z</time></trkpt><trkpt lat="43.02182929572625" lon="11.636544838518319"><ele>285.0</ele><time>2026-04-11T08:09:45.001Z</time></trkpt><trkpt lat="43.02181195012356" lon="11.636645582558952"><ele>285.5</ele><time>2026-04-11T08:09:46.001Z</time></trkpt><trkpt lat="43.0217970416839" lon="11.636745239509455"><ele>286.0</ele><time>2026-04-11T08:09:48.001Z</time></trkpt><trkpt lat="43.02191375650829" lon="11.636842765090163"><ele>286.5</ele><time>2026-04-11T08:10:08.001Z</time></trkpt><trkpt lat="43.02197035454432" lon="11.636882049816682"><ele>287.0</ele><time>2026-04-11T08:12:03.001Z</time></trkpt><trkpt lat="43.02204394137625" lon="11.636934263491224"><ele>287.0</ele><time>2026-04-11T08:12:05.001Z</time></trkpt><trkpt lat="43.02198722705485" lon="11.636879032082325"><ele>287.0</ele><time>2026-04-11T08:13:26.001Z</time></trkpt><trkpt lat="43.021923287413976" lon="11.636832956364872"><ele>287.0</ele><time>2026-04-11T08:13:28.001Z</time></trkpt><trkpt lat="43.021855336324585" lon="11.636802215707007"><ele>287.0</ele><time>2026-04-11T08:13:39.001Z</time></trkpt><trkpt lat="43.021764843177074" lon="11.63701608195708"><ele>287.0</ele><time>2026-04-11T08:13:40.001Z</time></trkpt><trkpt lat="43.021734068743534" lon="11.637239409388211"><ele>286.5</ele><time>2026-04-11T08:13:41.001Z</time></trkpt><trkpt lat="43.02168611141616" lon="11.637522241468488"><ele>286.0</ele><time>2026-04-11T08:13:42.001Z</time></trkpt><trkpt lat="43.02163533371841" lon="11.637847235882344"><ele>287.0</ele><time>2026-04-11T08:13:43.001Z</time></trkpt><trkpt lat="43.021577927178306" lon="11.63820835445185"><ele>288.0</ele><time>2026-04-11T08:13:44.001Z</time></trkpt><trkpt lat="43.021530032059125" lon="11.638600831269986"><ele>286.5</ele><time>2026-04-11T08:13:45.001Z</time></trkpt><trkpt lat="43.021458871294406" lon="11.638957281484412"><ele>285.0</ele><time>2026-04-11T08:13:46.001Z</time></trkpt><trkpt lat="43.021405906335524" lon="11.639279959253845"><ele>284.5</ele><time>2026-04-11T08:13:47.001Z</time></trkpt><trkpt lat="43.02134325819489" lon="11.639594460296276"><ele>284.0</ele><time>2026-04-11T08:13:48.001Z</time></trkpt><trkpt lat="43.021254611473566" lon="11.639927903516204"><ele>284.0</ele><time>2026-04-11T08:13:49.001Z</time></trkpt><trkpt lat="43.02113465617949" lon="11.640248395924155"><ele>284.0</ele><time>2026-04-11T08:13:50.001Z</time></trkpt><trkpt lat="43.02095927782151" lon="11.640560044260116"><ele>279.5</ele><time>2026-04-11T08:13:51.001Z</time></trkpt><trkpt lat="43.02077271013948" lon="11.640891134750245"><ele>275.0</ele><time>2026-04-11T08:13:52.001Z</time></trkpt><trkpt lat="43.02056945060655" lon="11.641189668662873"><ele>274.0</ele><time>2026-04-11T08:13:53.001Z</time></trkpt><trkpt lat="43.02040205422203" lon="11.641452457548256"><ele>273.0</ele><time>2026-04-11T08:13:54.001Z</time></trkpt><trkpt lat="43.020258049938995" lon="11.641679793970114"><ele>273.0</ele><time>2026-04-11T08:13:55.001Z</time></trkpt><trkpt lat="43.02012163989918" lon="11.641891031879167"><ele>273.0</ele><time>2026-04-11T08:13:56.001Z</time></trkpt><trkpt lat="43.020003875442484" lon="11.64207466692463"><ele>273.0</ele><time>2026-04-11T08:13:57.001Z</time></trkpt><trkpt lat="43.01990344373566" lon="11.6422384854476"><ele>272.3333333333333</ele><time>2026-04-11T08:13:58.001Z</time></trkpt><trkpt lat="43.01982405783747" lon="11.642410229393844"><ele>271.66666666666663</ele><time>2026-04-11T08:13:59.001Z</time></trkpt><trkpt lat="43.01979547404221" lon="11.6426357492564"><ele>271.0</ele><time>2026-04-11T08:14:00.001Z</time></trkpt><trkpt lat="43.0197999959679" lon="11.642935870899567"><ele>270.0</ele><time>2026-04-11T08:14:01.001Z</time></trkpt><trkpt lat="43.01982703971827" lon="11.643267796068853"><ele>269.0</ele><time>2026-04-11T08:14:02.001Z</time></trkpt><trkpt lat="43.019856934837534" lon="11.643625248105709"><ele>268.5</ele><time>2026-04-11T08:14:03.001Z</time></trkpt><trkpt lat="43.019892195569376" lon="11.643994032804562"><ele>268.0</ele><time>2026-04-11T08:14:04.001Z</time></trkpt><trkpt lat="43.01993667693697" lon="11.644379278523463"><ele>267.5</ele><time>2026-04-11T08:14:05.001Z</time></trkpt><trkpt lat="43.01999240091499" lon="11.644777176446048"><ele>267.0</ele><time>2026-04-11T08:14:06.001Z</time></trkpt><trkpt lat="43.02005194666981" lon="11.64518643025142"><ele>267.5</ele><time>2026-04-11T08:14:07.001Z</time></trkpt><trkpt lat="43.020109670832106" lon="11.645597045741175"><ele>268.0</ele><time>2026-04-11T08:14:08.001Z</time></trkpt><trkpt lat="43.020169914861924" lon="11.646009733244243"><ele>270.0</ele><time>2026-04-11T08:14:09.001Z</time></trkpt><trkpt lat="43.02021267826435" lon="11.646427843293592"><ele>272.0</ele><time>2026-04-11T08:14:10.001Z</time></trkpt><trkpt lat="43.02028584826044" lon="11.646833139615223"><ele>274.0</ele><time>2026-04-11T08:14:11.001Z</time></trkpt><trkpt lat="43.02034402571957" lon="11.647237097998847"><ele>276.0</ele><time>2026-04-11T08:14:12.001Z</time></trkpt><trkpt lat="43.02039959705455" lon="11.64762351282691"><ele>277.0</ele><time>2026-04-11T08:14:13.001Z</time></trkpt><trkpt lat="43.020453118057574" lon="11.647992027621083"><ele>278.0</ele><time>2026-04-11T08:14:14.001Z</time></trkpt><trkpt lat="43.02050204648986" lon="11.648355352548593"><ele>277.5</ele><time>2026-04-11T08:14:15.001Z</time></trkpt><trkpt lat="43.020540575863755" lon="11.648714820490103"><ele>277.0</ele><time>2026-04-11T08:14:16.001Z</time></trkpt><trkpt lat="43.02055882262901" lon="11.649070900500366"><ele>277.0</ele><time>2026-04-11T08:14:17.001Z</time></trkpt><trkpt lat="43.02054480062292" lon="11.649397037614648"><ele>277.0</ele><time>2026-04-11T08:14:18.001Z</time></trkpt><trkpt lat="43.02050322589517" lon="11.649700466133671"><ele>277.66666666666663</ele><time>2026-04-11T08:14:19.001Z</time></trkpt><trkpt lat="43.02042232857678" lon="11.649956300815424"><ele>278.3333333333333</ele><time>2026-04-11T08:14:20.001Z</time></trkpt><trkpt lat="43.02031731170666" lon="11.650179387065437"><ele>279.0</ele><time>2026-04-11T08:14:21.001Z</time></trkpt><trkpt lat="43.020160099291935" lon="11.650357564144654"><ele>280.0</ele><time>2026-04-11T08:14:22.001Z</time></trkpt><trkpt lat="43.0199970264365" lon="11.650536146842466"><ele>281.0</ele><time>2026-04-11T08:14:23.001Z</time></trkpt><trkpt lat="43.019830595244265" lon="11.65068764473631"><ele>282.0</ele><time>2026-04-11T08:14:24.001Z</time></trkpt><trkpt lat="43.01967244789966" lon="11.650847186296492"><ele>283.3333333333333</ele><time>2026-04-11T08:14:25.001Z</time></trkpt><trkpt lat="43.019520539561896" lon="11.651011977634637"><ele>284.66666666666663</ele><time>2026-04-11T08:14:26.001Z</time></trkpt><trkpt lat="43.01938707320941" lon="11.651216038992038"><ele>286.0</ele><time>2026-04-11T08:14:27.001Z</time></trkpt><trkpt lat="43.01926437904755" lon="11.65148966542852"><ele>287.0</ele><time>2026-04-11T08:14:28.001Z</time></trkpt><trkpt lat="43.01912668757964" lon="11.651795141782117"><ele>288.0</ele><time>2026-04-11T08:14:29.001Z</time></trkpt><trkpt lat="43.01898691471672" lon="11.652137640366508"><ele>288.5</ele><time>2026-04-11T08:14:30.001Z</time></trkpt><trkpt lat="43.01884793665503" lon="11.652497768061872"><ele>289.0</ele><time>2026-04-11T08:14:31.001Z</time></trkpt><trkpt lat="43.0186972393849" lon="11.652863027231152"><ele>289.5</ele><time>2026-04-11T08:14:32.001Z</time></trkpt><trkpt lat="43.0185513972081" lon="11.653229322221009"><ele>290.0</ele><time>2026-04-11T08:14:33.001Z</time></trkpt><trkpt lat="43.01841424479825" lon="11.653567074499296"><ele>290.0</ele><time>2026-04-11T08:14:34.001Z</time></trkpt><trkpt lat="43.018257805252574" lon="11.653919816646654"><ele>290.0</ele><time>2026-04-11T08:14:35.001Z</time></trkpt><trkpt lat="43.01808372948957" lon="11.65426477834259"><ele>291.0</ele><time>2026-04-11T08:14:36.001Z</time></trkpt><trkpt lat="43.017892764540065" lon="11.654608637315276"><ele>292.0</ele><time>2026-04-11T08:14:37.001Z</time></trkpt><trkpt lat="43.0176930503358" lon="11.654955511228467"><ele>291.5</ele><time>2026-04-11T08:14:38.001Z</time></trkpt><trkpt lat="43.017492532136956" lon="11.65530759571322"><ele>291.0</ele><time>2026-04-11T08:14:39.001Z</time></trkpt><trkpt lat="43.0172947506501" lon="11.655661459286593"><ele>294.0</ele><time>2026-04-11T08:14:39.997Z</time></trkpt><trkpt lat="43.017083043593296" lon="11.655991107497385"><ele>297.0</ele><time>2026-04-11T08:14:40.997Z</time></trkpt><trkpt lat="43.01686057581756" lon="11.656280484222687"><ele>297.5</ele><time>2026-04-11T08:14:41.997Z</time></trkpt><trkpt lat="43.01666075030406" lon="11.65652370746167"><ele>298.0</ele><time>2026-04-11T08:14:42.997Z</time></trkpt><trkpt lat="43.01646908979452" lon="11.656750847647968"><ele>299.5</ele><time>2026-04-11T08:14:43.997Z</time></trkpt><trkpt lat="43.01627557302321" lon="11.656989424924936"><ele>301.0</ele><time>2026-04-11T08:14:44.997Z</time></trkpt><trkpt lat="43.016102769319595" lon="11.657269794485838"><ele>301.0</ele><time>2026-04-11T08:14:45.997Z</time></trkpt><trkpt lat="43.015944161273794" lon="11.657591739132315"><ele>301.0</ele><time>2026-04-11T08:14:46.997Z</time></trkpt><trkpt lat="43.01578609011986" lon="11.657931088917925"><ele>304.5</ele><time>2026-04-11T08:14:47.998Z</time></trkpt><trkpt lat="43.01562674896473" lon="11.65827698867663"><ele>308.0</ele><time>2026-04-11T08:14:48.998Z</time></trkpt><trkpt lat="43.01546311024695" lon="11.658628148470049"><ele>309.0</ele><time>2026-04-11T08:14:49.998Z</time></trkpt><trkpt lat="43.01531128741614" lon="11.658974369791672"><ele>310.0</ele><time>2026-04-11T08:14:50.998Z</time></trkpt><trkpt lat="43.01518026577787" lon="11.659294453565241"><ele>309.5</ele><time>2026-04-11T08:14:51.998Z</time></trkpt><trkpt lat="43.01506053868194" lon="11.659574208210735"><ele>309.0</ele><time>2026-04-11T08:14:52.998Z</time></trkpt><trkpt lat="43.01492384202945" lon="11.659836955841195"><ele>309.5</ele><time>2026-04-11T08:14:53.998Z</time></trkpt><trkpt lat="43.0147752874533" lon="11.660080869185203"><ele>310.0</ele><time>2026-04-11T08:14:54.998Z</time></trkpt><trkpt lat="43.01461012019726" lon="11.660314671900172"><ele>310.0</ele><time>2026-04-11T08:14:55.998Z</time></trkpt><trkpt lat="43.01442960806207" lon="11.660570212769734"><ele>310.0</ele><time>2026-04-11T08:14:56.998Z</time></trkpt><trkpt lat="43.01422914466119" lon="11.660831099572187"><ele>307.5</ele><time>2026-04-11T08:14:57.998Z</time></trkpt><trkpt lat="43.014010501833155" lon="11.661083380721177"><ele>305.0</ele><time>2026-04-11T08:14:58.998Z</time></trkpt><trkpt lat="43.01378168935703" lon="11.661330531817143"><ele>305.0</ele><time>2026-04-11T08:14:59.998Z</time></trkpt><trkpt lat="43.01354648376242" lon="11.661572015980088"><ele>305.0</ele><time>2026-04-11T08:15:00.998Z</time></trkpt><trkpt lat="43.01331245122145" lon="11.661803938534533"><ele>304.5</ele><time>2026-04-11T08:15:01.998Z</time></trkpt><trkpt lat="43.01307531938251" lon="11.662027921085265"><ele>304.0</ele><time>2026-04-11T08:15:02.999Z</time></trkpt><trkpt lat="43.012856313945484" lon="11.662271872306066"><ele>304.0</ele><time>2026-04-11T08:15:03.999Z</time></trkpt><trkpt lat="43.012659660293565" lon="11.662556688937698"><ele>304.0</ele><time>2026-04-11T08:15:04.999Z</time></trkpt><trkpt lat="43.01247849306826" lon="11.662862235379373"><ele>306.5</ele><time>2026-04-11T08:15:05.999Z</time></trkpt><trkpt lat="43.01229368326705" lon="11.663149205933726"><ele>309.0</ele><time>2026-04-11T08:15:06.999Z</time></trkpt><trkpt lat="43.01209707890207" lon="11.663422971480884"><ele>308.5</ele><time>2026-04-11T08:15:07.999Z</time></trkpt><trkpt lat="43.01189130870839" lon="11.66369206285056"><ele>308.0</ele><time>2026-04-11T08:15:08.999Z</time></trkpt><trkpt lat="43.01168078458672" lon="11.663978044972412"><ele>308.0</ele><time>2026-04-11T08:15:09.999Z</time></trkpt><trkpt lat="43.011468359224004" lon="11.664288441253623"><ele>308.0</ele><time>2026-04-11T08:15:10.999Z</time></trkpt><trkpt lat="43.01125544994424" lon="11.66460208171996"><ele>308.0</ele><time>2026-04-11T08:15:11.999Z</time></trkpt><trkpt lat="43.01104128813545" lon="11.664922706668746"><ele>308.0</ele><time>2026-04-11T08:15:12.999Z</time></trkpt><trkpt lat="43.010825204845084" lon="11.665241627026582"><ele>309.5</ele><time>2026-04-11T08:15:13.999Z</time></trkpt><trkpt lat="43.01060947314714" lon="11.665556655791525"><ele>311.0</ele><time>2026-04-11T08:15:14.999Z</time></trkpt><trkpt lat="43.01039858688384" lon="11.66586564177209"><ele>309.0</ele><time>2026-04-11T08:15:15.999Z</time></trkpt><trkpt lat="43.0101949224081" lon="11.666167218398762"><ele>307.0</ele><time>2026-04-11T08:15:16.999Z</time></trkpt><trkpt lat="43.01000429094975" lon="11.666453135278433"><ele>307.0</ele><time>2026-04-11T08:15:17.999Z</time></trkpt><trkpt lat="43.00980243777446" lon="11.666744513456008"><ele>307.0</ele><time>2026-04-11T08:15:18.999Z</time></trkpt><trkpt lat="43.00959053945782" lon="11.667037646099754"><ele>307.0</ele><time>2026-04-11T08:15:19.999Z</time></trkpt><trkpt lat="43.00936929562048" lon="11.667331843770995"><ele>307.0</ele><time>2026-04-11T08:15:20.999Z</time></trkpt><trkpt lat="43.009142692464216" lon="11.667625250958414"><ele>309.5</ele><time>2026-04-11T08:15:21.999Z</time></trkpt><trkpt lat="43.008909897667984" lon="11.667913704656481"><ele>312.0</ele><time>2026-04-11T08:15:22.999Z</time></trkpt><trkpt lat="43.00867833163829" lon="11.668204014091994"><ele>312.0</ele><time>2026-04-11T08:15:23.999Z</time></trkpt><trkpt lat="43.008458451978555" lon="11.668483694547586"><ele>312.0</ele><time>2026-04-11T08:15:24.999Z</time></trkpt><trkpt lat="43.00826822751683" lon="11.66872541863564"><ele>317.3333333333333</ele><time>2026-04-11T08:15:25.999Z</time></trkpt><trkpt lat="43.00810926792578" lon="11.668931848888205"><ele>322.66666666666663</ele><time>2026-04-11T08:15:26.999Z</time></trkpt><trkpt lat="43.00798085869686" lon="11.669122725010936"><ele>328.0</ele><time>2026-04-11T08:15:27.999Z</time></trkpt><trkpt lat="43.00789064985142" lon="11.669354000725665"><ele>328.3333333333333</ele><time>2026-04-11T08:15:28.999Z</time></trkpt><trkpt lat="43.00781973311937" lon="11.669626493274043"><ele>328.6666666666667</ele><time>2026-04-11T08:15:29.999Z</time></trkpt><trkpt lat="43.00775599294501" lon="11.669905597656339"><ele>329.0</ele><time>2026-04-11T08:15:30.999Z</time></trkpt><trkpt lat="43.007683084623565" lon="11.670155008311106"><ele>328.33333333333337</ele><time>2026-04-11T08:15:31.999Z</time></trkpt><trkpt lat="43.00758868152303" lon="11.670381821654424"><ele>327.6666666666667</ele><time>2026-04-11T08:15:32.999Z</time></trkpt><trkpt lat="43.00747836685895" lon="11.67059612463689"><ele>327.0</ele><time>2026-04-11T08:15:33.999Z</time></trkpt><trkpt lat="43.00734452400371" lon="11.670767859724743"><ele>326.0</ele><time>2026-04-11T08:15:34.999Z</time></trkpt><trkpt lat="43.00718823241184" lon="11.670950061519532"><ele>325.0</ele><time>2026-04-11T08:15:35.999Z</time></trkpt><trkpt lat="43.007025856178245" lon="11.671138770537326"><ele>324.0</ele><time>2026-04-11T08:15:36.999Z</time></trkpt><trkpt lat="43.006859309656" lon="11.671339836093935"><ele>322.5</ele><time>2026-04-11T08:15:37.999Z</time></trkpt><trkpt lat="43.006677149294795" lon="11.671551859190872"><ele>321.0</ele><time>2026-04-11T08:15:38.999Z</time></trkpt><trkpt lat="43.006480138705584" lon="11.671769345785401"><ele>317.5</ele><time>2026-04-11T08:15:39.999Z</time></trkpt><trkpt lat="43.006262962625215" lon="11.671971082200102"><ele>314.0</ele><time>2026-04-11T08:15:40.999Z</time></trkpt><trkpt lat="43.00603039603864" lon="11.67217287508227"><ele>314.0</ele><time>2026-04-11T08:15:41.999Z</time></trkpt><trkpt lat="43.005791862966504" lon="11.672394690498226"><ele>314.0</ele><time>2026-04-11T08:15:42.999Z</time></trkpt><trkpt lat="43.00555684233832" lon="11.67265139613284"><ele>315.5</ele><time>2026-04-11T08:15:43.999Z</time></trkpt><trkpt lat="43.00533806321181" lon="11.672947166730038"><ele>317.0</ele><time>2026-04-11T08:15:44.999Z</time></trkpt><trkpt lat="43.00514781908308" lon="11.673246365644502"><ele>316.5</ele><time>2026-04-11T08:15:46Z</time></trkpt><trkpt lat="43.004975261768784" lon="11.673525566947074"><ele>316.0</ele><time>2026-04-11T08:15:47Z</time></trkpt><trkpt lat="43.00483013737483" lon="11.673747691069783"><ele>316.0</ele><time>2026-04-11T08:15:48Z</time></trkpt><trkpt lat="43.004689487542876" lon="11.673932134196884"><ele>316.0</ele><time>2026-04-11T08:15:49Z</time></trkpt><trkpt lat="43.004519156413004" lon="11.674137288934888"><ele>316.0</ele><time>2026-04-11T08:15:50Z</time></trkpt><trkpt lat="43.00434905515998" lon="11.674384491680197"><ele>315.5</ele><time>2026-04-11T08:15:51Z</time></trkpt><trkpt lat="43.00419524546725" lon="11.674672923750967"><ele>315.0</ele><time>2026-04-11T08:15:52Z</time></trkpt><trkpt lat="43.004071607877904" lon="11.674959996047804"><ele>313.0</ele><time>2026-04-11T08:15:53Z</time></trkpt><trkpt lat="43.00398919440612" lon="11.675274246895077"><ele>311.0</ele><time>2026-04-11T08:15:54Z</time></trkpt><trkpt lat="43.0039223740373" lon="11.675636713958085"><ele>311.0</ele><time>2026-04-11T08:15:55Z</time></trkpt><trkpt lat="43.00384676919359" lon="11.676013702585257"><ele>311.0</ele><time>2026-04-11T08:15:56Z</time></trkpt><trkpt lat="43.00375840241246" lon="11.67639815318936"><ele>311.5</ele><time>2026-04-11T08:15:57Z</time></trkpt><trkpt lat="43.00366632333937" lon="11.676786017829764"><ele>312.0</ele><time>2026-04-11T08:15:58Z</time></trkpt><trkpt lat="43.003563588854036" lon="11.677176233737491"><ele>311.0</ele><time>2026-04-11T08:15:59Z</time></trkpt><trkpt lat="43.00345161296126" lon="11.677564018194017"><ele>310.0</ele><time>2026-04-11T08:16:00Z</time></trkpt><trkpt lat="43.003325162307526" lon="11.677944742811043"><ele>309.5</ele><time>2026-04-11T08:16:01Z</time></trkpt><trkpt lat="43.003180482530674" lon="11.678304261245477"><ele>309.0</ele><time>2026-04-11T08:16:02Z</time></trkpt><trkpt lat="43.00302368534891" lon="11.678648910747162"><ele>308.5</ele><time>2026-04-11T08:16:03Z</time></trkpt><trkpt lat="43.00286072829923" lon="11.678987256651109"><ele>308.0</ele><time>2026-04-11T08:16:04Z</time></trkpt><trkpt lat="43.002696080700275" lon="11.679324340849874"><ele>307.5</ele><time>2026-04-11T08:16:05Z</time></trkpt><trkpt lat="43.00253682206674" lon="11.679669484520144"><ele>307.0</ele><time>2026-04-11T08:16:06Z</time></trkpt><trkpt lat="43.00238164418679" lon="11.680016343467452"><ele>307.5</ele><time>2026-04-11T08:16:07Z</time></trkpt><trkpt lat="43.002229913497956" lon="11.680365612922587"><ele>308.0</ele><time>2026-04-11T08:16:08Z</time></trkpt><trkpt lat="43.00208335638155" lon="11.680722283221419"><ele>308.0</ele><time>2026-04-11T08:16:09Z</time></trkpt><trkpt lat="43.00194150620333" lon="11.681089501602484"><ele>308.0</ele><time>2026-04-11T08:16:10Z</time></trkpt><trkpt lat="43.001813314378275" lon="11.681430413475333"><ele>308.5</ele><time>2026-04-11T08:16:11Z</time></trkpt><trkpt lat="43.001679909982094" lon="11.68171289144989"><ele>309.0</ele><time>2026-04-11T08:16:12Z</time></trkpt><trkpt lat="43.0015414005776" lon="11.681928428885339"><ele>311.25</ele><time>2026-04-11T08:16:13Z</time></trkpt><trkpt lat="43.00142019849764" lon="11.682079421372718"><ele>313.5</ele><time>2026-04-11T08:16:14Z</time></trkpt><trkpt lat="43.00132010440915" lon="11.682187407554464"><ele>315.75</ele><time>2026-04-11T08:16:15Z</time></trkpt><trkpt lat="43.001213961270714" lon="11.68229552746017"><ele>318.0</ele><time>2026-04-11T08:16:16Z</time></trkpt><trkpt lat="43.0011037418671" lon="11.682406129803576"><ele>318.0</ele><time>2026-04-11T08:16:17Z</time></trkpt><trkpt lat="43.00099045919748" lon="11.682512966321065"><ele>318.0</ele><time>2026-04-11T08:16:18Z</time></trkpt><trkpt lat="43.00087005720957" lon="11.682616084307853"><ele>318.0</ele><time>2026-04-11T08:16:19Z</time></trkpt><trkpt lat="43.00074757665274" lon="11.68272291456975"><ele>318.0</ele><time>2026-04-11T08:16:20Z</time></trkpt><trkpt lat="43.00062266254704" lon="11.682833169399489"><ele>319.0</ele><time>2026-04-11T08:16:21Z</time></trkpt><trkpt lat="43.00049686616871" lon="11.682949569202421"><ele>320.0</ele><time>2026-04-11T08:16:22Z</time></trkpt><trkpt lat="43.00036804367755" lon="11.683069924776614"><ele>321.0</ele><time>2026-04-11T08:16:23Z</time></trkpt><trkpt lat="43.000236434283394" lon="11.683191970280676"><ele>321.0</ele><time>2026-04-11T08:16:24Z</time></trkpt><trkpt lat="43.00010357798935" lon="11.683309670708018"><ele>321.0</ele><time>2026-04-11T08:16:25Z</time></trkpt><trkpt lat="42.999966858720605" lon="11.683423618285284"><ele>321.0</ele><time>2026-04-11T08:16:26Z</time></trkpt><trkpt lat="42.999821496411805" lon="11.683524976704971"><ele>321.0</ele><time>2026-04-11T08:16:27Z</time></trkpt><trkpt lat="42.99966873544739" lon="11.683583759172581"><ele>321.0</ele><time>2026-04-11T08:16:28Z</time></trkpt><trkpt lat="42.99951836211966" lon="11.683597505602934"><ele>321.0</ele><time>2026-04-11T08:16:29Z</time></trkpt><trkpt lat="42.99936309769681" lon="11.683598020125668"><ele>321.0</ele><time>2026-04-11T08:16:30Z</time></trkpt><trkpt lat="42.99920221822003" lon="11.683586171240245"><ele>321.0</ele><time>2026-04-11T08:16:31Z</time></trkpt><trkpt lat="42.999038617489944" lon="11.683586674761385"><ele>321.0</ele><time>2026-04-11T08:16:32Z</time></trkpt><trkpt lat="42.9988685086955" lon="11.683582733326727"><ele>320.6666666666667</ele><time>2026-04-11T08:16:33Z</time></trkpt><trkpt lat="42.99870237556275" lon="11.683583165922986"><ele>320.33333333333337</ele><time>2026-04-11T08:16:34Z</time></trkpt><trkpt lat="42.99853551318563" lon="11.683582963809666"><ele>320.0</ele><time>2026-04-11T08:16:35Z</time></trkpt><trkpt lat="42.998366828495655" lon="11.683578571049981"><ele>319.0</ele><time>2026-04-11T08:16:36Z</time></trkpt><trkpt lat="42.998197216651924" lon="11.683567424673125"><ele>318.0</ele><time>2026-04-11T08:16:37Z</time></trkpt><trkpt lat="42.99803314185122" lon="11.683558769769597"><ele>317.0</ele><time>2026-04-11T08:16:38Z</time></trkpt><trkpt lat="42.997863305145685" lon="11.68354559116833"><ele>317.0</ele><time>2026-04-11T08:16:39Z</time></trkpt><trkpt lat="42.997693331942656" lon="11.683530446213659"><ele>317.0</ele><time>2026-04-11T08:16:40Z</time></trkpt><trkpt lat="42.997531311673974" lon="11.683514691327096"><ele>317.0</ele><time>2026-04-11T08:16:41Z</time></trkpt><trkpt lat="42.99737606244538" lon="11.683496064644306"><ele>314.6666666666667</ele><time>2026-04-11T08:16:42Z</time></trkpt><trkpt lat="42.997230299653665" lon="11.683480319265819"><ele>312.3333333333333</ele><time>2026-04-11T08:16:43Z</time></trkpt><trkpt lat="42.997062237418504" lon="11.683478461494806"><ele>310.0</ele><time>2026-04-11T08:16:44Z</time></trkpt><trkpt lat="42.99688971534811" lon="11.683499699129362"><ele>310.0</ele><time>2026-04-11T08:16:45Z</time></trkpt><trkpt lat="42.99672542197572" lon="11.68357970280852"><ele>310.0</ele><time>2026-04-11T08:16:45.999Z</time></trkpt><trkpt lat="42.99660137254656" lon="11.683711719810915"><ele>310.0</ele><time>2026-04-11T08:16:46.999Z</time></trkpt><trkpt lat="42.996506206941916" lon="11.683908062486172"><ele>309.0</ele><time>2026-04-11T08:16:47.999Z</time></trkpt><trkpt lat="42.996417376145196" lon="11.684135099502996"><ele>308.0</ele><time>2026-04-11T08:16:48.999Z</time></trkpt><trkpt lat="42.99629192288427" lon="11.68434300177537"><ele>307.0</ele><time>2026-04-11T08:16:49.999Z</time></trkpt><trkpt lat="42.99612281138448" lon="11.684500246026655"><ele>306.0</ele><time>2026-04-11T08:16:50.999Z</time></trkpt><trkpt lat="42.99593230253309" lon="11.684661811335381"><ele>305.0</ele><time>2026-04-11T08:16:52Z</time></trkpt><trkpt lat="42.995723226549885" lon="11.684808424371932"><ele>305.0</ele><time>2026-04-11T08:16:53Z</time></trkpt><trkpt lat="42.99551135978633" lon="11.684969034638272"><ele>305.0</ele><time>2026-04-11T08:16:54Z</time></trkpt><trkpt lat="42.995291575735635" lon="11.685159054590212"><ele>304.5</ele><time>2026-04-11T08:16:55Z</time></trkpt><trkpt lat="42.99506050192128" lon="11.685328934953013"><ele>304.0</ele><time>2026-04-11T08:16:56Z</time></trkpt><trkpt lat="42.99483634772174" lon="11.685500142846145"><ele>304.0</ele><time>2026-04-11T08:16:57Z</time></trkpt><trkpt lat="42.994611257654554" lon="11.68567791623902"><ele>304.0</ele><time>2026-04-11T08:16:58Z</time></trkpt><trkpt lat="42.9943782202469" lon="11.685854691429302"><ele>304.5</ele><time>2026-04-11T08:16:59Z</time></trkpt><trkpt lat="42.994145711688056" lon="11.68602520678971"><ele>305.0</ele><time>2026-04-11T08:17:00Z</time></trkpt><trkpt lat="42.9939145932594" lon="11.686199105233687"><ele>305.0</ele><time>2026-04-11T08:17:01Z</time></trkpt><trkpt lat="42.99370485488044" lon="11.686356178507413"><ele>305.0</ele><time>2026-04-11T08:17:02Z</time></trkpt><trkpt lat="42.99350131387271" lon="11.68648522549414"><ele>306.5</ele><time>2026-04-11T08:17:03Z</time></trkpt><trkpt lat="42.993280627300145" lon="11.686566020768648"><ele>308.0</ele><time>2026-04-11T08:17:04Z</time></trkpt><trkpt lat="42.9930431885004" lon="11.686624586775965"><ele>308.0</ele><time>2026-04-11T08:17:05Z</time></trkpt><trkpt lat="42.992800249609466" lon="11.686677607006361"><ele>308.0</ele><time>2026-04-11T08:17:06Z</time></trkpt><trkpt lat="42.99255449173206" lon="11.68674139289925"><ele>309.5</ele><time>2026-04-11T08:17:07Z</time></trkpt><trkpt lat="42.99230147688319" lon="11.686807868009328"><ele>311.0</ele><time>2026-04-11T08:17:08Z</time></trkpt><trkpt lat="42.99204899017509" lon="11.68686570656427"><ele>311.0</ele><time>2026-04-11T08:17:09Z</time></trkpt><trkpt lat="42.99180039007953" lon="11.68692238727731"><ele>311.0</ele><time>2026-04-11T08:17:10Z</time></trkpt><trkpt lat="42.991574109711415" lon="11.686968410802264"><ele>309.33333333333337</ele><time>2026-04-11T08:17:11Z</time></trkpt><trkpt lat="42.991373914937924" lon="11.68700763991282"><ele>307.6666666666667</ele><time>2026-04-11T08:17:12Z</time></trkpt><trkpt lat="42.99120366856734" lon="11.687046298001432"><ele>306.0</ele><time>2026-04-11T08:17:13Z</time></trkpt><trkpt lat="42.99105220287379" lon="11.68709528986726"><ele>306.0</ele><time>2026-04-11T08:17:14Z</time></trkpt><trkpt lat="42.99092351227566" lon="11.687190723846854"><ele>306.0</ele><time>2026-04-11T08:17:15Z</time></trkpt><trkpt lat="42.99082123947432" lon="11.687337893402328"><ele>306.0</ele><time>2026-04-11T08:17:16Z</time></trkpt><trkpt lat="42.99073656373498" lon="11.687512201692668"><ele>306.0</ele><time>2026-04-11T08:17:17Z</time></trkpt><trkpt lat="42.99069300987646" lon="11.687718114492274"><ele>306.3333333333333</ele><time>2026-04-11T08:17:18Z</time></trkpt><trkpt lat="42.99068872114765" lon="11.687950932752374"><ele>306.66666666666663</ele><time>2026-04-11T08:17:19Z</time></trkpt><trkpt lat="42.990680788960915" lon="11.688210650807617"><ele>307.0</ele><time>2026-04-11T08:17:20Z</time></trkpt><trkpt lat="42.99067363601137" lon="11.688459301775412"><ele>307.66666666666663</ele><time>2026-04-11T08:17:21Z</time></trkpt><trkpt lat="42.990658230411825" lon="11.688679357554578"><ele>308.3333333333333</ele><time>2026-04-11T08:17:22Z</time></trkpt><trkpt lat="42.990588123428076" lon="11.688880446792462"><ele>309.0</ele><time>2026-04-11T08:17:23Z</time></trkpt><trkpt lat="42.99047504132234" lon="11.689071315225146"><ele>309.0</ele><time>2026-04-11T08:17:24Z</time></trkpt><trkpt lat="42.99034459759389" lon="11.689250846421793"><ele>309.0</ele><time>2026-04-11T08:17:25Z</time></trkpt><trkpt lat="42.99021327236374" lon="11.689430130345114"><ele>309.0</ele><time>2026-04-11T08:17:26Z</time></trkpt><trkpt lat="42.99008032271114" lon="11.689610747891797"><ele>309.3333333333333</ele><time>2026-04-11T08:17:27Z</time></trkpt><trkpt lat="42.989961588749466" lon="11.689782454552518"><ele>309.66666666666663</ele><time>2026-04-11T08:17:28Z</time></trkpt><trkpt lat="42.989840239318205" lon="11.689945415508745"><ele>310.0</ele><time>2026-04-11T08:17:29Z</time></trkpt><trkpt lat="42.989717612599364" lon="11.690116876063707"><ele>311.3333333333333</ele><time>2026-04-11T08:17:30Z</time></trkpt><trkpt lat="42.98960063119833" lon="11.690296378808698"><ele>312.6666666666667</ele><time>2026-04-11T08:17:31Z</time></trkpt><trkpt lat="42.98947966707569" lon="11.6904798423159"><ele>314.0</ele><time>2026-04-11T08:17:32Z</time></trkpt><trkpt lat="42.98934619224906" lon="11.6906603332532"><ele>314.0</ele><time>2026-04-11T08:17:33Z</time></trkpt><trkpt lat="42.98920632894717" lon="11.69085328525417"><ele>314.0</ele><time>2026-04-11T08:17:34Z</time></trkpt><trkpt lat="42.989056505594526" lon="11.691062311719184"><ele>314.0</ele><time>2026-04-11T08:17:35Z</time></trkpt><trkpt lat="42.988908014885375" lon="11.691272736114495"><ele>315.33333333333337</ele><time>2026-04-11T08:17:36Z</time></trkpt><trkpt lat="42.98876043916514" lon="11.691486577444753"><ele>316.6666666666667</ele><time>2026-04-11T08:17:37Z</time></trkpt><trkpt lat="42.9886046210808" lon="11.691709609468178"><ele>318.0</ele><time>2026-04-11T08:17:38Z</time></trkpt><trkpt lat="42.988442612362064" lon="11.691935583862545"><ele>317.5</ele><time>2026-04-11T08:17:39Z</time></trkpt><trkpt lat="42.98827432512315" lon="11.6921713410749"><ele>317.0</ele><time>2026-04-11T08:17:40Z</time></trkpt><trkpt lat="42.98810723445286" lon="11.692412815657619"><ele>317.0</ele><time>2026-04-11T08:17:41Z</time></trkpt><trkpt lat="42.987931880293175" lon="11.692654861968917"><ele>317.0</ele><time>2026-04-11T08:17:42Z</time></trkpt><trkpt lat="42.987759517463765" lon="11.692896771991"><ele>317.5</ele><time>2026-04-11T08:17:43Z</time></trkpt><trkpt lat="42.98758690456541" lon="11.693138401252828"><ele>318.0</ele><time>2026-04-11T08:17:44Z</time></trkpt><trkpt lat="42.987410171382564" lon="11.69337656114701"><ele>321.0</ele><time>2026-04-11T08:17:45Z</time></trkpt><trkpt lat="42.98723330461265" lon="11.69361655354788"><ele>324.0</ele><time>2026-04-11T08:17:46Z</time></trkpt><trkpt lat="42.98705849586738" lon="11.693858786989125"><ele>324.0</ele><time>2026-04-11T08:17:47Z</time></trkpt><trkpt lat="42.986880722209186" lon="11.694107600194537"><ele>324.0</ele><time>2026-04-11T08:17:48Z</time></trkpt><trkpt lat="42.986699640530055" lon="11.694360575099777"><ele>323.0</ele><time>2026-04-11T08:17:49Z</time></trkpt><trkpt lat="42.98651675793906" lon="11.694616756928042"><ele>322.0</ele><time>2026-04-11T08:17:50Z</time></trkpt><trkpt lat="42.98633442733528" lon="11.694875489149387"><ele>322.0</ele><time>2026-04-11T08:17:51Z</time></trkpt><trkpt lat="42.986149216893764" lon="11.695133905153126"><ele>322.0</ele><time>2026-04-11T08:17:52Z</time></trkpt><trkpt lat="42.98596660166477" lon="11.695392589144513"><ele>321.0</ele><time>2026-04-11T08:17:53Z</time></trkpt><trkpt lat="42.985784133757726" lon="11.695654847108806"><ele>320.0</ele><time>2026-04-11T08:17:54Z</time></trkpt><trkpt lat="42.98560052055064" lon="11.69591795733242"><ele>320.5</ele><time>2026-04-11T08:17:55Z</time></trkpt><trkpt lat="42.98542006881202" lon="11.696186273111785"><ele>321.0</ele><time>2026-04-11T08:17:56Z</time></trkpt><trkpt lat="42.98524065767929" lon="11.696456284903405"><ele>321.0</ele><time>2026-04-11T08:17:57.001Z</time></trkpt><trkpt lat="42.985067206971905" lon="11.696735294316273"><ele>321.0</ele><time>2026-04-11T08:17:58.001Z</time></trkpt><trkpt lat="42.98490031099565" lon="11.697016886541972"><ele>320.5</ele><time>2026-04-11T08:17:59.001Z</time></trkpt><trkpt lat="42.984738328216196" lon="11.697308783058116"><ele>320.0</ele><time>2026-04-11T08:18:00.001Z</time></trkpt><trkpt lat="42.984576293338726" lon="11.697597325049236"><ele>323.5</ele><time>2026-04-11T08:18:01.001Z</time></trkpt><trkpt lat="42.984419561505" lon="11.697888889600383"><ele>327.0</ele><time>2026-04-11T08:18:02.001Z</time></trkpt><trkpt lat="42.98426775469749" lon="11.69818522440878"><ele>326.5</ele><time>2026-04-11T08:18:03.001Z</time></trkpt><trkpt lat="42.98411704422944" lon="11.698479992673482"><ele>326.0</ele><time>2026-04-11T08:18:04.001Z</time></trkpt><trkpt lat="42.98397459561942" lon="11.698778538584898"><ele>329.0</ele><time>2026-04-11T08:18:05.001Z</time></trkpt><trkpt lat="42.98383631930766" lon="11.699091700450312"><ele>332.0</ele><time>2026-04-11T08:18:06.001Z</time></trkpt><trkpt lat="42.9836988290517" lon="11.69939427454951"><ele>336.5</ele><time>2026-04-11T08:18:07.001Z</time></trkpt><trkpt lat="42.9835674066935" lon="11.699710261171989"><ele>341.0</ele><time>2026-04-11T08:18:08.001Z</time></trkpt><trkpt lat="42.983439124571234" lon="11.700028938658782"><ele>338.0</ele><time>2026-04-11T08:18:09.001Z</time></trkpt><trkpt lat="42.98331410044241" lon="11.700352372636393"><ele>335.0</ele><time>2026-04-11T08:18:10.001Z</time></trkpt><trkpt lat="42.98318804312581" lon="11.700674088360978"><ele>335.0</ele><time>2026-04-11T08:18:11.001Z</time></trkpt><trkpt lat="42.98306457658217" lon="11.700999998304766"><ele>335.0</ele><time>2026-04-11T08:18:12.001Z</time></trkpt><trkpt lat="42.98294787331277" lon="11.701333477583285"><ele>336.5</ele><time>2026-04-11T08:18:13.001Z</time></trkpt><trkpt lat="42.98283094080253" lon="11.701667208457362"><ele>338.0</ele><time>2026-04-11T08:18:14.001Z</time></trkpt><trkpt lat="42.98270807666367" lon="11.701999377244958"><ele>340.0</ele><time>2026-04-11T08:18:15.001Z</time></trkpt><trkpt lat="42.98258217131212" lon="11.702322898719656"><ele>342.0</ele><time>2026-04-11T08:18:16.001Z</time></trkpt><trkpt lat="42.98245156757863" lon="11.702639669679142"><ele>345.5</ele><time>2026-04-11T08:18:17.001Z</time></trkpt><trkpt lat="42.98231167346645" lon="11.702945635160685"><ele>349.0</ele><time>2026-04-11T08:18:18.001Z</time></trkpt><trkpt lat="42.982166659360935" lon="11.703247343335834"><ele>349.0</ele><time>2026-04-11T08:18:19.001Z</time></trkpt><trkpt lat="42.98201239046601" lon="11.703534392156392"><ele>349.0</ele><time>2026-04-11T08:18:20.001Z</time></trkpt><trkpt lat="42.98184719719381" lon="11.703811848380505"><ele>350.5</ele><time>2026-04-11T08:18:21.001Z</time></trkpt><trkpt lat="42.98166962765061" lon="11.70407451856078"><ele>352.0</ele><time>2026-04-11T08:18:22.001Z</time></trkpt><trkpt lat="42.981488273207724" lon="11.704337508534818"><ele>350.5</ele><time>2026-04-11T08:18:23.001Z</time></trkpt><trkpt lat="42.98129352256101" lon="11.70458756932405"><ele>349.0</ele><time>2026-04-11T08:18:24.001Z</time></trkpt><trkpt lat="42.98108518865552" lon="11.704824832816707"><ele>349.0</ele><time>2026-04-11T08:18:25.001Z</time></trkpt><trkpt lat="42.980867943980606" lon="11.705055814881716"><ele>349.0</ele><time>2026-04-11T08:18:26.001Z</time></trkpt><trkpt lat="42.98064050386753" lon="11.705273526548051"><ele>352.0</ele><time>2026-04-11T08:18:27.001Z</time></trkpt><trkpt lat="42.98040174055065" lon="11.705468606294215"><ele>355.0</ele><time>2026-04-11T08:18:28.001Z</time></trkpt><trkpt lat="42.9801527761545" lon="11.70564843196191"><ele>355.0</ele><time>2026-04-11T08:18:29.001Z</time></trkpt><trkpt lat="42.979892448955276" lon="11.705813763634504"><ele>355.0</ele><time>2026-04-11T08:18:30.001Z</time></trkpt><trkpt lat="42.979623974482244" lon="11.705964476863818"><ele>353.5</ele><time>2026-04-11T08:18:31.001Z</time></trkpt><trkpt lat="42.9793473454121" lon="11.706092100389473"><ele>352.0</ele><time>2026-04-11T08:18:32.001Z</time></trkpt><trkpt lat="42.979062531271715" lon="11.706197937308973"><ele>352.0</ele><time>2026-04-11T08:18:33.001Z</time></trkpt><trkpt lat="42.9787735728028" lon="11.706284447860064"><ele>352.0</ele><time>2026-04-11T08:18:34.001Z</time></trkpt><trkpt lat="42.97847788960904" lon="11.706348592365474"><ele>351.0</ele><time>2026-04-11T08:18:35.001Z</time></trkpt><trkpt lat="42.97817633539987" lon="11.706394689833143"><ele>350.0</ele><time>2026-04-11T08:18:36.001Z</time></trkpt><trkpt lat="42.97787201584394" lon="11.70641395315338"><ele>350.0</ele><time>2026-04-11T08:18:37.001Z</time></trkpt><trkpt lat="42.97756722787416" lon="11.706411341265436"><ele>350.0</ele><time>2026-04-11T08:18:38.001Z</time></trkpt><trkpt lat="42.9772580713376" lon="11.706400625487126"><ele>351.0</ele><time>2026-04-11T08:18:39.001Z</time></trkpt><trkpt lat="42.97694928998341" lon="11.706385217789174"><ele>352.0</ele><time>2026-04-11T08:18:40.001Z</time></trkpt><trkpt lat="42.97664094817616" lon="11.706356141548527"><ele>352.0</ele><time>2026-04-11T08:18:41.001Z</time></trkpt><trkpt lat="42.97633393271832" lon="11.706322373430153"><ele>352.0</ele><time>2026-04-11T08:18:42.001Z</time></trkpt><trkpt lat="42.97602800533465" lon="11.70628688616169"><ele>352.5</ele><time>2026-04-11T08:18:43.001Z</time></trkpt><trkpt lat="42.9757224526917" lon="11.706252550017382"><ele>353.0</ele><time>2026-04-11T08:18:44.001Z</time></trkpt><trkpt lat="42.97541662927578" lon="11.70621876358945"><ele>353.0</ele><time>2026-04-11T08:18:45.001Z</time></trkpt><trkpt lat="42.975109551971165" lon="11.70618778772077"><ele>353.0</ele><time>2026-04-11T08:18:46.001Z</time></trkpt><trkpt lat="42.97480065097346" lon="11.706159584744604"><ele>353.0</ele><time>2026-04-11T08:18:47.001Z</time></trkpt><trkpt lat="42.97449358404901" lon="11.706125375527755"><ele>353.0</ele><time>2026-04-11T08:18:48.001Z</time></trkpt><trkpt lat="42.974185928689174" lon="11.706092448123202"><ele>358.0</ele><time>2026-04-11T08:18:49.001Z</time></trkpt><trkpt lat="42.9738804340449" lon="11.706063373287268"><ele>363.0</ele><time>2026-04-11T08:18:50.001Z</time></trkpt><trkpt lat="42.973574769953274" lon="11.706031373199819"><ele>362.5</ele><time>2026-04-11T08:18:51.001Z</time></trkpt><trkpt lat="42.97326717338878" lon="11.706000975759842"><ele>362.0</ele><time>2026-04-11T08:18:52.001Z</time></trkpt><trkpt lat="42.97296055516243" lon="11.70597315315191"><ele>362.0</ele><time>2026-04-11T08:18:53.001Z</time></trkpt><trkpt lat="42.97265117925681" lon="11.70594481212206"><ele>362.0</ele><time>2026-04-11T08:18:54.001Z</time></trkpt><trkpt lat="42.972339634547794" lon="11.705915941857878"><ele>362.0</ele><time>2026-04-11T08:18:55.001Z</time></trkpt><trkpt lat="42.97203080624446" lon="11.705885540130955"><ele>362.0</ele><time>2026-04-11T08:18:56.001Z</time></trkpt><trkpt lat="42.971720851314835" lon="11.70584911458915"><ele>361.0</ele><time>2026-04-11T08:18:57.001Z</time></trkpt><trkpt lat="42.971411614271396" lon="11.705815779308546"><ele>360.0</ele><time>2026-04-11T08:18:58.001Z</time></trkpt><trkpt lat="42.97109981782305" lon="11.705784246556457"><ele>361.5</ele><time>2026-04-11T08:18:59.001Z</time></trkpt><trkpt lat="42.97079135779166" lon="11.705755573827991"><ele>363.0</ele><time>2026-04-11T08:19:00.001Z</time></trkpt><trkpt lat="42.97047926105523" lon="11.705726518514524"><ele>363.0</ele><time>2026-04-11T08:19:01.001Z</time></trkpt><trkpt lat="42.97017166236693" lon="11.70570221027768"><ele>363.0</ele><time>2026-04-11T08:19:02.001Z</time></trkpt><trkpt lat="42.96985980283174" lon="11.705683863141525"><ele>363.5</ele><time>2026-04-11T08:19:03.001Z</time></trkpt><trkpt lat="42.969551591726194" lon="11.705668912451346"><ele>364.0</ele><time>2026-04-11T08:19:04.001Z</time></trkpt><trkpt lat="42.96923559163536" lon="11.705669204296505"><ele>364.5</ele><time>2026-04-11T08:19:05.001Z</time></trkpt><trkpt lat="42.968924155352894" lon="11.705674452835053"><ele>365.0</ele><time>2026-04-11T08:19:06.001Z</time></trkpt><trkpt lat="42.96861196815952" lon="11.705683186287951"><ele>365.5</ele><time>2026-04-11T08:19:07.001Z</time></trkpt><trkpt lat="42.968302625809194" lon="11.705690209305487"><ele>366.0</ele><time>2026-04-11T08:19:08.001Z</time></trkpt><trkpt lat="42.96799105105018" lon="11.705702634256648"><ele>366.0</ele><time>2026-04-11T08:19:09.001Z</time></trkpt><trkpt lat="42.967679232450614" lon="11.705716174415874"><ele>366.0</ele><time>2026-04-11T08:19:10.001Z</time></trkpt><trkpt lat="42.96737022858316" lon="11.70572982017525"><ele>367.5</ele><time>2026-04-11T08:19:11.001Z</time></trkpt><trkpt lat="42.96706083913412" lon="11.705740795053046"><ele>369.0</ele><time>2026-04-11T08:19:12.001Z</time></trkpt><trkpt lat="42.96675497958261" lon="11.705748654627381"><ele>369.0</ele><time>2026-04-11T08:19:13.001Z</time></trkpt><trkpt lat="42.96645019240046" lon="11.70575969001979"><ele>369.0</ele><time>2026-04-11T08:19:14.001Z</time></trkpt><trkpt lat="42.966145936368314" lon="11.705770225641785"><ele>371.0</ele><time>2026-04-11T08:19:15.001Z</time></trkpt><trkpt lat="42.96584041043707" lon="11.705781766038022"><ele>373.0</ele><time>2026-04-11T08:19:16.001Z</time></trkpt><trkpt lat="42.96553836793436" lon="11.70579324765117"><ele>373.0</ele><time>2026-04-11T08:19:17.001Z</time></trkpt><trkpt lat="42.96523672181944" lon="11.705804554270948"><ele>373.0</ele><time>2026-04-11T08:19:18.001Z</time></trkpt><trkpt lat="42.96493409957077" lon="11.705816683627674"><ele>372.5</ele><time>2026-04-11T08:19:19.001Z</time></trkpt><trkpt lat="42.96463447383305" lon="11.705825436963249"><ele>372.0</ele><time>2026-04-11T08:19:20.001Z</time></trkpt><trkpt lat="42.96433306731835" lon="11.705833812815875"><ele>371.5</ele><time>2026-04-11T08:19:21.001Z</time></trkpt><trkpt lat="42.96403385138998" lon="11.705841872128365"><ele>371.0</ele><time>2026-04-11T08:19:22.001Z</time></trkpt><trkpt lat="42.96373630415147" lon="11.70585430652577"><ele>371.0</ele><time>2026-04-11T08:19:23.001Z</time></trkpt><trkpt lat="42.963438361913234" lon="11.705864950829898"><ele>371.0</ele><time>2026-04-11T08:19:24.001Z</time></trkpt><trkpt lat="42.96314031266084" lon="11.705876057116932"><ele>372.5</ele><time>2026-04-11T08:19:25.001Z</time></trkpt><trkpt lat="42.962843891477256" lon="11.705884659746154"><ele>374.0</ele><time>2026-04-11T08:19:26.001Z</time></trkpt><trkpt lat="42.96255210134005" lon="11.705881502073236"><ele>375.0</ele><time>2026-04-11T08:19:27.001Z</time></trkpt><trkpt lat="42.96225528622177" lon="11.70589610965583"><ele>376.0</ele><time>2026-04-11T08:19:28.001Z</time></trkpt><trkpt lat="42.961956167189584" lon="11.705917343153146"><ele>378.0</ele><time>2026-04-11T08:19:29.001Z</time></trkpt><trkpt lat="42.961661655261544" lon="11.705942740759442"><ele>380.0</ele><time>2026-04-11T08:19:30.001Z</time></trkpt><trkpt lat="42.961367592281405" lon="11.705970680572552"><ele>380.0</ele><time>2026-04-11T08:19:31.001Z</time></trkpt><trkpt lat="42.961072766902824" lon="11.706002043601142"><ele>380.0</ele><time>2026-04-11T08:19:32.001Z</time></trkpt><trkpt lat="42.96078160924952" lon="11.706033566516396"><ele>380.0</ele><time>2026-04-11T08:19:33.001Z</time></trkpt><trkpt lat="42.960491269512566" lon="11.706067568392601"><ele>380.0</ele><time>2026-04-11T08:19:34.001Z</time></trkpt><trkpt lat="42.96019943790677" lon="11.706101037116397"><ele>378.0</ele><time>2026-04-11T08:19:35.001Z</time></trkpt><trkpt lat="42.959909259912735" lon="11.70612750530799"><ele>376.0</ele><time>2026-04-11T08:19:36.001Z</time></trkpt><trkpt lat="42.95962164971403" lon="11.706157081641294"><ele>376.0</ele><time>2026-04-11T08:19:37.001Z</time></trkpt><trkpt lat="42.959331287768926" lon="11.706199255852795"><ele>376.0</ele><time>2026-04-11T08:19:38.001Z</time></trkpt><trkpt lat="42.95903730003246" lon="11.706248069392016"><ele>376.5</ele><time>2026-04-11T08:19:39.001Z</time></trkpt><trkpt lat="42.958740786221234" lon="11.706303009558134"><ele>377.0</ele><time>2026-04-11T08:19:40.001Z</time></trkpt><trkpt lat="42.95844052749018" lon="11.706360536898236"><ele>379.0</ele><time>2026-04-11T08:19:41.001Z</time></trkpt><trkpt lat="42.95813675761311" lon="11.706411038612508"><ele>381.0</ele><time>2026-04-11T08:19:42.001Z</time></trkpt><trkpt lat="42.957825474072784" lon="11.706466135092661"><ele>382.5</ele><time>2026-04-11T08:19:43.001Z</time></trkpt><trkpt lat="42.95751424948516" lon="11.706526544205461"><ele>384.0</ele><time>2026-04-11T08:19:44.001Z</time></trkpt><trkpt lat="42.957199344326895" lon="11.706585924957603"><ele>384.0</ele><time>2026-04-11T08:19:45.001Z</time></trkpt><trkpt lat="42.95688519032017" lon="11.706637643582983"><ele>384.0</ele><time>2026-04-11T08:19:46.001Z</time></trkpt><trkpt lat="42.95656435672175" lon="11.70669246438001"><ele>385.5</ele><time>2026-04-11T08:19:47.001Z</time></trkpt><trkpt lat="42.95624219782633" lon="11.706747944518142"><ele>387.0</ele><time>2026-04-11T08:19:48.001Z</time></trkpt><trkpt lat="42.955921297062986" lon="11.70680675788336"><ele>389.0</ele><time>2026-04-11T08:19:49.001Z</time></trkpt><trkpt lat="42.95560141149014" lon="11.7068663753242"><ele>391.0</ele><time>2026-04-11T08:19:50.001Z</time></trkpt><trkpt lat="42.95528217050782" lon="11.706916920616909"><ele>387.0</ele><time>2026-04-11T08:19:51.001Z</time></trkpt><trkpt lat="42.954964285584005" lon="11.706970544942072"><ele>383.0</ele><time>2026-04-11T08:19:52.001Z</time></trkpt><trkpt lat="42.9546463911891" lon="11.70702807293271"><ele>383.0</ele><time>2026-04-11T08:19:53.001Z</time></trkpt><trkpt lat="42.95432669967658" lon="11.707080978657153"><ele>383.0</ele><time>2026-04-11T08:19:54.001Z</time></trkpt><trkpt lat="42.95400863890817" lon="11.70713397703616"><ele>384.0</ele><time>2026-04-11T08:19:55.001Z</time></trkpt><trkpt lat="42.95368939346534" lon="11.707190349915775"><ele>385.0</ele><time>2026-04-11T08:19:56.001Z</time></trkpt><trkpt lat="42.95336952388898" lon="11.707243325115746"><ele>386.5</ele><time>2026-04-11T08:19:57.001Z</time></trkpt><trkpt lat="42.953051928707396" lon="11.707304106520356"><ele>388.0</ele><time>2026-04-11T08:19:58.001Z</time></trkpt><trkpt lat="42.95273351751318" lon="11.707360152581634"><ele>391.0</ele><time>2026-04-11T08:19:59.001Z</time></trkpt><trkpt lat="42.95241598089384" lon="11.707413449048047"><ele>394.0</ele><time>2026-04-11T08:20:00.001Z</time></trkpt><trkpt lat="42.95209957646106" lon="11.707468360568758"><ele>394.0</ele><time>2026-04-11T08:20:01.001Z</time></trkpt><trkpt lat="42.95178457608747" lon="11.707521886396249"><ele>394.0</ele><time>2026-04-11T08:20:02.001Z</time></trkpt><trkpt lat="42.95146807076883" lon="11.707579949171487"><ele>394.5</ele><time>2026-04-11T08:20:03.001Z</time></trkpt><trkpt lat="42.95115185803618" lon="11.707636968455796"><ele>395.0</ele><time>2026-04-11T08:20:04.001Z</time></trkpt><trkpt lat="42.95084042589876" lon="11.707691389507133"><ele>393.5</ele><time>2026-04-11T08:20:05.001Z</time></trkpt><trkpt lat="42.950534590933515" lon="11.707746657650528"><ele>392.0</ele><time>2026-04-11T08:20:06.001Z</time></trkpt><trkpt lat="42.95023422586525" lon="11.707797869991662"><ele>393.5</ele><time>2026-04-11T08:20:07.001Z</time></trkpt><trkpt lat="42.94993225215305" lon="11.70785723650299"><ele>395.0</ele><time>2026-04-11T08:20:08.001Z</time></trkpt><trkpt lat="42.94962775758288" lon="11.707924173266978"><ele>395.0</ele><time>2026-04-11T08:20:09.001Z</time></trkpt><trkpt lat="42.94932615843959" lon="11.70800869852418"><ele>395.0</ele><time>2026-04-11T08:20:10.001Z</time></trkpt><trkpt lat="42.94902926929544" lon="11.708120346640952"><ele>396.0</ele><time>2026-04-11T08:20:11.001Z</time></trkpt><trkpt lat="42.94873698767061" lon="11.708262802200238"><ele>397.0</ele><time>2026-04-11T08:20:12.001Z</time></trkpt><trkpt lat="42.94844829869239" lon="11.708421433369345"><ele>396.0</ele><time>2026-04-11T08:20:13.001Z</time></trkpt><trkpt lat="42.948157782115" lon="11.708586006389272"><ele>395.0</ele><time>2026-04-11T08:20:14.001Z</time></trkpt><trkpt lat="42.94786234225524" lon="11.708742236243417"><ele>395.0</ele><time>2026-04-11T08:20:15.001Z</time></trkpt><trkpt lat="42.94756299661861" lon="11.708893532954034"><ele>395.0</ele><time>2026-04-11T08:20:16.001Z</time></trkpt><trkpt lat="42.947261450677175" lon="11.709039963565889"><ele>396.5</ele><time>2026-04-11T08:20:17.001Z</time></trkpt><trkpt lat="42.94696685755492" lon="11.709188274843148"><ele>398.0</ele><time>2026-04-11T08:20:18.001Z</time></trkpt><trkpt lat="42.946672500603775" lon="11.70933883212692"><ele>398.0</ele><time>2026-04-11T08:20:19.001Z</time></trkpt><trkpt lat="42.94637709311475" lon="11.70948882874755"><ele>398.0</ele><time>2026-04-11T08:20:20.001Z</time></trkpt><trkpt lat="42.9460841957765" lon="11.709634605534749"><ele>399.0</ele><time>2026-04-11T08:20:21.001Z</time></trkpt><trkpt lat="42.94579249575278" lon="11.709784858981141"><ele>400.0</ele><time>2026-04-11T08:20:22.001Z</time></trkpt><trkpt lat="42.9455009318058" lon="11.709920613935445"><ele>400.0</ele><time>2026-04-11T08:20:23.001Z</time></trkpt><trkpt lat="42.94520660370672" lon="11.7100499800867"><ele>400.0</ele><time>2026-04-11T08:20:24.001Z</time></trkpt><trkpt lat="42.94491045050609" lon="11.71016079571748"><ele>400.0</ele><time>2026-04-11T08:20:25.001Z</time></trkpt><trkpt lat="42.944610552992835" lon="11.710247972104495"><ele>400.0</ele><time>2026-04-11T08:20:26.001Z</time></trkpt><trkpt lat="42.94430453702998" lon="11.710310221550492"><ele>401.5</ele><time>2026-04-11T08:20:27.001Z</time></trkpt><trkpt lat="42.9439981120191" lon="11.71035248365845"><ele>403.0</ele><time>2026-04-11T08:20:28.001Z</time></trkpt><trkpt lat="42.94369227191919" lon="11.710390377372091"><ele>403.0</ele><time>2026-04-11T08:20:29.001Z</time></trkpt><trkpt lat="42.94339327729417" lon="11.710431623269438"><ele>403.0</ele><time>2026-04-11T08:20:30.001Z</time></trkpt><trkpt lat="42.9430888766718" lon="11.71049160730847"><ele>404.0</ele><time>2026-04-11T08:20:31.001Z</time></trkpt><trkpt lat="42.942785041967845" lon="11.71054179287525"><ele>405.0</ele><time>2026-04-11T08:20:32.001Z</time></trkpt><trkpt lat="42.94248396405305" lon="11.71059202879791"><ele>405.0</ele><time>2026-04-11T08:20:33.001Z</time></trkpt><trkpt lat="42.94218052991227" lon="11.71063945539731"><ele>405.0</ele><time>2026-04-11T08:20:34.001Z</time></trkpt><trkpt lat="42.94188212489165" lon="11.710680555065299"><ele>408.0</ele><time>2026-04-11T08:20:35.001Z</time></trkpt><trkpt lat="42.9415865531912" lon="11.710735225354528"><ele>411.0</ele><time>2026-04-11T08:20:36.001Z</time></trkpt><trkpt lat="42.94129293910294" lon="11.710815546578855"><ele>411.0</ele><time>2026-04-11T08:20:37.001Z</time></trkpt><trkpt lat="42.9410023200178" lon="11.710905941613994"><ele>411.0</ele><time>2026-04-11T08:20:38.001Z</time></trkpt><trkpt lat="42.9407171585973" lon="11.711007326479956"><ele>410.5</ele><time>2026-04-11T08:20:39.001Z</time></trkpt><trkpt lat="42.94044277435836" lon="11.711129486929428"><ele>410.0</ele><time>2026-04-11T08:20:40.001Z</time></trkpt><trkpt lat="42.94017372269835" lon="11.711257962382918"><ele>413.0</ele><time>2026-04-11T08:20:41.001Z</time></trkpt><trkpt lat="42.939912679554666" lon="11.711389837430401"><ele>416.0</ele><time>2026-04-11T08:20:42.001Z</time></trkpt><trkpt lat="42.93965273699939" lon="11.711517949607261"><ele>416.0</ele><time>2026-04-11T08:20:43.001Z</time></trkpt><trkpt lat="42.93939792592882" lon="11.711649596647542"><ele>416.0</ele><time>2026-04-11T08:20:44.001Z</time></trkpt><trkpt lat="42.939143630642334" lon="11.71177757242952"><ele>416.0</ele><time>2026-04-11T08:20:45.001Z</time></trkpt><trkpt lat="42.938885687367275" lon="11.71190266840175"><ele>416.0</ele><time>2026-04-11T08:20:46.001Z</time></trkpt><trkpt lat="42.93862662067869" lon="11.71202563286606"><ele>418.0</ele><time>2026-04-11T08:20:47.001Z</time></trkpt><trkpt lat="42.93837606320173" lon="11.712146355430328"><ele>420.0</ele><time>2026-04-11T08:20:48.001Z</time></trkpt><trkpt lat="42.93813639563326" lon="11.71226485840459"><ele>420.0</ele><time>2026-04-11T08:20:49.001Z</time></trkpt><trkpt lat="42.93791275198563" lon="11.712381107748458"><ele>420.0</ele><time>2026-04-11T08:20:50.001Z</time></trkpt><trkpt lat="42.93769101935236" lon="11.712494210883822"><ele>420.0</ele><time>2026-04-11T08:20:51.001Z</time></trkpt><trkpt lat="42.937461426651026" lon="11.712610693356222"><ele>420.0</ele><time>2026-04-11T08:20:52.001Z</time></trkpt><trkpt lat="42.9372221718118" lon="11.712736229794677"><ele>421.5</ele><time>2026-04-11T08:20:53.001Z</time></trkpt><trkpt lat="42.936977887303236" lon="11.71286025643921"><ele>423.0</ele><time>2026-04-11T08:20:54.001Z</time></trkpt><trkpt lat="42.936727734911365" lon="11.712987716994373"><ele>426.0</ele><time>2026-04-11T08:20:55.001Z</time></trkpt><trkpt lat="42.93647210460791" lon="11.713107868183277"><ele>429.0</ele><time>2026-04-11T08:20:56.001Z</time></trkpt><trkpt lat="42.936228873701864" lon="11.713257307615386"><ele>429.0</ele><time>2026-04-11T08:20:57.002Z</time></trkpt><trkpt lat="42.935952609573555" lon="11.713358621187675"><ele>429.0</ele><time>2026-04-11T08:20:58.002Z</time></trkpt><trkpt lat="42.93568502265773" lon="11.713465593414817"><ele>430.0</ele><time>2026-04-11T08:20:59.002Z</time></trkpt><trkpt lat="42.93541785165086" lon="11.713568430826221"><ele>431.0</ele><time>2026-04-11T08:21:00.002Z</time></trkpt><trkpt lat="42.93514933115795" lon="11.713670499570876"><ele>436.5</ele><time>2026-04-11T08:21:01.002Z</time></trkpt><trkpt lat="42.93488643533414" lon="11.713769296389572"><ele>442.0</ele><time>2026-04-11T08:21:02.002Z</time></trkpt><trkpt lat="42.93461590143834" lon="11.713856147071198"><ele>442.0</ele><time>2026-04-11T08:21:03.002Z</time></trkpt><trkpt lat="42.93434680157279" lon="11.713941035723284"><ele>442.0</ele><time>2026-04-11T08:21:04.002Z</time></trkpt><trkpt lat="42.93407451447351" lon="11.714020048095822"><ele>439.5</ele><time>2026-04-11T08:21:05.002Z</time></trkpt><trkpt lat="42.93380261522765" lon="11.71409277310934"><ele>437.0</ele><time>2026-04-11T08:21:06.002Z</time></trkpt><trkpt lat="42.93352915182786" lon="11.714159706521913"><ele>434.5</ele><time>2026-04-11T08:21:07.002Z</time></trkpt><trkpt lat="42.9332546171378" lon="11.714221185497191"><ele>432.0</ele><time>2026-04-11T08:21:08.002Z</time></trkpt><trkpt lat="42.93297676377015" lon="11.714272475357681"><ele>432.0</ele><time>2026-04-11T08:21:09.002Z</time></trkpt><trkpt lat="42.93270658262208" lon="11.714325156269659"><ele>432.0</ele><time>2026-04-11T08:21:10.002Z</time></trkpt><trkpt lat="42.93243628825849" lon="11.71438686023716"><ele>432.0</ele><time>2026-04-11T08:21:11.002Z</time></trkpt><trkpt lat="42.93216535582543" lon="11.714445868973641"><ele>432.0</ele><time>2026-04-11T08:21:12.002Z</time></trkpt><trkpt lat="42.93189814156116" lon="11.71450438650047"><ele>434.5</ele><time>2026-04-11T08:21:13.001Z</time></trkpt><trkpt lat="42.93162888441654" lon="11.71456518518279"><ele>437.0</ele><time>2026-04-11T08:21:14.001Z</time></trkpt><trkpt lat="42.93136250460247" lon="11.714626776951981"><ele>437.0</ele><time>2026-04-11T08:21:15.001Z</time></trkpt><trkpt lat="42.93110671679754" lon="11.714721195638244"><ele>437.0</ele><time>2026-04-11T08:21:16.001Z</time></trkpt><trkpt lat="42.93085657213455" lon="11.714855923933133"><ele>438.5</ele><time>2026-04-11T08:21:17.001Z</time></trkpt><trkpt lat="42.93062198000425" lon="11.715032657018476"><ele>440.0</ele><time>2026-04-11T08:21:18.001Z</time></trkpt><trkpt lat="42.93040704039257" lon="11.715247647909878"><ele>440.0</ele><time>2026-04-11T08:21:19.001Z</time></trkpt><trkpt lat="42.9302174870064" lon="11.715503678900975"><ele>440.0</ele><time>2026-04-11T08:21:20.001Z</time></trkpt><trkpt lat="42.930025967863706" lon="11.715768433150329"><ele>442.0</ele><time>2026-04-11T08:21:21.001Z</time></trkpt><trkpt lat="42.92982938714953" lon="11.716023734476664"><ele>444.0</ele><time>2026-04-11T08:21:22.001Z</time></trkpt><trkpt lat="42.92961822084681" lon="11.716249119344393"><ele>444.0</ele><time>2026-04-11T08:21:23.001Z</time></trkpt><trkpt lat="42.92938824610623" lon="11.716443356639001"><ele>444.0</ele><time>2026-04-11T08:21:24.001Z</time></trkpt><trkpt lat="42.92914060008399" lon="11.71659033682623"><ele>449.5</ele><time>2026-04-11T08:21:25.001Z</time></trkpt><trkpt lat="42.92888707397911" lon="11.71670181433351"><ele>455.0</ele><time>2026-04-11T08:21:26.001Z</time></trkpt><trkpt lat="42.92862368320605" lon="11.716764229566694"><ele>458.0</ele><time>2026-04-11T08:21:27.001Z</time></trkpt><trkpt lat="42.92835103294689" lon="11.716785921273333"><ele>461.0</ele><time>2026-04-11T08:21:28.001Z</time></trkpt><trkpt lat="42.928073625550276" lon="11.71679214893104"><ele>461.0</ele><time>2026-04-11T08:21:29.001Z</time></trkpt><trkpt lat="42.927792123322135" lon="11.71679775251906"><ele>461.0</ele><time>2026-04-11T08:21:30.001Z</time></trkpt><trkpt lat="42.927508086985945" lon="11.716810796645698"><ele>463.0</ele><time>2026-04-11T08:21:31.001Z</time></trkpt><trkpt lat="42.92722680089049" lon="11.71684237737794"><ele>465.0</ele><time>2026-04-11T08:21:32.001Z</time></trkpt><trkpt lat="42.92694347307859" lon="11.716904672663132"><ele>464.0</ele><time>2026-04-11T08:21:33.001Z</time></trkpt><trkpt lat="42.926668955579466" lon="11.716998081653568"><ele>463.0</ele><time>2026-04-11T08:21:34.001Z</time></trkpt><trkpt lat="42.92639956528891" lon="11.717123113750274"><ele>463.0</ele><time>2026-04-11T08:21:35.001Z</time></trkpt><trkpt lat="42.92613817815487" lon="11.71727887112915"><ele>463.0</ele><time>2026-04-11T08:21:36.001Z</time></trkpt><trkpt lat="42.92588245942095" lon="11.717455574864875"><ele>461.5</ele><time>2026-04-11T08:21:37.001Z</time></trkpt><trkpt lat="42.92562461147857" lon="11.717627492010767"><ele>460.0</ele><time>2026-04-11T08:21:38.001Z</time></trkpt><trkpt lat="42.9253690992809" lon="11.7177837598376"><ele>460.0</ele><time>2026-04-11T08:21:39.001Z</time></trkpt><trkpt lat="42.925104897005475" lon="11.717958137307422"><ele>460.0</ele><time>2026-04-11T08:21:40.001Z</time></trkpt><trkpt lat="42.924840498109525" lon="11.718127641092265"><ele>464.0</ele><time>2026-04-11T08:21:41.001Z</time></trkpt><trkpt lat="42.92458333625672" lon="11.718293789068676"><ele>468.0</ele><time>2026-04-11T08:21:42.001Z</time></trkpt><trkpt lat="42.92432406152769" lon="11.718447411656522"><ele>467.5</ele><time>2026-04-11T08:21:43.001Z</time></trkpt><trkpt lat="42.92406034651691" lon="11.718573609241885"><ele>467.0</ele><time>2026-04-11T08:21:44.001Z</time></trkpt><trkpt lat="42.92379068071417" lon="11.7186525878424"><ele>467.0</ele><time>2026-04-11T08:21:45.001Z</time></trkpt><trkpt lat="42.923517288589686" lon="11.718687027090603"><ele>467.0</ele><time>2026-04-11T08:21:46.001Z</time></trkpt><trkpt lat="42.92323786212801" lon="11.718685240617145"><ele>468.5</ele><time>2026-04-11T08:21:47.001Z</time></trkpt><trkpt lat="42.922958057265504" lon="11.718662444354376"><ele>470.0</ele><time>2026-04-11T08:21:48.001Z</time></trkpt><trkpt lat="42.922672722546245" lon="11.718620093212966"><ele>479.5</ele><time>2026-04-11T08:21:49.001Z</time></trkpt><trkpt lat="42.92238817090419" lon="11.718567595771761"><ele>489.0</ele><time>2026-04-11T08:21:50.001Z</time></trkpt><trkpt lat="42.92209854924844" lon="11.718519927910782"><ele>489.0</ele><time>2026-04-11T08:21:51.001Z</time></trkpt><trkpt lat="42.92180765201584" lon="11.71847375522219"><ele>489.0</ele><time>2026-04-11T08:21:52.001Z</time></trkpt><trkpt lat="42.92152183234926" lon="11.718431709237388"><ele>488.5</ele><time>2026-04-11T08:21:53.001Z</time></trkpt><trkpt lat="42.921245905012434" lon="11.718403119984785"><ele>488.0</ele><time>2026-04-11T08:21:54.001Z</time></trkpt><trkpt lat="42.920977950380696" lon="11.71841614290279"><ele>486.0</ele><time>2026-04-11T08:21:55.001Z</time></trkpt><trkpt lat="42.92071695219706" lon="11.718488266017298"><ele>484.0</ele><time>2026-04-11T08:21:56.001Z</time></trkpt><trkpt lat="42.920462463775884" lon="11.718621803772262"><ele>484.0</ele><time>2026-04-11T08:21:57.001Z</time></trkpt><trkpt lat="42.920213429939515" lon="11.718795203564326"><ele>484.0</ele><time>2026-04-11T08:21:58.001Z</time></trkpt><trkpt lat="42.91997016705779" lon="11.718998159387827"><ele>488.0</ele><time>2026-04-11T08:21:59.001Z</time></trkpt><trkpt lat="42.91973956901653" lon="11.719193659517734"><ele>492.0</ele><time>2026-04-11T08:22:00.001Z</time></trkpt><trkpt lat="42.919512881518145" lon="11.719348940841652"><ele>490.0</ele><time>2026-04-11T08:22:01.001Z</time></trkpt><trkpt lat="42.91928746674838" lon="11.719462990494993"><ele>488.0</ele><time>2026-04-11T08:22:02.001Z</time></trkpt><trkpt lat="42.919053687123196" lon="11.7195150743789"><ele>488.0</ele><time>2026-04-11T08:22:03.001Z</time></trkpt><trkpt lat="42.918806956774425" lon="11.719543226199022"><ele>488.0</ele><time>2026-04-11T08:22:04.001Z</time></trkpt><trkpt lat="42.91853723950373" lon="11.719562106536003"><ele>491.0</ele><time>2026-04-11T08:22:05.001Z</time></trkpt><trkpt lat="42.9182601827713" lon="11.719575036057165"><ele>494.0</ele><time>2026-04-11T08:22:06.001Z</time></trkpt><trkpt lat="42.91797270753719" lon="11.719574092375835"><ele>494.0</ele><time>2026-04-11T08:22:07.001Z</time></trkpt><trkpt lat="42.917677945409295" lon="11.71958691251696"><ele>494.0</ele><time>2026-04-11T08:22:08.001Z</time></trkpt><trkpt lat="42.917378060637745" lon="11.719597869732178"><ele>495.0</ele><time>2026-04-11T08:22:09.001Z</time></trkpt><trkpt lat="42.91708196439857" lon="11.719615214940633"><ele>496.0</ele><time>2026-04-11T08:22:10.001Z</time></trkpt><trkpt lat="42.916785238104474" lon="11.719630697073809"><ele>498.5</ele><time>2026-04-11T08:22:11.001Z</time></trkpt><trkpt lat="42.916489861675686" lon="11.719649892542012"><ele>501.0</ele><time>2026-04-11T08:22:12.001Z</time></trkpt><trkpt lat="42.916198423115624" lon="11.719666839720777"><ele>501.0</ele><time>2026-04-11T08:22:13.001Z</time></trkpt><trkpt lat="42.91591668202366" lon="11.719680840789366"><ele>501.0</ele><time>2026-04-11T08:22:14.001Z</time></trkpt><trkpt lat="42.9156387075365" lon="11.719679121634865"><ele>503.0</ele><time>2026-04-11T08:22:15.001Z</time></trkpt><trkpt lat="42.91536049169895" lon="11.719646252504136"><ele>505.0</ele><time>2026-04-11T08:22:16.001Z</time></trkpt><trkpt lat="42.91509798954464" lon="11.719576124188844"><ele>507.0</ele><time>2026-04-11T08:22:17.001Z</time></trkpt><trkpt lat="42.91485715350612" lon="11.719512813622195"><ele>509.0</ele><time>2026-04-11T08:22:18.001Z</time></trkpt><trkpt lat="42.9146306714201" lon="11.719470305320723"><ele>509.0</ele><time>2026-04-11T08:22:19.001Z</time></trkpt><trkpt lat="42.91441381788732" lon="11.719446146028181"><ele>509.0</ele><time>2026-04-11T08:22:20.001Z</time></trkpt><trkpt lat="42.9141856702025" lon="11.719455168917973"><ele>509.0</ele><time>2026-04-11T08:22:21.001Z</time></trkpt><trkpt lat="42.913955321526586" lon="11.719480909124721"><ele>509.5</ele><time>2026-04-11T08:22:22.001Z</time></trkpt><trkpt lat="42.91372161505884" lon="11.719548496948939"><ele>510.0</ele><time>2026-04-11T08:22:23.001Z</time></trkpt><trkpt lat="42.913484548284174" lon="11.719651758264124"><ele>514.0</ele><time>2026-04-11T08:22:24.001Z</time></trkpt><trkpt lat="42.91325575831253" lon="11.719795660483598"><ele>518.0</ele><time>2026-04-11T08:22:25.001Z</time></trkpt><trkpt lat="42.91303428085068" lon="11.719976836099066"><ele>518.0</ele><time>2026-04-11T08:22:26.001Z</time></trkpt><trkpt lat="42.9128215273737" lon="11.72019299778261"><ele>518.0</ele><time>2026-04-11T08:22:27.001Z</time></trkpt><trkpt lat="42.91261980704772" lon="11.72044058804588"><ele>525.5</ele><time>2026-04-11T08:22:28.001Z</time></trkpt><trkpt lat="42.91241773651341" lon="11.720702078074993"><ele>533.0</ele><time>2026-04-11T08:22:29.001Z</time></trkpt><trkpt lat="42.91222870779135" lon="11.720966997862714"><ele>531.0</ele><time>2026-04-11T08:22:30.001Z</time></trkpt><trkpt lat="42.912052994287514" lon="11.721211503793736"><ele>529.0</ele><time>2026-04-11T08:22:31.001Z</time></trkpt><trkpt lat="42.91189892561628" lon="11.721416027940185"><ele>529.0</ele><time>2026-04-11T08:22:32.001Z</time></trkpt><trkpt lat="42.911761459865865" lon="11.721594626217898"><ele>529.0</ele><time>2026-04-11T08:22:33.001Z</time></trkpt><trkpt lat="42.91164095891794" lon="11.721760303653527"><ele>529.0</ele><time>2026-04-11T08:22:34.001Z</time></trkpt><trkpt lat="42.911532971352216" lon="11.721912027383192"><ele>531.75</ele><time>2026-04-11T08:22:35.001Z</time></trkpt><trkpt lat="42.911441963993084" lon="11.722046453444877"><ele>534.5</ele><time>2026-04-11T08:22:36.001Z</time></trkpt><trkpt lat="42.91135285107574" lon="11.722163496079682"><ele>537.25</ele><time>2026-04-11T08:22:37.001Z</time></trkpt><trkpt lat="42.91127111188966" lon="11.722275687108072"><ele>540.0</ele><time>2026-04-11T08:22:38.001Z</time></trkpt><trkpt lat="42.9112049396487" lon="11.72236242198301"><ele>540.0</ele><time>2026-04-11T08:22:39.001Z</time></trkpt><trkpt lat="42.91115895938898" lon="11.722423145815528"><ele>540.0</ele><time>2026-04-11T08:22:40.001Z</time></trkpt><trkpt lat="42.911107692493225" lon="11.72247311185905"><ele>540.0</ele><time>2026-04-11T08:22:45.001Z</time></trkpt><trkpt lat="42.91105702485088" lon="11.722546602712653"><ele>540.0</ele><time>2026-04-11T08:28:26Z</time></trkpt><trkpt lat="42.9110038806194" lon="11.72263796148454"><ele>540.0</ele><time>2026-04-11T08:28:27Z</time></trkpt><trkpt lat="42.91093802462453" lon="11.722726583837593"><ele>540.0</ele><time>2026-04-11T08:28:28Z</time></trkpt><trkpt lat="42.91085638340787" lon="11.722820644455147"><ele>541.5</ele><time>2026-04-11T08:28:29Z</time></trkpt><trkpt lat="42.910775839756845" lon="11.722927055494912"><ele>543.0</ele><time>2026-04-11T08:28:30Z</time></trkpt><trkpt lat="42.91068666529285" lon="11.723042075054096"><ele>544.5</ele><time>2026-04-11T08:28:31Z</time></trkpt><trkpt lat="42.91059641883969" lon="11.723157418173077"><ele>546.0</ele><time>2026-04-11T08:28:32Z</time></trkpt><trkpt lat="42.910496877810914" lon="11.72327227063233"><ele>546.0</ele><time>2026-04-11T08:28:33Z</time></trkpt><trkpt lat="42.91039308037957" lon="11.72338989405672"><ele>546.0</ele><time>2026-04-11T08:28:34Z</time></trkpt><trkpt lat="42.910288469711745" lon="11.72350616790101"><ele>546.0</ele><time>2026-04-11T08:28:35.019Z</time></trkpt><trkpt lat="42.910187356332955" lon="11.723619881061735"><ele>546.0</ele><time>2026-04-11T08:28:36.017Z</time></trkpt><trkpt lat="42.91008626135059" lon="11.723734165950898"><ele>550.0</ele><time>2026-04-11T08:28:37.016Z</time></trkpt><trkpt lat="42.909979551835434" lon="11.723852379842558"><ele>554.0</ele><time>2026-04-11T08:28:38.017Z</time></trkpt><trkpt lat="42.909872877894536" lon="11.723970653752907"><ele>558.0</ele><time>2026-04-11T08:28:39.016Z</time></trkpt><trkpt lat="42.909752118097316" lon="11.724061880577477"><ele>562.0</ele><time>2026-04-11T08:28:40.017Z</time></trkpt><trkpt lat="42.90834697429017" lon="11.725140118476808"><ele>579.0</ele><time>2026-04-11T08:28:43.61Z</time></trkpt><trkpt lat="42.90794483688582" lon="11.72541350779855"><ele>596.0</ele><time>2026-04-11T08:28:44.609Z</time></trkpt><trkpt lat="42.90754132817672" lon="11.725686823163292"><ele>599.0</ele><time>2026-04-11T08:28:45.611Z</time></trkpt><trkpt lat="42.90713962489506" lon="11.725958915627395"><ele>602.0</ele><time>2026-04-11T08:28:46.608Z</time></trkpt><trkpt lat="42.90315246679159" lon="11.72762330622573"><ele>564.0</ele><time>2026-04-11T08:29:16Z</time></trkpt><trkpt lat="42.902963316666984" lon="11.727699634189348"><ele>526.0</ele><time>2026-04-11T08:29:17Z</time></trkpt><trkpt lat="42.90279248678111" lon="11.727372034218877"><ele>526.0</ele><time>2026-04-11T08:29:18Z</time></trkpt><trkpt lat="42.90260793241685" lon="11.727297703965881"><ele>526.0</ele><time>2026-04-11T08:29:19Z</time></trkpt><trkpt lat="42.9024172604098" lon="11.72721224133006"><ele>526.0</ele><time>2026-04-11T08:29:20Z</time></trkpt><trkpt lat="42.902221934591466" lon="11.727134392767145"><ele>519.6666666666667</ele><time>2026-04-11T08:29:21Z</time></trkpt><trkpt lat="42.90203431993935" lon="11.72706152941251"><ele>513.3333333333334</ele><time>2026-04-11T08:29:22Z</time></trkpt><trkpt lat="42.90185679788748" lon="11.72699015670641"><ele>507.0</ele><time>2026-04-11T08:29:23Z</time></trkpt><trkpt lat="42.90167773268096" lon="11.726927605251843"><ele>509.66666666666663</ele><time>2026-04-11T08:29:24Z</time></trkpt><trkpt lat="42.901507767331346" lon="11.726858063673529"><ele>512.3333333333333</ele><time>2026-04-11T08:29:25Z</time></trkpt><trkpt lat="42.90133463817544" lon="11.726797961241473"><ele>515.0</ele><time>2026-04-11T08:29:26Z</time></trkpt><trkpt lat="42.90114961856253" lon="11.72674484650255"><ele>515.0</ele><time>2026-04-11T08:29:27Z</time></trkpt><trkpt lat="42.90095212554333" lon="11.726708243850078"><ele>515.0</ele><time>2026-04-11T08:29:28Z</time></trkpt><trkpt lat="42.90074741541751" lon="11.726702900325124"><ele>515.0</ele><time>2026-04-11T08:29:29Z</time></trkpt><trkpt lat="42.90053988515246" lon="11.72672553687567"><ele>513.3333333333333</ele><time>2026-04-11T08:29:30Z</time></trkpt><trkpt lat="42.90032743115235" lon="11.726793118627542"><ele>511.66666666666663</ele><time>2026-04-11T08:29:31Z</time></trkpt><trkpt lat="42.90010872923396" lon="11.72688770219153"><ele>510.0</ele><time>2026-04-11T08:29:31.999Z</time></trkpt><trkpt lat="42.89988047625488" lon="11.727015598172946"><ele>503.0</ele><time>2026-04-11T08:29:33Z</time></trkpt><trkpt lat="42.89964443253773" lon="11.72714220565016"><ele>496.0</ele><time>2026-04-11T08:29:34Z</time></trkpt><trkpt lat="42.89939433974847" lon="11.72728128398138"><ele>496.5</ele><time>2026-04-11T08:29:35Z</time></trkpt><trkpt lat="42.899132716164885" lon="11.727420107372135"><ele>497.0</ele><time>2026-04-11T08:29:36Z</time></trkpt><trkpt lat="42.89888620816071" lon="11.727559726275825"><ele>497.0</ele><time>2026-04-11T08:29:37Z</time></trkpt><trkpt lat="42.89862769891405" lon="11.727663915550309"><ele>497.0</ele><time>2026-04-11T08:29:38Z</time></trkpt><trkpt lat="42.89837991861748" lon="11.727726250970942"><ele>490.0</ele><time>2026-04-11T08:29:39Z</time></trkpt><trkpt lat="42.8981328765019" lon="11.727759745576005"><ele>483.0</ele><time>2026-04-11T08:29:40Z</time></trkpt><trkpt lat="42.897890192253186" lon="11.727747966555446"><ele>487.5</ele><time>2026-04-11T08:29:41Z</time></trkpt><trkpt lat="42.89765105874231" lon="11.727676853071435"><ele>492.0</ele><time>2026-04-11T08:29:42Z</time></trkpt><trkpt lat="42.897416436598334" lon="11.727573173296456"><ele>492.0</ele><time>2026-04-11T08:29:43Z</time></trkpt><trkpt lat="42.89718726537205" lon="11.7274237348345"><ele>492.0</ele><time>2026-04-11T08:29:44Z</time></trkpt><trkpt lat="42.89695941181971" lon="11.727249631249737"><ele>490.5</ele><time>2026-04-11T08:29:45Z</time></trkpt><trkpt lat="42.896738162766994" lon="11.727048288600908"><ele>489.0</ele><time>2026-04-11T08:29:46Z</time></trkpt><trkpt lat="42.89651510730106" lon="11.726839602485416"><ele>489.0</ele><time>2026-04-11T08:29:47Z</time></trkpt><trkpt lat="42.89628634899297" lon="11.726638514846298"><ele>489.0</ele><time>2026-04-11T08:29:48Z</time></trkpt><trkpt lat="42.89605027005128" lon="11.726443003525835"><ele>481.0</ele><time>2026-04-11T08:29:49Z</time></trkpt><trkpt lat="42.895807535346265" lon="11.726257861870055"><ele>473.0</ele><time>2026-04-11T08:29:50Z</time></trkpt><trkpt lat="42.89556767285895" lon="11.726093664314725"><ele>480.5</ele><time>2026-04-11T08:29:51Z</time></trkpt><trkpt lat="42.89533316304286" lon="11.725940812692462"><ele>488.0</ele><time>2026-04-11T08:29:52Z</time></trkpt><trkpt lat="42.89511241028353" lon="11.725780736926826"><ele>480.5</ele><time>2026-04-11T08:29:53Z</time></trkpt><trkpt lat="42.8949043203515" lon="11.725600952866907"><ele>473.0</ele><time>2026-04-11T08:29:54Z</time></trkpt><trkpt lat="42.89470537639594" lon="11.725399813952205"><ele>480.0</ele><time>2026-04-11T08:29:55Z</time></trkpt><trkpt lat="42.89450804290168" lon="11.725185287532415"><ele>487.0</ele><time>2026-04-11T08:29:56Z</time></trkpt><trkpt lat="42.89430892617302" lon="11.724966895100913"><ele>477.5</ele><time>2026-04-11T08:29:57Z</time></trkpt><trkpt lat="42.89409447688019" lon="11.724757501699857"><ele>468.0</ele><time>2026-04-11T08:29:58Z</time></trkpt><trkpt lat="42.89385362286405" lon="11.724568987889649"><ele>468.0</ele><time>2026-04-11T08:29:59Z</time></trkpt><trkpt lat="42.8935947883508" lon="11.724413162097115"><ele>468.0</ele><time>2026-04-11T08:30:00Z</time></trkpt><trkpt lat="42.89332179429988" lon="11.724287120058786"><ele>468.0</ele><time>2026-04-11T08:30:01Z</time></trkpt><trkpt lat="42.893045270222466" lon="11.72419349296526"><ele>468.0</ele><time>2026-04-11T08:30:02Z</time></trkpt><trkpt lat="42.89277433213297" lon="11.724088415516379"><ele>462.0</ele><time>2026-04-11T08:30:03Z</time></trkpt><trkpt lat="42.89253340186856" lon="11.723990512529074"><ele>456.0</ele><time>2026-04-11T08:30:04Z</time></trkpt><trkpt lat="42.89229911824075" lon="11.723877794849908"><ele>456.0</ele><time>2026-04-11T08:30:05Z</time></trkpt><trkpt lat="42.89207589086095" lon="11.723742796330102"><ele>456.0</ele><time>2026-04-11T08:30:06Z</time></trkpt><trkpt lat="42.89186632841968" lon="11.723588507621681"><ele>454.5</ele><time>2026-04-11T08:30:07Z</time></trkpt><trkpt lat="42.89166442507583" lon="11.723400478295176"><ele>453.0</ele><time>2026-04-11T08:30:08Z</time></trkpt><trkpt lat="42.891467332449814" lon="11.72318763601404"><ele>453.0</ele><time>2026-04-11T08:30:09Z</time></trkpt><trkpt lat="42.89128298576734" lon="11.722953673162412"><ele>453.0</ele><time>2026-04-11T08:30:10Z</time></trkpt><trkpt lat="42.891111992835526" lon="11.722694293957638"><ele>450.5</ele><time>2026-04-11T08:30:11Z</time></trkpt><trkpt lat="42.89095038382449" lon="11.722412209012875"><ele>448.0</ele><time>2026-04-11T08:30:12Z</time></trkpt><trkpt lat="42.89079240509327" lon="11.722119470116994"><ele>441.0</ele><time>2026-04-11T08:30:13Z</time></trkpt><trkpt lat="42.89063556398078" lon="11.721841269101581"><ele>434.0</ele><time>2026-04-11T08:30:14Z</time></trkpt><trkpt lat="42.89046513969893" lon="11.72157767885189"><ele>434.0</ele><time>2026-04-11T08:30:15Z</time></trkpt><trkpt lat="42.89027626531677" lon="11.721343469920436"><ele>434.0</ele><time>2026-04-11T08:30:16Z</time></trkpt><trkpt lat="42.89006997807102" lon="11.72113234560317"><ele>436.0</ele><time>2026-04-11T08:30:17Z</time></trkpt><trkpt lat="42.889849109978236" lon="11.720950736942056"><ele>438.0</ele><time>2026-04-11T08:30:18Z</time></trkpt><trkpt lat="42.889616998637344" lon="11.72079606929055"><ele>438.0</ele><time>2026-04-11T08:30:19Z</time></trkpt><trkpt lat="42.88938369745685" lon="11.720680259406302"><ele>438.0</ele><time>2026-04-11T08:30:20Z</time></trkpt><trkpt lat="42.88913554016837" lon="11.720594518559416"><ele>434.5</ele><time>2026-04-11T08:30:21Z</time></trkpt><trkpt lat="42.88888546159082" lon="11.72054696636241"><ele>431.0</ele><time>2026-04-11T08:30:22Z</time></trkpt><trkpt lat="42.8886342065058" lon="11.720538230593098"><ele>426.0</ele><time>2026-04-11T08:30:23Z</time></trkpt><trkpt lat="42.88838891909022" lon="11.72055619393246"><ele>421.0</ele><time>2026-04-11T08:30:24Z</time></trkpt><trkpt lat="42.8881442948243" lon="11.720601945052646"><ele>421.0</ele><time>2026-04-11T08:30:25Z</time></trkpt><trkpt lat="42.88790003264989" lon="11.720682121030226"><ele>421.0</ele><time>2026-04-11T08:30:26Z</time></trkpt><trkpt lat="42.88765610950993" lon="11.72079537761205"><ele>418.5</ele><time>2026-04-11T08:30:27Z</time></trkpt><trkpt lat="42.887418966838815" lon="11.720952237243722"><ele>416.0</ele><time>2026-04-11T08:30:28Z</time></trkpt><trkpt lat="42.88718950331057" lon="11.721145526125742"><ele>413.5</ele><time>2026-04-11T08:30:29Z</time></trkpt><trkpt lat="42.88697076481381" lon="11.721378138048264"><ele>411.0</ele><time>2026-04-11T08:30:30Z</time></trkpt><trkpt lat="42.88677189362107" lon="11.721648456340874"><ele>411.0</ele><time>2026-04-11T08:30:31Z</time></trkpt><trkpt lat="42.88659307459598" lon="11.72195160031824"><ele>411.0</ele><time>2026-04-11T08:30:32Z</time></trkpt><trkpt lat="42.88643033111268" lon="11.72228001420341"><ele>411.0</ele><time>2026-04-11T08:30:33Z</time></trkpt><trkpt lat="42.88628961029444" lon="11.722630764361186"><ele>411.0</ele><time>2026-04-11T08:30:34Z</time></trkpt><trkpt lat="42.88617133572985" lon="11.723004400221438"><ele>409.5</ele><time>2026-04-11T08:30:35Z</time></trkpt><trkpt lat="42.8860632674006" lon="11.72337234886244"><ele>408.0</ele><time>2026-04-11T08:30:36Z</time></trkpt><trkpt lat="42.88593928032805" lon="11.723716226949067"><ele>410.5</ele><time>2026-04-11T08:30:37Z</time></trkpt><trkpt lat="42.8857975231525" lon="11.72402589665415"><ele>413.0</ele><time>2026-04-11T08:30:38Z</time></trkpt><trkpt lat="42.88564893387657" lon="11.724299737092196"><ele>409.0</ele><time>2026-04-11T08:30:39Z</time></trkpt><trkpt lat="42.88549186297984" lon="11.72453533508408"><ele>405.0</ele><time>2026-04-11T08:30:40Z</time></trkpt><trkpt lat="42.885319669719124" lon="11.724761514271721"><ele>405.0</ele><time>2026-04-11T08:30:41Z</time></trkpt><trkpt lat="42.88513807189406" lon="11.724975439272765"><ele>405.0</ele><time>2026-04-11T08:30:42Z</time></trkpt><trkpt lat="42.88494062147186" lon="11.725184016145114"><ele>404.0</ele><time>2026-04-11T08:30:43Z</time></trkpt><trkpt lat="42.88473574045835" lon="11.725393385822908"><ele>403.0</ele><time>2026-04-11T08:30:44Z</time></trkpt><trkpt lat="42.88452415492591" lon="11.725602624395218"><ele>403.0</ele><time>2026-04-11T08:30:45Z</time></trkpt><trkpt lat="42.88431154715639" lon="11.725797876737056"><ele>403.0</ele><time>2026-04-11T08:30:46Z</time></trkpt><trkpt lat="42.88408387164065" lon="11.7259701641107"><ele>403.0</ele><time>2026-04-11T08:30:47Z</time></trkpt><trkpt lat="42.88384018059361" lon="11.726104287399833"><ele>403.0</ele><time>2026-04-11T08:30:48Z</time></trkpt><trkpt lat="42.88357957686023" lon="11.726218551401622"><ele>403.5</ele><time>2026-04-11T08:30:49Z</time></trkpt><trkpt lat="42.88331636708218" lon="11.726333268565114"><ele>404.0</ele><time>2026-04-11T08:30:50Z</time></trkpt><trkpt lat="42.883043097651665" lon="11.726446611081313"><ele>404.0</ele><time>2026-04-11T08:30:51Z</time></trkpt><trkpt lat="42.882765553256355" lon="11.72656785937032"><ele>404.0</ele><time>2026-04-11T08:30:52Z</time></trkpt><trkpt lat="42.8824845405793" lon="11.726691742291594"><ele>405.0</ele><time>2026-04-11T08:30:53Z</time></trkpt><trkpt lat="42.882201252445675" lon="11.72681335682445"><ele>406.0</ele><time>2026-04-11T08:30:54Z</time></trkpt><trkpt lat="42.88191982953418" lon="11.726938170460686"><ele>402.0</ele><time>2026-04-11T08:30:55Z</time></trkpt><trkpt lat="42.88163699185245" lon="11.727059991310856"><ele>398.0</ele><time>2026-04-11T08:30:56Z</time></trkpt><trkpt lat="42.8813531244975" lon="11.727186899457882"><ele>398.0</ele><time>2026-04-11T08:30:57Z</time></trkpt><trkpt lat="42.881069634275335" lon="11.727308621274847"><ele>398.0</ele><time>2026-04-11T08:30:58Z</time></trkpt><trkpt lat="42.88078448240969" lon="11.727430600271498"><ele>398.0</ele><time>2026-04-11T08:30:59Z</time></trkpt><trkpt lat="42.880500326858765" lon="11.72755342215662"><ele>398.0</ele><time>2026-04-11T08:31:00Z</time></trkpt><trkpt lat="42.88021703023178" lon="11.727686356179115"><ele>393.5</ele><time>2026-04-11T08:31:01Z</time></trkpt><trkpt lat="42.87993777662801" lon="11.727834693881745"><ele>389.0</ele><time>2026-04-11T08:31:02Z</time></trkpt><trkpt lat="42.87966585378465" lon="11.727993426388162"><ele>389.0</ele><time>2026-04-11T08:31:03Z</time></trkpt><trkpt lat="42.87939307178926" lon="11.728157773709805"><ele>389.0</ele><time>2026-04-11T08:31:04Z</time></trkpt><trkpt lat="42.87913139925558" lon="11.728333686246234"><ele>390.0</ele><time>2026-04-11T08:31:05Z</time></trkpt><trkpt lat="42.878879781602244" lon="11.728524566124111"><ele>391.0</ele><time>2026-04-11T08:31:06Z</time></trkpt><trkpt lat="42.878633982897796" lon="11.728719106566315"><ele>388.5</ele><time>2026-04-11T08:31:07Z</time></trkpt><trkpt lat="42.87839603165536" lon="11.728918375686352"><ele>386.0</ele><time>2026-04-11T08:31:08Z</time></trkpt><trkpt lat="42.878160943405646" lon="11.729122033380222"><ele>386.0</ele><time>2026-04-11T08:31:09Z</time></trkpt><trkpt lat="42.87793207700985" lon="11.729339328567338"><ele>386.0</ele><time>2026-04-11T08:31:10Z</time></trkpt><trkpt lat="42.87771004929381" lon="11.729565695217469"><ele>387.5</ele><time>2026-04-11T08:31:11Z</time></trkpt><trkpt lat="42.877496212115496" lon="11.729802395260887"><ele>389.0</ele><time>2026-04-11T08:31:12Z</time></trkpt><trkpt lat="42.877282961869184" lon="11.730038552114593"><ele>388.0</ele><time>2026-04-11T08:31:13Z</time></trkpt><trkpt lat="42.87706430169036" lon="11.730279388330118"><ele>387.0</ele><time>2026-04-11T08:31:14Z</time></trkpt><trkpt lat="42.876846073224996" lon="11.730509990485253"><ele>387.5</ele><time>2026-04-11T08:31:15Z</time></trkpt><trkpt lat="42.876626207871006" lon="11.730741097854844"><ele>388.0</ele><time>2026-04-11T08:31:16Z</time></trkpt><trkpt lat="42.876404854167646" lon="11.730970001596061"><ele>385.0</ele><time>2026-04-11T08:31:17Z</time></trkpt><trkpt lat="42.876184299700085" lon="11.731196016550324"><ele>382.0</ele><time>2026-04-11T08:31:18Z</time></trkpt><trkpt lat="42.87596309952159" lon="11.731429532722906"><ele>382.5</ele><time>2026-04-11T08:31:19Z</time></trkpt><trkpt lat="42.875742539187925" lon="11.73166713152784"><ele>383.0</ele><time>2026-04-11T08:31:20Z</time></trkpt><trkpt lat="42.87551875893509" lon="11.73190373393033"><ele>381.5</ele><time>2026-04-11T08:31:21Z</time></trkpt><trkpt lat="42.87529481353325" lon="11.732150795664609"><ele>380.0</ele><time>2026-04-11T08:31:22Z</time></trkpt><trkpt lat="42.87506559983992" lon="11.732394704436892"><ele>378.5</ele><time>2026-04-11T08:31:23Z</time></trkpt><trkpt lat="42.874833208709006" lon="11.732639561636923"><ele>377.0</ele><time>2026-04-11T08:31:24Z</time></trkpt><trkpt lat="42.87460235717708" lon="11.732882511216397"><ele>377.0</ele><time>2026-04-11T08:31:25Z</time></trkpt><trkpt lat="42.87436320424975" lon="11.733125519251104"><ele>377.0</ele><time>2026-04-11T08:31:26Z</time></trkpt><trkpt lat="42.87413624935667" lon="11.733373049996958"><ele>376.5</ele><time>2026-04-11T08:31:27Z</time></trkpt><trkpt lat="42.873917939188146" lon="11.73363841366949"><ele>376.0</ele><time>2026-04-11T08:31:27.999Z</time></trkpt><trkpt lat="42.873711993997624" lon="11.733907809656058"><ele>376.0</ele><time>2026-04-11T08:31:28.999Z</time></trkpt><trkpt lat="42.87351469169766" lon="11.734191306715633"><ele>376.0</ele><time>2026-04-11T08:31:29.999Z</time></trkpt><trkpt lat="42.87332516930594" lon="11.734482263383766"><ele>373.0</ele><time>2026-04-11T08:31:30.999Z</time></trkpt><trkpt lat="42.87314331895503" lon="11.73478452618778"><ele>370.0</ele><time>2026-04-11T08:31:31.999Z</time></trkpt><trkpt lat="42.872970163896994" lon="11.73508742484212"><ele>369.5</ele><time>2026-04-11T08:31:32.999Z</time></trkpt><trkpt lat="42.8728085912143" lon="11.73540531525725"><ele>369.0</ele><time>2026-04-11T08:31:33.999Z</time></trkpt><trkpt lat="42.87265519810293" lon="11.735736364602445"><ele>368.5</ele><time>2026-04-11T08:31:34.999Z</time></trkpt><trkpt lat="42.87251080393397" lon="11.736077665204423"><ele>368.0</ele><time>2026-04-11T08:31:35.999Z</time></trkpt><trkpt lat="42.872378298150025" lon="11.736423641365988"><ele>368.0</ele><time>2026-04-11T08:31:36.999Z</time></trkpt><trkpt lat="42.872250280762344" lon="11.73677998039067"><ele>368.0</ele><time>2026-04-11T08:31:38Z</time></trkpt><trkpt lat="42.87212680879971" lon="11.73713966532036"><ele>367.5</ele><time>2026-04-11T08:31:39Z</time></trkpt><trkpt lat="42.872006445148315" lon="11.737501665433477"><ele>367.0</ele><time>2026-04-11T08:31:40Z</time></trkpt><trkpt lat="42.8718834598774" lon="11.737850785899443"><ele>367.5</ele><time>2026-04-11T08:31:41Z</time></trkpt><trkpt lat="42.871771362320445" lon="11.738177498854519"><ele>368.0</ele><time>2026-04-11T08:31:42Z</time></trkpt><trkpt lat="42.87166153244176" lon="11.73846868783861"><ele>368.33333333333337</ele><time>2026-04-11T08:31:43Z</time></trkpt><trkpt lat="42.87156014118445" lon="11.738708646191911"><ele>368.6666666666667</ele><time>2026-04-11T08:31:44Z</time></trkpt><trkpt lat="42.87143700723722" lon="11.738934231262446"><ele>369.0</ele><time>2026-04-11T08:31:45Z</time></trkpt><trkpt lat="42.87128804089576" lon="11.739133580973906"><ele>369.0</ele><time>2026-04-11T08:31:46Z</time></trkpt><trkpt lat="42.871106552913" lon="11.739296671090823"><ele>369.0</ele><time>2026-04-11T08:31:47Z</time></trkpt><trkpt lat="42.870912149255574" lon="11.739404451149392"><ele>369.0</ele><time>2026-04-11T08:31:47.999Z</time></trkpt><trkpt lat="42.87074169880377" lon="11.739473040059773"><ele>367.3333333333333</ele><time>2026-04-11T08:31:48.999Z</time></trkpt><trkpt lat="42.870597043129585" lon="11.739547945594243"><ele>365.66666666666663</ele><time>2026-04-11T08:31:49.999Z</time></trkpt><trkpt lat="42.87047713222893" lon="11.739682420060085"><ele>364.0</ele><time>2026-04-11T08:31:50.999Z</time></trkpt><trkpt lat="42.87040012272084" lon="11.73986844174453"><ele>364.0</ele><time>2026-04-11T08:31:51.999Z</time></trkpt><trkpt lat="42.87036282562429" lon="11.740077336819988"><ele>364.0</ele><time>2026-04-11T08:31:52.999Z</time></trkpt><trkpt lat="42.87038980513622" lon="11.740297232722698"><ele>364.0</ele><time>2026-04-11T08:31:53.999Z</time></trkpt><trkpt lat="42.87043737941845" lon="11.740526671141748"><ele>363.75</ele><time>2026-04-11T08:31:54.999Z</time></trkpt><trkpt lat="42.87047664396891" lon="11.740725801041476"><ele>363.5</ele><time>2026-04-11T08:31:55.999Z</time></trkpt><trkpt lat="42.870520218509505" lon="11.740894988787716"><ele>363.25</ele><time>2026-04-11T08:31:56.999Z</time></trkpt><trkpt lat="42.8705342569714" lon="11.741035577610782"><ele>363.0</ele><time>2026-04-11T08:31:57.999Z</time></trkpt><trkpt lat="42.870518458629576" lon="11.741153752418143"><ele>366.0</ele><time>2026-04-11T08:31:58.999Z</time></trkpt><trkpt lat="42.87050898057294" lon="11.741241119539723"><ele>369.0</ele><time>2026-04-11T08:31:59.999Z</time></trkpt><trkpt lat="42.87026289777846" lon="11.741391418396706"><ele>372.0</ele><time>2026-04-11T08:32:02.999Z</time></trkpt><trkpt lat="42.87015282051534" lon="11.74145666636659"><ele>368.6666666666667</ele><time>2026-04-11T08:32:03.999Z</time></trkpt><trkpt lat="42.87001894700699" lon="11.741538197675416"><ele>365.33333333333337</ele><time>2026-04-11T08:32:04.999Z</time></trkpt><trkpt lat="42.8698769356813" lon="11.741629071401258"><ele>362.0</ele><time>2026-04-11T08:32:05.999Z</time></trkpt><trkpt lat="42.86972532700539" lon="11.741725876847747"><ele>362.0</ele><time>2026-04-11T08:32:06.999Z</time></trkpt><trkpt lat="42.86955890961842" lon="11.741816930124198"><ele>362.0</ele><time>2026-04-11T08:32:07.999Z</time></trkpt><trkpt lat="42.86938297287731" lon="11.741902146316747"><ele>362.0</ele><time>2026-04-11T08:32:08.999Z</time></trkpt><trkpt lat="42.869199084354136" lon="11.74199574550833"><ele>363.33333333333337</ele><time>2026-04-11T08:32:09.999Z</time></trkpt><trkpt lat="42.86901679340101" lon="11.742096368140865"><ele>364.6666666666667</ele><time>2026-04-11T08:32:10.999Z</time></trkpt><trkpt lat="42.86883837928345" lon="11.742194142960447"><ele>366.0</ele><time>2026-04-11T08:32:11.999Z</time></trkpt><trkpt lat="42.86866647308688" lon="11.742289734259046"><ele>366.0</ele><time>2026-04-11T08:32:12.999Z</time></trkpt><trkpt lat="42.868495826253024" lon="11.742385820699994"><ele>366.0</ele><time>2026-04-11T08:32:13.999Z</time></trkpt><trkpt lat="42.8683268698092" lon="11.742489264218547"><ele>366.0</ele><time>2026-04-11T08:32:14.999Z</time></trkpt><trkpt lat="42.86816423919929" lon="11.742603418251017"><ele>367.3333333333333</ele><time>2026-04-11T08:32:15.999Z</time></trkpt><trkpt lat="42.86800387014845" lon="11.742727127955023"><ele>368.66666666666663</ele><time>2026-04-11T08:32:16.999Z</time></trkpt><trkpt lat="42.86785072386347" lon="11.742860968112899"><ele>370.0</ele><time>2026-04-11T08:32:17.999Z</time></trkpt><trkpt lat="42.867690622773395" lon="11.743010073608378"><ele>367.0</ele><time>2026-04-11T08:32:18.999Z</time></trkpt><trkpt lat="42.86751969631778" lon="11.743163990604135"><ele>364.0</ele><time>2026-04-11T08:32:19.999Z</time></trkpt><trkpt lat="42.867337648461074" lon="11.743320836494163"><ele>361.0</ele><time>2026-04-11T08:32:20.999Z</time></trkpt><trkpt lat="42.86714756701634" lon="11.743487515821561"><ele>361.5</ele><time>2026-04-11T08:32:21.999Z</time></trkpt><trkpt lat="42.86695613846089" lon="11.743653724847109"><ele>362.0</ele><time>2026-04-11T08:32:22.999Z</time></trkpt><trkpt lat="42.86674961389565" lon="11.743813013209687"><ele>360.0</ele><time>2026-04-11T08:32:23.999Z</time></trkpt><trkpt lat="42.86651970194506" lon="11.743948506644484"><ele>358.0</ele><time>2026-04-11T08:32:24.999Z</time></trkpt><trkpt lat="42.86627474141735" lon="11.744062487956787"><ele>358.0</ele><time>2026-04-11T08:32:25.999Z</time></trkpt><trkpt lat="42.866017878194704" lon="11.744156559722756"><ele>358.0</ele><time>2026-04-11T08:32:26.999Z</time></trkpt><trkpt lat="42.86575570020236" lon="11.744248778772183"><ele>356.5</ele><time>2026-04-11T08:32:27.999Z</time></trkpt><trkpt lat="42.86549410684442" lon="11.744359107243966"><ele>355.0</ele><time>2026-04-11T08:32:28.999Z</time></trkpt><trkpt lat="42.86522517601577" lon="11.744474014935466"><ele>355.5</ele><time>2026-04-11T08:32:29.999Z</time></trkpt><trkpt lat="42.864958373999215" lon="11.744602866521507"><ele>356.0</ele><time>2026-04-11T08:32:30.999Z</time></trkpt><trkpt lat="42.864691169184184" lon="11.744745945270894"><ele>356.0</ele><time>2026-04-11T08:32:31.999Z</time></trkpt><trkpt lat="42.864419445141834" lon="11.74489438348187"><ele>356.0</ele><time>2026-04-11T08:32:32.999Z</time></trkpt><trkpt lat="42.864149255682605" lon="11.74503192306728"><ele>355.0</ele><time>2026-04-11T08:32:33.999Z</time></trkpt><trkpt lat="42.86387598204901" lon="11.745159477179689"><ele>354.0</ele><time>2026-04-11T08:32:34.999Z</time></trkpt><trkpt lat="42.86359878261751" lon="11.745274046208255"><ele>355.5</ele><time>2026-04-11T08:32:35.999Z</time></trkpt><trkpt lat="42.863313104393285" lon="11.745373367173277"><ele>357.0</ele><time>2026-04-11T08:32:36.999Z</time></trkpt><trkpt lat="42.86301949083605" lon="11.74546544528722"><ele>357.0</ele><time>2026-04-11T08:32:37.999Z</time></trkpt><trkpt lat="42.86272875314142" lon="11.745558526855525"><ele>357.0</ele><time>2026-04-11T08:32:38.999Z</time></trkpt><trkpt lat="42.86244647234039" lon="11.745650250121857"><ele>354.0</ele><time>2026-04-11T08:32:39.999Z</time></trkpt><trkpt lat="42.86216677553249" lon="11.74574131494917"><ele>351.0</ele><time>2026-04-11T08:32:40.999Z</time></trkpt><trkpt lat="42.861893559267756" lon="11.745854896533572"><ele>350.0</ele><time>2026-04-11T08:32:41.999Z</time></trkpt><trkpt lat="42.86162235667873" lon="11.745998710651445"><ele>349.0</ele><time>2026-04-11T08:32:42.999Z</time></trkpt><trkpt lat="42.8613508553338" lon="11.746166346365586"><ele>350.5</ele><time>2026-04-11T08:32:43.999Z</time></trkpt><trkpt lat="42.86107902157887" lon="11.746348527322997"><ele>352.0</ele><time>2026-04-11T08:32:44.999Z</time></trkpt><trkpt lat="42.86080841419347" lon="11.746537562434968"><ele>352.0</ele><time>2026-04-11T08:32:45.999Z</time></trkpt><trkpt lat="42.8605354574225" lon="11.746717739750077"><ele>352.0</ele><time>2026-04-11T08:32:46.999Z</time></trkpt><trkpt lat="42.860272507687405" lon="11.746897074061557"><ele>350.0</ele><time>2026-04-11T08:32:47.999Z</time></trkpt><trkpt lat="42.86001767238568" lon="11.747079797897118"><ele>348.0</ele><time>2026-04-11T08:32:48.999Z</time></trkpt><trkpt lat="42.859771605114" lon="11.74729484977953"><ele>348.0</ele><time>2026-04-11T08:32:49.999Z</time></trkpt><trkpt lat="42.85953038830368" lon="11.747539752484949"><ele>348.0</ele><time>2026-04-11T08:32:50.999Z</time></trkpt><trkpt lat="42.85929265117163" lon="11.74779480984599"><ele>346.5</ele><time>2026-04-11T08:32:51.999Z</time></trkpt><trkpt lat="42.859050435506454" lon="11.748040913270652"><ele>345.0</ele><time>2026-04-11T08:32:52.999Z</time></trkpt><trkpt lat="42.85880807529908" lon="11.748282706780222"><ele>345.0</ele><time>2026-04-11T08:32:53.999Z</time></trkpt><trkpt lat="42.85856885375866" lon="11.74852370014253"><ele>345.0</ele><time>2026-04-11T08:32:54.999Z</time></trkpt><trkpt lat="42.85833212500681" lon="11.748760268705638"><ele>344.5</ele><time>2026-04-11T08:32:55.999Z</time></trkpt><trkpt lat="42.858096296044444" lon="11.748994767867881"><ele>344.0</ele><time>2026-04-11T08:32:56.999Z</time></trkpt><trkpt lat="42.85785799551883" lon="11.749196011831291"><ele>344.0</ele><time>2026-04-11T08:32:57.999Z</time></trkpt><trkpt lat="42.857619852607094" lon="11.749364249807652"><ele>344.0</ele><time>2026-04-11T08:32:58.999Z</time></trkpt><trkpt lat="42.85737349599368" lon="11.74949272178317"><ele>348.5</ele><time>2026-04-11T08:32:59.999Z</time></trkpt><trkpt lat="42.85712153682229" lon="11.749588959701361"><ele>353.0</ele><time>2026-04-11T08:33:00.999Z</time></trkpt><trkpt lat="42.856849525885316" lon="11.749675254069611"><ele>350.0</ele><time>2026-04-11T08:33:01.999Z</time></trkpt><trkpt lat="42.856573703358144" lon="11.749757534055675"><ele>347.0</ele><time>2026-04-11T08:33:02.999Z</time></trkpt><trkpt lat="42.85629771542541" lon="11.749838037399039"><ele>347.0</ele><time>2026-04-11T08:33:03.999Z</time></trkpt><trkpt lat="42.85601997172689" lon="11.749922923339502"><ele>347.0</ele><time>2026-04-11T08:33:04.999Z</time></trkpt><trkpt lat="42.8557393600379" lon="11.750013575167058"><ele>343.5</ele><time>2026-04-11T08:33:05.999Z</time></trkpt><trkpt lat="42.85545557537804" lon="11.750108824083233"><ele>340.0</ele><time>2026-04-11T08:33:06.999Z</time></trkpt><trkpt lat="42.85517195933603" lon="11.750208900335972"><ele>345.0</ele><time>2026-04-11T08:33:07.999Z</time></trkpt><trkpt lat="42.85488730717547" lon="11.750320489549143"><ele>350.0</ele><time>2026-04-11T08:33:08.999Z</time></trkpt><trkpt lat="42.854602775292" lon="11.750440220299037"><ele>350.0</ele><time>2026-04-11T08:33:09.999Z</time></trkpt><trkpt lat="42.854322771723396" lon="11.750565342064196"><ele>350.0</ele><time>2026-04-11T08:33:10.999Z</time></trkpt><trkpt lat="42.8540405580265" lon="11.75069068876539"><ele>346.5</ele><time>2026-04-11T08:33:11.999Z</time></trkpt><trkpt lat="42.853763247391214" lon="11.750815061945262"><ele>343.0</ele><time>2026-04-11T08:33:12.999Z</time></trkpt><trkpt lat="42.853487272438905" lon="11.750936594380722"><ele>346.0</ele><time>2026-04-11T08:33:13.999Z</time></trkpt><trkpt lat="42.853213079545846" lon="11.751061095833062"><ele>349.0</ele><time>2026-04-11T08:33:14.999Z</time></trkpt><trkpt lat="42.85293457161275" lon="11.751181012386631"><ele>349.0</ele><time>2026-04-11T08:33:15.999Z</time></trkpt><trkpt lat="42.85265858471452" lon="11.751305562490952"><ele>349.0</ele><time>2026-04-11T08:33:16.999Z</time></trkpt><trkpt lat="42.85238460127049" lon="11.751446727312235"><ele>344.5</ele><time>2026-04-11T08:33:17.999Z</time></trkpt><trkpt lat="42.85211501495512" lon="11.751605415305253"><ele>340.0</ele><time>2026-04-11T08:33:18.999Z</time></trkpt><trkpt lat="42.85184750193247" lon="11.751768961570193"><ele>338.0</ele><time>2026-04-11T08:33:19.999Z</time></trkpt><trkpt lat="42.85158146615805" lon="11.75193218125716"><ele>336.0</ele><time>2026-04-11T08:33:20.999Z</time></trkpt><trkpt lat="42.851319526062014" lon="11.752090712778411"><ele>336.0</ele><time>2026-04-11T08:33:21.999Z</time></trkpt><trkpt lat="42.851058907988666" lon="11.752239070546521"><ele>336.0</ele><time>2026-04-11T08:33:22.999Z</time></trkpt><trkpt lat="42.850793757688635" lon="11.752360986386176"><ele>334.0</ele><time>2026-04-11T08:33:23.999Z</time></trkpt><trkpt lat="42.850519455003905" lon="11.752465448338368"><ele>332.0</ele><time>2026-04-11T08:33:24.999Z</time></trkpt><trkpt lat="42.85024229819319" lon="11.752544469758663"><ele>331.5</ele><time>2026-04-11T08:33:25.999Z</time></trkpt><trkpt lat="42.84996405484237" lon="11.752625058577674"><ele>331.0</ele><time>2026-04-11T08:33:26.999Z</time></trkpt><trkpt lat="42.849684977015585" lon="11.752713668869582"><ele>332.5</ele><time>2026-04-11T08:33:27.999Z</time></trkpt><trkpt lat="42.84940909984254" lon="11.752797274280086"><ele>334.0</ele><time>2026-04-11T08:33:28.999Z</time></trkpt><trkpt lat="42.84913254924235" lon="11.752885109183664"><ele>334.0</ele><time>2026-04-11T08:33:29.999Z</time></trkpt><trkpt lat="42.84885502512362" lon="11.752971881573492"><ele>334.0</ele><time>2026-04-11T08:33:30.999Z</time></trkpt><trkpt lat="42.84857711143306" lon="11.753056411397447"><ele>332.0</ele><time>2026-04-11T08:33:31.999Z</time></trkpt><trkpt lat="42.84829391624159" lon="11.753140718680742"><ele>330.0</ele><time>2026-04-11T08:33:32.999Z</time></trkpt><trkpt lat="42.84801150012673" lon="11.753224843029825"><ele>330.0</ele><time>2026-04-11T08:33:34Z</time></trkpt><trkpt lat="42.847728373280326" lon="11.753310959848442"><ele>330.0</ele><time>2026-04-11T08:33:35Z</time></trkpt><trkpt lat="42.84744434122467" lon="11.753395798874429"><ele>329.0</ele><time>2026-04-11T08:33:36Z</time></trkpt><trkpt lat="42.84716245304393" lon="11.753479769982519"><ele>328.0</ele><time>2026-04-11T08:33:37Z</time></trkpt><trkpt lat="42.846891275427616" lon="11.753564570298876"><ele>329.0</ele><time>2026-04-11T08:33:38Z</time></trkpt><trkpt lat="42.84664606934744" lon="11.75362642833719"><ele>330.0</ele><time>2026-04-11T08:33:39Z</time></trkpt><trkpt lat="42.84643474074286" lon="11.753655634305675"><ele>330.0</ele><time>2026-04-11T08:33:40Z</time></trkpt><trkpt lat="42.84624658688688" lon="11.753661497960568"><ele>330.0</ele><time>2026-04-11T08:33:41Z</time></trkpt><trkpt lat="42.84607474888304" lon="11.753663794904806"><ele>330.0</ele><time>2026-04-11T08:33:42Z</time></trkpt><trkpt lat="42.84590115720704" lon="11.753680366575603"><ele>329.6666666666667</ele><time>2026-04-11T08:33:43Z</time></trkpt><trkpt lat="42.8457278686917" lon="11.753690687127833"><ele>329.33333333333337</ele><time>2026-04-11T08:33:44Z</time></trkpt><trkpt lat="42.84555469019271" lon="11.753699988281474"><ele>329.0</ele><time>2026-04-11T08:33:45Z</time></trkpt><trkpt lat="42.84537429685883" lon="11.753711774460381"><ele>329.0</ele><time>2026-04-11T08:33:46Z</time></trkpt><trkpt lat="42.84519832137304" lon="11.75372073024645"><ele>329.0</ele><time>2026-04-11T08:33:47Z</time></trkpt><trkpt lat="42.84502638713182" lon="11.753725347860465"><ele>329.0</ele><time>2026-04-11T08:33:48Z</time></trkpt><trkpt lat="42.84484643507451" lon="11.753741946899023"><ele>328.33333333333337</ele><time>2026-04-11T08:33:49Z</time></trkpt><trkpt lat="42.84467095246647" lon="11.753748620037012"><ele>327.6666666666667</ele><time>2026-04-11T08:33:50Z</time></trkpt><trkpt lat="42.844494255803376" lon="11.753757640425947"><ele>327.0</ele><time>2026-04-11T08:33:51Z</time></trkpt><trkpt lat="42.84432015772634" lon="11.753772565084665"><ele>326.3333333333333</ele><time>2026-04-11T08:33:52Z</time></trkpt><trkpt lat="42.84414897271295" lon="11.753774663413326"><ele>325.66666666666663</ele><time>2026-04-11T08:33:53Z</time></trkpt><trkpt lat="42.843974749839994" lon="11.753782044075386"><ele>325.0</ele><time>2026-04-11T08:33:54Z</time></trkpt><trkpt lat="42.84380239651417" lon="11.753796882445892"><ele>325.0</ele><time>2026-04-11T08:33:55Z</time></trkpt><trkpt lat="42.84363204624312" lon="11.753802343469994"><ele>325.0</ele><time>2026-04-11T08:33:56Z</time></trkpt><trkpt lat="42.84346165191029" lon="11.753811840374071"><ele>325.0</ele><time>2026-04-11T08:33:57Z</time></trkpt><trkpt lat="42.84329685645904" lon="11.753814706892085"><ele>324.75</ele><time>2026-04-11T08:33:58Z</time></trkpt><trkpt lat="42.843145597401765" lon="11.753821089852861"><ele>324.5</ele><time>2026-04-11T08:33:59Z</time></trkpt><trkpt lat="42.84299869066977" lon="11.753831922597112"><ele>324.25</ele><time>2026-04-11T08:34:00Z</time></trkpt><trkpt lat="42.84286052730305" lon="11.753838017343769"><ele>324.0</ele><time>2026-04-11T08:34:01Z</time></trkpt><trkpt lat="42.84274305192818" lon="11.753835653079351"><ele>324.0</ele><time>2026-04-11T08:34:02Z</time></trkpt><trkpt lat="42.842648525223495" lon="11.753840097209286"><ele>324.0</ele><time>2026-04-11T08:34:03Z</time></trkpt><trkpt lat="42.842578854209606" lon="11.753844632283204"><ele>324.0</ele><time>2026-04-11T08:34:04Z</time></trkpt><trkpt lat="42.84251255315347" lon="11.753849285433528"><ele>324.0</ele><time>2026-04-11T08:34:05Z</time></trkpt><trkpt lat="42.84244576517829" lon="11.753853376085198"><ele>324.0</ele><time>2026-04-11T08:34:06Z</time></trkpt><trkpt lat="42.84233153269784" lon="11.753861270858083"><ele>324.0</ele><time>2026-04-11T08:34:08Z</time></trkpt><trkpt lat="42.84226309214373" lon="11.753861806206514"><ele>323.79999999999995</ele><time>2026-04-11T08:34:09Z</time></trkpt><trkpt lat="42.842185389396974" lon="11.75386668001528"><ele>323.59999999999997</ele><time>2026-04-11T08:34:10Z</time></trkpt><trkpt lat="42.84209355305766" lon="11.753869152828832"><ele>323.4</ele><time>2026-04-11T08:34:11Z</time></trkpt><trkpt lat="42.841994275173036" lon="11.753874614642868"><ele>323.2</ele><time>2026-04-11T08:34:12Z</time></trkpt><trkpt lat="42.841899113310795" lon="11.753876435553801"><ele>323.0</ele><time>2026-04-11T08:34:13Z</time></trkpt><trkpt lat="42.841810608447545" lon="11.753881197460965"><ele>322.6666666666667</ele><time>2026-04-11T08:34:14Z</time></trkpt><trkpt lat="42.84172499295202" lon="11.753885069159933"><ele>322.33333333333337</ele><time>2026-04-11T08:34:15Z</time></trkpt><trkpt lat="42.84164211159092" lon="11.753897472801048"><ele>322.0</ele><time>2026-04-11T08:34:16Z</time></trkpt><trkpt lat="42.841563918433344" lon="11.753908566592129"><ele>321.6666666666667</ele><time>2026-04-11T08:34:17Z</time></trkpt><trkpt lat="42.841478994826915" lon="11.753909227098116"><ele>321.3333333333333</ele><time>2026-04-11T08:34:18Z</time></trkpt><trkpt lat="42.84139138166555" lon="11.753916012207174"><ele>321.0</ele><time>2026-04-11T08:34:19Z</time></trkpt><trkpt lat="42.8412982955318" lon="11.753918666450486"><ele>321.0</ele><time>2026-04-11T08:34:20Z</time></trkpt><trkpt lat="42.84120354564438" lon="11.75392372265399"><ele>321.0</ele><time>2026-04-11T08:34:21Z</time></trkpt><trkpt lat="42.841104730255736" lon="11.75392822005926"><ele>321.0</ele><time>2026-04-11T08:34:22Z</time></trkpt><trkpt lat="42.841004281694964" lon="11.753927476197811"><ele>321.0</ele><time>2026-04-11T08:34:23Z</time></trkpt><trkpt lat="42.840904210171" lon="11.753938981863605"><ele>321.0</ele><time>2026-04-11T08:34:24Z</time></trkpt><trkpt lat="42.84080628261447" lon="11.753952668672978"><ele>321.0</ele><time>2026-04-11T08:34:25Z</time></trkpt><trkpt lat="42.84070625825943" lon="11.753970582812784"><ele>321.0</ele><time>2026-04-11T08:34:26Z</time></trkpt><trkpt lat="42.840607321350376" lon="11.75399891075046"><ele>321.0</ele><time>2026-04-11T08:34:27Z</time></trkpt><trkpt lat="42.840495005054635" lon="11.754023664934838"><ele>321.0</ele><time>2026-04-11T08:34:28Z</time></trkpt><trkpt lat="42.84037251730567" lon="11.754063834684743"><ele>321.0</ele><time>2026-04-11T08:34:29Z</time></trkpt><trkpt lat="42.840243827612014" lon="11.754123925575632"><ele>321.0</ele><time>2026-04-11T08:34:30Z</time></trkpt><trkpt lat="42.84011376429805" lon="11.754181096703372"><ele>321.0</ele><time>2026-04-11T08:34:31Z</time></trkpt><trkpt lat="42.839977460719155" lon="11.75424826508166"><ele>321.0</ele><time>2026-04-11T08:34:32Z</time></trkpt><trkpt lat="42.839847825442426" lon="11.754309674653838"><ele>321.0</ele><time>2026-04-11T08:34:33Z</time></trkpt><trkpt lat="42.839716414706274" lon="11.754372446203886"><ele>321.25</ele><time>2026-04-11T08:34:34Z</time></trkpt><trkpt lat="42.83958745632748" lon="11.754434887612556"><ele>321.5</ele><time>2026-04-11T08:34:35Z</time></trkpt><trkpt lat="42.83944542586025" lon="11.754501126930435"><ele>321.75</ele><time>2026-04-11T08:34:36Z</time></trkpt><trkpt lat="42.83930043771291" lon="11.754575086312698"><ele>322.0</ele><time>2026-04-11T08:34:37Z</time></trkpt><trkpt lat="42.8391587110405" lon="11.754644461428263"><ele>322.0</ele><time>2026-04-11T08:34:38Z</time></trkpt><trkpt lat="42.839014090077335" lon="11.754712690421604"><ele>322.0</ele><time>2026-04-11T08:34:39Z</time></trkpt><trkpt lat="42.83887280517124" lon="11.754780730131092"><ele>322.0</ele><time>2026-04-11T08:34:40Z</time></trkpt><trkpt lat="42.838741919998256" lon="11.754848913232903"><ele>322.0</ele><time>2026-04-11T08:34:41Z</time></trkpt><trkpt lat="42.838623415085436" lon="11.754912113289974"><ele>322.0</ele><time>2026-04-11T08:34:42Z</time></trkpt><trkpt lat="42.83851986167964" lon="11.75496668045478"><ele>322.0</ele><time>2026-04-11T08:34:43Z</time></trkpt><trkpt lat="42.83841545306592" lon="11.755014636138045"><ele>322.0</ele><time>2026-04-11T08:34:44Z</time></trkpt><trkpt lat="42.83830174762611" lon="11.755067017266196"><ele>322.0</ele><time>2026-04-11T08:34:45Z</time></trkpt><trkpt lat="42.83816717668874" lon="11.755132122458782"><ele>322.66666666666663</ele><time>2026-04-11T08:34:46Z</time></trkpt><trkpt lat="42.838017124174115" lon="11.755205613055422"><ele>323.3333333333333</ele><time>2026-04-11T08:34:47Z</time></trkpt><trkpt lat="42.837850505776" lon="11.755289962026284"><ele>324.0</ele><time>2026-04-11T08:34:48Z</time></trkpt><trkpt lat="42.83768463286231" lon="11.755369524106344"><ele>323.0</ele><time>2026-04-11T08:34:49Z</time></trkpt><trkpt lat="42.837511972445284" lon="11.755459696434821"><ele>322.0</ele><time>2026-04-11T08:34:50Z</time></trkpt><trkpt lat="42.837330356063674" lon="11.755552109746054"><ele>321.0</ele><time>2026-04-11T08:34:51Z</time></trkpt><trkpt lat="42.837135720576896" lon="11.75564184971825"><ele>321.0</ele><time>2026-04-11T08:34:52Z</time></trkpt><trkpt lat="42.83693090989428" lon="11.75573473884191"><ele>321.0</ele><time>2026-04-11T08:34:53Z</time></trkpt><trkpt lat="42.83672981396802" lon="11.755836265731148"><ele>321.0</ele><time>2026-04-11T08:34:54Z</time></trkpt><trkpt lat="42.83652246903553" lon="11.755943268750295"><ele>322.5</ele><time>2026-04-11T08:34:55Z</time></trkpt><trkpt lat="42.83630620885889" lon="11.756046204924239"><ele>324.0</ele><time>2026-04-11T08:34:56Z</time></trkpt><trkpt lat="42.83608565312881" lon="11.756150224352506"><ele>322.5</ele><time>2026-04-11T08:34:57Z</time></trkpt><trkpt lat="42.83586313771831" lon="11.756258570723904"><ele>321.0</ele><time>2026-04-11T08:34:58Z</time></trkpt><trkpt lat="42.835641524951015" lon="11.75636586532644"><ele>321.0</ele><time>2026-04-11T08:34:59Z</time></trkpt><trkpt lat="42.835414989903" lon="11.756479095849107"><ele>321.0</ele><time>2026-04-11T08:35:00Z</time></trkpt><trkpt lat="42.83518859419323" lon="11.756590118968896"><ele>320.5</ele><time>2026-04-11T08:35:01Z</time></trkpt><trkpt lat="42.834962621170064" lon="11.756705703507748"><ele>320.0</ele><time>2026-04-11T08:35:02Z</time></trkpt><trkpt lat="42.83474043041618" lon="11.756826108440782"><ele>320.5</ele><time>2026-04-11T08:35:03Z</time></trkpt><trkpt lat="42.83452638161275" lon="11.756970782086743"><ele>321.0</ele><time>2026-04-11T08:35:04Z</time></trkpt><trkpt lat="42.83431430798911" lon="11.757142919518046"><ele>320.0</ele><time>2026-04-11T08:35:05Z</time></trkpt><trkpt lat="42.83410056553757" lon="11.757336348732974"><ele>319.0</ele><time>2026-04-11T08:35:06Z</time></trkpt><trkpt lat="42.8338845887681" lon="11.757540132539592"><ele>319.0</ele><time>2026-04-11T08:35:07Z</time></trkpt><trkpt lat="42.83366251878414" lon="11.757747777201056"><ele>319.0</ele><time>2026-04-11T08:35:08Z</time></trkpt><trkpt lat="42.83343621297655" lon="11.757957141199494"><ele>319.0</ele><time>2026-04-11T08:35:09Z</time></trkpt><trkpt lat="42.833203790523264" lon="11.758163094576753"><ele>319.0</ele><time>2026-04-11T08:35:10Z</time></trkpt><trkpt lat="42.83297210721601" lon="11.75837695227516"><ele>318.5</ele><time>2026-04-11T08:35:11Z</time></trkpt><trkpt lat="42.83273744658335" lon="11.758585895702073"><ele>318.0</ele><time>2026-04-11T08:35:12Z</time></trkpt><trkpt lat="42.83250099289428" lon="11.758797462357373"><ele>318.0</ele><time>2026-04-11T08:35:13Z</time></trkpt><trkpt lat="42.832267494615145" lon="11.759018041253558"><ele>318.0</ele><time>2026-04-11T08:35:14Z</time></trkpt><trkpt lat="42.83203266406377" lon="11.759233356926465"><ele>316.0</ele><time>2026-04-11T08:35:15Z</time></trkpt><trkpt lat="42.83179231075784" lon="11.75945275627381"><ele>314.0</ele><time>2026-04-11T08:35:16Z</time></trkpt><trkpt lat="42.831551516016766" lon="11.759674742329508"><ele>314.0</ele><time>2026-04-11T08:35:17Z</time></trkpt><trkpt lat="42.8313088399086" lon="11.759895394342882"><ele>314.0</ele><time>2026-04-11T08:35:18Z</time></trkpt><trkpt lat="42.83106624554133" lon="11.760120258190298"><ele>314.0</ele><time>2026-04-11T08:35:19Z</time></trkpt><trkpt lat="42.8308231221973" lon="11.760344126493255"><ele>314.0</ele><time>2026-04-11T08:35:20Z</time></trkpt><trkpt lat="42.830581785113225" lon="11.760567708140803"><ele>314.0</ele><time>2026-04-11T08:35:21Z</time></trkpt><trkpt lat="42.83033984712086" lon="11.760788782939303"><ele>314.0</ele><time>2026-04-11T08:35:22Z</time></trkpt><trkpt lat="42.83009431823998" lon="11.761007439498785"><ele>311.5</ele><time>2026-04-11T08:35:23Z</time></trkpt><trkpt lat="42.82985402400471" lon="11.761229056724124"><ele>309.0</ele><time>2026-04-11T08:35:24Z</time></trkpt><trkpt lat="42.829607855814096" lon="11.761448121011922"><ele>309.0</ele><time>2026-04-11T08:35:25Z</time></trkpt><trkpt lat="42.82936720172689" lon="11.761665720378524"><ele>309.0</ele><time>2026-04-11T08:35:26Z</time></trkpt><trkpt lat="42.82913139682319" lon="11.761883511140978"><ele>308.0</ele><time>2026-04-11T08:35:27Z</time></trkpt><trkpt lat="42.82889515098352" lon="11.762103587119094"><ele>307.0</ele><time>2026-04-11T08:35:28Z</time></trkpt><trkpt lat="42.82866188731006" lon="11.762318929480296"><ele>307.5</ele><time>2026-04-11T08:35:29Z</time></trkpt><trkpt lat="42.82842868823402" lon="11.76253069377026"><ele>308.0</ele><time>2026-04-11T08:35:30Z</time></trkpt><trkpt lat="42.82820076652716" lon="11.762743557292003"><ele>308.0</ele><time>2026-04-11T08:35:31Z</time></trkpt><trkpt lat="42.82798621989109" lon="11.76296992400416"><ele>308.0</ele><time>2026-04-11T08:35:32Z</time></trkpt><trkpt lat="42.827783931541376" lon="11.763217257931226"><ele>306.5</ele><time>2026-04-11T08:35:33Z</time></trkpt><trkpt lat="42.8275895403258" lon="11.763474412711123"><ele>305.0</ele><time>2026-04-11T08:35:34Z</time></trkpt><trkpt lat="42.82738708168526" lon="11.763733236981874"><ele>305.0</ele><time>2026-04-11T08:35:35Z</time></trkpt><trkpt lat="42.82718637996094" lon="11.764001530576929"><ele>305.0</ele><time>2026-04-11T08:35:36Z</time></trkpt><trkpt lat="42.826981328101006" lon="11.764269052472326"><ele>303.5</ele><time>2026-04-11T08:35:37Z</time></trkpt><trkpt lat="42.82677197553789" lon="11.764537352258145"><ele>302.0</ele><time>2026-04-11T08:35:38Z</time></trkpt><trkpt lat="42.8265636806582" lon="11.764810815680702"><ele>302.0</ele><time>2026-04-11T08:35:39Z</time></trkpt><trkpt lat="42.82635467005785" lon="11.765086328689895"><ele>302.0</ele><time>2026-04-11T08:35:40Z</time></trkpt><trkpt lat="42.826143451751406" lon="11.765359915002513"><ele>301.0</ele><time>2026-04-11T08:35:41Z</time></trkpt><trkpt lat="42.82593515406228" lon="11.765633907537195"><ele>300.0</ele><time>2026-04-11T08:35:42Z</time></trkpt><trkpt lat="42.82572072729734" lon="11.76591382532152"><ele>302.0</ele><time>2026-04-11T08:35:43Z</time></trkpt><trkpt lat="42.825507127031194" lon="11.766193411571203"><ele>304.0</ele><time>2026-04-11T08:35:44Z</time></trkpt><trkpt lat="42.825293905863" lon="11.766472858224457"><ele>302.5</ele><time>2026-04-11T08:35:45Z</time></trkpt><trkpt lat="42.82508046153488" lon="11.766751092225366"><ele>301.0</ele><time>2026-04-11T08:35:46Z</time></trkpt><trkpt lat="42.82487188621535" lon="11.767023709347868"><ele>301.0</ele><time>2026-04-11T08:35:47Z</time></trkpt><trkpt lat="42.82466799100465" lon="11.767297315153408"><ele>301.0</ele><time>2026-04-11T08:35:48Z</time></trkpt><trkpt lat="42.824468689596586" lon="11.767574921611708"><ele>300.0</ele><time>2026-04-11T08:35:49Z</time></trkpt><trkpt lat="42.824287408766054" lon="11.767876839438403"><ele>299.0</ele><time>2026-04-11T08:35:50Z</time></trkpt><trkpt lat="42.82413353294915" lon="11.768195026788742"><ele>299.0</ele><time>2026-04-11T08:35:51Z</time></trkpt><trkpt lat="42.82400224016877" lon="11.768527910308292"><ele>299.0</ele><time>2026-04-11T08:35:52Z</time></trkpt><trkpt lat="42.82389168619492" lon="11.768859984319294"><ele>299.0</ele><time>2026-04-11T08:35:53Z</time></trkpt><trkpt lat="42.82381400827305" lon="11.769181512065312"><ele>299.0</ele><time>2026-04-11T08:35:54Z</time></trkpt><trkpt lat="42.82374898018645" lon="11.769494157233403"><ele>299.0</ele><time>2026-04-11T08:35:55Z</time></trkpt><trkpt lat="42.823701983161875" lon="11.769805261179306"><ele>299.0</ele><time>2026-04-11T08:35:56Z</time></trkpt><trkpt lat="42.82366865608792" lon="11.770123232631512"><ele>297.5</ele><time>2026-04-11T08:35:57Z</time></trkpt><trkpt lat="42.8236560512402" lon="11.770442003192102"><ele>296.0</ele><time>2026-04-11T08:35:58Z</time></trkpt><trkpt lat="42.82365907456006" lon="11.770756545612768"><ele>296.33333333333337</ele><time>2026-04-11T08:35:59Z</time></trkpt><trkpt lat="42.82368007693889" lon="11.771064857790032"><ele>296.6666666666667</ele><time>2026-04-11T08:36:00Z</time></trkpt><trkpt lat="42.82371255033194" lon="11.771360418527097"><ele>297.0</ele><time>2026-04-11T08:36:01Z</time></trkpt><trkpt lat="42.823758818777726" lon="11.771643711116585"><ele>296.6666666666667</ele><time>2026-04-11T08:36:02Z</time></trkpt><trkpt lat="42.82381245813558" lon="11.771927962433764"><ele>296.33333333333337</ele><time>2026-04-11T08:36:03Z</time></trkpt><trkpt lat="42.823878624099954" lon="11.77218561676622"><ele>296.0</ele><time>2026-04-11T08:36:04Z</time></trkpt><trkpt lat="42.823950388256804" lon="11.7724200899465"><ele>296.0</ele><time>2026-04-11T08:36:05Z</time></trkpt><trkpt lat="42.824018987072115" lon="11.772628799886068"><ele>296.0</ele><time>2026-04-11T08:36:06Z</time></trkpt><trkpt lat="42.824077667981925" lon="11.772823477578605"><ele>296.0</ele><time>2026-04-11T08:36:07Z</time></trkpt><trkpt lat="42.824132164217545" lon="11.773005571769593"><ele>296.0</ele><time>2026-04-11T08:36:08Z</time></trkpt><trkpt lat="42.82417658950068" lon="11.773149315260985"><ele>296.0</ele><time>2026-04-11T08:36:09Z</time></trkpt><trkpt lat="42.82420135596998" lon="11.773231609772225"><ele>296.0</ele><time>2026-04-11T08:36:10Z</time></trkpt><trkpt lat="42.82422732452456" lon="11.773335919213574"><ele>296.0</ele><time>2026-04-11T08:36:11Z</time></trkpt><trkpt lat="42.824264977625845" lon="11.773449436735206"><ele>296.0</ele><time>2026-04-11T08:36:12Z</time></trkpt><trkpt lat="42.82430421671731" lon="11.77357216150001"><ele>297.75</ele><time>2026-04-11T08:36:13Z</time></trkpt><trkpt lat="42.82434508967463" lon="11.77370410143539"><ele>299.5</ele><time>2026-04-11T08:36:14Z</time></trkpt><trkpt lat="42.82438619595094" lon="11.773846375539033"><ele>301.25</ele><time>2026-04-11T08:36:15Z</time></trkpt><trkpt lat="42.824431894473534" lon="11.774001726038778"><ele>303.0</ele><time>2026-04-11T08:36:16Z</time></trkpt><trkpt lat="42.8244825725392" lon="11.774167368574712"><ele>303.0</ele><time>2026-04-11T08:36:17Z</time></trkpt><trkpt lat="42.82453404764066" lon="11.774348302004439"><ele>303.0</ele><time>2026-04-11T08:36:18Z</time></trkpt><trkpt lat="42.82459591423654" lon="11.77454020076428"><ele>303.0</ele><time>2026-04-11T08:36:19Z</time></trkpt><trkpt lat="42.82466103767069" lon="11.77474408992449"><ele>301.6666666666667</ele><time>2026-04-11T08:36:20Z</time></trkpt><trkpt lat="42.82471908637672" lon="11.774967406601336"><ele>300.33333333333337</ele><time>2026-04-11T08:36:21Z</time></trkpt><trkpt lat="42.82478480752003" lon="11.775188634012691"><ele>299.0</ele><time>2026-04-11T08:36:22Z</time></trkpt><trkpt lat="42.82485466104229" lon="11.775409716045113"><ele>298.33333333333337</ele><time>2026-04-11T08:36:23Z</time></trkpt><trkpt lat="42.824924626798385" lon="11.775639825801656"><ele>297.6666666666667</ele><time>2026-04-11T08:36:24Z</time></trkpt><trkpt lat="42.82499847652473" lon="11.775873161490823"><ele>297.0</ele><time>2026-04-11T08:36:25Z</time></trkpt><trkpt lat="42.82507426885049" lon="11.776119828580912"><ele>296.0</ele><time>2026-04-11T08:36:26Z</time></trkpt><trkpt lat="42.82514554697778" lon="11.776364473510421"><ele>295.0</ele><time>2026-04-11T08:36:27Z</time></trkpt><trkpt lat="42.82521870447351" lon="11.776598311669762"><ele>294.0</ele><time>2026-04-11T08:36:28Z</time></trkpt><trkpt lat="42.82529295905822" lon="11.776836420351348"><ele>294.6666666666667</ele><time>2026-04-11T08:36:29Z</time></trkpt><trkpt lat="42.825367430755605" lon="11.777081260854706"><ele>295.33333333333337</ele><time>2026-04-11T08:36:30Z</time></trkpt><trkpt lat="42.825435332116186" lon="11.777329376616143"><ele>296.0</ele><time>2026-04-11T08:36:31Z</time></trkpt><trkpt lat="42.82546351763335" lon="11.777595984566673"><ele>295.0</ele><time>2026-04-11T08:36:32Z</time></trkpt><trkpt lat="42.825456906956965" lon="11.777872109825852"><ele>294.0</ele><time>2026-04-11T08:36:33Z</time></trkpt><trkpt lat="42.82543443502207" lon="11.778174625601686"><ele>293.0</ele><time>2026-04-11T08:36:34Z</time></trkpt><trkpt lat="42.82540805533497" lon="11.778488879970329"><ele>293.5</ele><time>2026-04-11T08:36:35Z</time></trkpt><trkpt lat="42.825376089907714" lon="11.778812692250805"><ele>294.0</ele><time>2026-04-11T08:36:36Z</time></trkpt><trkpt lat="42.82534791691696" lon="11.779125414960516"><ele>294.5</ele><time>2026-04-11T08:36:37Z</time></trkpt><trkpt lat="42.82531126166891" lon="11.779436609333473"><ele>295.0</ele><time>2026-04-11T08:36:38Z</time></trkpt><trkpt lat="42.82526063871507" lon="11.779747651606026"><ele>295.0</ele><time>2026-04-11T08:36:39Z</time></trkpt><trkpt lat="42.82520045543787" lon="11.780061857431635"><ele>295.0</ele><time>2026-04-11T08:36:40Z</time></trkpt><trkpt lat="42.82515492672303" lon="11.780383831568804"><ele>295.0</ele><time>2026-04-11T08:36:41Z</time></trkpt><trkpt lat="42.82513261113586" lon="11.780720834886818"><ele>295.0</ele><time>2026-04-11T08:36:42Z</time></trkpt><trkpt lat="42.825113260875426" lon="11.781057479908789"><ele>295.0</ele><time>2026-04-11T08:36:43Z</time></trkpt><trkpt lat="42.82508692500267" lon="11.781394305051915"><ele>295.0</ele><time>2026-04-11T08:36:44Z</time></trkpt><trkpt lat="42.825054495909875" lon="11.781730865844212"><ele>295.5</ele><time>2026-04-11T08:36:45Z</time></trkpt><trkpt lat="42.82500949370987" lon="11.782063935224196"><ele>296.0</ele><time>2026-04-11T08:36:46Z</time></trkpt><trkpt lat="42.824956037295145" lon="11.782394782205948"><ele>298.5</ele><time>2026-04-11T08:36:47Z</time></trkpt><trkpt lat="42.82489700633504" lon="11.782729676436794"><ele>301.0</ele><time>2026-04-11T08:36:48Z</time></trkpt><trkpt lat="42.8248404574426" lon="11.783060141078598"><ele>301.0</ele><time>2026-04-11T08:36:49Z</time></trkpt><trkpt lat="42.824784789642116" lon="11.783387466355416"><ele>301.0</ele><time>2026-04-11T08:36:50Z</time></trkpt><trkpt lat="42.824727059928826" lon="11.783709823198956"><ele>303.0</ele><time>2026-04-11T08:36:51Z</time></trkpt><trkpt lat="42.82466903246758" lon="11.784031087880685"><ele>305.0</ele><time>2026-04-11T08:36:52Z</time></trkpt><trkpt lat="42.82461088752197" lon="11.784357621094134"><ele>305.5</ele><time>2026-04-11T08:36:53Z</time></trkpt><trkpt lat="42.8245540933265" lon="11.784685559018495"><ele>306.0</ele><time>2026-04-11T08:36:54Z</time></trkpt><trkpt lat="42.824501835451784" lon="11.785023204683677"><ele>305.0</ele><time>2026-04-11T08:36:55Z</time></trkpt><trkpt lat="42.824447907784815" lon="11.785358436053244"><ele>304.0</ele><time>2026-04-11T08:36:56Z</time></trkpt><trkpt lat="42.824380271738086" lon="11.785682858972809"><ele>299.5</ele><time>2026-04-11T08:36:57Z</time></trkpt><trkpt lat="42.82428414408114" lon="11.785999357295882"><ele>295.0</ele><time>2026-04-11T08:36:58Z</time></trkpt><trkpt lat="42.824168879200506" lon="11.786315739978715"><ele>295.0</ele><time>2026-04-11T08:36:59Z</time></trkpt><trkpt lat="42.82403218786229" lon="11.786629138405017"><ele>295.0</ele><time>2026-04-11T08:37:00Z</time></trkpt><trkpt lat="42.823881370169666" lon="11.786927321794183"><ele>296.0</ele><time>2026-04-11T08:37:01Z</time></trkpt><trkpt lat="42.82371676365611" lon="11.787218421790067"><ele>297.0</ele><time>2026-04-11T08:37:02Z</time></trkpt><trkpt lat="42.82355233957637" lon="11.787512168586368"><ele>296.5</ele><time>2026-04-11T08:37:03Z</time></trkpt><trkpt lat="42.8233848233713" lon="11.787810124896264"><ele>296.0</ele><time>2026-04-11T08:37:04Z</time></trkpt><trkpt lat="42.823218952728396" lon="11.788114109488301"><ele>296.0</ele><time>2026-04-11T08:37:05Z</time></trkpt><trkpt lat="42.82305209875758" lon="11.788419627800803"><ele>296.0</ele><time>2026-04-11T08:37:06Z</time></trkpt><trkpt lat="42.82288235094492" lon="11.788724111482546"><ele>298.0</ele><time>2026-04-11T08:37:07Z</time></trkpt><trkpt lat="42.822713047260464" lon="11.789026891742523"><ele>300.0</ele><time>2026-04-11T08:37:08Z</time></trkpt><trkpt lat="42.82254579433704" lon="11.789316276825504"><ele>298.0</ele><time>2026-04-11T08:37:09Z</time></trkpt><trkpt lat="42.822384199678396" lon="11.78960539143694"><ele>296.0</ele><time>2026-04-11T08:37:10Z</time></trkpt><trkpt lat="42.82222604671503" lon="11.789893092182883"><ele>297.5</ele><time>2026-04-11T08:37:11Z</time></trkpt><trkpt lat="42.82207389636287" lon="11.790177609009566"><ele>299.0</ele><time>2026-04-11T08:37:12Z</time></trkpt><trkpt lat="42.82191683920784" lon="11.790456029285606"><ele>295.0</ele><time>2026-04-11T08:37:13Z</time></trkpt><trkpt lat="42.821766254210495" lon="11.79072962721093"><ele>291.0</ele><time>2026-04-11T08:37:14Z</time></trkpt><trkpt lat="42.82161420090981" lon="11.791002133300992"><ele>293.0</ele><time>2026-04-11T08:37:15Z</time></trkpt><trkpt lat="42.821468006269484" lon="11.791273546684156"><ele>295.0</ele><time>2026-04-11T08:37:16Z</time></trkpt><trkpt lat="42.82132046584289" lon="11.791538119374188"><ele>295.0</ele><time>2026-04-11T08:37:17Z</time></trkpt><trkpt lat="42.821176025964405" lon="11.791802569619389"><ele>295.0</ele><time>2026-04-11T08:37:18Z</time></trkpt><trkpt lat="42.82104068572515" lon="11.792061440412583"><ele>293.5</ele><time>2026-04-11T08:37:19Z</time></trkpt><trkpt lat="42.820910253025154" lon="11.792317327379438"><ele>292.0</ele><time>2026-04-11T08:37:20Z</time></trkpt><trkpt lat="42.820774150418416" lon="11.792575804815502"><ele>294.3333333333333</ele><time>2026-04-11T08:37:21Z</time></trkpt><trkpt lat="42.82063650529664" lon="11.79283105428762"><ele>296.6666666666667</ele><time>2026-04-11T08:37:22Z</time></trkpt><trkpt lat="42.8205113070081" lon="11.793071112342428"><ele>299.0</ele><time>2026-04-11T08:37:23Z</time></trkpt><trkpt lat="42.82038502726195" lon="11.793308012113142"><ele>301.0</ele><time>2026-04-11T08:37:24Z</time></trkpt><trkpt lat="42.8202570646863" lon="11.793549298638467"><ele>303.0</ele><time>2026-04-11T08:37:25Z</time></trkpt><trkpt lat="42.820113932627905" lon="11.793777976004941"><ele>305.0</ele><time>2026-04-11T08:37:26Z</time></trkpt><trkpt lat="42.819978392856136" lon="11.794024812429198"><ele>303.0</ele><time>2026-04-11T08:37:27Z</time></trkpt><trkpt lat="42.81985376265475" lon="11.794278942969491"><ele>301.0</ele><time>2026-04-11T08:37:28Z</time></trkpt><trkpt lat="42.81972308126511" lon="11.794501524618362"><ele>299.0</ele><time>2026-04-11T08:37:29Z</time></trkpt><trkpt lat="42.81959702222262" lon="11.79472913860947"><ele>299.0</ele><time>2026-04-11T08:37:30Z</time></trkpt><trkpt lat="42.819469060460186" lon="11.794952563122106"><ele>299.0</ele><time>2026-04-11T08:37:31Z</time></trkpt><trkpt lat="42.81934077020466" lon="11.795181772321632"><ele>299.0</ele><time>2026-04-11T08:37:32Z</time></trkpt><trkpt lat="42.819208394018744" lon="11.795409600900463"><ele>299.6666666666667</ele><time>2026-04-11T08:37:33Z</time></trkpt><trkpt lat="42.819067862834814" lon="11.795634054625594"><ele>300.3333333333333</ele><time>2026-04-11T08:37:34Z</time></trkpt><trkpt lat="42.81891343952403" lon="11.79585601545121"><ele>301.0</ele><time>2026-04-11T08:37:35Z</time></trkpt><trkpt lat="42.81875036895216" lon="11.796069179046425"><ele>301.0</ele><time>2026-04-11T08:37:36Z</time></trkpt><trkpt lat="42.81857561922741" lon="11.796270941027856"><ele>301.0</ele><time>2026-04-11T08:37:37Z</time></trkpt><trkpt lat="42.818393729934826" lon="11.796463092392603"><ele>296.0</ele><time>2026-04-11T08:37:38Z</time></trkpt><trkpt lat="42.81819996520216" lon="11.796639546987056"><ele>291.0</ele><time>2026-04-11T08:37:39Z</time></trkpt><trkpt lat="42.817995125316166" lon="11.796803600332689"><ele>290.5</ele><time>2026-04-11T08:37:40Z</time></trkpt><trkpt lat="42.81778445035373" lon="11.79695326108967"><ele>290.0</ele><time>2026-04-11T08:37:41Z</time></trkpt><trkpt lat="42.81756152178395" lon="11.79709961291022"><ele>290.0</ele><time>2026-04-11T08:37:42Z</time></trkpt><trkpt lat="42.817339067904605" lon="11.797234372258288"><ele>290.0</ele><time>2026-04-11T08:37:43Z</time></trkpt><trkpt lat="42.8171126301372" lon="11.797365779860225"><ele>290.0</ele><time>2026-04-11T08:37:44Z</time></trkpt><trkpt lat="42.81688601090838" lon="11.797499376705977"><ele>290.0</ele><time>2026-04-11T08:37:45Z</time></trkpt><trkpt lat="42.816657873680654" lon="11.797640200637574"><ele>290.5</ele><time>2026-04-11T08:37:46Z</time></trkpt><trkpt lat="42.81643414903324" lon="11.797776815365564"><ele>291.0</ele><time>2026-04-11T08:37:47Z</time></trkpt><trkpt lat="42.816209893169436" lon="11.79791489628654"><ele>291.0</ele><time>2026-04-11T08:37:48Z</time></trkpt><trkpt lat="42.81598671664256" lon="11.79805158414608"><ele>291.0</ele><time>2026-04-11T08:37:49Z</time></trkpt><trkpt lat="42.81576633553536" lon="11.798190397487879"><ele>289.0</ele><time>2026-04-11T08:37:50Z</time></trkpt><trkpt lat="42.81554528372352" lon="11.798323912005378"><ele>287.0</ele><time>2026-04-11T08:37:51Z</time></trkpt><trkpt lat="42.81532403063361" lon="11.79845874020098"><ele>288.0</ele><time>2026-04-11T08:37:52Z</time></trkpt><trkpt lat="42.815097672348216" lon="11.798595857919748"><ele>289.0</ele><time>2026-04-11T08:37:53Z</time></trkpt><trkpt lat="42.81487428138042" lon="11.798733739312624"><ele>289.0</ele><time>2026-04-11T08:37:54Z</time></trkpt><trkpt lat="42.814651531990904" lon="11.798869268924248"><ele>289.0</ele><time>2026-04-11T08:37:55Z</time></trkpt><trkpt lat="42.81442835271276" lon="11.799004512605793"><ele>287.5</ele><time>2026-04-11T08:37:56Z</time></trkpt><trkpt lat="42.81420643299509" lon="11.799135130664538"><ele>286.0</ele><time>2026-04-11T08:37:57Z</time></trkpt><trkpt lat="42.81398565340787" lon="11.799267580964221"><ele>288.0</ele><time>2026-04-11T08:37:58Z</time></trkpt><trkpt lat="42.813766657856306" lon="11.799398350304198"><ele>290.0</ele><time>2026-04-11T08:37:59Z</time></trkpt><trkpt lat="42.81354304802221" lon="11.799530640231696"><ele>290.0</ele><time>2026-04-11T08:38:00Z</time></trkpt><trkpt lat="42.81332205959921" lon="11.799665192273366"><ele>290.0</ele><time>2026-04-11T08:38:01Z</time></trkpt><trkpt lat="42.81310092086507" lon="11.799798033723212"><ele>290.0</ele><time>2026-04-11T08:38:02Z</time></trkpt><trkpt lat="42.81287696973329" lon="11.799931696647445"><ele>290.0</ele><time>2026-04-11T08:38:03Z</time></trkpt><trkpt lat="42.81265164017331" lon="11.8000676265587"><ele>293.5</ele><time>2026-04-11T08:38:04Z</time></trkpt><trkpt lat="42.81242545298949" lon="11.8002055514521"><ele>297.0</ele><time>2026-04-11T08:38:05Z</time></trkpt><trkpt lat="42.81219835404041" lon="11.8003431523968"><ele>297.0</ele><time>2026-04-11T08:38:06Z</time></trkpt><trkpt lat="42.81197264963759" lon="11.800482720852106"><ele>297.0</ele><time>2026-04-11T08:38:07Z</time></trkpt><trkpt lat="42.81175132893445" lon="11.80061809637199"><ele>295.5</ele><time>2026-04-11T08:38:08Z</time></trkpt><trkpt lat="42.81153598880195" lon="11.800751660854447"><ele>294.0</ele><time>2026-04-11T08:38:09Z</time></trkpt><trkpt lat="42.811324009069644" lon="11.800879656301104"><ele>298.5</ele><time>2026-04-11T08:38:10Z</time></trkpt><trkpt lat="42.811116452129205" lon="11.801005267993613"><ele>303.0</ele><time>2026-04-11T08:38:11Z</time></trkpt><trkpt lat="42.810911904486844" lon="11.801128581098137"><ele>303.0</ele><time>2026-04-11T08:38:12Z</time></trkpt><trkpt lat="42.81070865251172" lon="11.801247842177544"><ele>303.0</ele><time>2026-04-11T08:38:13Z</time></trkpt><trkpt lat="42.81050843893619" lon="11.801363190618881"><ele>303.0</ele><time>2026-04-11T08:38:14Z</time></trkpt><trkpt lat="42.810311192912565" lon="11.801480965130219"><ele>301.0</ele><time>2026-04-11T08:38:15Z</time></trkpt><trkpt lat="42.81011524781919" lon="11.801601130810647"><ele>299.0</ele><time>2026-04-11T08:38:16Z</time></trkpt><trkpt lat="42.80992702859124" lon="11.801717751128217"><ele>297.0</ele><time>2026-04-11T08:38:17Z</time></trkpt><trkpt lat="42.80973759289732" lon="11.801831183908936"><ele>298.0</ele><time>2026-04-11T08:38:18Z</time></trkpt><trkpt lat="42.80953932866579" lon="11.801951074789425"><ele>299.0</ele><time>2026-04-11T08:38:19Z</time></trkpt><trkpt lat="42.809347316597645" lon="11.802065068035903"><ele>300.0</ele><time>2026-04-11T08:38:20Z</time></trkpt><trkpt lat="42.80916468206789" lon="11.802179694122529"><ele>300.0</ele><time>2026-04-11T08:38:21Z</time></trkpt><trkpt lat="42.80897667434366" lon="11.802296860287468"><ele>300.0</ele><time>2026-04-11T08:38:22Z</time></trkpt><trkpt lat="42.80879184474309" lon="11.80241182523472"><ele>300.0</ele><time>2026-04-11T08:38:23Z</time></trkpt><trkpt lat="42.80860748781423" lon="11.80252389150235"><ele>299.0</ele><time>2026-04-11T08:38:24Z</time></trkpt><trkpt lat="42.808427010887804" lon="11.802634287338531"><ele>298.0</ele><time>2026-04-11T08:38:25Z</time></trkpt><trkpt lat="42.80824466027538" lon="11.802750266017641"><ele>297.0</ele><time>2026-04-11T08:38:26Z</time></trkpt><trkpt lat="42.80805952240275" lon="11.80286843449097"><ele>297.0</ele><time>2026-04-11T08:38:27Z</time></trkpt><trkpt lat="42.807877944708814" lon="11.802981452866087"><ele>297.0</ele><time>2026-04-11T08:38:28Z</time></trkpt><trkpt lat="42.80769366392348" lon="11.80309054072751"><ele>297.0</ele><time>2026-04-11T08:38:29Z</time></trkpt><trkpt lat="42.80750747022382" lon="11.80319766433952"><ele>296.3333333333333</ele><time>2026-04-11T08:38:30Z</time></trkpt><trkpt lat="42.807320080895465" lon="11.803307112808634"><ele>295.66666666666663</ele><time>2026-04-11T08:38:31Z</time></trkpt><trkpt lat="42.80713179751539" lon="11.803419950255012"><ele>295.0</ele><time>2026-04-11T08:38:32Z</time></trkpt><trkpt lat="42.8069430623778" lon="11.803536869514305"><ele>294.66666666666663</ele><time>2026-04-11T08:38:33Z</time></trkpt><trkpt lat="42.80675698803835" lon="11.803652818766945"><ele>294.3333333333333</ele><time>2026-04-11T08:38:34Z</time></trkpt><trkpt lat="42.8065691559812" lon="11.803767586514436"><ele>294.0</ele><time>2026-04-11T08:38:35Z</time></trkpt><trkpt lat="42.80637727200161" lon="11.80388193936624"><ele>294.0</ele><time>2026-04-11T08:38:36Z</time></trkpt><trkpt lat="42.80618887597478" lon="11.803997592992285"><ele>294.0</ele><time>2026-04-11T08:38:37Z</time></trkpt><trkpt lat="42.806000082050375" lon="11.804115700344681"><ele>294.0</ele><time>2026-04-11T08:38:38Z</time></trkpt><trkpt lat="42.80580870772693" lon="11.80422504882529"><ele>294.6666666666667</ele><time>2026-04-11T08:38:39Z</time></trkpt><trkpt lat="42.80561882276979" lon="11.804337082599336"><ele>295.33333333333337</ele><time>2026-04-11T08:38:40Z</time></trkpt><trkpt lat="42.80542629266957" lon="11.804448555829984"><ele>296.0</ele><time>2026-04-11T08:38:41Z</time></trkpt><trkpt lat="42.8052346122917" lon="11.804564419573925"><ele>295.0</ele><time>2026-04-11T08:38:42Z</time></trkpt><trkpt lat="42.80504516926618" lon="11.804680931103851"><ele>294.0</ele><time>2026-04-11T08:38:43Z</time></trkpt><trkpt lat="42.80485495075381" lon="11.804797179303824"><ele>293.0</ele><time>2026-04-11T08:38:44Z</time></trkpt><trkpt lat="42.804661524948834" lon="11.804913154309919"><ele>293.0</ele><time>2026-04-11T08:38:45Z</time></trkpt><trkpt lat="42.804468882608404" lon="11.805028143660559"><ele>293.0</ele><time>2026-04-11T08:38:46Z</time></trkpt><trkpt lat="42.80427480941442" lon="11.805145058129899"><ele>293.0</ele><time>2026-04-11T08:38:47Z</time></trkpt><trkpt lat="42.80408121619347" lon="11.805262073946086"><ele>293.0</ele><time>2026-04-11T08:38:48Z</time></trkpt><trkpt lat="42.803883980167484" lon="11.805381618012925"><ele>293.0</ele><time>2026-04-11T08:38:49Z</time></trkpt><trkpt lat="42.803688368253006" lon="11.805499715516456"><ele>293.0</ele><time>2026-04-11T08:38:50Z</time></trkpt><trkpt lat="42.80349421994542" lon="11.805619883245704"><ele>293.0</ele><time>2026-04-11T08:38:51Z</time></trkpt><trkpt lat="42.803295055990205" lon="11.805741917843497"><ele>293.0</ele><time>2026-04-11T08:38:52Z</time></trkpt><trkpt lat="42.80309406492506" lon="11.805867534300502"><ele>293.0</ele><time>2026-04-11T08:38:53Z</time></trkpt><trkpt lat="42.802892452924354" lon="11.805996098352727"><ele>294.33333333333337</ele><time>2026-04-11T08:38:54Z</time></trkpt><trkpt lat="42.802687032714715" lon="11.806122165732228"><ele>295.6666666666667</ele><time>2026-04-11T08:38:55Z</time></trkpt><trkpt lat="42.802485341758505" lon="11.806244207742742"><ele>297.0</ele><time>2026-04-11T08:38:56Z</time></trkpt><trkpt lat="42.802285641840506" lon="11.80636616123269"><ele>294.3333333333333</ele><time>2026-04-11T08:38:57Z</time></trkpt><trkpt lat="42.80208292187687" lon="11.806488653372663"><ele>291.66666666666663</ele><time>2026-04-11T08:38:58Z</time></trkpt><trkpt lat="42.80187988399113" lon="11.80661092596057"><ele>289.0</ele><time>2026-04-11T08:38:59Z</time></trkpt><trkpt lat="42.8016810712461" lon="11.806739570174875"><ele>287.3333333333333</ele><time>2026-04-11T08:39:00Z</time></trkpt><trkpt lat="42.801490356524376" lon="11.806880917382212"><ele>285.6666666666667</ele><time>2026-04-11T08:39:01Z</time></trkpt><trkpt lat="42.80131053645727" lon="11.807056960924275"><ele>284.0</ele><time>2026-04-11T08:39:02Z</time></trkpt><trkpt lat="42.801136733512905" lon="11.80725987879575"><ele>280.5</ele><time>2026-04-11T08:39:03Z</time></trkpt><trkpt lat="42.800971843603186" lon="11.807487817196229"><ele>277.0</ele><time>2026-04-11T08:39:04Z</time></trkpt><trkpt lat="42.800818299957264" lon="11.807747711494908"><ele>276.0</ele><time>2026-04-11T08:39:05Z</time></trkpt><trkpt lat="42.80068414726802" lon="11.808038642743657"><ele>275.0</ele><time>2026-04-11T08:39:06Z</time></trkpt><trkpt lat="42.800567783915" lon="11.808355822648723"><ele>274.5</ele><time>2026-04-11T08:39:07Z</time></trkpt><trkpt lat="42.80046046627581" lon="11.808691158764587"><ele>274.0</ele><time>2026-04-11T08:39:08Z</time></trkpt><trkpt lat="42.800332653632886" lon="11.809026152684943"><ele>274.5</ele><time>2026-04-11T08:39:09Z</time></trkpt><trkpt lat="42.80021834921321" lon="11.80937510903667"><ele>275.0</ele><time>2026-04-11T08:39:10Z</time></trkpt><trkpt lat="42.80010222458131" lon="11.809720238989813"><ele>275.5</ele><time>2026-04-11T08:39:11Z</time></trkpt><trkpt lat="42.799983851518924" lon="11.810068079665964"><ele>276.0</ele><time>2026-04-11T08:39:12Z</time></trkpt><trkpt lat="42.799865256657846" lon="11.810417255120498"><ele>276.0</ele><time>2026-04-11T08:39:13Z</time></trkpt><trkpt lat="42.799749610665565" lon="11.810759688509368"><ele>276.0</ele><time>2026-04-11T08:39:14Z</time></trkpt><trkpt lat="42.799641265860245" lon="11.811080553621782"><ele>276.0</ele><time>2026-04-11T08:39:15Z</time></trkpt><trkpt lat="42.79953920512715" lon="11.811384048828247"><ele>276.0</ele><time>2026-04-11T08:39:16Z</time></trkpt><trkpt lat="42.79944254069619" lon="11.811673821257184"><ele>280.3333333333333</ele><time>2026-04-11T08:39:17Z</time></trkpt><trkpt lat="42.79934587018434" lon="11.81194554995775"><ele>284.66666666666663</ele><time>2026-04-11T08:39:18Z</time></trkpt><trkpt lat="42.79923569964306" lon="11.812195100826631"><ele>289.0</ele><time>2026-04-11T08:39:19Z</time></trkpt><trkpt lat="42.799077373563414" lon="11.812408098837054"><ele>289.0</ele><time>2026-04-11T08:39:20Z</time></trkpt><trkpt lat="42.798909771813925" lon="11.81257324323845"><ele>289.0</ele><time>2026-04-11T08:39:21Z</time></trkpt><trkpt lat="42.798736292328435" lon="11.812707907082464"><ele>289.0</ele><time>2026-04-11T08:39:22Z</time></trkpt><trkpt lat="42.79856123280601" lon="11.812842249734336"><ele>288.3333333333333</ele><time>2026-04-11T08:39:23Z</time></trkpt><trkpt lat="42.79839469574921" lon="11.812993377344846"><ele>287.6666666666667</ele><time>2026-04-11T08:39:24Z</time></trkpt><trkpt lat="42.79822895890965" lon="11.81314515649627"><ele>287.0</ele><time>2026-04-11T08:39:25Z</time></trkpt><trkpt lat="42.79806303510772" lon="11.81327924930704"><ele>287.0</ele><time>2026-04-11T08:39:26Z</time></trkpt><trkpt lat="42.79790307857452" lon="11.813417661399809"><ele>287.0</ele><time>2026-04-11T08:39:27Z</time></trkpt><trkpt lat="42.79774209685751" lon="11.813553082586484"><ele>287.0</ele><time>2026-04-11T08:39:28Z</time></trkpt><trkpt lat="42.79757482400977" lon="11.813698762321591"><ele>287.0</ele><time>2026-04-11T08:39:29Z</time></trkpt><trkpt lat="42.79740852464764" lon="11.813844616507557"><ele>287.0</ele><time>2026-04-11T08:39:30Z</time></trkpt><trkpt lat="42.7972397225107" lon="11.81398761608787"><ele>287.0</ele><time>2026-04-11T08:39:31Z</time></trkpt><trkpt lat="42.79706939466053" lon="11.814130374265801"><ele>287.0</ele><time>2026-04-11T08:39:32Z</time></trkpt><trkpt lat="42.79689885411442" lon="11.814276975845704"><ele>287.0</ele><time>2026-04-11T08:39:33Z</time></trkpt><trkpt lat="42.796721936270366" lon="11.814431224091399"><ele>287.0</ele><time>2026-04-11T08:39:34Z</time></trkpt><trkpt lat="42.79655065987221" lon="11.81459097431041"><ele>287.0</ele><time>2026-04-11T08:39:35Z</time></trkpt><trkpt lat="42.79637058469857" lon="11.81475335394885"><ele>287.0</ele><time>2026-04-11T08:39:36Z</time></trkpt><trkpt lat="42.796182571767154" lon="11.814905359929126"><ele>287.0</ele><time>2026-04-11T08:39:37Z</time></trkpt><trkpt lat="42.79599927249138" lon="11.815070573144965"><ele>286.6666666666667</ele><time>2026-04-11T08:39:38Z</time></trkpt><trkpt lat="42.79580884754513" lon="11.815241147273166"><ele>286.3333333333333</ele><time>2026-04-11T08:39:39Z</time></trkpt><trkpt lat="42.795628308260326" lon="11.815412269790645"><ele>286.0</ele><time>2026-04-11T08:39:40Z</time></trkpt><trkpt lat="42.79544639184079" lon="11.81559657947539"><ele>286.0</ele><time>2026-04-11T08:39:41Z</time></trkpt><trkpt lat="42.79527293304553" lon="11.815785606874948"><ele>286.0</ele><time>2026-04-11T08:39:42Z</time></trkpt><trkpt lat="42.795109871110995" lon="11.815975523135513"><ele>286.0</ele><time>2026-04-11T08:39:43Z</time></trkpt><trkpt lat="42.79495071685647" lon="11.816172655230472"><ele>285.3333333333333</ele><time>2026-04-11T08:39:44Z</time></trkpt><trkpt lat="42.794789939902365" lon="11.816380097957776"><ele>284.6666666666667</ele><time>2026-04-11T08:39:45Z</time></trkpt><trkpt lat="42.794633561719756" lon="11.816595624727375"><ele>284.0</ele><time>2026-04-11T08:39:46Z</time></trkpt><trkpt lat="42.7944851871381" lon="11.816825924322677"><ele>283.6666666666667</ele><time>2026-04-11T08:39:47Z</time></trkpt><trkpt lat="42.79433727550801" lon="11.81705833544131"><ele>283.3333333333333</ele><time>2026-04-11T08:39:48Z</time></trkpt><trkpt lat="42.79419266751488" lon="11.817288464123667"><ele>283.0</ele><time>2026-04-11T08:39:49Z</time></trkpt><trkpt lat="42.794043572251276" lon="11.817517139413072"><ele>285.3333333333333</ele><time>2026-04-11T08:39:50Z</time></trkpt><trkpt lat="42.79389605013516" lon="11.81774825337412"><ele>287.6666666666667</ele><time>2026-04-11T08:39:51Z</time></trkpt><trkpt lat="42.79374817582391" lon="11.817977632965738"><ele>290.0</ele><time>2026-04-11T08:39:52Z</time></trkpt><trkpt lat="42.79359706778091" lon="11.818206812286531"><ele>289.0</ele><time>2026-04-11T08:39:53Z</time></trkpt><trkpt lat="42.7934420437002" lon="11.818428931728612"><ele>288.0</ele><time>2026-04-11T08:39:54Z</time></trkpt><trkpt lat="42.7932811222674" lon="11.818638678266291"><ele>287.0</ele><time>2026-04-11T08:39:55Z</time></trkpt><trkpt lat="42.79310868184001" lon="11.818836354025642"><ele>287.0</ele><time>2026-04-11T08:39:56Z</time></trkpt><trkpt lat="42.79292218620652" lon="11.819033751777896"><ele>287.0</ele><time>2026-04-11T08:39:57Z</time></trkpt><trkpt lat="42.79272755339268" lon="11.819233810894989"><ele>285.0</ele><time>2026-04-11T08:39:58Z</time></trkpt><trkpt lat="42.79252383142309" lon="11.819441501622688"><ele>283.0</ele><time>2026-04-11T08:39:59Z</time></trkpt><trkpt lat="42.792321323134836" lon="11.819649461809206"><ele>283.0</ele><time>2026-04-11T08:40:00Z</time></trkpt><trkpt lat="42.79211579752931" lon="11.819862251668646"><ele>283.0</ele><time>2026-04-11T08:40:01Z</time></trkpt><trkpt lat="42.791908255856185" lon="11.820072996084482"><ele>280.5</ele><time>2026-04-11T08:40:02Z</time></trkpt><trkpt lat="42.79169656165278" lon="11.820285247297718"><ele>278.0</ele><time>2026-04-11T08:40:03Z</time></trkpt><trkpt lat="42.79148532051827" lon="11.820500876698336"><ele>278.0</ele><time>2026-04-11T08:40:04Z</time></trkpt><trkpt lat="42.79127440661867" lon="11.820720759310708"><ele>278.0</ele><time>2026-04-11T08:40:05Z</time></trkpt><trkpt lat="42.79106747467811" lon="11.820957202731734"><ele>275.0</ele><time>2026-04-11T08:40:06Z</time></trkpt><trkpt lat="42.79086846514636" lon="11.821212215888623"><ele>272.0</ele><time>2026-04-11T08:40:07Z</time></trkpt><trkpt lat="42.79067975339709" lon="11.821484921581249"><ele>272.0</ele><time>2026-04-11T08:40:08Z</time></trkpt><trkpt lat="42.79049183316395" lon="11.821765048259168"><ele>272.0</ele><time>2026-04-11T08:40:09Z</time></trkpt><trkpt lat="42.79030378420447" lon="11.822043941427584"><ele>272.5</ele><time>2026-04-11T08:40:10Z</time></trkpt><trkpt lat="42.79011195380866" lon="11.822310632511273"><ele>273.0</ele><time>2026-04-11T08:40:11Z</time></trkpt><trkpt lat="42.78991894295718" lon="11.822575866167725"><ele>275.0</ele><time>2026-04-11T08:40:12Z</time></trkpt><trkpt lat="42.789723298565264" lon="11.822835590811113"><ele>277.0</ele><time>2026-04-11T08:40:13Z</time></trkpt><trkpt lat="42.78952422048025" lon="11.823092273250142"><ele>274.5</ele><time>2026-04-11T08:40:14Z</time></trkpt><trkpt lat="42.78932366213399" lon="11.823348666738637"><ele>272.0</ele><time>2026-04-11T08:40:15Z</time></trkpt><trkpt lat="42.78912479837331" lon="11.823603840978816"><ele>272.0</ele><time>2026-04-11T08:40:16Z</time></trkpt><trkpt lat="42.78892262684181" lon="11.823860326875748"><ele>272.0</ele><time>2026-04-11T08:40:17Z</time></trkpt><trkpt lat="42.788727034148856" lon="11.824103594279288"><ele>272.5</ele><time>2026-04-11T08:40:18Z</time></trkpt><trkpt lat="42.78853129725802" lon="11.824354095436295"><ele>273.0</ele><time>2026-04-11T08:40:19Z</time></trkpt><trkpt lat="42.788335134584436" lon="11.824601316556658"><ele>273.0</ele><time>2026-04-11T08:40:20Z</time></trkpt><trkpt lat="42.78814126233689" lon="11.824848662533713"><ele>273.0</ele><time>2026-04-11T08:40:21Z</time></trkpt><trkpt lat="42.7879486662798" lon="11.825093897963704"><ele>273.5</ele><time>2026-04-11T08:40:22Z</time></trkpt><trkpt lat="42.78775708249708" lon="11.825337461874854"><ele>274.0</ele><time>2026-04-11T08:40:23Z</time></trkpt><trkpt lat="42.787570981268125" lon="11.82558250315072"><ele>274.0</ele><time>2026-04-11T08:40:24Z</time></trkpt><trkpt lat="42.787384494436644" lon="11.825836110311204"><ele>274.0</ele><time>2026-04-11T08:40:25Z</time></trkpt><trkpt lat="42.78720874204267" lon="11.826110961662812"><ele>275.0</ele><time>2026-04-11T08:40:26Z</time></trkpt><trkpt lat="42.78704171271579" lon="11.826401045330098"><ele>276.0</ele><time>2026-04-11T08:40:27Z</time></trkpt><trkpt lat="42.78687596598217" lon="11.82670964596193"><ele>272.5</ele><time>2026-04-11T08:40:28Z</time></trkpt><trkpt lat="42.78670907851352" lon="11.827020619967247"><ele>269.0</ele><time>2026-04-11T08:40:29Z</time></trkpt><trkpt lat="42.786543658489485" lon="11.82734364214617"><ele>271.5</ele><time>2026-04-11T08:40:30Z</time></trkpt><trkpt lat="42.78637861118251" lon="11.827666486795048"><ele>274.0</ele><time>2026-04-11T08:40:31Z</time></trkpt><trkpt lat="42.78620798207636" lon="11.82798759929299"><ele>274.0</ele><time>2026-04-11T08:40:32Z</time></trkpt><trkpt lat="42.78602427488731" lon="11.828306359542852"><ele>274.0</ele><time>2026-04-11T08:40:33Z</time></trkpt><trkpt lat="42.785834561871496" lon="11.828623367504148"><ele>270.0</ele><time>2026-04-11T08:40:34Z</time></trkpt><trkpt lat="42.78564035129323" lon="11.828931153400939"><ele>266.0</ele><time>2026-04-11T08:40:35Z</time></trkpt><trkpt lat="42.78543077129498" lon="11.829225616907834"><ele>267.5</ele><time>2026-04-11T08:40:36Z</time></trkpt><trkpt lat="42.78523715640501" lon="11.829531015660946"><ele>269.0</ele><time>2026-04-11T08:40:37Z</time></trkpt><trkpt lat="42.785051531510405" lon="11.829854260378008"><ele>269.5</ele><time>2026-04-11T08:40:38Z</time></trkpt><trkpt lat="42.7848553748604" lon="11.830157880234403"><ele>270.0</ele><time>2026-04-11T08:40:39Z</time></trkpt><trkpt lat="42.78465875842522" lon="11.830463234912902"><ele>270.0</ele><time>2026-04-11T08:40:40Z</time></trkpt><trkpt lat="42.784462067208004" lon="11.830766575655622"><ele>270.0</ele><time>2026-04-11T08:40:41Z</time></trkpt><trkpt lat="42.78426942928973" lon="11.831064561457419"><ele>269.0</ele><time>2026-04-11T08:40:42Z</time></trkpt><trkpt lat="42.78408576612544" lon="11.831345803002694"><ele>268.0</ele><time>2026-04-11T08:40:43Z</time></trkpt><trkpt lat="42.783899460977295" lon="11.831605004071308"><ele>268.0</ele><time>2026-04-11T08:40:44Z</time></trkpt><trkpt lat="42.78370212020312" lon="11.831805616006887"><ele>268.0</ele><time>2026-04-11T08:40:45Z</time></trkpt><trkpt lat="42.78348068217634" lon="11.831961945759945"><ele>269.5</ele><time>2026-04-11T08:40:46Z</time></trkpt><trkpt lat="42.78323757178136" lon="11.832088846697308"><ele>271.0</ele><time>2026-04-11T08:40:47Z</time></trkpt><trkpt lat="42.78297751034133" lon="11.832201495206135"><ele>271.0</ele><time>2026-04-11T08:40:48Z</time></trkpt><trkpt lat="42.78271409770414" lon="11.832301095420277"><ele>271.0</ele><time>2026-04-11T08:40:49Z</time></trkpt><trkpt lat="42.782458065988216" lon="11.832413349004751"><ele>270.5</ele><time>2026-04-11T08:40:50Z</time></trkpt><trkpt lat="42.78222260298693" lon="11.832545005225212"><ele>270.0</ele><time>2026-04-11T08:40:51Z</time></trkpt><trkpt lat="42.78200174636485" lon="11.83269088364154"><ele>267.0</ele><time>2026-04-11T08:40:52Z</time></trkpt><trkpt lat="42.78179467435195" lon="11.832871166897975"><ele>264.0</ele><time>2026-04-11T08:40:53Z</time></trkpt><trkpt lat="42.78160601139223" lon="11.833084878651581"><ele>264.0</ele><time>2026-04-11T08:40:54Z</time></trkpt><trkpt lat="42.7814414447731" lon="11.833345990194255"><ele>264.0</ele><time>2026-04-11T08:40:55Z</time></trkpt><trkpt lat="42.78129840421287" lon="11.833645823091755"><ele>264.5</ele><time>2026-04-11T08:40:56Z</time></trkpt><trkpt lat="42.7811668770296" lon="11.833979071773587"><ele>265.0</ele><time>2026-04-11T08:40:57Z</time></trkpt><trkpt lat="42.78103053101627" lon="11.834320693563507"><ele>264.0</ele><time>2026-04-11T08:40:58Z</time></trkpt><trkpt lat="42.78088219697062" lon="11.83465453339516"><ele>263.0</ele><time>2026-04-11T08:40:59Z</time></trkpt><trkpt lat="42.78072819098276" lon="11.834962940001313"><ele>264.5</ele><time>2026-04-11T08:41:00Z</time></trkpt><trkpt lat="42.78057323095606" lon="11.83525201051913"><ele>266.0</ele><time>2026-04-11T08:41:01Z</time></trkpt><trkpt lat="42.7804196452499" lon="11.835533983203272"><ele>266.0</ele><time>2026-04-11T08:41:02Z</time></trkpt><trkpt lat="42.78025689375952" lon="11.835807439849921"><ele>266.0</ele><time>2026-04-11T08:41:03Z</time></trkpt><trkpt lat="42.78009691169636" lon="11.83608498817495"><ele>264.0</ele><time>2026-04-11T08:41:04Z</time></trkpt><trkpt lat="42.77993331320867" lon="11.836358940039581"><ele>262.0</ele><time>2026-04-11T08:41:05Z</time></trkpt><trkpt lat="42.779771978499845" lon="11.8366413422136"><ele>263.5</ele><time>2026-04-11T08:41:06Z</time></trkpt><trkpt lat="42.77960336735936" lon="11.836923835760263"><ele>265.0</ele><time>2026-04-11T08:41:07Z</time></trkpt><trkpt lat="42.779440954843004" lon="11.837210340885692"><ele>262.5</ele><time>2026-04-11T08:41:08Z</time></trkpt><trkpt lat="42.77927288174595" lon="11.837499153181964"><ele>260.0</ele><time>2026-04-11T08:41:09Z</time></trkpt><trkpt lat="42.779100113574074" lon="11.837791477065327"><ele>260.0</ele><time>2026-04-11T08:41:10Z</time></trkpt><trkpt lat="42.778924829504746" lon="11.83808437162658"><ele>260.0</ele><time>2026-04-11T08:41:11Z</time></trkpt><trkpt lat="42.778749734456134" lon="11.838382027338568"><ele>260.0</ele><time>2026-04-11T08:41:12Z</time></trkpt><trkpt lat="42.77857395455057" lon="11.83868451005862"><ele>260.0</ele><time>2026-04-11T08:41:13Z</time></trkpt><trkpt lat="42.77840012417523" lon="11.838983994096026"><ele>260.0</ele><time>2026-04-11T08:41:14Z</time></trkpt><trkpt lat="42.77822543685635" lon="11.839287015188843"><ele>260.0</ele><time>2026-04-11T08:41:15Z</time></trkpt><trkpt lat="42.778052024471044" lon="11.839587323205205"><ele>261.5</ele><time>2026-04-11T08:41:16Z</time></trkpt><trkpt lat="42.77788118745784" lon="11.839883264916095"><ele>263.0</ele><time>2026-04-11T08:41:17Z</time></trkpt><trkpt lat="42.77771968287264" lon="11.84018449073626"><ele>263.0</ele><time>2026-04-11T08:41:18Z</time></trkpt><trkpt lat="42.777562386915456" lon="11.840492931666763"><ele>263.0</ele><time>2026-04-11T08:41:19Z</time></trkpt><trkpt lat="42.777402756654865" lon="11.840806099199124"><ele>264.5</ele><time>2026-04-11T08:41:20Z</time></trkpt><trkpt lat="42.77724457369444" lon="11.841116847892026"><ele>266.0</ele><time>2026-04-11T08:41:21Z</time></trkpt><trkpt lat="42.77708238868688" lon="11.841430733661284"><ele>266.0</ele><time>2026-04-11T08:41:22Z</time></trkpt><trkpt lat="42.77692115807529" lon="11.841745333677297"><ele>266.0</ele><time>2026-04-11T08:41:23Z</time></trkpt><trkpt lat="42.77675790305568" lon="11.842057816846385"><ele>265.0</ele><time>2026-04-11T08:41:24Z</time></trkpt><trkpt lat="42.776595114111906" lon="11.842371821194403"><ele>264.0</ele><time>2026-04-11T08:41:25Z</time></trkpt><trkpt lat="42.77643229314496" lon="11.842687716027761"><ele>264.0</ele><time>2026-04-11T08:41:26Z</time></trkpt><trkpt lat="42.776268439060885" lon="11.843003024279676"><ele>264.0</ele><time>2026-04-11T08:41:27Z</time></trkpt><trkpt lat="42.77610676379241" lon="11.843315840060699"><ele>263.5</ele><time>2026-04-11T08:41:28Z</time></trkpt><trkpt lat="42.77594536503694" lon="11.843624285667012"><ele>263.0</ele><time>2026-04-11T08:41:29Z</time></trkpt><trkpt lat="42.77578925427128" lon="11.843927315931442"><ele>263.0</ele><time>2026-04-11T08:41:30Z</time></trkpt><trkpt lat="42.77564735325306" lon="11.844243847535292"><ele>263.0</ele><time>2026-04-11T08:41:31Z</time></trkpt><trkpt lat="42.775520579046365" lon="11.844568567381527"><ele>264.0</ele><time>2026-04-11T08:41:32Z</time></trkpt><trkpt lat="42.77541099958573" lon="11.844899377307133"><ele>265.0</ele><time>2026-04-11T08:41:33Z</time></trkpt><trkpt lat="42.77531426081295" lon="11.845246293901871"><ele>265.0</ele><time>2026-04-11T08:41:34Z</time></trkpt><trkpt lat="42.77523595938407" lon="11.845606845005015"><ele>265.0</ele><time>2026-04-11T08:41:35Z</time></trkpt><trkpt lat="42.77517080926657" lon="11.84597019263336"><ele>265.0</ele><time>2026-04-11T08:41:36Z</time></trkpt><trkpt lat="42.77510137747673" lon="11.846333308288512"><ele>265.0</ele><time>2026-04-11T08:41:37Z</time></trkpt><trkpt lat="42.77502745303249" lon="11.846693703150702"><ele>266.0</ele><time>2026-04-11T08:41:38Z</time></trkpt><trkpt lat="42.77494910471777" lon="11.847034465754845"><ele>267.0</ele><time>2026-04-11T08:41:39Z</time></trkpt><trkpt lat="42.77485625179374" lon="11.847367422540465"><ele>269.5</ele><time>2026-04-11T08:41:40Z</time></trkpt><trkpt lat="42.77472929721332" lon="11.84766878528726"><ele>272.0</ele><time>2026-04-11T08:41:41Z</time></trkpt><trkpt lat="42.77457973966777" lon="11.847945941470188"><ele>272.0</ele><time>2026-04-11T08:41:42Z</time></trkpt><trkpt lat="42.77440048521378" lon="11.848221806628594"><ele>272.0</ele><time>2026-04-11T08:41:43Z</time></trkpt><trkpt lat="42.77420844551446" lon="11.848485979283362"><ele>271.0</ele><time>2026-04-11T08:41:44Z</time></trkpt><trkpt lat="42.77401079195018" lon="11.848751918893388"><ele>270.0</ele><time>2026-04-11T08:41:45Z</time></trkpt><trkpt lat="42.773808409926126" lon="11.849028530509017"><ele>271.0</ele><time>2026-04-11T08:41:46Z</time></trkpt><trkpt lat="42.77360797120756" lon="11.849313021707358"><ele>272.0</ele><time>2026-04-11T08:41:47Z</time></trkpt><trkpt lat="42.77340333038295" lon="11.849598914688984"><ele>272.0</ele><time>2026-04-11T08:41:48Z</time></trkpt><trkpt lat="42.77319942285283" lon="11.849875194876734"><ele>272.0</ele><time>2026-04-11T08:41:49Z</time></trkpt><trkpt lat="42.77299635186306" lon="11.850148277545893"><ele>272.0</ele><time>2026-04-11T08:41:50Z</time></trkpt><trkpt lat="42.77279620573507" lon="11.850424740145655"><ele>272.0</ele><time>2026-04-11T08:41:51Z</time></trkpt><trkpt lat="42.77259783828866" lon="11.850701965426632"><ele>272.5</ele><time>2026-04-11T08:41:52Z</time></trkpt><trkpt lat="42.7724000495698" lon="11.850970988724916"><ele>273.0</ele><time>2026-04-11T08:41:53Z</time></trkpt><trkpt lat="42.772217874547486" lon="11.851219168754737"><ele>273.0</ele><time>2026-04-11T08:41:54Z</time></trkpt><trkpt lat="42.77204583601568" lon="11.851456221818836"><ele>273.0</ele><time>2026-04-11T08:41:55Z</time></trkpt><trkpt lat="42.77188632406992" lon="11.851680599264803"><ele>270.6666666666667</ele><time>2026-04-11T08:41:56Z</time></trkpt><trkpt lat="42.77174345331173" lon="11.85190551250746"><ele>268.33333333333337</ele><time>2026-04-11T08:41:57Z</time></trkpt><trkpt lat="42.771631215258786" lon="11.852149231346633"><ele>266.0</ele><time>2026-04-11T08:41:58Z</time></trkpt><trkpt lat="42.77154091051785" lon="11.852434038200315"><ele>264.5</ele><time>2026-04-11T08:41:59Z</time></trkpt><trkpt lat="42.77147322908962" lon="11.852741893829382"><ele>263.0</ele><time>2026-04-11T08:42:00Z</time></trkpt><trkpt lat="42.771426648408614" lon="11.853081239453237"><ele>263.0</ele><time>2026-04-11T08:42:01Z</time></trkpt><trkpt lat="42.771386323558495" lon="11.85343464747489"><ele>263.0</ele><time>2026-04-11T08:42:02Z</time></trkpt><trkpt lat="42.771339263140185" lon="11.853789992965668"><ele>263.5</ele><time>2026-04-11T08:42:03Z</time></trkpt><trkpt lat="42.77129766964279" lon="11.854115624611765"><ele>264.0</ele><time>2026-04-11T08:42:04Z</time></trkpt><trkpt lat="42.77125739367767" lon="11.854409189028921"><ele>264.3333333333333</ele><time>2026-04-11T08:42:05Z</time></trkpt><trkpt lat="42.77119966982026" lon="11.854676470365446"><ele>264.66666666666663</ele><time>2026-04-11T08:42:06Z</time></trkpt><trkpt lat="42.771106867909594" lon="11.854908395588811"><ele>265.0</ele><time>2026-04-11T08:42:07Z</time></trkpt><trkpt lat="42.770979047933636" lon="11.855110108070464"><ele>263.66666666666663</ele><time>2026-04-11T08:42:08Z</time></trkpt><trkpt lat="42.77081200744628" lon="11.855282476628888"><ele>262.3333333333333</ele><time>2026-04-11T08:42:09Z</time></trkpt><trkpt lat="42.770623745639796" lon="11.855418336920941"><ele>261.0</ele><time>2026-04-11T08:42:10Z</time></trkpt><trkpt lat="42.77041220979241" lon="11.855506269306064"><ele>260.0</ele><time>2026-04-11T08:42:11Z</time></trkpt><trkpt lat="42.77017599131092" lon="11.855556905692893"><ele>259.0</ele><time>2026-04-11T08:42:12Z</time></trkpt><trkpt lat="42.76992272497663" lon="11.855594500836421"><ele>259.0</ele><time>2026-04-11T08:42:13Z</time></trkpt><trkpt lat="42.769655822284" lon="11.855633511202514"><ele>259.0</ele><time>2026-04-11T08:42:14Z</time></trkpt><trkpt lat="42.76939484698897" lon="11.855677206254228"><ele>258.5</ele><time>2026-04-11T08:42:15Z</time></trkpt><trkpt lat="42.769128464306085" lon="11.85572001316393"><ele>258.0</ele><time>2026-04-11T08:42:16Z</time></trkpt><trkpt lat="42.76885806157968" lon="11.855763402268261"><ele>258.0</ele><time>2026-04-11T08:42:17Z</time></trkpt><trkpt lat="42.76858481214481" lon="11.855808930062725"><ele>258.0</ele><time>2026-04-11T08:42:18Z</time></trkpt><trkpt lat="42.768308497857745" lon="11.855857621742665"><ele>256.5</ele><time>2026-04-11T08:42:19Z</time></trkpt><trkpt lat="42.76802642048449" lon="11.855907813281267"><ele>255.0</ele><time>2026-04-11T08:42:20Z</time></trkpt><trkpt lat="42.767743314699494" lon="11.855955043868235"><ele>254.0</ele><time>2026-04-11T08:42:21Z</time></trkpt><trkpt lat="42.76745535601573" lon="11.856000754553055"><ele>253.0</ele><time>2026-04-11T08:42:22Z</time></trkpt><trkpt lat="42.767167423337746" lon="11.8560486377629"><ele>253.0</ele><time>2026-04-11T08:42:23Z</time></trkpt><trkpt lat="42.766875575518426" lon="11.85610054465944"><ele>253.0</ele><time>2026-04-11T08:42:24Z</time></trkpt><trkpt lat="42.76658151779234" lon="11.856150526309403"><ele>252.0</ele><time>2026-04-11T08:42:25Z</time></trkpt><trkpt lat="42.76629065530949" lon="11.856197964305876"><ele>251.0</ele><time>2026-04-11T08:42:26Z</time></trkpt><trkpt lat="42.765998030004575" lon="11.856237393782703"><ele>249.0</ele><time>2026-04-11T08:42:27Z</time></trkpt><trkpt lat="42.76571248831484" lon="11.856259979495983"><ele>247.0</ele><time>2026-04-11T08:42:28Z</time></trkpt><trkpt lat="42.765434296091044" lon="11.856268127538865"><ele>247.0</ele><time>2026-04-11T08:42:29Z</time></trkpt><trkpt lat="42.765163934894545" lon="11.856267112207476"><ele>247.0</ele><time>2026-04-11T08:42:30Z</time></trkpt><trkpt lat="42.764904075317745" lon="11.85626575840773"><ele>247.0</ele><time>2026-04-11T08:42:31Z</time></trkpt><trkpt lat="42.764681782932165" lon="11.85626544201834"><ele>247.0</ele><time>2026-04-11T08:42:32Z</time></trkpt><trkpt lat="42.7644631800109" lon="11.856269323717074"><ele>247.0</ele><time>2026-04-11T08:42:33Z</time></trkpt><trkpt lat="42.76423742098807" lon="11.856264630736577"><ele>246.5</ele><time>2026-04-11T08:42:34Z</time></trkpt><trkpt lat="42.76400028238189" lon="11.856253962571238"><ele>246.0</ele><time>2026-04-11T08:42:35Z</time></trkpt><trkpt lat="42.7637621437839" lon="11.856240105818124"><ele>246.0</ele><time>2026-04-11T08:42:36Z</time></trkpt><trkpt lat="42.763539008548904" lon="11.856244349811673"><ele>246.0</ele><time>2026-04-11T08:42:37Z</time></trkpt><trkpt lat="42.76332273903658" lon="11.856271423287195"><ele>246.0</ele><time>2026-04-11T08:42:38Z</time></trkpt><trkpt lat="42.763107969299696" lon="11.856343090445245"><ele>246.5</ele><time>2026-04-11T08:42:39Z</time></trkpt><trkpt lat="42.76289554702475" lon="11.856443802477575"><ele>247.0</ele><time>2026-04-11T08:42:40Z</time></trkpt><trkpt lat="42.76269152243125" lon="11.85658180304175"><ele>247.5</ele><time>2026-04-11T08:42:41Z</time></trkpt><trkpt lat="42.76249992960657" lon="11.856743648311136"><ele>248.0</ele><time>2026-04-11T08:42:42Z</time></trkpt><trkpt lat="42.762341465174984" lon="11.85696606828154"><ele>248.0</ele><time>2026-04-11T08:42:43Z</time></trkpt><trkpt lat="42.76218837915539" lon="11.85720771199562"><ele>248.0</ele><time>2026-04-11T08:42:44Z</time></trkpt><trkpt lat="42.76205528759141" lon="11.85747326821412"><ele>247.5</ele><time>2026-04-11T08:42:45Z</time></trkpt><trkpt lat="42.761935583016175" lon="11.857764327622991"><ele>247.0</ele><time>2026-04-11T08:42:46Z</time></trkpt><trkpt lat="42.76182656296685" lon="11.85804703055253"><ele>250.0</ele><time>2026-04-11T08:42:47Z</time></trkpt><trkpt lat="42.76172930443751" lon="11.858329291057531"><ele>253.0</ele><time>2026-04-11T08:42:48Z</time></trkpt><trkpt lat="42.761633446134304" lon="11.858613553093761"><ele>253.0</ele><time>2026-04-11T08:42:49Z</time></trkpt><trkpt lat="42.761566785498005" lon="11.85892704428091"><ele>253.0</ele><time>2026-04-11T08:42:50Z</time></trkpt><trkpt lat="42.76150267740878" lon="11.859256050085538"><ele>251.5</ele><time>2026-04-11T08:42:51Z</time></trkpt><trkpt lat="42.76143988902336" lon="11.859594626839241"><ele>250.0</ele><time>2026-04-11T08:42:52Z</time></trkpt><trkpt lat="42.76137629922447" lon="11.859937525097157"><ele>249.5</ele><time>2026-04-11T08:42:53Z</time></trkpt><trkpt lat="42.76131247469136" lon="11.860281002344099"><ele>249.0</ele><time>2026-04-11T08:42:54Z</time></trkpt><trkpt lat="42.761253939979554" lon="11.860635914844798"><ele>249.0</ele><time>2026-04-11T08:42:55Z</time></trkpt><trkpt lat="42.76118018989554" lon="11.860989049122345"><ele>249.0</ele><time>2026-04-11T08:42:56Z</time></trkpt><trkpt lat="42.761112613955994" lon="11.861348758421185"><ele>249.0</ele><time>2026-04-11T08:42:57Z</time></trkpt><trkpt lat="42.761043787278254" lon="11.861714793679278"><ele>249.0</ele><time>2026-04-11T08:42:58Z</time></trkpt><trkpt lat="42.760978404118454" lon="11.862061673028458"><ele>250.0</ele><time>2026-04-11T08:42:59Z</time></trkpt><trkpt lat="42.76091542413504" lon="11.86238479039236"><ele>251.0</ele><time>2026-04-11T08:43:00Z</time></trkpt><trkpt lat="42.760854065645326" lon="11.862681293667622"><ele>251.0</ele><time>2026-04-11T08:43:01Z</time></trkpt><trkpt lat="42.76079355080327" lon="11.862934413646979"><ele>251.0</ele><time>2026-04-11T08:43:02Z</time></trkpt><trkpt lat="42.760710064987556" lon="11.863165083559625"><ele>251.0</ele><time>2026-04-11T08:43:03Z</time></trkpt><trkpt lat="42.76058245987747" lon="11.863357592483617"><ele>251.33333333333334</ele><time>2026-04-11T08:43:04Z</time></trkpt><trkpt lat="42.76041931365153" lon="11.863514690159871"><ele>251.66666666666669</ele><time>2026-04-11T08:43:05Z</time></trkpt><trkpt lat="42.76022452510182" lon="11.863644167808621"><ele>252.0</ele><time>2026-04-11T08:43:06Z</time></trkpt><trkpt lat="42.760005771065025" lon="11.863750109171452"><ele>252.0</ele><time>2026-04-11T08:43:07Z</time></trkpt><trkpt lat="42.75977602140979" lon="11.863858289403124"><ele>252.0</ele><time>2026-04-11T08:43:08Z</time></trkpt><trkpt lat="42.75954435500303" lon="11.863965237649188"><ele>254.5</ele><time>2026-04-11T08:43:09Z</time></trkpt><trkpt lat="42.75931297624819" lon="11.864079362395625"><ele>257.0</ele><time>2026-04-11T08:43:10Z</time></trkpt><trkpt lat="42.75907029398238" lon="11.864190460581908"><ele>257.0</ele><time>2026-04-11T08:43:11Z</time></trkpt><trkpt lat="42.758817197792986" lon="11.864277905191653"><ele>257.0</ele><time>2026-04-11T08:43:12Z</time></trkpt><trkpt lat="42.75858513486673" lon="11.864342820763392"><ele>257.0</ele><time>2026-04-11T08:43:13Z</time></trkpt><trkpt lat="42.758383961457014" lon="11.86441574790276"><ele>257.0</ele><time>2026-04-11T08:43:14Z</time></trkpt><trkpt lat="42.75821545732788" lon="11.864518682421073"><ele>257.0</ele><time>2026-04-11T08:43:15Z</time></trkpt><trkpt lat="42.758073287526294" lon="11.864698358773035"><ele>257.0</ele><time>2026-04-11T08:43:16Z</time></trkpt><trkpt lat="42.757950198619206" lon="11.864933487417108"><ele>257.0</ele><time>2026-04-11T08:43:17Z</time></trkpt><trkpt lat="42.75783388768151" lon="11.86518243273541"><ele>257.0</ele><time>2026-04-11T08:43:18Z</time></trkpt><trkpt lat="42.75770549371008" lon="11.865371642670837"><ele>259.0</ele><time>2026-04-11T08:43:19Z</time></trkpt><trkpt lat="42.75756084171539" lon="11.8654912765011"><ele>261.0</ele><time>2026-04-11T08:43:20Z</time></trkpt><trkpt lat="42.757383675658026" lon="11.865568118191412"><ele>263.0</ele><time>2026-04-11T08:43:21Z</time></trkpt><trkpt lat="42.75717268596824" lon="11.865610347196073"><ele>263.0</ele><time>2026-04-11T08:43:22Z</time></trkpt><trkpt lat="42.75695005473486" lon="11.865618497822393"><ele>263.0</ele><time>2026-04-11T08:43:23Z</time></trkpt><trkpt lat="42.75671691128099" lon="11.865596255888597"><ele>268.0</ele><time>2026-04-11T08:43:24Z</time></trkpt><trkpt lat="42.75646954415629" lon="11.865569143309438"><ele>273.0</ele><time>2026-04-11T08:43:25Z</time></trkpt><trkpt lat="42.75621312658283" lon="11.865550082421336"><ele>275.5</ele><time>2026-04-11T08:43:26Z</time></trkpt><trkpt lat="42.755948520655785" lon="11.865530078721187"><ele>278.0</ele><time>2026-04-11T08:43:27Z</time></trkpt><trkpt lat="42.7556927532603" lon="11.86551021951221"><ele>278.0</ele><time>2026-04-11T08:43:28Z</time></trkpt><trkpt lat="42.75545287815233" lon="11.865504963495043"><ele>278.0</ele><time>2026-04-11T08:43:29Z</time></trkpt><trkpt lat="42.75522999676357" lon="11.86551424650888"><ele>283.0</ele><time>2026-04-11T08:43:30Z</time></trkpt><trkpt lat="42.75500146221217" lon="11.865524976994516"><ele>288.0</ele><time>2026-04-11T08:43:31Z</time></trkpt><trkpt lat="42.75476552171142" lon="11.865519498479834"><ele>288.0</ele><time>2026-04-11T08:43:32Z</time></trkpt><trkpt lat="42.75452204042508" lon="11.865503763671567"><ele>288.0</ele><time>2026-04-11T08:43:33Z</time></trkpt><trkpt lat="42.75427629121366" lon="11.865495676582821"><ele>289.5</ele><time>2026-04-11T08:43:34Z</time></trkpt><trkpt lat="42.75403819178509" lon="11.86548107511211"><ele>291.0</ele><time>2026-04-11T08:43:35Z</time></trkpt><trkpt lat="42.753819263112185" lon="11.86545621603453"><ele>291.0</ele><time>2026-04-11T08:43:36Z</time></trkpt><trkpt lat="42.7536080965793" lon="11.865423283390466"><ele>291.0</ele><time>2026-04-11T08:43:37Z</time></trkpt><trkpt lat="42.753408673043815" lon="11.865390778688754"><ele>291.0</ele><time>2026-04-11T08:43:38Z</time></trkpt><trkpt lat="42.753218636802266" lon="11.865353000121019"><ele>290.6666666666667</ele><time>2026-04-11T08:43:39Z</time></trkpt><trkpt lat="42.75303461081952" lon="11.865288243898004"><ele>290.33333333333337</ele><time>2026-04-11T08:43:40Z</time></trkpt><trkpt lat="42.75286694736048" lon="11.865177647087556"><ele>290.0</ele><time>2026-04-11T08:43:41Z</time></trkpt><trkpt lat="42.752691766751745" lon="11.865026194320425"><ele>293.33333333333337</ele><time>2026-04-11T08:43:42Z</time></trkpt><trkpt lat="42.75251230911285" lon="11.864865258470072"><ele>296.6666666666667</ele><time>2026-04-11T08:43:43Z</time></trkpt><trkpt lat="42.75234437753005" lon="11.864723069232628"><ele>300.0</ele><time>2026-04-11T08:43:44Z</time></trkpt><trkpt lat="42.752183799528254" lon="11.864618782345998"><ele>300.0</ele><time>2026-04-11T08:43:45Z</time></trkpt><trkpt lat="42.75201525529094" lon="11.86457484299111"><ele>300.0</ele><time>2026-04-11T08:43:46Z</time></trkpt><trkpt lat="42.751829946428956" lon="11.86456123200376"><ele>300.0</ele><time>2026-04-11T08:43:47Z</time></trkpt><trkpt lat="42.75163135340348" lon="11.864577594640615"><ele>299.6666666666667</ele><time>2026-04-11T08:43:48Z</time></trkpt><trkpt lat="42.751422163511656" lon="11.86463213737745"><ele>299.33333333333337</ele><time>2026-04-11T08:43:49Z</time></trkpt><trkpt lat="42.751198562839065" lon="11.864694029110801"><ele>299.0</ele><time>2026-04-11T08:43:50Z</time></trkpt><trkpt lat="42.75097876306781" lon="11.864749095753128"><ele>303.0</ele><time>2026-04-11T08:43:51Z</time></trkpt><trkpt lat="42.750749514929616" lon="11.864804173319898"><ele>307.0</ele><time>2026-04-11T08:43:52Z</time></trkpt><trkpt lat="42.75051515243623" lon="11.864858839289829"><ele>307.0</ele><time>2026-04-11T08:43:53Z</time></trkpt><trkpt lat="42.750301656397276" lon="11.864899866377291"><ele>307.0</ele><time>2026-04-11T08:43:54Z</time></trkpt><trkpt lat="42.75012701608032" lon="11.864923773345497"><ele>307.0</ele><time>2026-04-11T08:43:55Z</time></trkpt><trkpt lat="42.74997534076789" lon="11.86494417844328"><ele>308.8</ele><time>2026-04-11T08:43:56Z</time></trkpt><trkpt lat="42.749858391856975" lon="11.864952220012754"><ele>310.6</ele><time>2026-04-11T08:43:57Z</time></trkpt><trkpt lat="42.74976203703328" lon="11.864885220394498"><ele>312.40000000000003</ele><time>2026-04-11T08:43:58Z</time></trkpt><trkpt lat="42.74971376340244" lon="11.864792195192521"><ele>314.2</ele><time>2026-04-11T08:43:59Z</time></trkpt><trkpt lat="42.74972815778086" lon="11.864679519227106"><ele>316.0</ele><time>2026-04-11T08:44:00Z</time></trkpt><trkpt lat="42.74978231549597" lon="11.864566053714269"><ele>316.0</ele><time>2026-04-11T08:44:01Z</time></trkpt><trkpt lat="42.74986196776499" lon="11.86445036687285"><ele>316.0</ele><time>2026-04-11T08:44:02Z</time></trkpt><trkpt lat="42.74997926580225" lon="11.864315101037475"><ele>316.0</ele><time>2026-04-11T08:44:03Z</time></trkpt><trkpt lat="42.750124239354726" lon="11.864162974256978"><ele>317.3333333333333</ele><time>2026-04-11T08:44:04Z</time></trkpt><trkpt lat="42.75028716351325" lon="11.86400362170681"><ele>318.6666666666667</ele><time>2026-04-11T08:44:05Z</time></trkpt><trkpt lat="42.750462487244235" lon="11.863827663372538"><ele>320.0</ele><time>2026-04-11T08:44:06Z</time></trkpt><trkpt lat="42.75063765174164" lon="11.863644043267113"><ele>320.0</ele><time>2026-04-11T08:44:07Z</time></trkpt><trkpt lat="42.750808742720004" lon="11.8634649771121"><ele>320.0</ele><time>2026-04-11T08:44:08Z</time></trkpt><trkpt lat="42.750976187326295" lon="11.86334085321964"><ele>320.0</ele><time>2026-04-11T08:44:09Z</time></trkpt><trkpt lat="42.75116260028441" lon="11.863283780537273"><ele>323.0</ele><time>2026-04-11T08:44:10Z</time></trkpt><trkpt lat="42.75135459383425" lon="11.863267407801827"><ele>326.0</ele><time>2026-04-11T08:44:11Z</time></trkpt><trkpt lat="42.75152862535913" lon="11.86326044218985"><ele>329.0</ele><time>2026-04-11T08:44:12Z</time></trkpt><trkpt lat="42.75168037029289" lon="11.86326852943758"><ele>329.0</ele><time>2026-04-11T08:44:13Z</time></trkpt><trkpt lat="42.751809263676776" lon="11.863273935765605"><ele>329.0</ele><time>2026-04-11T08:44:14Z</time></trkpt><trkpt lat="42.751914251461535" lon="11.863281418071384"><ele>329.0</ele><time>2026-04-11T08:44:15Z</time></trkpt><trkpt lat="42.75199972935486" lon="11.863287749135345"><ele>329.0</ele><time>2026-04-11T08:44:16Z</time></trkpt><trkpt lat="42.75207326536745" lon="11.863253005879335"><ele>329.0</ele><time>2026-04-11T08:44:17Z</time></trkpt><trkpt lat="42.75212847873996" lon="11.863180518963391"><ele>329.1666666666667</ele><time>2026-04-11T08:44:18Z</time></trkpt><trkpt lat="42.752160684594" lon="11.86308033209503"><ele>329.33333333333337</ele><time>2026-04-11T08:44:19Z</time></trkpt><trkpt lat="42.75217337055739" lon="11.862968943207996"><ele>329.5</ele><time>2026-04-11T08:44:20Z</time></trkpt><trkpt lat="42.752171872157966" lon="11.862856076918787"><ele>329.6666666666667</ele><time>2026-04-11T08:44:21Z</time></trkpt><trkpt lat="42.752130350513916" lon="11.862741852600942"><ele>329.8333333333333</ele><time>2026-04-11T08:44:22Z</time></trkpt><trkpt lat="42.75203672720625" lon="11.86266571695136"><ele>330.0</ele><time>2026-04-11T08:44:23Z</time></trkpt><trkpt lat="42.75188759942765" lon="11.86261743439562"><ele>334.3333333333333</ele><time>2026-04-11T08:44:24Z</time></trkpt><trkpt lat="42.75172346382987" lon="11.862563127260483"><ele>338.66666666666663</ele><time>2026-04-11T08:44:25Z</time></trkpt><trkpt lat="42.75153597833341" lon="11.862515840320116"><ele>343.0</ele><time>2026-04-11T08:44:26Z</time></trkpt><trkpt lat="42.75132194160572" lon="11.862491544716894"><ele>343.0</ele><time>2026-04-11T08:44:27Z</time></trkpt><trkpt lat="42.75109277492039" lon="11.862483814641957"><ele>343.0</ele><time>2026-04-11T08:44:28Z</time></trkpt><trkpt lat="42.750867538721685" lon="11.862486286805833"><ele>348.0</ele><time>2026-04-11T08:44:29Z</time></trkpt><trkpt lat="42.75063517479347" lon="11.86248269371983"><ele>353.0</ele><time>2026-04-11T08:44:30Z</time></trkpt><trkpt lat="42.7503892782548" lon="11.862484194035424"><ele>358.0</ele><time>2026-04-11T08:44:31Z</time></trkpt><trkpt lat="42.75013752253365" lon="11.862501672754469"><ele>363.0</ele><time>2026-04-11T08:44:32Z</time></trkpt><trkpt lat="42.7498982962388" lon="11.86254657370188"><ele>363.0</ele><time>2026-04-11T08:44:33Z</time></trkpt><trkpt lat="42.74965335727557" lon="11.862592002034447"><ele>363.0</ele><time>2026-04-11T08:44:34Z</time></trkpt><trkpt lat="42.749411268721694" lon="11.86264626087382"><ele>359.5</ele><time>2026-04-11T08:44:35Z</time></trkpt><trkpt lat="42.74917253391194" lon="11.862696118324296"><ele>356.0</ele><time>2026-04-11T08:44:36Z</time></trkpt><trkpt lat="42.74893556514953" lon="11.862743334744058"><ele>356.0</ele><time>2026-04-11T08:44:37Z</time></trkpt><trkpt lat="42.7487015850487" lon="11.862788915108316"><ele>356.0</ele><time>2026-04-11T08:44:38Z</time></trkpt><trkpt lat="42.74847003332795" lon="11.862835884881157"><ele>355.5</ele><time>2026-04-11T08:44:39Z</time></trkpt><trkpt lat="42.74824423098086" lon="11.86288637490309"><ele>355.0</ele><time>2026-04-11T08:44:40Z</time></trkpt><trkpt lat="42.748023828009295" lon="11.862932402968084"><ele>355.0</ele><time>2026-04-11T08:44:41Z</time></trkpt><trkpt lat="42.74781659739775" lon="11.862975519414809"><ele>355.0</ele><time>2026-04-11T08:44:42Z</time></trkpt><trkpt lat="42.747628873583224" lon="11.863014993210854"><ele>355.0</ele><time>2026-04-11T08:44:43Z</time></trkpt><trkpt lat="42.747457843426645" lon="11.863042136358557"><ele>357.66666666666663</ele><time>2026-04-11T08:44:44Z</time></trkpt><trkpt lat="42.74729702753705" lon="11.863060138445407"><ele>360.3333333333333</ele><time>2026-04-11T08:44:45Z</time></trkpt><trkpt lat="42.74714473177702" lon="11.863075272040094"><ele>363.0</ele><time>2026-04-11T08:44:46Z</time></trkpt><trkpt lat="42.74699658982648" lon="11.863104819080192"><ele>366.5</ele><time>2026-04-11T08:44:47Z</time></trkpt><trkpt lat="42.74684569586505" lon="11.863128137986214"><ele>370.0</ele><time>2026-04-11T08:44:48Z</time></trkpt><trkpt lat="42.746696559371365" lon="11.863146425784194"><ele>373.5</ele><time>2026-04-11T08:44:49Z</time></trkpt><trkpt lat="42.74655085484213" lon="11.863155817198747"><ele>377.0</ele><time>2026-04-11T08:44:50Z</time></trkpt><trkpt lat="42.74640508062209" lon="11.863153450369534"><ele>377.0</ele><time>2026-04-11T08:44:51Z</time></trkpt><trkpt lat="42.74625078401686" lon="11.86312919958597"><ele>377.0</ele><time>2026-04-11T08:44:52Z</time></trkpt><trkpt lat="42.74608778631218" lon="11.86309616976135"><ele>377.0</ele><time>2026-04-11T08:44:53Z</time></trkpt><trkpt lat="42.74592341191509" lon="11.863066414640455"><ele>378.0</ele><time>2026-04-11T08:44:54Z</time></trkpt><trkpt lat="42.74574770701625" lon="11.863057647901934"><ele>379.0</ele><time>2026-04-11T08:44:55Z</time></trkpt><trkpt lat="42.74555081709835" lon="11.863050656719027"><ele>380.0</ele><time>2026-04-11T08:44:56Z</time></trkpt><trkpt lat="42.74533511323154" lon="11.863044290937445"><ele>382.6666666666667</ele><time>2026-04-11T08:44:57Z</time></trkpt><trkpt lat="42.745111132269614" lon="11.86304345839316"><ele>385.33333333333337</ele><time>2026-04-11T08:44:58Z</time></trkpt><trkpt lat="42.74489860962947" lon="11.863033764386339"><ele>388.0</ele><time>2026-04-11T08:44:59Z</time></trkpt><trkpt lat="42.74468319679853" lon="11.863028542870564"><ele>388.0</ele><time>2026-04-11T08:45:00Z</time></trkpt><trkpt lat="42.744467355664" lon="11.863020464441655"><ele>388.0</ele><time>2026-04-11T08:45:01Z</time></trkpt><trkpt lat="42.744266963603614" lon="11.863012166739527"><ele>388.0</ele><time>2026-04-11T08:45:02Z</time></trkpt><trkpt lat="42.74409371810979" lon="11.863001518497075"><ele>390.0</ele><time>2026-04-11T08:45:03Z</time></trkpt><trkpt lat="42.74392721716599" lon="11.863002634125952"><ele>392.0</ele><time>2026-04-11T08:45:04Z</time></trkpt><trkpt lat="42.743782085699316" lon="11.863027113329295"><ele>394.0</ele><time>2026-04-11T08:45:05Z</time></trkpt><trkpt lat="42.74364471276251" lon="11.863076454517255"><ele>393.75</ele><time>2026-04-11T08:45:06Z</time></trkpt><trkpt lat="42.74351100777945" lon="11.863072034891461"><ele>393.5</ele><time>2026-04-11T08:45:07Z</time></trkpt><trkpt lat="42.74341102845494" lon="11.863242488124511"><ele>393.25</ele><time>2026-04-11T08:45:08Z</time></trkpt><trkpt lat="42.743315535051764" lon="11.86329663055372"><ele>393.0</ele><time>2026-04-11T08:45:09Z</time></trkpt><trkpt lat="42.74323038817545" lon="11.863356668278803"><ele>393.0</ele><time>2026-04-11T08:45:10Z</time></trkpt><trkpt lat="42.74315744858057" lon="11.863416500035111"><ele>393.0</ele><time>2026-04-11T08:45:11Z</time></trkpt><trkpt lat="42.74307159160015" lon="11.863449029217483"><ele>393.0</ele><time>2026-04-11T08:45:12Z</time></trkpt><trkpt lat="42.742950427492666" lon="11.863521708062393"><ele>393.0</ele><time>2026-04-11T08:45:13Z</time></trkpt><trkpt lat="42.7428400374532" lon="11.863650330470872"><ele>394.59999999999997</ele><time>2026-04-11T08:45:14Z</time></trkpt><trkpt lat="42.74269152461959" lon="11.863708853263248"><ele>396.2</ele><time>2026-04-11T08:45:15Z</time></trkpt><trkpt lat="42.74258697321825" lon="11.863737750201139"><ele>397.8</ele><time>2026-04-11T08:45:16Z</time></trkpt><trkpt lat="42.74251447697143" lon="11.863782197494714"><ele>399.4</ele><time>2026-04-11T08:45:17Z</time></trkpt><trkpt lat="42.742460037280814" lon="11.863835839626327"><ele>401.0</ele><time>2026-04-11T08:45:18Z</time></trkpt><trkpt lat="42.74241892230497" lon="11.863919157306837"><ele>400.99999999999994</ele><time>2026-04-11T08:45:19Z</time></trkpt><trkpt lat="42.74239716645637" lon="11.864017242174317"><ele>401.0</ele><time>2026-04-11T08:45:20Z</time></trkpt><trkpt lat="42.74239024551083" lon="11.864118764256787"><ele>401.0</ele><time>2026-04-11T08:45:21Z</time></trkpt><trkpt lat="42.742386499862015" lon="11.864224864665138"><ele>401.0</ele><time>2026-04-11T08:45:22Z</time></trkpt><trkpt lat="42.74237868140287" lon="11.86432975886865"><ele>400.99999999999994</ele><time>2026-04-11T08:45:23Z</time></trkpt><trkpt lat="42.74236406826575" lon="11.864445272481495"><ele>401.0</ele><time>2026-04-11T08:45:24Z</time></trkpt><trkpt lat="42.74232221174415" lon="11.86455836594115"><ele>398.8</ele><time>2026-04-11T08:45:25Z</time></trkpt><trkpt lat="42.74224382485371" lon="11.86461882847959"><ele>396.6</ele><time>2026-04-11T08:45:26Z</time></trkpt><trkpt lat="42.74214739950908" lon="11.864629153357132"><ele>394.4</ele><time>2026-04-11T08:45:27Z</time></trkpt><trkpt lat="42.74205234425334" lon="11.864583925872502"><ele>392.2</ele><time>2026-04-11T08:45:28Z</time></trkpt><trkpt lat="42.74196091322297" lon="11.864562534906703"><ele>390.0</ele><time>2026-04-11T08:45:29Z</time></trkpt><trkpt lat="42.74186717452939" lon="11.864513772512355"><ele>389.8333333333333</ele><time>2026-04-11T08:45:30Z</time></trkpt><trkpt lat="42.74178917096587" lon="11.864473166055607"><ele>389.66666666666663</ele><time>2026-04-11T08:45:31Z</time></trkpt><trkpt lat="42.74170980537703" lon="11.864448612376645"><ele>389.5</ele><time>2026-04-11T08:45:32Z</time></trkpt><trkpt lat="42.74162751221263" lon="11.864452007244825"><ele>389.3333333333333</ele><time>2026-04-11T08:45:33Z</time></trkpt><trkpt lat="42.74154666788331" lon="11.86447379848536"><ele>389.16666666666663</ele><time>2026-04-11T08:45:34Z</time></trkpt><trkpt lat="42.74147458238013" lon="11.86451486241988"><ele>389.0</ele><time>2026-04-11T08:45:35Z</time></trkpt><trkpt lat="42.74136845220052" lon="11.864662185091683"><ele>389.0</ele><time>2026-04-11T08:45:36Z</time></trkpt><trkpt lat="42.74130391222711" lon="11.864839294051778"><ele>389.0</ele><time>2026-04-11T08:45:37Z</time></trkpt><trkpt lat="42.741311176002185" lon="11.865028781044941"><ele>389.0</ele><time>2026-04-11T08:45:38Z</time></trkpt><trkpt lat="42.74135657334062" lon="11.865252543160828"><ele>387.66666666666663</ele><time>2026-04-11T08:45:39Z</time></trkpt><trkpt lat="42.74139812692615" lon="11.865493899418658"><ele>386.33333333333337</ele><time>2026-04-11T08:45:40Z</time></trkpt><trkpt lat="42.7414371421441" lon="11.865737409309235"><ele>385.0</ele><time>2026-04-11T08:45:41Z</time></trkpt><trkpt lat="42.74147427726651" lon="11.865968730689247"><ele>384.33333333333337</ele><time>2026-04-11T08:45:42Z</time></trkpt><trkpt lat="42.741518484070305" lon="11.866185510775544"><ele>383.6666666666667</ele><time>2026-04-11T08:45:43Z</time></trkpt><trkpt lat="42.74155944948277" lon="11.866387838621751"><ele>383.0</ele><time>2026-04-11T08:45:44Z</time></trkpt><trkpt lat="42.74160736345818" lon="11.866581647663763"><ele>383.0</ele><time>2026-04-11T08:45:45Z</time></trkpt><trkpt lat="42.74162758214462" lon="11.866770725537751"><ele>383.0</ele><time>2026-04-11T08:45:46Z</time></trkpt><trkpt lat="42.74165962962955" lon="11.866933163255133"><ele>383.0</ele><time>2026-04-11T08:45:47Z</time></trkpt><trkpt lat="42.74169053580494" lon="11.867089816363906"><ele>383.0</ele><time>2026-04-11T08:45:48Z</time></trkpt><trkpt lat="42.74172626203022" lon="11.867267860650648"><ele>383.25</ele><time>2026-04-11T08:45:49Z</time></trkpt><trkpt lat="42.74176429476658" lon="11.867455031744441"><ele>383.5</ele><time>2026-04-11T08:45:50Z</time></trkpt><trkpt lat="42.74181341242904" lon="11.867641833123658"><ele>383.75</ele><time>2026-04-11T08:45:51Z</time></trkpt><trkpt lat="42.741856098789874" lon="11.867840875458814"><ele>384.0</ele><time>2026-04-11T08:45:52Z</time></trkpt><trkpt lat="42.74189122834131" lon="11.868027778810307"><ele>385.0</ele><time>2026-04-11T08:45:53Z</time></trkpt><trkpt lat="42.74192883398132" lon="11.868199993722087"><ele>386.0</ele><time>2026-04-11T08:45:54Z</time></trkpt><trkpt lat="42.74196891980196" lon="11.868372638506667"><ele>387.0</ele><time>2026-04-11T08:45:55Z</time></trkpt><trkpt lat="42.74202785744014" lon="11.868551439434803"><ele>388.0</ele><time>2026-04-11T08:45:56Z</time></trkpt><trkpt lat="42.742089940613155" lon="11.868757270793447"><ele>389.0</ele><time>2026-04-11T08:45:57Z</time></trkpt><trkpt lat="42.74218134247804" lon="11.868959170780744"><ele>390.0</ele><time>2026-04-11T08:45:58Z</time></trkpt><trkpt lat="42.7422803660476" lon="11.869175720258905"><ele>391.0</ele><time>2026-04-11T08:45:59Z</time></trkpt><trkpt lat="42.74237813741875" lon="11.86939207405096"><ele>391.5</ele><time>2026-04-11T08:46:00Z</time></trkpt><trkpt lat="42.74245736746372" lon="11.86957862657664"><ele>392.0</ele><time>2026-04-11T08:46:01Z</time></trkpt><trkpt lat="42.74252581252931" lon="11.869734554487616"><ele>392.5</ele><time>2026-04-11T08:46:02Z</time></trkpt><trkpt lat="42.74255639321149" lon="11.869883657349977"><ele>393.0</ele><time>2026-04-11T08:46:03Z</time></trkpt><trkpt lat="42.742582326518836" lon="11.870033196049784"><ele>392.0</ele><time>2026-04-11T08:46:04Z</time></trkpt><trkpt lat="42.74259641626026" lon="11.870199345101167"><ele>391.0</ele><time>2026-04-11T08:46:05Z</time></trkpt><trkpt lat="42.742605683328975" lon="11.870400572929112"><ele>390.0</ele><time>2026-04-11T08:46:06Z</time></trkpt><trkpt lat="42.74258051823335" lon="11.870603520422907"><ele>389.0</ele><time>2026-04-11T08:46:07Z</time></trkpt><trkpt lat="42.74253402346768" lon="11.870778613245292"><ele>389.0</ele><time>2026-04-11T08:46:08Z</time></trkpt><trkpt lat="42.74248202624091" lon="11.870938438579582"><ele>389.0</ele><time>2026-04-11T08:46:09Z</time></trkpt><trkpt lat="42.742427156702675" lon="11.871099960934348"><ele>389.0</ele><time>2026-04-11T08:46:10Z</time></trkpt><trkpt lat="42.742340475318755" lon="11.871269698291506"><ele>389.0</ele><time>2026-04-11T08:46:11Z</time></trkpt><trkpt lat="42.742265058712185" lon="11.871457569153312"><ele>389.25</ele><time>2026-04-11T08:46:12Z</time></trkpt><trkpt lat="42.74217979239699" lon="11.871613368275547"><ele>389.5</ele><time>2026-04-11T08:46:13Z</time></trkpt><trkpt lat="42.74212758774709" lon="11.871779309557372"><ele>389.75</ele><time>2026-04-11T08:46:14Z</time></trkpt><trkpt lat="42.742103568849174" lon="11.87195788297364"><ele>390.0</ele><time>2026-04-11T08:46:15Z</time></trkpt><trkpt lat="42.7420834147233" lon="11.87216104338793"><ele>390.0</ele><time>2026-04-11T08:46:16Z</time></trkpt><trkpt lat="42.74204120150495" lon="11.87238718124997"><ele>390.0</ele><time>2026-04-11T08:46:17Z</time></trkpt><trkpt lat="42.74198455360307" lon="11.872629571534954"><ele>390.0</ele><time>2026-04-11T08:46:18Z</time></trkpt><trkpt lat="42.741950592522464" lon="11.872891674607631"><ele>391.0</ele><time>2026-04-11T08:46:19Z</time></trkpt><trkpt lat="42.74191492703583" lon="11.87316074470155"><ele>392.0</ele><time>2026-04-11T08:46:20Z</time></trkpt><trkpt lat="42.74186946888762" lon="11.87344494385874"><ele>393.0</ele><time>2026-04-11T08:46:21Z</time></trkpt><trkpt lat="42.741821826890835" lon="11.873721862617396"><ele>393.0</ele><time>2026-04-11T08:46:22Z</time></trkpt><trkpt lat="42.74177401688369" lon="11.873998682966466"><ele>393.0</ele><time>2026-04-11T08:46:23Z</time></trkpt><trkpt lat="42.74172873185645" lon="11.87428008929084"><ele>393.0</ele><time>2026-04-11T08:46:24Z</time></trkpt><trkpt lat="42.741682682225374" lon="11.874548856428897"><ele>396.0</ele><time>2026-04-11T08:46:25Z</time></trkpt><trkpt lat="42.74164199594724" lon="11.874808903484007"><ele>399.0</ele><time>2026-04-11T08:46:26Z</time></trkpt><trkpt lat="42.74160340970174" lon="11.875048464388257"><ele>402.0</ele><time>2026-04-11T08:46:27Z</time></trkpt><trkpt lat="42.741567579988875" lon="11.875261599563139"><ele>402.5</ele><time>2026-04-11T08:46:28Z</time></trkpt><trkpt lat="42.74154006180458" lon="11.87545813400274"><ele>403.0</ele><time>2026-04-11T08:46:29Z</time></trkpt><trkpt lat="42.741515923272765" lon="11.875640044511597"><ele>403.5</ele><time>2026-04-11T08:46:30Z</time></trkpt><trkpt lat="42.7414921977675" lon="11.875783926246815"><ele>404.0</ele><time>2026-04-11T08:46:31Z</time></trkpt><trkpt lat="42.74146872548484" lon="11.875909978568473"><ele>404.0</ele><time>2026-04-11T08:46:32Z</time></trkpt><trkpt lat="42.74144605391432" lon="11.876038307948352"><ele>404.0</ele><time>2026-04-11T08:46:33Z</time></trkpt><trkpt lat="42.74142656425092" lon="11.876182152313326"><ele>404.0</ele><time>2026-04-11T08:46:34Z</time></trkpt><trkpt lat="42.74140764406492" lon="11.876347762383585"><ele>404.0</ele><time>2026-04-11T08:46:35Z</time></trkpt><trkpt lat="42.741381093737346" lon="11.876552650025051"><ele>405.0</ele><time>2026-04-11T08:46:36Z</time></trkpt><trkpt lat="42.741347792643715" lon="11.876789128471916"><ele>406.0</ele><time>2026-04-11T08:46:37Z</time></trkpt><trkpt lat="42.74129464939912" lon="11.877035863154555"><ele>407.0</ele><time>2026-04-11T08:46:38Z</time></trkpt><trkpt lat="42.74125642434668" lon="11.877270763966985"><ele>407.0</ele><time>2026-04-11T08:46:39Z</time></trkpt><trkpt lat="42.74122276082505" lon="11.877498246928539"><ele>407.0</ele><time>2026-04-11T08:46:40Z</time></trkpt><trkpt lat="42.74118558022961" lon="11.877707943345477"><ele>407.0</ele><time>2026-04-11T08:46:41Z</time></trkpt><trkpt lat="42.74114728588122" lon="11.877900224441346"><ele>407.25</ele><time>2026-04-11T08:46:42Z</time></trkpt><trkpt lat="42.74112077210467" lon="11.878073179047169"><ele>407.5</ele><time>2026-04-11T08:46:43Z</time></trkpt><trkpt lat="42.7410940855905" lon="11.878240178046427"><ele>407.75</ele><time>2026-04-11T08:46:44Z</time></trkpt><trkpt lat="42.74107110487589" lon="11.878449928994677"><ele>408.0</ele><time>2026-04-11T08:46:45Z</time></trkpt><trkpt lat="42.741023640342554" lon="11.87867923161251"><ele>409.33333333333337</ele><time>2026-04-11T08:46:46Z</time></trkpt><trkpt lat="42.740948446644644" lon="11.878891634728049"><ele>410.6666666666667</ele><time>2026-04-11T08:46:47Z</time></trkpt><trkpt lat="42.74087704046752" lon="11.87908756830935"><ele>412.0</ele><time>2026-04-11T08:46:48Z</time></trkpt><trkpt lat="42.74079968844508" lon="11.879267274496222"><ele>410.6666666666667</ele><time>2026-04-11T08:46:49Z</time></trkpt><trkpt lat="42.740711539398475" lon="11.879452575907731"><ele>409.33333333333337</ele><time>2026-04-11T08:46:50Z</time></trkpt><trkpt lat="42.7406147636509" lon="11.879662555371985"><ele>408.0</ele><time>2026-04-11T08:46:51Z</time></trkpt><trkpt lat="42.740513548226936" lon="11.879893355902812"><ele>408.0</ele><time>2026-04-11T08:46:52Z</time></trkpt><trkpt lat="42.740390394775886" lon="11.880146483054222"><ele>408.0</ele><time>2026-04-11T08:46:53Z</time></trkpt><trkpt lat="42.74025838499813" lon="11.880418303527465"><ele>408.5</ele><time>2026-04-11T08:46:54Z</time></trkpt><trkpt lat="42.74011949516315" lon="11.880703539785086"><ele>409.0</ele><time>2026-04-11T08:46:55Z</time></trkpt><trkpt lat="42.739982422609714" lon="11.880990297672856"><ele>409.5</ele><time>2026-04-11T08:46:56Z</time></trkpt><trkpt lat="42.739845148102276" lon="11.881277859926223"><ele>410.0</ele><time>2026-04-11T08:46:57Z</time></trkpt><trkpt lat="42.73970358300719" lon="11.881565194012154"><ele>412.5</ele><time>2026-04-11T08:46:58Z</time></trkpt><trkpt lat="42.7395580906587" lon="11.881852107417107"><ele>415.0</ele><time>2026-04-11T08:46:59Z</time></trkpt><trkpt lat="42.73939799340478" lon="11.882131181910257"><ele>415.5</ele><time>2026-04-11T08:47:00Z</time></trkpt><trkpt lat="42.7392209306658" lon="11.882396871465586"><ele>416.0</ele><time>2026-04-11T08:47:01Z</time></trkpt><trkpt lat="42.73902810113709" lon="11.882637354127535"><ele>421.0</ele><time>2026-04-11T08:47:02Z</time></trkpt><trkpt lat="42.73884085946613" lon="11.8828634295015"><ele>426.0</ele><time>2026-04-11T08:47:03Z</time></trkpt><trkpt lat="42.73866797068971" lon="11.88307279170822"><ele>425.66666666666663</ele><time>2026-04-11T08:47:04Z</time></trkpt><trkpt lat="42.73850305177986" lon="11.883263932326567"><ele>425.3333333333333</ele><time>2026-04-11T08:47:05Z</time></trkpt><trkpt lat="42.73834109082586" lon="11.88342454643037"><ele>425.0</ele><time>2026-04-11T08:47:06Z</time></trkpt><trkpt lat="42.73817891323661" lon="11.883538963411972"><ele>425.0</ele><time>2026-04-11T08:47:07Z</time></trkpt><trkpt lat="42.73801992050573" lon="11.883616645576508"><ele>425.0</ele><time>2026-04-11T08:47:08Z</time></trkpt><trkpt lat="42.73787376180292" lon="11.883671536825723"><ele>425.0</ele><time>2026-04-11T08:47:09Z</time></trkpt><trkpt lat="42.73770576259132" lon="11.883702937161475"><ele>425.0</ele><time>2026-04-11T08:47:10Z</time></trkpt><trkpt lat="42.737516779407095" lon="11.883699245688124"><ele>425.0</ele><time>2026-04-11T08:47:11Z</time></trkpt><trkpt lat="42.737309679014885" lon="11.883684680318567"><ele>425.0</ele><time>2026-04-11T08:47:12Z</time></trkpt><trkpt lat="42.73709183011306" lon="11.88366731155229"><ele>427.5</ele><time>2026-04-11T08:47:13Z</time></trkpt><trkpt lat="42.73686373080618" lon="11.883648169603923"><ele>430.0</ele><time>2026-04-11T08:47:14Z</time></trkpt><trkpt lat="42.73662409252137" lon="11.88363511062165"><ele>430.0</ele><time>2026-04-11T08:47:15Z</time></trkpt><trkpt lat="42.736378708266884" lon="11.883622421144288"><ele>430.0</ele><time>2026-04-11T08:47:16Z</time></trkpt><trkpt lat="42.73614929112777" lon="11.883611684141025"><ele>431.0</ele><time>2026-04-11T08:47:17Z</time></trkpt><trkpt lat="42.73593808171514" lon="11.883612352592934"><ele>432.0</ele><time>2026-04-11T08:47:18Z</time></trkpt><trkpt lat="42.735736206246656" lon="11.883623729399007"><ele>433.0</ele><time>2026-04-11T08:47:19Z</time></trkpt><trkpt lat="42.73554300735298" lon="11.883643986513327"><ele>433.0</ele><time>2026-04-11T08:47:20Z</time></trkpt><trkpt lat="42.735345214857226" lon="11.883710006632892"><ele>433.0</ele><time>2026-04-11T08:47:21Z</time></trkpt><trkpt lat="42.73513276260123" lon="11.883806472707967"><ele>433.0</ele><time>2026-04-11T08:47:22Z</time></trkpt><trkpt lat="42.73490605182065" lon="11.883882899091338"><ele>432.5</ele><time>2026-04-11T08:47:23Z</time></trkpt><trkpt lat="42.73467629436034" lon="11.88395861856885"><ele>432.0</ele><time>2026-04-11T08:47:24Z</time></trkpt><trkpt lat="42.73444182184891" lon="11.884026418452226"><ele>432.0</ele><time>2026-04-11T08:47:25Z</time></trkpt><trkpt lat="42.734200970827956" lon="11.88407192698411"><ele>432.0</ele><time>2026-04-11T08:47:26Z</time></trkpt><trkpt lat="42.73395940524574" lon="11.884096703443138"><ele>432.0</ele><time>2026-04-11T08:47:27Z</time></trkpt><trkpt lat="42.73371279968856" lon="11.884112711203805"><ele>432.0</ele><time>2026-04-11T08:47:28Z</time></trkpt><trkpt lat="42.73346143531767" lon="11.884131728230356"><ele>433.0</ele><time>2026-04-11T08:47:29Z</time></trkpt><trkpt lat="42.7332123810469" lon="11.884148206565085"><ele>434.0</ele><time>2026-04-11T08:47:30Z</time></trkpt><trkpt lat="42.73296168444869" lon="11.884172774722204"><ele>435.0</ele><time>2026-04-11T08:47:31Z</time></trkpt><trkpt lat="42.73271252052819" lon="11.884209130024418"><ele>436.0</ele><time>2026-04-11T08:47:32Z</time></trkpt><trkpt lat="42.73245686293389" lon="11.88424968153354"><ele>433.0</ele><time>2026-04-11T08:47:33Z</time></trkpt><trkpt lat="42.73219162596344" lon="11.88427955047883"><ele>430.0</ele><time>2026-04-11T08:47:34Z</time></trkpt><trkpt lat="42.73191843855561" lon="11.88430579609689"><ele>430.5</ele><time>2026-04-11T08:47:35Z</time></trkpt><trkpt lat="42.73164123520224" lon="11.88433021448596"><ele>431.0</ele><time>2026-04-11T08:47:36Z</time></trkpt><trkpt lat="42.73136395940934" lon="11.884359861078929"><ele>431.0</ele><time>2026-04-11T08:47:37Z</time></trkpt><trkpt lat="42.731087118868984" lon="11.88441590572226"><ele>431.0</ele><time>2026-04-11T08:47:38Z</time></trkpt><trkpt lat="42.73080998863803" lon="11.88449499847462"><ele>432.0</ele><time>2026-04-11T08:47:39Z</time></trkpt><trkpt lat="42.7305306690213" lon="11.884572837130875"><ele>433.0</ele><time>2026-04-11T08:47:40Z</time></trkpt><trkpt lat="42.73025079249257" lon="11.884623417241006"><ele>434.0</ele><time>2026-04-11T08:47:41Z</time></trkpt><trkpt lat="42.72998946912364" lon="11.884650633453976"><ele>435.0</ele><time>2026-04-11T08:47:42Z</time></trkpt><trkpt lat="42.729746257622004" lon="11.884698898527466"><ele>435.0</ele><time>2026-04-11T08:47:43Z</time></trkpt><trkpt lat="42.72951337048369" lon="11.884787120216284"><ele>435.0</ele><time>2026-04-11T08:47:44Z</time></trkpt><trkpt lat="42.729287355325546" lon="11.884913610490278"><ele>435.0</ele><time>2026-04-11T08:47:45Z</time></trkpt><trkpt lat="42.729073123415645" lon="11.885077709533515"><ele>435.0</ele><time>2026-04-11T08:47:46Z</time></trkpt><trkpt lat="42.728871499324406" lon="11.885287690913733"><ele>435.0</ele><time>2026-04-11T08:47:47Z</time></trkpt><trkpt lat="42.72868181775306" lon="11.885526956025206"><ele>435.0</ele><time>2026-04-11T08:47:48Z</time></trkpt><trkpt lat="42.72850357696753" lon="11.885776315087353"><ele>434.5</ele><time>2026-04-11T08:47:49Z</time></trkpt><trkpt lat="42.72831167281807" lon="11.886008736044463"><ele>434.0</ele><time>2026-04-11T08:47:50Z</time></trkpt><trkpt lat="42.72811624689148" lon="11.886245999229217"><ele>434.0</ele><time>2026-04-11T08:47:51Z</time></trkpt><trkpt lat="42.72791918372451" lon="11.886476943234543"><ele>434.0</ele><time>2026-04-11T08:47:52Z</time></trkpt><trkpt lat="42.72772334037263" lon="11.886710540580069"><ele>435.5</ele><time>2026-04-11T08:47:53Z</time></trkpt><trkpt lat="42.727529560814695" lon="11.886943933245307"><ele>437.0</ele><time>2026-04-11T08:47:54Z</time></trkpt><trkpt lat="42.72733321617718" lon="11.887184433570031"><ele>437.0</ele><time>2026-04-11T08:47:55Z</time></trkpt><trkpt lat="42.727142426702514" lon="11.88742327781478"><ele>437.0</ele><time>2026-04-11T08:47:56Z</time></trkpt><trkpt lat="42.7269536856002" lon="11.887648332704009"><ele>438.3333333333333</ele><time>2026-04-11T08:47:57Z</time></trkpt><trkpt lat="42.726788727654" lon="11.887851448704389"><ele>439.66666666666663</ele><time>2026-04-11T08:47:58Z</time></trkpt><trkpt lat="42.72663637079843" lon="11.888045106248514"><ele>441.0</ele><time>2026-04-11T08:47:59Z</time></trkpt><trkpt lat="42.726496593408164" lon="11.888218101205462"><ele>441.0</ele><time>2026-04-11T08:48:00Z</time></trkpt><trkpt lat="42.726366745875694" lon="11.88838575929175"><ele>441.0</ele><time>2026-04-11T08:48:01Z</time></trkpt><trkpt lat="42.72624169170047" lon="11.888562985397893"><ele>441.0</ele><time>2026-04-11T08:48:02Z</time></trkpt><trkpt lat="42.72610810776161" lon="11.888753102347835"><ele>441.0</ele><time>2026-04-11T08:48:03Z</time></trkpt><trkpt lat="42.72597296711078" lon="11.888958129545154"><ele>441.0</ele><time>2026-04-11T08:48:04Z</time></trkpt><trkpt lat="42.72583516807492" lon="11.889189321440718"><ele>441.0</ele><time>2026-04-11T08:48:05Z</time></trkpt><trkpt lat="42.72566083851139" lon="11.889445926934808"><ele>441.5</ele><time>2026-04-11T08:48:06Z</time></trkpt><trkpt lat="42.72545293317624" lon="11.889707198790727"><ele>442.0</ele><time>2026-04-11T08:48:07Z</time></trkpt><trkpt lat="42.72520466251148" lon="11.889955438276647"><ele>442.0</ele><time>2026-04-11T08:48:08Z</time></trkpt><trkpt lat="42.72493762383866" lon="11.890188834254486"><ele>442.0</ele><time>2026-04-11T08:48:09Z</time></trkpt><trkpt lat="42.724744746302925" lon="11.890429620197988"><ele>442.0</ele><time>2026-04-11T08:48:10Z</time></trkpt><trkpt lat="42.72452078388383" lon="11.890618667547523"><ele>442.0</ele><time>2026-04-11T08:48:11Z</time></trkpt><trkpt lat="42.72428482760598" lon="11.890802694922733"><ele>442.0</ele><time>2026-04-11T08:48:12Z</time></trkpt><trkpt lat="42.7240250347708" lon="11.890975952358861"><ele>442.0</ele><time>2026-04-11T08:48:13Z</time></trkpt><trkpt lat="42.723755501419795" lon="11.891128124068675"><ele>441.5</ele><time>2026-04-11T08:48:14Z</time></trkpt><trkpt lat="42.72349205617284" lon="11.891271772981097"><ele>441.0</ele><time>2026-04-11T08:48:15Z</time></trkpt><trkpt lat="42.72323711246309" lon="11.89141604995212"><ele>441.0</ele><time>2026-04-11T08:48:16Z</time></trkpt><trkpt lat="42.72298065957448" lon="11.891566910578742"><ele>441.0</ele><time>2026-04-11T08:48:17Z</time></trkpt><trkpt lat="42.72270497567747" lon="11.89171098681025"><ele>443.0</ele><time>2026-04-11T08:48:18Z</time></trkpt><trkpt lat="42.722426078593635" lon="11.891835308335516"><ele>445.0</ele><time>2026-04-11T08:48:19Z</time></trkpt><trkpt lat="42.7221666250847" lon="11.891955617408005"><ele>445.0</ele><time>2026-04-11T08:48:20Z</time></trkpt><trkpt lat="42.72192316353727" lon="11.892082019966608"><ele>445.0</ele><time>2026-04-11T08:48:21Z</time></trkpt><trkpt lat="42.72169404883207" lon="11.892203096389517"><ele>445.0</ele><time>2026-04-11T08:48:22Z</time></trkpt><trkpt lat="42.72147504331399" lon="11.892323955970182"><ele>445.0</ele><time>2026-04-11T08:48:23Z</time></trkpt><trkpt lat="42.72126395084665" lon="11.892438772219837"><ele>445.0</ele><time>2026-04-11T08:48:24Z</time></trkpt><trkpt lat="42.72105834131387" lon="11.892553277138008"><ele>445.0</ele><time>2026-04-11T08:48:25Z</time></trkpt><trkpt lat="42.72087596428049" lon="11.89265223236533"><ele>445.0</ele><time>2026-04-11T08:48:26Z</time></trkpt><trkpt lat="42.7207150745314" lon="11.892741621281735"><ele>445.0</ele><time>2026-04-11T08:48:27Z</time></trkpt><trkpt lat="42.7205380130205" lon="11.892840977317832"><ele>445.0</ele><time>2026-04-11T08:48:28Z</time></trkpt><trkpt lat="42.72035104211823" lon="11.892967862182111"><ele>445.0</ele><time>2026-04-11T08:48:29Z</time></trkpt><trkpt lat="42.72015319541791" lon="11.8931149919578"><ele>445.0</ele><time>2026-04-11T08:48:30Z</time></trkpt><trkpt lat="42.719945229710135" lon="11.893266430509705"><ele>445.0</ele><time>2026-04-11T08:48:31Z</time></trkpt><trkpt lat="42.71972728347414" lon="11.893419903016051"><ele>445.0</ele><time>2026-04-11T08:48:32Z</time></trkpt><trkpt lat="42.71951192665795" lon="11.893571737919942"><ele>445.0</ele><time>2026-04-11T08:48:33Z</time></trkpt><trkpt lat="42.719316050665604" lon="11.893723044573326"><ele>444.6666666666667</ele><time>2026-04-11T08:48:34Z</time></trkpt><trkpt lat="42.71912842859383" lon="11.893867326980084"><ele>444.33333333333337</ele><time>2026-04-11T08:48:35Z</time></trkpt><trkpt lat="42.71894605582668" lon="11.893988961787038"><ele>444.0</ele><time>2026-04-11T08:48:36Z</time></trkpt><trkpt lat="42.71876405151547" lon="11.894085824305712"><ele>444.0</ele><time>2026-04-11T08:48:37Z</time></trkpt><trkpt lat="42.718575695037025" lon="11.894161250825853"><ele>444.0</ele><time>2026-04-11T08:48:38Z</time></trkpt><trkpt lat="42.718393028452525" lon="11.894231240777607"><ele>444.0</ele><time>2026-04-11T08:48:39Z</time></trkpt><trkpt lat="42.718206953898445" lon="11.894304699575837"><ele>444.33333333333337</ele><time>2026-04-11T08:48:40Z</time></trkpt><trkpt lat="42.71801882489451" lon="11.894384815429044"><ele>444.6666666666667</ele><time>2026-04-11T08:48:41Z</time></trkpt><trkpt lat="42.71782690354879" lon="11.894481314367995"><ele>445.0</ele><time>2026-04-11T08:48:42Z</time></trkpt><trkpt lat="42.717596437776194" lon="11.894590723854204"><ele>445.0</ele><time>2026-04-11T08:48:43Z</time></trkpt><trkpt lat="42.71731406644751" lon="11.894697692223406"><ele>445.0</ele><time>2026-04-11T08:48:44Z</time></trkpt><trkpt lat="42.717006456897536" lon="11.894811961485887"><ele>445.0</ele><time>2026-04-11T08:48:45Z</time></trkpt><trkpt lat="42.71667767871733" lon="11.894929864660256"><ele>445.0</ele><time>2026-04-11T08:48:46Z</time></trkpt><trkpt lat="42.71636075377755" lon="11.895058651054928"><ele>445.5</ele><time>2026-04-11T08:48:47Z</time></trkpt><trkpt lat="42.71608273409116" lon="11.895172029028622"><ele>446.0</ele><time>2026-04-11T08:48:48Z</time></trkpt><trkpt lat="42.71582342469907" lon="11.895278901005906"><ele>446.0</ele><time>2026-04-11T08:48:49Z</time></trkpt><trkpt lat="42.71557091259423" lon="11.89537576933224"><ele>446.0</ele><time>2026-04-11T08:48:50Z</time></trkpt><trkpt lat="42.715352338818754" lon="11.89547260068736"><ele>446.0</ele><time>2026-04-11T08:48:51Z</time></trkpt><trkpt lat="42.71515681639207" lon="11.895568093067475"><ele>446.0</ele><time>2026-04-11T08:48:52Z</time></trkpt><trkpt lat="42.714966936050374" lon="11.895671184920143"><ele>446.0</ele><time>2026-04-11T08:48:53Z</time></trkpt><trkpt lat="42.71478778451363" lon="11.895782559608799"><ele>446.0</ele><time>2026-04-11T08:48:54Z</time></trkpt><trkpt lat="42.7145981413277" lon="11.895910791228049"><ele>446.0</ele><time>2026-04-11T08:48:55Z</time></trkpt><trkpt lat="42.71438622972725" lon="11.896057431443552"><ele>446.0</ele><time>2026-04-11T08:48:56Z</time></trkpt><trkpt lat="42.714150289363644" lon="11.89617185572928"><ele>447.0</ele><time>2026-04-11T08:48:57Z</time></trkpt><trkpt lat="42.71391297295822" lon="11.896315348248939"><ele>448.0</ele><time>2026-04-11T08:48:58Z</time></trkpt><trkpt lat="42.713676102535274" lon="11.896446043468131"><ele>447.5</ele><time>2026-04-11T08:48:59Z</time></trkpt><trkpt lat="42.71344033524152" lon="11.89657841396738"><ele>447.0</ele><time>2026-04-11T08:49:00Z</time></trkpt><trkpt lat="42.713205263421045" lon="11.896708070098503"><ele>446.5</ele><time>2026-04-11T08:49:01Z</time></trkpt><trkpt lat="42.712967860179305" lon="11.896841614018513"><ele>446.0</ele><time>2026-04-11T08:49:02Z</time></trkpt><trkpt lat="42.71273030632443" lon="11.896973209578494"><ele>446.0</ele><time>2026-04-11T08:49:03Z</time></trkpt><trkpt lat="42.71248978165547" lon="11.897101708763591"><ele>446.0</ele><time>2026-04-11T08:49:04Z</time></trkpt><trkpt lat="42.71224765230225" lon="11.897235231307425"><ele>446.0</ele><time>2026-04-11T08:49:05Z</time></trkpt><trkpt lat="42.7120009047146" lon="11.897374512550776"><ele>446.0</ele><time>2026-04-11T08:49:06Z</time></trkpt><trkpt lat="42.71175155664937" lon="11.897518677059765"><ele>445.5</ele><time>2026-04-11T08:49:07Z</time></trkpt><trkpt lat="42.71150120263898" lon="11.897660763597056"><ele>445.0</ele><time>2026-04-11T08:49:08Z</time></trkpt><trkpt lat="42.71124311594212" lon="11.897779678155183"><ele>445.0</ele><time>2026-04-11T08:49:09Z</time></trkpt><trkpt lat="42.71097497597935" lon="11.897882682797738"><ele>445.0</ele><time>2026-04-11T08:49:10Z</time></trkpt><trkpt lat="42.71070519834233" lon="11.898003279346176"><ele>445.0</ele><time>2026-04-11T08:49:11Z</time></trkpt><trkpt lat="42.71043747574649" lon="11.89812619507493"><ele>445.0</ele><time>2026-04-11T08:49:12Z</time></trkpt><trkpt lat="42.71017517370805" lon="11.89825129356177"><ele>445.5</ele><time>2026-04-11T08:49:13Z</time></trkpt><trkpt lat="42.70992118075021" lon="11.89839046128593"><ele>446.0</ele><time>2026-04-11T08:49:14Z</time></trkpt><trkpt lat="42.70967150879552" lon="11.898537808095705"><ele>446.0</ele><time>2026-04-11T08:49:15Z</time></trkpt><trkpt lat="42.7094182500435" lon="11.898687949814478"><ele>446.0</ele><time>2026-04-11T08:49:16Z</time></trkpt><trkpt lat="42.709166615356395" lon="11.898835662764549"><ele>447.5</ele><time>2026-04-11T08:49:17Z</time></trkpt><trkpt lat="42.70891421716702" lon="11.898979083827289"><ele>449.0</ele><time>2026-04-11T08:49:18Z</time></trkpt><trkpt lat="42.7086613208853" lon="11.89912708327136"><ele>448.5</ele><time>2026-04-11T08:49:19Z</time></trkpt><trkpt lat="42.708406524834174" lon="11.899277848229834"><ele>448.0</ele><time>2026-04-11T08:49:20Z</time></trkpt><trkpt lat="42.708156818982374" lon="11.899426403836422"><ele>448.0</ele><time>2026-04-11T08:49:21Z</time></trkpt><trkpt lat="42.70790837925802" lon="11.899570113769354"><ele>448.0</ele><time>2026-04-11T08:49:22Z</time></trkpt><trkpt lat="42.70766331166648" lon="11.89970112450513"><ele>448.5</ele><time>2026-04-11T08:49:23Z</time></trkpt><trkpt lat="42.70741046912607" lon="11.899820022440862"><ele>449.0</ele><time>2026-04-11T08:49:24Z</time></trkpt><trkpt lat="42.707149732884076" lon="11.899912389541036"><ele>449.0</ele><time>2026-04-11T08:49:25Z</time></trkpt><trkpt lat="42.70688017564713" lon="11.899988163004837"><ele>449.0</ele><time>2026-04-11T08:49:26Z</time></trkpt><trkpt lat="42.706606868961515" lon="11.90005547705099"><ele>449.0</ele><time>2026-04-11T08:49:27Z</time></trkpt><trkpt lat="42.70633030532318" lon="11.900116850263371"><ele>449.0</ele><time>2026-04-11T08:49:28Z</time></trkpt><trkpt lat="42.70605429523773" lon="11.900175515708609"><ele>449.5</ele><time>2026-04-11T08:49:29Z</time></trkpt><trkpt lat="42.70577599248489" lon="11.900233784184522"><ele>450.0</ele><time>2026-04-11T08:49:30Z</time></trkpt><trkpt lat="42.705500230950136" lon="11.900294138083808"><ele>450.5</ele><time>2026-04-11T08:49:31Z</time></trkpt><trkpt lat="42.70522608408106" lon="11.900353831391854"><ele>451.0</ele><time>2026-04-11T08:49:32Z</time></trkpt><trkpt lat="42.70495304505765" lon="11.900419705583621"><ele>451.0</ele><time>2026-04-11T08:49:33Z</time></trkpt><trkpt lat="42.70468192717564" lon="11.900500458025821"><ele>451.0</ele><time>2026-04-11T08:49:34Z</time></trkpt><trkpt lat="42.70441781100904" lon="11.900609189440004"><ele>452.5</ele><time>2026-04-11T08:49:35Z</time></trkpt><trkpt lat="42.70415615738966" lon="11.900731650077372"><ele>454.0</ele><time>2026-04-11T08:49:36Z</time></trkpt><trkpt lat="42.70389215524694" lon="11.900838771895062"><ele>454.5</ele><time>2026-04-11T08:49:37Z</time></trkpt><trkpt lat="42.70362065348588" lon="11.900919402571185"><ele>455.0</ele><time>2026-04-11T08:49:38Z</time></trkpt><trkpt lat="42.7033489627518" lon="11.900978641172317"><ele>455.5</ele><time>2026-04-11T08:49:39Z</time></trkpt><trkpt lat="42.703075039493946" lon="11.901009347936983"><ele>456.0</ele><time>2026-04-11T08:49:40Z</time></trkpt><trkpt lat="42.70280378306523" lon="11.90102321882273"><ele>455.5</ele><time>2026-04-11T08:49:41Z</time></trkpt><trkpt lat="42.702528140546995" lon="11.901026041160351"><ele>455.0</ele><time>2026-04-11T08:49:42Z</time></trkpt><trkpt lat="42.70225027074498" lon="11.901024286043961"><ele>455.0</ele><time>2026-04-11T08:49:43Z</time></trkpt><trkpt lat="42.7019695493785" lon="11.901010305571944"><ele>455.0</ele><time>2026-04-11T08:49:44Z</time></trkpt><trkpt lat="42.701692794162966" lon="11.901007366213877"><ele>455.5</ele><time>2026-04-11T08:49:45Z</time></trkpt><trkpt lat="42.701413548645384" lon="11.901028318579097"><ele>456.0</ele><time>2026-04-11T08:49:46Z</time></trkpt><trkpt lat="42.70113698305876" lon="11.901070578057869"><ele>456.0</ele><time>2026-04-11T08:49:47Z</time></trkpt><trkpt lat="42.70086278019731" lon="11.901130057892711"><ele>456.0</ele><time>2026-04-11T08:49:48Z</time></trkpt><trkpt lat="42.70059298520977" lon="11.901212984139804"><ele>456.0</ele><time>2026-04-11T08:49:49Z</time></trkpt><trkpt lat="42.70032642669189" lon="11.901311027404617"><ele>456.0</ele><time>2026-04-11T08:49:50Z</time></trkpt><trkpt lat="42.70005889057097" lon="11.901408749066713"><ele>456.5</ele><time>2026-04-11T08:49:51Z</time></trkpt><trkpt lat="42.69978963219042" lon="11.901501768554693"><ele>457.0</ele><time>2026-04-11T08:49:52Z</time></trkpt><trkpt lat="42.69951866034707" lon="11.901579127507201"><ele>458.0</ele><time>2026-04-11T08:49:53Z</time></trkpt><trkpt lat="42.699246075337754" lon="11.901647867045726"><ele>459.0</ele><time>2026-04-11T08:49:54Z</time></trkpt><trkpt lat="42.69897551711157" lon="11.90169479978324"><ele>459.0</ele><time>2026-04-11T08:49:55Z</time></trkpt><trkpt lat="42.698701536311" lon="11.901725558077521"><ele>459.0</ele><time>2026-04-11T08:49:56Z</time></trkpt><trkpt lat="42.69843225433922" lon="11.901797457233194"><ele>461.5</ele><time>2026-04-11T08:49:57Z</time></trkpt><trkpt lat="42.69816776669957" lon="11.901900409421367"><ele>464.0</ele><time>2026-04-11T08:49:58Z</time></trkpt><trkpt lat="42.6979022124419" lon="11.902012122336318"><ele>462.0</ele><time>2026-04-11T08:49:59Z</time></trkpt><trkpt lat="42.697640711814465" lon="11.902134277942688"><ele>460.0</ele><time>2026-04-11T08:50:00Z</time></trkpt><trkpt lat="42.69738477812067" lon="11.902265382446414"><ele>460.0</ele><time>2026-04-11T08:50:01Z</time></trkpt><trkpt lat="42.69712421815217" lon="11.902394470901049"><ele>460.0</ele><time>2026-04-11T08:50:02Z</time></trkpt><trkpt lat="42.69687431605051" lon="11.902502610829012"><ele>460.5</ele><time>2026-04-11T08:50:03Z</time></trkpt><trkpt lat="42.69662877957367" lon="11.902568339093222"><ele>461.0</ele><time>2026-04-11T08:50:04Z</time></trkpt><trkpt lat="42.69637556598459" lon="11.902603771013352"><ele>462.0</ele><time>2026-04-11T08:50:05Z</time></trkpt><trkpt lat="42.696110182917344" lon="11.902612379363365"><ele>463.0</ele><time>2026-04-11T08:50:06Z</time></trkpt><trkpt lat="42.69584089195139" lon="11.902604771504102"><ele>463.5</ele><time>2026-04-11T08:50:07Z</time></trkpt><trkpt lat="42.695568513123916" lon="11.90260444765622"><ele>464.0</ele><time>2026-04-11T08:50:08Z</time></trkpt><trkpt lat="42.695294432252076" lon="11.902612296558388"><ele>464.0</ele><time>2026-04-11T08:50:09Z</time></trkpt><trkpt lat="42.69501745829477" lon="11.902636393361773"><ele>464.0</ele><time>2026-04-11T08:50:10Z</time></trkpt><trkpt lat="42.69474309559036" lon="11.90267782445515"><ele>464.0</ele><time>2026-04-11T08:50:11Z</time></trkpt><trkpt lat="42.6944661330062" lon="11.902733842709347"><ele>464.0</ele><time>2026-04-11T08:50:12Z</time></trkpt><trkpt lat="42.69419235442769" lon="11.902790414782059"><ele>465.0</ele><time>2026-04-11T08:50:13Z</time></trkpt><trkpt lat="42.69391557137344" lon="11.902844826313908"><ele>466.0</ele><time>2026-04-11T08:50:14Z</time></trkpt><trkpt lat="42.693642980198035" lon="11.90289793938439"><ele>466.5</ele><time>2026-04-11T08:50:15Z</time></trkpt><trkpt lat="42.693372125253" lon="11.902951746403879"><ele>467.0</ele><time>2026-04-11T08:50:16Z</time></trkpt><trkpt lat="42.69310233462514" lon="11.903004729083209"><ele>467.0</ele><time>2026-04-11T08:50:17Z</time></trkpt><trkpt lat="42.69283423321872" lon="11.90305235392568"><ele>467.0</ele><time>2026-04-11T08:50:18Z</time></trkpt><trkpt lat="42.69256716371227" lon="11.903097581480003"><ele>467.5</ele><time>2026-04-11T08:50:19Z</time></trkpt><trkpt lat="42.69230136988384" lon="11.903141555981389"><ele>468.0</ele><time>2026-04-11T08:50:20Z</time></trkpt><trkpt lat="42.6920374522663" lon="11.903190269157502"><ele>470.0</ele><time>2026-04-11T08:50:21Z</time></trkpt><trkpt lat="42.69177383691143" lon="11.903238915466849"><ele>472.0</ele><time>2026-04-11T08:50:22Z</time></trkpt><trkpt lat="42.69151566464682" lon="11.903284874817205"><ele>472.0</ele><time>2026-04-11T08:50:23Z</time></trkpt><trkpt lat="42.69127147311133" lon="11.903348369013585"><ele>472.0</ele><time>2026-04-11T08:50:24Z</time></trkpt><trkpt lat="42.69102592337299" lon="11.903434795144358"><ele>471.5</ele><time>2026-04-11T08:50:25Z</time></trkpt><trkpt lat="42.69077762062759" lon="11.90355363063095"><ele>471.0</ele><time>2026-04-11T08:50:26Z</time></trkpt><trkpt lat="42.690532280661365" lon="11.903700776293107"><ele>471.0</ele><time>2026-04-11T08:50:27Z</time></trkpt><trkpt lat="42.69029662571046" lon="11.90385129465279"><ele>471.0</ele><time>2026-04-11T08:50:28Z</time></trkpt><trkpt lat="42.69006827938986" lon="11.903972824200993"><ele>473.0</ele><time>2026-04-11T08:50:29Z</time></trkpt><trkpt lat="42.689858802877076" lon="11.904054268036774"><ele>475.0</ele><time>2026-04-11T08:50:30Z</time></trkpt><trkpt lat="42.68965896650624" lon="11.904086127889075"><ele>477.0</ele><time>2026-04-11T08:50:31Z</time></trkpt><trkpt lat="42.6894571257622" lon="11.904074716321901"><ele>478.33333333333337</ele><time>2026-04-11T08:50:32Z</time></trkpt><trkpt lat="42.68926381982025" lon="11.90403420293153"><ele>479.6666666666667</ele><time>2026-04-11T08:50:33Z</time></trkpt><trkpt lat="42.68907808447055" lon="11.904024663823412"><ele>481.0</ele><time>2026-04-11T08:50:34Z</time></trkpt><trkpt lat="42.68891065867521" lon="11.904077773482664"><ele>481.0</ele><time>2026-04-11T08:50:35Z</time></trkpt><trkpt lat="42.688749719760956" lon="11.904154181691268"><ele>481.0</ele><time>2026-04-11T08:50:36Z</time></trkpt><trkpt lat="42.68860594425014" lon="11.904250950966395"><ele>481.0</ele><time>2026-04-11T08:50:37Z</time></trkpt><trkpt lat="42.688457214905576" lon="11.904361581308912"><ele>483.0</ele><time>2026-04-11T08:50:38Z</time></trkpt><trkpt lat="42.68830866106862" lon="11.904474180048084"><ele>485.0</ele><time>2026-04-11T08:50:39Z</time></trkpt><trkpt lat="42.68815210293406" lon="11.904584231885556"><ele>487.0</ele><time>2026-04-11T08:50:40Z</time></trkpt><trkpt lat="42.68799513228053" lon="11.904696600183712"><ele>487.0</ele><time>2026-04-11T08:50:41Z</time></trkpt><trkpt lat="42.687832808785366" lon="11.904813650279532"><ele>487.0</ele><time>2026-04-11T08:50:41.999Z</time></trkpt><trkpt lat="42.687669883534724" lon="11.904934958322606"><ele>487.0</ele><time>2026-04-11T08:50:42.999Z</time></trkpt><trkpt lat="42.68750333514305" lon="11.905052473039959"><ele>488.33333333333337</ele><time>2026-04-11T08:50:43.999Z</time></trkpt><trkpt lat="42.687334418889414" lon="11.905172829335589"><ele>489.66666666666663</ele><time>2026-04-11T08:50:44.999Z</time></trkpt><trkpt lat="42.68716157861759" lon="11.905292589071369"><ele>491.0</ele><time>2026-04-11T08:50:45.999Z</time></trkpt><trkpt lat="42.686994969561106" lon="11.905412626693353"><ele>492.0</ele><time>2026-04-11T08:50:46.999Z</time></trkpt><trkpt lat="42.686833213194156" lon="11.905527111281305"><ele>493.0</ele><time>2026-04-11T08:50:47.999Z</time></trkpt><trkpt lat="42.68668532137332" lon="11.905633330201514"><ele>494.0</ele><time>2026-04-11T08:50:48.999Z</time></trkpt><trkpt lat="42.68654860620909" lon="11.905723984521963"><ele>494.0</ele><time>2026-04-11T08:50:49.999Z</time></trkpt><trkpt lat="42.686428340733165" lon="11.905806359417276"><ele>494.0</ele><time>2026-04-11T08:50:50.999Z</time></trkpt><trkpt lat="42.68631731356027" lon="11.905882396971224"><ele>494.0</ele><time>2026-04-11T08:50:51.999Z</time></trkpt><trkpt lat="42.68619408240079" lon="11.905962959956065"><ele>494.0</ele><time>2026-04-11T08:50:52.999Z</time></trkpt><trkpt lat="42.68606243395132" lon="11.906059030761243"><ele>494.25</ele><time>2026-04-11T08:50:53.999Z</time></trkpt><trkpt lat="42.68593171478039" lon="11.906150334725035"><ele>494.5</ele><time>2026-04-11T08:50:54.999Z</time></trkpt><trkpt lat="42.68583575095556" lon="11.906215487589142"><ele>494.75</ele><time>2026-04-11T08:50:55.999Z</time></trkpt><trkpt lat="42.68568412609727" lon="11.906366222933245"><ele>495.0</ele><time>2026-04-11T08:51:03.998Z</time></trkpt><trkpt lat="42.685565855918384" lon="11.906446920749394"><ele>495.0</ele><time>2026-04-11T08:51:04.998Z</time></trkpt><trkpt lat="42.68542350505312" lon="11.906544060922478"><ele>495.0</ele><time>2026-04-11T08:51:05.998Z</time></trkpt><trkpt lat="42.685315971348345" lon="11.906619487210104"><ele>495.0</ele><time>2026-04-11T08:51:06.998Z</time></trkpt><trkpt lat="42.68525240076917" lon="11.906669782504444"><ele>495.0</ele><time>2026-04-11T08:51:07.998Z</time></trkpt><trkpt lat="42.68519143293899" lon="11.906699017802453"><ele>495.0</ele><time>2026-04-11T08:51:09.998Z</time></trkpt><trkpt lat="42.685094368011576" lon="11.90675065013321"><ele>494.8</ele><time>2026-04-11T08:51:22.998Z</time></trkpt><trkpt lat="42.68502079352767" lon="11.906793492456893"><ele>494.6</ele><time>2026-04-11T08:51:23.998Z</time></trkpt><trkpt lat="42.68494054786162" lon="11.906858305260778"><ele>494.4</ele><time>2026-04-11T08:51:24.998Z</time></trkpt><trkpt lat="42.68485093794507" lon="11.906926739144023"><ele>494.2</ele><time>2026-04-11T08:51:25.998Z</time></trkpt><trkpt lat="42.68475448120313" lon="11.90700186910141"><ele>494.0</ele><time>2026-04-11T08:51:26.998Z</time></trkpt><trkpt lat="42.68464360477912" lon="11.907080299647701"><ele>494.0</ele><time>2026-04-11T08:51:27.998Z</time></trkpt><trkpt lat="42.68453426602248" lon="11.907166291030308"><ele>494.0</ele><time>2026-04-11T08:51:28.998Z</time></trkpt><trkpt lat="42.684423137991324" lon="11.907273008546474"><ele>494.0</ele><time>2026-04-11T08:51:29.998Z</time></trkpt><trkpt lat="42.68432022455836" lon="11.907395948553965"><ele>494.0</ele><time>2026-04-11T08:51:30.998Z</time></trkpt><trkpt lat="42.68423414554931" lon="11.907529998833034"><ele>491.25</ele><time>2026-04-11T08:51:31.998Z</time></trkpt><trkpt lat="42.684158537996844" lon="11.907678024149895"><ele>488.5</ele><time>2026-04-11T08:51:32.998Z</time></trkpt><trkpt lat="42.6840928745519" lon="11.907843568639153"><ele>485.75</ele><time>2026-04-11T08:51:33.998Z</time></trkpt><trkpt lat="42.68404971368308" lon="11.908028168143119"><ele>483.0</ele><time>2026-04-11T08:51:34.998Z</time></trkpt><trkpt lat="42.68403375707898" lon="11.908241693500845"><ele>480.33333333333337</ele><time>2026-04-11T08:51:35.998Z</time></trkpt><trkpt lat="42.684039794405095" lon="11.908471167361284"><ele>477.6666666666667</ele><time>2026-04-11T08:51:36.998Z</time></trkpt><trkpt lat="42.68409172016891" lon="11.9087110389644"><ele>475.0</ele><time>2026-04-11T08:51:37.998Z</time></trkpt><trkpt lat="42.68417157101003" lon="11.908952181851834"><ele>475.0</ele><time>2026-04-11T08:51:38.998Z</time></trkpt><trkpt lat="42.68424472090204" lon="11.909211494188993"><ele>475.0</ele><time>2026-04-11T08:51:39.998Z</time></trkpt><trkpt lat="42.68433046056572" lon="11.909475863523628"><ele>475.0</ele><time>2026-04-11T08:51:40.998Z</time></trkpt><trkpt lat="42.684418057025574" lon="11.909760526004623"><ele>477.6666666666667</ele><time>2026-04-11T08:51:41.998Z</time></trkpt><trkpt lat="42.68449270509664" lon="11.910054817110355"><ele>480.33333333333337</ele><time>2026-04-11T08:51:42.998Z</time></trkpt><trkpt lat="42.68455690537993" lon="11.910341902545367"><ele>483.0</ele><time>2026-04-11T08:51:43.998Z</time></trkpt><trkpt lat="42.68458555855669" lon="11.910656802029534"><ele>484.5</ele><time>2026-04-11T08:51:44.998Z</time></trkpt><trkpt lat="42.684589004165936" lon="11.910966288034139"><ele>486.0</ele><time>2026-04-11T08:51:45.998Z</time></trkpt><trkpt lat="42.68458083650689" lon="11.911275726221351"><ele>486.0</ele><time>2026-04-11T08:51:46.998Z</time></trkpt><trkpt lat="42.6845894719018" lon="11.911585626039646"><ele>486.0</ele><time>2026-04-11T08:51:47.998Z</time></trkpt><trkpt lat="42.684615646459406" lon="11.911895093886718"><ele>484.5</ele><time>2026-04-11T08:51:48.998Z</time></trkpt><trkpt lat="42.6846571805442" lon="11.912215393117068"><ele>483.0</ele><time>2026-04-11T08:51:49.998Z</time></trkpt><trkpt lat="42.68470989490314" lon="11.912534863434159"><ele>481.33333333333337</ele><time>2026-04-11T08:51:50.998Z</time></trkpt><trkpt lat="42.68477183835232" lon="11.912842838303654"><ele>479.6666666666667</ele><time>2026-04-11T08:51:51.998Z</time></trkpt><trkpt lat="42.68482567312502" lon="11.913122049261574"><ele>478.0</ele><time>2026-04-11T08:51:52.998Z</time></trkpt><trkpt lat="42.68486529762383" lon="11.913396402981146"><ele>475.6666666666667</ele><time>2026-04-11T08:51:53.998Z</time></trkpt><trkpt lat="42.684910241569" lon="11.91364849051149"><ele>473.33333333333337</ele><time>2026-04-11T08:51:54.998Z</time></trkpt><trkpt lat="42.68492725972989" lon="11.913894462557073"><ele>471.0</ele><time>2026-04-11T08:51:55.998Z</time></trkpt><trkpt lat="42.68493081966131" lon="11.91412648224636"><ele>468.66666666666663</ele><time>2026-04-11T08:51:56.998Z</time></trkpt><trkpt lat="42.68492423877073" lon="11.914361748382905"><ele>466.3333333333333</ele><time>2026-04-11T08:51:57.998Z</time></trkpt><trkpt lat="42.68488622203297" lon="11.914576429957275"><ele>464.0</ele><time>2026-04-11T08:51:58.998Z</time></trkpt><trkpt lat="42.68482688380037" lon="11.914772613780556"><ele>464.0</ele><time>2026-04-11T08:51:59.998Z</time></trkpt><trkpt lat="42.68474753936843" lon="11.91498050349169"><ele>464.0</ele><time>2026-04-11T08:52:00.998Z</time></trkpt><trkpt lat="42.684623011956226" lon="11.915180599708128"><ele>464.0</ele><time>2026-04-11T08:52:01.998Z</time></trkpt><trkpt lat="42.68447174496391" lon="11.915414331472807"><ele>456.5</ele><time>2026-04-11T08:52:02.998Z</time></trkpt><trkpt lat="42.684316536910494" lon="11.915665387021775"><ele>449.0</ele><time>2026-04-11T08:52:03.998Z</time></trkpt><trkpt lat="42.68413790180385" lon="11.915913862187224"><ele>449.0</ele><time>2026-04-11T08:52:04.998Z</time></trkpt><trkpt lat="42.68397671861715" lon="11.916163419659668"><ele>449.0</ele><time>2026-04-11T08:52:05.998Z</time></trkpt><trkpt lat="42.68383257221691" lon="11.91638805779535"><ele>449.0</ele><time>2026-04-11T08:52:06.998Z</time></trkpt><trkpt lat="42.68370028178586" lon="11.91657422060485"><ele>449.0</ele><time>2026-04-11T08:52:07.998Z</time></trkpt><trkpt lat="42.68356975309106" lon="11.916750917229434"><ele>449.0</ele><time>2026-04-11T08:52:08.998Z</time></trkpt><trkpt lat="42.68345341317886" lon="11.91686019240077"><ele>447.66666666666663</ele><time>2026-04-11T08:52:09.998Z</time></trkpt><trkpt lat="42.6833148607977" lon="11.91692386394502"><ele>446.33333333333337</ele><time>2026-04-11T08:52:10.998Z</time></trkpt><trkpt lat="42.683169553030936" lon="11.916929305462501"><ele>445.0</ele><time>2026-04-11T08:52:11.998Z</time></trkpt><trkpt lat="42.68300939675055" lon="11.916903681446106"><ele>445.0</ele><time>2026-04-11T08:52:12.998Z</time></trkpt><trkpt lat="42.68283032935585" lon="11.916853755196076"><ele>445.0</ele><time>2026-04-11T08:52:13.998Z</time></trkpt><trkpt lat="42.68264122310913" lon="11.916732003859368"><ele>445.0</ele><time>2026-04-11T08:52:14.998Z</time></trkpt><trkpt lat="42.68243847640744" lon="11.916605109879228"><ele>444.33333333333337</ele><time>2026-04-11T08:52:15.998Z</time></trkpt><trkpt lat="42.68223087918299" lon="11.916451864238322"><ele>443.66666666666663</ele><time>2026-04-11T08:52:16.998Z</time></trkpt><trkpt lat="42.68203548685483" lon="11.916337171352422"><ele>443.0</ele><time>2026-04-11T08:52:17.998Z</time></trkpt><trkpt lat="42.68186032584942" lon="11.91624648184597"><ele>443.0</ele><time>2026-04-11T08:52:18.998Z</time></trkpt><trkpt lat="42.68170039418285" lon="11.916181169620891"><ele>443.0</ele><time>2026-04-11T08:52:19.998Z</time></trkpt><trkpt lat="42.68153326976209" lon="11.916144175447142"><ele>443.0</ele><time>2026-04-11T08:52:20.998Z</time></trkpt><trkpt lat="42.681329138894235" lon="11.916144493607275"><ele>439.0</ele><time>2026-04-11T08:52:21.998Z</time></trkpt><trkpt lat="42.68109053569363" lon="11.916177941020324"><ele>435.0</ele><time>2026-04-11T08:52:22.998Z</time></trkpt><trkpt lat="42.68085277098534" lon="11.916276584759823"><ele>435.0</ele><time>2026-04-11T08:52:23.998Z</time></trkpt><trkpt lat="42.680628297103965" lon="11.91644777299542"><ele>435.0</ele><time>2026-04-11T08:52:24.998Z</time></trkpt><trkpt lat="42.68045875811781" lon="11.91668990860165"><ele>429.0</ele><time>2026-04-11T08:52:25.998Z</time></trkpt><trkpt lat="42.6802650276852" lon="11.916887481875825"><ele>423.0</ele><time>2026-04-11T08:52:26.998Z</time></trkpt><trkpt lat="42.68006489515218" lon="11.917098691823155"><ele>424.5</ele><time>2026-04-11T08:52:27.998Z</time></trkpt><trkpt lat="42.680032667159416" lon="11.917574847790135"><ele>426.0</ele><time>2026-04-11T08:52:28.998Z</time></trkpt><trkpt lat="42.67987377941357" lon="11.917814327533502"><ele>426.0</ele><time>2026-04-11T08:52:29.998Z</time></trkpt><trkpt lat="42.67970757021969" lon="11.918014242087962"><ele>426.0</ele><time>2026-04-11T08:52:30.998Z</time></trkpt><trkpt lat="42.67951315359426" lon="11.918155374102934"><ele>426.0</ele><time>2026-04-11T08:52:31.998Z</time></trkpt><trkpt lat="42.67931300361502" lon="11.918271771084418"><ele>422.33333333333337</ele><time>2026-04-11T08:52:32.999Z</time></trkpt><trkpt lat="42.67912017702254" lon="11.918360577001845"><ele>418.6666666666667</ele><time>2026-04-11T08:52:33.999Z</time></trkpt><trkpt lat="42.678907908056935" lon="11.9184254796813"><ele>415.0</ele><time>2026-04-11T08:52:34.999Z</time></trkpt><trkpt lat="42.67868541913224" lon="11.91848456380349"><ele>411.0</ele><time>2026-04-11T08:52:35.999Z</time></trkpt><trkpt lat="42.67845054202249" lon="11.918519786829767"><ele>407.0</ele><time>2026-04-11T08:52:36.999Z</time></trkpt><trkpt lat="42.678198277013934" lon="11.918536565103237"><ele>407.0</ele><time>2026-04-11T08:52:37.999Z</time></trkpt><trkpt lat="42.677936154226586" lon="11.918539476572754"><ele>407.0</ele><time>2026-04-11T08:52:38.999Z</time></trkpt><trkpt lat="42.67766466299713" lon="11.918528947033925"><ele>404.5</ele><time>2026-04-11T08:52:39.999Z</time></trkpt><trkpt lat="42.67738684728375" lon="11.918520413160246"><ele>402.0</ele><time>2026-04-11T08:52:40.999Z</time></trkpt><trkpt lat="42.67710972402613" lon="11.918525695819042"><ele>400.5</ele><time>2026-04-11T08:52:41.999Z</time></trkpt><trkpt lat="42.67683071010842" lon="11.918534045445329"><ele>399.0</ele><time>2026-04-11T08:52:42.999Z</time></trkpt><trkpt lat="42.676551976016704" lon="11.918545118471696"><ele>399.0</ele><time>2026-04-11T08:52:43.999Z</time></trkpt><trkpt lat="42.6762645704599" lon="11.918554422367546"><ele>399.0</ele><time>2026-04-11T08:52:44.999Z</time></trkpt><trkpt lat="42.67598212365031" lon="11.91856761362132"><ele>396.5</ele><time>2026-04-11T08:52:45.999Z</time></trkpt><trkpt lat="42.675692187906286" lon="11.918574355961553"><ele>394.0</ele><time>2026-04-11T08:52:46.999Z</time></trkpt><trkpt lat="42.675416983127214" lon="11.918581743688444"><ele>391.5</ele><time>2026-04-11T08:52:47.999Z</time></trkpt><trkpt lat="42.675147642817294" lon="11.918584392314166"><ele>389.0</ele><time>2026-04-11T08:52:48.999Z</time></trkpt><trkpt lat="42.67488384300957" lon="11.91859293071503"><ele>389.0</ele><time>2026-04-11T08:52:50Z</time></trkpt><trkpt lat="42.674622568488566" lon="11.918602246818235"><ele>389.0</ele><time>2026-04-11T08:52:51Z</time></trkpt><trkpt lat="42.67435625741998" lon="11.91861344985956"><ele>386.5</ele><time>2026-04-11T08:52:52Z</time></trkpt><trkpt lat="42.674088862493306" lon="11.918612014209552"><ele>384.0</ele><time>2026-04-11T08:52:53Z</time></trkpt><trkpt lat="42.67382202925753" lon="11.91862691912721"><ele>381.0</ele><time>2026-04-11T08:52:54Z</time></trkpt><trkpt lat="42.67355849185018" lon="11.918628531286148"><ele>378.0</ele><time>2026-04-11T08:52:55Z</time></trkpt><trkpt lat="42.67328753453478" lon="11.918638016147593"><ele>378.0</ele><time>2026-04-11T08:52:56Z</time></trkpt><trkpt lat="42.67301796817985" lon="11.918656051327924"><ele>378.0</ele><time>2026-04-11T08:52:57Z</time></trkpt><trkpt lat="42.67274084050289" lon="11.918668259148507"><ele>376.5</ele><time>2026-04-11T08:52:58Z</time></trkpt><trkpt lat="42.67246036982176" lon="11.918678335451691"><ele>375.0</ele><time>2026-04-11T08:52:59Z</time></trkpt><trkpt lat="42.67217554884397" lon="11.91869091438989"><ele>377.5</ele><time>2026-04-11T08:53:00Z</time></trkpt><trkpt lat="42.6718903331211" lon="11.918696388616278"><ele>380.0</ele><time>2026-04-11T08:53:01Z</time></trkpt><trkpt lat="42.671629337292465" lon="11.918706354349704"><ele>380.0</ele><time>2026-04-11T08:53:02Z</time></trkpt><trkpt lat="42.671377330372174" lon="11.918707430855886"><ele>380.0</ele><time>2026-04-11T08:53:03Z</time></trkpt><trkpt lat="42.67113949965346" lon="11.918691088673473"><ele>381.0</ele><time>2026-04-11T08:53:04Z</time></trkpt><trkpt lat="42.670918277029685" lon="11.918639033367048"><ele>382.0</ele><time>2026-04-11T08:53:05Z</time></trkpt><trkpt lat="42.67069661567556" lon="11.918566469478119"><ele>382.0</ele><time>2026-04-11T08:53:06Z</time></trkpt><trkpt lat="42.67048135675027" lon="11.918462913106904"><ele>382.0</ele><time>2026-04-11T08:53:07Z</time></trkpt><trkpt lat="42.67026868728727" lon="11.918323880619484"><ele>379.5</ele><time>2026-04-11T08:53:08Z</time></trkpt><trkpt lat="42.67006135131674" lon="11.918159599886078"><ele>377.0</ele><time>2026-04-11T08:53:09Z</time></trkpt><trkpt lat="42.66987110000714" lon="11.917965550618918"><ele>377.0</ele><time>2026-04-11T08:53:10Z</time></trkpt><trkpt lat="42.669688936480185" lon="11.91774204260093"><ele>377.0</ele><time>2026-04-11T08:53:11Z</time></trkpt><trkpt lat="42.66952001397666" lon="11.9174984608149"><ele>375.5</ele><time>2026-04-11T08:53:12Z</time></trkpt><trkpt lat="42.66938634296159" lon="11.917249340666283"><ele>374.0</ele><time>2026-04-11T08:53:13Z</time></trkpt><trkpt lat="42.66926944096165" lon="11.91698442535834"><ele>373.5</ele><time>2026-04-11T08:53:14Z</time></trkpt><trkpt lat="42.66917148471437" lon="11.916704078344225"><ele>373.0</ele><time>2026-04-11T08:53:15Z</time></trkpt><trkpt lat="42.669089416603086" lon="11.916403423514037"><ele>373.0</ele><time>2026-04-11T08:53:16Z</time></trkpt><trkpt lat="42.6690167901318" lon="11.916084169709316"><ele>373.0</ele><time>2026-04-11T08:53:17Z</time></trkpt><trkpt lat="42.66895519361913" lon="11.915785923933393"><ele>373.0</ele><time>2026-04-11T08:53:18Z</time></trkpt><trkpt lat="42.66890985261337" lon="11.915524984992286"><ele>373.0</ele><time>2026-04-11T08:53:19Z</time></trkpt><trkpt lat="42.66888287250944" lon="11.915258271256457"><ele>373.0</ele><time>2026-04-11T08:53:20Z</time></trkpt><trkpt lat="42.66889496666419" lon="11.914969423152346"><ele>370.0</ele><time>2026-04-11T08:53:21Z</time></trkpt><trkpt lat="42.66894184824642" lon="11.914657611906494"><ele>367.0</ele><time>2026-04-11T08:53:22Z</time></trkpt><trkpt lat="42.66900009022145" lon="11.914324022152703"><ele>366.0</ele><time>2026-04-11T08:53:23Z</time></trkpt><trkpt lat="42.66905105978851" lon="11.913997546103005"><ele>365.0</ele><time>2026-04-11T08:53:24Z</time></trkpt><trkpt lat="42.6690908629888" lon="11.913701682663428"><ele>365.0</ele><time>2026-04-11T08:53:25Z</time></trkpt><trkpt lat="42.66911123516428" lon="11.913410125816156"><ele>365.0</ele><time>2026-04-11T08:53:26Z</time></trkpt><trkpt lat="42.66909605683687" lon="11.913104969860537"><ele>365.0</ele><time>2026-04-11T08:53:27Z</time></trkpt><trkpt lat="42.66905275215511" lon="11.91278076380427"><ele>360.0</ele><time>2026-04-11T08:53:28Z</time></trkpt><trkpt lat="42.66900475597525" lon="11.91245073550413"><ele>355.0</ele><time>2026-04-11T08:53:29Z</time></trkpt><trkpt lat="42.66894658048051" lon="11.912122436526781"><ele>355.0</ele><time>2026-04-11T08:53:30Z</time></trkpt><trkpt lat="42.668857556318265" lon="11.911804846045628"><ele>355.0</ele><time>2026-04-11T08:53:31Z</time></trkpt><trkpt lat="42.66873737148278" lon="11.911494775789404"><ele>360.5</ele><time>2026-04-11T08:53:32Z</time></trkpt><trkpt lat="42.66860484090016" lon="11.911208573930827"><ele>366.0</ele><time>2026-04-11T08:53:33Z</time></trkpt><trkpt lat="42.66849434437487" lon="11.910915121064281"><ele>362.0</ele><time>2026-04-11T08:53:34Z</time></trkpt><trkpt lat="42.66842078513592" lon="11.910613881668455"><ele>358.0</ele><time>2026-04-11T08:53:35Z</time></trkpt><trkpt lat="42.66836738920129" lon="11.910307150053592"><ele>356.0</ele><time>2026-04-11T08:53:36Z</time></trkpt><trkpt lat="42.66834366029575" lon="11.910002282769575"><ele>354.0</ele><time>2026-04-11T08:53:37Z</time></trkpt><trkpt lat="42.66831358602789" lon="11.90973577875789"><ele>352.0</ele><time>2026-04-11T08:53:38Z</time></trkpt><trkpt lat="42.66825864705154" lon="11.909489206573141"><ele>352.0</ele><time>2026-04-11T08:53:39Z</time></trkpt><trkpt lat="42.66815941661418" lon="11.909271098106473"><ele>352.0</ele><time>2026-04-11T08:53:40Z</time></trkpt><trkpt lat="42.66802503115754" lon="11.909079237337426"><ele>352.0</ele><time>2026-04-11T08:53:41Z</time></trkpt><trkpt lat="42.66787359970375" lon="11.908923013468256"><ele>351.66666666666663</ele><time>2026-04-11T08:53:42Z</time></trkpt><trkpt lat="42.66769047030952" lon="11.90882732428463"><ele>351.3333333333333</ele><time>2026-04-11T08:53:43Z</time></trkpt><trkpt lat="42.667493477660706" lon="11.90876501767715"><ele>351.0</ele><time>2026-04-11T08:53:44Z</time></trkpt><trkpt lat="42.66728069080536" lon="11.908743174641675"><ele>351.0</ele><time>2026-04-11T08:53:45Z</time></trkpt><trkpt lat="42.66704500383317" lon="11.90874302569082"><ele>351.0</ele><time>2026-04-11T08:53:46Z</time></trkpt><trkpt lat="42.66680755252681" lon="11.908732204706745"><ele>351.5</ele><time>2026-04-11T08:53:47Z</time></trkpt><trkpt lat="42.66654949625298" lon="11.908725936220252"><ele>352.0</ele><time>2026-04-11T08:53:48Z</time></trkpt><trkpt lat="42.66629272957279" lon="11.908718930395953"><ele>351.5</ele><time>2026-04-11T08:53:49Z</time></trkpt><trkpt lat="42.66605079780157" lon="11.908713732959624"><ele>351.0</ele><time>2026-04-11T08:53:50Z</time></trkpt><trkpt lat="42.66581814008935" lon="11.908686257673695"><ele>351.0</ele><time>2026-04-11T08:53:51Z</time></trkpt><trkpt lat="42.6655896027717" lon="11.908626694638425"><ele>351.0</ele><time>2026-04-11T08:53:52Z</time></trkpt><trkpt lat="42.66535350551582" lon="11.908550836887052"><ele>349.3333333333333</ele><time>2026-04-11T08:53:53Z</time></trkpt><trkpt lat="42.66512955826487" lon="11.908488415022582"><ele>347.66666666666663</ele><time>2026-04-11T08:53:54Z</time></trkpt><trkpt lat="42.66491654051592" lon="11.908457884976187"><ele>346.0</ele><time>2026-04-11T08:53:55Z</time></trkpt><trkpt lat="42.6646972397811" lon="11.908476460345696"><ele>346.0</ele><time>2026-04-11T08:53:56Z</time></trkpt><trkpt lat="42.66447754208918" lon="11.90854643931665"><ele>346.0</ele><time>2026-04-11T08:53:57Z</time></trkpt><trkpt lat="42.66425565228011" lon="11.908626480337082"><ele>340.5</ele><time>2026-04-11T08:53:58Z</time></trkpt><trkpt lat="42.66402658557713" lon="11.908703057109136"><ele>335.0</ele><time>2026-04-11T08:53:59Z</time></trkpt><trkpt lat="42.66378705002992" lon="11.908780774047415"><ele>334.33333333333337</ele><time>2026-04-11T08:54:00Z</time></trkpt><trkpt lat="42.66356130558561" lon="11.90883331660972"><ele>333.6666666666667</ele><time>2026-04-11T08:54:01Z</time></trkpt><trkpt lat="42.6633476972213" lon="11.908835522825912"><ele>333.0</ele><time>2026-04-11T08:54:02Z</time></trkpt><trkpt lat="42.66312521731262" lon="11.908792048652893"><ele>333.0</ele><time>2026-04-11T08:54:03Z</time></trkpt><trkpt lat="42.66289135272639" lon="11.908736428153093"><ele>333.0</ele><time>2026-04-11T08:54:04Z</time></trkpt><trkpt lat="42.662658823736905" lon="11.908676279455884"><ele>331.5</ele><time>2026-04-11T08:54:05Z</time></trkpt><trkpt lat="42.66243581504769" lon="11.908628625904628"><ele>330.0</ele><time>2026-04-11T08:54:06Z</time></trkpt><trkpt lat="42.662213601163394" lon="11.908585513962953"><ele>330.0</ele><time>2026-04-11T08:54:07Z</time></trkpt><trkpt lat="42.661982921076614" lon="11.90853905072349"><ele>330.0</ele><time>2026-04-11T08:54:08Z</time></trkpt><trkpt lat="42.66175312076795" lon="11.908505128300344"><ele>328.6666666666667</ele><time>2026-04-11T08:54:09Z</time></trkpt><trkpt lat="42.66154894201979" lon="11.908490335155806"><ele>327.33333333333337</ele><time>2026-04-11T08:54:10Z</time></trkpt><trkpt lat="42.66135057248387" lon="11.908504756151265"><ele>326.0</ele><time>2026-04-11T08:54:11Z</time></trkpt><trkpt lat="42.661146772642965" lon="11.908569784900088"><ele>323.5</ele><time>2026-04-11T08:54:12Z</time></trkpt><trkpt lat="42.66093349605302" lon="11.908662488269224"><ele>321.0</ele><time>2026-04-11T08:54:13Z</time></trkpt><trkpt lat="42.660712014976674" lon="11.908756047406516"><ele>321.0</ele><time>2026-04-11T08:54:14Z</time></trkpt><trkpt lat="42.66048125209169" lon="11.908852040198692"><ele>321.0</ele><time>2026-04-11T08:54:15Z</time></trkpt><trkpt lat="42.660241891641256" lon="11.908952752081445"><ele>317.5</ele><time>2026-04-11T08:54:16Z</time></trkpt><trkpt lat="42.66000961553763" lon="11.909047406697784"><ele>314.0</ele><time>2026-04-11T08:54:17Z</time></trkpt><trkpt lat="42.659770029212474" lon="11.909154659792092"><ele>314.0</ele><time>2026-04-11T08:54:18Z</time></trkpt><trkpt lat="42.65954383470607" lon="11.909249734593644"><ele>314.0</ele><time>2026-04-11T08:54:19Z</time></trkpt><trkpt lat="42.659341297807536" lon="11.90933582087023"><ele>314.0</ele><time>2026-04-11T08:54:20Z</time></trkpt><trkpt lat="42.65916258690475" lon="11.909418551718188"><ele>314.0</ele><time>2026-04-11T08:54:21Z</time></trkpt><trkpt lat="42.65899725551947" lon="11.9095234805527"><ele>314.0</ele><time>2026-04-11T08:54:22Z</time></trkpt><trkpt lat="42.658840537136825" lon="11.909626414822648"><ele>314.0</ele><time>2026-04-11T08:54:23Z</time></trkpt><trkpt lat="42.65868162808218" lon="11.909723152259163"><ele>313.5</ele><time>2026-04-11T08:54:24Z</time></trkpt><trkpt lat="42.65853414150003" lon="11.909821563635749"><ele>313.0</ele><time>2026-04-11T08:54:25Z</time></trkpt><trkpt lat="42.65851969404127" lon="11.910315261528362"><ele>313.0</ele><time>2026-04-11T08:54:26Z</time></trkpt><trkpt lat="42.65838160975663" lon="11.910519266441888"><ele>313.0</ele><time>2026-04-11T08:54:27Z</time></trkpt><trkpt lat="42.658223600190645" lon="11.910733600380741"><ele>313.0</ele><time>2026-04-11T08:54:28Z</time></trkpt><trkpt lat="42.658084667951115" lon="11.91096733292436"><ele>314.0</ele><time>2026-04-11T08:54:29Z</time></trkpt><trkpt lat="42.65796890049533" lon="11.911230792469684"><ele>315.0</ele><time>2026-04-11T08:54:30Z</time></trkpt><trkpt lat="42.65786177031657" lon="11.911521464577676"><ele>315.0</ele><time>2026-04-11T08:54:31Z</time></trkpt><trkpt lat="42.65775330777467" lon="11.91181836194296"><ele>315.0</ele><time>2026-04-11T08:54:32Z</time></trkpt><trkpt lat="42.65764545431232" lon="11.912111338653135"><ele>315.0</ele><time>2026-04-11T08:54:33Z</time></trkpt><trkpt lat="42.65751258925564" lon="11.912398383845737"><ele>315.0</ele><time>2026-04-11T08:54:34Z</time></trkpt><trkpt lat="42.65737340975944" lon="11.912675085076863"><ele>316.0</ele><time>2026-04-11T08:54:35Z</time></trkpt><trkpt lat="42.65723446373807" lon="11.912958669936708"><ele>317.0</ele><time>2026-04-11T08:54:36Z</time></trkpt><trkpt lat="42.657086438773575" lon="11.913256255102542"><ele>315.5</ele><time>2026-04-11T08:54:37Z</time></trkpt><trkpt lat="42.6569364323331" lon="11.913561331888527"><ele>314.0</ele><time>2026-04-11T08:54:38Z</time></trkpt><trkpt lat="42.656790137518776" lon="11.9138673664245"><ele>314.0</ele><time>2026-04-11T08:54:39Z</time></trkpt><trkpt lat="42.65664361191588" lon="11.914170991524143"><ele>314.0</ele><time>2026-04-11T08:54:40Z</time></trkpt><trkpt lat="42.65650318063996" lon="11.914473431909038"><ele>314.0</ele><time>2026-04-11T08:54:41Z</time></trkpt><trkpt lat="42.65638055378665" lon="11.914782470471241"><ele>314.0</ele><time>2026-04-11T08:54:42Z</time></trkpt><trkpt lat="42.65627076614414" lon="11.915103082348168"><ele>314.0</ele><time>2026-04-11T08:54:43Z</time></trkpt><trkpt lat="42.65617168016004" lon="11.915433524122994"><ele>314.0</ele><time>2026-04-11T08:54:44Z</time></trkpt><trkpt lat="42.6560778420544" lon="11.915765812393275"><ele>312.0</ele><time>2026-04-11T08:54:45Z</time></trkpt><trkpt lat="42.65598017786184" lon="11.916101889105727"><ele>310.0</ele><time>2026-04-11T08:54:46Z</time></trkpt><trkpt lat="42.655885256463705" lon="11.916437787013042"><ele>310.0</ele><time>2026-04-11T08:54:47Z</time></trkpt><trkpt lat="42.655799825921754" lon="11.916775896899512"><ele>310.0</ele><time>2026-04-11T08:54:48Z</time></trkpt><trkpt lat="42.655723549356416" lon="11.917114763595098"><ele>310.0</ele><time>2026-04-11T08:54:49Z</time></trkpt><trkpt lat="42.655653402732725" lon="11.917454235473729"><ele>310.0</ele><time>2026-04-11T08:54:50Z</time></trkpt><trkpt lat="42.65559354066803" lon="11.917790604543855"><ele>310.0</ele><time>2026-04-11T08:54:51Z</time></trkpt><trkpt lat="42.655542822920765" lon="11.9181180976113"><ele>310.0</ele><time>2026-04-11T08:54:52Z</time></trkpt><trkpt lat="42.655504927538" lon="11.918415759095318"><ele>310.0</ele><time>2026-04-11T08:54:53Z</time></trkpt><trkpt lat="42.65549138655893" lon="11.918710349409334"><ele>310.0</ele><time>2026-04-11T08:54:54Z</time></trkpt><trkpt lat="42.655509422464235" lon="11.919011333826987"><ele>310.0</ele><time>2026-04-11T08:54:55Z</time></trkpt><trkpt lat="42.65553629555842" lon="11.919312393260311"><ele>309.66666666666663</ele><time>2026-04-11T08:54:56Z</time></trkpt><trkpt lat="42.655564767049015" lon="11.919612305152103"><ele>309.3333333333333</ele><time>2026-04-11T08:54:57Z</time></trkpt><trkpt lat="42.65559754549273" lon="11.919915117061628"><ele>309.0</ele><time>2026-04-11T08:54:58Z</time></trkpt><trkpt lat="42.65564287565979" lon="11.920223835732326"><ele>308.5</ele><time>2026-04-11T08:54:59Z</time></trkpt><trkpt lat="42.655690345326214" lon="11.92054669975047"><ele>308.0</ele><time>2026-04-11T08:55:00Z</time></trkpt><trkpt lat="42.65574036304485" lon="11.920877080074973"><ele>309.0</ele><time>2026-04-11T08:55:01Z</time></trkpt><trkpt lat="42.65579154085307" lon="11.921209781111028"><ele>310.0</ele><time>2026-04-11T08:55:02Z</time></trkpt><trkpt lat="42.65585044140358" lon="11.921541246970952"><ele>310.0</ele><time>2026-04-11T08:55:03Z</time></trkpt><trkpt lat="42.6559149381704" lon="11.921863650200752"><ele>310.0</ele><time>2026-04-11T08:55:04Z</time></trkpt><trkpt lat="42.655987307180936" lon="11.922187113155612"><ele>310.0</ele><time>2026-04-11T08:55:05Z</time></trkpt><trkpt lat="42.65606855001438" lon="11.922506631790299"><ele>310.0</ele><time>2026-04-11T08:55:06Z</time></trkpt><trkpt lat="42.65614290474285" lon="11.92283806107879"><ele>310.5</ele><time>2026-04-11T08:55:07Z</time></trkpt><trkpt lat="42.65620565813788" lon="11.923145973941333"><ele>311.0</ele><time>2026-04-11T08:55:08Z</time></trkpt><trkpt lat="42.65626238352526" lon="11.923455997611828"><ele>311.5</ele><time>2026-04-11T08:55:09Z</time></trkpt><trkpt lat="42.65629451560071" lon="11.923782888052937"><ele>312.0</ele><time>2026-04-11T08:55:10Z</time></trkpt><trkpt lat="42.656295271026394" lon="11.924115609618438"><ele>311.5</ele><time>2026-04-11T08:55:11Z</time></trkpt><trkpt lat="42.65628850073151" lon="11.924455417287545"><ele>311.0</ele><time>2026-04-11T08:55:12Z</time></trkpt><trkpt lat="42.656285360460956" lon="11.924802184521136"><ele>311.0</ele><time>2026-04-11T08:55:13Z</time></trkpt><trkpt lat="42.65628346076529" lon="11.92514614900182"><ele>311.0</ele><time>2026-04-11T08:55:14Z</time></trkpt><trkpt lat="42.65629524997269" lon="11.925484836056986"><ele>311.0</ele><time>2026-04-11T08:55:15Z</time></trkpt><trkpt lat="42.65630822509835" lon="11.925835352956359"><ele>311.0</ele><time>2026-04-11T08:55:16Z</time></trkpt><trkpt lat="42.65632948744816" lon="11.926202086184393"><ele>311.0</ele><time>2026-04-11T08:55:17Z</time></trkpt><trkpt lat="42.65633880164242" lon="11.926572691321308"><ele>311.0</ele><time>2026-04-11T08:55:18Z</time></trkpt><trkpt lat="42.656354415650675" lon="11.92693885638036"><ele>311.0</ele><time>2026-04-11T08:55:19Z</time></trkpt><trkpt lat="42.65637349805432" lon="11.927304102223678"><ele>311.0</ele><time>2026-04-11T08:55:20Z</time></trkpt><trkpt lat="42.65639601425121" lon="11.927652156343628"><ele>311.0</ele><time>2026-04-11T08:55:21Z</time></trkpt><trkpt lat="42.656421217017545" lon="11.927972738271428"><ele>311.0</ele><time>2026-04-11T08:55:22Z</time></trkpt><trkpt lat="42.656448213991496" lon="11.928281189224686"><ele>311.33333333333337</ele><time>2026-04-11T08:55:23Z</time></trkpt><trkpt lat="42.6564751410323" lon="11.928580404181844"><ele>311.6666666666667</ele><time>2026-04-11T08:55:24Z</time></trkpt><trkpt lat="42.656509431479435" lon="11.928882661091881"><ele>312.0</ele><time>2026-04-11T08:55:25Z</time></trkpt><trkpt lat="42.65652091261276" lon="11.929187157172827"><ele>311.0</ele><time>2026-04-11T08:55:26Z</time></trkpt><trkpt lat="42.656517789350744" lon="11.929508309282818"><ele>310.0</ele><time>2026-04-11T08:55:27Z</time></trkpt><trkpt lat="42.65650865343546" lon="11.929849971947267"><ele>309.5</ele><time>2026-04-11T08:55:28Z</time></trkpt><trkpt lat="42.65650712349888" lon="11.930202859926693"><ele>309.0</ele><time>2026-04-11T08:55:29Z</time></trkpt><trkpt lat="42.65650673299802" lon="11.930558313135608"><ele>309.5</ele><time>2026-04-11T08:55:30Z</time></trkpt><trkpt lat="42.65649427533271" lon="11.930919067188782"><ele>310.0</ele><time>2026-04-11T08:55:31Z</time></trkpt><trkpt lat="42.65652193971191" lon="11.931282155438517"><ele>310.0</ele><time>2026-04-11T08:55:32Z</time></trkpt><trkpt lat="42.656546344706314" lon="11.931649715590972"><ele>310.0</ele><time>2026-04-11T08:55:33Z</time></trkpt><trkpt lat="42.656580237318984" lon="11.932023153324254"><ele>311.0</ele><time>2026-04-11T08:55:34Z</time></trkpt><trkpt lat="42.65661201589809" lon="11.932392847307808"><ele>312.0</ele><time>2026-04-11T08:55:35Z</time></trkpt><trkpt lat="42.65662952381073" lon="11.932754615457922"><ele>312.0</ele><time>2026-04-11T08:55:36Z</time></trkpt><trkpt lat="42.656636198207686" lon="11.933115453411093"><ele>312.0</ele><time>2026-04-11T08:55:37Z</time></trkpt><trkpt lat="42.656612025857925" lon="11.933486039366754"><ele>311.5</ele><time>2026-04-11T08:55:38Z</time></trkpt><trkpt lat="42.65661234073544" lon="11.933866784941033"><ele>311.0</ele><time>2026-04-11T08:55:39Z</time></trkpt><trkpt lat="42.656587142577166" lon="11.934245011437934"><ele>311.0</ele><time>2026-04-11T08:55:40Z</time></trkpt><trkpt lat="42.65656431717257" lon="11.934626708967306"><ele>311.0</ele><time>2026-04-11T08:55:41Z</time></trkpt><trkpt lat="42.65653996467534" lon="11.93499258420077"><ele>311.5</ele><time>2026-04-11T08:55:42Z</time></trkpt><trkpt lat="42.6565137013289" lon="11.935334446857595"><ele>312.0</ele><time>2026-04-11T08:55:43Z</time></trkpt><trkpt lat="42.656485584743514" lon="11.935659120182553"><ele>311.6666666666667</ele><time>2026-04-11T08:55:44Z</time></trkpt><trkpt lat="42.656457283214806" lon="11.935953515915788"><ele>311.33333333333337</ele><time>2026-04-11T08:55:45Z</time></trkpt><trkpt lat="42.65641357433737" lon="11.936240456232877"><ele>311.0</ele><time>2026-04-11T08:55:46Z</time></trkpt><trkpt lat="42.65634334591434" lon="11.936536450068466"><ele>311.0</ele><time>2026-04-11T08:55:47Z</time></trkpt><trkpt lat="42.65624706109989" lon="11.936833847700857"><ele>311.0</ele><time>2026-04-11T08:55:48Z</time></trkpt><trkpt lat="42.656138225870166" lon="11.937121078741212"><ele>311.0</ele><time>2026-04-11T08:55:49Z</time></trkpt><trkpt lat="42.65601973015478" lon="11.937399840120294"><ele>311.0</ele><time>2026-04-11T08:55:50Z</time></trkpt><trkpt lat="42.655901224779846" lon="11.937681997519151"><ele>310.0</ele><time>2026-04-11T08:55:51Z</time></trkpt><trkpt lat="42.65578373261929" lon="11.937972741348567"><ele>309.0</ele><time>2026-04-11T08:55:52Z</time></trkpt><trkpt lat="42.65566057209075" lon="11.93827249281608"><ele>309.5</ele><time>2026-04-11T08:55:53Z</time></trkpt><trkpt lat="42.655543481615275" lon="11.938561501222566"><ele>310.0</ele><time>2026-04-11T08:55:54Z</time></trkpt><trkpt lat="42.65543347235761" lon="11.938844194720405"><ele>310.0</ele><time>2026-04-11T08:55:55Z</time></trkpt><trkpt lat="42.65531664093134" lon="11.939124266970609"><ele>310.0</ele><time>2026-04-11T08:55:56Z</time></trkpt><trkpt lat="42.655198863003484" lon="11.939408890461118"><ele>309.5</ele><time>2026-04-11T08:55:57Z</time></trkpt><trkpt lat="42.65508002531221" lon="11.939707244427993"><ele>309.0</ele><time>2026-04-11T08:55:58Z</time></trkpt><trkpt lat="42.65496120178975" lon="11.94001406591056"><ele>308.0</ele><time>2026-04-11T08:55:59Z</time></trkpt><trkpt lat="42.654839370572404" lon="11.940324665418633"><ele>307.0</ele><time>2026-04-11T08:56:00Z</time></trkpt><trkpt lat="42.65471363148101" lon="11.940643767785328"><ele>307.0</ele><time>2026-04-11T08:56:01Z</time></trkpt><trkpt lat="42.65459015964812" lon="11.94096823413482"><ele>307.0</ele><time>2026-04-11T08:56:02Z</time></trkpt><trkpt lat="42.65446444099334" lon="11.941296526054517"><ele>307.0</ele><time>2026-04-11T08:56:03Z</time></trkpt><trkpt lat="42.65433424153596" lon="11.9416264182482"><ele>307.0</ele><time>2026-04-11T08:56:04Z</time></trkpt><trkpt lat="42.65420760507156" lon="11.941958268872039"><ele>307.0</ele><time>2026-04-11T08:56:05Z</time></trkpt><trkpt lat="42.654077653760744" lon="11.942287154087511"><ele>307.0</ele><time>2026-04-11T08:56:06Z</time></trkpt><trkpt lat="42.653945661839714" lon="11.942613079985705"><ele>307.0</ele><time>2026-04-11T08:56:07Z</time></trkpt><trkpt lat="42.653819591122435" lon="11.942932796411933"><ele>307.0</ele><time>2026-04-11T08:56:08Z</time></trkpt><trkpt lat="42.65369449389035" lon="11.94325113720055"><ele>307.5</ele><time>2026-04-11T08:56:09Z</time></trkpt><trkpt lat="42.653567206112875" lon="11.943565843256696"><ele>308.0</ele><time>2026-04-11T08:56:10Z</time></trkpt><trkpt lat="42.65344221173767" lon="11.943876727260173"><ele>308.0</ele><time>2026-04-11T08:56:11Z</time></trkpt><trkpt lat="42.65331739237558" lon="11.944187016553315"><ele>308.0</ele><time>2026-04-11T08:56:12Z</time></trkpt><trkpt lat="42.65319026386211" lon="11.944494817332913"><ele>307.5</ele><time>2026-04-11T08:56:13Z</time></trkpt><trkpt lat="42.6530632096271" lon="11.944799123906854"><ele>307.0</ele><time>2026-04-11T08:56:14Z</time></trkpt><trkpt lat="42.65294369122598" lon="11.94509968400049"><ele>307.0</ele><time>2026-04-11T08:56:15Z</time></trkpt><trkpt lat="42.65282359048704" lon="11.945400213262898"><ele>307.0</ele><time>2026-04-11T08:56:16Z</time></trkpt><trkpt lat="42.652706447693774" lon="11.945688912972397"><ele>306.5</ele><time>2026-04-11T08:56:17Z</time></trkpt><trkpt lat="42.65261174707867" lon="11.945979489458573"><ele>306.0</ele><time>2026-04-11T08:56:18Z</time></trkpt><trkpt lat="42.65256218481038" lon="11.946308502220958"><ele>306.0</ele><time>2026-04-11T08:56:19Z</time></trkpt><trkpt lat="42.6525495235394" lon="11.946674560544555"><ele>306.0</ele><time>2026-04-11T08:56:20Z</time></trkpt><trkpt lat="42.652548344226304" lon="11.947059318648316"><ele>305.5</ele><time>2026-04-11T08:56:21Z</time></trkpt><trkpt lat="42.652530041917636" lon="11.94744809686177"><ele>305.0</ele><time>2026-04-11T08:56:22Z</time></trkpt><trkpt lat="42.65250009028512" lon="11.947844363598712"><ele>305.0</ele><time>2026-04-11T08:56:23Z</time></trkpt><trkpt lat="42.652467398182004" lon="11.948237645796222"><ele>305.0</ele><time>2026-04-11T08:56:24Z</time></trkpt><trkpt lat="42.65243967053704" lon="11.948627361967967"><ele>305.5</ele><time>2026-04-11T08:56:25Z</time></trkpt><trkpt lat="42.652414167818385" lon="11.949014598527578"><ele>306.0</ele><time>2026-04-11T08:56:26Z</time></trkpt><trkpt lat="42.652391275295614" lon="11.949403409997668"><ele>306.0</ele><time>2026-04-11T08:56:27Z</time></trkpt><trkpt lat="42.65236159273007" lon="11.949787032998985"><ele>306.0</ele><time>2026-04-11T08:56:28Z</time></trkpt><trkpt lat="42.65232604294784" lon="11.950166298089139"><ele>306.0</ele><time>2026-04-11T08:56:29Z</time></trkpt><trkpt lat="42.65228964365212" lon="11.950545886958883"><ele>306.0</ele><time>2026-04-11T08:56:30Z</time></trkpt><trkpt lat="42.65225453312631" lon="11.950924927788929"><ele>306.0</ele><time>2026-04-11T08:56:31Z</time></trkpt><trkpt lat="42.652221540177905" lon="11.9513016325616"><ele>306.0</ele><time>2026-04-11T08:56:32Z</time></trkpt><trkpt lat="42.65219186547162" lon="11.951679710475984"><ele>306.5</ele><time>2026-04-11T08:56:33Z</time></trkpt><trkpt lat="42.65215442754573" lon="11.952055351580658"><ele>307.0</ele><time>2026-04-11T08:56:34Z</time></trkpt><trkpt lat="42.652118589866255" lon="11.952428502420632"><ele>307.0</ele><time>2026-04-11T08:56:35Z</time></trkpt><trkpt lat="42.65207908583886" lon="11.952804703407551"><ele>307.0</ele><time>2026-04-11T08:56:36Z</time></trkpt><trkpt lat="42.65203872857846" lon="11.953186590761158"><ele>307.0</ele><time>2026-04-11T08:56:37Z</time></trkpt><trkpt lat="42.65199116994471" lon="11.953571933091114"><ele>307.0</ele><time>2026-04-11T08:56:38Z</time></trkpt><trkpt lat="42.65193647069434" lon="11.95395400001084"><ele>307.0</ele><time>2026-04-11T08:56:39Z</time></trkpt><trkpt lat="42.65188495694419" lon="11.954337963063619"><ele>307.0</ele><time>2026-04-11T08:56:39.999Z</time></trkpt><trkpt lat="42.651836808822026" lon="11.954725475901217"><ele>308.0</ele><time>2026-04-11T08:56:40.999Z</time></trkpt><trkpt lat="42.65178673684317" lon="11.955105368126755"><ele>309.0</ele><time>2026-04-11T08:56:41.999Z</time></trkpt><trkpt lat="42.65173861654663" lon="11.955479789739046"><ele>309.0</ele><time>2026-04-11T08:56:42.999Z</time></trkpt><trkpt lat="42.65168671316432" lon="11.955856484555538"><ele>309.0</ele><time>2026-04-11T08:56:43.999Z</time></trkpt><trkpt lat="42.651637259402115" lon="11.956230307205933"><ele>308.5</ele><time>2026-04-11T08:56:44.999Z</time></trkpt><trkpt lat="42.65158703397166" lon="11.956599345957232"><ele>308.0</ele><time>2026-04-11T08:56:45.999Z</time></trkpt><trkpt lat="42.65153888140821" lon="11.956964616173444"><ele>307.5</ele><time>2026-04-11T08:56:46.999Z</time></trkpt><trkpt lat="42.65148696805334" lon="11.95733507715875"><ele>307.0</ele><time>2026-04-11T08:56:47.999Z</time></trkpt><trkpt lat="42.65143304275004" lon="11.957706209611638"><ele>306.5</ele><time>2026-04-11T08:56:48.999Z</time></trkpt><trkpt lat="42.65138491820417" lon="11.958065098150302"><ele>306.0</ele><time>2026-04-11T08:56:49.999Z</time></trkpt><trkpt lat="42.65133953870212" lon="11.958402122372688"><ele>306.0</ele><time>2026-04-11T08:56:50.999Z</time></trkpt><trkpt lat="42.65129826112014" lon="11.958722285407923"><ele>306.0</ele><time>2026-04-11T08:56:51.999Z</time></trkpt><trkpt lat="42.65125295848417" lon="11.959041936710696"><ele>306.5</ele><time>2026-04-11T08:56:52.999Z</time></trkpt><trkpt lat="42.651209517380956" lon="11.959369316096279"><ele>307.0</ele><time>2026-04-11T08:56:53.999Z</time></trkpt><trkpt lat="42.65116351080228" lon="11.959700399187472"><ele>306.5</ele><time>2026-04-11T08:56:54.999Z</time></trkpt><trkpt lat="42.65111877883673" lon="11.960047355117533"><ele>306.0</ele><time>2026-04-11T08:56:55.999Z</time></trkpt><trkpt lat="42.65107273825166" lon="11.960402301922377"><ele>306.0</ele><time>2026-04-11T08:56:56.999Z</time></trkpt><trkpt lat="42.65103232881655" lon="11.960765085889417"><ele>306.0</ele><time>2026-04-11T08:56:57.999Z</time></trkpt><trkpt lat="42.650988912844845" lon="11.961116042553302"><ele>306.5</ele><time>2026-04-11T08:56:58.999Z</time></trkpt><trkpt lat="42.65094938938203" lon="11.961454361831661"><ele>307.0</ele><time>2026-04-11T08:56:59.999Z</time></trkpt><trkpt lat="42.650912198530555" lon="11.96176542640659"><ele>307.0</ele><time>2026-04-11T08:57:01Z</time></trkpt><trkpt lat="42.65087361626922" lon="11.962071422794702"><ele>307.0</ele><time>2026-04-11T08:57:02Z</time></trkpt><trkpt lat="42.650832803934684" lon="11.962370791639653"><ele>306.5</ele><time>2026-04-11T08:57:03Z</time></trkpt><trkpt lat="42.65079450538478" lon="11.96267450071463"><ele>306.0</ele><time>2026-04-11T08:57:04Z</time></trkpt><trkpt lat="42.65075727945332" lon="11.962982057361089"><ele>306.0</ele><time>2026-04-11T08:57:05Z</time></trkpt><trkpt lat="42.65072173716288" lon="11.963286624781334"><ele>306.0</ele><time>2026-04-11T08:57:06Z</time></trkpt><trkpt lat="42.65068455294139" lon="11.963588809658303"><ele>306.5</ele><time>2026-04-11T08:57:07Z</time></trkpt><trkpt lat="42.65064665885836" lon="11.963897481206384"><ele>307.0</ele><time>2026-04-11T08:57:08Z</time></trkpt><trkpt lat="42.65061061381607" lon="11.964201233569705"><ele>307.5</ele><time>2026-04-11T08:57:09Z</time></trkpt><trkpt lat="42.65057144600939" lon="11.964511290755256"><ele>308.0</ele><time>2026-04-11T08:57:10Z</time></trkpt><trkpt lat="42.65052952897892" lon="11.964821560751787"><ele>307.5</ele><time>2026-04-11T08:57:11Z</time></trkpt><trkpt lat="42.650481816590066" lon="11.96514178795685"><ele>307.0</ele><time>2026-04-11T08:57:12Z</time></trkpt><trkpt lat="42.65043905182725" lon="11.965460973132867"><ele>307.0</ele><time>2026-04-11T08:57:13Z</time></trkpt><trkpt lat="42.65040261535777" lon="11.965782771664061"><ele>307.0</ele><time>2026-04-11T08:57:14Z</time></trkpt><trkpt lat="42.65035264684224" lon="11.966100714366718"><ele>307.0</ele><time>2026-04-11T08:57:15Z</time></trkpt><trkpt lat="42.65029838314993" lon="11.966424713386017"><ele>307.0</ele><time>2026-04-11T08:57:16Z</time></trkpt><trkpt lat="42.65024399550328" lon="11.966749970740437"><ele>307.0</ele><time>2026-04-11T08:57:17Z</time></trkpt><trkpt lat="42.6501911170127" lon="11.967077025393712"><ele>307.0</ele><time>2026-04-11T08:57:18Z</time></trkpt><trkpt lat="42.65013101344489" lon="11.967399023849985"><ele>307.0</ele><time>2026-04-11T08:57:19Z</time></trkpt><trkpt lat="42.65007058812519" lon="11.967731694182204"><ele>307.0</ele><time>2026-04-11T08:57:20Z</time></trkpt><trkpt lat="42.65000567090485" lon="11.96806769311867"><ele>307.0</ele><time>2026-04-11T08:57:21Z</time></trkpt><trkpt lat="42.649935349858815" lon="11.968396798445013"><ele>307.0</ele><time>2026-04-11T08:57:22Z</time></trkpt><trkpt lat="42.64986178637542" lon="11.968735945006799"><ele>307.0</ele><time>2026-04-11T08:57:23Z</time></trkpt><trkpt lat="42.6497825971764" lon="11.969069298494697"><ele>307.0</ele><time>2026-04-11T08:57:24Z</time></trkpt><trkpt lat="42.64969006386285" lon="11.969400869314441"><ele>307.0</ele><time>2026-04-11T08:57:25Z</time></trkpt><trkpt lat="42.649621382675846" lon="11.96975052367899"><ele>307.0</ele><time>2026-04-11T08:57:26Z</time></trkpt><trkpt lat="42.64953038362387" lon="11.970089773069445"><ele>307.0</ele><time>2026-04-11T08:57:27Z</time></trkpt><trkpt lat="42.64944578315696" lon="11.970425692070862"><ele>307.0</ele><time>2026-04-11T08:57:28Z</time></trkpt><trkpt lat="42.6493579254341" lon="11.970763724597761"><ele>306.5</ele><time>2026-04-11T08:57:29Z</time></trkpt><trkpt lat="42.64927073293265" lon="11.971099866823346"><ele>306.0</ele><time>2026-04-11T08:57:30Z</time></trkpt><trkpt lat="42.64919148164469" lon="11.971398460951054"><ele>306.0</ele><time>2026-04-11T08:57:31Z</time></trkpt><trkpt lat="42.64912038285914" lon="11.971685494277068"><ele>306.0</ele><time>2026-04-11T08:57:32Z</time></trkpt><trkpt lat="42.649056598083575" lon="11.971964165619186"><ele>306.0</ele><time>2026-04-11T08:57:33Z</time></trkpt><trkpt lat="42.648995925720904" lon="11.97222683740087"><ele>306.0</ele><time>2026-04-11T08:57:34Z</time></trkpt><trkpt lat="42.64893868837392" lon="11.972482897457002"><ele>306.0</ele><time>2026-04-11T08:57:35Z</time></trkpt><trkpt lat="42.648884274866546" lon="11.972727285387354"><ele>306.0</ele><time>2026-04-11T08:57:36Z</time></trkpt><trkpt lat="42.64883324114391" lon="11.972954710828686"><ele>306.3333333333333</ele><time>2026-04-11T08:57:37Z</time></trkpt><trkpt lat="42.64878632369936" lon="11.973168594398373"><ele>306.66666666666663</ele><time>2026-04-11T08:57:38Z</time></trkpt><trkpt lat="42.64873596682779" lon="11.97338557094392"><ele>307.0</ele><time>2026-04-11T08:57:39Z</time></trkpt><trkpt lat="42.648641056660175" lon="11.97358190582217"><ele>307.3333333333333</ele><time>2026-04-11T08:57:40Z</time></trkpt><trkpt lat="42.64859955215416" lon="11.973839824085083"><ele>307.6666666666667</ele><time>2026-04-11T08:57:41Z</time></trkpt><trkpt lat="42.64858974084274" lon="11.974125205938366"><ele>308.0</ele><time>2026-04-11T08:57:42Z</time></trkpt><trkpt lat="42.64853714483119" lon="11.974394587264072"><ele>308.0</ele><time>2026-04-11T08:57:43Z</time></trkpt><trkpt lat="42.6484683150683" lon="11.974672519225123"><ele>308.0</ele><time>2026-04-11T08:57:44Z</time></trkpt><trkpt lat="42.64839591905855" lon="11.97495957317874"><ele>308.0</ele><time>2026-04-11T08:57:45Z</time></trkpt><trkpt lat="42.64832330033365" lon="11.97525548439839"><ele>308.5</ele><time>2026-04-11T08:57:46Z</time></trkpt><trkpt lat="42.648248171575865" lon="11.975555531243572"><ele>309.0</ele><time>2026-04-11T08:57:47Z</time></trkpt><trkpt lat="42.64817143763038" lon="11.975858683467841"><ele>310.0</ele><time>2026-04-11T08:57:48Z</time></trkpt><trkpt lat="42.64809712349563" lon="11.976159699279979"><ele>311.0</ele><time>2026-04-11T08:57:49Z</time></trkpt><trkpt lat="42.64802529407789" lon="11.976454482120939"><ele>311.6666666666667</ele><time>2026-04-11T08:57:50Z</time></trkpt><trkpt lat="42.64795134245959" lon="11.9767369046425"><ele>312.3333333333333</ele><time>2026-04-11T08:57:51Z</time></trkpt><trkpt lat="42.64788040906338" lon="11.977018756163178"><ele>313.0</ele><time>2026-04-11T08:57:52Z</time></trkpt><trkpt lat="42.647809246754406" lon="11.977293325549784"><ele>313.0</ele><time>2026-04-11T08:57:53Z</time></trkpt><trkpt lat="42.64774046532331" lon="11.977562977495188"><ele>313.0</ele><time>2026-04-11T08:57:54Z</time></trkpt><trkpt lat="42.647674755547854" lon="11.977824516310912"><ele>313.0</ele><time>2026-04-11T08:57:55Z</time></trkpt><trkpt lat="42.64761100789707" lon="11.9780843463308"><ele>313.0</ele><time>2026-04-11T08:57:56Z</time></trkpt><trkpt lat="42.647547627726226" lon="11.978340165581692"><ele>313.0</ele><time>2026-04-11T08:57:57Z</time></trkpt><trkpt lat="42.64748304820332" lon="11.978598727449356"><ele>313.0</ele><time>2026-04-11T08:57:58Z</time></trkpt><trkpt lat="42.647415172806674" lon="11.978847884935984"><ele>313.3333333333333</ele><time>2026-04-11T08:57:59Z</time></trkpt><trkpt lat="42.6473487739953" lon="11.979101966399138"><ele>313.6666666666667</ele><time>2026-04-11T08:58:00Z</time></trkpt><trkpt lat="42.64728371900177" lon="11.979353765346959"><ele>314.0</ele><time>2026-04-11T08:58:01Z</time></trkpt><trkpt lat="42.64722026877763" lon="11.979598371959362"><ele>315.6666666666667</ele><time>2026-04-11T08:58:02Z</time></trkpt><trkpt lat="42.647155727052976" lon="11.979840440058764"><ele>317.3333333333333</ele><time>2026-04-11T08:58:03Z</time></trkpt><trkpt lat="42.64709189414702" lon="11.980084162372751"><ele>319.0</ele><time>2026-04-11T08:58:04Z</time></trkpt><trkpt lat="42.6470314440224" lon="11.980333161473594"><ele>319.66666666666663</ele><time>2026-04-11T08:58:05Z</time></trkpt><trkpt lat="42.646966225738545" lon="11.980576444674233"><ele>320.3333333333333</ele><time>2026-04-11T08:58:06Z</time></trkpt><trkpt lat="42.64690621037989" lon="11.980804105547746"><ele>321.0</ele><time>2026-04-11T08:58:07Z</time></trkpt><trkpt lat="42.646847319027074" lon="11.981026118147168"><ele>319.6666666666667</ele><time>2026-04-11T08:58:08Z</time></trkpt><trkpt lat="42.646790569900865" lon="11.98124020034803"><ele>318.33333333333337</ele><time>2026-04-11T08:58:09Z</time></trkpt><trkpt lat="42.64674275786345" lon="11.981436908037272"><ele>317.0</ele><time>2026-04-11T08:58:10Z</time></trkpt><trkpt lat="42.646694351574325" lon="11.981623000051613"><ele>317.75</ele><time>2026-04-11T08:58:11Z</time></trkpt><trkpt lat="42.6466428938632" lon="11.981809393401258"><ele>318.5</ele><time>2026-04-11T08:58:12Z</time></trkpt><trkpt lat="42.64659082371516" lon="11.981989306355773"><ele>319.25</ele><time>2026-04-11T08:58:13Z</time></trkpt><trkpt lat="42.64653516406204" lon="11.982164160408654"><ele>320.0</ele><time>2026-04-11T08:58:14Z</time></trkpt><trkpt lat="42.64648094629792" lon="11.982339312778068"><ele>320.25</ele><time>2026-04-11T08:58:15Z</time></trkpt><trkpt lat="42.64642450284784" lon="11.982519262171348"><ele>320.5</ele><time>2026-04-11T08:58:16Z</time></trkpt><trkpt lat="42.64634725093731" lon="11.982692537367695"><ele>320.75</ele><time>2026-04-11T08:58:17Z</time></trkpt><trkpt lat="42.64625405744661" lon="11.982861615189966"><ele>321.0</ele><time>2026-04-11T08:58:18Z</time></trkpt><trkpt lat="42.646145616439135" lon="11.983027030178135"><ele>320.6666666666667</ele><time>2026-04-11T08:58:19Z</time></trkpt><trkpt lat="42.64602893412837" lon="11.983189364258914"><ele>320.33333333333337</ele><time>2026-04-11T08:58:20Z</time></trkpt><trkpt lat="42.645919403486495" lon="11.98333248849187"><ele>320.0</ele><time>2026-04-11T08:58:21Z</time></trkpt><trkpt lat="42.64582364784871" lon="11.983466722756212"><ele>320.0</ele><time>2026-04-11T08:58:22Z</time></trkpt><trkpt lat="42.64575144013517" lon="11.983571068532639"><ele>320.0</ele><time>2026-04-11T08:58:23Z</time></trkpt><trkpt lat="42.64569210583318" lon="11.983659848090163"><ele>320.0</ele><time>2026-04-11T08:58:24Z</time></trkpt><trkpt lat="42.64563790427354" lon="11.983739998382683"><ele>320.0</ele><time>2026-04-11T08:58:25Z</time></trkpt><trkpt lat="42.64558401429134" lon="11.983816499508354"><ele>320.0</ele><time>2026-04-11T08:58:26Z</time></trkpt><trkpt lat="42.64553424282341" lon="11.983893493362801"><ele>320.0</ele><time>2026-04-11T08:58:27Z</time></trkpt><trkpt lat="42.645491130321176" lon="11.983968600352837"><ele>320.0</ele><time>2026-04-11T08:58:28Z</time></trkpt><trkpt lat="42.64544214001453" lon="11.98404215978146"><ele>320.0</ele><time>2026-04-11T08:58:29Z</time></trkpt><trkpt lat="42.64535298326604" lon="11.984147447174148"><ele>320.0</ele><time>2026-04-11T08:58:31Z</time></trkpt><trkpt lat="42.645262748107484" lon="11.984275154311888"><ele>320.0</ele><time>2026-04-11T08:58:33Z</time></trkpt><trkpt lat="42.64522258183507" lon="11.984347329649857"><ele>320.0</ele><time>2026-04-11T08:58:34Z</time></trkpt><trkpt lat="42.645178796732964" lon="11.984419527556428"><ele>319.5</ele><time>2026-04-11T08:58:35Z</time></trkpt><trkpt lat="42.645142268976905" lon="11.984494194242082"><ele>319.0</ele><time>2026-04-11T08:58:36Z</time></trkpt><trkpt lat="42.64511106578655" lon="11.984569841201635"><ele>318.5</ele><time>2026-04-11T08:58:37Z</time></trkpt><trkpt lat="42.645073901456925" lon="11.984659232309758"><ele>318.0</ele><time>2026-04-11T08:58:38Z</time></trkpt><trkpt lat="42.64503676382448" lon="11.984741089882908"><ele>317.5</ele><time>2026-04-11T08:58:39Z</time></trkpt><trkpt lat="42.64500028453273" lon="11.98482467436025"><ele>317.0</ele><time>2026-04-11T08:58:40Z</time></trkpt><trkpt lat="42.64494450327696" lon="11.984943200921135"><ele>318.8</ele><time>2026-04-11T08:58:41Z</time></trkpt><trkpt lat="42.6448575913873" lon="11.985032662916955"><ele>320.6</ele><time>2026-04-11T08:58:42Z</time></trkpt><trkpt lat="42.64478218486803" lon="11.985115579246463"><ele>322.40000000000003</ele><time>2026-04-11T08:58:43Z</time></trkpt><trkpt lat="42.64471032469944" lon="11.985220594788624"><ele>324.2</ele><time>2026-04-11T08:58:44Z</time></trkpt><trkpt lat="42.64462597524816" lon="11.985312379684927"><ele>326.0</ele><time>2026-04-11T08:58:45Z</time></trkpt><trkpt lat="42.64455052918587" lon="11.985394544843222"><ele>326.0</ele><time>2026-04-11T08:58:45.999Z</time></trkpt><trkpt lat="42.64449281287807" lon="11.985461771041008"><ele>326.0</ele><time>2026-04-11T08:58:46.999Z</time></trkpt><trkpt lat="42.644448552216424" lon="11.985526294192937"><ele>326.0</ele><time>2026-04-11T08:58:47.999Z</time></trkpt><trkpt lat="42.64439072069492" lon="11.985659767894518"><ele>326.0</ele><time>2026-04-11T08:58:49.999Z</time></trkpt><trkpt lat="42.64437110157915" lon="11.985741721044961"><ele>326.0</ele><time>2026-04-11T08:58:50.999Z</time></trkpt><trkpt lat="42.64433784722976" lon="11.985845644730064"><ele>326.0</ele><time>2026-04-11T08:58:51.999Z</time></trkpt><trkpt lat="42.644301365250946" lon="11.985941654890965"><ele>325.0</ele><time>2026-04-11T08:58:52.999Z</time></trkpt><trkpt lat="42.64427242698622" lon="11.986024546034676"><ele>324.0</ele><time>2026-04-11T08:58:54Z</time></trkpt><trkpt lat="42.64424381113145" lon="11.98615306318166"><ele>323.0</ele><time>2026-04-11T08:58:56Z</time></trkpt><trkpt lat="42.64422040053483" lon="11.986239841845213"><ele>322.0</ele><time>2026-04-11T08:58:59Z</time></trkpt><trkpt lat="42.644186636556775" lon="11.986381043541217"><ele>321.0</ele><time>2026-04-11T08:59:32Z</time></trkpt><trkpt lat="42.64412013818581" lon="11.986489589581963"><ele>320.0</ele><time>2026-04-11T08:59:33Z</time></trkpt><trkpt lat="42.64402949670169" lon="11.986594868869593"><ele>319.5</ele><time>2026-04-11T08:59:34Z</time></trkpt><trkpt lat="42.643912159090405" lon="11.986690359471181"><ele>319.0</ele><time>2026-04-11T08:59:35Z</time></trkpt><trkpt lat="42.64380687141808" lon="11.986812957072333"><ele>318.5</ele><time>2026-04-11T08:59:36Z</time></trkpt><trkpt lat="42.643698491986214" lon="11.986929996821184"><ele>318.0</ele><time>2026-04-11T08:59:37Z</time></trkpt><trkpt lat="42.6435918770681" lon="11.9870447348055"><ele>318.0</ele><time>2026-04-11T08:59:38Z</time></trkpt><trkpt lat="42.64348343646487" lon="11.987159264273426"><ele>318.0</ele><time>2026-04-11T08:59:39Z</time></trkpt><trkpt lat="42.64337473017144" lon="11.987274159717645"><ele>318.0</ele><time>2026-04-11T08:59:40Z</time></trkpt><trkpt lat="42.643263006576234" lon="11.987392244257478"><ele>318.0</ele><time>2026-04-11T08:59:41Z</time></trkpt><trkpt lat="42.64314879722398" lon="11.987512956133859"><ele>318.75</ele><time>2026-04-11T08:59:42Z</time></trkpt><trkpt lat="42.643033387392684" lon="11.987633874800975"><ele>319.5</ele><time>2026-04-11T08:59:43Z</time></trkpt><trkpt lat="42.64291555330427" lon="11.987757407754966"><ele>320.25</ele><time>2026-04-11T08:59:44Z</time></trkpt><trkpt lat="42.642800573290536" lon="11.987877948604092"><ele>321.0</ele><time>2026-04-11T08:59:45Z</time></trkpt><trkpt lat="42.642687037102846" lon="11.987995884693643"><ele>320.5</ele><time>2026-04-11T08:59:46Z</time></trkpt><trkpt lat="42.64257132496351" lon="11.988115120792822"><ele>320.0</ele><time>2026-04-11T08:59:47Z</time></trkpt><trkpt lat="42.64246774962287" lon="11.988239416764342"><ele>319.5</ele><time>2026-04-11T08:59:48Z</time></trkpt><trkpt lat="42.64235677918392" lon="11.988359931174527"><ele>319.0</ele><time>2026-04-11T08:59:49Z</time></trkpt><trkpt lat="42.64223579165291" lon="11.988479177726859"><ele>319.0</ele><time>2026-04-11T08:59:50Z</time></trkpt><trkpt lat="42.64212853629332" lon="11.988626619366894"><ele>319.0</ele><time>2026-04-11T08:59:51Z</time></trkpt><trkpt lat="42.64202745114048" lon="11.988789555175277"><ele>319.0</ele><time>2026-04-11T08:59:52Z</time></trkpt><trkpt lat="42.64193360117998" lon="11.988963460267536"><ele>319.25</ele><time>2026-04-11T08:59:53Z</time></trkpt><trkpt lat="42.64183883226437" lon="11.989130912670388"><ele>319.5</ele><time>2026-04-11T08:59:54Z</time></trkpt><trkpt lat="42.641749740648926" lon="11.989286663952607"><ele>319.75</ele><time>2026-04-11T08:59:55Z</time></trkpt><trkpt lat="42.64166396903829" lon="11.989431587277675"><ele>320.0</ele><time>2026-04-11T08:59:56Z</time></trkpt><trkpt lat="42.641578769666125" lon="11.98957771068767"><ele>320.0</ele><time>2026-04-11T08:59:57Z</time></trkpt><trkpt lat="42.6414887284169" lon="11.989745059584976"><ele>320.0</ele><time>2026-04-11T08:59:58Z</time></trkpt><trkpt lat="42.64137579357484" lon="11.989937704271275"><ele>320.0</ele><time>2026-04-11T08:59:59Z</time></trkpt><trkpt lat="42.641229492753155" lon="11.990126322005398"><ele>320.0</ele><time>2026-04-11T09:00:00Z</time></trkpt><trkpt lat="42.64108695962004" lon="11.990310065799271"><ele>320.0</ele><time>2026-04-11T09:00:01Z</time></trkpt><trkpt lat="42.640946492013875" lon="11.990465197626241"><ele>320.0</ele><time>2026-04-11T09:00:02Z</time></trkpt><trkpt lat="42.640804311548166" lon="11.990575836898191"><ele>320.0</ele><time>2026-04-11T09:00:03Z</time></trkpt><trkpt lat="42.64068883272978" lon="11.990664937604826"><ele>320.0</ele><time>2026-04-11T09:00:04Z</time></trkpt><trkpt lat="42.64060484138227" lon="11.990732286892719"><ele>320.0</ele><time>2026-04-11T09:00:05Z</time></trkpt><trkpt lat="42.640516499548674" lon="11.990815586739988"><ele>320.0</ele><time>2026-04-11T09:00:07Z</time></trkpt><trkpt lat="42.6404629404724" lon="11.990862011926612"><ele>320.0</ele><time>2026-04-11T09:00:08Z</time></trkpt><trkpt lat="42.64037722893692" lon="11.990926931691092"><ele>320.0</ele><time>2026-04-11T09:00:09Z</time></trkpt><trkpt lat="42.64027885997022" lon="11.99100022097282"><ele>320.0</ele><time>2026-04-11T09:00:10Z</time></trkpt><trkpt lat="42.64015347379891" lon="11.991096799551855"><ele>320.0</ele><time>2026-04-11T09:00:11Z</time></trkpt><trkpt lat="42.640024223062035" lon="11.991200547750244"><ele>320.0</ele><time>2026-04-11T09:00:12Z</time></trkpt><trkpt lat="42.63988014506449" lon="11.991323978372382"><ele>320.0</ele><time>2026-04-11T09:00:13Z</time></trkpt><trkpt lat="42.639719774961726" lon="11.991462272604828"><ele>320.0</ele><time>2026-04-11T09:00:14Z</time></trkpt><trkpt lat="42.63955813683713" lon="11.99163232290299"><ele>320.0</ele><time>2026-04-11T09:00:15Z</time></trkpt><trkpt lat="42.639391469172985" lon="11.991822482709102"><ele>321.5</ele><time>2026-04-11T09:00:16Z</time></trkpt><trkpt lat="42.63922712413164" lon="11.992028564249768"><ele>323.0</ele><time>2026-04-11T09:00:17Z</time></trkpt><trkpt lat="42.63905478838582" lon="11.992235543889574"><ele>323.0</ele><time>2026-04-11T09:00:18Z</time></trkpt><trkpt lat="42.63889154022855" lon="11.992440132236721"><ele>323.0</ele><time>2026-04-11T09:00:19Z</time></trkpt><trkpt lat="42.63873645755136" lon="11.992636217827695"><ele>323.0</ele><time>2026-04-11T09:00:20Z</time></trkpt><trkpt lat="42.638578235005795" lon="11.992830050194634"><ele>321.6666666666667</ele><time>2026-04-11T09:00:21Z</time></trkpt><trkpt lat="42.638425224563505" lon="11.99299290820356"><ele>320.3333333333333</ele><time>2026-04-11T09:00:22Z</time></trkpt><trkpt lat="42.63826393038439" lon="11.993113111589748"><ele>319.0</ele><time>2026-04-11T09:00:23Z</time></trkpt><trkpt lat="42.6380895838662" lon="11.993234650215205"><ele>318.3333333333333</ele><time>2026-04-11T09:00:24Z</time></trkpt><trkpt lat="42.63791218996365" lon="11.993376981780298"><ele>317.6666666666667</ele><time>2026-04-11T09:00:25Z</time></trkpt><trkpt lat="42.63773099638342" lon="11.993532333714088"><ele>317.0</ele><time>2026-04-11T09:00:26Z</time></trkpt><trkpt lat="42.63754430114716" lon="11.993698005936016"><ele>317.0</ele><time>2026-04-11T09:00:27Z</time></trkpt><trkpt lat="42.637355742966896" lon="11.993870538213434"><ele>317.0</ele><time>2026-04-11T09:00:28Z</time></trkpt><trkpt lat="42.6371641162003" lon="11.994040985998385"><ele>317.6666666666667</ele><time>2026-04-11T09:00:29Z</time></trkpt><trkpt lat="42.636972742800836" lon="11.994208997496921"><ele>318.3333333333333</ele><time>2026-04-11T09:00:30Z</time></trkpt><trkpt lat="42.63678771134998" lon="11.99436080704068"><ele>319.0</ele><time>2026-04-11T09:00:31Z</time></trkpt><trkpt lat="42.63659501049173" lon="11.994498850393443"><ele>319.0</ele><time>2026-04-11T09:00:32Z</time></trkpt><trkpt lat="42.63639104711353" lon="11.994612538746345"><ele>319.0</ele><time>2026-04-11T09:00:33Z</time></trkpt><trkpt lat="42.63617134633447" lon="11.994709514840341"><ele>316.5</ele><time>2026-04-11T09:00:34Z</time></trkpt><trkpt lat="42.63594724600217" lon="11.994790554407027"><ele>314.0</ele><time>2026-04-11T09:00:35Z</time></trkpt><trkpt lat="42.6357209513437" lon="11.994865266758485"><ele>314.0</ele><time>2026-04-11T09:00:36Z</time></trkpt><trkpt lat="42.6354822725233" lon="11.994935798448997"><ele>314.0</ele><time>2026-04-11T09:00:37Z</time></trkpt><trkpt lat="42.635259031807045" lon="11.995003951292139"><ele>316.33333333333337</ele><time>2026-04-11T09:00:38Z</time></trkpt><trkpt lat="42.6350684183284" lon="11.995062791981717"><ele>318.6666666666667</ele><time>2026-04-11T09:00:39Z</time></trkpt><trkpt lat="42.63490276321458" lon="11.995119586317994"><ele>321.0</ele><time>2026-04-11T09:00:40Z</time></trkpt><trkpt lat="42.63476276138386" lon="11.995175486756596"><ele>321.0</ele><time>2026-04-11T09:00:41Z</time></trkpt><trkpt lat="42.634641969276615" lon="11.99522983415117"><ele>321.0</ele><time>2026-04-11T09:00:42Z</time></trkpt><trkpt lat="42.63452812429546" lon="11.995269504926155"><ele>321.0</ele><time>2026-04-11T09:00:43Z</time></trkpt><trkpt lat="42.63441947541193" lon="11.995344068327851"><ele>321.0</ele><time>2026-04-11T09:00:44Z</time></trkpt><trkpt lat="42.63429767840425" lon="11.995435442884522"><ele>320.0</ele><time>2026-04-11T09:00:45Z</time></trkpt><trkpt lat="42.634146208160104" lon="11.9955610059133"><ele>319.0</ele><time>2026-04-11T09:00:46Z</time></trkpt><trkpt lat="42.63397034439282" lon="11.995708774775096"><ele>318.0</ele><time>2026-04-11T09:00:47Z</time></trkpt><trkpt lat="42.633780305385606" lon="11.995875333785033"><ele>324.0</ele><time>2026-04-11T09:00:48Z</time></trkpt><trkpt lat="42.63358683260217" lon="11.996079194499517"><ele>330.0</ele><time>2026-04-11T09:00:49Z</time></trkpt><trkpt lat="42.63336654938143" lon="11.996272725475196"><ele>330.0</ele><time>2026-04-11T09:00:50Z</time></trkpt><trkpt lat="42.63313645193395" lon="11.996471046923263"><ele>330.0</ele><time>2026-04-11T09:00:51Z</time></trkpt><trkpt lat="42.63289165406535" lon="11.996665185939746"><ele>335.0</ele><time>2026-04-11T09:00:52Z</time></trkpt><trkpt lat="42.63263339115066" lon="11.996840678658842"><ele>340.0</ele><time>2026-04-11T09:00:53Z</time></trkpt><trkpt lat="42.632367975736955" lon="11.997011814412055"><ele>340.0</ele><time>2026-04-11T09:00:54Z</time></trkpt><trkpt lat="42.63209298048629" lon="11.997176648031195"><ele>340.0</ele><time>2026-04-11T09:00:55Z</time></trkpt><trkpt lat="42.63181542769702" lon="11.997332046955943"><ele>346.0</ele><time>2026-04-11T09:00:56Z</time></trkpt><trkpt lat="42.63156085919369" lon="11.997482030588092"><ele>352.0</ele><time>2026-04-11T09:00:57Z</time></trkpt><trkpt lat="42.631322482769825" lon="11.997637622713679"><ele>345.5</ele><time>2026-04-11T09:00:58Z</time></trkpt><trkpt lat="42.631098900964915" lon="11.997787468403066"><ele>339.0</ele><time>2026-04-11T09:00:59Z</time></trkpt><trkpt lat="42.630878698838245" lon="11.997924034939413"><ele>339.0</ele><time>2026-04-11T09:01:00Z</time></trkpt><trkpt lat="42.630657381360905" lon="11.997999401982359"><ele>339.0</ele><time>2026-04-11T09:01:01Z</time></trkpt><trkpt lat="42.63043736702318" lon="11.998084265788686"><ele>332.5</ele><time>2026-04-11T09:01:02Z</time></trkpt><trkpt lat="42.630185738494255" lon="11.9981861675051"><ele>326.0</ele><time>2026-04-11T09:01:03Z</time></trkpt><trkpt lat="42.62991126638516" lon="11.998231742684075"><ele>326.0</ele><time>2026-04-11T09:01:04Z</time></trkpt><trkpt lat="42.62962027137474" lon="11.998248574654635"><ele>326.0</ele><time>2026-04-11T09:01:05Z</time></trkpt><trkpt lat="42.62933555374332" lon="11.998267469310711"><ele>322.0</ele><time>2026-04-11T09:01:06Z</time></trkpt><trkpt lat="42.629056018303615" lon="11.998316254848111"><ele>318.0</ele><time>2026-04-11T09:01:07Z</time></trkpt><trkpt lat="42.628786643268654" lon="11.998389874184596"><ele>325.5</ele><time>2026-04-11T09:01:08Z</time></trkpt><trkpt lat="42.62852799620349" lon="11.998459799304936"><ele>333.0</ele><time>2026-04-11T09:01:09Z</time></trkpt><trkpt lat="42.628270831295424" lon="11.99855815576461"><ele>333.0</ele><time>2026-04-11T09:01:10Z</time></trkpt><trkpt lat="42.62801254179689" lon="11.998683325056952"><ele>333.0</ele><time>2026-04-11T09:01:11Z</time></trkpt><trkpt lat="42.62774754109072" lon="11.99880756293563"><ele>330.0</ele><time>2026-04-11T09:01:12Z</time></trkpt><trkpt lat="42.627476551240804" lon="11.998926240099392"><ele>327.0</ele><time>2026-04-11T09:01:13Z</time></trkpt><trkpt lat="42.62721164667886" lon="11.999028581776779"><ele>325.0</ele><time>2026-04-11T09:01:14Z</time></trkpt><trkpt lat="42.62695542832455" lon="11.999125588551397"><ele>323.0</ele><time>2026-04-11T09:01:15Z</time></trkpt><trkpt lat="42.62670315068792" lon="11.99920766925973"><ele>338.0</ele><time>2026-04-11T09:01:16Z</time></trkpt><trkpt lat="42.62645948096093" lon="11.99927598314139"><ele>353.0</ele><time>2026-04-11T09:01:17Z</time></trkpt><trkpt lat="42.62619958097183" lon="11.999310576724689"><ele>348.0</ele><time>2026-04-11T09:01:18Z</time></trkpt><trkpt lat="42.62592859692132" lon="11.999322173644"><ele>343.0</ele><time>2026-04-11T09:01:19Z</time></trkpt><trkpt lat="42.6256525996382" lon="11.999327729029929"><ele>343.0</ele><time>2026-04-11T09:01:20Z</time></trkpt><trkpt lat="42.62537347204934" lon="11.999339927727595"><ele>343.0</ele><time>2026-04-11T09:01:21Z</time></trkpt><trkpt lat="42.62508935460545" lon="11.999352433507779"><ele>337.0</ele><time>2026-04-11T09:01:22Z</time></trkpt><trkpt lat="42.62480923960916" lon="11.999366931081694"><ele>331.0</ele><time>2026-04-11T09:01:23Z</time></trkpt><trkpt lat="42.62453636061531" lon="11.999376724350158"><ele>328.0</ele><time>2026-04-11T09:01:24Z</time></trkpt><trkpt lat="42.62427349980218" lon="11.999383020056838"><ele>325.0</ele><time>2026-04-11T09:01:25Z</time></trkpt><trkpt lat="42.624030408132846" lon="11.999390264842825"><ele>325.0</ele><time>2026-04-11T09:01:26Z</time></trkpt><trkpt lat="42.62379978577133" lon="11.999368380145087"><ele>325.0</ele><time>2026-04-11T09:01:27Z</time></trkpt><trkpt lat="42.623574672836895" lon="11.999302911785511"><ele>325.3333333333333</ele><time>2026-04-11T09:01:28Z</time></trkpt><trkpt lat="42.62336822380604" lon="11.999206766217993"><ele>325.6666666666667</ele><time>2026-04-11T09:01:29Z</time></trkpt><trkpt lat="42.62318614819938" lon="11.999070631055886"><ele>326.0</ele><time>2026-04-11T09:01:30Z</time></trkpt><trkpt lat="42.62301551640071" lon="11.998890115175607"><ele>324.33333333333337</ele><time>2026-04-11T09:01:31Z</time></trkpt><trkpt lat="42.62284809040698" lon="11.998677375954998"><ele>322.6666666666667</ele><time>2026-04-11T09:01:32Z</time></trkpt><trkpt lat="42.62270079938075" lon="11.998481442895251"><ele>321.0</ele><time>2026-04-11T09:01:33Z</time></trkpt><trkpt lat="42.62253774268309" lon="11.998328378581531"><ele>320.0</ele><time>2026-04-11T09:01:34Z</time></trkpt><trkpt lat="42.622345187809174" lon="11.998231128732101"><ele>319.0</ele><time>2026-04-11T09:01:35Z</time></trkpt><trkpt lat="42.622137298666544" lon="11.99818567173773"><ele>318.0</ele><time>2026-04-11T09:01:36Z</time></trkpt><trkpt lat="42.62190426252568" lon="11.998168480227102"><ele>318.0</ele><time>2026-04-11T09:01:37Z</time></trkpt><trkpt lat="42.621661546475146" lon="11.99815086860219"><ele>318.0</ele><time>2026-04-11T09:01:38Z</time></trkpt><trkpt lat="42.62142065790807" lon="11.998128857632427"><ele>318.0</ele><time>2026-04-11T09:01:39Z</time></trkpt><trkpt lat="42.62117033045619" lon="11.998103174783228"><ele>318.0</ele><time>2026-04-11T09:01:40Z</time></trkpt><trkpt lat="42.620914387922454" lon="11.99807724286997"><ele>318.5</ele><time>2026-04-11T09:01:41Z</time></trkpt><trkpt lat="42.620665614212726" lon="11.99805460041955"><ele>319.0</ele><time>2026-04-11T09:01:42Z</time></trkpt><trkpt lat="42.62043495625963" lon="11.998035495806523"><ele>320.3333333333333</ele><time>2026-04-11T09:01:43Z</time></trkpt><trkpt lat="42.62021835976705" lon="11.998015162070804"><ele>321.6666666666667</ele><time>2026-04-11T09:01:44Z</time></trkpt><trkpt lat="42.62000760341351" lon="11.997971338081024"><ele>323.0</ele><time>2026-04-11T09:01:45Z</time></trkpt><trkpt lat="42.61979675515593" lon="11.99785423527784"><ele>323.0</ele><time>2026-04-11T09:01:46Z</time></trkpt><trkpt lat="42.61958922807587" lon="11.997682113836214"><ele>323.0</ele><time>2026-04-11T09:01:47Z</time></trkpt><trkpt lat="42.61938317107214" lon="11.997480874789177"><ele>319.5</ele><time>2026-04-11T09:01:48Z</time></trkpt><trkpt lat="42.619156358396936" lon="11.99730158206945"><ele>316.0</ele><time>2026-04-11T09:01:49Z</time></trkpt><trkpt lat="42.618901893095" lon="11.997171459816279"><ele>316.0</ele><time>2026-04-11T09:01:50Z</time></trkpt><trkpt lat="42.61862625948004" lon="11.997087951646778"><ele>316.0</ele><time>2026-04-11T09:01:51Z</time></trkpt><trkpt lat="42.61834926722226" lon="11.997015307578302"><ele>316.0</ele><time>2026-04-11T09:01:52Z</time></trkpt><trkpt lat="42.618074294314745" lon="11.996937155256987"><ele>316.0</ele><time>2026-04-11T09:01:53Z</time></trkpt><trkpt lat="42.61779598088669" lon="11.996863712678872"><ele>316.5</ele><time>2026-04-11T09:01:54Z</time></trkpt><trkpt lat="42.617510768988495" lon="11.99679036064794"><ele>317.0</ele><time>2026-04-11T09:01:55Z</time></trkpt><trkpt lat="42.61723878354981" lon="11.996722348551103"><ele>315.0</ele><time>2026-04-11T09:01:56Z</time></trkpt><trkpt lat="42.616985182102404" lon="11.996657165214975"><ele>313.0</ele><time>2026-04-11T09:01:57Z</time></trkpt><trkpt lat="42.6167456133944" lon="11.996572445831337"><ele>313.0</ele><time>2026-04-11T09:01:58Z</time></trkpt><trkpt lat="42.61653132825101" lon="11.996448984421097"><ele>313.0</ele><time>2026-04-11T09:01:59Z</time></trkpt><trkpt lat="42.616324900964344" lon="11.996303210460042"><ele>315.66666666666663</ele><time>2026-04-11T09:02:00Z</time></trkpt><trkpt lat="42.616123143769364" lon="11.996152972512236"><ele>318.3333333333333</ele><time>2026-04-11T09:02:01Z</time></trkpt><trkpt lat="42.615960415983885" lon="11.99600530930647"><ele>321.0</ele><time>2026-04-11T09:02:02Z</time></trkpt><trkpt lat="42.615831149713806" lon="11.995884702663204"><ele>321.0</ele><time>2026-04-11T09:02:03Z</time></trkpt><trkpt lat="42.615689038442774" lon="11.9958175621072"><ele>321.0</ele><time>2026-04-11T09:02:04Z</time></trkpt><trkpt lat="42.61555374705651" lon="11.995817990059063"><ele>321.0</ele><time>2026-04-11T09:02:05Z</time></trkpt><trkpt lat="42.61541613558724" lon="11.995879858211262"><ele>321.0</ele><time>2026-04-11T09:02:06Z</time></trkpt><trkpt lat="42.61527455982678" lon="11.996018488018164"><ele>319.0</ele><time>2026-04-11T09:02:07Z</time></trkpt><trkpt lat="42.61512145690248" lon="11.996204158947108"><ele>317.0</ele><time>2026-04-11T09:02:08Z</time></trkpt><trkpt lat="42.61496225346417" lon="11.996407893897029"><ele>315.0</ele><time>2026-04-11T09:02:09Z</time></trkpt><trkpt lat="42.6147770855873" lon="11.996608198897691"><ele>319.0</ele><time>2026-04-11T09:02:10Z</time></trkpt><trkpt lat="42.61455832178699" lon="11.99677788920192"><ele>323.0</ele><time>2026-04-11T09:02:11Z</time></trkpt><trkpt lat="42.61431771830588" lon="11.996933963194593"><ele>323.0</ele><time>2026-04-11T09:02:12Z</time></trkpt><trkpt lat="42.61408109331967" lon="11.997076181520615"><ele>323.0</ele><time>2026-04-11T09:02:13Z</time></trkpt><trkpt lat="42.61384357805785" lon="11.997213722570077"><ele>318.5</ele><time>2026-04-11T09:02:14Z</time></trkpt><trkpt lat="42.61359621093412" lon="11.997333588485596"><ele>314.0</ele><time>2026-04-11T09:02:15Z</time></trkpt><trkpt lat="42.613342542730585" lon="11.997428048790132"><ele>314.0</ele><time>2026-04-11T09:02:16Z</time></trkpt><trkpt lat="42.61309036541973" lon="11.99749824520868"><ele>314.0</ele><time>2026-04-11T09:02:17Z</time></trkpt><trkpt lat="42.61283886938902" lon="11.99753848800291"><ele>314.0</ele><time>2026-04-11T09:02:18Z</time></trkpt><trkpt lat="42.61258873728536" lon="11.997534221489008"><ele>314.0</ele><time>2026-04-11T09:02:19Z</time></trkpt><trkpt lat="42.61234268076125" lon="11.997480903119936"><ele>314.0</ele><time>2026-04-11T09:02:20Z</time></trkpt><trkpt lat="42.61208729464065" lon="11.997380631825909"><ele>314.0</ele><time>2026-04-11T09:02:21Z</time></trkpt><trkpt lat="42.61182668735596" lon="11.997248091298637"><ele>318.5</ele><time>2026-04-11T09:02:22Z</time></trkpt><trkpt lat="42.611560470947744" lon="11.997101722484336"><ele>323.0</ele><time>2026-04-11T09:02:23Z</time></trkpt><trkpt lat="42.61130218057684" lon="11.996965787821336"><ele>327.0</ele><time>2026-04-11T09:02:24Z</time></trkpt><trkpt lat="42.61107681887788" lon="11.99685179347105"><ele>331.0</ele><time>2026-04-11T09:02:25Z</time></trkpt><trkpt lat="42.61086443611099" lon="11.996764625369481"><ele>331.0</ele><time>2026-04-11T09:02:26Z</time></trkpt><trkpt lat="42.610646479242405" lon="11.996740890759353"><ele>331.0</ele><time>2026-04-11T09:02:27Z</time></trkpt><trkpt lat="42.610397227322906" lon="11.996757594738359"><ele>332.5</ele><time>2026-04-11T09:02:28Z</time></trkpt><trkpt lat="42.61013211376259" lon="11.996769748293946"><ele>334.0</ele><time>2026-04-11T09:02:29Z</time></trkpt><trkpt lat="42.609849853399226" lon="11.996780729503085"><ele>334.0</ele><time>2026-04-11T09:02:30Z</time></trkpt><trkpt lat="42.60956363914173" lon="11.996792956164912"><ele>334.0</ele><time>2026-04-11T09:02:31Z</time></trkpt><trkpt lat="42.60928939058988" lon="11.996799237571095"><ele>327.5</ele><time>2026-04-11T09:02:32Z</time></trkpt><trkpt lat="42.60900868893739" lon="11.996782493337712"><ele>321.0</ele><time>2026-04-11T09:02:33Z</time></trkpt><trkpt lat="42.608716807964456" lon="11.996740020615162"><ele>318.5</ele><time>2026-04-11T09:02:34Z</time></trkpt><trkpt lat="42.60843352842002" lon="11.996701093419205"><ele>316.0</ele><time>2026-04-11T09:02:35Z</time></trkpt><trkpt lat="42.60815244743257" lon="11.996666386362968"><ele>314.0</ele><time>2026-04-11T09:02:36Z</time></trkpt><trkpt lat="42.60788758663911" lon="11.996642345602044"><ele>312.0</ele><time>2026-04-11T09:02:37Z</time></trkpt><trkpt lat="42.607621166339555" lon="11.996616869495673"><ele>312.0</ele><time>2026-04-11T09:02:38Z</time></trkpt><trkpt lat="42.60734869417168" lon="11.996595524840851"><ele>312.0</ele><time>2026-04-11T09:02:39Z</time></trkpt><trkpt lat="42.60706146807164" lon="11.996571515610528"><ele>312.0</ele><time>2026-04-11T09:02:40Z</time></trkpt><trkpt lat="42.60677045960978" lon="11.996541381247395"><ele>312.0</ele><time>2026-04-11T09:02:41Z</time></trkpt><trkpt lat="42.606476814781715" lon="11.996510707841528"><ele>312.0</ele><time>2026-04-11T09:02:42Z</time></trkpt><trkpt lat="42.60617958195842" lon="11.996486427120175"><ele>312.0</ele><time>2026-04-11T09:02:43Z</time></trkpt><trkpt lat="42.60588299725511" lon="11.996458705095307"><ele>312.5</ele><time>2026-04-11T09:02:44Z</time></trkpt><trkpt lat="42.60560950936717" lon="11.99643145348683"><ele>313.0</ele><time>2026-04-11T09:02:45Z</time></trkpt><trkpt lat="42.60536542643917" lon="11.996406846645039"><ele>314.0</ele><time>2026-04-11T09:02:46Z</time></trkpt><trkpt lat="42.60515034005256" lon="11.996392079517992"><ele>315.0</ele><time>2026-04-11T09:02:47Z</time></trkpt><trkpt lat="42.604973652182956" lon="11.99637639826019"><ele>316.0</ele><time>2026-04-11T09:02:48Z</time></trkpt><trkpt lat="42.604794348072595" lon="11.996386125076464"><ele>316.0</ele><time>2026-04-11T09:02:49Z</time></trkpt><trkpt lat="42.6045973290791" lon="11.99644534197618"><ele>316.0</ele><time>2026-04-11T09:02:50Z</time></trkpt><trkpt lat="42.60441262913265" lon="11.996574121826658"><ele>316.0</ele><time>2026-04-11T09:02:51Z</time></trkpt><trkpt lat="42.60421611999503" lon="11.996751904062513"><ele>317.0</ele><time>2026-04-11T09:02:52Z</time></trkpt><trkpt lat="42.6040128920325" lon="11.996944822737822"><ele>318.0</ele><time>2026-04-11T09:02:53Z</time></trkpt><trkpt lat="42.603799167589536" lon="11.997136901533272"><ele>319.0</ele><time>2026-04-11T09:02:54Z</time></trkpt><trkpt lat="42.60357384625397" lon="11.997329812966989"><ele>320.0</ele><time>2026-04-11T09:02:55Z</time></trkpt><trkpt lat="42.603363222358645" lon="11.9975142089919"><ele>325.5</ele><time>2026-04-11T09:02:56Z</time></trkpt><trkpt lat="42.60316469199904" lon="11.997678620189522"><ele>331.0</ele><time>2026-04-11T09:02:57Z</time></trkpt><trkpt lat="42.60298227707541" lon="11.997841954665219"><ele>330.0</ele><time>2026-04-11T09:02:58Z</time></trkpt><trkpt lat="42.60279680049057" lon="11.997980497963898"><ele>329.0</ele><time>2026-04-11T09:02:59Z</time></trkpt><trkpt lat="42.60259411016557" lon="11.998065821252126"><ele>328.0</ele><time>2026-04-11T09:03:00Z</time></trkpt><trkpt lat="42.602359347416055" lon="11.998109567804498"><ele>328.0</ele><time>2026-04-11T09:03:01Z</time></trkpt><trkpt lat="42.60211408664091" lon="11.998137288762615"><ele>328.0</ele><time>2026-04-11T09:03:02Z</time></trkpt><trkpt lat="42.60185237192389" lon="11.998170595572185"><ele>328.5</ele><time>2026-04-11T09:03:03Z</time></trkpt><trkpt lat="42.60159483130293" lon="11.99822124564444"><ele>329.0</ele><time>2026-04-11T09:03:04Z</time></trkpt><trkpt lat="42.601334714330534" lon="11.998262127996716"><ele>328.0</ele><time>2026-04-11T09:03:05Z</time></trkpt><trkpt lat="42.60107693508362" lon="11.998310425111965"><ele>327.0</ele><time>2026-04-11T09:03:06Z</time></trkpt><trkpt lat="42.60086436788215" lon="11.998370995334417"><ele>333.5</ele><time>2026-04-11T09:03:07Z</time></trkpt><trkpt lat="42.60060580858887" lon="11.998402149264098"><ele>340.0</ele><time>2026-04-11T09:03:08Z</time></trkpt><trkpt lat="42.60036657110236" lon="11.998442959126201"><ele>339.0</ele><time>2026-04-11T09:03:09Z</time></trkpt><trkpt lat="42.60013913818311" lon="11.99849504949402"><ele>338.0</ele><time>2026-04-11T09:03:10Z</time></trkpt><trkpt lat="42.599919475966004" lon="11.99854055611319"><ele>338.0</ele><time>2026-04-11T09:03:11Z</time></trkpt><trkpt lat="42.599707695075224" lon="11.99860925617394"><ele>338.0</ele><time>2026-04-11T09:03:12Z</time></trkpt><trkpt lat="42.59950368435411" lon="11.998712147819315"><ele>338.0</ele><time>2026-04-11T09:03:13Z</time></trkpt><trkpt lat="42.59930901331882" lon="11.998862092593015"><ele>337.5</ele><time>2026-04-11T09:03:14Z</time></trkpt><trkpt lat="42.59910092414819" lon="11.998995055924809"><ele>337.0</ele><time>2026-04-11T09:03:15Z</time></trkpt><trkpt lat="42.59889892861644" lon="11.999125914828685"><ele>340.66666666666663</ele><time>2026-04-11T09:03:16Z</time></trkpt><trkpt lat="42.598719567120824" lon="11.99925844567946"><ele>344.3333333333333</ele><time>2026-04-11T09:03:17Z</time></trkpt><trkpt lat="42.59854045155445" lon="11.999365566746803"><ele>348.0</ele><time>2026-04-11T09:03:18Z</time></trkpt><trkpt lat="42.59835690619325" lon="11.99944085739586"><ele>348.0</ele><time>2026-04-11T09:03:19Z</time></trkpt><trkpt lat="42.598157523452336" lon="11.999484952867494"><ele>348.0</ele><time>2026-04-11T09:03:20Z</time></trkpt><trkpt lat="42.59794847533825" lon="11.999512283313381"><ele>348.0</ele><time>2026-04-11T09:03:21Z</time></trkpt><trkpt lat="42.597724610967354" lon="11.999514104903586"><ele>348.5</ele><time>2026-04-11T09:03:22Z</time></trkpt><trkpt lat="42.59748501070185" lon="11.999484531034442"><ele>349.0</ele><time>2026-04-11T09:03:23Z</time></trkpt><trkpt lat="42.597244428358586" lon="11.999449218108811"><ele>349.0</ele><time>2026-04-11T09:03:24Z</time></trkpt><trkpt lat="42.59702636663199" lon="11.999416303008509"><ele>349.0</ele><time>2026-04-11T09:03:25Z</time></trkpt><trkpt lat="42.596824047926" lon="11.999382920626429"><ele>349.0</ele><time>2026-04-11T09:03:26Z</time></trkpt><trkpt lat="42.59663059205507" lon="11.999425584044042"><ele>349.66666666666663</ele><time>2026-04-11T09:03:27Z</time></trkpt><trkpt lat="42.59641961939177" lon="11.999493878045051"><ele>350.3333333333333</ele><time>2026-04-11T09:03:28Z</time></trkpt><trkpt lat="42.59621543160336" lon="11.99959910776157"><ele>351.0</ele><time>2026-04-11T09:03:29Z</time></trkpt><trkpt lat="42.596011003997354" lon="11.99973593267487"><ele>351.0</ele><time>2026-04-11T09:03:30Z</time></trkpt><trkpt lat="42.595795383117526" lon="11.999884904428265"><ele>351.0</ele><time>2026-04-11T09:03:31Z</time></trkpt><trkpt lat="42.595568365932934" lon="12.000029638946495"><ele>351.0</ele><time>2026-04-11T09:03:32Z</time></trkpt><trkpt lat="42.59534424414249" lon="12.000183931627319"><ele>351.0</ele><time>2026-04-11T09:03:33Z</time></trkpt><trkpt lat="42.595121646954965" lon="12.000309998084838"><ele>351.5</ele><time>2026-04-11T09:03:34Z</time></trkpt><trkpt lat="42.59489906737529" lon="12.000382846949924"><ele>352.0</ele><time>2026-04-11T09:03:35Z</time></trkpt><trkpt lat="42.594675989506776" lon="12.0004221372658"><ele>353.0</ele><time>2026-04-11T09:03:36Z</time></trkpt><trkpt lat="42.59443808460192" lon="12.000460906492457"><ele>354.0</ele><time>2026-04-11T09:03:37Z</time></trkpt><trkpt lat="42.59419782067419" lon="12.000488462439286"><ele>354.0</ele><time>2026-04-11T09:03:38Z</time></trkpt><trkpt lat="42.593949399865565" lon="12.000500039965845"><ele>354.0</ele><time>2026-04-11T09:03:39Z</time></trkpt><trkpt lat="42.59368947032458" lon="12.000522424226867"><ele>355.0</ele><time>2026-04-11T09:03:40Z</time></trkpt><trkpt lat="42.59345242030277" lon="12.000542920719095"><ele>356.0</ele><time>2026-04-11T09:03:41Z</time></trkpt><trkpt lat="42.593225621013566" lon="12.000576624258555"><ele>356.0</ele><time>2026-04-11T09:03:42Z</time></trkpt><trkpt lat="42.59300042335783" lon="12.000609223260746"><ele>356.0</ele><time>2026-04-11T09:03:43Z</time></trkpt><trkpt lat="42.59276561450592" lon="12.000664842258502"><ele>357.5</ele><time>2026-04-11T09:03:44Z</time></trkpt><trkpt lat="42.592518203204165" lon="12.00071595182337"><ele>359.0</ele><time>2026-04-11T09:03:45Z</time></trkpt><trkpt lat="42.592289335539405" lon="12.00075816950913"><ele>359.0</ele><time>2026-04-11T09:03:46Z</time></trkpt><trkpt lat="42.59206008469391" lon="12.000795316525418"><ele>359.0</ele><time>2026-04-11T09:03:47Z</time></trkpt><trkpt lat="42.591843686843475" lon="12.00080721337707"><ele>359.0</ele><time>2026-04-11T09:03:48Z</time></trkpt><trkpt lat="42.59162162790465" lon="12.00078295734041"><ele>363.0</ele><time>2026-04-11T09:03:49Z</time></trkpt><trkpt lat="42.59138604015899" lon="12.000739426464348"><ele>367.0</ele><time>2026-04-11T09:03:50Z</time></trkpt><trkpt lat="42.59112765630173" lon="12.000683200924415"><ele>370.0</ele><time>2026-04-11T09:03:51Z</time></trkpt><trkpt lat="42.59088021780056" lon="12.000641109786775"><ele>373.0</ele><time>2026-04-11T09:03:52Z</time></trkpt><trkpt lat="42.59065656605207" lon="12.00061253250357"><ele>373.0</ele><time>2026-04-11T09:03:53Z</time></trkpt><trkpt lat="42.59047387202085" lon="12.000591311477805"><ele>373.0</ele><time>2026-04-11T09:03:54Z</time></trkpt><trkpt lat="42.59029433535258" lon="12.000626834539812"><ele>373.0</ele><time>2026-04-11T09:03:55Z</time></trkpt><trkpt lat="42.59009810898238" lon="12.000715044286403"><ele>373.0</ele><time>2026-04-11T09:03:56Z</time></trkpt><trkpt lat="42.589888257544814" lon="12.000828640363704"><ele>373.0</ele><time>2026-04-11T09:03:57Z</time></trkpt><trkpt lat="42.58970398619757" lon="12.000965314810381"><ele>373.0</ele><time>2026-04-11T09:03:58Z</time></trkpt><trkpt lat="42.58957229118687" lon="12.001095711287164"><ele>374.0</ele><time>2026-04-11T09:03:59Z</time></trkpt><trkpt lat="42.58946914294165" lon="12.00119632748636"><ele>375.0</ele><time>2026-04-11T09:04:00Z</time></trkpt><trkpt lat="42.58938802982524" lon="12.001265160838363"><ele>376.0</ele><time>2026-04-11T09:04:01Z</time></trkpt><trkpt lat="42.58928962314423" lon="12.001308234191578"><ele>377.0</ele><time>2026-04-11T09:04:02Z</time></trkpt><trkpt lat="42.58918338965217" lon="12.00134837193387"><ele>378.0</ele><time>2026-04-11T09:04:03Z</time></trkpt><trkpt lat="42.58904434227787" lon="12.001394035799903"><ele>378.0</ele><time>2026-04-11T09:04:04Z</time></trkpt><trkpt lat="42.588870311916835" lon="12.001442116610072"><ele>378.0</ele><time>2026-04-11T09:04:05Z</time></trkpt><trkpt lat="42.588687523118665" lon="12.001483891150599"><ele>378.0</ele><time>2026-04-11T09:04:06Z</time></trkpt><trkpt lat="42.58854567324919" lon="12.001531141886208"><ele>378.0</ele><time>2026-04-11T09:04:07Z</time></trkpt><trkpt lat="42.58844406893429" lon="12.00156882991565"><ele>378.0</ele><time>2026-04-11T09:04:08Z</time></trkpt><trkpt lat="42.58836883732976" lon="12.001593798251658"><ele>378.0</ele><time>2026-04-11T09:04:09Z</time></trkpt><trkpt lat="42.58826203558562" lon="12.001645805171547"><ele>378.0</ele><time>2026-04-11T09:04:11Z</time></trkpt><trkpt lat="42.58813958980382" lon="12.001695546964418"><ele>378.0</ele><time>2026-04-11T09:04:13Z</time></trkpt><trkpt lat="42.58807300822408" lon="12.00171611643487"><ele>380.66666666666663</ele><time>2026-04-11T09:04:14Z</time></trkpt><trkpt lat="42.587908720357284" lon="12.001783653771094"><ele>383.3333333333333</ele><time>2026-04-11T09:04:16Z</time></trkpt><trkpt lat="42.58774151959969" lon="12.001833617454968"><ele>386.0</ele><time>2026-04-11T09:04:17Z</time></trkpt><trkpt lat="42.58751630061406" lon="12.001811509475194"><ele>386.0</ele><time>2026-04-11T09:04:18Z</time></trkpt><trkpt lat="42.587270538576455" lon="12.001774932949978"><ele>386.0</ele><time>2026-04-11T09:04:19Z</time></trkpt><trkpt lat="42.58700714573818" lon="12.001766076496258"><ele>387.5</ele><time>2026-04-11T09:04:20Z</time></trkpt><trkpt lat="42.58675320086665" lon="12.00177904887512"><ele>389.0</ele><time>2026-04-11T09:04:21Z</time></trkpt><trkpt lat="42.586510098807246" lon="12.001824998766946"><ele>389.0</ele><time>2026-04-11T09:04:22Z</time></trkpt><trkpt lat="42.58624214480656" lon="12.001908122298053"><ele>389.0</ele><time>2026-04-11T09:04:23Z</time></trkpt><trkpt lat="42.585958211232736" lon="12.00201882976862"><ele>387.5</ele><time>2026-04-11T09:04:24Z</time></trkpt><trkpt lat="42.585683315969355" lon="12.002134952112954"><ele>386.0</ele><time>2026-04-11T09:04:25Z</time></trkpt><trkpt lat="42.58545630063536" lon="12.002208626649358"><ele>384.66666666666663</ele><time>2026-04-11T09:04:26Z</time></trkpt><trkpt lat="42.58528982844686" lon="12.002277709257095"><ele>383.3333333333333</ele><time>2026-04-11T09:04:27Z</time></trkpt><trkpt lat="42.585164739923904" lon="12.002365409024948"><ele>382.0</ele><time>2026-04-11T09:04:28Z</time></trkpt><trkpt lat="42.58507910932107" lon="12.002518767131821"><ele>384.66666666666663</ele><time>2026-04-11T09:04:29Z</time></trkpt><trkpt lat="42.585019235654016" lon="12.002706647280364"><ele>387.3333333333333</ele><time>2026-04-11T09:04:30Z</time></trkpt><trkpt lat="42.585080399940665" lon="12.002943437234377"><ele>390.0</ele><time>2026-04-11T09:04:31Z</time></trkpt><trkpt lat="42.58517830859436" lon="12.003118565878376"><ele>390.0</ele><time>2026-04-11T09:04:32Z</time></trkpt><trkpt lat="42.58526449449733" lon="12.003278000773165"><ele>390.0</ele><time>2026-04-11T09:04:33Z</time></trkpt><trkpt lat="42.58535751397025" lon="12.003425556252983"><ele>390.0</ele><time>2026-04-11T09:04:34Z</time></trkpt><trkpt lat="42.585454850525124" lon="12.003580087362856"><ele>390.0</ele><time>2026-04-11T09:04:35Z</time></trkpt><trkpt lat="42.58554779076917" lon="12.003734267583745"><ele>392.75</ele><time>2026-04-11T09:04:36Z</time></trkpt><trkpt lat="42.585613230321" lon="12.003874592533116"><ele>395.5</ele><time>2026-04-11T09:04:37Z</time></trkpt><trkpt lat="42.585652735761364" lon="12.004031121572158"><ele>398.25</ele><time>2026-04-11T09:04:38Z</time></trkpt><trkpt lat="42.58566634772712" lon="12.004219842594802"><ele>401.0</ele><time>2026-04-11T09:04:39Z</time></trkpt><trkpt lat="42.58563497543211" lon="12.004384695601003"><ele>401.0</ele><time>2026-04-11T09:04:40Z</time></trkpt><trkpt lat="42.58556944827974" lon="12.00453196959282"><ele>401.0</ele><time>2026-04-11T09:04:41Z</time></trkpt><trkpt lat="42.58547486405144" lon="12.00469098999826"><ele>401.0</ele><time>2026-04-11T09:04:42Z</time></trkpt><trkpt lat="42.58530612988527" lon="12.004813144441796"><ele>400.0</ele><time>2026-04-11T09:04:43Z</time></trkpt><trkpt lat="42.585126530825484" lon="12.004965450733502"><ele>399.0</ele><time>2026-04-11T09:04:44Z</time></trkpt><trkpt lat="42.584906661397426" lon="12.005089130139527"><ele>399.0</ele><time>2026-04-11T09:04:45Z</time></trkpt><trkpt lat="42.58468248797582" lon="12.005252816394746"><ele>399.0</ele><time>2026-04-11T09:04:46Z</time></trkpt><trkpt lat="42.58445825793786" lon="12.005426177846568"><ele>394.0</ele><time>2026-04-11T09:04:47Z</time></trkpt><trkpt lat="42.584230323914696" lon="12.005600114085814"><ele>389.0</ele><time>2026-04-11T09:04:48Z</time></trkpt><trkpt lat="42.584021788324776" lon="12.005763373808369"><ele>390.66666666666663</ele><time>2026-04-11T09:04:49Z</time></trkpt><trkpt lat="42.58384108359156" lon="12.00591631319079"><ele>392.33333333333337</ele><time>2026-04-11T09:04:50Z</time></trkpt><trkpt lat="42.58368340787599" lon="12.006093518677742"><ele>394.0</ele><time>2026-04-11T09:04:51Z</time></trkpt><trkpt lat="42.58354657136849" lon="12.006334946269517"><ele>394.0</ele><time>2026-04-11T09:04:52Z</time></trkpt><trkpt lat="42.583417805370516" lon="12.006609407323547"><ele>394.0</ele><time>2026-04-11T09:04:53Z</time></trkpt><trkpt lat="42.58326010299793" lon="12.006869975662495"><ele>397.5</ele><time>2026-04-11T09:04:54Z</time></trkpt><trkpt lat="42.583067404479586" lon="12.007066789939069"><ele>401.0</ele><time>2026-04-11T09:04:55Z</time></trkpt><trkpt lat="42.58288706980919" lon="12.007263008440253"><ele>402.0</ele><time>2026-04-11T09:04:56Z</time></trkpt><trkpt lat="42.58270034521772" lon="12.007462111587415"><ele>403.0</ele><time>2026-04-11T09:04:57Z</time></trkpt><trkpt lat="42.582516051218526" lon="12.007682242051969"><ele>403.0</ele><time>2026-04-11T09:04:58Z</time></trkpt><trkpt lat="42.582337189441404" lon="12.007846864399287"><ele>403.0</ele><time>2026-04-11T09:04:59Z</time></trkpt><trkpt lat="42.5821955472787" lon="12.007995587796499"><ele>403.0</ele><time>2026-04-11T09:05:00Z</time></trkpt><trkpt lat="42.58207428363391" lon="12.008131954122872"><ele>401.33333333333337</ele><time>2026-04-11T09:05:01Z</time></trkpt><trkpt lat="42.58195490975595" lon="12.008232292745953"><ele>399.66666666666663</ele><time>2026-04-11T09:05:02Z</time></trkpt><trkpt lat="42.58179637467959" lon="12.008255935027117"><ele>398.0</ele><time>2026-04-11T09:05:03Z</time></trkpt><trkpt lat="42.58159092142359" lon="12.008260255043945"><ele>398.0</ele><time>2026-04-11T09:05:04Z</time></trkpt><trkpt lat="42.58136018696837" lon="12.00826337330317"><ele>398.0</ele><time>2026-04-11T09:05:05Z</time></trkpt><trkpt lat="42.581151332472956" lon="12.008273565681018"><ele>398.0</ele><time>2026-04-11T09:05:06Z</time></trkpt><trkpt lat="42.5809409222095" lon="12.008380442512346"><ele>401.3333333333333</ele><time>2026-04-11T09:05:07Z</time></trkpt><trkpt lat="42.58077220257099" lon="12.008540400439426"><ele>404.66666666666663</ele><time>2026-04-11T09:05:08Z</time></trkpt><trkpt lat="42.58060786660896" lon="12.008763172798377"><ele>408.0</ele><time>2026-04-11T09:05:09Z</time></trkpt><trkpt lat="42.58043619876738" lon="12.009022742654846"><ele>409.5</ele><time>2026-04-11T09:05:10Z</time></trkpt><trkpt lat="42.58025228247901" lon="12.009294043688348"><ele>411.0</ele><time>2026-04-11T09:05:11Z</time></trkpt><trkpt lat="42.58005415054191" lon="12.009570739774524"><ele>411.0</ele><time>2026-04-11T09:05:12Z</time></trkpt><trkpt lat="42.57986518640026" lon="12.00983116454177"><ele>411.0</ele><time>2026-04-11T09:05:13Z</time></trkpt><trkpt lat="42.57972273410407" lon="12.01005091703946"><ele>411.66666666666663</ele><time>2026-04-11T09:05:14Z</time></trkpt><trkpt lat="42.57958828394374" lon="12.010196241921477"><ele>412.3333333333333</ele><time>2026-04-11T09:05:15Z</time></trkpt><trkpt lat="42.57944912794918" lon="12.010325506034016"><ele>413.0</ele><time>2026-04-11T09:05:16Z</time></trkpt><trkpt lat="42.579280295782596" lon="12.010403980680806"><ele>413.66666666666663</ele><time>2026-04-11T09:05:17Z</time></trkpt><trkpt lat="42.579080996607324" lon="12.010399796814458"><ele>414.33333333333337</ele><time>2026-04-11T09:05:18Z</time></trkpt><trkpt lat="42.57886408568129" lon="12.010378213604145"><ele>415.0</ele><time>2026-04-11T09:05:19Z</time></trkpt><trkpt lat="42.57862866765891" lon="12.01035584356068"><ele>419.5</ele><time>2026-04-11T09:05:20Z</time></trkpt><trkpt lat="42.57837888091964" lon="12.010311799020414"><ele>424.0</ele><time>2026-04-11T09:05:21Z</time></trkpt><trkpt lat="42.57812869583524" lon="12.010295947336262"><ele>424.0</ele><time>2026-04-11T09:05:22Z</time></trkpt><trkpt lat="42.577869871743566" lon="12.010270950687381"><ele>424.0</ele><time>2026-04-11T09:05:23Z</time></trkpt><trkpt lat="42.57761337813477" lon="12.010250120753895"><ele>424.0</ele><time>2026-04-11T09:05:24Z</time></trkpt><trkpt lat="42.5773585578491" lon="12.010239133415345"><ele>424.0</ele><time>2026-04-11T09:05:25Z</time></trkpt><trkpt lat="42.57709556734774" lon="12.01021960253579"><ele>423.0</ele><time>2026-04-11T09:05:26Z</time></trkpt><trkpt lat="42.576824383265944" lon="12.010192385474854"><ele>422.0</ele><time>2026-04-11T09:05:27Z</time></trkpt><trkpt lat="42.57655342950629" lon="12.01015921028601"><ele>422.0</ele><time>2026-04-11T09:05:28Z</time></trkpt><trkpt lat="42.576279403873144" lon="12.010126883624471"><ele>422.0</ele><time>2026-04-11T09:05:29Z</time></trkpt><trkpt lat="42.57600587392189" lon="12.010101091128988"><ele>422.5</ele><time>2026-04-11T09:05:30Z</time></trkpt><trkpt lat="42.5757399389603" lon="12.010074106539497"><ele>423.0</ele><time>2026-04-11T09:05:31Z</time></trkpt><trkpt lat="42.575481547982534" lon="12.010049566276091"><ele>423.5</ele><time>2026-04-11T09:05:32Z</time></trkpt><trkpt lat="42.575237360832766" lon="12.010028067341425"><ele>424.0</ele><time>2026-04-11T09:05:33Z</time></trkpt><trkpt lat="42.57500883715774" lon="12.01000606203681"><ele>425.33333333333337</ele><time>2026-04-11T09:05:34Z</time></trkpt><trkpt lat="42.57479497609193" lon="12.009987111459441"><ele>426.66666666666663</ele><time>2026-04-11T09:05:35Z</time></trkpt><trkpt lat="42.57459341661627" lon="12.009970272308294"><ele>428.0</ele><time>2026-04-11T09:05:36Z</time></trkpt><trkpt lat="42.57439026100955" lon="12.009943593462902"><ele>428.0</ele><time>2026-04-11T09:05:37Z</time></trkpt><trkpt lat="42.57418641055213" lon="12.009925881933373"><ele>428.0</ele><time>2026-04-11T09:05:38Z</time></trkpt><trkpt lat="42.573975423414055" lon="12.009898472075573"><ele>428.0</ele><time>2026-04-11T09:05:39Z</time></trkpt><trkpt lat="42.573748595424206" lon="12.009884214663483"><ele>427.0</ele><time>2026-04-11T09:05:40Z</time></trkpt><trkpt lat="42.57350817167585" lon="12.009857874369427"><ele>426.0</ele><time>2026-04-11T09:05:41Z</time></trkpt><trkpt lat="42.573251506690575" lon="12.009826989361116"><ele>426.0</ele><time>2026-04-11T09:05:42Z</time></trkpt><trkpt lat="42.57297739060529" lon="12.009780237485511"><ele>426.0</ele><time>2026-04-11T09:05:43Z</time></trkpt><trkpt lat="42.57268863235637" lon="12.009711930780211"><ele>424.5</ele><time>2026-04-11T09:05:44Z</time></trkpt><trkpt lat="42.57239384046217" lon="12.009638217558324"><ele>423.0</ele><time>2026-04-11T09:05:45Z</time></trkpt><trkpt lat="42.57209125531192" lon="12.009563782200676"><ele>423.0</ele><time>2026-04-11T09:05:46Z</time></trkpt><trkpt lat="42.57179215349552" lon="12.009492154316279"><ele>423.0</ele><time>2026-04-11T09:05:47Z</time></trkpt><trkpt lat="42.571498726620845" lon="12.009422107650433"><ele>423.0</ele><time>2026-04-11T09:05:48Z</time></trkpt><trkpt lat="42.571207842740314" lon="12.0093530462706"><ele>423.0</ele><time>2026-04-11T09:05:49Z</time></trkpt><trkpt lat="42.57092228198207" lon="12.009289579182255"><ele>423.0</ele><time>2026-04-11T09:05:50Z</time></trkpt><trkpt lat="42.57064617115359" lon="12.009224143542543"><ele>423.0</ele><time>2026-04-11T09:05:51Z</time></trkpt><trkpt lat="42.570389487721926" lon="12.009171682470747"><ele>422.5</ele><time>2026-04-11T09:05:52Z</time></trkpt><trkpt lat="42.5701269268935" lon="12.009155970658158"><ele>422.0</ele><time>2026-04-11T09:05:53Z</time></trkpt><trkpt lat="42.569846521625074" lon="12.00918345967404"><ele>422.0</ele><time>2026-04-11T09:05:54Z</time></trkpt><trkpt lat="42.56955451770963" lon="12.009213852820295"><ele>422.0</ele><time>2026-04-11T09:05:55Z</time></trkpt><trkpt lat="42.56926050418002" lon="12.009250788069712"><ele>422.5</ele><time>2026-04-11T09:05:56Z</time></trkpt><trkpt lat="42.56896187329768" lon="12.009290535928233"><ele>423.0</ele><time>2026-04-11T09:05:57Z</time></trkpt><trkpt lat="42.56866673064664" lon="12.00933448862787"><ele>428.5</ele><time>2026-04-11T09:05:58Z</time></trkpt><trkpt lat="42.56837742384362" lon="12.009370337619577"><ele>434.0</ele><time>2026-04-11T09:05:59Z</time></trkpt><trkpt lat="42.56809762723653" lon="12.00940697934303"><ele>435.5</ele><time>2026-04-11T09:06:00Z</time></trkpt><trkpt lat="42.56783647806305" lon="12.009446689410652"><ele>437.0</ele><time>2026-04-11T09:06:01Z</time></trkpt><trkpt lat="42.56761150721013" lon="12.009472573446505"><ele>437.0</ele><time>2026-04-11T09:06:02Z</time></trkpt><trkpt lat="42.56741963053522" lon="12.009472745514769"><ele>437.0</ele><time>2026-04-11T09:06:03Z</time></trkpt><trkpt lat="42.56723250004036" lon="12.009410743136975"><ele>437.0</ele><time>2026-04-11T09:06:04Z</time></trkpt><trkpt lat="42.56705023073186" lon="12.009293560436666"><ele>438.66666666666663</ele><time>2026-04-11T09:06:05Z</time></trkpt><trkpt lat="42.56688479567221" lon="12.009127672750582"><ele>440.33333333333337</ele><time>2026-04-11T09:06:06Z</time></trkpt><trkpt lat="42.56673234267828" lon="12.008903814230253"><ele>442.0</ele><time>2026-04-11T09:06:07Z</time></trkpt><trkpt lat="42.56657616704545" lon="12.008640764512931"><ele>442.0</ele><time>2026-04-11T09:06:08Z</time></trkpt><trkpt lat="42.566413881148506" lon="12.008359023348088"><ele>442.0</ele><time>2026-04-11T09:06:09Z</time></trkpt><trkpt lat="42.56624801993737" lon="12.008081872739398"><ele>445.5</ele><time>2026-04-11T09:06:10Z</time></trkpt><trkpt lat="42.56608835535847" lon="12.007827079691815"><ele>449.0</ele><time>2026-04-11T09:06:11Z</time></trkpt><trkpt lat="42.565941060357844" lon="12.007610855739253"><ele>452.0</ele><time>2026-04-11T09:06:12Z</time></trkpt><trkpt lat="42.56578353727758" lon="12.007447668468082"><ele>455.0</ele><time>2026-04-11T09:06:13Z</time></trkpt><trkpt lat="42.565587832863024" lon="12.007342748361246"><ele>458.0</ele><time>2026-04-11T09:06:14Z</time></trkpt><trkpt lat="42.565370955116904" lon="12.007260419631397"><ele>458.0</ele><time>2026-04-11T09:06:15Z</time></trkpt><trkpt lat="42.56512912664772" lon="12.007215070038663"><ele>458.0</ele><time>2026-04-11T09:06:16Z</time></trkpt><trkpt lat="42.564860729096395" lon="12.007176416941777"><ele>458.0</ele><time>2026-04-11T09:06:17Z</time></trkpt><trkpt lat="42.5645910545132" lon="12.007123067315957"><ele>458.0</ele><time>2026-04-11T09:06:18Z</time></trkpt><trkpt lat="42.56431587299515" lon="12.007063716161896"><ele>458.0</ele><time>2026-04-11T09:06:19Z</time></trkpt><trkpt lat="42.56402987105865" lon="12.006992411116187"><ele>458.0</ele><time>2026-04-11T09:06:20Z</time></trkpt><trkpt lat="42.56373706797888" lon="12.006920658204713"><ele>461.0</ele><time>2026-04-11T09:06:21Z</time></trkpt><trkpt lat="42.56344054015994" lon="12.006848428200819"><ele>464.0</ele><time>2026-04-11T09:06:22Z</time></trkpt><trkpt lat="42.563138905254085" lon="12.006778401066256"><ele>465.0</ele><time>2026-04-11T09:06:23Z</time></trkpt><trkpt lat="42.56283924122105" lon="12.006705580588559"><ele>466.0</ele><time>2026-04-11T09:06:24Z</time></trkpt><trkpt lat="42.56255251314601" lon="12.006630260878294"><ele>465.5</ele><time>2026-04-11T09:06:25Z</time></trkpt><trkpt lat="42.562276745400524" lon="12.006557967972343"><ele>465.0</ele><time>2026-04-11T09:06:26Z</time></trkpt><trkpt lat="42.56201482055097" lon="12.006487862216607"><ele>465.0</ele><time>2026-04-11T09:06:27Z</time></trkpt><trkpt lat="42.56177033650469" lon="12.006423392041306"><ele>465.0</ele><time>2026-04-11T09:06:28Z</time></trkpt><trkpt lat="42.561543699971146" lon="12.006364717295963"><ele>465.0</ele><time>2026-04-11T09:06:29Z</time></trkpt><trkpt lat="42.56132127980116" lon="12.006313600317897"><ele>465.0</ele><time>2026-04-11T09:06:30Z</time></trkpt><trkpt lat="42.561091479199966" lon="12.00625509497705"><ele>467.5</ele><time>2026-04-11T09:06:31Z</time></trkpt><trkpt lat="42.560851739419164" lon="12.00619611754887"><ele>470.0</ele><time>2026-04-11T09:06:32Z</time></trkpt><trkpt lat="42.5605915456151" lon="12.006126114269208"><ele>470.0</ele><time>2026-04-11T09:06:33Z</time></trkpt><trkpt lat="42.560373343641366" lon="12.006066697887038"><ele>470.0</ele><time>2026-04-11T09:06:34Z</time></trkpt><trkpt lat="42.56018288445653" lon="12.006035427170925"><ele>470.0</ele><time>2026-04-11T09:06:35Z</time></trkpt><trkpt lat="42.559997698881695" lon="12.006042919358855"><ele>470.66666666666663</ele><time>2026-04-11T09:06:36Z</time></trkpt><trkpt lat="42.559829208067015" lon="12.006125512628337"><ele>471.33333333333337</ele><time>2026-04-11T09:06:37Z</time></trkpt><trkpt lat="42.5596790860673" lon="12.006307332967015"><ele>472.0</ele><time>2026-04-11T09:06:38Z</time></trkpt><trkpt lat="42.55952591163165" lon="12.006512821191734"><ele>474.0</ele><time>2026-04-11T09:06:39Z</time></trkpt><trkpt lat="42.559378459629876" lon="12.006652603551725"><ele>476.0</ele><time>2026-04-11T09:06:40Z</time></trkpt><trkpt lat="42.55921827093292" lon="12.006703049571229"><ele>478.0</ele><time>2026-04-11T09:06:41Z</time></trkpt><trkpt lat="42.559051164660595" lon="12.006673072986686"><ele>478.0</ele><time>2026-04-11T09:06:42Z</time></trkpt><trkpt lat="42.55891696479718" lon="12.006523865892072"><ele>478.0</ele><time>2026-04-11T09:06:43Z</time></trkpt><trkpt lat="42.558826316226785" lon="12.006342352839175"><ele>478.0</ele><time>2026-04-11T09:06:44Z</time></trkpt><trkpt lat="42.558740679057394" lon="12.006090932964478"><ele>479.33333333333337</ele><time>2026-04-11T09:06:45Z</time></trkpt><trkpt lat="42.55864898960666" lon="12.005837189331048"><ele>480.66666666666663</ele><time>2026-04-11T09:06:46Z</time></trkpt><trkpt lat="42.558563495830704" lon="12.00562134792107"><ele>482.0</ele><time>2026-04-11T09:06:47Z</time></trkpt><trkpt lat="42.558442215962934" lon="12.00543799739562"><ele>482.0</ele><time>2026-04-11T09:06:48Z</time></trkpt><trkpt lat="42.55822585691229" lon="12.005275151408911"><ele>482.0</ele><time>2026-04-11T09:06:49Z</time></trkpt><trkpt lat="42.55800311169755" lon="12.005111349564032"><ele>480.0</ele><time>2026-04-11T09:06:50Z</time></trkpt><trkpt lat="42.55776412426797" lon="12.004944171248246"><ele>478.0</ele><time>2026-04-11T09:06:51Z</time></trkpt><trkpt lat="42.55750206442998" lon="12.004815013124821"><ele>478.0</ele><time>2026-04-11T09:06:52Z</time></trkpt><trkpt lat="42.55725117681799" lon="12.004725904626346"><ele>478.0</ele><time>2026-04-11T09:06:53Z</time></trkpt><trkpt lat="42.55703934325256" lon="12.004684420287049"><ele>479.6666666666667</ele><time>2026-04-11T09:06:54Z</time></trkpt><trkpt lat="42.556859019992054" lon="12.004674836847876"><ele>481.33333333333337</ele><time>2026-04-11T09:06:55Z</time></trkpt><trkpt lat="42.55667511614982" lon="12.00473264653061"><ele>483.0</ele><time>2026-04-11T09:06:56Z</time></trkpt><trkpt lat="42.556467891658194" lon="12.004869191893576"><ele>485.5</ele><time>2026-04-11T09:06:57Z</time></trkpt><trkpt lat="42.55625485659564" lon="12.005042474020923"><ele>488.0</ele><time>2026-04-11T09:06:58Z</time></trkpt><trkpt lat="42.55604089734981" lon="12.005250669336743"><ele>488.0</ele><time>2026-04-11T09:06:59Z</time></trkpt><trkpt lat="42.555831412630084" lon="12.005454900289916"><ele>488.0</ele><time>2026-04-11T09:07:00Z</time></trkpt><trkpt lat="42.5556212338962" lon="12.005600209789893"><ele>488.0</ele><time>2026-04-11T09:07:01.001Z</time></trkpt><trkpt lat="42.555416797165776" lon="12.00567246891781"><ele>488.0</ele><time>2026-04-11T09:07:02.001Z</time></trkpt><trkpt lat="42.5552084613529" lon="12.005707802542668"><ele>488.0</ele><time>2026-04-11T09:07:03.001Z</time></trkpt><trkpt lat="42.55497851083036" lon="12.00570827255677"><ele>488.5</ele><time>2026-04-11T09:07:04.001Z</time></trkpt><trkpt lat="42.554747003942104" lon="12.005650181367548"><ele>489.0</ele><time>2026-04-11T09:07:05.001Z</time></trkpt><trkpt lat="42.55453048818545" lon="12.005545244587903"><ele>494.33333333333337</ele><time>2026-04-11T09:07:06.001Z</time></trkpt><trkpt lat="42.554332879173614" lon="12.005410645462803"><ele>499.6666666666667</ele><time>2026-04-11T09:07:07.001Z</time></trkpt><trkpt lat="42.55416158688451" lon="12.00530109903915"><ele>505.0</ele><time>2026-04-11T09:07:08.001Z</time></trkpt><trkpt lat="42.55403183031102" lon="12.005199448643284"><ele>505.0</ele><time>2026-04-11T09:07:09.001Z</time></trkpt><trkpt lat="42.553921905680205" lon="12.005127092137572"><ele>505.0</ele><time>2026-04-11T09:07:10.001Z</time></trkpt><trkpt lat="42.55381989684805" lon="12.005096486262731"><ele>505.0</ele><time>2026-04-11T09:07:11.001Z</time></trkpt><trkpt lat="42.55372041654318" lon="12.005107167575131"><ele>505.0</ele><time>2026-04-11T09:07:12.001Z</time></trkpt><trkpt lat="42.55364007713653" lon="12.00517704533433"><ele>505.0</ele><time>2026-04-11T09:07:13.001Z</time></trkpt><trkpt lat="42.55359236594686" lon="12.005286573899477"><ele>503.5</ele><time>2026-04-11T09:07:14.001Z</time></trkpt><trkpt lat="42.55355336085623" lon="12.005413271962267"><ele>502.0</ele><time>2026-04-11T09:07:15.001Z</time></trkpt><trkpt lat="42.55353818953647" lon="12.005545996861912"><ele>500.5</ele><time>2026-04-11T09:07:16.001Z</time></trkpt><trkpt lat="42.5535489721029" lon="12.005696433809744"><ele>499.0</ele><time>2026-04-11T09:07:17.001Z</time></trkpt><trkpt lat="42.55361528444921" lon="12.005875200041736"><ele>499.0</ele><time>2026-04-11T09:07:18.001Z</time></trkpt><trkpt lat="42.55368414898729" lon="12.00605880378605"><ele>499.0</ele><time>2026-04-11T09:07:19.001Z</time></trkpt><trkpt lat="42.553765755302045" lon="12.006271804194435"><ele>499.0</ele><time>2026-04-11T09:07:20.001Z</time></trkpt><trkpt lat="42.55384667722737" lon="12.006483018262328"><ele>505.33333333333337</ele><time>2026-04-11T09:07:21.001Z</time></trkpt><trkpt lat="42.55392784372908" lon="12.006694870706797"><ele>511.66666666666663</ele><time>2026-04-11T09:07:22.001Z</time></trkpt><trkpt lat="42.55400806110262" lon="12.006904245873713"><ele>518.0</ele><time>2026-04-11T09:07:23.001Z</time></trkpt><trkpt lat="42.55408551343195" lon="12.007106403971225"><ele>518.0</ele><time>2026-04-11T09:07:24.001Z</time></trkpt><trkpt lat="42.55415476393006" lon="12.007297874315128"><ele>518.0</ele><time>2026-04-11T09:07:25.001Z</time></trkpt><trkpt lat="42.55420308928951" lon="12.007484654894206"><ele>518.0</ele><time>2026-04-11T09:07:26.001Z</time></trkpt><trkpt lat="42.554228313031146" lon="12.007694005284558"><ele>517.3333333333333</ele><time>2026-04-11T09:07:27Z</time></trkpt><trkpt lat="42.55423731270514" lon="12.007911938934617"><ele>516.6666666666666</ele><time>2026-04-11T09:07:28Z</time></trkpt><trkpt lat="42.55423861979266" lon="12.00813553096028"><ele>516.0</ele><time>2026-04-11T09:07:29Z</time></trkpt><trkpt lat="42.55423911804552" lon="12.00836343249911"><ele>516.0</ele><time>2026-04-11T09:07:30Z</time></trkpt><trkpt lat="42.554239447301306" lon="12.008596807209923"><ele>516.0</ele><time>2026-04-11T09:07:31Z</time></trkpt><trkpt lat="42.554252706709576" lon="12.008835622454479"><ele>516.0</ele><time>2026-04-11T09:07:32Z</time></trkpt><trkpt lat="42.554236484194064" lon="12.00906880081863"><ele>516.0</ele><time>2026-04-11T09:07:33Z</time></trkpt><trkpt lat="42.55418005698843" lon="12.00931734806117"><ele>516.0</ele><time>2026-04-11T09:07:34Z</time></trkpt><trkpt lat="42.554131951715114" lon="12.009580857819152"><ele>516.0</ele><time>2026-04-11T09:07:35Z</time></trkpt><trkpt lat="42.554091158521004" lon="12.009835683430877"><ele>517.0</ele><time>2026-04-11T09:07:36Z</time></trkpt><trkpt lat="42.55403567262363" lon="12.010056627116823"><ele>518.0</ele><time>2026-04-11T09:07:37Z</time></trkpt><trkpt lat="42.55397144296275" lon="12.010261450115266"><ele>519.0</ele><time>2026-04-11T09:07:38Z</time></trkpt><trkpt lat="42.55387168585945" lon="12.01045970655244"><ele>519.0</ele><time>2026-04-11T09:07:39Z</time></trkpt><trkpt lat="42.55375416755736" lon="12.010622279830805"><ele>519.0</ele><time>2026-04-11T09:07:40Z</time></trkpt><trkpt lat="42.55364043290428" lon="12.010752595069473"><ele>519.0</ele><time>2026-04-11T09:07:41Z</time></trkpt><trkpt lat="42.55354413301111" lon="12.010895129845858"><ele>518.75</ele><time>2026-04-11T09:07:42Z</time></trkpt><trkpt lat="42.55346448598038" lon="12.01103756158816"><ele>518.5</ele><time>2026-04-11T09:07:43Z</time></trkpt><trkpt lat="42.55341327519215" lon="12.011207649715729"><ele>518.25</ele><time>2026-04-11T09:07:44Z</time></trkpt><trkpt lat="42.5533580706872" lon="12.0113949875712"><ele>518.0</ele><time>2026-04-11T09:07:45Z</time></trkpt><trkpt lat="42.553316156159745" lon="12.011604641129875"><ele>519.6666666666666</ele><time>2026-04-11T09:07:46Z</time></trkpt><trkpt lat="42.553273585686064" lon="12.011828875620173"><ele>521.3333333333334</ele><time>2026-04-11T09:07:47Z</time></trkpt><trkpt lat="42.553240857305916" lon="12.012057960019845"><ele>523.0</ele><time>2026-04-11T09:07:48Z</time></trkpt><trkpt lat="42.55317739457174" lon="12.012263546430455"><ele>523.0</ele><time>2026-04-11T09:07:49Z</time></trkpt><trkpt lat="42.553113578787304" lon="12.012469491297125"><ele>523.0</ele><time>2026-04-11T09:07:50Z</time></trkpt><trkpt lat="42.553036566760156" lon="12.012679308917297"><ele>523.0</ele><time>2026-04-11T09:07:51Z</time></trkpt><trkpt lat="42.5529451869832" lon="12.012896758163118"><ele>517.0</ele><time>2026-04-11T09:07:52Z</time></trkpt><trkpt lat="42.55286611358266" lon="12.013092708523368"><ele>511.0</ele><time>2026-04-11T09:07:53Z</time></trkpt><trkpt lat="42.55280905398257" lon="12.013290554402172"><ele>505.0</ele><time>2026-04-11T09:07:54Z</time></trkpt><trkpt lat="42.552793184330895" lon="12.013510400916408"><ele>505.0</ele><time>2026-04-11T09:07:55Z</time></trkpt><trkpt lat="42.552818531897366" lon="12.013735163220232"><ele>505.0</ele><time>2026-04-11T09:07:56Z</time></trkpt><trkpt lat="42.552872972003996" lon="12.013966798960663"><ele>505.0</ele><time>2026-04-11T09:07:57Z</time></trkpt><trkpt lat="42.55294381519527" lon="12.014205603463603"><ele>517.0</ele><time>2026-04-11T09:07:58Z</time></trkpt><trkpt lat="42.55300117864237" lon="12.014429927975504"><ele>529.0</ele><time>2026-04-11T09:07:59Z</time></trkpt><trkpt lat="42.55302642146687" lon="12.014651140650995"><ele>541.0</ele><time>2026-04-11T09:08:00Z</time></trkpt><trkpt lat="42.553005422815616" lon="12.014877436289147"><ele>540.6666666666667</ele><time>2026-04-11T09:08:01Z</time></trkpt><trkpt lat="42.552953230633314" lon="12.015119347989483"><ele>540.3333333333334</ele><time>2026-04-11T09:08:02Z</time></trkpt><trkpt lat="42.55289228080202" lon="12.015372076617362"><ele>540.0</ele><time>2026-04-11T09:08:03Z</time></trkpt><trkpt lat="42.552833416066434" lon="12.015636501661389"><ele>531.3333333333334</ele><time>2026-04-11T09:08:04Z</time></trkpt><trkpt lat="42.55277430234304" lon="12.015902858274243"><ele>522.6666666666667</ele><time>2026-04-11T09:08:05Z</time></trkpt><trkpt lat="42.552710687214784" lon="12.016146988945566"><ele>514.0</ele><time>2026-04-11T09:08:06Z</time></trkpt><trkpt lat="42.55261785165551" lon="12.016369380235275"><ele>514.0</ele><time>2026-04-11T09:08:07Z</time></trkpt><trkpt lat="42.552503405572274" lon="12.016562721190786"><ele>514.0</ele><time>2026-04-11T09:08:08Z</time></trkpt><trkpt lat="42.55241170084051" lon="12.016758800880865"><ele>514.0</ele><time>2026-04-11T09:08:09Z</time></trkpt><trkpt lat="42.552371047744586" lon="12.016971661066037"><ele>517.6666666666667</ele><time>2026-04-11T09:08:10Z</time></trkpt><trkpt lat="42.552389272682696" lon="12.017198375784298"><ele>521.3333333333334</ele><time>2026-04-11T09:08:11Z</time></trkpt><trkpt lat="42.552434208491604" lon="12.017421375327103"><ele>525.0</ele><time>2026-04-11T09:08:12Z</time></trkpt><trkpt lat="42.552491934597334" lon="12.017659409074698"><ele>525.0</ele><time>2026-04-11T09:08:13Z</time></trkpt><trkpt lat="42.552562750736435" lon="12.017902595073933"><ele>525.0</ele><time>2026-04-11T09:08:14Z</time></trkpt><trkpt lat="42.55262463742135" lon="12.018141128531958"><ele>525.0</ele><time>2026-04-11T09:08:15Z</time></trkpt><trkpt lat="42.55266096092877" lon="12.018374587769085"><ele>524.3333333333334</ele><time>2026-04-11T09:08:16Z</time></trkpt><trkpt lat="42.55265298184848" lon="12.018613448538654"><ele>523.6666666666667</ele><time>2026-04-11T09:08:17Z</time></trkpt><trkpt lat="42.55259371045474" lon="12.01883740344728"><ele>523.0</ele><time>2026-04-11T09:08:18Z</time></trkpt><trkpt lat="42.55250044847812" lon="12.019039898897846"><ele>526.0</ele><time>2026-04-11T09:08:19Z</time></trkpt><trkpt lat="42.55239979517384" lon="12.019206440804576"><ele>529.0</ele><time>2026-04-11T09:08:20Z</time></trkpt><trkpt lat="42.55225335243426" lon="12.019312037576968"><ele>532.0</ele><time>2026-04-11T09:08:21Z</time></trkpt><trkpt lat="42.55210426115242" lon="12.019401592703433"><ele>527.75</ele><time>2026-04-11T09:08:22Z</time></trkpt><trkpt lat="42.55198560720569" lon="12.01952970203677"><ele>523.5</ele><time>2026-04-11T09:08:23Z</time></trkpt><trkpt lat="42.551908858639166" lon="12.019693077090343"><ele>519.25</ele><time>2026-04-11T09:08:24Z</time></trkpt><trkpt lat="42.55188303208139" lon="12.019880283120639"><ele>515.0</ele><time>2026-04-11T09:08:25Z</time></trkpt><trkpt lat="42.5518995758131" lon="12.020085834712994"><ele>515.0</ele><time>2026-04-11T09:08:26Z</time></trkpt><trkpt lat="42.551940898601615" lon="12.020299247371643"><ele>515.0</ele><time>2026-04-11T09:08:27Z</time></trkpt><trkpt lat="42.55201068123973" lon="12.02051086258978"><ele>515.0</ele><time>2026-04-11T09:08:28Z</time></trkpt><trkpt lat="42.55208143281504" lon="12.020735925279617"><ele>525.3333333333333</ele><time>2026-04-11T09:08:29Z</time></trkpt><trkpt lat="42.55212486099435" lon="12.020987635219605"><ele>535.6666666666666</ele><time>2026-04-11T09:08:30Z</time></trkpt><trkpt lat="42.55216949190783" lon="12.02121387483269"><ele>546.0</ele><time>2026-04-11T09:08:31Z</time></trkpt><trkpt lat="42.552171599438076" lon="12.021448209351924"><ele>544.3333333333334</ele><time>2026-04-11T09:08:32Z</time></trkpt><trkpt lat="42.552167340401056" lon="12.021691999660069"><ele>542.6666666666667</ele><time>2026-04-11T09:08:33Z</time></trkpt><trkpt lat="42.5521714513415" lon="12.021927126125961"><ele>541.0</ele><time>2026-04-11T09:08:34Z</time></trkpt><trkpt lat="42.55217364734889" lon="12.022157812378138"><ele>541.0</ele><time>2026-04-11T09:08:35.001Z</time></trkpt><trkpt lat="42.552165931668" lon="12.02238229245284"><ele>541.0</ele><time>2026-04-11T09:08:36Z</time></trkpt><trkpt lat="42.55212035366303" lon="12.022599300165943"><ele>541.0</ele><time>2026-04-11T09:08:37.001Z</time></trkpt><trkpt lat="42.5520430269963" lon="12.022802218573295"><ele>537.3333333333334</ele><time>2026-04-11T09:08:38.001Z</time></trkpt><trkpt lat="42.55194940916141" lon="12.022996854389804"><ele>533.6666666666666</ele><time>2026-04-11T09:08:39.001Z</time></trkpt><trkpt lat="42.55184923415542" lon="12.023194182348814"><ele>530.0</ele><time>2026-04-11T09:08:40.001Z</time></trkpt><trkpt lat="42.551742653887636" lon="12.023395006373004"><ele>530.0</ele><time>2026-04-11T09:08:41.001Z</time></trkpt><trkpt lat="42.55163682634584" lon="12.02360457020109"><ele>530.0</ele><time>2026-04-11T09:08:42.001Z</time></trkpt><trkpt lat="42.55153024308812" lon="12.023811128685443"><ele>530.0</ele><time>2026-04-11T09:08:43.001Z</time></trkpt><trkpt lat="42.55142523998565" lon="12.024008567894784"><ele>530.6666666666666</ele><time>2026-04-11T09:08:44.001Z</time></trkpt><trkpt lat="42.55131121986468" lon="12.02420140707961"><ele>531.3333333333334</ele><time>2026-04-11T09:08:45.001Z</time></trkpt><trkpt lat="42.55118032665145" lon="12.024378201139172"><ele>532.0</ele><time>2026-04-11T09:08:46.001Z</time></trkpt><trkpt lat="42.551026445161796" lon="12.024535616835987"><ele>529.6666666666667</ele><time>2026-04-11T09:08:47.001Z</time></trkpt><trkpt lat="42.550846582307436" lon="12.024673063368521"><ele>527.3333333333334</ele><time>2026-04-11T09:08:48.001Z</time></trkpt><trkpt lat="42.55067213354935" lon="12.024800470236695"><ele>525.0</ele><time>2026-04-11T09:08:49.001Z</time></trkpt><trkpt lat="42.550531159591365" lon="12.024929957332025"><ele>524.5</ele><time>2026-04-11T09:08:50.001Z</time></trkpt><trkpt lat="42.55042969102062" lon="12.0250787505094"><ele>524.0</ele><time>2026-04-11T09:08:51.001Z</time></trkpt><trkpt lat="42.55038663979149" lon="12.025238089026288"><ele>523.5</ele><time>2026-04-11T09:08:52.001Z</time></trkpt><trkpt lat="42.55037898918224" lon="12.025431778944794"><ele>523.0</ele><time>2026-04-11T09:08:53.001Z</time></trkpt><trkpt lat="42.55037278748182" lon="12.025667410868252"><ele>525.0</ele><time>2026-04-11T09:08:54.001Z</time></trkpt><trkpt lat="42.55035839300801" lon="12.025930805896492"><ele>527.0</ele><time>2026-04-11T09:08:55.001Z</time></trkpt><trkpt lat="42.55034668843009" lon="12.026213486324625"><ele>529.0</ele><time>2026-04-11T09:08:56.001Z</time></trkpt><trkpt lat="42.55033211549216" lon="12.026509572659668"><ele>530.6666666666667</ele><time>2026-04-11T09:08:57.001Z</time></trkpt><trkpt lat="42.550321395551045" lon="12.026779354698817"><ele>532.3333333333334</ele><time>2026-04-11T09:08:58.001Z</time></trkpt><trkpt lat="42.55034461743112" lon="12.027036607803007"><ele>534.0</ele><time>2026-04-11T09:08:59.001Z</time></trkpt><trkpt lat="42.550416862077874" lon="12.027298494914046"><ele>534.0</ele><time>2026-04-11T09:09:00.001Z</time></trkpt><trkpt lat="42.55052546584599" lon="12.027562117477187"><ele>534.0</ele><time>2026-04-11T09:09:01.001Z</time></trkpt><trkpt lat="42.55061428858327" lon="12.027783929856117"><ele>534.0</ele><time>2026-04-11T09:09:02.001Z</time></trkpt><trkpt lat="42.55069163346688" lon="12.02795668978891"><ele>534.0</ele><time>2026-04-11T09:09:03.001Z</time></trkpt><trkpt lat="42.550703665199" lon="12.028154486648026"><ele>534.0</ele><time>2026-04-11T09:09:04.001Z</time></trkpt><trkpt lat="42.55066037352472" lon="12.02831185849398"><ele>534.0</ele><time>2026-04-11T09:09:05.001Z</time></trkpt><trkpt lat="42.550565108308064" lon="12.028438414543961"><ele>534.0</ele><time>2026-04-11T09:09:06.001Z</time></trkpt><trkpt lat="42.550435414173926" lon="12.028544586219493"><ele>533.0</ele><time>2026-04-11T09:09:07.001Z</time></trkpt><trkpt lat="42.550273354198" lon="12.028651176587088"><ele>532.0</ele><time>2026-04-11T09:09:08.001Z</time></trkpt><trkpt lat="42.55010409718369" lon="12.028763463580596"><ele>531.0</ele><time>2026-04-11T09:09:09.001Z</time></trkpt><trkpt lat="42.5499423525749" lon="12.028875226829566"><ele>531.0</ele><time>2026-04-11T09:09:10.001Z</time></trkpt><trkpt lat="42.54978710001795" lon="12.02899720016827"><ele>531.0</ele><time>2026-04-11T09:09:11.001Z</time></trkpt><trkpt lat="42.54962055177973" lon="12.029123685843174"><ele>531.0</ele><time>2026-04-11T09:09:12.001Z</time></trkpt><trkpt lat="42.549441682331164" lon="12.029269632390982"><ele>531.0</ele><time>2026-04-11T09:09:13.001Z</time></trkpt><trkpt lat="42.549259705368556" lon="12.029434771820428"><ele>531.0</ele><time>2026-04-11T09:09:14.001Z</time></trkpt><trkpt lat="42.549081109990446" lon="12.02960647611597"><ele>531.0</ele><time>2026-04-11T09:09:15.001Z</time></trkpt><trkpt lat="42.54890588961127" lon="12.02977718600715"><ele>531.0</ele><time>2026-04-11T09:09:16.001Z</time></trkpt><trkpt lat="42.54872912143166" lon="12.029958819344355"><ele>531.0</ele><time>2026-04-11T09:09:17.001Z</time></trkpt><trkpt lat="42.54856142555345" lon="12.03015260830633"><ele>531.0</ele><time>2026-04-11T09:09:18.001Z</time></trkpt><trkpt lat="42.54840606358444" lon="12.030315613738397"><ele>532.6666666666666</ele><time>2026-04-11T09:09:19.001Z</time></trkpt><trkpt lat="42.5482256734018" lon="12.030407007375477"><ele>534.3333333333333</ele><time>2026-04-11T09:09:20.001Z</time></trkpt><trkpt lat="42.548016845112684" lon="12.03043583699662"><ele>536.0</ele><time>2026-04-11T09:09:21.001Z</time></trkpt><trkpt lat="42.547803845964346" lon="12.03043597005335"><ele>538.25</ele><time>2026-04-11T09:09:22.001Z</time></trkpt><trkpt lat="42.54763385908407" lon="12.030418959534995"><ele>540.5</ele><time>2026-04-11T09:09:23.001Z</time></trkpt><trkpt lat="42.54749335218788" lon="12.0304395634763"><ele>542.75</ele><time>2026-04-11T09:09:24.001Z</time></trkpt><trkpt lat="42.547368391577706" lon="12.0305168069268"><ele>545.0</ele><time>2026-04-11T09:09:25.001Z</time></trkpt><trkpt lat="42.54725035664657" lon="12.03063433027956"><ele>545.0</ele><time>2026-04-11T09:09:26.001Z</time></trkpt><trkpt lat="42.54711525641632" lon="12.030735202166564"><ele>545.0</ele><time>2026-04-11T09:09:27.001Z</time></trkpt><trkpt lat="42.546948072907014" lon="12.030814188124323"><ele>545.0</ele><time>2026-04-11T09:09:28.001Z</time></trkpt><trkpt lat="42.546775507319346" lon="12.030884041847393"><ele>548.6666666666666</ele><time>2026-04-11T09:09:29.001Z</time></trkpt><trkpt lat="42.5466005652226" lon="12.030971915189683"><ele>552.3333333333334</ele><time>2026-04-11T09:09:30.001Z</time></trkpt><trkpt lat="42.54642332066802" lon="12.031031855696664"><ele>556.0</ele><time>2026-04-11T09:09:31.001Z</time></trkpt><trkpt lat="42.54623492139875" lon="12.03103505355373"><ele>557.6666666666667</ele><time>2026-04-11T09:09:32.001Z</time></trkpt><trkpt lat="42.546035248418406" lon="12.030995840022031"><ele>559.3333333333334</ele><time>2026-04-11T09:09:33.001Z</time></trkpt><trkpt lat="42.54584592921265" lon="12.030972002942427"><ele>561.0</ele><time>2026-04-11T09:09:34.001Z</time></trkpt><trkpt lat="42.545675146651234" lon="12.030966805736737"><ele>561.0</ele><time>2026-04-11T09:09:35.001Z</time></trkpt><trkpt lat="42.54551654654714" lon="12.030969513763816"><ele>561.0</ele><time>2026-04-11T09:09:36.001Z</time></trkpt><trkpt lat="42.54537297589741" lon="12.030986858335455"><ele>561.0</ele><time>2026-04-11T09:09:37.001Z</time></trkpt><trkpt lat="42.545245137089104" lon="12.031026752784777"><ele>561.0</ele><time>2026-04-11T09:09:38.001Z</time></trkpt><trkpt lat="42.545125474010405" lon="12.031078291964857"><ele>561.75</ele><time>2026-04-11T09:09:39.001Z</time></trkpt><trkpt lat="42.5450051464796" lon="12.031138620756442"><ele>562.5</ele><time>2026-04-11T09:09:40.001Z</time></trkpt><trkpt lat="42.54486564042742" lon="12.031196504754114"><ele>563.25</ele><time>2026-04-11T09:09:41.001Z</time></trkpt><trkpt lat="42.54470747426428" lon="12.031226620163977"><ele>564.0</ele><time>2026-04-11T09:09:42Z</time></trkpt><trkpt lat="42.54453808337766" lon="12.031232461036156"><ele>564.6666666666666</ele><time>2026-04-11T09:09:43Z</time></trkpt><trkpt lat="42.5443764927716" lon="12.03123884669965"><ele>565.3333333333333</ele><time>2026-04-11T09:09:44Z</time></trkpt><trkpt lat="42.54422383993352" lon="12.031240915030802"><ele>566.0</ele><time>2026-04-11T09:09:45Z</time></trkpt><trkpt lat="42.54407930065718" lon="12.031250661001181"><ele>566.0</ele><time>2026-04-11T09:09:46Z</time></trkpt><trkpt lat="42.54395026659097" lon="12.03127258247366"><ele>566.0</ele><time>2026-04-11T09:09:47Z</time></trkpt><trkpt lat="42.54384094096307" lon="12.03129388670514"><ele>566.0</ele><time>2026-04-11T09:09:48Z</time></trkpt><trkpt lat="42.54374951192772" lon="12.031318668003381"><ele>566.0</ele><time>2026-04-11T09:09:49Z</time></trkpt><trkpt lat="42.543678538853364" lon="12.0313518441805"><ele>566.0</ele><time>2026-04-11T09:09:50Z</time></trkpt><trkpt lat="42.543593001101605" lon="12.031393761354089"><ele>566.8</ele><time>2026-04-11T09:09:52Z</time></trkpt><trkpt lat="42.543526799444365" lon="12.031409652921235"><ele>567.6</ele><time>2026-04-11T09:09:59Z</time></trkpt><trkpt lat="42.54342839760906" lon="12.031452010508769"><ele>568.4</ele><time>2026-04-11T09:10:01Z</time></trkpt><trkpt lat="42.54334384957212" lon="12.031506505144637"><ele>569.2</ele><time>2026-04-11T09:10:02Z</time></trkpt><trkpt lat="42.54322716174841" lon="12.031533819498568"><ele>570.0</ele><time>2026-04-11T09:10:03Z</time></trkpt><trkpt lat="42.543094302979235" lon="12.031544759848975"><ele>570.0</ele><time>2026-04-11T09:10:04Z</time></trkpt><trkpt lat="42.54295076603513" lon="12.031576361409682"><ele>570.0</ele><time>2026-04-11T09:10:05Z</time></trkpt><trkpt lat="42.54282466166274" lon="12.031605826346071"><ele>570.0</ele><time>2026-04-11T09:10:06Z</time></trkpt><trkpt lat="42.54270587299327" lon="12.03161115896118"><ele>570.0</ele><time>2026-04-11T09:10:07Z</time></trkpt><trkpt lat="42.542580285820904" lon="12.031622828175768"><ele>570.0</ele><time>2026-04-11T09:10:08Z</time></trkpt><trkpt lat="42.5424511698771" lon="12.03164988208266"><ele>570.0</ele><time>2026-04-11T09:10:09Z</time></trkpt><trkpt lat="42.542335575870766" lon="12.031653378874466"><ele>570.0</ele><time>2026-04-11T09:10:10Z</time></trkpt><trkpt lat="42.5422428992258" lon="12.031671688219367"><ele>570.0</ele><time>2026-04-11T09:10:11Z</time></trkpt><trkpt lat="42.54215577950652" lon="12.031701221815593"><ele>570.0</ele><time>2026-04-11T09:10:12Z</time></trkpt><trkpt lat="42.54207362127082" lon="12.031741071642022"><ele>569.8333333333334</ele><time>2026-04-11T09:10:13Z</time></trkpt><trkpt lat="42.541992700775026" lon="12.031778855139574"><ele>569.6666666666666</ele><time>2026-04-11T09:10:14Z</time></trkpt><trkpt lat="42.541925966211764" lon="12.031835014371033"><ele>569.5</ele><time>2026-04-11T09:10:15Z</time></trkpt><trkpt lat="42.541859778800486" lon="12.031898744554214"><ele>569.3333333333333</ele><time>2026-04-11T09:10:16Z</time></trkpt><trkpt lat="42.54179544745726" lon="12.031954002142932"><ele>569.1666666666666</ele><time>2026-04-11T09:10:17Z</time></trkpt><trkpt lat="42.54173649547059" lon="12.0320066000606"><ele>569.0</ele><time>2026-04-11T09:10:18Z</time></trkpt><trkpt lat="42.54167154602477" lon="12.032050363340385"><ele>569.0</ele><time>2026-04-11T09:10:19Z</time></trkpt><trkpt lat="42.54160688823994" lon="12.032104728304423"><ele>569.0</ele><time>2026-04-11T09:10:20Z</time></trkpt><trkpt lat="42.54154185823228" lon="12.032163708688044"><ele>569.0</ele><time>2026-04-11T09:10:21Z</time></trkpt><trkpt lat="42.54148076797398" lon="12.03223064704246"><ele>569.0</ele><time>2026-04-11T09:10:22Z</time></trkpt><trkpt lat="42.54141779257912" lon="12.032264498653836"><ele>569.0</ele><time>2026-04-11T09:10:23Z</time></trkpt><trkpt lat="42.5413295560626" lon="12.032340377727492"><ele>569.0</ele><time>2026-04-11T09:10:25Z</time></trkpt><trkpt lat="42.54126036173962" lon="12.032409133985832"><ele>568.5</ele><time>2026-04-11T09:10:27Z</time></trkpt><trkpt lat="42.5411842552682" lon="12.032449219983459"><ele>568.0</ele><time>2026-04-11T09:10:29Z</time></trkpt><trkpt lat="42.54112828544914" lon="12.032504765898791"><ele>567.5</ele><time>2026-04-11T09:10:31Z</time></trkpt><trkpt lat="42.5409038862017" lon="12.032657641259725"><ele>567.0</ele><time>2026-04-11T09:10:35Z</time></trkpt><trkpt lat="42.54083294418575" lon="12.032693363403528"><ele>567.0</ele><time>2026-04-11T09:10:36Z</time></trkpt><trkpt lat="42.540753730094956" lon="12.032747305752581"><ele>567.0</ele><time>2026-04-11T09:10:38Z</time></trkpt><trkpt lat="42.54065895199848" lon="12.0328136711049"><ele>567.0</ele><time>2026-04-11T09:10:41Z</time></trkpt><trkpt lat="42.54061093989168" lon="12.03287408345214"><ele>567.0</ele><time>2026-04-11T09:10:42Z</time></trkpt><trkpt lat="42.54054940332062" lon="12.032912849395991"><ele>567.0</ele><time>2026-04-11T09:10:43Z</time></trkpt><trkpt lat="42.540455142835434" lon="12.032995553504746"><ele>567.0</ele><time>2026-04-11T09:10:45Z</time></trkpt><trkpt lat="42.54035821371436" lon="12.033055879052649"><ele>568.6666666666666</ele><time>2026-04-11T09:10:47Z</time></trkpt><trkpt lat="42.540298427735955" lon="12.033121944122936"><ele>570.3333333333334</ele><time>2026-04-11T09:10:49Z</time></trkpt><trkpt lat="42.54022203172113" lon="12.033206490379014"><ele>572.0</ele><time>2026-04-11T09:10:51Z</time></trkpt><trkpt lat="42.54017734668424" lon="12.033273077629733"><ele>573.6666666666667</ele><time>2026-04-11T09:10:52Z</time></trkpt><trkpt lat="42.54014826354438" lon="12.033349039226152"><ele>575.3333333333334</ele><time>2026-04-11T09:10:53Z</time></trkpt><trkpt lat="42.540116656904" lon="12.033495847854057"><ele>577.0</ele><time>2026-04-11T09:10:55Z</time></trkpt><trkpt lat="42.540100857621596" lon="12.0336117127877"><ele>577.1428571428571</ele><time>2026-04-11T09:10:58Z</time></trkpt><trkpt lat="42.54006336109664" lon="12.03371697265649"><ele>577.2857142857143</ele><time>2026-04-11T09:11:02Z</time></trkpt><trkpt lat="42.54000050574303" lon="12.033739242651126"><ele>577.4285714285714</ele><time>2026-04-11T09:11:06Z</time></trkpt><trkpt lat="42.53993357482916" lon="12.033760237775763"><ele>577.5714285714286</ele><time>2026-04-11T09:11:08.001Z</time></trkpt><trkpt lat="42.539872199337964" lon="12.033779375386944"><ele>577.7142857142857</ele><time>2026-04-11T09:11:09.001Z</time></trkpt><trkpt lat="42.539803327111045" lon="12.033792304010388"><ele>577.8571428571429</ele><time>2026-04-11T09:11:10.001Z</time></trkpt><trkpt lat="42.53972242680875" lon="12.033810842870174"><ele>578.0</ele><time>2026-04-11T09:11:11.001Z</time></trkpt><trkpt lat="42.53962444302153" lon="12.033833746283474"><ele>579.25</ele><time>2026-04-11T09:11:12.001Z</time></trkpt><trkpt lat="42.53952674092438" lon="12.033867231154648"><ele>580.5</ele><time>2026-04-11T09:11:13.001Z</time></trkpt><trkpt lat="42.53941432133719" lon="12.033896323144544"><ele>581.75</ele><time>2026-04-11T09:11:14.001Z</time></trkpt><trkpt lat="42.539297543559115" lon="12.03391645373511"><ele>583.0</ele><time>2026-04-11T09:11:15.001Z</time></trkpt><trkpt lat="42.53917542922198" lon="12.033939272549258"><ele>583.0</ele><time>2026-04-11T09:11:16.001Z</time></trkpt><trkpt lat="42.539053335063215" lon="12.03394626423679"><ele>583.0</ele><time>2026-04-11T09:11:17.001Z</time></trkpt><trkpt lat="42.538933466275104" lon="12.033948170750259"><ele>583.0</ele><time>2026-04-11T09:11:18.001Z</time></trkpt><trkpt lat="42.53880604936939" lon="12.033919299485126"><ele>583.0</ele><time>2026-04-11T09:11:19.001Z</time></trkpt><trkpt lat="42.53867525254886" lon="12.033842439478587"><ele>580.25</ele><time>2026-04-11T09:11:20.001Z</time></trkpt><trkpt lat="42.53855765308557" lon="12.033791562389007"><ele>577.5</ele><time>2026-04-11T09:11:21Z</time></trkpt><trkpt lat="42.538457007677295" lon="12.033751785780092"><ele>574.75</ele><time>2026-04-11T09:11:22Z</time></trkpt><trkpt lat="42.53835726530256" lon="12.033687930270359"><ele>572.0</ele><time>2026-04-11T09:11:23Z</time></trkpt><trkpt lat="42.538274315994215" lon="12.033582262759168"><ele>572.0</ele><time>2026-04-11T09:11:24Z</time></trkpt><trkpt lat="42.53820784606294" lon="12.033446989356163"><ele>572.0</ele><time>2026-04-11T09:11:25Z</time></trkpt><trkpt lat="42.53813597544952" lon="12.03331434162308"><ele>572.0</ele><time>2026-04-11T09:11:26Z</time></trkpt><trkpt lat="42.53804908196649" lon="12.033212212930874"><ele>572.0</ele><time>2026-04-11T09:11:27Z</time></trkpt><trkpt lat="42.537952027455084" lon="12.033139239601807"><ele>571.25</ele><time>2026-04-11T09:11:28Z</time></trkpt><trkpt lat="42.53783343799472" lon="12.03311910821121"><ele>570.5</ele><time>2026-04-11T09:11:29Z</time></trkpt><trkpt lat="42.53773797883089" lon="12.033143818026929"><ele>569.75</ele><time>2026-04-11T09:11:30Z</time></trkpt><trkpt lat="42.537638020381124" lon="12.033230009186457"><ele>569.0</ele><time>2026-04-11T09:11:31Z</time></trkpt><trkpt lat="42.53755328331827" lon="12.033345203259932"><ele>566.75</ele><time>2026-04-11T09:11:32Z</time></trkpt><trkpt lat="42.53750068280049" lon="12.033476006985953"><ele>564.5</ele><time>2026-04-11T09:11:33Z</time></trkpt><trkpt lat="42.53747349615134" lon="12.033623473778547"><ele>562.25</ele><time>2026-04-11T09:11:34Z</time></trkpt><trkpt lat="42.53751263204106" lon="12.033778917222174"><ele>560.0</ele><time>2026-04-11T09:11:35Z</time></trkpt><trkpt lat="42.53759831092104" lon="12.03394831372894"><ele>560.0</ele><time>2026-04-11T09:11:36Z</time></trkpt><trkpt lat="42.53769910281187" lon="12.03413131746159"><ele>560.0</ele><time>2026-04-11T09:11:37Z</time></trkpt><trkpt lat="42.53779321614674" lon="12.034283798965518"><ele>560.0</ele><time>2026-04-11T09:11:38Z</time></trkpt><trkpt lat="42.537909694095156" lon="12.034391569648777"><ele>560.5</ele><time>2026-04-11T09:11:39Z</time></trkpt><trkpt lat="42.53806485699405" lon="12.034459876217452"><ele>561.0</ele><time>2026-04-11T09:11:40Z</time></trkpt><trkpt lat="42.53819415724505" lon="12.034533483138247"><ele>561.5</ele><time>2026-04-11T09:11:41Z</time></trkpt><trkpt lat="42.53830314390777" lon="12.034638037562143"><ele>562.0</ele><time>2026-04-11T09:11:42Z</time></trkpt><trkpt lat="42.538368544608325" lon="12.034820180076444"><ele>558.3333333333334</ele><time>2026-04-11T09:11:43Z</time></trkpt><trkpt lat="42.53840797905059" lon="12.035025100294362"><ele>554.6666666666666</ele><time>2026-04-11T09:11:44Z</time></trkpt><trkpt lat="42.53844080242045" lon="12.035245223440546"><ele>551.0</ele><time>2026-04-11T09:11:45Z</time></trkpt><trkpt lat="42.53844587931625" lon="12.035419638645681"><ele>551.0</ele><time>2026-04-11T09:11:46Z</time></trkpt><trkpt lat="42.538446557061384" lon="12.035541020951278"><ele>551.0</ele><time>2026-04-11T09:11:47Z</time></trkpt><trkpt lat="42.5384448495453" lon="12.035662442118614"><ele>551.0</ele><time>2026-04-11T09:11:49Z</time></trkpt><trkpt lat="42.53835064780205" lon="12.03582987500772"><ele>551.0</ele><time>2026-04-11T09:11:51Z</time></trkpt><trkpt lat="42.53829370422729" lon="12.035932642377368"><ele>551.0</ele><time>2026-04-11T09:11:52Z</time></trkpt><trkpt lat="42.53822209431141" lon="12.036048552862033"><ele>550.4</ele><time>2026-04-11T09:11:53Z</time></trkpt><trkpt lat="42.538151939440674" lon="12.036150053165738"><ele>549.8</ele><time>2026-04-11T09:11:54Z</time></trkpt><trkpt lat="42.53807805134133" lon="12.036244041412196"><ele>549.1999999999999</ele><time>2026-04-11T09:11:55Z</time></trkpt><trkpt lat="42.53801823771383" lon="12.03632168884296"><ele>548.6</ele><time>2026-04-11T09:11:56Z</time></trkpt><trkpt lat="42.53794240748992" lon="12.036438027483305"><ele>548.0</ele><time>2026-04-11T09:11:58Z</time></trkpt><trkpt lat="42.53787438218695" lon="12.036547227669658"><ele>547.1999999999999</ele><time>2026-04-11T09:12:00Z</time></trkpt><trkpt lat="42.537811649560865" lon="12.036640556427256"><ele>546.4</ele><time>2026-04-11T09:12:02Z</time></trkpt><trkpt lat="42.5377489205404" lon="12.03667423376866"><ele>545.5999999999999</ele><time>2026-04-11T09:12:07Z</time></trkpt><trkpt lat="42.53767491004877" lon="12.036826237505268"><ele>544.8</ele><time>2026-04-11T09:12:10Z</time></trkpt><trkpt lat="42.537613888148975" lon="12.036912490582742"><ele>544.0</ele><time>2026-04-11T09:12:11Z</time></trkpt><trkpt lat="42.537540873797" lon="12.037002372219538"><ele>544.0</ele><time>2026-04-11T09:12:12Z</time></trkpt><trkpt lat="42.53746456947936" lon="12.037110768358211"><ele>544.0</ele><time>2026-04-11T09:12:13Z</time></trkpt><trkpt lat="42.53739117465535" lon="12.037217215065116"><ele>544.0</ele><time>2026-04-11T09:12:14Z</time></trkpt><trkpt lat="42.537320714194145" lon="12.037307427428308"><ele>544.0</ele><time>2026-04-11T09:12:15Z</time></trkpt><trkpt lat="42.53724425020658" lon="12.037402653548227"><ele>544.0</ele><time>2026-04-11T09:12:16Z</time></trkpt><trkpt lat="42.53716201265171" lon="12.0375145717717"><ele>543.3333333333334</ele><time>2026-04-11T09:12:17Z</time></trkpt><trkpt lat="42.53705643286784" lon="12.03767065178878"><ele>542.6666666666666</ele><time>2026-04-11T09:12:18Z</time></trkpt><trkpt lat="42.53691028261902" lon="12.037844236855655"><ele>542.0</ele><time>2026-04-11T09:12:19Z</time></trkpt><trkpt lat="42.536766657675244" lon="12.038040187245185"><ele>541.3333333333333</ele><time>2026-04-11T09:12:20Z</time></trkpt><trkpt lat="42.536629557181755" lon="12.038227199966144"><ele>540.6666666666666</ele><time>2026-04-11T09:12:21Z</time></trkpt><trkpt lat="42.53650151987572" lon="12.038401069446344"><ele>540.0</ele><time>2026-04-11T09:12:22Z</time></trkpt><trkpt lat="42.536383172797855" lon="12.038565860442398"><ele>540.0</ele><time>2026-04-11T09:12:23Z</time></trkpt><trkpt lat="42.53627267214932" lon="12.038738494134769"><ele>540.0</ele><time>2026-04-11T09:12:24Z</time></trkpt><trkpt lat="42.53614633489912" lon="12.038883490739725"><ele>540.0</ele><time>2026-04-11T09:12:25Z</time></trkpt><trkpt lat="42.53602771918163" lon="12.039016289464804"><ele>539.0</ele><time>2026-04-11T09:12:26Z</time></trkpt><trkpt lat="42.53591841750251" lon="12.039143425271142"><ele>538.0</ele><time>2026-04-11T09:12:27Z</time></trkpt><trkpt lat="42.53580629880175" lon="12.039270903008074"><ele>537.0</ele><time>2026-04-11T09:12:28Z</time></trkpt><trkpt lat="42.53570418224411" lon="12.039392888005121"><ele>536.0</ele><time>2026-04-11T09:12:29Z</time></trkpt><trkpt lat="42.535604627949766" lon="12.039520760738938"><ele>536.0</ele><time>2026-04-11T09:12:30Z</time></trkpt><trkpt lat="42.53549952843147" lon="12.039644301940335"><ele>536.0</ele><time>2026-04-11T09:12:31Z</time></trkpt><trkpt lat="42.5353975135307" lon="12.039766249089647"><ele>536.0</ele><time>2026-04-11T09:12:32Z</time></trkpt><trkpt lat="42.5352950152795" lon="12.039893637990998"><ele>536.0</ele><time>2026-04-11T09:12:33Z</time></trkpt><trkpt lat="42.53519499893734" lon="12.040021484706273"><ele>534.0</ele><time>2026-04-11T09:12:34Z</time></trkpt><trkpt lat="42.5350936325155" lon="12.040159514771474"><ele>532.0</ele><time>2026-04-11T09:12:35Z</time></trkpt><trkpt lat="42.53497748459768" lon="12.04030917896659"><ele>530.0</ele><time>2026-04-11T09:12:36Z</time></trkpt><trkpt lat="42.534832844934805" lon="12.040523369051002"><ele>530.0</ele><time>2026-04-11T09:12:37Z</time></trkpt><trkpt lat="42.53467707453053" lon="12.040770225523628"><ele>530.0</ele><time>2026-04-11T09:12:38Z</time></trkpt><trkpt lat="42.53451612346536" lon="12.041023420717186"><ele>528.0</ele><time>2026-04-11T09:12:39Z</time></trkpt><trkpt lat="42.53439037479111" lon="12.041263872674456"><ele>526.0</ele><time>2026-04-11T09:12:40Z</time></trkpt><trkpt lat="42.53426627995567" lon="12.041509706029627"><ele>524.0</ele><time>2026-04-11T09:12:41Z</time></trkpt><trkpt lat="42.53414922893719" lon="12.041745580742077"><ele>522.3333333333333</ele><time>2026-04-11T09:12:42Z</time></trkpt><trkpt lat="42.534032051891835" lon="12.041983210535186"><ele>520.6666666666666</ele><time>2026-04-11T09:12:43Z</time></trkpt><trkpt lat="42.533933148900815" lon="12.042179029888622"><ele>519.0</ele><time>2026-04-11T09:12:44Z</time></trkpt><trkpt lat="42.53386227264596" lon="12.042324545249173"><ele>519.0</ele><time>2026-04-11T09:12:45Z</time></trkpt><trkpt lat="42.53380694717374" lon="12.04245006542676"><ele>519.0</ele><time>2026-04-11T09:12:46Z</time></trkpt><trkpt lat="42.53374177495842" lon="12.042578087903165"><ele>519.0</ele><time>2026-04-11T09:12:47Z</time></trkpt><trkpt lat="42.53366521784664" lon="12.042725683994952"><ele>519.0</ele><time>2026-04-11T09:12:48Z</time></trkpt><trkpt lat="42.533571517486735" lon="12.04288875304588"><ele>516.3333333333334</ele><time>2026-04-11T09:12:49Z</time></trkpt><trkpt lat="42.533461190678494" lon="12.043067462167702"><ele>513.6666666666667</ele><time>2026-04-11T09:12:50Z</time></trkpt><trkpt lat="42.5333447240279" lon="12.043262143393221"><ele>511.0</ele><time>2026-04-11T09:12:51Z</time></trkpt><trkpt lat="42.5332190804527" lon="12.043478190572646"><ele>511.0</ele><time>2026-04-11T09:12:52Z</time></trkpt><trkpt lat="42.53308577991858" lon="12.04370839723233"><ele>511.0</ele><time>2026-04-11T09:12:53Z</time></trkpt><trkpt lat="42.53294133585951" lon="12.043951057868979"><ele>511.0</ele><time>2026-04-11T09:12:54Z</time></trkpt><trkpt lat="42.53279665177213" lon="12.044191084883048"><ele>508.0</ele><time>2026-04-11T09:12:55Z</time></trkpt><trkpt lat="42.53267226832968" lon="12.044427856378206"><ele>505.0</ele><time>2026-04-11T09:12:56Z</time></trkpt><trkpt lat="42.53257290239459" lon="12.044695721054595"><ele>502.0</ele><time>2026-04-11T09:12:57Z</time></trkpt><trkpt lat="42.532495742434484" lon="12.04499994540717"><ele>501.5</ele><time>2026-04-11T09:12:58Z</time></trkpt><trkpt lat="42.532431394713214" lon="12.045321111988507"><ele>501.0</ele><time>2026-04-11T09:12:59Z</time></trkpt><trkpt lat="42.53237040646148" lon="12.045645864540313"><ele>499.0</ele><time>2026-04-11T09:13:00Z</time></trkpt><trkpt lat="42.53230773143191" lon="12.045967540470988"><ele>497.0</ele><time>2026-04-11T09:13:01Z</time></trkpt><trkpt lat="42.53224105935984" lon="12.046280286084375"><ele>497.0</ele><time>2026-04-11T09:13:02Z</time></trkpt><trkpt lat="42.53217725011474" lon="12.04657750357836"><ele>497.0</ele><time>2026-04-11T09:13:03Z</time></trkpt><trkpt lat="42.5321125778393" lon="12.04686334693644"><ele>497.0</ele><time>2026-04-11T09:13:04Z</time></trkpt><trkpt lat="42.532038425809404" lon="12.04713432631713"><ele>493.66666666666663</ele><time>2026-04-11T09:13:05Z</time></trkpt><trkpt lat="42.531960478037185" lon="12.047394989921017"><ele>490.33333333333337</ele><time>2026-04-11T09:13:06Z</time></trkpt><trkpt lat="42.531876545835715" lon="12.047649904672353"><ele>487.0</ele><time>2026-04-11T09:13:07Z</time></trkpt><trkpt lat="42.53179405859482" lon="12.04791084336057"><ele>487.0</ele><time>2026-04-11T09:13:08Z</time></trkpt><trkpt lat="42.53172697576188" lon="12.048170257719097"><ele>487.0</ele><time>2026-04-11T09:13:09Z</time></trkpt><trkpt lat="42.531673336026294" lon="12.048424078733257"><ele>487.0</ele><time>2026-04-11T09:13:10Z</time></trkpt><trkpt lat="42.531622041494266" lon="12.048669238692437"><ele>487.33333333333337</ele><time>2026-04-11T09:13:11Z</time></trkpt><trkpt lat="42.531572821685685" lon="12.048908967296201"><ele>487.66666666666663</ele><time>2026-04-11T09:13:12Z</time></trkpt><trkpt lat="42.531531436794396" lon="12.049142623177962"><ele>488.0</ele><time>2026-04-11T09:13:13Z</time></trkpt><trkpt lat="42.5314861725899" lon="12.0493650794276"><ele>486.66666666666663</ele><time>2026-04-11T09:13:14Z</time></trkpt><trkpt lat="42.53144678861043" lon="12.049577547469125"><ele>485.33333333333337</ele><time>2026-04-11T09:13:15Z</time></trkpt><trkpt lat="42.5314096864679" lon="12.049771426179383"><ele>484.0</ele><time>2026-04-11T09:13:16Z</time></trkpt><trkpt lat="42.53135654094478" lon="12.049958956630626"><ele>483.25</ele><time>2026-04-11T09:13:17Z</time></trkpt><trkpt lat="42.53133140950723" lon="12.050152817642434"><ele>482.5</ele><time>2026-04-11T09:13:18Z</time></trkpt><trkpt lat="42.5312879491344" lon="12.050333565792933"><ele>481.75</ele><time>2026-04-11T09:13:19Z</time></trkpt><trkpt lat="42.53124678924319" lon="12.050525065769822"><ele>481.0</ele><time>2026-04-11T09:13:20Z</time></trkpt><trkpt lat="42.53120478398278" lon="12.050763055435791"><ele>480.0</ele><time>2026-04-11T09:13:21Z</time></trkpt><trkpt lat="42.531150457576146" lon="12.050985345978088"><ele>479.0</ele><time>2026-04-11T09:13:22Z</time></trkpt><trkpt lat="42.531099494115274" lon="12.051214816408999"><ele>478.0</ele><time>2026-04-11T09:13:23Z</time></trkpt><trkpt lat="42.5310526601831" lon="12.051463852642604"><ele>476.0</ele><time>2026-04-11T09:13:24Z</time></trkpt><trkpt lat="42.53100185955279" lon="12.051733735470817"><ele>474.0</ele><time>2026-04-11T09:13:25Z</time></trkpt><trkpt lat="42.53095147515493" lon="12.05201094405481"><ele>472.0</ele><time>2026-04-11T09:13:26Z</time></trkpt><trkpt lat="42.530895496478415" lon="12.052310512208313"><ele>471.33333333333337</ele><time>2026-04-11T09:13:27Z</time></trkpt><trkpt lat="42.53084380970923" lon="12.052583946591453"><ele>470.66666666666663</ele><time>2026-04-11T09:13:28Z</time></trkpt><trkpt lat="42.530801067291755" lon="12.052799071149336"><ele>470.0</ele><time>2026-04-11T09:13:29Z</time></trkpt><trkpt lat="42.53076475950226" lon="12.052997569999201"><ele>470.0</ele><time>2026-04-11T09:13:30Z</time></trkpt><trkpt lat="42.530704101530844" lon="12.053168039334764"><ele>470.0</ele><time>2026-04-11T09:13:31Z</time></trkpt><trkpt lat="42.53060214025807" lon="12.053309938840538"><ele>470.0</ele><time>2026-04-11T09:13:32Z</time></trkpt><trkpt lat="42.530440309167155" lon="12.053394645729037"><ele>468.66666666666663</ele><time>2026-04-11T09:13:33Z</time></trkpt><trkpt lat="42.53025146151451" lon="12.053442572125586"><ele>467.33333333333337</ele><time>2026-04-11T09:13:34Z</time></trkpt><trkpt lat="42.5300594737903" lon="12.053487292552685"><ele>466.0</ele><time>2026-04-11T09:13:35Z</time></trkpt><trkpt lat="42.52986597040571" lon="12.05352634833733"><ele>466.0</ele><time>2026-04-11T09:13:36Z</time></trkpt><trkpt lat="42.52966295421943" lon="12.053576798679932"><ele>466.0</ele><time>2026-04-11T09:13:37Z</time></trkpt><trkpt lat="42.529475462389875" lon="12.053630966377002"><ele>466.0</ele><time>2026-04-11T09:13:38Z</time></trkpt><trkpt lat="42.52929805712381" lon="12.053679533921054"><ele>464.6666666666667</ele><time>2026-04-11T09:13:39Z</time></trkpt><trkpt lat="42.529124514162525" lon="12.053726716629729"><ele>463.33333333333337</ele><time>2026-04-11T09:13:40Z</time></trkpt><trkpt lat="42.52895264770083" lon="12.05377489951732"><ele>462.0</ele><time>2026-04-11T09:13:41Z</time></trkpt><trkpt lat="42.52878490310925" lon="12.0538110153295"><ele>460.0</ele><time>2026-04-11T09:13:42Z</time></trkpt><trkpt lat="42.52861654867927" lon="12.053831038045244"><ele>458.0</ele><time>2026-04-11T09:13:43Z</time></trkpt><trkpt lat="42.5284591781418" lon="12.05382846172609"><ele>456.0</ele><time>2026-04-11T09:13:44Z</time></trkpt><trkpt lat="42.52831147316037" lon="12.053793888220962"><ele>456.0</ele><time>2026-04-11T09:13:45Z</time></trkpt><trkpt lat="42.52816500081019" lon="12.053735611847442"><ele>456.0</ele><time>2026-04-11T09:13:46Z</time></trkpt><trkpt lat="42.528014111117386" lon="12.053675568927103"><ele>456.0</ele><time>2026-04-11T09:13:47Z</time></trkpt><trkpt lat="42.52785490986258" lon="12.053622007074217"><ele>455.0</ele><time>2026-04-11T09:13:48Z</time></trkpt><trkpt lat="42.527690667003796" lon="12.05357685438817"><ele>454.0</ele><time>2026-04-11T09:13:49Z</time></trkpt><trkpt lat="42.52752228311125" lon="12.053535971765438"><ele>453.0</ele><time>2026-04-11T09:13:50Z</time></trkpt><trkpt lat="42.527356106300715" lon="12.053509724032022"><ele>453.0</ele><time>2026-04-11T09:13:51Z</time></trkpt><trkpt lat="42.52719449906584" lon="12.05349411113953"><ele>453.0</ele><time>2026-04-11T09:13:52Z</time></trkpt><trkpt lat="42.527038763994405" lon="12.053485967584656"><ele>453.0</ele><time>2026-04-11T09:13:53Z</time></trkpt><trkpt lat="42.52688502067447" lon="12.053477466233687"><ele>451.75</ele><time>2026-04-11T09:13:54Z</time></trkpt><trkpt lat="42.52673527301428" lon="12.053469095752945"><ele>450.5</ele><time>2026-04-11T09:13:55Z</time></trkpt><trkpt lat="42.52658689211374" lon="12.053463132517157"><ele>449.25</ele><time>2026-04-11T09:13:56Z</time></trkpt><trkpt lat="42.526439370184356" lon="12.05345530949528"><ele>448.0</ele><time>2026-04-11T09:13:57Z</time></trkpt><trkpt lat="42.52628867019662" lon="12.053457579108118"><ele>447.25</ele><time>2026-04-11T09:13:58Z</time></trkpt><trkpt lat="42.526134455338415" lon="12.053451961350248"><ele>446.5</ele><time>2026-04-11T09:13:59Z</time></trkpt><trkpt lat="42.52598448311095" lon="12.053451983448227"><ele>445.75</ele><time>2026-04-11T09:14:00Z</time></trkpt><trkpt lat="42.52585476571016" lon="12.053450012764863"><ele>445.0</ele><time>2026-04-11T09:14:01Z</time></trkpt><trkpt lat="42.525746460195776" lon="12.053446512781925"><ele>445.0</ele><time>2026-04-11T09:14:02Z</time></trkpt><trkpt lat="42.52564978203936" lon="12.05344242189637"><ele>445.0</ele><time>2026-04-11T09:14:03Z</time></trkpt><trkpt lat="42.525533899221884" lon="12.053422832180372"><ele>445.0</ele><time>2026-04-11T09:14:04Z</time></trkpt><trkpt lat="42.525388144895835" lon="12.053406161279614"><ele>445.0</ele><time>2026-04-11T09:14:05Z</time></trkpt><trkpt lat="42.52521778042032" lon="12.053335812431904"><ele>443.33333333333337</ele><time>2026-04-11T09:14:06Z</time></trkpt><trkpt lat="42.52503892860522" lon="12.053283164739225"><ele>441.66666666666663</ele><time>2026-04-11T09:14:07Z</time></trkpt><trkpt lat="42.524855001777816" lon="12.053172667275648"><ele>440.0</ele><time>2026-04-11T09:14:08Z</time></trkpt><trkpt lat="42.524695476260725" lon="12.053043744905352"><ele>440.0</ele><time>2026-04-11T09:14:09Z</time></trkpt><trkpt lat="42.52457327316896" lon="12.052877978075433"><ele>440.0</ele><time>2026-04-11T09:14:10Z</time></trkpt><trkpt lat="42.524468417725" lon="12.052728158225039"><ele>440.0</ele><time>2026-04-11T09:14:11Z</time></trkpt><trkpt lat="42.52440208003407" lon="12.052593634493252"><ele>440.0</ele><time>2026-04-11T09:14:12Z</time></trkpt><trkpt lat="42.524343887261786" lon="12.052493131077162"><ele>438.5</ele><time>2026-04-11T09:14:13Z</time></trkpt><trkpt lat="42.52428770590194" lon="12.05236945318316"><ele>437.0</ele><time>2026-04-11T09:14:14Z</time></trkpt><trkpt lat="42.52421022799282" lon="12.052235837679017"><ele>435.5</ele><time>2026-04-11T09:14:15Z</time></trkpt><trkpt lat="42.52413404158423" lon="12.052089267278468"><ele>434.0</ele><time>2026-04-11T09:14:16Z</time></trkpt><trkpt lat="42.52404528025337" lon="12.051924634563985"><ele>434.0</ele><time>2026-04-11T09:14:17Z</time></trkpt><trkpt lat="42.523944572663545" lon="12.051740211502448"><ele>434.0</ele><time>2026-04-11T09:14:18Z</time></trkpt><trkpt lat="42.52383864422183" lon="12.051550234382086"><ele>434.0</ele><time>2026-04-11T09:14:19Z</time></trkpt><trkpt lat="42.523701646635004" lon="12.051315173552954"><ele>431.5</ele><time>2026-04-11T09:14:20Z</time></trkpt><trkpt lat="42.52356706861297" lon="12.05103987617943"><ele>429.0</ele><time>2026-04-11T09:14:21Z</time></trkpt><trkpt lat="42.52344639427591" lon="12.050788290030821"><ele>427.33333333333337</ele><time>2026-04-11T09:14:22Z</time></trkpt><trkpt lat="42.52331765599649" lon="12.050559187425373"><ele>425.6666666666667</ele><time>2026-04-11T09:14:23Z</time></trkpt><trkpt lat="42.523204103104426" lon="12.050353325478701"><ele>424.0</ele><time>2026-04-11T09:14:24Z</time></trkpt><trkpt lat="42.52309789124569" lon="12.050163193162822"><ele>424.0</ele><time>2026-04-11T09:14:25Z</time></trkpt><trkpt lat="42.523002194301654" lon="12.049986485102432"><ele>424.0</ele><time>2026-04-11T09:14:26Z</time></trkpt><trkpt lat="42.52291697154823" lon="12.0498256742524"><ele>424.0</ele><time>2026-04-11T09:14:27Z</time></trkpt><trkpt lat="42.5228281834283" lon="12.049668534818375"><ele>422.75</ele><time>2026-04-11T09:14:28Z</time></trkpt><trkpt lat="42.522738322115906" lon="12.04951714471639"><ele>421.5</ele><time>2026-04-11T09:14:29Z</time></trkpt><trkpt lat="42.5226482752838" lon="12.049367161547252"><ele>420.25</ele><time>2026-04-11T09:14:30Z</time></trkpt><trkpt lat="42.52255555992892" lon="12.049226245671704"><ele>419.0</ele><time>2026-04-11T09:14:31Z</time></trkpt><trkpt lat="42.522452416198675" lon="12.049089432577775"><ele>417.25</ele><time>2026-04-11T09:14:32Z</time></trkpt><trkpt lat="42.52234842439421" lon="12.048957213732763"><ele>415.5</ele><time>2026-04-11T09:14:33Z</time></trkpt><trkpt lat="42.522233022315405" lon="12.048830980638797"><ele>413.75</ele><time>2026-04-11T09:14:34Z</time></trkpt><trkpt lat="42.522114044309426" lon="12.04870912315378"><ele>412.0</ele><time>2026-04-11T09:14:35Z</time></trkpt><trkpt lat="42.521989243493884" lon="12.048591676838946"><ele>411.25</ele><time>2026-04-11T09:14:36Z</time></trkpt><trkpt lat="42.52186262619909" lon="12.048480831271219"><ele>410.5</ele><time>2026-04-11T09:14:37Z</time></trkpt><trkpt lat="42.52173277256494" lon="12.048383584129603"><ele>409.75</ele><time>2026-04-11T09:14:38Z</time></trkpt><trkpt lat="42.52160283116879" lon="12.048297619488494"><ele>409.0</ele><time>2026-04-11T09:14:39Z</time></trkpt><trkpt lat="42.52147252270995" lon="12.048225013843796"><ele>408.25</ele><time>2026-04-11T09:14:40Z</time></trkpt><trkpt lat="42.52134046716638" lon="12.048160404359562"><ele>407.5</ele><time>2026-04-11T09:14:41Z</time></trkpt><trkpt lat="42.52120217512142" lon="12.04809987211453"><ele>406.75</ele><time>2026-04-11T09:14:42Z</time></trkpt><trkpt lat="42.52104897277599" lon="12.048049175536587"><ele>406.0</ele><time>2026-04-11T09:14:43Z</time></trkpt><trkpt lat="42.52089261041252" lon="12.04800595892311"><ele>406.0</ele><time>2026-04-11T09:14:44Z</time></trkpt><trkpt lat="42.52073622164059" lon="12.047974942386329"><ele>406.0</ele><time>2026-04-11T09:14:45Z</time></trkpt><trkpt lat="42.52058398066807" lon="12.047953750624615"><ele>406.0</ele><time>2026-04-11T09:14:46Z</time></trkpt><trkpt lat="42.52043403022742" lon="12.047947718402893"><ele>406.25</ele><time>2026-04-11T09:14:47Z</time></trkpt><trkpt lat="42.52028768142521" lon="12.047946848993266"><ele>406.5</ele><time>2026-04-11T09:14:48Z</time></trkpt><trkpt lat="42.52013720582617" lon="12.047957838120448"><ele>406.75</ele><time>2026-04-11T09:14:49Z</time></trkpt><trkpt lat="42.519990561232035" lon="12.047982430370602"><ele>407.0</ele><time>2026-04-11T09:14:50Z</time></trkpt><trkpt lat="42.519850654063674" lon="12.048022198343945"><ele>407.0</ele><time>2026-04-11T09:14:51Z</time></trkpt><trkpt lat="42.519709489979284" lon="12.048064892316376"><ele>407.0</ele><time>2026-04-11T09:14:52Z</time></trkpt><trkpt lat="42.51957317408672" lon="12.048117194397912"><ele>407.0</ele><time>2026-04-11T09:14:53Z</time></trkpt><trkpt lat="42.51944510762628" lon="12.048181547481216"><ele>407.0</ele><time>2026-04-11T09:14:54Z</time></trkpt><trkpt lat="42.51932133511028" lon="12.04825004783988"><ele>408.25</ele><time>2026-04-11T09:14:55Z</time></trkpt><trkpt lat="42.51920226571932" lon="12.048319518955129"><ele>409.5</ele><time>2026-04-11T09:14:56Z</time></trkpt><trkpt lat="42.519088883695744" lon="12.048392414149374"><ele>410.75</ele><time>2026-04-11T09:14:57Z</time></trkpt><trkpt lat="42.51899138456237" lon="12.048467367451321"><ele>412.0</ele><time>2026-04-11T09:14:58Z</time></trkpt><trkpt lat="42.51889735791089" lon="12.048537687814527"><ele>412.0</ele><time>2026-04-11T09:14:59Z</time></trkpt><trkpt lat="42.518805379084014" lon="12.04861735413574"><ele>412.0</ele><time>2026-04-11T09:15:00Z</time></trkpt><trkpt lat="42.518718090001045" lon="12.048690236273911"><ele>412.0</ele><time>2026-04-11T09:15:01Z</time></trkpt><trkpt lat="42.51863561568903" lon="12.048754249709363"><ele>412.0</ele><time>2026-04-11T09:15:02Z</time></trkpt><trkpt lat="42.518551308921936" lon="12.048834373087129"><ele>412.0</ele><time>2026-04-11T09:15:03Z</time></trkpt><trkpt lat="42.51845552617586" lon="12.048950510975077"><ele>412.0</ele><time>2026-04-11T09:15:04Z</time></trkpt><trkpt lat="42.51835283917059" lon="12.049088204280203"><ele>412.0</ele><time>2026-04-11T09:15:05Z</time></trkpt><trkpt lat="42.518220791740795" lon="12.0492504714914"><ele>412.0</ele><time>2026-04-11T09:15:06Z</time></trkpt><trkpt lat="42.51805725131888" lon="12.049427796662671"><ele>410.5</ele><time>2026-04-11T09:15:07Z</time></trkpt><trkpt lat="42.51787659918771" lon="12.04963024125323"><ele>409.0</ele><time>2026-04-11T09:15:08Z</time></trkpt><trkpt lat="42.5176829976874" lon="12.049851712566769"><ele>406.0</ele><time>2026-04-11T09:15:09Z</time></trkpt><trkpt lat="42.51748422903773" lon="12.0500762745779"><ele>403.0</ele><time>2026-04-11T09:15:10Z</time></trkpt><trkpt lat="42.51728205127951" lon="12.050303642542453"><ele>403.0</ele><time>2026-04-11T09:15:11Z</time></trkpt><trkpt lat="42.517088256842555" lon="12.050532105755154"><ele>403.0</ele><time>2026-04-11T09:15:12Z</time></trkpt><trkpt lat="42.51690162870428" lon="12.050750277928183"><ele>399.5</ele><time>2026-04-11T09:15:13Z</time></trkpt><trkpt lat="42.51672026826944" lon="12.050957705397249"><ele>396.0</ele><time>2026-04-11T09:15:14Z</time></trkpt><trkpt lat="42.51654171337384" lon="12.051159262327154"><ele>396.0</ele><time>2026-04-11T09:15:15Z</time></trkpt><trkpt lat="42.51636564912754" lon="12.051349806889043"><ele>396.0</ele><time>2026-04-11T09:15:16Z</time></trkpt><trkpt lat="42.51619851142616" lon="12.05153527526597"><ele>396.0</ele><time>2026-04-11T09:15:17Z</time></trkpt><trkpt lat="42.5160300038649" lon="12.05171643075613"><ele>393.0</ele><time>2026-04-11T09:15:18Z</time></trkpt><trkpt lat="42.51584939762527" lon="12.051897529145002"><ele>390.0</ele><time>2026-04-11T09:15:19Z</time></trkpt><trkpt lat="42.51565785864413" lon="12.052062569838107"><ele>390.0</ele><time>2026-04-11T09:15:20Z</time></trkpt><trkpt lat="42.51544982498011" lon="12.052215553685837"><ele>390.0</ele><time>2026-04-11T09:15:21Z</time></trkpt><trkpt lat="42.515240400610175" lon="12.052359214702665"><ele>389.0</ele><time>2026-04-11T09:15:22Z</time></trkpt><trkpt lat="42.515044669196094" lon="12.05248515903239"><ele>388.0</ele><time>2026-04-11T09:15:23Z</time></trkpt><trkpt lat="42.51487812546425" lon="12.052592100100336"><ele>387.0</ele><time>2026-04-11T09:15:24Z</time></trkpt><trkpt lat="42.51475367060754" lon="12.052672493426591"><ele>387.0</ele><time>2026-04-11T09:15:25Z</time></trkpt><trkpt lat="42.51462705714173" lon="12.05276220724546"><ele>387.0</ele><time>2026-04-11T09:15:26Z</time></trkpt><trkpt lat="42.51449760910227" lon="12.05284767055043"><ele>387.0</ele><time>2026-04-11T09:15:27Z</time></trkpt><trkpt lat="42.51437441410071" lon="12.052930290718548"><ele>387.0</ele><time>2026-04-11T09:15:28Z</time></trkpt><trkpt lat="42.51426115828347" lon="12.05300259985524"><ele>385.5</ele><time>2026-04-11T09:15:29Z</time></trkpt><trkpt lat="42.51414439255321" lon="12.053079248410073"><ele>384.0</ele><time>2026-04-11T09:15:30Z</time></trkpt><trkpt lat="42.514019472136006" lon="12.053166174090794"><ele>382.5</ele><time>2026-04-11T09:15:31Z</time></trkpt><trkpt lat="42.51388706902396" lon="12.053256686237825"><ele>381.0</ele><time>2026-04-11T09:15:32Z</time></trkpt><trkpt lat="42.51374229860697" lon="12.053349405196887"><ele>380.0</ele><time>2026-04-11T09:15:33Z</time></trkpt><trkpt lat="42.51359354850096" lon="12.053442569916875"><ele>379.0</ele><time>2026-04-11T09:15:34Z</time></trkpt><trkpt lat="42.51343710787916" lon="12.053541684908847"><ele>378.0</ele><time>2026-04-11T09:15:35Z</time></trkpt><trkpt lat="42.51328012858239" lon="12.053650293418785"><ele>378.0</ele><time>2026-04-11T09:15:36Z</time></trkpt><trkpt lat="42.51310535190982" lon="12.05377281011612"><ele>378.0</ele><time>2026-04-11T09:15:37Z</time></trkpt><trkpt lat="42.51290769636242" lon="12.053900571044554"><ele>378.0</ele><time>2026-04-11T09:15:38Z</time></trkpt><trkpt lat="42.51269693989724" lon="12.054028424280343"><ele>375.0</ele><time>2026-04-11T09:15:39Z</time></trkpt><trkpt lat="42.512476087906904" lon="12.054171463956454"><ele>372.0</ele><time>2026-04-11T09:15:40Z</time></trkpt><trkpt lat="42.51225137150297" lon="12.054331546196364"><ele>369.5</ele><time>2026-04-11T09:15:41Z</time></trkpt><trkpt lat="42.51202866573719" lon="12.05448645811896"><ele>367.0</ele><time>2026-04-11T09:15:42Z</time></trkpt><trkpt lat="42.51181444434874" lon="12.05464106160858"><ele>367.0</ele><time>2026-04-11T09:15:43Z</time></trkpt><trkpt lat="42.51160850911705" lon="12.054793632874551"><ele>367.0</ele><time>2026-04-11T09:15:44Z</time></trkpt><trkpt lat="42.511408539441575" lon="12.054944136726323"><ele>364.5</ele><time>2026-04-11T09:15:45Z</time></trkpt><trkpt lat="42.51120353615309" lon="12.055099722995397"><ele>362.0</ele><time>2026-04-11T09:15:46Z</time></trkpt><trkpt lat="42.5109956250785" lon="12.055251001337338"><ele>362.0</ele><time>2026-04-11T09:15:47Z</time></trkpt><trkpt lat="42.5107890735002" lon="12.055403021530264"><ele>362.0</ele><time>2026-04-11T09:15:48Z</time></trkpt><trkpt lat="42.5105825165507" lon="12.055555045538803"><ele>360.5</ele><time>2026-04-11T09:15:49Z</time></trkpt><trkpt lat="42.51038263590434" lon="12.055707948350534"><ele>359.0</ele><time>2026-04-11T09:15:50Z</time></trkpt><trkpt lat="42.510180769677966" lon="12.055854484907258"><ele>358.33333333333337</ele><time>2026-04-11T09:15:51Z</time></trkpt><trkpt lat="42.5099825172392" lon="12.055994172689319"><ele>357.6666666666667</ele><time>2026-04-11T09:15:52Z</time></trkpt><trkpt lat="42.50978666940529" lon="12.056136818896425"><ele>357.0</ele><time>2026-04-11T09:15:53Z</time></trkpt><trkpt lat="42.509594176232426" lon="12.05628499020539"><ele>356.0</ele><time>2026-04-11T09:15:54Z</time></trkpt><trkpt lat="42.50940383607817" lon="12.056434283927953"><ele>355.0</ele><time>2026-04-11T09:15:55Z</time></trkpt><trkpt lat="42.50920559990903" lon="12.056579149694576"><ele>354.0</ele><time>2026-04-11T09:15:56Z</time></trkpt><trkpt lat="42.50900234147531" lon="12.056722768581704"><ele>354.0</ele><time>2026-04-11T09:15:57Z</time></trkpt><trkpt lat="42.50879613355407" lon="12.05686654366065"><ele>354.0</ele><time>2026-04-11T09:15:58Z</time></trkpt><trkpt lat="42.50858222457364" lon="12.057006555681344"><ele>353.5</ele><time>2026-04-11T09:15:59Z</time></trkpt><trkpt lat="42.50836671030668" lon="12.057143164435209"><ele>353.0</ele><time>2026-04-11T09:16:00Z</time></trkpt><trkpt lat="42.508149143286424" lon="12.057277358664084"><ele>353.0</ele><time>2026-04-11T09:16:01Z</time></trkpt><trkpt lat="42.50793810710028" lon="12.05741350304491"><ele>353.0</ele><time>2026-04-11T09:16:02Z</time></trkpt><trkpt lat="42.50772866305491" lon="12.057544178561445"><ele>351.5</ele><time>2026-04-11T09:16:03Z</time></trkpt><trkpt lat="42.507519632528236" lon="12.057671890775202"><ele>350.0</ele><time>2026-04-11T09:16:04Z</time></trkpt><trkpt lat="42.507305048227146" lon="12.057796063386363"><ele>350.0</ele><time>2026-04-11T09:16:05Z</time></trkpt><trkpt lat="42.50708562895442" lon="12.057912939010855"><ele>350.0</ele><time>2026-04-11T09:16:06Z</time></trkpt><trkpt lat="42.50685941728528" lon="12.058023669866593"><ele>348.0</ele><time>2026-04-11T09:16:07Z</time></trkpt><trkpt lat="42.50662207424108" lon="12.05812910766557"><ele>346.0</ele><time>2026-04-11T09:16:08Z</time></trkpt><trkpt lat="42.506368451625484" lon="12.058237397757825"><ele>346.5</ele><time>2026-04-11T09:16:09Z</time></trkpt><trkpt lat="42.50610906653962" lon="12.058335471258038"><ele>347.0</ele><time>2026-04-11T09:16:10Z</time></trkpt><trkpt lat="42.505869705079334" lon="12.058437027914206"><ele>347.0</ele><time>2026-04-11T09:16:11Z</time></trkpt><trkpt lat="42.505627281228776" lon="12.058543889985243"><ele>347.0</ele><time>2026-04-11T09:16:12Z</time></trkpt><trkpt lat="42.505398045424236" lon="12.058732192925156"><ele>346.5</ele><time>2026-04-11T09:16:13Z</time></trkpt><trkpt lat="42.50515921354462" lon="12.058916362128564"><ele>346.0</ele><time>2026-04-11T09:16:14Z</time></trkpt><trkpt lat="42.504929910546075" lon="12.059116099668094"><ele>345.5</ele><time>2026-04-11T09:16:15Z</time></trkpt><trkpt lat="42.50471043889751" lon="12.059314311405574"><ele>345.0</ele><time>2026-04-11T09:16:16Z</time></trkpt><trkpt lat="42.50449215084361" lon="12.059513501274346"><ele>344.5</ele><time>2026-04-11T09:16:17Z</time></trkpt><trkpt lat="42.50426018152314" lon="12.059693806041"><ele>344.0</ele><time>2026-04-11T09:16:18Z</time></trkpt><trkpt lat="42.504010553047046" lon="12.059840767677896"><ele>344.0</ele><time>2026-04-11T09:16:19Z</time></trkpt><trkpt lat="42.50375122839359" lon="12.059967655042366"><ele>344.0</ele><time>2026-04-11T09:16:20Z</time></trkpt><trkpt lat="42.503492131236044" lon="12.060100685460965"><ele>344.0</ele><time>2026-04-11T09:16:21Z</time></trkpt><trkpt lat="42.503241284119014" lon="12.06023410167782"><ele>344.0</ele><time>2026-04-11T09:16:22Z</time></trkpt><trkpt lat="42.50299373999785" lon="12.060348114230518"><ele>344.0</ele><time>2026-04-11T09:16:23Z</time></trkpt><trkpt lat="42.502733224113115" lon="12.060454771269999"><ele>344.0</ele><time>2026-04-11T09:16:24Z</time></trkpt><trkpt lat="42.502460824074454" lon="12.06056075752025"><ele>344.0</ele><time>2026-04-11T09:16:25Z</time></trkpt><trkpt lat="42.502181391433474" lon="12.06066622254531"><ele>344.0</ele><time>2026-04-11T09:16:26Z</time></trkpt><trkpt lat="42.50190100356917" lon="12.060772619342538"><ele>342.5</ele><time>2026-04-11T09:16:27Z</time></trkpt><trkpt lat="42.501618290285435" lon="12.060882588539563"><ele>341.0</ele><time>2026-04-11T09:16:28Z</time></trkpt><trkpt lat="42.5013346065748" lon="12.060989097084175"><ele>339.0</ele><time>2026-04-11T09:16:29Z</time></trkpt><trkpt lat="42.50105200016069" lon="12.061093944532656"><ele>337.0</ele><time>2026-04-11T09:16:30Z</time></trkpt><trkpt lat="42.500769320855476" lon="12.061200693192697"><ele>337.0</ele><time>2026-04-11T09:16:31Z</time></trkpt><trkpt lat="42.500489305763615" lon="12.061304575574344"><ele>337.0</ele><time>2026-04-11T09:16:32Z</time></trkpt><trkpt lat="42.500209447919346" lon="12.061408102695736"><ele>332.5</ele><time>2026-04-11T09:16:33Z</time></trkpt><trkpt lat="42.49992653565237" lon="12.061513538283114"><ele>328.0</ele><time>2026-04-11T09:16:34Z</time></trkpt><trkpt lat="42.499646008692686" lon="12.06161912779124"><ele>326.0</ele><time>2026-04-11T09:16:35Z</time></trkpt><trkpt lat="42.49936746610545" lon="12.061723055895328"><ele>324.0</ele><time>2026-04-11T09:16:36Z</time></trkpt><trkpt lat="42.49908795562809" lon="12.061829918411693"><ele>324.0</ele><time>2026-04-11T09:16:37Z</time></trkpt><trkpt lat="42.498802601810866" lon="12.061937476944832"><ele>324.0</ele><time>2026-04-11T09:16:38Z</time></trkpt><trkpt lat="42.49851627516162" lon="12.062046683087035"><ele>321.0</ele><time>2026-04-11T09:16:39Z</time></trkpt><trkpt lat="42.49822619362731" lon="12.06215999037977"><ele>318.0</ele><time>2026-04-11T09:16:40Z</time></trkpt><trkpt lat="42.497936649530814" lon="12.062272133907584"><ele>318.0</ele><time>2026-04-11T09:16:41Z</time></trkpt><trkpt lat="42.49764419635436" lon="12.062383165477984"><ele>318.0</ele><time>2026-04-11T09:16:42Z</time></trkpt><trkpt lat="42.497353383623434" lon="12.062496694019927"><ele>317.0</ele><time>2026-04-11T09:16:43Z</time></trkpt><trkpt lat="42.497061043913405" lon="12.062609071393998"><ele>316.0</ele><time>2026-04-11T09:16:44Z</time></trkpt><trkpt lat="42.496769411232805" lon="12.0627225172823"><ele>316.0</ele><time>2026-04-11T09:16:45Z</time></trkpt><trkpt lat="42.49648096391321" lon="12.062836083675307"><ele>316.0</ele><time>2026-04-11T09:16:46Z</time></trkpt><trkpt lat="42.49619207536417" lon="12.062945008465684"><ele>315.0</ele><time>2026-04-11T09:16:47Z</time></trkpt><trkpt lat="42.49590414816931" lon="12.063055995862733"><ele>314.0</ele><time>2026-04-11T09:16:48Z</time></trkpt><trkpt lat="42.49561940226683" lon="12.06316555264022"><ele>313.0</ele><time>2026-04-11T09:16:49Z</time></trkpt><trkpt lat="42.4953376986663" lon="12.063275916267534"><ele>312.0</ele><time>2026-04-11T09:16:50Z</time></trkpt><trkpt lat="42.495057247842716" lon="12.063383328358732"><ele>312.0</ele><time>2026-04-11T09:16:51Z</time></trkpt><trkpt lat="42.494777059050115" lon="12.063480204337624"><ele>312.0</ele><time>2026-04-11T09:16:52Z</time></trkpt><trkpt lat="42.49449175737333" lon="12.06355256801764"><ele>311.5</ele><time>2026-04-11T09:16:53Z</time></trkpt><trkpt lat="42.49420313472103" lon="12.063604754153168"><ele>311.0</ele><time>2026-04-11T09:16:54Z</time></trkpt><trkpt lat="42.493910582266956" lon="12.0636428447672"><ele>311.0</ele><time>2026-04-11T09:16:55Z</time></trkpt><trkpt lat="42.49361969196109" lon="12.063669888794985"><ele>311.0</ele><time>2026-04-11T09:16:56Z</time></trkpt><trkpt lat="42.49334897758986" lon="12.063707381630245"><ele>311.0</ele><time>2026-04-11T09:16:57Z</time></trkpt><trkpt lat="42.49309202306055" lon="12.063761272886016"><ele>311.0</ele><time>2026-04-11T09:16:58Z</time></trkpt><trkpt lat="42.49284933792246" lon="12.063835361128492"><ele>313.5</ele><time>2026-04-11T09:16:59Z</time></trkpt><trkpt lat="42.49260920394938" lon="12.06394183270709"><ele>316.0</ele><time>2026-04-11T09:17:00Z</time></trkpt><trkpt lat="42.49236675326408" lon="12.064084710785917"><ele>316.0</ele><time>2026-04-11T09:17:01Z</time></trkpt><trkpt lat="42.49212139054294" lon="12.064253150751927"><ele>316.0</ele><time>2026-04-11T09:17:02Z</time></trkpt><trkpt lat="42.49187352782993" lon="12.06443691497767"><ele>316.0</ele><time>2026-04-11T09:17:03Z</time></trkpt><trkpt lat="42.491615262899764" lon="12.064629990539244"><ele>316.0</ele><time>2026-04-11T09:17:04Z</time></trkpt><trkpt lat="42.491354399527744" lon="12.064829121006618"><ele>316.5</ele><time>2026-04-11T09:17:05Z</time></trkpt><trkpt lat="42.4911001483971" lon="12.0650341830749"><ele>317.0</ele><time>2026-04-11T09:17:06Z</time></trkpt><trkpt lat="42.490864320087475" lon="12.065233740743215"><ele>317.0</ele><time>2026-04-11T09:17:07Z</time></trkpt><trkpt lat="42.49064460384282" lon="12.065423195433127"><ele>317.0</ele><time>2026-04-11T09:17:08Z</time></trkpt><trkpt lat="42.490440329744" lon="12.065601684751593"><ele>317.6666666666667</ele><time>2026-04-11T09:17:09Z</time></trkpt><trkpt lat="42.49024840719297" lon="12.065771319655711"><ele>318.3333333333333</ele><time>2026-04-11T09:17:10Z</time></trkpt><trkpt lat="42.490066960101714" lon="12.065935036367476"><ele>319.0</ele><time>2026-04-11T09:17:11Z</time></trkpt><trkpt lat="42.48989549070452" lon="12.066090759952184"><ele>319.0</ele><time>2026-04-11T09:17:12Z</time></trkpt><trkpt lat="42.48972493422368" lon="12.066230280230437"><ele>319.0</ele><time>2026-04-11T09:17:13Z</time></trkpt><trkpt lat="42.489552843836314" lon="12.06636452717423"><ele>319.0</ele><time>2026-04-11T09:17:14Z</time></trkpt><trkpt lat="42.489365486252524" lon="12.066505543600057"><ele>321.0</ele><time>2026-04-11T09:17:15Z</time></trkpt><trkpt lat="42.489144510777685" lon="12.06664000773216"><ele>323.0</ele><time>2026-04-11T09:17:16Z</time></trkpt><trkpt lat="42.488899433800306" lon="12.066749895204632"><ele>323.6666666666667</ele><time>2026-04-11T09:17:17Z</time></trkpt><trkpt lat="42.488678814263494" lon="12.066839850767959"><ele>324.3333333333333</ele><time>2026-04-11T09:17:18Z</time></trkpt><trkpt lat="42.48847776716257" lon="12.066943601598002"><ele>325.0</ele><time>2026-04-11T09:17:19Z</time></trkpt><trkpt lat="42.488273098792" lon="12.06706369939112"><ele>325.0</ele><time>2026-04-11T09:17:20Z</time></trkpt><trkpt lat="42.4880397962524" lon="12.067141236906103"><ele>325.0</ele><time>2026-04-11T09:17:21Z</time></trkpt><trkpt lat="42.487805437991966" lon="12.067241181597828"><ele>324.0</ele><time>2026-04-11T09:17:22Z</time></trkpt><trkpt lat="42.48757353313241" lon="12.067318880600236"><ele>323.0</ele><time>2026-04-11T09:17:23Z</time></trkpt><trkpt lat="42.487371703647355" lon="12.067398069537207"><ele>322.0</ele><time>2026-04-11T09:17:24Z</time></trkpt><trkpt lat="42.487179353790815" lon="12.067471340608938"><ele>321.0</ele><time>2026-04-11T09:17:25Z</time></trkpt><trkpt lat="42.4869835939506" lon="12.067547234293361"><ele>320.0</ele><time>2026-04-11T09:17:26Z</time></trkpt><trkpt lat="42.48676352494113" lon="12.067599204996695"><ele>319.0</ele><time>2026-04-11T09:17:27Z</time></trkpt><trkpt lat="42.48652544099075" lon="12.067679103796591"><ele>319.0</ele><time>2026-04-11T09:17:28Z</time></trkpt><trkpt lat="42.486276836446585" lon="12.067781432270431"><ele>319.0</ele><time>2026-04-11T09:17:29Z</time></trkpt><trkpt lat="42.48601922922398" lon="12.067863874346784"><ele>319.5</ele><time>2026-04-11T09:17:30Z</time></trkpt><trkpt lat="42.485774214907295" lon="12.067931093522148"><ele>320.0</ele><time>2026-04-11T09:17:31Z</time></trkpt><trkpt lat="42.48553445900428" lon="12.068007682481573"><ele>319.0</ele><time>2026-04-11T09:17:32Z</time></trkpt><trkpt lat="42.4852947210906" lon="12.068089973544652"><ele>318.0</ele><time>2026-04-11T09:17:33Z</time></trkpt><trkpt lat="42.48505242763815" lon="12.068173304500638"><ele>318.0</ele><time>2026-04-11T09:17:34Z</time></trkpt><trkpt lat="42.484802158446755" lon="12.068258012136663"><ele>318.0</ele><time>2026-04-11T09:17:35Z</time></trkpt><trkpt lat="42.48456180556181" lon="12.068340464285557"><ele>317.6666666666667</ele><time>2026-04-11T09:17:36Z</time></trkpt><trkpt lat="42.48434236051621" lon="12.068418716184798"><ele>317.33333333333337</ele><time>2026-04-11T09:17:37Z</time></trkpt><trkpt lat="42.484147845425404" lon="12.068485552858998"><ele>317.0</ele><time>2026-04-11T09:17:38Z</time></trkpt><trkpt lat="42.483963247015346" lon="12.06854988913916"><ele>317.0</ele><time>2026-04-11T09:17:39Z</time></trkpt><trkpt lat="42.483786601924834" lon="12.068607255773365"><ele>317.0</ele><time>2026-04-11T09:17:40Z</time></trkpt><trkpt lat="42.48362747112833" lon="12.068663952098241"><ele>317.0</ele><time>2026-04-11T09:17:41Z</time></trkpt><trkpt lat="42.483472552396016" lon="12.068715265540682"><ele>317.25</ele><time>2026-04-11T09:17:42Z</time></trkpt><trkpt lat="42.4833292033415" lon="12.068765783587606"><ele>317.5</ele><time>2026-04-11T09:17:43Z</time></trkpt><trkpt lat="42.483191781895584" lon="12.068815006329679"><ele>317.75</ele><time>2026-04-11T09:17:44Z</time></trkpt><trkpt lat="42.48304261444151" lon="12.068872050650452"><ele>318.0</ele><time>2026-04-11T09:17:45Z</time></trkpt><trkpt lat="42.48286217108357" lon="12.068916377337024"><ele>318.0</ele><time>2026-04-11T09:17:46Z</time></trkpt><trkpt lat="42.48266257150806" lon="12.068982859662162"><ele>318.0</ele><time>2026-04-11T09:17:47Z</time></trkpt><trkpt lat="42.48244631363254" lon="12.069070012219207"><ele>318.0</ele><time>2026-04-11T09:17:48Z</time></trkpt><trkpt lat="42.482209309207846" lon="12.069144977217427"><ele>320.0</ele><time>2026-04-11T09:17:49Z</time></trkpt><trkpt lat="42.481956917794484" lon="12.069227331120203"><ele>322.0</ele><time>2026-04-11T09:17:50Z</time></trkpt><trkpt lat="42.481701170907236" lon="12.069310163805552"><ele>322.0</ele><time>2026-04-11T09:17:51Z</time></trkpt><trkpt lat="42.4814448971987" lon="12.069395176452595"><ele>322.0</ele><time>2026-04-11T09:17:52Z</time></trkpt><trkpt lat="42.48118078941277" lon="12.069486933333911"><ele>323.0</ele><time>2026-04-11T09:17:53Z</time></trkpt><trkpt lat="42.48091758839599" lon="12.069576249654634"><ele>324.0</ele><time>2026-04-11T09:17:54Z</time></trkpt><trkpt lat="42.480657823800506" lon="12.06966529708257"><ele>325.5</ele><time>2026-04-11T09:17:55Z</time></trkpt><trkpt lat="42.4803991762314" lon="12.069750644025067"><ele>327.0</ele><time>2026-04-11T09:17:56Z</time></trkpt><trkpt lat="42.4801452823071" lon="12.069838146585807"><ele>327.0</ele><time>2026-04-11T09:17:57Z</time></trkpt><trkpt lat="42.47989027036032" lon="12.069921529812616"><ele>327.0</ele><time>2026-04-11T09:17:58Z</time></trkpt><trkpt lat="42.479638643984835" lon="12.070006541322742"><ele>325.5</ele><time>2026-04-11T09:17:59Z</time></trkpt><trkpt lat="42.47938340759412" lon="12.07009029254077"><ele>324.0</ele><time>2026-04-11T09:18:00Z</time></trkpt><trkpt lat="42.479128117945905" lon="12.070174620488173"><ele>324.0</ele><time>2026-04-11T09:18:01Z</time></trkpt><trkpt lat="42.47887099491323" lon="12.070256607290881"><ele>324.0</ele><time>2026-04-11T09:18:02Z</time></trkpt><trkpt lat="42.47861481870714" lon="12.070338398048477"><ele>322.5</ele><time>2026-04-11T09:18:03Z</time></trkpt><trkpt lat="42.478357689844444" lon="12.070428828037203"><ele>321.0</ele><time>2026-04-11T09:18:04Z</time></trkpt><trkpt lat="42.47809963956203" lon="12.070525097773048"><ele>321.0</ele><time>2026-04-11T09:18:05Z</time></trkpt><trkpt lat="42.47784274900301" lon="12.07063235725679"><ele>321.0</ele><time>2026-04-11T09:18:06Z</time></trkpt><trkpt lat="42.477586109786984" lon="12.070753639788304"><ele>320.0</ele><time>2026-04-11T09:18:07Z</time></trkpt><trkpt lat="42.4773270830865" lon="12.070894706947195"><ele>319.0</ele><time>2026-04-11T09:18:08Z</time></trkpt><trkpt lat="42.47707062292861" lon="12.071042146824079"><ele>319.0</ele><time>2026-04-11T09:18:09Z</time></trkpt><trkpt lat="42.476806021663265" lon="12.071188860038546"><ele>319.0</ele><time>2026-04-11T09:18:10Z</time></trkpt><trkpt lat="42.4765426606627" lon="12.071334562768017"><ele>319.0</ele><time>2026-04-11T09:18:11Z</time></trkpt><trkpt lat="42.47627556041335" lon="12.07148348341791"><ele>319.0</ele><time>2026-04-11T09:18:12Z</time></trkpt><trkpt lat="42.4760069538183" lon="12.071632404997377"><ele>318.0</ele><time>2026-04-11T09:18:13Z</time></trkpt><trkpt lat="42.475734859407936" lon="12.071785561393787"><ele>317.0</ele><time>2026-04-11T09:18:14Z</time></trkpt><trkpt lat="42.47546731976683" lon="12.071940891310252"><ele>317.5</ele><time>2026-04-11T09:18:15Z</time></trkpt><trkpt lat="42.4751964947051" lon="12.072095435394594"><ele>318.0</ele><time>2026-04-11T09:18:16Z</time></trkpt><trkpt lat="42.47492774635756" lon="12.072251143375423"><ele>318.0</ele><time>2026-04-11T09:18:17Z</time></trkpt><trkpt lat="42.47466563816627" lon="12.072410157047322"><ele>318.0</ele><time>2026-04-11T09:18:18Z</time></trkpt><trkpt lat="42.47440722036305" lon="12.072569247492556"><ele>317.0</ele><time>2026-04-11T09:18:19Z</time></trkpt><trkpt lat="42.4741535514453" lon="12.072723046895602"><ele>316.0</ele><time>2026-04-11T09:18:20Z</time></trkpt><trkpt lat="42.473896275158914" lon="12.072863465794006"><ele>316.5</ele><time>2026-04-11T09:18:21Z</time></trkpt><trkpt lat="42.473634982680196" lon="12.072992918852059"><ele>317.0</ele><time>2026-04-11T09:18:22Z</time></trkpt><trkpt lat="42.47337378858296" lon="12.073107131497638"><ele>317.0</ele><time>2026-04-11T09:18:23Z</time></trkpt><trkpt lat="42.4731124115786" lon="12.073216480474487"><ele>317.0</ele><time>2026-04-11T09:18:24Z</time></trkpt><trkpt lat="42.47285095307578" lon="12.073325108719002"><ele>315.0</ele><time>2026-04-11T09:18:25Z</time></trkpt><trkpt lat="42.47258581728926" lon="12.073423166266164"><ele>313.0</ele><time>2026-04-11T09:18:26Z</time></trkpt><trkpt lat="42.472314291814946" lon="12.073510334706656"><ele>312.0</ele><time>2026-04-11T09:18:27Z</time></trkpt><trkpt lat="42.47203875449644" lon="12.073578202371703"><ele>311.0</ele><time>2026-04-11T09:18:28Z</time></trkpt><trkpt lat="42.471758971058456" lon="12.073629697534207"><ele>311.0</ele><time>2026-04-11T09:18:29Z</time></trkpt><trkpt lat="42.47148395920254" lon="12.073672740978493"><ele>311.0</ele><time>2026-04-11T09:18:30Z</time></trkpt><trkpt lat="42.47120618555221" lon="12.073711302611498"><ele>310.0</ele><time>2026-04-11T09:18:31Z</time></trkpt><trkpt lat="42.470945064787905" lon="12.073749969776184"><ele>309.0</ele><time>2026-04-11T09:18:32Z</time></trkpt><trkpt lat="42.47069681094983" lon="12.073782179521643"><ele>309.0</ele><time>2026-04-11T09:18:33Z</time></trkpt><trkpt lat="42.47046655353225" lon="12.073819407448783"><ele>309.0</ele><time>2026-04-11T09:18:34Z</time></trkpt><trkpt lat="42.47024712626188" lon="12.073853140199551"><ele>312.0</ele><time>2026-04-11T09:18:35Z</time></trkpt><trkpt lat="42.470020794482124" lon="12.07390347264833"><ele>315.0</ele><time>2026-04-11T09:18:36Z</time></trkpt><trkpt lat="42.4697943611471" lon="12.073917096380812"><ele>315.5</ele><time>2026-04-11T09:18:37Z</time></trkpt><trkpt lat="42.469554924674476" lon="12.073921391301297"><ele>316.0</ele><time>2026-04-11T09:18:38Z</time></trkpt><trkpt lat="42.46930602936201" lon="12.073909849516598"><ele>316.0</ele><time>2026-04-11T09:18:39Z</time></trkpt><trkpt lat="42.4690777754291" lon="12.073877117883558"><ele>316.0</ele><time>2026-04-11T09:18:40Z</time></trkpt><trkpt lat="42.46883391177472" lon="12.073837185018728"><ele>315.5</ele><time>2026-04-11T09:18:41Z</time></trkpt><trkpt lat="42.46858503089867" lon="12.07379240003106"><ele>315.0</ele><time>2026-04-11T09:18:42Z</time></trkpt><trkpt lat="42.468327325576325" lon="12.073756135102292"><ele>315.0</ele><time>2026-04-11T09:18:43Z</time></trkpt><trkpt lat="42.468065424069756" lon="12.073712377852157"><ele>315.0</ele><time>2026-04-11T09:18:44Z</time></trkpt><trkpt lat="42.46779286893567" lon="12.073661856073223"><ele>315.5</ele><time>2026-04-11T09:18:45Z</time></trkpt><trkpt lat="42.46752185006781" lon="12.073613148296838"><ele>316.0</ele><time>2026-04-11T09:18:46Z</time></trkpt><trkpt lat="42.467272402669444" lon="12.073566433742657"><ele>317.0</ele><time>2026-04-11T09:18:47Z</time></trkpt><trkpt lat="42.46702688205907" lon="12.073519473268997"><ele>318.0</ele><time>2026-04-11T09:18:48Z</time></trkpt><trkpt lat="42.466777316041075" lon="12.073469033425207"><ele>318.0</ele><time>2026-04-11T09:18:49Z</time></trkpt><trkpt lat="42.46652426121354" lon="12.073416597836056"><ele>318.0</ele><time>2026-04-11T09:18:50Z</time></trkpt><trkpt lat="42.466270724952174" lon="12.073359619247265"><ele>317.5</ele><time>2026-04-11T09:18:51Z</time></trkpt><trkpt lat="42.466034108177084" lon="12.073308093186926"><ele>317.0</ele><time>2026-04-11T09:18:52Z</time></trkpt><trkpt lat="42.46580542284987" lon="12.073265232271018"><ele>316.6666666666667</ele><time>2026-04-11T09:18:53Z</time></trkpt><trkpt lat="42.465582115756604" lon="12.073236336622188"><ele>316.3333333333333</ele><time>2026-04-11T09:18:54Z</time></trkpt><trkpt lat="42.46535719556033" lon="12.073245777521484"><ele>316.0</ele><time>2026-04-11T09:18:55Z</time></trkpt><trkpt lat="42.4651434596663" lon="12.073296586219387"><ele>315.66666666666663</ele><time>2026-04-11T09:18:56Z</time></trkpt><trkpt lat="42.464933395385756" lon="12.073355616424331"><ele>315.3333333333333</ele><time>2026-04-11T09:18:57Z</time></trkpt><trkpt lat="42.46471542837531" lon="12.07342044980795"><ele>315.0</ele><time>2026-04-11T09:18:58Z</time></trkpt><trkpt lat="42.464490796536175" lon="12.073494530355436"><ele>315.0</ele><time>2026-04-11T09:18:59Z</time></trkpt><trkpt lat="42.46426207610895" lon="12.073561361760579"><ele>315.0</ele><time>2026-04-11T09:19:00Z</time></trkpt><trkpt lat="42.4640279386973" lon="12.073615548798177"><ele>315.0</ele><time>2026-04-11T09:19:01Z</time></trkpt><trkpt lat="42.463800229540574" lon="12.073651586965731"><ele>315.0</ele><time>2026-04-11T09:19:02Z</time></trkpt><trkpt lat="42.46358054997949" lon="12.073715088310474"><ele>315.0</ele><time>2026-04-11T09:19:03Z</time></trkpt><trkpt lat="42.463382985454636" lon="12.073815023054939"><ele>315.0</ele><time>2026-04-11T09:19:04Z</time></trkpt><trkpt lat="42.46319921204873" lon="12.073929144296773"><ele>315.0</ele><time>2026-04-11T09:19:05Z</time></trkpt><trkpt lat="42.46301614875881" lon="12.074039727794224"><ele>314.3333333333333</ele><time>2026-04-11T09:19:06Z</time></trkpt><trkpt lat="42.462827805530274" lon="12.074147148431491"><ele>313.66666666666663</ele><time>2026-04-11T09:19:07Z</time></trkpt><trkpt lat="42.46264734729298" lon="12.074241000413119"><ele>313.0</ele><time>2026-04-11T09:19:08Z</time></trkpt><trkpt lat="42.46248197149416" lon="12.074314450848531"><ele>313.0</ele><time>2026-04-11T09:19:09Z</time></trkpt><trkpt lat="42.462330320467174" lon="12.07438811837442"><ele>313.0</ele><time>2026-04-11T09:19:10Z</time></trkpt><trkpt lat="42.46219592143261" lon="12.074465942381563"><ele>313.0</ele><time>2026-04-11T09:19:11Z</time></trkpt><trkpt lat="42.46206387325732" lon="12.074539507535077"><ele>313.0</ele><time>2026-04-11T09:19:12Z</time></trkpt><trkpt lat="42.461938817595765" lon="12.074603289760777"><ele>313.0</ele><time>2026-04-11T09:19:13Z</time></trkpt><trkpt lat="42.461804980675126" lon="12.074678267811244"><ele>313.0</ele><time>2026-04-11T09:19:14Z</time></trkpt><trkpt lat="42.46166559346588" lon="12.074756333955545"><ele>313.0</ele><time>2026-04-11T09:19:15Z</time></trkpt><trkpt lat="42.46152056767112" lon="12.07483455098064"><ele>313.0</ele><time>2026-04-11T09:19:16Z</time></trkpt><trkpt lat="42.461351695448094" lon="12.074932341120466"><ele>313.0</ele><time>2026-04-11T09:19:17Z</time></trkpt><trkpt lat="42.46115353273776" lon="12.075045807133154"><ele>313.0</ele><time>2026-04-11T09:19:18Z</time></trkpt><trkpt lat="42.460948143031565" lon="12.075145021013464"><ele>313.0</ele><time>2026-04-11T09:19:19Z</time></trkpt><trkpt lat="42.46073503134648" lon="12.075249690688842"><ele>313.0</ele><time>2026-04-11T09:19:20Z</time></trkpt><trkpt lat="42.460513532029246" lon="12.07537616182835"><ele>313.0</ele><time>2026-04-11T09:19:21Z</time></trkpt><trkpt lat="42.4602902612642" lon="12.075502745208096"><ele>313.0</ele><time>2026-04-11T09:19:22Z</time></trkpt><trkpt lat="42.46007763450938" lon="12.075622224278046"><ele>313.0</ele><time>2026-04-11T09:19:23Z</time></trkpt><trkpt lat="42.45985737288823" lon="12.07572973523625"><ele>313.0</ele><time>2026-04-11T09:19:24Z</time></trkpt><trkpt lat="42.4596316356981" lon="12.075863912668483"><ele>312.5</ele><time>2026-04-11T09:19:25Z</time></trkpt><trkpt lat="42.4594038425145" lon="12.076023941589378"><ele>312.0</ele><time>2026-04-11T09:19:26Z</time></trkpt><trkpt lat="42.45916172884325" lon="12.076158871180334"><ele>312.0</ele><time>2026-04-11T09:19:27Z</time></trkpt><trkpt lat="42.45891518722238" lon="12.076317881375186"><ele>312.0</ele><time>2026-04-11T09:19:28Z</time></trkpt><trkpt lat="42.45867168550864" lon="12.076482088181802"><ele>310.0</ele><time>2026-04-11T09:19:29Z</time></trkpt><trkpt lat="42.45842745303539" lon="12.076649421265135"><ele>308.0</ele><time>2026-04-11T09:19:30Z</time></trkpt><trkpt lat="42.45818602038423" lon="12.076812522105138"><ele>308.0</ele><time>2026-04-11T09:19:31Z</time></trkpt><trkpt lat="42.457960380116056" lon="12.076967252029187"><ele>308.0</ele><time>2026-04-11T09:19:32Z</time></trkpt><trkpt lat="42.45774568571606" lon="12.077113733519893"><ele>307.6666666666667</ele><time>2026-04-11T09:19:33Z</time></trkpt><trkpt lat="42.45754283077957" lon="12.077251284519225"><ele>307.3333333333333</ele><time>2026-04-11T09:19:34Z</time></trkpt><trkpt lat="42.4573526104305" lon="12.077382418352915"><ele>307.0</ele><time>2026-04-11T09:19:35Z</time></trkpt><trkpt lat="42.45716769168839" lon="12.077509404513883"><ele>307.3333333333333</ele><time>2026-04-11T09:19:36Z</time></trkpt><trkpt lat="42.45698816246532" lon="12.077626262271659"><ele>307.6666666666667</ele><time>2026-04-11T09:19:37Z</time></trkpt><trkpt lat="42.45682177686108" lon="12.077735934574761"><ele>308.0</ele><time>2026-04-11T09:19:38Z</time></trkpt><trkpt lat="42.45666277799205" lon="12.077842844422609"><ele>308.0</ele><time>2026-04-11T09:19:39Z</time></trkpt><trkpt lat="42.456508395505885" lon="12.077951676693143"><ele>308.0</ele><time>2026-04-11T09:19:40Z</time></trkpt><trkpt lat="42.4563494910245" lon="12.078063473624024"><ele>308.0</ele><time>2026-04-11T09:19:41Z</time></trkpt><trkpt lat="42.456193570383334" lon="12.078169459718662"><ele>307.33333333333337</ele><time>2026-04-11T09:19:42Z</time></trkpt><trkpt lat="42.45605481736015" lon="12.078260467894706"><ele>306.6666666666667</ele><time>2026-04-11T09:19:43Z</time></trkpt><trkpt lat="42.45592472714272" lon="12.078344874779287"><ele>306.0</ele><time>2026-04-11T09:19:44Z</time></trkpt><trkpt lat="42.45578212724533" lon="12.078446200675819"><ele>306.0</ele><time>2026-04-11T09:19:45Z</time></trkpt><trkpt lat="42.45561266025715" lon="12.07857380304546"><ele>306.0</ele><time>2026-04-11T09:19:46Z</time></trkpt><trkpt lat="42.45541901468648" lon="12.078692013047045"><ele>306.0</ele><time>2026-04-11T09:19:47Z</time></trkpt><trkpt lat="42.45523316093228" lon="12.078808640752477"><ele>306.25</ele><time>2026-04-11T09:19:48Z</time></trkpt><trkpt lat="42.45508171899629" lon="12.078928442301748"><ele>306.5</ele><time>2026-04-11T09:19:49Z</time></trkpt><trkpt lat="42.454962305072286" lon="12.079031922965594"><ele>306.75</ele><time>2026-04-11T09:19:50Z</time></trkpt><trkpt lat="42.454855446677854" lon="12.079119461456326"><ele>307.0</ele><time>2026-04-11T09:19:51Z</time></trkpt><trkpt lat="42.45475204739036" lon="12.079198403142788"><ele>307.0</ele><time>2026-04-11T09:19:52Z</time></trkpt><trkpt lat="42.45465430697516" lon="12.079275237922088"><ele>307.0</ele><time>2026-04-11T09:19:53Z</time></trkpt><trkpt lat="42.454556932545266" lon="12.0793589024804"><ele>307.0</ele><time>2026-04-11T09:19:54Z</time></trkpt><trkpt lat="42.45445536033192" lon="12.07944497268399"><ele>307.0</ele><time>2026-04-11T09:19:55Z</time></trkpt><trkpt lat="42.45433821402118" lon="12.079553652758195"><ele>307.0</ele><time>2026-04-11T09:19:56Z</time></trkpt><trkpt lat="42.454187645145346" lon="12.079698563150718"><ele>307.0</ele><time>2026-04-11T09:19:57Z</time></trkpt><trkpt lat="42.45401364445499" lon="12.0798359152237"><ele>307.0</ele><time>2026-04-11T09:19:58Z</time></trkpt><trkpt lat="42.45385320064863" lon="12.07995811825215"><ele>307.66666666666663</ele><time>2026-04-11T09:19:59Z</time></trkpt><trkpt lat="42.45371228483797" lon="12.080085069979543"><ele>308.3333333333333</ele><time>2026-04-11T09:20:00Z</time></trkpt><trkpt lat="42.45357650851903" lon="12.080207256399135"><ele>309.0</ele><time>2026-04-11T09:20:01Z</time></trkpt><trkpt lat="42.45342952980296" lon="12.080351262567037"><ele>309.0</ele><time>2026-04-11T09:20:02Z</time></trkpt><trkpt lat="42.45325964034034" lon="12.080497805929811"><ele>309.0</ele><time>2026-04-11T09:20:03Z</time></trkpt><trkpt lat="42.45306082640854" lon="12.080646702564543"><ele>309.0</ele><time>2026-04-11T09:20:04Z</time></trkpt><trkpt lat="42.45288467815999" lon="12.080775028583396"><ele>310.0</ele><time>2026-04-11T09:20:05Z</time></trkpt><trkpt lat="42.45271697709545" lon="12.080889258896383"><ele>311.0</ele><time>2026-04-11T09:20:06Z</time></trkpt><trkpt lat="42.45254795973858" lon="12.080967664325545"><ele>312.0</ele><time>2026-04-11T09:20:07Z</time></trkpt><trkpt lat="42.45238477505561" lon="12.081031651440215"><ele>312.0</ele><time>2026-04-11T09:20:08Z</time></trkpt><trkpt lat="42.45222465011537" lon="12.081115433154205"><ele>312.0</ele><time>2026-04-11T09:20:09Z</time></trkpt><trkpt lat="42.45206221498826" lon="12.081194302587393"><ele>312.0</ele><time>2026-04-11T09:20:10Z</time></trkpt><trkpt lat="42.45189890785942" lon="12.081270811354383"><ele>312.25</ele><time>2026-04-11T09:20:11Z</time></trkpt><trkpt lat="42.45176167966365" lon="12.081348237355694"><ele>312.5</ele><time>2026-04-11T09:20:12Z</time></trkpt><trkpt lat="42.45164575452846" lon="12.08142792266523"><ele>312.75</ele><time>2026-04-11T09:20:13Z</time></trkpt><trkpt lat="42.45155154265887" lon="12.081497351516594"><ele>313.0</ele><time>2026-04-11T09:20:14Z</time></trkpt><trkpt lat="42.45145655335379" lon="12.081564018115763"><ele>313.0</ele><time>2026-04-11T09:20:15Z</time></trkpt><trkpt lat="42.45136190363557" lon="12.081630690703268"><ele>313.0</ele><time>2026-04-11T09:20:16Z</time></trkpt><trkpt lat="42.45126401809858" lon="12.081693379572627"><ele>313.0</ele><time>2026-04-11T09:20:17Z</time></trkpt><trkpt lat="42.451181516693325" lon="12.081753938144537"><ele>313.0</ele><time>2026-04-11T09:20:18Z</time></trkpt><trkpt lat="42.45111590306826" lon="12.081803449841495"><ele>313.0</ele><time>2026-04-11T09:20:19Z</time></trkpt><trkpt lat="42.45103358250467" lon="12.081865858895071"><ele>313.4</ele><time>2026-04-11T09:20:21Z</time></trkpt><trkpt lat="42.4509413447542" lon="12.081954062324336"><ele>313.8</ele><time>2026-04-11T09:20:23Z</time></trkpt><trkpt lat="42.45084447272815" lon="12.08203821139458"><ele>314.2</ele><time>2026-04-11T09:20:24Z</time></trkpt><trkpt lat="42.45074765693832" lon="12.082087821505395"><ele>314.6</ele><time>2026-04-11T09:20:25Z</time></trkpt><trkpt lat="42.45068390465931" lon="12.082132620079346"><ele>315.0</ele><time>2026-04-11T09:20:26Z</time></trkpt><trkpt lat="42.45061261445481" lon="12.082194979752892"><ele>315.0</ele><time>2026-04-11T09:20:28Z</time></trkpt><trkpt lat="42.45053578708336" lon="12.082257908244678"><ele>315.0</ele><time>2026-04-11T09:20:30Z</time></trkpt><trkpt lat="42.45044146461662" lon="12.082324994309815"><ele>315.0</ele><time>2026-04-11T09:20:32Z</time></trkpt><trkpt lat="42.45033628373297" lon="12.082392215481775"><ele>315.0</ele><time>2026-04-11T09:20:34Z</time></trkpt><trkpt lat="42.45026745307797" lon="12.082439326824103"><ele>315.0</ele><time>2026-04-11T09:20:35Z</time></trkpt><trkpt lat="42.450192350326894" lon="12.082501481175518"><ele>315.2</ele><time>2026-04-11T09:20:36Z</time></trkpt><trkpt lat="42.45011018048527" lon="12.082560223832388"><ele>315.4</ele><time>2026-04-11T09:20:37Z</time></trkpt><trkpt lat="42.45002552990261" lon="12.082625744673996"><ele>315.6</ele><time>2026-04-11T09:20:38Z</time></trkpt><trkpt lat="42.44994710766987" lon="12.082687525572707"><ele>315.8</ele><time>2026-04-11T09:20:39Z</time></trkpt><trkpt lat="42.449861810767445" lon="12.082749652768879"><ele>316.0</ele><time>2026-04-11T09:20:40Z</time></trkpt><trkpt lat="42.449770389107194" lon="12.082817397215074"><ele>316.0</ele><time>2026-04-11T09:20:41Z</time></trkpt><trkpt lat="42.4496712163042" lon="12.082882078713425"><ele>316.0</ele><time>2026-04-11T09:20:42Z</time></trkpt><trkpt lat="42.44957938794115" lon="12.082951893616869"><ele>316.0</ele><time>2026-04-11T09:20:43Z</time></trkpt><trkpt lat="42.4494859512696" lon="12.083021582267516"><ele>316.0</ele><time>2026-04-11T09:20:44Z</time></trkpt><trkpt lat="42.44939885590986" lon="12.083087330626038"><ele>316.0</ele><time>2026-04-11T09:20:45Z</time></trkpt><trkpt lat="42.449319819677335" lon="12.083146669630368"><ele>316.0</ele><time>2026-04-11T09:20:46Z</time></trkpt><trkpt lat="42.44923592024513" lon="12.083211933554278"><ele>316.0</ele><time>2026-04-11T09:20:47Z</time></trkpt><trkpt lat="42.44914876944796" lon="12.083277179386995"><ele>316.0</ele><time>2026-04-11T09:20:48Z</time></trkpt><trkpt lat="42.449012180061494" lon="12.083393398026947"><ele>316.0</ele><time>2026-04-11T09:20:49Z</time></trkpt><trkpt lat="42.44882457673291" lon="12.083509860272548"><ele>316.0</ele><time>2026-04-11T09:20:50Z</time></trkpt><trkpt lat="42.44862397986049" lon="12.083630877932524"><ele>316.0</ele><time>2026-04-11T09:20:51Z</time></trkpt><trkpt lat="42.448449809763915" lon="12.083753365690534"><ele>316.0</ele><time>2026-04-11T09:20:52Z</time></trkpt><trkpt lat="42.44830176461061" lon="12.08387163181381"><ele>316.0</ele><time>2026-04-11T09:20:53Z</time></trkpt><trkpt lat="42.44817577945191" lon="12.083983814755172"><ele>316.0</ele><time>2026-04-11T09:20:54Z</time></trkpt><trkpt lat="42.44802330185949" lon="12.084116617265792"><ele>316.0</ele><time>2026-04-11T09:20:55Z</time></trkpt><trkpt lat="42.44785005444701" lon="12.084260957514115"><ele>316.0</ele><time>2026-04-11T09:20:56Z</time></trkpt><trkpt lat="42.44767533018849" lon="12.084428581294588"><ele>316.0</ele><time>2026-04-11T09:20:57Z</time></trkpt><trkpt lat="42.44750512001341" lon="12.084598584126812"><ele>316.0</ele><time>2026-04-11T09:20:58Z</time></trkpt><trkpt lat="42.44733673820777" lon="12.084749585300255"><ele>316.0</ele><time>2026-04-11T09:20:59Z</time></trkpt><trkpt lat="42.447153906706625" lon="12.084888816796177"><ele>316.0</ele><time>2026-04-11T09:21:00Z</time></trkpt><trkpt lat="42.44697348723251" lon="12.085029159512388"><ele>316.0</ele><time>2026-04-11T09:21:01Z</time></trkpt><trkpt lat="42.446801033162814" lon="12.085171772378773"><ele>315.3333333333333</ele><time>2026-04-11T09:21:02Z</time></trkpt><trkpt lat="42.446628864092844" lon="12.085292516412906"><ele>314.6666666666667</ele><time>2026-04-11T09:21:03Z</time></trkpt><trkpt lat="42.44645415822116" lon="12.08541013152148"><ele>314.0</ele><time>2026-04-11T09:21:04Z</time></trkpt><trkpt lat="42.44626182821559" lon="12.085517034420793"><ele>313.6666666666667</ele><time>2026-04-11T09:21:05Z</time></trkpt><trkpt lat="42.44606226909467" lon="12.085610157820334"><ele>313.3333333333333</ele><time>2026-04-11T09:21:06Z</time></trkpt><trkpt lat="42.445852082440524" lon="12.08571705809088"><ele>313.0</ele><time>2026-04-11T09:21:07Z</time></trkpt><trkpt lat="42.44563484963159" lon="12.085828624876388"><ele>313.3333333333333</ele><time>2026-04-11T09:21:08Z</time></trkpt><trkpt lat="42.44541889624042" lon="12.085943723629939"><ele>313.6666666666667</ele><time>2026-04-11T09:21:09Z</time></trkpt><trkpt lat="42.44522730307737" lon="12.086064462508903"><ele>314.0</ele><time>2026-04-11T09:21:10Z</time></trkpt><trkpt lat="42.44504901344601" lon="12.08619230355354"><ele>314.0</ele><time>2026-04-11T09:21:11Z</time></trkpt><trkpt lat="42.44487359657911" lon="12.0863231651113"><ele>314.0</ele><time>2026-04-11T09:21:12Z</time></trkpt><trkpt lat="42.4447155693129" lon="12.086449611707426"><ele>314.0</ele><time>2026-04-11T09:21:13Z</time></trkpt><trkpt lat="42.44459157894638" lon="12.086549576986442"><ele>314.5</ele><time>2026-04-11T09:21:14Z</time></trkpt><trkpt lat="42.444489915222675" lon="12.086642128835054"><ele>315.0</ele><time>2026-04-11T09:21:15Z</time></trkpt><trkpt lat="42.444390432444" lon="12.086734049893527"><ele>315.5</ele><time>2026-04-11T09:21:16Z</time></trkpt><trkpt lat="42.44428735472911" lon="12.086822476883048"><ele>316.0</ele><time>2026-04-11T09:21:17Z</time></trkpt><trkpt lat="42.444155413830565" lon="12.086948008008765"><ele>316.0</ele><time>2026-04-11T09:21:18Z</time></trkpt><trkpt lat="42.44403172216596" lon="12.08705014481589"><ele>316.0</ele><time>2026-04-11T09:21:19Z</time></trkpt><trkpt lat="42.44394171795263" lon="12.087131990788212"><ele>316.0</ele><time>2026-04-11T09:21:20Z</time></trkpt><trkpt lat="42.443846903447124" lon="12.08721211393877"><ele>316.0</ele><time>2026-04-11T09:21:21Z</time></trkpt><trkpt lat="42.44376837642402" lon="12.087282055768895"><ele>315.75</ele><time>2026-04-11T09:21:22Z</time></trkpt><trkpt lat="42.44366793623858" lon="12.087371983800978"><ele>315.5</ele><time>2026-04-11T09:21:23Z</time></trkpt><trkpt lat="42.443570908975815" lon="12.087467399949931"><ele>315.25</ele><time>2026-04-11T09:21:24Z</time></trkpt><trkpt lat="42.4434701471087" lon="12.087563439926944"><ele>315.0</ele><time>2026-04-11T09:21:25Z</time></trkpt><trkpt lat="42.443377267306374" lon="12.087645593750727"><ele>315.2</ele><time>2026-04-11T09:21:26Z</time></trkpt><trkpt lat="42.44329546737549" lon="12.087721202550718"><ele>315.4</ele><time>2026-04-11T09:21:27Z</time></trkpt><trkpt lat="42.44322027066532" lon="12.087799843263005"><ele>315.6</ele><time>2026-04-11T09:21:28Z</time></trkpt><trkpt lat="42.443138463181704" lon="12.087879655058387"><ele>315.8</ele><time>2026-04-11T09:21:29Z</time></trkpt><trkpt lat="42.443050192340614" lon="12.087947317407128"><ele>316.0</ele><time>2026-04-11T09:21:30Z</time></trkpt><trkpt lat="42.44295434019976" lon="12.08803570984461"><ele>316.0</ele><time>2026-04-11T09:21:31Z</time></trkpt><trkpt lat="42.442813274427124" lon="12.088152965730325"><ele>316.0</ele><time>2026-04-11T09:21:32Z</time></trkpt><trkpt lat="42.442660465342406" lon="12.08824558648645"><ele>316.0</ele><time>2026-04-11T09:21:33Z</time></trkpt><trkpt lat="42.442503447307544" lon="12.088319186296157"><ele>316.25</ele><time>2026-04-11T09:21:34Z</time></trkpt><trkpt lat="42.44237273369993" lon="12.088391054143724"><ele>316.5</ele><time>2026-04-11T09:21:35Z</time></trkpt><trkpt lat="42.44224694951548" lon="12.088461772132781"><ele>316.75</ele><time>2026-04-11T09:21:36Z</time></trkpt><trkpt lat="42.44212211225586" lon="12.088526847559116"><ele>317.0</ele><time>2026-04-11T09:21:37Z</time></trkpt><trkpt lat="42.44200295477673" lon="12.088587532710394"><ele>316.25</ele><time>2026-04-11T09:21:38Z</time></trkpt><trkpt lat="42.44189733793862" lon="12.088643192585307"><ele>315.5</ele><time>2026-04-11T09:21:39Z</time></trkpt><trkpt lat="42.44179436274497" lon="12.088701000935792"><ele>314.75</ele><time>2026-04-11T09:21:40Z</time></trkpt><trkpt lat="42.441674049709356" lon="12.08873326565937"><ele>314.0</ele><time>2026-04-11T09:21:41Z</time></trkpt><trkpt lat="42.44157808104943" lon="12.08878945115303"><ele>314.0</ele><time>2026-04-11T09:21:42Z</time></trkpt><trkpt lat="42.44151565707747" lon="12.088820143797752"><ele>314.0</ele><time>2026-04-11T09:21:43Z</time></trkpt><trkpt lat="42.44144360811168" lon="12.088862912882309"><ele>314.0</ele><time>2026-04-11T09:21:44Z</time></trkpt><trkpt lat="42.441341500963816" lon="12.088911317893404"><ele>314.0</ele><time>2026-04-11T09:21:45Z</time></trkpt><trkpt lat="42.441209108198144" lon="12.088956788665245"><ele>314.0</ele><time>2026-04-11T09:21:46Z</time></trkpt><trkpt lat="42.44108125558699" lon="12.088999978213206"><ele>313.59999999999997</ele><time>2026-04-11T09:21:47Z</time></trkpt><trkpt lat="42.44097405802757" lon="12.089030459514058"><ele>313.2</ele><time>2026-04-11T09:21:48Z</time></trkpt><trkpt lat="42.44088722588398" lon="12.089039468878578"><ele>312.79999999999995</ele><time>2026-04-11T09:21:49Z</time></trkpt><trkpt lat="42.44080359204604" lon="12.089036023402931"><ele>312.4</ele><time>2026-04-11T09:21:50Z</time></trkpt><trkpt lat="42.4407182636779" lon="12.089012809416449"><ele>312.0</ele><time>2026-04-11T09:21:51Z</time></trkpt><trkpt lat="42.44061804826074" lon="12.088958242785655"><ele>312.0</ele><time>2026-04-11T09:21:52Z</time></trkpt><trkpt lat="42.44053339887923" lon="12.088878118562963"><ele>312.0</ele><time>2026-04-11T09:21:53Z</time></trkpt><trkpt lat="42.44044947552694" lon="12.088848206569287"><ele>312.0</ele><time>2026-04-11T09:21:54Z</time></trkpt><trkpt lat="42.44036673160744" lon="12.088893048644179"><ele>312.0</ele><time>2026-04-11T09:21:55Z</time></trkpt><trkpt lat="42.440310595612324" lon="12.088984728484649"><ele>312.0</ele><time>2026-04-11T09:21:56Z</time></trkpt><trkpt lat="42.44027026229397" lon="12.089073939171966"><ele>312.0</ele><time>2026-04-11T09:21:57Z</time></trkpt><trkpt lat="42.44025649650581" lon="12.089164904644523"><ele>311.8</ele><time>2026-04-11T09:21:58Z</time></trkpt><trkpt lat="42.44026536835895" lon="12.089303483207816"><ele>311.6</ele><time>2026-04-11T09:22:00Z</time></trkpt><trkpt lat="42.440245466868774" lon="12.089431264755834"><ele>311.40000000000003</ele><time>2026-04-11T09:22:02Z</time></trkpt><trkpt lat="42.440216146945325" lon="12.08953053895858"><ele>311.2</ele><time>2026-04-11T09:22:03Z</time></trkpt><trkpt lat="42.440157128027835" lon="12.089627654530103"><ele>311.0</ele><time>2026-04-11T09:22:04Z</time></trkpt><trkpt lat="42.440081966125916" lon="12.089755712132773"><ele>311.0</ele><time>2026-04-11T09:22:05Z</time></trkpt><trkpt lat="42.43998739465194" lon="12.089901466076167"><ele>311.0</ele><time>2026-04-11T09:22:06Z</time></trkpt><trkpt lat="42.43988770150303" lon="12.090051685542978"><ele>311.0</ele><time>2026-04-11T09:22:07Z</time></trkpt><trkpt lat="42.43977433058314" lon="12.0902304598028"><ele>311.6666666666667</ele><time>2026-04-11T09:22:08Z</time></trkpt><trkpt lat="42.439663748732464" lon="12.090403625633456"><ele>312.3333333333333</ele><time>2026-04-11T09:22:09Z</time></trkpt><trkpt lat="42.43956175115506" lon="12.090559880224882"><ele>313.0</ele><time>2026-04-11T09:22:10Z</time></trkpt><trkpt lat="42.43947753494351" lon="12.090715564362974"><ele>314.4</ele><time>2026-04-11T09:22:11Z</time></trkpt><trkpt lat="42.43939495387387" lon="12.09085205635208"><ele>315.8</ele><time>2026-04-11T09:22:12Z</time></trkpt><trkpt lat="42.43932117318968" lon="12.090958228830214"><ele>317.2</ele><time>2026-04-11T09:22:13Z</time></trkpt><trkpt lat="42.439256714941415" lon="12.09105711081639"><ele>318.6</ele><time>2026-04-11T09:22:14Z</time></trkpt><trkpt lat="42.4392000681453" lon="12.09116489641994"><ele>320.0</ele><time>2026-04-11T09:22:15Z</time></trkpt><trkpt lat="42.439128611076455" lon="12.091306277217289"><ele>320.0</ele><time>2026-04-11T09:22:16Z</time></trkpt><trkpt lat="42.43904254530678" lon="12.091468922380608"><ele>320.0</ele><time>2026-04-11T09:22:17Z</time></trkpt><trkpt lat="42.43894661581341" lon="12.091635533813022"><ele>320.0</ele><time>2026-04-11T09:22:18Z</time></trkpt><trkpt lat="42.43886867569974" lon="12.091790449414024"><ele>320.0</ele><time>2026-04-11T09:22:19Z</time></trkpt><trkpt lat="42.43879459778189" lon="12.091963956453165"><ele>320.6666666666667</ele><time>2026-04-11T09:22:20Z</time></trkpt><trkpt lat="42.43871075115761" lon="12.092140179075457"><ele>321.3333333333333</ele><time>2026-04-11T09:22:21Z</time></trkpt><trkpt lat="42.43860751921793" lon="12.09231044766841"><ele>322.0</ele><time>2026-04-11T09:22:22Z</time></trkpt><trkpt lat="42.43850520539304" lon="12.092446059870833"><ele>322.75</ele><time>2026-04-11T09:22:23Z</time></trkpt><trkpt lat="42.43840749191676" lon="12.092593920107563"><ele>323.5</ele><time>2026-04-11T09:22:24Z</time></trkpt><trkpt lat="42.4383223116394" lon="12.092714629113864"><ele>324.25</ele><time>2026-04-11T09:22:25Z</time></trkpt><trkpt lat="42.43823551695034" lon="12.092836845187142"><ele>325.0</ele><time>2026-04-11T09:22:26Z</time></trkpt><trkpt lat="42.43814459033951" lon="12.092984411168851"><ele>325.0</ele><time>2026-04-11T09:22:27Z</time></trkpt><trkpt lat="42.43803720931954" lon="12.093132032640874"><ele>325.0</ele><time>2026-04-11T09:22:28Z</time></trkpt><trkpt lat="42.43788217551777" lon="12.093263922223336"><ele>325.0</ele><time>2026-04-11T09:22:29Z</time></trkpt><trkpt lat="42.4377409659988" lon="12.093394954043639"><ele>324.5</ele><time>2026-04-11T09:22:30Z</time></trkpt><trkpt lat="42.437622409057056" lon="12.09349085551758"><ele>324.0</ele><time>2026-04-11T09:22:31Z</time></trkpt><trkpt lat="42.437514010343506" lon="12.093547627675816"><ele>323.5</ele><time>2026-04-11T09:22:32Z</time></trkpt><trkpt lat="42.43740212002091" lon="12.09357118318352"><ele>323.0</ele><time>2026-04-11T09:22:33Z</time></trkpt><trkpt lat="42.43728956494495" lon="12.0935633168628"><ele>323.0</ele><time>2026-04-11T09:22:34Z</time></trkpt><trkpt lat="42.437185969691726" lon="12.093534074563834"><ele>323.0</ele><time>2026-04-11T09:22:35Z</time></trkpt><trkpt lat="42.43709170190365" lon="12.093478450562532"><ele>323.0</ele><time>2026-04-11T09:22:36Z</time></trkpt><trkpt lat="42.437005078595114" lon="12.093401247176192"><ele>323.0</ele><time>2026-04-11T09:22:37Z</time></trkpt><trkpt lat="42.436902480284296" lon="12.09330172405863"><ele>323.0</ele><time>2026-04-11T09:22:38Z</time></trkpt><trkpt lat="42.436767325303656" lon="12.093189512262228"><ele>322.5</ele><time>2026-04-11T09:22:39Z</time></trkpt><trkpt lat="42.43669869926221" lon="12.093037031481739"><ele>322.0</ele><time>2026-04-11T09:22:40Z</time></trkpt><trkpt lat="42.436622819741444" lon="12.092906316580407"><ele>321.5</ele><time>2026-04-11T09:22:41Z</time></trkpt><trkpt lat="42.43654450343329" lon="12.092723638186174"><ele>321.0</ele><time>2026-04-11T09:22:42Z</time></trkpt><trkpt lat="42.43648253020651" lon="12.092520068555746"><ele>321.3333333333333</ele><time>2026-04-11T09:22:43Z</time></trkpt><trkpt lat="42.43646548242537" lon="12.09232109513181"><ele>321.66666666666663</ele><time>2026-04-11T09:22:44Z</time></trkpt><trkpt lat="42.43649713208342" lon="12.092101713692614"><ele>322.0</ele><time>2026-04-11T09:22:45Z</time></trkpt><trkpt lat="42.43655765027916" lon="12.091870377068833"><ele>322.0</ele><time>2026-04-11T09:22:46Z</time></trkpt><trkpt lat="42.4366388590573" lon="12.091648736331026"><ele>322.0</ele><time>2026-04-11T09:22:47Z</time></trkpt><trkpt lat="42.4367718660833" lon="12.091460038880735"><ele>322.0</ele><time>2026-04-11T09:22:48Z</time></trkpt><trkpt lat="42.436901780437616" lon="12.09125340021394"><ele>322.0</ele><time>2026-04-11T09:22:49Z</time></trkpt><trkpt lat="42.43703424574829" lon="12.091027404038163"><ele>322.0</ele><time>2026-04-11T09:22:50Z</time></trkpt><trkpt lat="42.43717820479276" lon="12.090806742863014"><ele>322.0</ele><time>2026-04-11T09:22:51Z</time></trkpt><trkpt lat="42.43732397382024" lon="12.090579969356373"><ele>321.66666666666663</ele><time>2026-04-11T09:22:52Z</time></trkpt><trkpt lat="42.43745817817503" lon="12.090365410556457"><ele>321.3333333333333</ele><time>2026-04-11T09:22:53Z</time></trkpt><trkpt lat="42.43758524003799" lon="12.090182158468814"><ele>321.0</ele><time>2026-04-11T09:22:54Z</time></trkpt><trkpt lat="42.43766045018746" lon="12.090005438601317"><ele>320.25</ele><time>2026-04-11T09:22:55Z</time></trkpt><trkpt lat="42.437709503721166" lon="12.089816729228653"><ele>319.5</ele><time>2026-04-11T09:22:56Z</time></trkpt><trkpt lat="42.43771002633184" lon="12.089623321557255"><ele>318.75</ele><time>2026-04-11T09:22:57Z</time></trkpt><trkpt lat="42.43766142864206" lon="12.089440347156673"><ele>318.0</ele><time>2026-04-11T09:22:58Z</time></trkpt><trkpt lat="42.43757783898528" lon="12.08927816638601"><ele>318.0</ele><time>2026-04-11T09:22:59Z</time></trkpt><trkpt lat="42.437465517077634" lon="12.089160423231567"><ele>318.0</ele><time>2026-04-11T09:23:00Z</time></trkpt><trkpt lat="42.43732272785111" lon="12.08909444286496"><ele>318.0</ele><time>2026-04-11T09:23:01Z</time></trkpt><trkpt lat="42.437182942374" lon="12.089126790635923"><ele>318.0</ele><time>2026-04-11T09:23:02Z</time></trkpt><trkpt lat="42.43705685847414" lon="12.089154568026528"><ele>318.6666666666667</ele><time>2026-04-11T09:23:03Z</time></trkpt><trkpt lat="42.436912314893796" lon="12.089222166095686"><ele>319.33333333333337</ele><time>2026-04-11T09:23:04Z</time></trkpt><trkpt lat="42.43675359469469" lon="12.089292654794395"><ele>320.0</ele><time>2026-04-11T09:23:05Z</time></trkpt><trkpt lat="42.43659474989541" lon="12.089372181143831"><ele>320.0</ele><time>2026-04-11T09:23:06Z</time></trkpt><trkpt lat="42.43641324980205" lon="12.089387481184335"><ele>320.0</ele><time>2026-04-11T09:23:07Z</time></trkpt><trkpt lat="42.43621622659022" lon="12.089347896045389"><ele>320.0</ele><time>2026-04-11T09:23:08Z</time></trkpt><trkpt lat="42.43602604903786" lon="12.089261182541271"><ele>319.6666666666667</ele><time>2026-04-11T09:23:09Z</time></trkpt><trkpt lat="42.4358650780903" lon="12.089121204893866"><ele>319.3333333333333</ele><time>2026-04-11T09:23:10Z</time></trkpt><trkpt lat="42.435698103023455" lon="12.088960598246741"><ele>319.0</ele><time>2026-04-11T09:23:11Z</time></trkpt><trkpt lat="42.43553997470609" lon="12.088758088076016"><ele>318.0</ele><time>2026-04-11T09:23:12Z</time></trkpt><trkpt lat="42.43536144266091" lon="12.088569595543122"><ele>317.0</ele><time>2026-04-11T09:23:13Z</time></trkpt><trkpt lat="42.43516718169597" lon="12.088379617304097"><ele>315.0</ele><time>2026-04-11T09:23:14Z</time></trkpt><trkpt lat="42.43497112380407" lon="12.088175309311286"><ele>313.0</ele><time>2026-04-11T09:23:15Z</time></trkpt><trkpt lat="42.434767629362895" lon="12.087963778987342"><ele>314.0</ele><time>2026-04-11T09:23:16Z</time></trkpt><trkpt lat="42.43455968418648" lon="12.087749950076226"><ele>315.0</ele><time>2026-04-11T09:23:17Z</time></trkpt><trkpt lat="42.434352415989146" lon="12.087521963599693"><ele>314.0</ele><time>2026-04-11T09:23:18Z</time></trkpt><trkpt lat="42.43413774571293" lon="12.087299340339191"><ele>313.0</ele><time>2026-04-11T09:23:19Z</time></trkpt><trkpt lat="42.43392024839862" lon="12.087077720520957"><ele>314.5</ele><time>2026-04-11T09:23:20Z</time></trkpt><trkpt lat="42.43370134548142" lon="12.086846703980846"><ele>316.0</ele><time>2026-04-11T09:23:21Z</time></trkpt><trkpt lat="42.4334769122261" lon="12.086619187221043"><ele>316.0</ele><time>2026-04-11T09:23:22Z</time></trkpt><trkpt lat="42.43325657851643" lon="12.086384857485829"><ele>316.0</ele><time>2026-04-11T09:23:23Z</time></trkpt><trkpt lat="42.433037730563456" lon="12.086149576715014"><ele>315.5</ele><time>2026-04-11T09:23:24Z</time></trkpt><trkpt lat="42.43281609708565" lon="12.085926654526736"><ele>315.0</ele><time>2026-04-11T09:23:25Z</time></trkpt><trkpt lat="42.43259559008989" lon="12.085697085820309"><ele>315.0</ele><time>2026-04-11T09:23:26Z</time></trkpt><trkpt lat="42.43237252632574" lon="12.08546691088009"><ele>315.0</ele><time>2026-04-11T09:23:27Z</time></trkpt><trkpt lat="42.4321488908233" lon="12.085235024776068"><ele>315.0</ele><time>2026-04-11T09:23:28Z</time></trkpt><trkpt lat="42.43192943418301" lon="12.085008959110906"><ele>315.0</ele><time>2026-04-11T09:23:29Z</time></trkpt><trkpt lat="42.43170589718647" lon="12.084792567629565"><ele>315.0</ele><time>2026-04-11T09:23:30Z</time></trkpt><trkpt lat="42.43147771368327" lon="12.084576307344332"><ele>315.0</ele><time>2026-04-11T09:23:31Z</time></trkpt><trkpt lat="42.43124558391047" lon="12.084362334554879"><ele>315.0</ele><time>2026-04-11T09:23:32Z</time></trkpt><trkpt lat="42.43101576601834" lon="12.084143024492377"><ele>315.0</ele><time>2026-04-11T09:23:33Z</time></trkpt><trkpt lat="42.430784137432035" lon="12.083928248163886"><ele>315.0</ele><time>2026-04-11T09:23:34Z</time></trkpt><trkpt lat="42.43054904113338" lon="12.083708428297802"><ele>315.0</ele><time>2026-04-11T09:23:35Z</time></trkpt><trkpt lat="42.43030917765027" lon="12.08350226893461"><ele>315.0</ele><time>2026-04-11T09:23:36Z</time></trkpt><trkpt lat="42.430064241459206" lon="12.083298664500543"><ele>315.0</ele><time>2026-04-11T09:23:37Z</time></trkpt><trkpt lat="42.4298186997546" lon="12.083099269447402"><ele>314.0</ele><time>2026-04-11T09:23:38Z</time></trkpt><trkpt lat="42.42956895911932" lon="12.082903981286577"><ele>313.0</ele><time>2026-04-11T09:23:39Z</time></trkpt><trkpt lat="42.429320803361065" lon="12.082715952483078"><ele>313.0</ele><time>2026-04-11T09:23:40Z</time></trkpt><trkpt lat="42.4290689101895" lon="12.082530702550565"><ele>313.0</ele><time>2026-04-11T09:23:41Z</time></trkpt><trkpt lat="42.42881584425993" lon="12.082351354127791"><ele>310.5</ele><time>2026-04-11T09:23:42Z</time></trkpt><trkpt lat="42.42855570631023" lon="12.08217507054757"><ele>308.0</ele><time>2026-04-11T09:23:43Z</time></trkpt><trkpt lat="42.42829344288716" lon="12.082008946533598"><ele>308.0</ele><time>2026-04-11T09:23:44Z</time></trkpt><trkpt lat="42.428025437970575" lon="12.081848776085142"><ele>308.0</ele><time>2026-04-11T09:23:45Z</time></trkpt><trkpt lat="42.427757943618126" lon="12.081698926189945"><ele>306.5</ele><time>2026-04-11T09:23:46Z</time></trkpt><trkpt lat="42.427484720874425" lon="12.081552534140242"><ele>305.0</ele><time>2026-04-11T09:23:47Z</time></trkpt><trkpt lat="42.42721135756786" lon="12.081409293052886"><ele>305.0</ele><time>2026-04-11T09:23:48Z</time></trkpt><trkpt lat="42.426928762662" lon="12.081272061902947"><ele>305.0</ele><time>2026-04-11T09:23:49Z</time></trkpt><trkpt lat="42.42665875435311" lon="12.081138785323288"><ele>305.0</ele><time>2026-04-11T09:23:50Z</time></trkpt><trkpt lat="42.426376866872" lon="12.081013438311402"><ele>305.0</ele><time>2026-04-11T09:23:51Z</time></trkpt><trkpt lat="42.42609408071344" lon="12.080892823483834"><ele>304.5</ele><time>2026-04-11T09:23:52Z</time></trkpt><trkpt lat="42.42581702551132" lon="12.080779364367539"><ele>304.0</ele><time>2026-04-11T09:23:53Z</time></trkpt><trkpt lat="42.425533353417734" lon="12.080667229464982"><ele>302.5</ele><time>2026-04-11T09:23:54Z</time></trkpt><trkpt lat="42.42525144655051" lon="12.08055488745865"><ele>301.0</ele><time>2026-04-11T09:23:55Z</time></trkpt><trkpt lat="42.424971595056675" lon="12.080442530451235"><ele>301.0</ele><time>2026-04-11T09:23:56Z</time></trkpt><trkpt lat="42.424690328101384" lon="12.080333953666948"><ele>301.0</ele><time>2026-04-11T09:23:57Z</time></trkpt><trkpt lat="42.42440988527008" lon="12.08022110036859"><ele>300.5</ele><time>2026-04-11T09:23:58Z</time></trkpt><trkpt lat="42.424129921425056" lon="12.080108249366429"><ele>300.0</ele><time>2026-04-11T09:23:59Z</time></trkpt><trkpt lat="42.42385075957978" lon="12.079999556916615"><ele>299.5</ele><time>2026-04-11T09:24:00Z</time></trkpt><trkpt lat="42.423567848213445" lon="12.079891259465022"><ele>299.0</ele><time>2026-04-11T09:24:01Z</time></trkpt><trkpt lat="42.42328844018436" lon="12.079796058960461"><ele>299.0</ele><time>2026-04-11T09:24:02Z</time></trkpt><trkpt lat="42.42300706520314" lon="12.079676890913783"><ele>299.0</ele><time>2026-04-11T09:24:03Z</time></trkpt><trkpt lat="42.42272796196845" lon="12.07956106485199"><ele>297.5</ele><time>2026-04-11T09:24:04Z</time></trkpt><trkpt lat="42.422451095901415" lon="12.079449969042223"><ele>296.0</ele><time>2026-04-11T09:24:05Z</time></trkpt><trkpt lat="42.42217563049387" lon="12.079339486654497"><ele>296.5</ele><time>2026-04-11T09:24:06Z</time></trkpt><trkpt lat="42.42189646050536" lon="12.079227685666753"><ele>297.0</ele><time>2026-04-11T09:24:07Z</time></trkpt><trkpt lat="42.42162018407078" lon="12.079116752308842"><ele>296.5</ele><time>2026-04-11T09:24:08Z</time></trkpt><trkpt lat="42.42134180783378" lon="12.079008415529534"><ele>296.0</ele><time>2026-04-11T09:24:09Z</time></trkpt><trkpt lat="42.42106416118992" lon="12.078901925239355"><ele>294.0</ele><time>2026-04-11T09:24:10Z</time></trkpt><trkpt lat="42.420787103961665" lon="12.07879076463319"><ele>292.0</ele><time>2026-04-11T09:24:11Z</time></trkpt><trkpt lat="42.420509782766835" lon="12.0786787231949"><ele>292.5</ele><time>2026-04-11T09:24:12Z</time></trkpt><trkpt lat="42.42022891569832" lon="12.078567973531834"><ele>293.0</ele><time>2026-04-11T09:24:13Z</time></trkpt><trkpt lat="42.419945839721514" lon="12.078458906858508"><ele>293.0</ele><time>2026-04-11T09:24:14Z</time></trkpt><trkpt lat="42.41966354530993" lon="12.078349797600778"><ele>293.0</ele><time>2026-04-11T09:24:15Z</time></trkpt><trkpt lat="42.41937926097989" lon="12.078246973027712"><ele>291.0</ele><time>2026-04-11T09:24:16Z</time></trkpt><trkpt lat="42.419094585804785" lon="12.078141971348602"><ele>289.0</ele><time>2026-04-11T09:24:17Z</time></trkpt><trkpt lat="42.41881163827324" lon="12.07803586716895"><ele>288.0</ele><time>2026-04-11T09:24:18Z</time></trkpt><trkpt lat="42.418526278102156" lon="12.077922449192442"><ele>287.0</ele><time>2026-04-11T09:24:19Z</time></trkpt><trkpt lat="42.41821474556474" lon="12.077810057462294"><ele>283.5</ele><time>2026-04-11T09:24:20Z</time></trkpt><trkpt lat="42.41790150963295" lon="12.077687108339937"><ele>280.0</ele><time>2026-04-11T09:24:21Z</time></trkpt><trkpt lat="42.417569184184174" lon="12.07755144020409"><ele>280.0</ele><time>2026-04-11T09:24:22Z</time></trkpt><trkpt lat="42.417246524362895" lon="12.077407496574576"><ele>280.0</ele><time>2026-04-11T09:24:23Z</time></trkpt><trkpt lat="42.4169314225949" lon="12.077270293199918"><ele>278.0</ele><time>2026-04-11T09:24:24Z</time></trkpt><trkpt lat="42.41662019237265" lon="12.07714024466556"><ele>276.0</ele><time>2026-04-11T09:24:25Z</time></trkpt><trkpt lat="42.41631939624407" lon="12.076990238923964"><ele>276.0</ele><time>2026-04-11T09:24:26Z</time></trkpt><trkpt lat="42.41602054606447" lon="12.07683350178468"><ele>276.0</ele><time>2026-04-11T09:24:27Z</time></trkpt><trkpt lat="42.41572769206713" lon="12.076673206183976"><ele>280.5</ele><time>2026-04-11T09:24:28Z</time></trkpt><trkpt lat="42.41543500236118" lon="12.076509176728585"><ele>285.0</ele><time>2026-04-11T09:24:29Z</time></trkpt><trkpt lat="42.41514251179824" lon="12.076333723596305"><ele>285.0</ele><time>2026-04-11T09:24:30Z</time></trkpt><trkpt lat="42.41484887793158" lon="12.076158783889735"><ele>285.0</ele><time>2026-04-11T09:24:31Z</time></trkpt><trkpt lat="42.41455575138233" lon="12.075974770676979"><ele>284.5</ele><time>2026-04-11T09:24:32Z</time></trkpt><trkpt lat="42.4142689630411" lon="12.075781765596929"><ele>284.0</ele><time>2026-04-11T09:24:33Z</time></trkpt><trkpt lat="42.413988720417045" lon="12.07558389767086"><ele>281.0</ele><time>2026-04-11T09:24:34Z</time></trkpt><trkpt lat="42.41371525420928" lon="12.075383427128685"><ele>278.0</ele><time>2026-04-11T09:24:35Z</time></trkpt><trkpt lat="42.4134359043545" lon="12.075190943018283"><ele>278.0</ele><time>2026-04-11T09:24:36Z</time></trkpt><trkpt lat="42.41315915816817" lon="12.07499625886996"><ele>278.0</ele><time>2026-04-11T09:24:37Z</time></trkpt><trkpt lat="42.41288607248959" lon="12.074805009860292"><ele>276.0</ele><time>2026-04-11T09:24:38Z</time></trkpt><trkpt lat="42.412609322825" lon="12.074614629706"><ele>274.0</ele><time>2026-04-11T09:24:39Z</time></trkpt><trkpt lat="42.41233563695295" lon="12.07442640032188"><ele>273.5</ele><time>2026-04-11T09:24:40Z</time></trkpt><trkpt lat="42.41206621037414" lon="12.074233624324867"><ele>273.0</ele><time>2026-04-11T09:24:41Z</time></trkpt><trkpt lat="42.41179746637879" lon="12.074044035827283"><ele>273.0</ele><time>2026-04-11T09:24:42Z</time></trkpt><trkpt lat="42.41153121237371" lon="12.07385219356712"><ele>273.0</ele><time>2026-04-11T09:24:43Z</time></trkpt><trkpt lat="42.411266728957344" lon="12.073661889681595"><ele>274.0</ele><time>2026-04-11T09:24:44Z</time></trkpt><trkpt lat="42.411005709137996" lon="12.073479648591208"><ele>275.0</ele><time>2026-04-11T09:24:45Z</time></trkpt><trkpt lat="42.4107374009178" lon="12.073287498649513"><ele>273.5</ele><time>2026-04-11T09:24:46Z</time></trkpt><trkpt lat="42.410466435080984" lon="12.073106496866867"><ele>272.0</ele><time>2026-04-11T09:24:47Z</time></trkpt><trkpt lat="42.4102012871147" lon="12.07292221772687"><ele>272.0</ele><time>2026-04-11T09:24:48Z</time></trkpt><trkpt lat="42.409936149141416" lon="12.072738363566618"><ele>272.0</ele><time>2026-04-11T09:24:49Z</time></trkpt><trkpt lat="42.4096691096851" lon="12.072552372505708"><ele>271.0</ele><time>2026-04-11T09:24:50Z</time></trkpt><trkpt lat="42.40939978051325" lon="12.072365628477346"><ele>270.0</ele><time>2026-04-11T09:24:51Z</time></trkpt><trkpt lat="42.40912864698206" lon="12.072175594005218"><ele>270.0</ele><time>2026-04-11T09:24:52Z</time></trkpt><trkpt lat="42.40885581222171" lon="12.07198082250198"><ele>270.0</ele><time>2026-04-11T09:24:53Z</time></trkpt><trkpt lat="42.408585188168786" lon="12.07178376384195"><ele>266.5</ele><time>2026-04-11T09:24:54Z</time></trkpt><trkpt lat="42.408313353303896" lon="12.071590169270591"><ele>263.0</ele><time>2026-04-11T09:24:55Z</time></trkpt><trkpt lat="42.40804582249105" lon="12.071385500511354"><ele>263.0</ele><time>2026-04-11T09:24:56Z</time></trkpt><trkpt lat="42.407777477295326" lon="12.071171909591433"><ele>263.0</ele><time>2026-04-11T09:24:57Z</time></trkpt><trkpt lat="42.40751423913466" lon="12.070956586458252"><ele>264.5</ele><time>2026-04-11T09:24:58Z</time></trkpt><trkpt lat="42.407251306562806" lon="12.070742786462356"><ele>266.0</ele><time>2026-04-11T09:24:59Z</time></trkpt><trkpt lat="42.40698993021578" lon="12.070535098134355"><ele>266.0</ele><time>2026-04-11T09:25:00Z</time></trkpt><trkpt lat="42.406727423474315" lon="12.07033011364087"><ele>266.0</ele><time>2026-04-11T09:25:01Z</time></trkpt><trkpt lat="42.40646291208031" lon="12.070131365626446"><ele>261.0</ele><time>2026-04-11T09:25:02Z</time></trkpt><trkpt lat="42.40619901460892" lon="12.069932004673273"><ele>256.0</ele><time>2026-04-11T09:25:03Z</time></trkpt><trkpt lat="42.405937054830844" lon="12.069731120398467"><ele>256.0</ele><time>2026-04-11T09:25:04Z</time></trkpt><trkpt lat="42.405675355839044" lon="12.069532134092068"><ele>256.0</ele><time>2026-04-11T09:25:05Z</time></trkpt><trkpt lat="42.40541816550655" lon="12.06932919806168"><ele>250.5</ele><time>2026-04-11T09:25:06Z</time></trkpt><trkpt lat="42.40515894310325" lon="12.06912423352195"><ele>245.0</ele><time>2026-04-11T09:25:07Z</time></trkpt><trkpt lat="42.40490180111479" lon="12.068924296480228"><ele>246.0</ele><time>2026-04-11T09:25:08Z</time></trkpt><trkpt lat="42.40464060050877" lon="12.068734475929181"><ele>247.0</ele><time>2026-04-11T09:25:09Z</time></trkpt><trkpt lat="42.40437662934045" lon="12.068554648972746"><ele>247.0</ele><time>2026-04-11T09:25:10Z</time></trkpt><trkpt lat="42.4041053274004" lon="12.068379628883957"><ele>247.0</ele><time>2026-04-11T09:25:11Z</time></trkpt><trkpt lat="42.40382884259919" lon="12.06821424123516"><ele>253.5</ele><time>2026-04-11T09:25:12Z</time></trkpt><trkpt lat="42.40354462344947" lon="12.06805053775809"><ele>260.0</ele><time>2026-04-11T09:25:13Z</time></trkpt><trkpt lat="42.403258633959894" lon="12.067896388263895"><ele>263.5</ele><time>2026-04-11T09:25:14Z</time></trkpt><trkpt lat="42.40296787746741" lon="12.06774895722744"><ele>267.0</ele><time>2026-04-11T09:25:15Z</time></trkpt><trkpt lat="42.4026755477499" lon="12.067603811639147"><ele>267.0</ele><time>2026-04-11T09:25:16Z</time></trkpt><trkpt lat="42.402381065449546" lon="12.06745676348605"><ele>267.0</ele><time>2026-04-11T09:25:17Z</time></trkpt><trkpt lat="42.40208020560721" lon="12.067320989231048"><ele>266.5</ele><time>2026-04-11T09:25:18Z</time></trkpt><trkpt lat="42.401784245847615" lon="12.067168459321596"><ele>266.0</ele><time>2026-04-11T09:25:19Z</time></trkpt><trkpt lat="42.40148276208866" lon="12.067024029321564"><ele>263.5</ele><time>2026-04-11T09:25:20Z</time></trkpt><trkpt lat="42.40118383099814" lon="12.066882551786772"><ele>261.0</ele><time>2026-04-11T09:25:21Z</time></trkpt><trkpt lat="42.40088436732726" lon="12.06674248904229"><ele>261.5</ele><time>2026-04-11T09:25:22Z</time></trkpt><trkpt lat="42.40058718525531" lon="12.06659720356437"><ele>262.0</ele><time>2026-04-11T09:25:23Z</time></trkpt><trkpt lat="42.40028747808013" lon="12.06645112653432"><ele>256.5</ele><time>2026-04-11T09:25:24Z</time></trkpt><trkpt lat="42.39998793905378" lon="12.066302185226876"><ele>251.0</ele><time>2026-04-11T09:25:25Z</time></trkpt><trkpt lat="42.399692968420595" lon="12.066148768500645"><ele>249.5</ele><time>2026-04-11T09:25:26Z</time></trkpt><trkpt lat="42.3993947578908" lon="12.066000834033307"><ele>248.0</ele><time>2026-04-11T09:25:27Z</time></trkpt><trkpt lat="42.399097826633195" lon="12.065851558234945"><ele>247.5</ele><time>2026-04-11T09:25:28Z</time></trkpt><trkpt lat="42.398802280723906" lon="12.065701627834253"><ele>247.0</ele><time>2026-04-11T09:25:29Z</time></trkpt><trkpt lat="42.39850701728881" lon="12.065549108812647"><ele>247.0</ele><time>2026-04-11T09:25:30Z</time></trkpt><trkpt lat="42.39821045846268" lon="12.06539808503667"><ele>247.0</ele><time>2026-04-11T09:25:31Z</time></trkpt><trkpt lat="42.39791362678843" lon="12.06525208265342"><ele>247.5</ele><time>2026-04-11T09:25:32Z</time></trkpt><trkpt lat="42.39761680092848" lon="12.065105323733096"><ele>248.0</ele><time>2026-04-11T09:25:33Z</time></trkpt><trkpt lat="42.39731843856137" lon="12.064957982459632"><ele>249.0</ele><time>2026-04-11T09:25:34Z</time></trkpt><trkpt lat="42.397045100176726" lon="12.064802537914831"><ele>250.0</ele><time>2026-04-11T09:25:35Z</time></trkpt><trkpt lat="42.396732508724035" lon="12.06465729245081"><ele>250.0</ele><time>2026-04-11T09:25:36Z</time></trkpt><trkpt lat="42.396432554747854" lon="12.064508110562038"><ele>250.0</ele><time>2026-04-11T09:25:37Z</time></trkpt><trkpt lat="42.39613023167031" lon="12.064357812400347"><ele>251.0</ele><time>2026-04-11T09:25:38Z</time></trkpt><trkpt lat="42.39582595031067" lon="12.064204075093082"><ele>252.0</ele><time>2026-04-11T09:25:39Z</time></trkpt><trkpt lat="42.395525139687805" lon="12.064045265459743"><ele>252.5</ele><time>2026-04-11T09:25:40Z</time></trkpt><trkpt lat="42.39522034594318" lon="12.06388308169174"><ele>253.0</ele><time>2026-04-11T09:25:41Z</time></trkpt><trkpt lat="42.39492407027583" lon="12.063718457109037"><ele>253.5</ele><time>2026-04-11T09:25:42Z</time></trkpt><trkpt lat="42.39462510911748" lon="12.063552371025628"><ele>254.0</ele><time>2026-04-11T09:25:43Z</time></trkpt><trkpt lat="42.39432654905824" lon="12.063385284877494"><ele>253.0</ele><time>2026-04-11T09:25:44Z</time></trkpt><trkpt lat="42.39402431239178" lon="12.063221056430038"><ele>252.0</ele><time>2026-04-11T09:25:45Z</time></trkpt><trkpt lat="42.39373473953018" lon="12.06304936493017"><ele>250.5</ele><time>2026-04-11T09:25:46Z</time></trkpt><trkpt lat="42.393443732124716" lon="12.062873106883831"><ele>249.0</ele><time>2026-04-11T09:25:47Z</time></trkpt><trkpt lat="42.39315681179721" lon="12.062700349460044"><ele>249.5</ele><time>2026-04-11T09:25:48Z</time></trkpt><trkpt lat="42.392878286474854" lon="12.0625259631819"><ele>250.0</ele><time>2026-04-11T09:25:49Z</time></trkpt><trkpt lat="42.39260192410915" lon="12.062358580531436"><ele>249.0</ele><time>2026-04-11T09:25:50Z</time></trkpt><trkpt lat="42.39232103643758" lon="12.062186446660052"><ele>248.0</ele><time>2026-04-11T09:25:51Z</time></trkpt><trkpt lat="42.39203262560025" lon="12.062010346725227"><ele>247.0</ele><time>2026-04-11T09:25:52Z</time></trkpt><trkpt lat="42.39174232023437" lon="12.06183400893268"><ele>246.0</ele><time>2026-04-11T09:25:53Z</time></trkpt><trkpt lat="42.39145182111944" lon="12.06165989865872"><ele>244.5</ele><time>2026-04-11T09:25:54Z</time></trkpt><trkpt lat="42.39116545180695" lon="12.061485990839056"><ele>243.0</ele><time>2026-04-11T09:25:55Z</time></trkpt><trkpt lat="42.39088029994815" lon="12.061308773214805"><ele>243.0</ele><time>2026-04-11T09:25:56Z</time></trkpt><trkpt lat="42.39058967120001" lon="12.061127212749494"><ele>243.0</ele><time>2026-04-11T09:25:57Z</time></trkpt><trkpt lat="42.39029668281119" lon="12.060944635483638"><ele>241.5</ele><time>2026-04-11T09:25:58Z</time></trkpt><trkpt lat="42.39000324676988" lon="12.06076486669516"><ele>240.0</ele><time>2026-04-11T09:25:59Z</time></trkpt><trkpt lat="42.389707725102035" lon="12.060588245640826"><ele>241.5</ele><time>2026-04-11T09:26:00Z</time></trkpt><trkpt lat="42.389407826384925" lon="12.060412055455494"><ele>243.0</ele><time>2026-04-11T09:26:01Z</time></trkpt><trkpt lat="42.389109913281025" lon="12.060230922988946"><ele>243.5</ele><time>2026-04-11T09:26:02Z</time></trkpt><trkpt lat="42.38881192311634" lon="12.060052079069305"><ele>244.0</ele><time>2026-04-11T09:26:03Z</time></trkpt><trkpt lat="42.38851386448614" lon="12.059872764766213"><ele>244.5</ele><time>2026-04-11T09:26:04Z</time></trkpt><trkpt lat="42.38821069762456" lon="12.059690193774948"><ele>245.0</ele><time>2026-04-11T09:26:05Z</time></trkpt><trkpt lat="42.38790779190173" lon="12.05950723345717"><ele>245.5</ele><time>2026-04-11T09:26:06Z</time></trkpt><trkpt lat="42.38760323389398" lon="12.059326114805199"><ele>246.0</ele><time>2026-04-11T09:26:07Z</time></trkpt><trkpt lat="42.38730234807005" lon="12.059147487861043"><ele>246.5</ele><time>2026-04-11T09:26:08Z</time></trkpt><trkpt lat="42.38700366391574" lon="12.058968301621105"><ele>247.0</ele><time>2026-04-11T09:26:09Z</time></trkpt><trkpt lat="42.38670656981133" lon="12.05879620370745"><ele>247.0</ele><time>2026-04-11T09:26:10Z</time></trkpt><trkpt lat="42.3864119263517" lon="12.058626862085562"><ele>247.0</ele><time>2026-04-11T09:26:11Z</time></trkpt><trkpt lat="42.38611647133401" lon="12.058460155403226"><ele>247.0</ele><time>2026-04-11T09:26:12Z</time></trkpt><trkpt lat="42.38581851674405" lon="12.058289977128826"><ele>247.0</ele><time>2026-04-11T09:26:13Z</time></trkpt><trkpt lat="42.38551808158807" lon="12.058122542917232"><ele>246.0</ele><time>2026-04-11T09:26:14Z</time></trkpt><trkpt lat="42.385220381457955" lon="12.057954971133102"><ele>245.0</ele><time>2026-04-11T09:26:15Z</time></trkpt><trkpt lat="42.384921299925956" lon="12.057791819054192"><ele>246.5</ele><time>2026-04-11T09:26:16Z</time></trkpt><trkpt lat="42.38462099941359" lon="12.057626427109417"><ele>248.0</ele><time>2026-04-11T09:26:17Z</time></trkpt><trkpt lat="42.38431504094965" lon="12.05746947639409"><ele>246.5</ele><time>2026-04-11T09:26:18Z</time></trkpt><trkpt lat="42.38401692008003" lon="12.057309077385987"><ele>245.0</ele><time>2026-04-11T09:26:19Z</time></trkpt><trkpt lat="42.3837131388706" lon="12.057142846053644"><ele>245.0</ele><time>2026-04-11T09:26:20Z</time></trkpt><trkpt lat="42.38341525111445" lon="12.05698579785167"><ele>245.0</ele><time>2026-04-11T09:26:21Z</time></trkpt><trkpt lat="42.38311868100748" lon="12.056826152185973"><ele>245.5</ele><time>2026-04-11T09:26:22Z</time></trkpt><trkpt lat="42.38282269828955" lon="12.05666229196648"><ele>246.0</ele><time>2026-04-11T09:26:23Z</time></trkpt><trkpt lat="42.38252705293817" lon="12.056501528690115"><ele>244.5</ele><time>2026-04-11T09:26:24Z</time></trkpt><trkpt lat="42.38222880260769" lon="12.056344238083765"><ele>243.0</ele><time>2026-04-11T09:26:25Z</time></trkpt><trkpt lat="42.38193104759145" lon="12.056189750163206"><ele>243.0</ele><time>2026-04-11T09:26:26Z</time></trkpt><trkpt lat="42.38161830908639" lon="12.056028548127086"><ele>243.0</ele><time>2026-04-11T09:26:27Z</time></trkpt><trkpt lat="42.38128310759293" lon="12.055855252949131"><ele>241.5</ele><time>2026-04-11T09:26:28Z</time></trkpt><trkpt lat="42.38093992529718" lon="12.055672208222935"><ele>240.0</ele><time>2026-04-11T09:26:29Z</time></trkpt><trkpt lat="42.38058758330475" lon="12.055487675905793"><ele>238.5</ele><time>2026-04-11T09:26:30Z</time></trkpt><trkpt lat="42.38022080560384" lon="12.055295835252688"><ele>237.0</ele><time>2026-04-11T09:26:31Z</time></trkpt><trkpt lat="42.37985627897594" lon="12.05509918869249"><ele>237.5</ele><time>2026-04-11T09:26:32Z</time></trkpt><trkpt lat="42.37951783546922" lon="12.054916857667012"><ele>238.0</ele><time>2026-04-11T09:26:33Z</time></trkpt><trkpt lat="42.37920380386548" lon="12.054736834413896"><ele>238.0</ele><time>2026-04-11T09:26:34Z</time></trkpt><trkpt lat="42.37891405530952" lon="12.054563314888572"><ele>238.0</ele><time>2026-04-11T09:26:35Z</time></trkpt><trkpt lat="42.37865152324856" lon="12.05441217028913"><ele>239.0</ele><time>2026-04-11T09:26:36Z</time></trkpt><trkpt lat="42.37839926408749" lon="12.054266175002764"><ele>240.0</ele><time>2026-04-11T09:26:37Z</time></trkpt><trkpt lat="42.378163353365146" lon="12.054120815617626"><ele>239.5</ele><time>2026-04-11T09:26:38Z</time></trkpt><trkpt lat="42.37795199025976" lon="12.053980408082657"><ele>239.0</ele><time>2026-04-11T09:26:39Z</time></trkpt><trkpt lat="42.377743563376264" lon="12.05384553594236"><ele>239.0</ele><time>2026-04-11T09:26:40Z</time></trkpt><trkpt lat="42.37755913384731" lon="12.053698503203941"><ele>239.0</ele><time>2026-04-11T09:26:41Z</time></trkpt><trkpt lat="42.377377150128446" lon="12.053534143734604"><ele>239.0</ele><time>2026-04-11T09:26:42Z</time></trkpt><trkpt lat="42.37720270982342" lon="12.053325998304386"><ele>237.5</ele><time>2026-04-11T09:26:43Z</time></trkpt><trkpt lat="42.37703424028555" lon="12.053079896470491"><ele>236.0</ele><time>2026-04-11T09:26:44Z</time></trkpt><trkpt lat="42.37686495815762" lon="12.052808135968718"><ele>236.0</ele><time>2026-04-11T09:26:45Z</time></trkpt><trkpt lat="42.376704748160776" lon="12.052530398606885"><ele>236.0</ele><time>2026-04-11T09:26:46Z</time></trkpt><trkpt lat="42.37654599154721" lon="12.052281764816549"><ele>235.0</ele><time>2026-04-11T09:26:47Z</time></trkpt><trkpt lat="42.37637263432076" lon="12.05205420994261"><ele>234.0</ele><time>2026-04-11T09:26:48Z</time></trkpt><trkpt lat="42.37618073697239" lon="12.051836541064034"><ele>234.0</ele><time>2026-04-11T09:26:49Z</time></trkpt><trkpt lat="42.37596601176902" lon="12.051652399172966"><ele>234.0</ele><time>2026-04-11T09:26:50Z</time></trkpt><trkpt lat="42.37573933938524" lon="12.051517459735898"><ele>233.0</ele><time>2026-04-11T09:26:51Z</time></trkpt><trkpt lat="42.37549774809884" lon="12.051426582348972"><ele>232.0</ele><time>2026-04-11T09:26:52Z</time></trkpt><trkpt lat="42.37524690112783" lon="12.051376902312645"><ele>232.0</ele><time>2026-04-11T09:26:53Z</time></trkpt><trkpt lat="42.37499629121683" lon="12.051382484541854"><ele>232.0</ele><time>2026-04-11T09:26:54Z</time></trkpt><trkpt lat="42.37474643524457" lon="12.051431964464365"><ele>231.0</ele><time>2026-04-11T09:26:55Z</time></trkpt><trkpt lat="42.37450721734752" lon="12.051526532077505"><ele>230.0</ele><time>2026-04-11T09:26:56Z</time></trkpt><trkpt lat="42.37428308933207" lon="12.051657734932055"><ele>233.0</ele><time>2026-04-11T09:26:57Z</time></trkpt><trkpt lat="42.37408403575214" lon="12.05181819137655"><ele>236.0</ele><time>2026-04-11T09:26:58Z</time></trkpt><trkpt lat="42.37388880756779" lon="12.05200582481669"><ele>236.0</ele><time>2026-04-11T09:26:59Z</time></trkpt><trkpt lat="42.3736977124344" lon="12.052229843005607"><ele>236.0</ele><time>2026-04-11T09:27:00Z</time></trkpt><trkpt lat="42.37351390020482" lon="12.052490063769625"><ele>236.0</ele><time>2026-04-11T09:27:01Z</time></trkpt><trkpt lat="42.37334095996563" lon="12.052788402049847"><ele>236.0</ele><time>2026-04-11T09:27:02Z</time></trkpt><trkpt lat="42.3731726700274" lon="12.053103711166871"><ele>234.5</ele><time>2026-04-11T09:27:03Z</time></trkpt><trkpt lat="42.372999392236935" lon="12.053425810570976"><ele>233.0</ele><time>2026-04-11T09:27:04Z</time></trkpt><trkpt lat="42.372822547351944" lon="12.053752023984163"><ele>233.0</ele><time>2026-04-11T09:27:05Z</time></trkpt><trkpt lat="42.372644798297436" lon="12.054078612567345"><ele>233.0</ele><time>2026-04-11T09:27:06Z</time></trkpt><trkpt lat="42.37246631992922" lon="12.054407141046065"><ele>234.5</ele><time>2026-04-11T09:27:07Z</time></trkpt><trkpt lat="42.37229305181811" lon="12.054734647361196"><ele>236.0</ele><time>2026-04-11T09:27:08Z</time></trkpt><trkpt lat="42.372117601886686" lon="12.055066082140069"><ele>237.0</ele><time>2026-04-11T09:27:09Z</time></trkpt><trkpt lat="42.37194223637016" lon="12.05539187611422"><ele>238.0</ele><time>2026-04-11T09:27:10Z</time></trkpt><trkpt lat="42.371769732324026" lon="12.055703122513659"><ele>239.5</ele><time>2026-04-11T09:27:11Z</time></trkpt><trkpt lat="42.37159959865181" lon="12.055997604734094"><ele>241.0</ele><time>2026-04-11T09:27:12Z</time></trkpt><trkpt lat="42.37142696767221" lon="12.056282891689113"><ele>240.5</ele><time>2026-04-11T09:27:13Z</time></trkpt><trkpt lat="42.3712490158288" lon="12.056560411061785"><ele>240.0</ele><time>2026-04-11T09:27:14Z</time></trkpt><trkpt lat="42.371060848053" lon="12.056833353669226"><ele>242.5</ele><time>2026-04-11T09:27:15Z</time></trkpt><trkpt lat="42.37086188805338" lon="12.05709484352306"><ele>245.0</ele><time>2026-04-11T09:27:16Z</time></trkpt><trkpt lat="42.37064710048892" lon="12.05733750962938"><ele>247.0</ele><time>2026-04-11T09:27:17Z</time></trkpt><trkpt lat="42.37041307368637" lon="12.057537153876956"><ele>249.0</ele><time>2026-04-11T09:27:18Z</time></trkpt><trkpt lat="42.3701742614297" lon="12.057725699880999"><ele>249.0</ele><time>2026-04-11T09:27:19Z</time></trkpt><trkpt lat="42.36993005275815" lon="12.05790134721671"><ele>249.0</ele><time>2026-04-11T09:27:20Z</time></trkpt><trkpt lat="42.36966181649403" lon="12.058026227035674"><ele>249.0</ele><time>2026-04-11T09:27:21Z</time></trkpt><trkpt lat="42.36936986857547" lon="12.058135249916575"><ele>249.0</ele><time>2026-04-11T09:27:22Z</time></trkpt><trkpt lat="42.369056492960354" lon="12.058220627715206"><ele>250.0</ele><time>2026-04-11T09:27:23Z</time></trkpt><trkpt lat="42.368746307051524" lon="12.058270667892351"><ele>251.0</ele><time>2026-04-11T09:27:24Z</time></trkpt><trkpt lat="42.368455859097054" lon="12.058312911160481"><ele>252.0</ele><time>2026-04-11T09:27:25Z</time></trkpt><trkpt lat="42.36817331426778" lon="12.058354609593458"><ele>253.0</ele><time>2026-04-11T09:27:26Z</time></trkpt><trkpt lat="42.36789940306386" lon="12.058399863506093"><ele>254.0</ele><time>2026-04-11T09:27:27Z</time></trkpt><trkpt lat="42.36762660729805" lon="12.058444495227315"><ele>255.0</ele><time>2026-04-11T09:27:28Z</time></trkpt><trkpt lat="42.36735867922455" lon="12.0584847875931"><ele>257.0</ele><time>2026-04-11T09:27:29Z</time></trkpt><trkpt lat="42.36708768102351" lon="12.05852874368267"><ele>259.0</ele><time>2026-04-11T09:27:30Z</time></trkpt><trkpt lat="42.36681641382403" lon="12.058580438695389"><ele>259.0</ele><time>2026-04-11T09:27:31Z</time></trkpt><trkpt lat="42.3665501756235" lon="12.0586095050101"><ele>259.0</ele><time>2026-04-11T09:27:32Z</time></trkpt><trkpt lat="42.366271660746314" lon="12.058651517061522"><ele>259.5</ele><time>2026-04-11T09:27:33Z</time></trkpt><trkpt lat="42.365994221536056" lon="12.058693986597103"><ele>260.0</ele><time>2026-04-11T09:27:34Z</time></trkpt><trkpt lat="42.36570970105622" lon="12.058739647586744"><ele>260.5</ele><time>2026-04-11T09:27:35Z</time></trkpt><trkpt lat="42.36543009158501" lon="12.058795611973315"><ele>261.0</ele><time>2026-04-11T09:27:36Z</time></trkpt><trkpt lat="42.3651460023272" lon="12.0588516287817"><ele>261.0</ele><time>2026-04-11T09:27:37Z</time></trkpt><trkpt lat="42.364863136318824" lon="12.058911366762699"><ele>261.0</ele><time>2026-04-11T09:27:38Z</time></trkpt><trkpt lat="42.36457948554021" lon="12.058971387275596"><ele>262.5</ele><time>2026-04-11T09:27:39Z</time></trkpt><trkpt lat="42.36429625662651" lon="12.059026269019444"><ele>264.0</ele><time>2026-04-11T09:27:40Z</time></trkpt><trkpt lat="42.36401594140291" lon="12.059083238375061"><ele>266.5</ele><time>2026-04-11T09:27:41Z</time></trkpt><trkpt lat="42.3637362887023" lon="12.059144360292612"><ele>269.0</ele><time>2026-04-11T09:27:42Z</time></trkpt><trkpt lat="42.363458588570026" lon="12.059197337389032"><ele>269.0</ele><time>2026-04-11T09:27:43Z</time></trkpt><trkpt lat="42.363187870006925" lon="12.059255262713222"><ele>269.0</ele><time>2026-04-11T09:27:44Z</time></trkpt><trkpt lat="42.362918094575086" lon="12.059314342396458"><ele>270.0</ele><time>2026-04-11T09:27:45Z</time></trkpt><trkpt lat="42.3626518847905" lon="12.059366473237537"><ele>271.0</ele><time>2026-04-11T09:27:46Z</time></trkpt><trkpt lat="42.36237945708794" lon="12.059419265758697"><ele>273.0</ele><time>2026-04-11T09:27:47Z</time></trkpt><trkpt lat="42.36212003217246" lon="12.0594675578745"><ele>275.0</ele><time>2026-04-11T09:27:48Z</time></trkpt><trkpt lat="42.361871267200605" lon="12.059535392727266"><ele>275.0</ele><time>2026-04-11T09:27:49Z</time></trkpt><trkpt lat="42.36163307709131" lon="12.05959326241824"><ele>275.0</ele><time>2026-04-11T09:27:50Z</time></trkpt><trkpt lat="42.36138576397531" lon="12.059638746906884"><ele>278.0</ele><time>2026-04-11T09:27:51Z</time></trkpt><trkpt lat="42.36115585380552" lon="12.059707415767138"><ele>281.0</ele><time>2026-04-11T09:27:52Z</time></trkpt><trkpt lat="42.36093538116" lon="12.059808036048382"><ele>281.0</ele><time>2026-04-11T09:27:53Z</time></trkpt><trkpt lat="42.36074770920783" lon="12.059921749002573"><ele>281.0</ele><time>2026-04-11T09:27:54Z</time></trkpt><trkpt lat="42.36057324418212" lon="12.060089412499693"><ele>281.0</ele><time>2026-04-11T09:27:55Z</time></trkpt><trkpt lat="42.36040795919605" lon="12.06031136508435"><ele>280.5</ele><time>2026-04-11T09:27:56Z</time></trkpt><trkpt lat="42.360210769389816" lon="12.06052541312468"><ele>280.0</ele><time>2026-04-11T09:27:57Z</time></trkpt><trkpt lat="42.36001607906599" lon="12.060757102323937"><ele>282.0</ele><time>2026-04-11T09:27:58Z</time></trkpt><trkpt lat="42.35980266757751" lon="12.061014660152281"><ele>284.0</ele><time>2026-04-11T09:27:59Z</time></trkpt><trkpt lat="42.35956635775235" lon="12.061238929154442"><ele>285.5</ele><time>2026-04-11T09:28:00Z</time></trkpt><trkpt lat="42.35932807887276" lon="12.061432860712662"><ele>287.0</ele><time>2026-04-11T09:28:01Z</time></trkpt><trkpt lat="42.35909699466496" lon="12.061576697778468"><ele>287.33333333333337</ele><time>2026-04-11T09:28:02Z</time></trkpt><trkpt lat="42.35888694745838" lon="12.061660928084338"><ele>287.6666666666667</ele><time>2026-04-11T09:28:03Z</time></trkpt><trkpt lat="42.358682957243666" lon="12.061707660296264"><ele>288.0</ele><time>2026-04-11T09:28:04Z</time></trkpt><trkpt lat="42.3584642023244" lon="12.061743850770087"><ele>292.5</ele><time>2026-04-11T09:28:05Z</time></trkpt><trkpt lat="42.35822647157657" lon="12.061736246363887"><ele>297.0</ele><time>2026-04-11T09:28:06Z</time></trkpt><trkpt lat="42.35797555014367" lon="12.061681745374948"><ele>300.0</ele><time>2026-04-11T09:28:07Z</time></trkpt><trkpt lat="42.357721508621225" lon="12.061633121474546"><ele>303.0</ele><time>2026-04-11T09:28:08Z</time></trkpt><trkpt lat="42.35745853470291" lon="12.061613770476674"><ele>306.0</ele><time>2026-04-11T09:28:09Z</time></trkpt><trkpt lat="42.35718698062499" lon="12.061592310721156"><ele>309.0</ele><time>2026-04-11T09:28:10Z</time></trkpt><trkpt lat="42.3569115718168" lon="12.061566087673643"><ele>309.0</ele><time>2026-04-11T09:28:11Z</time></trkpt><trkpt lat="42.35663416648261" lon="12.061541970050119"><ele>309.0</ele><time>2026-04-11T09:28:12Z</time></trkpt><trkpt lat="42.35635482494358" lon="12.061526542270087"><ele>311.0</ele><time>2026-04-11T09:28:13Z</time></trkpt><trkpt lat="42.35607545097598" lon="12.061506404890354"><ele>313.0</ele><time>2026-04-11T09:28:14Z</time></trkpt><trkpt lat="42.35579694798043" lon="12.061484627528527"><ele>314.5</ele><time>2026-04-11T09:28:15Z</time></trkpt><trkpt lat="42.35551245591004" lon="12.06147225036583"><ele>316.0</ele><time>2026-04-11T09:28:16Z</time></trkpt><trkpt lat="42.35525251262522" lon="12.061445605800525"><ele>316.0</ele><time>2026-04-11T09:28:17Z</time></trkpt><trkpt lat="42.354988692816676" lon="12.061424251591465"><ele>316.0</ele><time>2026-04-11T09:28:18Z</time></trkpt><trkpt lat="42.35471913861171" lon="12.06139866543132"><ele>316.5</ele><time>2026-04-11T09:28:19Z</time></trkpt><trkpt lat="42.35444599462372" lon="12.061374181446666"><ele>317.0</ele><time>2026-04-11T09:28:20Z</time></trkpt><trkpt lat="42.35417339742278" lon="12.061348343028978"><ele>317.0</ele><time>2026-04-11T09:28:21Z</time></trkpt><trkpt lat="42.35390327499916" lon="12.061326400639059"><ele>317.0</ele><time>2026-04-11T09:28:22Z</time></trkpt><trkpt lat="42.35362821257735" lon="12.061308412673275"><ele>315.0</ele><time>2026-04-11T09:28:23Z</time></trkpt><trkpt lat="42.3533523262066" lon="12.061288520028286"><ele>313.0</ele><time>2026-04-11T09:28:24Z</time></trkpt><trkpt lat="42.35306754723865" lon="12.061281945407996"><ele>310.5</ele><time>2026-04-11T09:28:25Z</time></trkpt><trkpt lat="42.35277848276542" lon="12.061275216039641"><ele>308.0</ele><time>2026-04-11T09:28:26Z</time></trkpt><trkpt lat="42.352484054721344" lon="12.061273591750716"><ele>302.5</ele><time>2026-04-11T09:28:27Z</time></trkpt><trkpt lat="42.3521878433387" lon="12.061278614453594"><ele>297.0</ele><time>2026-04-11T09:28:28Z</time></trkpt><trkpt lat="42.3518933524073" lon="12.061284289462492"><ele>297.0</ele><time>2026-04-11T09:28:29Z</time></trkpt><trkpt lat="42.351610217406765" lon="12.061284965383646"><ele>297.0</ele><time>2026-04-11T09:28:30Z</time></trkpt><trkpt lat="42.35133379395121" lon="12.061292004242498"><ele>298.5</ele><time>2026-04-11T09:28:31Z</time></trkpt><trkpt lat="42.35105295129571" lon="12.061298934446533"><ele>300.0</ele><time>2026-04-11T09:28:32Z</time></trkpt><trkpt lat="42.35077221948306" lon="12.061302164501136"><ele>303.5</ele><time>2026-04-11T09:28:33Z</time></trkpt><trkpt lat="42.35049231639441" lon="12.061301863304443"><ele>307.0</ele><time>2026-04-11T09:28:34Z</time></trkpt><trkpt lat="42.3502155596908" lon="12.061303141627825"><ele>307.0</ele><time>2026-04-11T09:28:35Z</time></trkpt><trkpt lat="42.3499363851635" lon="12.061307118355312"><ele>307.0</ele><time>2026-04-11T09:28:36Z</time></trkpt><trkpt lat="42.3496647141721" lon="12.061304613498985"><ele>307.0</ele><time>2026-04-11T09:28:37Z</time></trkpt><trkpt lat="42.349397120275526" lon="12.061305358170216"><ele>307.0</ele><time>2026-04-11T09:28:38Z</time></trkpt><trkpt lat="42.3491205814297" lon="12.061310726883828"><ele>305.0</ele><time>2026-04-11T09:28:39Z</time></trkpt><trkpt lat="42.34884399484648" lon="12.06131605399154"><ele>303.0</ele><time>2026-04-11T09:28:40Z</time></trkpt><trkpt lat="42.34856207579895" lon="12.061321355336963"><ele>303.0</ele><time>2026-04-11T09:28:41Z</time></trkpt><trkpt lat="42.34828021723272" lon="12.06132591817819"><ele>303.0</ele><time>2026-04-11T09:28:42Z</time></trkpt><trkpt lat="42.34800028018094" lon="12.061334032600088"><ele>302.0</ele><time>2026-04-11T09:28:43Z</time></trkpt><trkpt lat="42.34773078148974" lon="12.061340250615025"><ele>301.0</ele><time>2026-04-11T09:28:44Z</time></trkpt><trkpt lat="42.34748252536235" lon="12.061344505019763"><ele>301.0</ele><time>2026-04-11T09:28:45Z</time></trkpt><trkpt lat="42.347261866274515" lon="12.06134172922296"><ele>301.0</ele><time>2026-04-11T09:28:46Z</time></trkpt><trkpt lat="42.34705628488027" lon="12.061307117017908"><ele>301.0</ele><time>2026-04-11T09:28:47Z</time></trkpt><trkpt lat="42.34686322751893" lon="12.061224877098468"><ele>302.66666666666663</ele><time>2026-04-11T09:28:48Z</time></trkpt><trkpt lat="42.34666366871492" lon="12.061106902862774"><ele>304.3333333333333</ele><time>2026-04-11T09:28:49Z</time></trkpt><trkpt lat="42.346463476664624" lon="12.06096618949356"><ele>306.0</ele><time>2026-04-11T09:28:50Z</time></trkpt><trkpt lat="42.34626924797222" lon="12.060823589640682"><ele>306.0</ele><time>2026-04-11T09:28:51Z</time></trkpt><trkpt lat="42.346069920238115" lon="12.060673831697217"><ele>306.0</ele><time>2026-04-11T09:28:52Z</time></trkpt><trkpt lat="42.3458686918518" lon="12.060526662580093"><ele>306.0</ele><time>2026-04-11T09:28:53Z</time></trkpt><trkpt lat="42.34565849345658" lon="12.060393970279652"><ele>306.0</ele><time>2026-04-11T09:28:54Z</time></trkpt><trkpt lat="42.345439423054465" lon="12.060259300999558"><ele>305.0</ele><time>2026-04-11T09:28:55Z</time></trkpt><trkpt lat="42.34521689396665" lon="12.060130939847607"><ele>304.0</ele><time>2026-04-11T09:28:56Z</time></trkpt><trkpt lat="42.34503401004853" lon="12.060032541291571"><ele>303.0</ele><time>2026-04-11T09:28:57Z</time></trkpt><trkpt lat="42.34485792293845" lon="12.059933251127891"><ele>301.0</ele><time>2026-04-11T09:28:58Z</time></trkpt><trkpt lat="42.344687666415254" lon="12.05984048409075"><ele>299.0</ele><time>2026-04-11T09:28:59Z</time></trkpt><trkpt lat="42.344549819200786" lon="12.059767934954232"><ele>297.0</ele><time>2026-04-11T09:29:00Z</time></trkpt><trkpt lat="42.344430772365925" lon="12.059708361889896"><ele>297.0</ele><time>2026-04-11T09:29:01Z</time></trkpt><trkpt lat="42.34430487893807" lon="12.059643334082285"><ele>297.0</ele><time>2026-04-11T09:29:02Z</time></trkpt><trkpt lat="42.34417609010241" lon="12.059557481568834"><ele>297.0</ele><time>2026-04-11T09:29:03Z</time></trkpt><trkpt lat="42.344055544006636" lon="12.059469041871855"><ele>297.0</ele><time>2026-04-11T09:29:04Z</time></trkpt><trkpt lat="42.34393215002023" lon="12.059397386224278"><ele>296.6666666666667</ele><time>2026-04-11T09:29:05Z</time></trkpt><trkpt lat="42.34377756538124" lon="12.059314166666537"><ele>296.33333333333337</ele><time>2026-04-11T09:29:06Z</time></trkpt><trkpt lat="42.34361103433627" lon="12.059214438799518"><ele>296.0</ele><time>2026-04-11T09:29:07Z</time></trkpt><trkpt lat="42.34342525717895" lon="12.059115402124279"><ele>295.0</ele><time>2026-04-11T09:29:08Z</time></trkpt><trkpt lat="42.34322714791502" lon="12.059006275695742"><ele>294.0</ele><time>2026-04-11T09:29:09Z</time></trkpt><trkpt lat="42.343018672831846" lon="12.05888437068778"><ele>293.0</ele><time>2026-04-11T09:29:10Z</time></trkpt><trkpt lat="42.342799657754085" lon="12.058755026986466"><ele>292.5</ele><time>2026-04-11T09:29:11Z</time></trkpt><trkpt lat="42.34257482200758" lon="12.058623053108986"><ele>292.0</ele><time>2026-04-11T09:29:12Z</time></trkpt><trkpt lat="42.342337283802294" lon="12.058501323922478"><ele>291.0</ele><time>2026-04-11T09:29:13Z</time></trkpt><trkpt lat="42.34209985863254" lon="12.05836498175837"><ele>290.0</ele><time>2026-04-11T09:29:14Z</time></trkpt><trkpt lat="42.341860608424724" lon="12.058232364667974"><ele>289.5</ele><time>2026-04-11T09:29:15Z</time></trkpt><trkpt lat="42.341621578041845" lon="12.058096313043862"><ele>289.0</ele><time>2026-04-11T09:29:16Z</time></trkpt><trkpt lat="42.341378994713416" lon="12.05795597050238"><ele>285.5</ele><time>2026-04-11T09:29:17Z</time></trkpt><trkpt lat="42.341137388497785" lon="12.05781899106651"><ele>282.0</ele><time>2026-04-11T09:29:18Z</time></trkpt><trkpt lat="42.34089645044103" lon="12.057684559770001"><ele>282.0</ele><time>2026-04-11T09:29:19Z</time></trkpt><trkpt lat="42.34065717853947" lon="12.057560566377461"><ele>282.0</ele><time>2026-04-11T09:29:20Z</time></trkpt><trkpt lat="42.34042751270755" lon="12.05743105077515"><ele>278.0</ele><time>2026-04-11T09:29:21Z</time></trkpt><trkpt lat="42.34018222984994" lon="12.057315945321"><ele>274.0</ele><time>2026-04-11T09:29:22Z</time></trkpt><trkpt lat="42.33992277472156" lon="12.057224565313199"><ele>277.0</ele><time>2026-04-11T09:29:23Z</time></trkpt><trkpt lat="42.339652043013636" lon="12.057156072427581"><ele>280.0</ele><time>2026-04-11T09:29:24Z</time></trkpt><trkpt lat="42.33938739596735" lon="12.057088022607083"><ele>280.0</ele><time>2026-04-11T09:29:25Z</time></trkpt><trkpt lat="42.339116652096315" lon="12.057027858478163"><ele>280.0</ele><time>2026-04-11T09:29:26Z</time></trkpt><trkpt lat="42.33884802472256" lon="12.056970442925131"><ele>282.0</ele><time>2026-04-11T09:29:27Z</time></trkpt><trkpt lat="42.338580875901705" lon="12.056917046744898"><ele>284.0</ele><time>2026-04-11T09:29:28Z</time></trkpt><trkpt lat="42.33832402207599" lon="12.056866186399102"><ele>284.0</ele><time>2026-04-11T09:29:29Z</time></trkpt><trkpt lat="42.338075836265595" lon="12.05680940494167"><ele>284.0</ele><time>2026-04-11T09:29:30Z</time></trkpt><trkpt lat="42.337838646418675" lon="12.056753298434248"><ele>284.5</ele><time>2026-04-11T09:29:31Z</time></trkpt><trkpt lat="42.337598494716275" lon="12.056709894195423"><ele>285.0</ele><time>2026-04-11T09:29:32Z</time></trkpt><trkpt lat="42.33734641718975" lon="12.056661027203365"><ele>285.0</ele><time>2026-04-11T09:29:33Z</time></trkpt><trkpt lat="42.33708637049691" lon="12.056588785197812"><ele>285.0</ele><time>2026-04-11T09:29:34Z</time></trkpt><trkpt lat="42.336830693119644" lon="12.05648736617712"><ele>285.0</ele><time>2026-04-11T09:29:35Z</time></trkpt><trkpt lat="42.33659062701532" lon="12.056339579993958"><ele>285.0</ele><time>2026-04-11T09:29:36Z</time></trkpt><trkpt lat="42.33637005637836" lon="12.05616018897584"><ele>285.5</ele><time>2026-04-11T09:29:37Z</time></trkpt><trkpt lat="42.33614626373129" lon="12.055957297116635"><ele>286.0</ele><time>2026-04-11T09:29:38Z</time></trkpt><trkpt lat="42.33591436823797" lon="12.055741795722879"><ele>285.0</ele><time>2026-04-11T09:29:39Z</time></trkpt><trkpt lat="42.33566775020221" lon="12.05552482543104"><ele>284.0</ele><time>2026-04-11T09:29:40Z</time></trkpt><trkpt lat="42.33541222154995" lon="12.055297387949029"><ele>284.0</ele><time>2026-04-11T09:29:41Z</time></trkpt><trkpt lat="42.33515998162984" lon="12.055071426448265"><ele>284.0</ele><time>2026-04-11T09:29:42Z</time></trkpt><trkpt lat="42.33491466142508" lon="12.054851560298152"><ele>283.5</ele><time>2026-04-11T09:29:43Z</time></trkpt><trkpt lat="42.33468005213903" lon="12.054652433739284"><ele>283.0</ele><time>2026-04-11T09:29:44Z</time></trkpt><trkpt lat="42.33446509929336" lon="12.054464084402019"><ele>283.0</ele><time>2026-04-11T09:29:45Z</time></trkpt><trkpt lat="42.33425491660461" lon="12.054290585523077"><ele>283.0</ele><time>2026-04-11T09:29:46Z</time></trkpt><trkpt lat="42.33404610157825" lon="12.054149267189766"><ele>281.0</ele><time>2026-04-11T09:29:47Z</time></trkpt><trkpt lat="42.3338190080904" lon="12.054036729117414"><ele>279.0</ele><time>2026-04-11T09:29:48Z</time></trkpt><trkpt lat="42.33355848524494" lon="12.053942682779487"><ele>279.0</ele><time>2026-04-11T09:29:49Z</time></trkpt><trkpt lat="42.33327630763923" lon="12.0538555391279"><ele>279.0</ele><time>2026-04-11T09:29:50Z</time></trkpt><trkpt lat="42.33300179067265" lon="12.05376278685197"><ele>281.5</ele><time>2026-04-11T09:29:51Z</time></trkpt><trkpt lat="42.33272634203929" lon="12.053670415278477"><ele>284.0</ele><time>2026-04-11T09:29:52Z</time></trkpt><trkpt lat="42.33246485562052" lon="12.053580934019587"><ele>284.0</ele><time>2026-04-11T09:29:53Z</time></trkpt><trkpt lat="42.33223185288584" lon="12.05349619718098"><ele>284.0</ele><time>2026-04-11T09:29:54Z</time></trkpt><trkpt lat="42.332021434186714" lon="12.053425023898201"><ele>285.0</ele><time>2026-04-11T09:29:55Z</time></trkpt><trkpt lat="42.331819266451944" lon="12.053379675212398"><ele>286.0</ele><time>2026-04-11T09:29:56Z</time></trkpt><trkpt lat="42.33160717316318" lon="12.053369100028789"><ele>287.0</ele><time>2026-04-11T09:29:57Z</time></trkpt><trkpt lat="42.33138313014031" lon="12.053391810490483"><ele>287.33333333333337</ele><time>2026-04-11T09:29:58Z</time></trkpt><trkpt lat="42.33116027728278" lon="12.053416018002434"><ele>287.6666666666667</ele><time>2026-04-11T09:29:59Z</time></trkpt><trkpt lat="42.3309369458339" lon="12.053430907278685"><ele>288.0</ele><time>2026-04-11T09:30:00Z</time></trkpt><trkpt lat="42.33071350890099" lon="12.053427190792442"><ele>288.3333333333333</ele><time>2026-04-11T09:30:01Z</time></trkpt><trkpt lat="42.3304917996327" lon="12.053394564237117"><ele>288.66666666666663</ele><time>2026-04-11T09:30:02Z</time></trkpt><trkpt lat="42.33027667852619" lon="12.053343666595305"><ele>289.0</ele><time>2026-04-11T09:30:03Z</time></trkpt><trkpt lat="42.33007997228974" lon="12.053281155031279"><ele>289.0</ele><time>2026-04-11T09:30:04Z</time></trkpt><trkpt lat="42.32991474097237" lon="12.053242208689868"><ele>289.0</ele><time>2026-04-11T09:30:05Z</time></trkpt><trkpt lat="42.329754793088405" lon="12.053212936923499"><ele>289.0</ele><time>2026-04-11T09:30:06Z</time></trkpt><trkpt lat="42.329599842729465" lon="12.053194590625415"><ele>289.0</ele><time>2026-04-11T09:30:07Z</time></trkpt><trkpt lat="42.32944655919077" lon="12.053201802972733"><ele>289.0</ele><time>2026-04-11T09:30:08Z</time></trkpt><trkpt lat="42.32929643643985" lon="12.05323965592777"><ele>289.0</ele><time>2026-04-11T09:30:09Z</time></trkpt><trkpt lat="42.32914778508514" lon="12.053298283710182"><ele>289.0</ele><time>2026-04-11T09:30:10Z</time></trkpt><trkpt lat="42.32900430316952" lon="12.053362527904953"><ele>289.0</ele><time>2026-04-11T09:30:11Z</time></trkpt><trkpt lat="42.32886679601869" lon="12.053423662495849"><ele>289.0</ele><time>2026-04-11T09:30:12Z</time></trkpt><trkpt lat="42.328724691530184" lon="12.053482568752438"><ele>289.0</ele><time>2026-04-11T09:30:13Z</time></trkpt><trkpt lat="42.32857533864718" lon="12.053553352504029"><ele>288.66666666666663</ele><time>2026-04-11T09:30:14Z</time></trkpt><trkpt lat="42.328425041372405" lon="12.053636134655536"><ele>288.3333333333333</ele><time>2026-04-11T09:30:15Z</time></trkpt><trkpt lat="42.32828509717309" lon="12.053702552208296"><ele>288.0</ele><time>2026-04-11T09:30:16Z</time></trkpt><trkpt lat="42.328142959371405" lon="12.053769385382484"><ele>288.0</ele><time>2026-04-11T09:30:17Z</time></trkpt><trkpt lat="42.32800582707825" lon="12.05382774529218"><ele>288.0</ele><time>2026-04-11T09:30:18Z</time></trkpt><trkpt lat="42.32786104939465" lon="12.053890099292316"><ele>288.0</ele><time>2026-04-11T09:30:19Z</time></trkpt><trkpt lat="42.32770631409536" lon="12.053946046455"><ele>288.0</ele><time>2026-04-11T09:30:20Z</time></trkpt><trkpt lat="42.32755528266656" lon="12.053974644589095"><ele>288.0</ele><time>2026-04-11T09:30:21Z</time></trkpt><trkpt lat="42.3273999227427" lon="12.053990963208838"><ele>288.0</ele><time>2026-04-11T09:30:22Z</time></trkpt><trkpt lat="42.32720404066738" lon="12.054011419482284"><ele>289.3333333333333</ele><time>2026-04-11T09:30:23Z</time></trkpt><trkpt lat="42.32698824883144" lon="12.054046611637352"><ele>290.66666666666663</ele><time>2026-04-11T09:30:24Z</time></trkpt><trkpt lat="42.32676597758878" lon="12.054085338648127"><ele>292.0</ele><time>2026-04-11T09:30:25Z</time></trkpt><trkpt lat="42.32655728035918" lon="12.05413138292658"><ele>290.66666666666663</ele><time>2026-04-11T09:30:26Z</time></trkpt><trkpt lat="42.32634983701509" lon="12.05416059745778"><ele>289.3333333333333</ele><time>2026-04-11T09:30:27Z</time></trkpt><trkpt lat="42.3261207753853" lon="12.054162733084453"><ele>288.0</ele><time>2026-04-11T09:30:28Z</time></trkpt><trkpt lat="42.32587993906134" lon="12.054160421474803"><ele>288.0</ele><time>2026-04-11T09:30:29Z</time></trkpt><trkpt lat="42.325643859423586" lon="12.054154709751868"><ele>288.0</ele><time>2026-04-11T09:30:30Z</time></trkpt><trkpt lat="42.32542191899061" lon="12.054133555810823"><ele>284.3333333333333</ele><time>2026-04-11T09:30:31Z</time></trkpt><trkpt lat="42.325207440943025" lon="12.0540781804309"><ele>280.66666666666663</ele><time>2026-04-11T09:30:32Z</time></trkpt><trkpt lat="42.32499645356842" lon="12.053973169806161"><ele>277.0</ele><time>2026-04-11T09:30:33Z</time></trkpt><trkpt lat="42.32481193236394" lon="12.053844945880527"><ele>281.3333333333333</ele><time>2026-04-11T09:30:34Z</time></trkpt><trkpt lat="42.32467933101517" lon="12.053722723472177"><ele>285.6666666666667</ele><time>2026-04-11T09:30:35Z</time></trkpt><trkpt lat="42.32459096111435" lon="12.053566975582836"><ele>290.0</ele><time>2026-04-11T09:30:36Z</time></trkpt><trkpt lat="42.324535580861934" lon="12.053346962448662"><ele>290.33333333333337</ele><time>2026-04-11T09:30:37Z</time></trkpt><trkpt lat="42.324496115264125" lon="12.053084533123144"><ele>290.6666666666667</ele><time>2026-04-11T09:30:38Z</time></trkpt><trkpt lat="42.324470735344036" lon="12.052800945503742"><ele>291.0</ele><time>2026-04-11T09:30:39Z</time></trkpt><trkpt lat="42.324476701519316" lon="12.052515868948"><ele>290.5</ele><time>2026-04-11T09:30:40Z</time></trkpt><trkpt lat="42.32448804554808" lon="12.052290755947471"><ele>290.0</ele><time>2026-04-11T09:30:41Z</time></trkpt><trkpt lat="42.32449138745161" lon="12.052106636830137"><ele>289.5</ele><time>2026-04-11T09:30:42Z</time></trkpt><trkpt lat="42.32448032989723" lon="12.051935593625823"><ele>289.0</ele><time>2026-04-11T09:30:43Z</time></trkpt><trkpt lat="42.324449517473404" lon="12.051746137173488"><ele>288.0</ele><time>2026-04-11T09:30:44Z</time></trkpt><trkpt lat="42.3243957343257" lon="12.051573562587699"><ele>287.0</ele><time>2026-04-11T09:30:45Z</time></trkpt><trkpt lat="42.3243358713414" lon="12.051421823595325"><ele>286.0</ele><time>2026-04-11T09:30:46Z</time></trkpt><trkpt lat="42.32427625865461" lon="12.051279205563436"><ele>285.0</ele><time>2026-04-11T09:30:47Z</time></trkpt><trkpt lat="42.3241962021518" lon="12.051148291011671"><ele>285.0</ele><time>2026-04-11T09:30:48Z</time></trkpt><trkpt lat="42.324097279593474" lon="12.051033309578978"><ele>285.0</ele><time>2026-04-11T09:30:49Z</time></trkpt><trkpt lat="42.32398495888675" lon="12.050942203205082"><ele>285.0</ele><time>2026-04-11T09:30:50Z</time></trkpt><trkpt lat="42.32386896042269" lon="12.05088288636663"><ele>285.0</ele><time>2026-04-11T09:30:51Z</time></trkpt><trkpt lat="42.3237574940752" lon="12.050860018297783"><ele>283.75</ele><time>2026-04-11T09:30:52Z</time></trkpt><trkpt lat="42.323645932846105" lon="12.050878408739608"><ele>282.5</ele><time>2026-04-11T09:30:53Z</time></trkpt><trkpt lat="42.3235326434678" lon="12.050937035133984"><ele>281.25</ele><time>2026-04-11T09:30:54Z</time></trkpt><trkpt lat="42.32342589540054" lon="12.05100828168719"><ele>280.0</ele><time>2026-04-11T09:30:55Z</time></trkpt><trkpt lat="42.32333244476936" lon="12.051110392203238"><ele>280.0</ele><time>2026-04-11T09:30:56Z</time></trkpt><trkpt lat="42.32325999919053" lon="12.051248911113543"><ele>280.0</ele><time>2026-04-11T09:30:57Z</time></trkpt><trkpt lat="42.32321775930297" lon="12.051417160695344"><ele>280.0</ele><time>2026-04-11T09:30:58Z</time></trkpt><trkpt lat="42.3231510775343" lon="12.051599903438584"><ele>280.0</ele><time>2026-04-11T09:30:59Z</time></trkpt><trkpt lat="42.32306177270852" lon="12.051728750641438"><ele>281.8</ele><time>2026-04-11T09:31:00Z</time></trkpt><trkpt lat="42.32301905200588" lon="12.051841386532644"><ele>283.6</ele><time>2026-04-11T09:31:01Z</time></trkpt><trkpt lat="42.32298337193243" lon="12.0519347431634"><ele>285.4</ele><time>2026-04-11T09:31:02Z</time></trkpt><trkpt lat="42.3229494682678" lon="12.05206700132007"><ele>287.2</ele><time>2026-04-11T09:31:03Z</time></trkpt><trkpt lat="42.3228865016034" lon="12.052217501311839"><ele>289.0</ele><time>2026-04-11T09:31:04Z</time></trkpt><trkpt lat="42.32282634394306" lon="12.052380728279516"><ele>288.3333333333333</ele><time>2026-04-11T09:31:05Z</time></trkpt><trkpt lat="42.322767885221474" lon="12.052556604478976"><ele>287.6666666666667</ele><time>2026-04-11T09:31:06Z</time></trkpt><trkpt lat="42.32270169915196" lon="12.052737811044652"><ele>287.0</ele><time>2026-04-11T09:31:07Z</time></trkpt><trkpt lat="42.32263161715901" lon="12.052930868646467"><ele>287.0</ele><time>2026-04-11T09:31:08Z</time></trkpt><trkpt lat="42.32256125814297" lon="12.053115275748036"><ele>287.0</ele><time>2026-04-11T09:31:09Z</time></trkpt><trkpt lat="42.32249544313488" lon="12.053295059592802"><ele>287.0</ele><time>2026-04-11T09:31:10Z</time></trkpt><trkpt lat="42.32242488925944" lon="12.053468921880283"><ele>287.0</ele><time>2026-04-11T09:31:11Z</time></trkpt><trkpt lat="42.32235995310291" lon="12.053639510152554"><ele>288.0</ele><time>2026-04-11T09:31:12Z</time></trkpt><trkpt lat="42.32229421748001" lon="12.053814402834666"><ele>289.0</ele><time>2026-04-11T09:31:13Z</time></trkpt><trkpt lat="42.32222638868946" lon="12.0539939467773"><ele>290.0</ele><time>2026-04-11T09:31:14Z</time></trkpt><trkpt lat="42.32216563945862" lon="12.054176362686206"><ele>291.0</ele><time>2026-04-11T09:31:15Z</time></trkpt><trkpt lat="42.32210397504225" lon="12.0543282514104"><ele>292.0</ele><time>2026-04-11T09:31:16Z</time></trkpt><trkpt lat="42.32205175154533" lon="12.054473307496977"><ele>293.0</ele><time>2026-04-11T09:31:17Z</time></trkpt><trkpt lat="42.32200160828411" lon="12.054605568496342"><ele>294.0</ele><time>2026-04-11T09:31:18Z</time></trkpt><trkpt lat="42.321957737348974" lon="12.054719749553005"><ele>295.0</ele><time>2026-04-11T09:31:19Z</time></trkpt><trkpt lat="42.321910400068916" lon="12.054811114979408"><ele>296.0</ele><time>2026-04-11T09:31:20Z</time></trkpt><trkpt lat="42.321896473684006" lon="12.05492126201557"><ele>295.40000000000003</ele><time>2026-04-11T09:31:21Z</time></trkpt><trkpt lat="42.32185535864563" lon="12.055024691021133"><ele>294.8</ele><time>2026-04-11T09:31:22Z</time></trkpt><trkpt lat="42.32181273889969" lon="12.055131914650808"><ele>294.20000000000005</ele><time>2026-04-11T09:31:23Z</time></trkpt><trkpt lat="42.321767592908394" lon="12.055242760302471"><ele>293.6</ele><time>2026-04-11T09:31:24Z</time></trkpt><trkpt lat="42.32172694244409" lon="12.055349567843338"><ele>293.0</ele><time>2026-04-11T09:31:25Z</time></trkpt><trkpt lat="42.32165739543317" lon="12.055461350433626"><ele>293.0</ele><time>2026-04-11T09:31:26Z</time></trkpt><trkpt lat="42.32160247910695" lon="12.055601714785695"><ele>293.0</ele><time>2026-04-11T09:31:27Z</time></trkpt><trkpt lat="42.321545874603636" lon="12.055746394062023"><ele>293.0</ele><time>2026-04-11T09:31:28Z</time></trkpt><trkpt lat="42.321491669431516" lon="12.055909985322613"><ele>293.0</ele><time>2026-04-11T09:31:29Z</time></trkpt><trkpt lat="42.321418627045354" lon="12.05609570480146"><ele>294.0</ele><time>2026-04-11T09:31:30Z</time></trkpt><trkpt lat="42.3213346493937" lon="12.056304519978482"><ele>295.0</ele><time>2026-04-11T09:31:31Z</time></trkpt><trkpt lat="42.32125208388086" lon="12.056513571049061"><ele>296.0</ele><time>2026-04-11T09:31:32Z</time></trkpt><trkpt lat="42.321165594214406" lon="12.056726488372052"><ele>296.0</ele><time>2026-04-11T09:31:33Z</time></trkpt><trkpt lat="42.321074904578474" lon="12.056951239733007"><ele>296.0</ele><time>2026-04-11T09:31:34Z</time></trkpt><trkpt lat="42.320992953024295" lon="12.057166163519023"><ele>296.0</ele><time>2026-04-11T09:31:35Z</time></trkpt><trkpt lat="42.32091840227051" lon="12.057382163896243"><ele>297.0</ele><time>2026-04-11T09:31:36Z</time></trkpt><trkpt lat="42.32083854419365" lon="12.057578999753826"><ele>298.0</ele><time>2026-04-11T09:31:37Z</time></trkpt><trkpt lat="42.320766012479844" lon="12.057758135479757"><ele>299.0</ele><time>2026-04-11T09:31:38Z</time></trkpt><trkpt lat="42.32068571716413" lon="12.05791720299188"><ele>299.0</ele><time>2026-04-11T09:31:39Z</time></trkpt><trkpt lat="42.32062142753391" lon="12.058078693441932"><ele>299.0</ele><time>2026-04-11T09:31:40Z</time></trkpt><trkpt lat="42.32057406945536" lon="12.05824314507596"><ele>299.0</ele><time>2026-04-11T09:31:41Z</time></trkpt><trkpt lat="42.32051398647639" lon="12.058391291560406"><ele>299.0</ele><time>2026-04-11T09:31:42Z</time></trkpt><trkpt lat="42.320451208261744" lon="12.058530663410643"><ele>300.2</ele><time>2026-04-11T09:31:43Z</time></trkpt><trkpt lat="42.3203981825847" lon="12.058661106729572"><ele>301.4</ele><time>2026-04-11T09:31:44Z</time></trkpt><trkpt lat="42.3203484159052" lon="12.058781615103701"><ele>302.6</ele><time>2026-04-11T09:31:45Z</time></trkpt><trkpt lat="42.320303909424474" lon="12.058900278061696"><ele>303.8</ele><time>2026-04-11T09:31:46Z</time></trkpt><trkpt lat="42.32025246676876" lon="12.05903405390824"><ele>305.0</ele><time>2026-04-11T09:31:47Z</time></trkpt><trkpt lat="42.32020365032977" lon="12.059153312499076"><ele>305.0</ele><time>2026-04-11T09:31:48Z</time></trkpt><trkpt lat="42.320156781678875" lon="12.05927297659261"><ele>305.0</ele><time>2026-04-11T09:31:49Z</time></trkpt><trkpt lat="42.32011304982878" lon="12.05939380095609"><ele>305.0</ele><time>2026-04-11T09:31:50Z</time></trkpt><trkpt lat="42.32006100478249" lon="12.05952030198127"><ele>305.0</ele><time>2026-04-11T09:31:51Z</time></trkpt><trkpt lat="42.320008815262305" lon="12.059647672444983"><ele>305.0</ele><time>2026-04-11T09:31:52Z</time></trkpt><trkpt lat="42.31995140652631" lon="12.059777089178986"><ele>306.0</ele><time>2026-04-11T09:31:53Z</time></trkpt><trkpt lat="42.3198870075663" lon="12.05996068238848"><ele>307.0</ele><time>2026-04-11T09:31:54Z</time></trkpt><trkpt lat="42.31980858363039" lon="12.060171503575479"><ele>308.0</ele><time>2026-04-11T09:31:55Z</time></trkpt><trkpt lat="42.319701706454076" lon="12.060390267702163"><ele>308.0</ele><time>2026-04-11T09:31:56Z</time></trkpt><trkpt lat="42.319596921247104" lon="12.060621800163998"><ele>308.0</ele><time>2026-04-11T09:31:57Z</time></trkpt><trkpt lat="42.3195011048005" lon="12.060873484430934"><ele>308.0</ele><time>2026-04-11T09:31:58Z</time></trkpt><trkpt lat="42.31940107396519" lon="12.061115482299293"><ele>308.33333333333337</ele><time>2026-04-11T09:31:59Z</time></trkpt><trkpt lat="42.319305233382224" lon="12.061340333714579"><ele>308.6666666666667</ele><time>2026-04-11T09:32:00Z</time></trkpt><trkpt lat="42.31922063490095" lon="12.061567838530486"><ele>309.0</ele><time>2026-04-11T09:32:01Z</time></trkpt><trkpt lat="42.319140909140856" lon="12.06177949962194"><ele>309.6666666666667</ele><time>2026-04-11T09:32:02Z</time></trkpt><trkpt lat="42.31905386579996" lon="12.061974105294931"><ele>310.33333333333337</ele><time>2026-04-11T09:32:03Z</time></trkpt><trkpt lat="42.31894833711545" lon="12.062141297355296"><ele>311.0</ele><time>2026-04-11T09:32:04Z</time></trkpt><trkpt lat="42.3188133566328" lon="12.06227760135658"><ele>312.33333333333337</ele><time>2026-04-11T09:32:05Z</time></trkpt><trkpt lat="42.318654406347044" lon="12.062367927468168"><ele>313.6666666666667</ele><time>2026-04-11T09:32:06Z</time></trkpt><trkpt lat="42.31849319774978" lon="12.062408629024738"><ele>315.0</ele><time>2026-04-11T09:32:07Z</time></trkpt><trkpt lat="42.31834422187909" lon="12.062428328611137"><ele>315.0</ele><time>2026-04-11T09:32:08Z</time></trkpt><trkpt lat="42.31819709586409" lon="12.062442138114967"><ele>315.0</ele><time>2026-04-11T09:32:09Z</time></trkpt><trkpt lat="42.31803320228264" lon="12.062449667363486"><ele>315.0</ele><time>2026-04-11T09:32:10Z</time></trkpt><trkpt lat="42.31783694110093" lon="12.062453817092607"><ele>316.3333333333333</ele><time>2026-04-11T09:32:11Z</time></trkpt><trkpt lat="42.31761844719426" lon="12.062455470389452"><ele>317.66666666666663</ele><time>2026-04-11T09:32:12Z</time></trkpt><trkpt lat="42.317407884616074" lon="12.062462721158397"><ele>319.0</ele><time>2026-04-11T09:32:13Z</time></trkpt><trkpt lat="42.31721494713186" lon="12.062482616331048"><ele>320.66666666666663</ele><time>2026-04-11T09:32:14Z</time></trkpt><trkpt lat="42.31701939511433" lon="12.062502657179538"><ele>322.3333333333333</ele><time>2026-04-11T09:32:15Z</time></trkpt><trkpt lat="42.31681904772674" lon="12.062489847715078"><ele>324.0</ele><time>2026-04-11T09:32:16Z</time></trkpt><trkpt lat="42.3166104166865" lon="12.062472578531947"><ele>324.0</ele><time>2026-04-11T09:32:17Z</time></trkpt><trkpt lat="42.31641047235084" lon="12.062485918310646"><ele>324.0</ele><time>2026-04-11T09:32:18Z</time></trkpt><trkpt lat="42.31624234480289" lon="12.062505020888484"><ele>324.0</ele><time>2026-04-11T09:32:19Z</time></trkpt><trkpt lat="42.31612060095693" lon="12.062516772068426"><ele>324.0</ele><time>2026-04-11T09:32:20Z</time></trkpt><trkpt lat="42.31603154150245" lon="12.06252119138387"><ele>324.0</ele><time>2026-04-11T09:32:21Z</time></trkpt><trkpt lat="42.31596644325517" lon="12.062516323641207"><ele>324.0</ele><time>2026-04-11T09:32:22Z</time></trkpt><trkpt lat="42.3159035532088" lon="12.06250008524665"><ele>324.0</ele><time>2026-04-11T09:32:23Z</time></trkpt><trkpt lat="42.315846253917286" lon="12.062454096899936"><ele>324.0</ele><time>2026-04-11T09:32:24Z</time></trkpt><trkpt lat="42.315746903667694" lon="12.062426113532489"><ele>324.0</ele><time>2026-04-11T09:32:26Z</time></trkpt><trkpt lat="42.315691820494514" lon="12.06250026630253"><ele>324.75</ele><time>2026-04-11T09:32:27Z</time></trkpt><trkpt lat="42.31565057939412" lon="12.062615046626444"><ele>325.5</ele><time>2026-04-11T09:32:28Z</time></trkpt><trkpt lat="42.315560231406934" lon="12.062706741470087"><ele>326.25</ele><time>2026-04-11T09:32:29Z</time></trkpt><trkpt lat="42.31543644408162" lon="12.062810946824401"><ele>327.0</ele><time>2026-04-11T09:32:30Z</time></trkpt><trkpt lat="42.315304286428024" lon="12.062932311614013"><ele>328.0</ele><time>2026-04-11T09:32:31Z</time></trkpt><trkpt lat="42.31516299598985" lon="12.063081489918135"><ele>329.0</ele><time>2026-04-11T09:32:32Z</time></trkpt><trkpt lat="42.315019588841466" lon="12.06324163418763"><ele>330.0</ele><time>2026-04-11T09:32:33Z</time></trkpt><trkpt lat="42.31487055579219" lon="12.063407132896769"><ele>331.0</ele><time>2026-04-11T09:32:34Z</time></trkpt><trkpt lat="42.31472019083635" lon="12.063573225946294"><ele>332.0</ele><time>2026-04-11T09:32:35Z</time></trkpt><trkpt lat="42.31457795255862" lon="12.063739563571398"><ele>333.0</ele><time>2026-04-11T09:32:36Z</time></trkpt><trkpt lat="42.31445933043792" lon="12.063878142426875"><ele>333.0</ele><time>2026-04-11T09:32:37Z</time></trkpt><trkpt lat="42.31435858229949" lon="12.063991952723836"><ele>333.0</ele><time>2026-04-11T09:32:38Z</time></trkpt><trkpt lat="42.31426277404772" lon="12.064078935118706"><ele>333.0</ele><time>2026-04-11T09:32:39Z</time></trkpt><trkpt lat="42.31418788387392" lon="12.064151265498"><ele>333.0</ele><time>2026-04-11T09:32:40Z</time></trkpt><trkpt lat="42.31412110344914" lon="12.064228568995784"><ele>333.0</ele><time>2026-04-11T09:32:41Z</time></trkpt><trkpt lat="42.31405683699637" lon="12.064303831152461"><ele>333.3333333333333</ele><time>2026-04-11T09:32:42Z</time></trkpt><trkpt lat="42.31400467468573" lon="12.064360013844944"><ele>333.6666666666667</ele><time>2026-04-11T09:32:43Z</time></trkpt><trkpt lat="42.31394918928397" lon="12.064426101613405"><ele>334.0</ele><time>2026-04-11T09:32:45Z</time></trkpt><trkpt lat="42.313889802716055" lon="12.064505834388786"><ele>334.33333333333337</ele><time>2026-04-11T09:32:47Z</time></trkpt><trkpt lat="42.31382460113034" lon="12.06458781631349"><ele>334.6666666666667</ele><time>2026-04-11T09:32:48Z</time></trkpt><trkpt lat="42.313739838877346" lon="12.064692862757555"><ele>335.0</ele><time>2026-04-11T09:32:49Z</time></trkpt><trkpt lat="42.31363249381157" lon="12.06481373178685"><ele>337.33333333333337</ele><time>2026-04-11T09:32:50Z</time></trkpt><trkpt lat="42.3135007631935" lon="12.064957437528195"><ele>339.6666666666667</ele><time>2026-04-11T09:32:51Z</time></trkpt><trkpt lat="42.31333750924064" lon="12.065136199938697"><ele>342.0</ele><time>2026-04-11T09:32:52Z</time></trkpt><trkpt lat="42.313161998398435" lon="12.065323586796781"><ele>341.0</ele><time>2026-04-11T09:32:53Z</time></trkpt><trkpt lat="42.31297841512277" lon="12.065525555880766"><ele>340.0</ele><time>2026-04-11T09:32:54Z</time></trkpt><trkpt lat="42.31279316728381" lon="12.065731714672873"><ele>344.0</ele><time>2026-04-11T09:32:55Z</time></trkpt><trkpt lat="42.31260554637186" lon="12.065953980146412"><ele>348.0</ele><time>2026-04-11T09:32:56Z</time></trkpt><trkpt lat="42.31241291954855" lon="12.066178266508707"><ele>351.0</ele><time>2026-04-11T09:32:57Z</time></trkpt><trkpt lat="42.31222151126584" lon="12.066397150998508"><ele>354.0</ele><time>2026-04-11T09:32:58Z</time></trkpt><trkpt lat="42.31203456528276" lon="12.066617759142373"><ele>355.0</ele><time>2026-04-11T09:32:59Z</time></trkpt><trkpt lat="42.311835583517464" lon="12.066865732387043"><ele>356.0</ele><time>2026-04-11T09:33:00Z</time></trkpt><trkpt lat="42.31162147822293" lon="12.067097318543516"><ele>356.0</ele><time>2026-04-11T09:33:01Z</time></trkpt><trkpt lat="42.31146753525572" lon="12.067347437838666"><ele>356.0</ele><time>2026-04-11T09:33:02Z</time></trkpt><trkpt lat="42.31134479856058" lon="12.067590278209057"><ele>360.0</ele><time>2026-04-11T09:33:03Z</time></trkpt><trkpt lat="42.311253932072155" lon="12.067868369607648"><ele>364.0</ele><time>2026-04-11T09:33:04Z</time></trkpt><trkpt lat="42.31118150909395" lon="12.068201366200816"><ele>364.5</ele><time>2026-04-11T09:33:05Z</time></trkpt><trkpt lat="42.311101726625736" lon="12.068553066729601"><ele>365.0</ele><time>2026-04-11T09:33:06Z</time></trkpt><trkpt lat="42.31103029216917" lon="12.068923940831855"><ele>365.5</ele><time>2026-04-11T09:33:07Z</time></trkpt><trkpt lat="42.310949414153455" lon="12.06929807350145"><ele>366.0</ele><time>2026-04-11T09:33:08Z</time></trkpt><trkpt lat="42.31086328088469" lon="12.06966842974438"><ele>365.5</ele><time>2026-04-11T09:33:09Z</time></trkpt><trkpt lat="42.310789017829336" lon="12.070054134863005"><ele>365.0</ele><time>2026-04-11T09:33:10Z</time></trkpt><trkpt lat="42.3107178016494" lon="12.070435678179937"><ele>366.5</ele><time>2026-04-11T09:33:11Z</time></trkpt><trkpt lat="42.31064182846317" lon="12.070801910071154"><ele>368.0</ele><time>2026-04-11T09:33:12Z</time></trkpt><trkpt lat="42.31056559581525" lon="12.071168110719944"><ele>369.5</ele><time>2026-04-11T09:33:13Z</time></trkpt><trkpt lat="42.310492835654564" lon="12.07152732431892"><ele>371.0</ele><time>2026-04-11T09:33:14Z</time></trkpt><trkpt lat="42.310418102240156" lon="12.071876914051156"><ele>372.0</ele><time>2026-04-11T09:33:15Z</time></trkpt><trkpt lat="42.31034915680625" lon="12.07222874066168"><ele>373.0</ele><time>2026-04-11T09:33:16Z</time></trkpt><trkpt lat="42.31028401969401" lon="12.072566056017097"><ele>374.3333333333333</ele><time>2026-04-11T09:33:17Z</time></trkpt><trkpt lat="42.310223869132635" lon="12.072838420010818"><ele>375.6666666666667</ele><time>2026-04-11T09:33:18Z</time></trkpt><trkpt lat="42.31017507198492" lon="12.073056985968693"><ele>377.0</ele><time>2026-04-11T09:33:19Z</time></trkpt><trkpt lat="42.31011872690212" lon="12.073246535368602"><ele>377.25</ele><time>2026-04-11T09:33:20Z</time></trkpt><trkpt lat="42.31007467624531" lon="12.073422301758775"><ele>377.5</ele><time>2026-04-11T09:33:21Z</time></trkpt><trkpt lat="42.310045728225155" lon="12.073583357830033"><ele>377.75</ele><time>2026-04-11T09:33:22Z</time></trkpt><trkpt lat="42.3100153303014" lon="12.073776515815823"><ele>378.0</ele><time>2026-04-11T09:33:23Z</time></trkpt><trkpt lat="42.30996827469763" lon="12.074009794466367"><ele>379.0</ele><time>2026-04-11T09:33:24Z</time></trkpt><trkpt lat="42.30990100167942" lon="12.074247041954587"><ele>380.0</ele><time>2026-04-11T09:33:25Z</time></trkpt><trkpt lat="42.309823619125446" lon="12.074488685391145"><ele>381.0</ele><time>2026-04-11T09:33:26Z</time></trkpt><trkpt lat="42.30974385581057" lon="12.074711546112704"><ele>381.6666666666667</ele><time>2026-04-11T09:33:27Z</time></trkpt><trkpt lat="42.30967444359958" lon="12.074922161241094"><ele>382.33333333333337</ele><time>2026-04-11T09:33:28Z</time></trkpt><trkpt lat="42.30960744303597" lon="12.075123646425194"><ele>383.0</ele><time>2026-04-11T09:33:29Z</time></trkpt><trkpt lat="42.30954060053719" lon="12.075326120777735"><ele>383.6666666666667</ele><time>2026-04-11T09:33:30Z</time></trkpt><trkpt lat="42.30946947422737" lon="12.07553449793674"><ele>384.33333333333337</ele><time>2026-04-11T09:33:31Z</time></trkpt><trkpt lat="42.30939249195532" lon="12.075752979216475"><ele>385.0</ele><time>2026-04-11T09:33:32Z</time></trkpt><trkpt lat="42.30930980173467" lon="12.07596673139052"><ele>385.33333333333337</ele><time>2026-04-11T09:33:33Z</time></trkpt><trkpt lat="42.30924633948694" lon="12.076172460824854"><ele>385.66666666666663</ele><time>2026-04-11T09:33:34Z</time></trkpt><trkpt lat="42.309177667003034" lon="12.076361640794568"><ele>386.0</ele><time>2026-04-11T09:33:35Z</time></trkpt><trkpt lat="42.3091071913114" lon="12.076536192753604"><ele>386.0</ele><time>2026-04-11T09:33:36Z</time></trkpt><trkpt lat="42.30904817258161" lon="12.076692078635322"><ele>386.0</ele><time>2026-04-11T09:33:37Z</time></trkpt><trkpt lat="42.30899850732659" lon="12.076851972031289"><ele>386.0</ele><time>2026-04-11T09:33:38Z</time></trkpt><trkpt lat="42.308928651048475" lon="12.077003082395613"><ele>386.0</ele><time>2026-04-11T09:33:39Z</time></trkpt><trkpt lat="42.30887103301701" lon="12.077162117492692"><ele>386.25</ele><time>2026-04-11T09:33:40Z</time></trkpt><trkpt lat="42.30882788947675" lon="12.077328903903421"><ele>386.5</ele><time>2026-04-11T09:33:41Z</time></trkpt><trkpt lat="42.30875952246201" lon="12.077503293629734"><ele>386.75</ele><time>2026-04-11T09:33:42Z</time></trkpt><trkpt lat="42.30869505688414" lon="12.077684940075505"><ele>387.0</ele><time>2026-04-11T09:33:43Z</time></trkpt><trkpt lat="42.30863391927612" lon="12.077865858640136"><ele>387.0</ele><time>2026-04-11T09:33:44Z</time></trkpt><trkpt lat="42.30856991626456" lon="12.078055924650936"><ele>387.0</ele><time>2026-04-11T09:33:45Z</time></trkpt><trkpt lat="42.30851221928127" lon="12.07823760352251"><ele>387.0</ele><time>2026-04-11T09:33:46Z</time></trkpt><trkpt lat="42.308455982731815" lon="12.078403860606777"><ele>387.0</ele><time>2026-04-11T09:33:47Z</time></trkpt><trkpt lat="42.30837346331297" lon="12.078540148249937"><ele>387.20000000000005</ele><time>2026-04-11T09:33:48Z</time></trkpt><trkpt lat="42.30832464559107" lon="12.078674367713674"><ele>387.4</ele><time>2026-04-11T09:33:49Z</time></trkpt><trkpt lat="42.30828365529141" lon="12.078787066359297"><ele>387.6</ele><time>2026-04-11T09:33:50Z</time></trkpt><trkpt lat="42.30824090433774" lon="12.078904607340524"><ele>387.79999999999995</ele><time>2026-04-11T09:33:51Z</time></trkpt><trkpt lat="42.30819420402961" lon="12.079038875986924"><ele>388.0</ele><time>2026-04-11T09:33:52Z</time></trkpt><trkpt lat="42.3081512763245" lon="12.079156316976682"><ele>388.2</ele><time>2026-04-11T09:33:53Z</time></trkpt><trkpt lat="42.30811992148973" lon="12.07924260779462"><ele>388.4</ele><time>2026-04-11T09:33:54Z</time></trkpt><trkpt lat="42.30808716918856" lon="12.07933274467326"><ele>388.59999999999997</ele><time>2026-04-11T09:33:55Z</time></trkpt><trkpt lat="42.30804290649468" lon="12.079454558903304"><ele>388.79999999999995</ele><time>2026-04-11T09:33:56Z</time></trkpt><trkpt lat="42.30799445860423" lon="12.079587672874197"><ele>389.0</ele><time>2026-04-11T09:33:57Z</time></trkpt><trkpt lat="42.307951369094624" lon="12.079705876174685"><ele>388.66666666666663</ele><time>2026-04-11T09:33:58Z</time></trkpt><trkpt lat="42.307917714166884" lon="12.079798198442631"><ele>388.3333333333333</ele><time>2026-04-11T09:33:59Z</time></trkpt><trkpt lat="42.30787082193554" lon="12.07992683357029"><ele>388.0</ele><time>2026-04-11T09:34:01Z</time></trkpt><trkpt lat="42.30783538407196" lon="12.080024046725182"><ele>387.66666666666663</ele><time>2026-04-11T09:34:02Z</time></trkpt><trkpt lat="42.3077970600985" lon="12.080129177292841"><ele>387.3333333333333</ele><time>2026-04-11T09:34:03Z</time></trkpt><trkpt lat="42.30776182877024" lon="12.08022758184513"><ele>387.0</ele><time>2026-04-11T09:34:05Z</time></trkpt><trkpt lat="42.30773302848182" lon="12.080309388016262"><ele>387.0</ele><time>2026-04-11T09:34:07Z</time></trkpt><trkpt lat="42.30769591804958" lon="12.08041479890793"><ele>387.0</ele><time>2026-04-11T09:34:09Z</time></trkpt><trkpt lat="42.307655261841035" lon="12.080530281364183"><ele>387.0</ele><time>2026-04-11T09:34:11Z</time></trkpt><trkpt lat="42.30762617771751" lon="12.080613762452586"><ele>387.0</ele><time>2026-04-11T09:34:12Z</time></trkpt><trkpt lat="42.30759398722517" lon="12.080706973527912"><ele>387.0</ele><time>2026-04-11T09:34:13Z</time></trkpt><trkpt lat="42.307555677194436" lon="12.080817904720485"><ele>387.0</ele><time>2026-04-11T09:34:14Z</time></trkpt><trkpt lat="42.30754448837893" lon="12.080931780570536"><ele>387.20000000000005</ele><time>2026-04-11T09:34:15Z</time></trkpt><trkpt lat="42.30750396314158" lon="12.081041637405495"><ele>387.4</ele><time>2026-04-11T09:34:17Z</time></trkpt><trkpt lat="42.307435353458494" lon="12.081155906660486"><ele>387.6</ele><time>2026-04-11T09:34:19Z</time></trkpt><trkpt lat="42.30738938809279" lon="12.081269397749297"><ele>387.79999999999995</ele><time>2026-04-11T09:34:20Z</time></trkpt><trkpt lat="42.30733499356389" lon="12.081389967907729"><ele>388.0</ele><time>2026-04-11T09:34:21Z</time></trkpt><trkpt lat="42.307267930987784" lon="12.081516677550887"><ele>388.2</ele><time>2026-04-11T09:34:22Z</time></trkpt><trkpt lat="42.30719648546141" lon="12.08164118575789"><ele>388.4</ele><time>2026-04-11T09:34:23Z</time></trkpt><trkpt lat="42.30713012809744" lon="12.081749509478621"><ele>388.59999999999997</ele><time>2026-04-11T09:34:24Z</time></trkpt><trkpt lat="42.30706772473607" lon="12.081844954354994"><ele>388.79999999999995</ele><time>2026-04-11T09:34:25Z</time></trkpt><trkpt lat="42.30700818751196" lon="12.081934603048474"><ele>389.0</ele><time>2026-04-11T09:34:26Z</time></trkpt><trkpt lat="42.306951133387194" lon="12.082019842299665"><ele>388.99999999999994</ele><time>2026-04-11T09:34:27Z</time></trkpt><trkpt lat="42.30689242239232" lon="12.082107313041528"><ele>389.0</ele><time>2026-04-11T09:34:28Z</time></trkpt><trkpt lat="42.30684995926417" lon="12.082203247646449"><ele>389.0</ele><time>2026-04-11T09:34:29Z</time></trkpt><trkpt lat="42.3067931724603" lon="12.082282407673066"><ele>389.0</ele><time>2026-04-11T09:34:30Z</time></trkpt><trkpt lat="42.30672953973208" lon="12.082356507244082"><ele>388.99999999999994</ele><time>2026-04-11T09:34:31Z</time></trkpt><trkpt lat="42.3066687311307" lon="12.082449179956681"><ele>389.0</ele><time>2026-04-11T09:34:32Z</time></trkpt><trkpt lat="42.30661361386032" lon="12.082535041260513"><ele>388.8333333333333</ele><time>2026-04-11T09:34:33Z</time></trkpt><trkpt lat="42.306557273157594" lon="12.082629266159172"><ele>388.66666666666663</ele><time>2026-04-11T09:34:34Z</time></trkpt><trkpt lat="42.30649046724776" lon="12.082700191494949"><ele>388.5</ele><time>2026-04-11T09:34:35Z</time></trkpt><trkpt lat="42.30643492437745" lon="12.082781267524018"><ele>388.33333333333337</ele><time>2026-04-11T09:34:36Z</time></trkpt><trkpt lat="42.306377056439075" lon="12.08286573760996"><ele>388.1666666666667</ele><time>2026-04-11T09:34:37Z</time></trkpt><trkpt lat="42.306309223210555" lon="12.082964753822232"><ele>388.0</ele><time>2026-04-11T09:34:38Z</time></trkpt><trkpt lat="42.306224010381406" lon="12.083092189082036"><ele>389.0</ele><time>2026-04-11T09:34:39Z</time></trkpt><trkpt lat="42.30614042938265" lon="12.083249820388959"><ele>390.0</ele><time>2026-04-11T09:34:40Z</time></trkpt><trkpt lat="42.306038539790094" lon="12.08339823553933"><ele>391.0</ele><time>2026-04-11T09:34:41Z</time></trkpt><trkpt lat="42.30594882156245" lon="12.083540831460148"><ele>392.0</ele><time>2026-04-11T09:34:42Z</time></trkpt><trkpt lat="42.30585908350412" lon="12.083667396585769"><ele>392.0</ele><time>2026-04-11T09:34:43Z</time></trkpt><trkpt lat="42.305774455506665" lon="12.083790450778938"><ele>392.0</ele><time>2026-04-11T09:34:44Z</time></trkpt><trkpt lat="42.30567540782888" lon="12.083933366814724"><ele>392.0</ele><time>2026-04-11T09:34:45Z</time></trkpt><trkpt lat="42.305563098905395" lon="12.08410811430068"><ele>392.0</ele><time>2026-04-11T09:34:46Z</time></trkpt><trkpt lat="42.30544922897798" lon="12.08426089637452"><ele>392.66666666666663</ele><time>2026-04-11T09:34:47Z</time></trkpt><trkpt lat="42.30534304374019" lon="12.084404984396201"><ele>393.33333333333337</ele><time>2026-04-11T09:34:48Z</time></trkpt><trkpt lat="42.305221261007496" lon="12.08458590878233"><ele>394.0</ele><time>2026-04-11T09:34:49Z</time></trkpt><trkpt lat="42.3050993248046" lon="12.084786476242483"><ele>393.6666666666667</ele><time>2026-04-11T09:34:50Z</time></trkpt><trkpt lat="42.304993048314365" lon="12.084951264916016"><ele>393.33333333333337</ele><time>2026-04-11T09:34:51Z</time></trkpt><trkpt lat="42.30488132638582" lon="12.085094130692255"><ele>393.0</ele><time>2026-04-11T09:34:52Z</time></trkpt><trkpt lat="42.30477643547867" lon="12.085248089474923"><ele>393.0</ele><time>2026-04-11T09:34:53Z</time></trkpt><trkpt lat="42.30467539381469" lon="12.085396398538364"><ele>393.0</ele><time>2026-04-11T09:34:54Z</time></trkpt><trkpt lat="42.30458191869841" lon="12.085533600247295"><ele>393.0</ele><time>2026-04-11T09:34:55Z</time></trkpt><trkpt lat="42.30448424794222" lon="12.08567779442886"><ele>393.0</ele><time>2026-04-11T09:34:56Z</time></trkpt><trkpt lat="42.30438476896078" lon="12.08582449222223"><ele>392.75</ele><time>2026-04-11T09:34:57Z</time></trkpt><trkpt lat="42.304290215302515" lon="12.085963926875687"><ele>392.5</ele><time>2026-04-11T09:34:58Z</time></trkpt><trkpt lat="42.30418916352008" lon="12.086112943831052"><ele>392.25</ele><time>2026-04-11T09:34:59Z</time></trkpt><trkpt lat="42.30409775967876" lon="12.086248757429102"><ele>392.0</ele><time>2026-04-11T09:35:00Z</time></trkpt><trkpt lat="42.303997387627305" lon="12.08639869970471"><ele>393.0</ele><time>2026-04-11T09:35:01Z</time></trkpt><trkpt lat="42.30388548848201" lon="12.086565861932081"><ele>394.0</ele><time>2026-04-11T09:35:02Z</time></trkpt><trkpt lat="42.3037717423738" lon="12.086735783349244"><ele>395.0</ele><time>2026-04-11T09:35:03Z</time></trkpt><trkpt lat="42.303653805823664" lon="12.086924163740367"><ele>395.66666666666663</ele><time>2026-04-11T09:35:04Z</time></trkpt><trkpt lat="42.30353593096374" lon="12.087102554937415"><ele>396.33333333333337</ele><time>2026-04-11T09:35:05Z</time></trkpt><trkpt lat="42.30342575568796" lon="12.08726216166524"><ele>397.0</ele><time>2026-04-11T09:35:06Z</time></trkpt><trkpt lat="42.30331852768449" lon="12.08742177756999"><ele>397.25</ele><time>2026-04-11T09:35:07Z</time></trkpt><trkpt lat="42.30320983586612" lon="12.08758012522803"><ele>397.5</ele><time>2026-04-11T09:35:08Z</time></trkpt><trkpt lat="42.303114990305176" lon="12.087727878648504"><ele>397.75</ele><time>2026-04-11T09:35:09Z</time></trkpt><trkpt lat="42.30303263639302" lon="12.08785686336379"><ele>398.0</ele><time>2026-04-11T09:35:10Z</time></trkpt><trkpt lat="42.30296844315645" lon="12.087958005575313"><ele>398.3333333333333</ele><time>2026-04-11T09:35:11Z</time></trkpt><trkpt lat="42.30291476267407" lon="12.088043137725128"><ele>398.66666666666663</ele><time>2026-04-11T09:35:12Z</time></trkpt><trkpt lat="42.30284991740382" lon="12.088103586221804"><ele>399.0</ele><time>2026-04-11T09:35:13Z</time></trkpt><trkpt lat="42.30279605684612" lon="12.088183389914748"><ele>399.33333333333337</ele><time>2026-04-11T09:35:14Z</time></trkpt><trkpt lat="42.302739414524375" lon="12.088267317274095"><ele>399.6666666666667</ele><time>2026-04-11T09:35:15Z</time></trkpt><trkpt lat="42.30268220763952" lon="12.088352684860896"><ele>400.0</ele><time>2026-04-11T09:35:16Z</time></trkpt><trkpt lat="42.30261858725538" lon="12.088447371543356"><ele>400.0</ele><time>2026-04-11T09:35:17Z</time></trkpt><trkpt lat="42.302551475181424" lon="12.088546751679862"><ele>400.0</ele><time>2026-04-11T09:35:18Z</time></trkpt><trkpt lat="42.30247644147995" lon="12.088660838883513"><ele>400.0</ele><time>2026-04-11T09:35:19Z</time></trkpt><trkpt lat="42.3023759907443" lon="12.088805469898439"><ele>400.0</ele><time>2026-04-11T09:35:20Z</time></trkpt><trkpt lat="42.30227954552062" lon="12.088976375863304"><ele>400.0</ele><time>2026-04-11T09:35:21Z</time></trkpt><trkpt lat="42.30216871619608" lon="12.08912719232985"><ele>400.0</ele><time>2026-04-11T09:35:22Z</time></trkpt><trkpt lat="42.30205313880444" lon="12.089272049675072"><ele>400.0</ele><time>2026-04-11T09:35:23Z</time></trkpt><trkpt lat="42.301967425131025" lon="12.089422594984862"><ele>400.0</ele><time>2026-04-11T09:35:24Z</time></trkpt><trkpt lat="42.301873840860424" lon="12.089561776464443"><ele>400.0</ele><time>2026-04-11T09:35:25Z</time></trkpt><trkpt lat="42.30179220546003" lon="12.08967769362066"><ele>400.0</ele><time>2026-04-11T09:35:26Z</time></trkpt><trkpt lat="42.301720579520385" lon="12.0897780975747"><ele>400.0</ele><time>2026-04-11T09:35:27Z</time></trkpt><trkpt lat="42.3016446082603" lon="12.089859927821777"><ele>400.25</ele><time>2026-04-11T09:35:28Z</time></trkpt><trkpt lat="42.30156443349489" lon="12.089977095197915"><ele>400.5</ele><time>2026-04-11T09:35:29Z</time></trkpt><trkpt lat="42.301472352366666" lon="12.09013481242544"><ele>400.75</ele><time>2026-04-11T09:35:30Z</time></trkpt><trkpt lat="42.30140288882607" lon="12.090282970017833"><ele>401.0</ele><time>2026-04-11T09:35:31Z</time></trkpt><trkpt lat="42.30135408163288" lon="12.090415248580165"><ele>401.0</ele><time>2026-04-11T09:35:32Z</time></trkpt><trkpt lat="42.30130904913063" lon="12.090576046457889"><ele>401.0</ele><time>2026-04-11T09:35:33Z</time></trkpt><trkpt lat="42.30125586532718" lon="12.090774343882934"><ele>401.0</ele><time>2026-04-11T09:35:34Z</time></trkpt><trkpt lat="42.30120871826833" lon="12.090988484430804"><ele>401.0</ele><time>2026-04-11T09:35:35Z</time></trkpt><trkpt lat="42.30116017566371" lon="12.091208751776346"><ele>401.5</ele><time>2026-04-11T09:35:36Z</time></trkpt><trkpt lat="42.301113940065775" lon="12.091419609254073"><ele>402.0</ele><time>2026-04-11T09:35:37Z</time></trkpt><trkpt lat="42.30107294980901" lon="12.091606545198623"><ele>402.5</ele><time>2026-04-11T09:35:38Z</time></trkpt><trkpt lat="42.30103433032996" lon="12.091786082953075"><ele>403.0</ele><time>2026-04-11T09:35:39Z</time></trkpt><trkpt lat="42.30099664120866" lon="12.091962732444433"><ele>404.0</ele><time>2026-04-11T09:35:40Z</time></trkpt><trkpt lat="42.300956876450655" lon="12.092149110285353"><ele>405.0</ele><time>2026-04-11T09:35:41Z</time></trkpt><trkpt lat="42.30091584960763" lon="12.092341403814444"><ele>406.0</ele><time>2026-04-11T09:35:42Z</time></trkpt><trkpt lat="42.30086906590364" lon="12.092560679429857"><ele>407.0</ele><time>2026-04-11T09:35:43Z</time></trkpt><trkpt lat="42.300844230305714" lon="12.092803942921117"><ele>408.0</ele><time>2026-04-11T09:35:44Z</time></trkpt><trkpt lat="42.300793363780514" lon="12.093037796649888"><ele>409.0</ele><time>2026-04-11T09:35:45Z</time></trkpt><trkpt lat="42.30075052017263" lon="12.093255612340025"><ele>409.25</ele><time>2026-04-11T09:35:46Z</time></trkpt><trkpt lat="42.300711223169834" lon="12.09345558550326"><ele>409.5</ele><time>2026-04-11T09:35:47Z</time></trkpt><trkpt lat="42.30064792261115" lon="12.093634830300644"><ele>409.75</ele><time>2026-04-11T09:35:48Z</time></trkpt><trkpt lat="42.30061588071173" lon="12.09381504468894"><ele>410.0</ele><time>2026-04-11T09:35:49Z</time></trkpt><trkpt lat="42.300588410898605" lon="12.093980744533122"><ele>410.0</ele><time>2026-04-11T09:35:50Z</time></trkpt><trkpt lat="42.30056154325663" lon="12.094131942399502"><ele>410.0</ele><time>2026-04-11T09:35:51Z</time></trkpt><trkpt lat="42.30054102750715" lon="12.094295217852782"><ele>410.0</ele><time>2026-04-11T09:35:52Z</time></trkpt><trkpt lat="42.300498956789085" lon="12.094463396700023"><ele>410.0</ele><time>2026-04-11T09:35:53Z</time></trkpt><trkpt lat="42.300459157273025" lon="12.094659781425472"><ele>410.0</ele><time>2026-04-11T09:35:54Z</time></trkpt><trkpt lat="42.300409268300086" lon="12.094873390056348"><ele>410.0</ele><time>2026-04-11T09:35:55Z</time></trkpt><trkpt lat="42.30035101031308" lon="12.095093006926826"><ele>410.0</ele><time>2026-04-11T09:35:56Z</time></trkpt><trkpt lat="42.30031640042707" lon="12.095318692133876"><ele>410.0</ele><time>2026-04-11T09:35:57Z</time></trkpt><trkpt lat="42.3002572197387" lon="12.095499462672546"><ele>410.0</ele><time>2026-04-11T09:35:58Z</time></trkpt><trkpt lat="42.30020548705686" lon="12.09563428526096"><ele>410.0</ele><time>2026-04-11T09:35:59Z</time></trkpt><trkpt lat="42.30016119183137" lon="12.095749973919578"><ele>410.0</ele><time>2026-04-11T09:36:00Z</time></trkpt><trkpt lat="42.30009178450715" lon="12.09589416471414"><ele>410.25</ele><time>2026-04-11T09:36:01Z</time></trkpt><trkpt lat="42.29999785443702" lon="12.09604138102542"><ele>410.5</ele><time>2026-04-11T09:36:02Z</time></trkpt><trkpt lat="42.29989388124759" lon="12.096184492847598"><ele>410.75</ele><time>2026-04-11T09:36:03Z</time></trkpt><trkpt lat="42.299795789873265" lon="12.096311672331197"><ele>411.0</ele><time>2026-04-11T09:36:04Z</time></trkpt><trkpt lat="42.299702911534915" lon="12.096426668222104"><ele>411.0</ele><time>2026-04-11T09:36:05Z</time></trkpt><trkpt lat="42.29960290929474" lon="12.09654921111861"><ele>411.0</ele><time>2026-04-11T09:36:06Z</time></trkpt><trkpt lat="42.29949447605909" lon="12.096691399021179"><ele>411.0</ele><time>2026-04-11T09:36:07Z</time></trkpt><trkpt lat="42.29936882040357" lon="12.096844051954251"><ele>411.5</ele><time>2026-04-11T09:36:08Z</time></trkpt><trkpt lat="42.29924553006043" lon="12.096973970254037"><ele>412.0</ele><time>2026-04-11T09:36:09Z</time></trkpt><trkpt lat="42.299136999366965" lon="12.097101513126487"><ele>412.5</ele><time>2026-04-11T09:36:10Z</time></trkpt><trkpt lat="42.29904171050725" lon="12.097236541723321"><ele>413.0</ele><time>2026-04-11T09:36:11Z</time></trkpt><trkpt lat="42.298953608121145" lon="12.097357822901934"><ele>413.75</ele><time>2026-04-11T09:36:12Z</time></trkpt><trkpt lat="42.29886701969258" lon="12.097462093810021"><ele>414.5</ele><time>2026-04-11T09:36:13Z</time></trkpt><trkpt lat="42.298784093048795" lon="12.097558280089904"><ele>415.25</ele><time>2026-04-11T09:36:14Z</time></trkpt><trkpt lat="42.298700716391934" lon="12.097665844472349"><ele>416.0</ele><time>2026-04-11T09:36:15Z</time></trkpt><trkpt lat="42.29860920064367" lon="12.097774613959956"><ele>416.0</ele><time>2026-04-11T09:36:16Z</time></trkpt><trkpt lat="42.29852057103222" lon="12.09788116358757"><ele>416.0</ele><time>2026-04-11T09:36:17Z</time></trkpt><trkpt lat="42.29843252252974" lon="12.097989905958608"><ele>416.0</ele><time>2026-04-11T09:36:18Z</time></trkpt><trkpt lat="42.29834122543937" lon="12.098109274405113"><ele>416.0</ele><time>2026-04-11T09:36:19Z</time></trkpt><trkpt lat="42.29822366639866" lon="12.098229357769311"><ele>416.66666666666663</ele><time>2026-04-11T09:36:20Z</time></trkpt><trkpt lat="42.29810083361998" lon="12.098407164706828"><ele>417.33333333333337</ele><time>2026-04-11T09:36:21Z</time></trkpt><trkpt lat="42.29797903593055" lon="12.098535905813144"><ele>418.0</ele><time>2026-04-11T09:36:22Z</time></trkpt><trkpt lat="42.29787635945454" lon="12.098663725284341"><ele>418.50000000000006</ele><time>2026-04-11T09:36:23Z</time></trkpt><trkpt lat="42.29779275180159" lon="12.098775606449683"><ele>419.0</ele><time>2026-04-11T09:36:24Z</time></trkpt><trkpt lat="42.297719379795865" lon="12.098865215925066"><ele>419.5</ele><time>2026-04-11T09:36:25Z</time></trkpt><trkpt lat="42.297656775702755" lon="12.098940112350835"><ele>420.0</ele><time>2026-04-11T09:36:26Z</time></trkpt><trkpt lat="42.297595778645416" lon="12.099013431056214"><ele>420.50000000000006</ele><time>2026-04-11T09:36:27Z</time></trkpt><trkpt lat="42.29754353834218" lon="12.099067557667448"><ele>421.0</ele><time>2026-04-11T09:36:28Z</time></trkpt><trkpt lat="42.29748430983192" lon="12.099111178394255"><ele>421.00000000000006</ele><time>2026-04-11T09:36:29Z</time></trkpt><trkpt lat="42.29741919552831" lon="12.099139059722388"><ele>421.0</ele><time>2026-04-11T09:36:30Z</time></trkpt><trkpt lat="42.297351912231036" lon="12.09916917101132"><ele>421.0</ele><time>2026-04-11T09:36:31Z</time></trkpt><trkpt lat="42.29728767034763" lon="12.099223158579477"><ele>421.0</ele><time>2026-04-11T09:36:32Z</time></trkpt><trkpt lat="42.29721712977996" lon="12.09930262748279"><ele>421.00000000000006</ele><time>2026-04-11T09:36:33Z</time></trkpt><trkpt lat="42.29711473798609" lon="12.099423828235954"><ele>421.0</ele><time>2026-04-11T09:36:34Z</time></trkpt><trkpt lat="42.296953254271294" lon="12.099534413113695"><ele>426.0</ele><time>2026-04-11T09:36:35Z</time></trkpt><trkpt lat="42.296775049317375" lon="12.099679041823844"><ele>431.0</ele><time>2026-04-11T09:36:36Z</time></trkpt><trkpt lat="42.296592647755595" lon="12.099841211807922"><ele>436.0</ele><time>2026-04-11T09:36:37Z</time></trkpt><trkpt lat="42.29639426096823" lon="12.100023695013963"><ele>440.5</ele><time>2026-04-11T09:36:38Z</time></trkpt><trkpt lat="42.29619560424277" lon="12.100264567607006"><ele>445.0</ele><time>2026-04-11T09:36:39Z</time></trkpt><trkpt lat="42.29600289318186" lon="12.100533695882604"><ele>443.0</ele><time>2026-04-11T09:36:40Z</time></trkpt><trkpt lat="42.29581064870174" lon="12.100808519646884"><ele>441.0</ele><time>2026-04-11T09:36:41Z</time></trkpt><trkpt lat="42.29561330006916" lon="12.101079268355182"><ele>444.5</ele><time>2026-04-11T09:36:42Z</time></trkpt><trkpt lat="42.29544143113013" lon="12.101325123751167"><ele>448.0</ele><time>2026-04-11T09:36:43Z</time></trkpt><trkpt lat="42.295277587939296" lon="12.101577313798822"><ele>448.5</ele><time>2026-04-11T09:36:44Z</time></trkpt><trkpt lat="42.29510820702587" lon="12.101824094023264"><ele>449.0</ele><time>2026-04-11T09:36:45Z</time></trkpt><trkpt lat="42.29492964601613" lon="12.10206475322375"><ele>449.0</ele><time>2026-04-11T09:36:46Z</time></trkpt><trkpt lat="42.29476690622138" lon="12.102313911035038"><ele>449.0</ele><time>2026-04-11T09:36:47Z</time></trkpt><trkpt lat="42.29459401745118" lon="12.102564506384821"><ele>451.0</ele><time>2026-04-11T09:36:48Z</time></trkpt><trkpt lat="42.2944269223434" lon="12.102819127359524"><ele>453.0</ele><time>2026-04-11T09:36:49Z</time></trkpt><trkpt lat="42.294263954125896" lon="12.103064347275444"><ele>453.0</ele><time>2026-04-11T09:36:50Z</time></trkpt><trkpt lat="42.29409447989783" lon="12.103261065688953"><ele>453.0</ele><time>2026-04-11T09:36:51Z</time></trkpt><trkpt lat="42.293955815748454" lon="12.103439564762114"><ele>453.0</ele><time>2026-04-11T09:36:52Z</time></trkpt><trkpt lat="42.29381569648183" lon="12.103619554817916"><ele>453.66666666666663</ele><time>2026-04-11T09:36:53Z</time></trkpt><trkpt lat="42.2936575959906" lon="12.103820892110479"><ele>454.3333333333333</ele><time>2026-04-11T09:36:54Z</time></trkpt><trkpt lat="42.29348927920324" lon="12.104035178178613"><ele>455.0</ele><time>2026-04-11T09:36:55Z</time></trkpt><trkpt lat="42.29332067519753" lon="12.104274558913817"><ele>455.0</ele><time>2026-04-11T09:36:56Z</time></trkpt><trkpt lat="42.29313055158689" lon="12.104502537546603"><ele>455.0</ele><time>2026-04-11T09:36:57Z</time></trkpt><trkpt lat="42.292933971722185" lon="12.10473036857308"><ele>457.0</ele><time>2026-04-11T09:36:58Z</time></trkpt><trkpt lat="42.292764745800355" lon="12.104982638371434"><ele>459.0</ele><time>2026-04-11T09:36:59Z</time></trkpt><trkpt lat="42.2926227422048" lon="12.105246450465113"><ele>459.0</ele><time>2026-04-11T09:37:00Z</time></trkpt><trkpt lat="42.29250645655373" lon="12.105541669471803"><ele>459.0</ele><time>2026-04-11T09:37:01Z</time></trkpt><trkpt lat="42.292425115483304" lon="12.10586473549722"><ele>460.5</ele><time>2026-04-11T09:37:02Z</time></trkpt><trkpt lat="42.29235900696096" lon="12.106204690915394"><ele>462.0</ele><time>2026-04-11T09:37:03Z</time></trkpt><trkpt lat="42.292300951692184" lon="12.106537256121765"><ele>462.5</ele><time>2026-04-11T09:37:04Z</time></trkpt><trkpt lat="42.292243632216056" lon="12.106872961145879"><ele>463.0</ele><time>2026-04-11T09:37:05Z</time></trkpt><trkpt lat="42.29219023350963" lon="12.107209722702057"><ele>462.5</ele><time>2026-04-11T09:37:06Z</time></trkpt><trkpt lat="42.29214116626784" lon="12.10755404341678"><ele>462.0</ele><time>2026-04-11T09:37:07Z</time></trkpt><trkpt lat="42.29209793939538" lon="12.107894642654733"><ele>462.0</ele><time>2026-04-11T09:37:08Z</time></trkpt><trkpt lat="42.29203004124862" lon="12.108237871098707"><ele>462.0</ele><time>2026-04-11T09:37:09Z</time></trkpt><trkpt lat="42.29197889569855" lon="12.108588856786122"><ele>462.0</ele><time>2026-04-11T09:37:10Z</time></trkpt><trkpt lat="42.29192029559118" lon="12.108928699225753"><ele>462.0</ele><time>2026-04-11T09:37:11Z</time></trkpt><trkpt lat="42.29185372418657" lon="12.109278760834155"><ele>462.5</ele><time>2026-04-11T09:37:12Z</time></trkpt><trkpt lat="42.29178133005745" lon="12.10963206049523"><ele>463.0</ele><time>2026-04-11T09:37:13Z</time></trkpt><trkpt lat="42.29170666820316" lon="12.10998614038157"><ele>463.5</ele><time>2026-04-11T09:37:14Z</time></trkpt><trkpt lat="42.29163265315519" lon="12.110337153074052"><ele>464.0</ele><time>2026-04-11T09:37:15Z</time></trkpt><trkpt lat="42.29155824137964" lon="12.110690047241995"><ele>464.0</ele><time>2026-04-11T09:37:16Z</time></trkpt><trkpt lat="42.29148270772857" lon="12.111047693250686"><ele>464.0</ele><time>2026-04-11T09:37:17Z</time></trkpt><trkpt lat="42.291405395219414" lon="12.11141248346886"><ele>463.5</ele><time>2026-04-11T09:37:18Z</time></trkpt><trkpt lat="42.29132879403424" lon="12.111772654301253"><ele>463.0</ele><time>2026-04-11T09:37:19Z</time></trkpt><trkpt lat="42.29127161740468" lon="12.112146171677198"><ele>463.5</ele><time>2026-04-11T09:37:20Z</time></trkpt><trkpt lat="42.29119310124128" lon="12.112513957142355"><ele>464.0</ele><time>2026-04-11T09:37:21Z</time></trkpt><trkpt lat="42.2911150101235" lon="12.11289111227446"><ele>464.5</ele><time>2026-04-11T09:37:22Z</time></trkpt><trkpt lat="42.291035495883975" lon="12.113267725508335"><ele>465.0</ele><time>2026-04-11T09:37:23Z</time></trkpt><trkpt lat="42.290936174364084" lon="12.11363538641417"><ele>465.0</ele><time>2026-04-11T09:37:24Z</time></trkpt><trkpt lat="42.29085957154594" lon="12.114001594007071"><ele>465.0</ele><time>2026-04-11T09:37:25Z</time></trkpt><trkpt lat="42.29078385552821" lon="12.114361137711002"><ele>466.0</ele><time>2026-04-11T09:37:26Z</time></trkpt><trkpt lat="42.290707936513904" lon="12.114721572164107"><ele>467.0</ele><time>2026-04-11T09:37:27Z</time></trkpt><trkpt lat="42.290632522769606" lon="12.115079608389289"><ele>467.0</ele><time>2026-04-11T09:37:28Z</time></trkpt><trkpt lat="42.29055698908157" lon="12.115432325045491"><ele>467.0</ele><time>2026-04-11T09:37:29Z</time></trkpt><trkpt lat="42.29047369024793" lon="12.115795321664429"><ele>467.0</ele><time>2026-04-11T09:37:30Z</time></trkpt><trkpt lat="42.290385249111" lon="12.116143124783944"><ele>467.0</ele><time>2026-04-11T09:37:31Z</time></trkpt><trkpt lat="42.290289026362906" lon="12.11649050867928"><ele>468.0</ele><time>2026-04-11T09:37:32Z</time></trkpt><trkpt lat="42.29018339789998" lon="12.116839953448306"><ele>469.0</ele><time>2026-04-11T09:37:33Z</time></trkpt><trkpt lat="42.29007303498343" lon="12.11718151587454"><ele>470.5</ele><time>2026-04-11T09:37:34Z</time></trkpt><trkpt lat="42.28996137897568" lon="12.117516732447799"><ele>472.0</ele><time>2026-04-11T09:37:35Z</time></trkpt><trkpt lat="42.28986200504396" lon="12.117855871760662"><ele>471.0</ele><time>2026-04-11T09:37:36Z</time></trkpt><trkpt lat="42.28974989937338" lon="12.118177009405828"><ele>470.0</ele><time>2026-04-11T09:37:37Z</time></trkpt><trkpt lat="42.28963791792917" lon="12.118490695475824"><ele>472.0</ele><time>2026-04-11T09:37:38Z</time></trkpt><trkpt lat="42.28951935396957" lon="12.118790590658607"><ele>474.0</ele><time>2026-04-11T09:37:39Z</time></trkpt><trkpt lat="42.28940253660729" lon="12.119089289707142"><ele>475.5</ele><time>2026-04-11T09:37:40Z</time></trkpt><trkpt lat="42.28927524749956" lon="12.119375188505952"><ele>477.0</ele><time>2026-04-11T09:37:41Z</time></trkpt><trkpt lat="42.28913133250565" lon="12.119650708063842"><ele>477.0</ele><time>2026-04-11T09:37:42Z</time></trkpt><trkpt lat="42.288980620244516" lon="12.11991110974132"><ele>477.0</ele><time>2026-04-11T09:37:43Z</time></trkpt><trkpt lat="42.28883248116309" lon="12.120160992246026"><ele>478.5</ele><time>2026-04-11T09:37:44Z</time></trkpt><trkpt lat="42.28868358203484" lon="12.120407460153766"><ele>480.0</ele><time>2026-04-11T09:37:45Z</time></trkpt><trkpt lat="42.288520561362155" lon="12.120666158273128"><ele>478.0</ele><time>2026-04-11T09:37:46Z</time></trkpt><trkpt lat="42.288357448277175" lon="12.120930134497469"><ele>476.0</ele><time>2026-04-11T09:37:47Z</time></trkpt><trkpt lat="42.28819378464744" lon="12.121199019377169"><ele>476.0</ele><time>2026-04-11T09:37:48Z</time></trkpt><trkpt lat="42.28803004321068" lon="12.121475937758134"><ele>476.0</ele><time>2026-04-11T09:37:49Z</time></trkpt><trkpt lat="42.28785885590598" lon="12.121743722440895"><ele>476.0</ele><time>2026-04-11T09:37:50Z</time></trkpt><trkpt lat="42.287691404989076" lon="12.121999796071364"><ele>476.0</ele><time>2026-04-11T09:37:51Z</time></trkpt><trkpt lat="42.28752840953587" lon="12.12224464295501"><ele>475.0</ele><time>2026-04-11T09:37:52Z</time></trkpt><trkpt lat="42.287359729008514" lon="12.122482585286457"><ele>474.0</ele><time>2026-04-11T09:37:53Z</time></trkpt><trkpt lat="42.28718724053281" lon="12.122726564420105"><ele>473.0</ele><time>2026-04-11T09:37:54Z</time></trkpt><trkpt lat="42.287004324783815" lon="12.1229653547868"><ele>472.0</ele><time>2026-04-11T09:37:55Z</time></trkpt><trkpt lat="42.286836853736546" lon="12.123207561502223"><ele>470.0</ele><time>2026-04-11T09:37:56Z</time></trkpt><trkpt lat="42.286679089068095" lon="12.123456583584332"><ele>468.0</ele><time>2026-04-11T09:37:57Z</time></trkpt><trkpt lat="42.286551074764695" lon="12.123711838951916"><ele>468.0</ele><time>2026-04-11T09:37:58Z</time></trkpt><trkpt lat="42.286446790465995" lon="12.123969965123115"><ele>468.0</ele><time>2026-04-11T09:37:59Z</time></trkpt><trkpt lat="42.286362870148864" lon="12.124242228985317"><ele>468.0</ele><time>2026-04-11T09:38:00Z</time></trkpt><trkpt lat="42.286294425323284" lon="12.124503550757494"><ele>468.66666666666663</ele><time>2026-04-11T09:38:01Z</time></trkpt><trkpt lat="42.28623567929373" lon="12.124736683412452"><ele>469.3333333333333</ele><time>2026-04-11T09:38:02Z</time></trkpt><trkpt lat="42.286172617056785" lon="12.124942622515286"><ele>470.0</ele><time>2026-04-11T09:38:03Z</time></trkpt><trkpt lat="42.28611239562551" lon="12.125117160321919"><ele>470.0</ele><time>2026-04-11T09:38:04Z</time></trkpt><trkpt lat="42.28605324602111" lon="12.125282353714981"><ele>470.0</ele><time>2026-04-11T09:38:05Z</time></trkpt><trkpt lat="42.28598452116876" lon="12.125463807619766"><ele>470.0</ele><time>2026-04-11T09:38:06Z</time></trkpt><trkpt lat="42.285898262465636" lon="12.125664148797451"><ele>469.66666666666663</ele><time>2026-04-11T09:38:07Z</time></trkpt><trkpt lat="42.2858085760225" lon="12.125886015161855"><ele>469.33333333333337</ele><time>2026-04-11T09:38:08Z</time></trkpt><trkpt lat="42.28571539981121" lon="12.126109824920194"><ele>469.0</ele><time>2026-04-11T09:38:09Z</time></trkpt><trkpt lat="42.28562018802603" lon="12.126342936849502"><ele>469.6666666666667</ele><time>2026-04-11T09:38:10Z</time></trkpt><trkpt lat="42.28551695459323" lon="12.126589351343014"><ele>470.33333333333337</ele><time>2026-04-11T09:38:11Z</time></trkpt><trkpt lat="42.28541109841178" lon="12.12683416713698"><ele>471.0</ele><time>2026-04-11T09:38:12Z</time></trkpt><trkpt lat="42.28530293626683" lon="12.127093897085453"><ele>471.0</ele><time>2026-04-11T09:38:13Z</time></trkpt><trkpt lat="42.2851926119829" lon="12.127362168076163"><ele>471.0</ele><time>2026-04-11T09:38:14Z</time></trkpt><trkpt lat="42.285083931208575" lon="12.12763327998073"><ele>472.0</ele><time>2026-04-11T09:38:15Z</time></trkpt><trkpt lat="42.28497695880545" lon="12.127898952267751"><ele>473.0</ele><time>2026-04-11T09:38:16Z</time></trkpt><trkpt lat="42.28485779078891" lon="12.128165640665264"><ele>472.0</ele><time>2026-04-11T09:38:17Z</time></trkpt><trkpt lat="42.284737688028635" lon="12.128445684616253"><ele>471.0</ele><time>2026-04-11T09:38:18Z</time></trkpt><trkpt lat="42.284616441793574" lon="12.128734889987859"><ele>471.0</ele><time>2026-04-11T09:38:19Z</time></trkpt><trkpt lat="42.28449203673078" lon="12.129031351474877"><ele>471.0</ele><time>2026-04-11T09:38:20Z</time></trkpt><trkpt lat="42.28436991810049" lon="12.129320562445367"><ele>471.5</ele><time>2026-04-11T09:38:21Z</time></trkpt><trkpt lat="42.28425000516628" lon="12.129604540135729"><ele>472.0</ele><time>2026-04-11T09:38:22Z</time></trkpt><trkpt lat="42.284129816366686" lon="12.129885764128913"><ele>472.5</ele><time>2026-04-11T09:38:23Z</time></trkpt><trkpt lat="42.28401330362136" lon="12.130162170848223"><ele>473.0</ele><time>2026-04-11T09:38:24Z</time></trkpt><trkpt lat="42.28390236197114" lon="12.13043065946216"><ele>473.66666666666663</ele><time>2026-04-11T09:38:25Z</time></trkpt><trkpt lat="42.283794785611306" lon="12.130691119863869"><ele>474.33333333333337</ele><time>2026-04-11T09:38:26Z</time></trkpt><trkpt lat="42.28369049697015" lon="12.130938400405544"><ele>475.0</ele><time>2026-04-11T09:38:27Z</time></trkpt><trkpt lat="42.28359356609133" lon="12.131169828141712"><ele>475.33333333333337</ele><time>2026-04-11T09:38:28Z</time></trkpt><trkpt lat="42.28349375293116" lon="12.13140290869274"><ele>475.66666666666663</ele><time>2026-04-11T09:38:29Z</time></trkpt><trkpt lat="42.283395209872324" lon="12.131640809464525"><ele>476.0</ele><time>2026-04-11T09:38:30Z</time></trkpt><trkpt lat="42.28329948075832" lon="12.131870850243729"><ele>477.3333333333333</ele><time>2026-04-11T09:38:31Z</time></trkpt><trkpt lat="42.28320576440893" lon="12.132094893463066"><ele>478.66666666666663</ele><time>2026-04-11T09:38:32Z</time></trkpt><trkpt lat="42.283120037300385" lon="12.132326153538544"><ele>480.0</ele><time>2026-04-11T09:38:33Z</time></trkpt><trkpt lat="42.28303990066617" lon="12.132544633633731"><ele>480.33333333333337</ele><time>2026-04-11T09:38:34Z</time></trkpt><trkpt lat="42.28295886354888" lon="12.132762146378303"><ele>480.6666666666667</ele><time>2026-04-11T09:38:35Z</time></trkpt><trkpt lat="42.28287641265683" lon="12.13297783827678"><ele>481.0</ele><time>2026-04-11T09:38:36Z</time></trkpt><trkpt lat="42.28280366967752" lon="12.13317404944149"><ele>481.5</ele><time>2026-04-11T09:38:37Z</time></trkpt><trkpt lat="42.282732125611304" lon="12.133331826901491"><ele>482.0</ele><time>2026-04-11T09:38:38Z</time></trkpt><trkpt lat="42.28267121762199" lon="12.13346905419794"><ele>482.5</ele><time>2026-04-11T09:38:39Z</time></trkpt><trkpt lat="42.282611750890666" lon="12.13358725801611"><ele>483.0</ele><time>2026-04-11T09:38:40Z</time></trkpt><trkpt lat="42.28253925747125" lon="12.133683408756918"><ele>483.0</ele><time>2026-04-11T09:38:41Z</time></trkpt><trkpt lat="42.28244202801179" lon="12.13374660513687"><ele>483.0</ele><time>2026-04-11T09:38:42Z</time></trkpt><trkpt lat="42.282331292469344" lon="12.133739361713943"><ele>483.0</ele><time>2026-04-11T09:38:43Z</time></trkpt><trkpt lat="42.28224871007112" lon="12.13365025305573"><ele>483.0</ele><time>2026-04-11T09:38:44Z</time></trkpt><trkpt lat="42.28216702637747" lon="12.133516518725088"><ele>482.66666666666663</ele><time>2026-04-11T09:38:45Z</time></trkpt><trkpt lat="42.28205597719278" lon="12.133369949025818"><ele>482.3333333333333</ele><time>2026-04-11T09:38:46Z</time></trkpt><trkpt lat="42.28193516656474" lon="12.13319730327208"><ele>482.0</ele><time>2026-04-11T09:38:47Z</time></trkpt><trkpt lat="42.2818056836923" lon="12.133010635190207"><ele>482.0</ele><time>2026-04-11T09:38:48Z</time></trkpt><trkpt lat="42.281664636808614" lon="12.13282475765559"><ele>482.0</ele><time>2026-04-11T09:38:49Z</time></trkpt><trkpt lat="42.28151252147443" lon="12.132624560132"><ele>482.0</ele><time>2026-04-11T09:38:50Z</time></trkpt><trkpt lat="42.28136291756509" lon="12.132424846948236"><ele>481.3333333333333</ele><time>2026-04-11T09:38:51Z</time></trkpt><trkpt lat="42.281209334017525" lon="12.132223903896154"><ele>480.66666666666663</ele><time>2026-04-11T09:38:52Z</time></trkpt><trkpt lat="42.28105455668031" lon="12.132039540582184"><ele>480.0</ele><time>2026-04-11T09:38:53Z</time></trkpt><trkpt lat="42.28089921889973" lon="12.131843592821653"><ele>480.0</ele><time>2026-04-11T09:38:54Z</time></trkpt><trkpt lat="42.28074452928334" lon="12.131636848124032"><ele>480.0</ele><time>2026-04-11T09:38:55Z</time></trkpt><trkpt lat="42.28058375990409" lon="12.131408660193227"><ele>479.5</ele><time>2026-04-11T09:38:56Z</time></trkpt><trkpt lat="42.28042330752953" lon="12.131160346580375"><ele>479.0</ele><time>2026-04-11T09:38:57Z</time></trkpt><trkpt lat="42.28027745111513" lon="12.130911351277652"><ele>479.0</ele><time>2026-04-11T09:38:58Z</time></trkpt><trkpt lat="42.28013494788883" lon="12.13066778403159"><ele>479.0</ele><time>2026-04-11T09:38:59Z</time></trkpt><trkpt lat="42.279994886804204" lon="12.13042205660259"><ele>479.0</ele><time>2026-04-11T09:39:00Z</time></trkpt><trkpt lat="42.279860620226415" lon="12.130166657704407"><ele>479.0</ele><time>2026-04-11T09:39:01Z</time></trkpt><trkpt lat="42.27974339631437" lon="12.12989837221642"><ele>478.0</ele><time>2026-04-11T09:39:02Z</time></trkpt><trkpt lat="42.27963229335168" lon="12.129628437862651"><ele>477.0</ele><time>2026-04-11T09:39:03Z</time></trkpt><trkpt lat="42.27952916126953" lon="12.129355168554476"><ele>477.0</ele><time>2026-04-11T09:39:04Z</time></trkpt><trkpt lat="42.27942600412989" lon="12.129090139964816"><ele>477.0</ele><time>2026-04-11T09:39:05Z</time></trkpt><trkpt lat="42.27932481080799" lon="12.128824304914275"><ele>477.0</ele><time>2026-04-11T09:39:06Z</time></trkpt><trkpt lat="42.279224680047584" lon="12.128551369755218"><ele>477.0</ele><time>2026-04-11T09:39:07Z</time></trkpt><trkpt lat="42.279124704088744" lon="12.128276948406642"><ele>477.0</ele><time>2026-04-11T09:39:08Z</time></trkpt><trkpt lat="42.27902274656095" lon="12.127998206221411"><ele>475.5</ele><time>2026-04-11T09:39:09Z</time></trkpt><trkpt lat="42.27892067516107" lon="12.127714919178441"><ele>474.0</ele><time>2026-04-11T09:39:10Z</time></trkpt><trkpt lat="42.27881566640542" lon="12.127426108047766"><ele>473.5</ele><time>2026-04-11T09:39:11Z</time></trkpt><trkpt lat="42.2787050258137" lon="12.127133222387265"><ele>473.0</ele><time>2026-04-11T09:39:12Z</time></trkpt><trkpt lat="42.27860224924721" lon="12.126841856047434"><ele>472.5</ele><time>2026-04-11T09:39:13Z</time></trkpt><trkpt lat="42.2784989119503" lon="12.126552321386113"><ele>472.0</ele><time>2026-04-11T09:39:14Z</time></trkpt><trkpt lat="42.278391225785754" lon="12.12626007422546"><ele>472.0</ele><time>2026-04-11T09:39:15Z</time></trkpt><trkpt lat="42.27828944061141" lon="12.125975481871862"><ele>472.0</ele><time>2026-04-11T09:39:16Z</time></trkpt><trkpt lat="42.278187453066906" lon="12.125690237509708"><ele>470.33333333333337</ele><time>2026-04-11T09:39:17Z</time></trkpt><trkpt lat="42.27808663589845" lon="12.125406457958395"><ele>468.66666666666663</ele><time>2026-04-11T09:39:18Z</time></trkpt><trkpt lat="42.277998352346145" lon="12.12514396310972"><ele>467.0</ele><time>2026-04-11T09:39:19Z</time></trkpt><trkpt lat="42.277915665924276" lon="12.124901149499362"><ele>466.0</ele><time>2026-04-11T09:39:20Z</time></trkpt><trkpt lat="42.27782896762511" lon="12.1246560862038"><ele>465.0</ele><time>2026-04-11T09:39:21Z</time></trkpt><trkpt lat="42.2777388220358" lon="12.124415814285461"><ele>464.0</ele><time>2026-04-11T09:39:22Z</time></trkpt><trkpt lat="42.27765968633555" lon="12.124188517263562"><ele>463.0</ele><time>2026-04-11T09:39:23Z</time></trkpt><trkpt lat="42.277587456719104" lon="12.123994408657873"><ele>462.0</ele><time>2026-04-11T09:39:24Z</time></trkpt><trkpt lat="42.27752695015103" lon="12.123843190547989"><ele>461.0</ele><time>2026-04-11T09:39:25Z</time></trkpt><trkpt lat="42.277452176756334" lon="12.123707753134301"><ele>460.0</ele><time>2026-04-11T09:39:26Z</time></trkpt><trkpt lat="42.277326859021564" lon="12.12358911739332"><ele>459.5</ele><time>2026-04-11T09:39:27Z</time></trkpt><trkpt lat="42.27719492965589" lon="12.123466223886405"><ele>459.0</ele><time>2026-04-11T09:39:28Z</time></trkpt><trkpt lat="42.277073124083124" lon="12.123348986991244"><ele>458.5</ele><time>2026-04-11T09:39:29Z</time></trkpt><trkpt lat="42.27697255380137" lon="12.123263797894454"><ele>458.0</ele><time>2026-04-11T09:39:30Z</time></trkpt><trkpt lat="42.27691001885246" lon="12.12320198276792"><ele>458.0</ele><time>2026-04-11T09:39:31Z</time></trkpt><trkpt lat="42.27681410282272" lon="12.123086725185496"><ele>458.0</ele><time>2026-04-11T09:39:33Z</time></trkpt><trkpt lat="42.27675509794402" lon="12.123000026350939"><ele>458.0</ele><time>2026-04-11T09:39:34Z</time></trkpt><trkpt lat="42.27670757866491" lon="12.122867684374262"><ele>458.0</ele><time>2026-04-11T09:39:35Z</time></trkpt><trkpt lat="42.27668609133814" lon="12.122690813197046"><ele>458.0</ele><time>2026-04-11T09:39:36Z</time></trkpt><trkpt lat="42.27668240990951" lon="12.122488163442377"><ele>458.0</ele><time>2026-04-11T09:39:37Z</time></trkpt><trkpt lat="42.276690326137356" lon="12.122280311622752"><ele>458.0</ele><time>2026-04-11T09:39:38Z</time></trkpt><trkpt lat="42.27666878411622" lon="12.122116905923052"><ele>458.0</ele><time>2026-04-11T09:39:39Z</time></trkpt><trkpt lat="42.27661374574754" lon="12.121974843643587"><ele>457.3333333333333</ele><time>2026-04-11T09:39:40Z</time></trkpt><trkpt lat="42.276510272574406" lon="12.121837500370422"><ele>456.66666666666663</ele><time>2026-04-11T09:39:41Z</time></trkpt><trkpt lat="42.27637484755145" lon="12.121701607333254"><ele>456.0</ele><time>2026-04-11T09:39:42Z</time></trkpt><trkpt lat="42.27622616189929" lon="12.121549628509726"><ele>455.66666666666663</ele><time>2026-04-11T09:39:43Z</time></trkpt><trkpt lat="42.2760869325692" lon="12.121395638524342"><ele>455.3333333333333</ele><time>2026-04-11T09:39:44Z</time></trkpt><trkpt lat="42.27594055121893" lon="12.12122942253389"><ele>455.0</ele><time>2026-04-11T09:39:45Z</time></trkpt><trkpt lat="42.27578982039824" lon="12.12105688966088"><ele>455.0</ele><time>2026-04-11T09:39:46Z</time></trkpt><trkpt lat="42.27564225477769" lon="12.120883116534637"><ele>455.0</ele><time>2026-04-11T09:39:47Z</time></trkpt><trkpt lat="42.27549208711251" lon="12.120710469559608"><ele>455.0</ele><time>2026-04-11T09:39:48Z</time></trkpt><trkpt lat="42.27533600296394" lon="12.120531156593353"><ele>455.0</ele><time>2026-04-11T09:39:49Z</time></trkpt><trkpt lat="42.27518003004517" lon="12.120356796424655"><ele>455.0</ele><time>2026-04-11T09:39:50Z</time></trkpt><trkpt lat="42.27502911774088" lon="12.12018633478446"><ele>455.0</ele><time>2026-04-11T09:39:51Z</time></trkpt><trkpt lat="42.27492570197831" lon="12.120065305408538"><ele>455.0</ele><time>2026-04-11T09:39:52Z</time></trkpt><trkpt lat="42.274874134956015" lon="12.119995048723286"><ele>455.0</ele><time>2026-04-11T09:39:53Z</time></trkpt><trkpt lat="42.27481786692101" lon="12.119915569253846"><ele>455.0</ele><time>2026-04-11T09:39:54Z</time></trkpt><trkpt lat="42.27474088964546" lon="12.119817568461658"><ele>455.0</ele><time>2026-04-11T09:39:55Z</time></trkpt><trkpt lat="42.274641074007725" lon="12.119721026819873"><ele>455.0</ele><time>2026-04-11T09:39:56Z</time></trkpt><trkpt lat="42.27452385084108" lon="12.119604691545529"><ele>455.3333333333333</ele><time>2026-04-11T09:39:57Z</time></trkpt><trkpt lat="42.274398723935285" lon="12.11945090424044"><ele>455.66666666666663</ele><time>2026-04-11T09:39:58Z</time></trkpt><trkpt lat="42.27426327371952" lon="12.119287977303916"><ele>456.0</ele><time>2026-04-11T09:39:59Z</time></trkpt><trkpt lat="42.274120964184" lon="12.119130848366646"><ele>456.33333333333337</ele><time>2026-04-11T09:40:00Z</time></trkpt><trkpt lat="42.27396823405376" lon="12.118960553001696"><ele>456.6666666666667</ele><time>2026-04-11T09:40:01Z</time></trkpt><trkpt lat="42.273810921424904" lon="12.118784028900407"><ele>457.0</ele><time>2026-04-11T09:40:02Z</time></trkpt><trkpt lat="42.273651431325966" lon="12.118596635343568"><ele>457.33333333333337</ele><time>2026-04-11T09:40:03Z</time></trkpt><trkpt lat="42.273487677543756" lon="12.118414424248424"><ele>457.66666666666663</ele><time>2026-04-11T09:40:04Z</time></trkpt><trkpt lat="42.273328240161874" lon="12.118232223518602"><ele>458.0</ele><time>2026-04-11T09:40:05Z</time></trkpt><trkpt lat="42.27317430018813" lon="12.118052849238296"><ele>459.0</ele><time>2026-04-11T09:40:06Z</time></trkpt><trkpt lat="42.2730143462046" lon="12.117870639909771"><ele>460.0</ele><time>2026-04-11T09:40:07Z</time></trkpt><trkpt lat="42.27284932435372" lon="12.11768584627034"><ele>461.0</ele><time>2026-04-11T09:40:08Z</time></trkpt><trkpt lat="42.27268701973965" lon="12.117499260952574"><ele>461.0</ele><time>2026-04-11T09:40:09Z</time></trkpt><trkpt lat="42.272526605244664" lon="12.117314481447469"><ele>461.0</ele><time>2026-04-11T09:40:10Z</time></trkpt><trkpt lat="42.27236186444613" lon="12.11712687622103"><ele>461.0</ele><time>2026-04-11T09:40:11Z</time></trkpt><trkpt lat="42.2721973807443" lon="12.116940213465575"><ele>461.3333333333333</ele><time>2026-04-11T09:40:12Z</time></trkpt><trkpt lat="42.27203166915287" lon="12.11675139076564"><ele>461.66666666666663</ele><time>2026-04-11T09:40:13Z</time></trkpt><trkpt lat="42.271864850395154" lon="12.116559761589867"><ele>462.0</ele><time>2026-04-11T09:40:14Z</time></trkpt><trkpt lat="42.2716967676592" lon="12.116366319064372"><ele>462.0</ele><time>2026-04-11T09:40:15Z</time></trkpt><trkpt lat="42.27152967775978" lon="12.116169861638229"><ele>462.0</ele><time>2026-04-11T09:40:16Z</time></trkpt><trkpt lat="42.27135673435883" lon="12.115972552811456"><ele>462.0</ele><time>2026-04-11T09:40:17Z</time></trkpt><trkpt lat="42.27118070759062" lon="12.115771198409995"><ele>463.5</ele><time>2026-04-11T09:40:18Z</time></trkpt><trkpt lat="42.27100535368421" lon="12.115568160286035"><ele>465.0</ele><time>2026-04-11T09:40:19Z</time></trkpt><trkpt lat="42.27082443767516" lon="12.115363901830213"><ele>465.0</ele><time>2026-04-11T09:40:20Z</time></trkpt><trkpt lat="42.270644185386516" lon="12.115154478462914"><ele>465.0</ele><time>2026-04-11T09:40:21Z</time></trkpt><trkpt lat="42.27046562152052" lon="12.114949240299412"><ele>466.5</ele><time>2026-04-11T09:40:22Z</time></trkpt><trkpt lat="42.270285035532815" lon="12.114739977051798"><ele>468.0</ele><time>2026-04-11T09:40:23Z</time></trkpt><trkpt lat="42.27010179539986" lon="12.114533140098683"><ele>468.0</ele><time>2026-04-11T09:40:24Z</time></trkpt><trkpt lat="42.26991999226058" lon="12.114326498261756"><ele>468.0</ele><time>2026-04-11T09:40:25Z</time></trkpt><trkpt lat="42.26973898890145" lon="12.114120005172127"><ele>470.5</ele><time>2026-04-11T09:40:26Z</time></trkpt><trkpt lat="42.269560819335744" lon="12.113911225396677"><ele>473.0</ele><time>2026-04-11T09:40:27Z</time></trkpt><trkpt lat="42.26938046880083" lon="12.113706037648912"><ele>473.0</ele><time>2026-04-11T09:40:28Z</time></trkpt><trkpt lat="42.26920092746043" lon="12.113499616524303"><ele>473.0</ele><time>2026-04-11T09:40:29Z</time></trkpt><trkpt lat="42.269023162140805" lon="12.113292909452957"><ele>475.0</ele><time>2026-04-11T09:40:30Z</time></trkpt><trkpt lat="42.26884506490268" lon="12.113092942466167"><ele>477.0</ele><time>2026-04-11T09:40:31Z</time></trkpt><trkpt lat="42.26866476691115" lon="12.112900860412394"><ele>477.0</ele><time>2026-04-11T09:40:32Z</time></trkpt><trkpt lat="42.26848446240222" lon="12.112701889225656"><ele>477.0</ele><time>2026-04-11T09:40:33Z</time></trkpt><trkpt lat="42.26830415883455" lon="12.112501427334909"><ele>480.0</ele><time>2026-04-11T09:40:34Z</time></trkpt><trkpt lat="42.26812866755226" lon="12.112296151957217"><ele>483.0</ele><time>2026-04-11T09:40:35Z</time></trkpt><trkpt lat="42.26795360095336" lon="12.112081758354078"><ele>484.0</ele><time>2026-04-11T09:40:36Z</time></trkpt><trkpt lat="42.26777775916045" lon="12.111870989207373"><ele>485.0</ele><time>2026-04-11T09:40:37Z</time></trkpt><trkpt lat="42.26760307330445" lon="12.11165598839915"><ele>485.0</ele><time>2026-04-11T09:40:38Z</time></trkpt><trkpt lat="42.2674216341419" lon="12.111441469005477"><ele>485.0</ele><time>2026-04-11T09:40:39Z</time></trkpt><trkpt lat="42.26723837208644" lon="12.111214788493143"><ele>485.0</ele><time>2026-04-11T09:40:40Z</time></trkpt><trkpt lat="42.26705424184395" lon="12.110999752367055"><ele>485.0</ele><time>2026-04-11T09:40:41Z</time></trkpt><trkpt lat="42.26685514384635" lon="12.110784476053745"><ele>485.5</ele><time>2026-04-11T09:40:42Z</time></trkpt><trkpt lat="42.2666576355385" lon="12.110558487059278"><ele>486.0</ele><time>2026-04-11T09:40:43Z</time></trkpt><trkpt lat="42.266456833968796" lon="12.110335477154496"><ele>487.0</ele><time>2026-04-11T09:40:44Z</time></trkpt><trkpt lat="42.26625782278893" lon="12.11010559279567"><ele>488.0</ele><time>2026-04-11T09:40:45Z</time></trkpt><trkpt lat="42.266057953733224" lon="12.10987812585661"><ele>488.5</ele><time>2026-04-11T09:40:46Z</time></trkpt><trkpt lat="42.26586036833785" lon="12.109650259506811"><ele>489.0</ele><time>2026-04-11T09:40:47Z</time></trkpt><trkpt lat="42.26566733923587" lon="12.109424368697825"><ele>492.0</ele><time>2026-04-11T09:40:48Z</time></trkpt><trkpt lat="42.26547445304081" lon="12.109201221388389"><ele>495.0</ele><time>2026-04-11T09:40:49Z</time></trkpt><trkpt lat="42.265278536022194" lon="12.108975772265014"><ele>495.0</ele><time>2026-04-11T09:40:50Z</time></trkpt><trkpt lat="42.26508417458155" lon="12.10875894056979"><ele>495.0</ele><time>2026-04-11T09:40:51Z</time></trkpt><trkpt lat="42.26489665164981" lon="12.108546220670696"><ele>498.0</ele><time>2026-04-11T09:40:52Z</time></trkpt><trkpt lat="42.264714205224955" lon="12.108341288068234"><ele>501.0</ele><time>2026-04-11T09:40:53Z</time></trkpt><trkpt lat="42.26454359026695" lon="12.1081512106615"><ele>501.0</ele><time>2026-04-11T09:40:54Z</time></trkpt><trkpt lat="42.26437736553782" lon="12.107944775151397"><ele>501.0</ele><time>2026-04-11T09:40:55Z</time></trkpt><trkpt lat="42.26420669597762" lon="12.107741745128925"><ele>501.0</ele><time>2026-04-11T09:40:56Z</time></trkpt><trkpt lat="42.26403265780043" lon="12.107544836372686"><ele>501.0</ele><time>2026-04-11T09:40:57Z</time></trkpt><trkpt lat="42.26385296768754" lon="12.107339946569134"><ele>500.5</ele><time>2026-04-11T09:40:58Z</time></trkpt><trkpt lat="42.263669908276675" lon="12.107138703487184"><ele>500.0</ele><time>2026-04-11T09:40:59Z</time></trkpt><trkpt lat="42.26348367110303" lon="12.106926807045046"><ele>500.0</ele><time>2026-04-11T09:41:00Z</time></trkpt><trkpt lat="42.263299034157704" lon="12.106710812854235"><ele>500.0</ele><time>2026-04-11T09:41:01Z</time></trkpt><trkpt lat="42.26311128744514" lon="12.106496563550781"><ele>502.0</ele><time>2026-04-11T09:41:02Z</time></trkpt><trkpt lat="42.2629236684416" lon="12.106286630633276"><ele>504.0</ele><time>2026-04-11T09:41:03Z</time></trkpt><trkpt lat="42.26273721078026" lon="12.106082382093245"><ele>504.0</ele><time>2026-04-11T09:41:04Z</time></trkpt><trkpt lat="42.262554970757606" lon="12.10587488369548"><ele>504.0</ele><time>2026-04-11T09:41:05Z</time></trkpt><trkpt lat="42.262377479608254" lon="12.105675116183516"><ele>502.5</ele><time>2026-04-11T09:41:06Z</time></trkpt><trkpt lat="42.26219600874348" lon="12.105459135156822"><ele>501.0</ele><time>2026-04-11T09:41:07Z</time></trkpt><trkpt lat="42.26201531983207" lon="12.105248162079366"><ele>501.0</ele><time>2026-04-11T09:41:08Z</time></trkpt><trkpt lat="42.2618262888432" lon="12.10502906926748"><ele>501.0</ele><time>2026-04-11T09:41:09Z</time></trkpt><trkpt lat="42.26162543892458" lon="12.104804994235021"><ele>499.0</ele><time>2026-04-11T09:41:10Z</time></trkpt><trkpt lat="42.26142263095175" lon="12.104576328046223"><ele>497.0</ele><time>2026-04-11T09:41:11Z</time></trkpt><trkpt lat="42.26122785401648" lon="12.104347845680483"><ele>497.0</ele><time>2026-04-11T09:41:12Z</time></trkpt><trkpt lat="42.261024765144256" lon="12.10411775083934"><ele>497.0</ele><time>2026-04-11T09:41:13Z</time></trkpt><trkpt lat="42.26082068911002" lon="12.103884512466914"><ele>497.0</ele><time>2026-04-11T09:41:14Z</time></trkpt><trkpt lat="42.26061908621162" lon="12.10365186462656"><ele>497.0</ele><time>2026-04-11T09:41:15Z</time></trkpt><trkpt lat="42.26041465867236" lon="12.103420817220064"><ele>496.0</ele><time>2026-04-11T09:41:16Z</time></trkpt><trkpt lat="42.2602144782117" lon="12.103190710260776"><ele>495.0</ele><time>2026-04-11T09:41:17Z</time></trkpt><trkpt lat="42.26001125558353" lon="12.102963565013418"><ele>495.0</ele><time>2026-04-11T09:41:18Z</time></trkpt><trkpt lat="42.25982147597154" lon="12.102750118441435"><ele>495.0</ele><time>2026-04-11T09:41:19Z</time></trkpt><trkpt lat="42.25964064418472" lon="12.102546536634136"><ele>494.0</ele><time>2026-04-11T09:41:20Z</time></trkpt><trkpt lat="42.25946361560427" lon="12.102343395717007"><ele>493.0</ele><time>2026-04-11T09:41:21Z</time></trkpt><trkpt lat="42.259289058139366" lon="12.102139557434846"><ele>493.0</ele><time>2026-04-11T09:41:22Z</time></trkpt><trkpt lat="42.259109406794046" lon="12.10193992353451"><ele>493.0</ele><time>2026-04-11T09:41:23Z</time></trkpt><trkpt lat="42.258931674604774" lon="12.101730884977066"><ele>493.0</ele><time>2026-04-11T09:41:24Z</time></trkpt><trkpt lat="42.25875576228336" lon="12.10152333066232"><ele>493.0</ele><time>2026-04-11T09:41:25Z</time></trkpt><trkpt lat="42.25857982310392" lon="12.101324930377537"><ele>493.0</ele><time>2026-04-11T09:41:26Z</time></trkpt><trkpt lat="42.25843061002289" lon="12.101158801913824"><ele>493.0</ele><time>2026-04-11T09:41:27Z</time></trkpt><trkpt lat="42.25830958129297" lon="12.101019519407064"><ele>493.0</ele><time>2026-04-11T09:41:28Z</time></trkpt><trkpt lat="42.258203143727904" lon="12.1008941034161"><ele>494.0</ele><time>2026-04-11T09:41:29Z</time></trkpt><trkpt lat="42.25807735500785" lon="12.100780543995008"><ele>495.0</ele><time>2026-04-11T09:41:30Z</time></trkpt><trkpt lat="42.25793531421804" lon="12.100715312764704"><ele>496.0</ele><time>2026-04-11T09:41:31Z</time></trkpt><trkpt lat="42.25777120067105" lon="12.100698955242425"><ele>496.0</ele><time>2026-04-11T09:41:32Z</time></trkpt><trkpt lat="42.25760053338782" lon="12.100746931113392"><ele>496.0</ele><time>2026-04-11T09:41:33Z</time></trkpt><trkpt lat="42.257414481256305" lon="12.100854762205676"><ele>496.0</ele><time>2026-04-11T09:41:34Z</time></trkpt><trkpt lat="42.25720566969249" lon="12.10097707360154"><ele>489.0</ele><time>2026-04-11T09:41:35Z</time></trkpt><trkpt lat="42.256983940098635" lon="12.101076292854613"><ele>482.0</ele><time>2026-04-11T09:41:36Z</time></trkpt><trkpt lat="42.25675605034797" lon="12.101166335018853"><ele>482.0</ele><time>2026-04-11T09:41:37Z</time></trkpt><trkpt lat="42.256529671164536" lon="12.101257600795902"><ele>482.0</ele><time>2026-04-11T09:41:38Z</time></trkpt><trkpt lat="42.25632883152852" lon="12.101342025917582"><ele>482.0</ele><time>2026-04-11T09:41:39Z</time></trkpt><trkpt lat="42.25614417903325" lon="12.101395561000654"><ele>479.0</ele><time>2026-04-11T09:41:40Z</time></trkpt><trkpt lat="42.25595061717541" lon="12.101395400318763"><ele>476.0</ele><time>2026-04-11T09:41:41Z</time></trkpt><trkpt lat="42.25573562984102" lon="12.10134295698811"><ele>473.0</ele><time>2026-04-11T09:41:42Z</time></trkpt><trkpt lat="42.25551804528488" lon="12.10127295679283"><ele>470.0</ele><time>2026-04-11T09:41:43Z</time></trkpt><trkpt lat="42.25529225912474" lon="12.101257108922614"><ele>467.0</ele><time>2026-04-11T09:41:44Z</time></trkpt><trkpt lat="42.25508205360252" lon="12.101276086485449"><ele>464.0</ele><time>2026-04-11T09:41:45Z</time></trkpt><trkpt lat="42.25491655134961" lon="12.101302490610495"><ele>463.75</ele><time>2026-04-11T09:41:46Z</time></trkpt><trkpt lat="42.25477384281952" lon="12.101281486043549"><ele>463.5</ele><time>2026-04-11T09:41:47Z</time></trkpt><trkpt lat="42.25464835811019" lon="12.10120076939441"><ele>463.25</ele><time>2026-04-11T09:41:48Z</time></trkpt><trkpt lat="42.25454796090042" lon="12.101053677050473"><ele>463.0</ele><time>2026-04-11T09:41:49Z</time></trkpt><trkpt lat="42.25446591719379" lon="12.1008873000034"><ele>463.0</ele><time>2026-04-11T09:41:50Z</time></trkpt><trkpt lat="42.254375106271624" lon="12.100796469114883"><ele>463.0</ele><time>2026-04-11T09:41:51Z</time></trkpt><trkpt lat="42.254244205927165" lon="12.100752541886598"><ele>463.0</ele><time>2026-04-11T09:41:52Z</time></trkpt><trkpt lat="42.25410425484574" lon="12.100756481088618"><ele>463.0</ele><time>2026-04-11T09:41:53Z</time></trkpt><trkpt lat="42.253973688116886" lon="12.100764242564448"><ele>460.5</ele><time>2026-04-11T09:41:54Z</time></trkpt><trkpt lat="42.25384098489652" lon="12.10074308314562"><ele>458.0</ele><time>2026-04-11T09:41:55Z</time></trkpt><trkpt lat="42.25372062175285" lon="12.100680173431742"><ele>455.5</ele><time>2026-04-11T09:41:56Z</time></trkpt><trkpt lat="42.253606274802955" lon="12.100565697810378"><ele>453.0</ele><time>2026-04-11T09:41:57Z</time></trkpt><trkpt lat="42.25347333498616" lon="12.100369173010327"><ele>453.0</ele><time>2026-04-11T09:41:58Z</time></trkpt><trkpt lat="42.2533589997738" lon="12.100145618067126"><ele>453.0</ele><time>2026-04-11T09:41:59Z</time></trkpt><trkpt lat="42.253254169670136" lon="12.09993807475664"><ele>453.0</ele><time>2026-04-11T09:42:00Z</time></trkpt><trkpt lat="42.25314491711287" lon="12.099756020493242"><ele>449.0</ele><time>2026-04-11T09:42:01Z</time></trkpt><trkpt lat="42.252998845462805" lon="12.099629067735153"><ele>445.0</ele><time>2026-04-11T09:42:02Z</time></trkpt><trkpt lat="42.2528199523205" lon="12.099539048306037"><ele>441.0</ele><time>2026-04-11T09:42:03Z</time></trkpt><trkpt lat="42.25261223713466" lon="12.099479637688676"><ele>441.0</ele><time>2026-04-11T09:42:04Z</time></trkpt><trkpt lat="42.25237461711763" lon="12.099438693535472"><ele>441.0</ele><time>2026-04-11T09:42:05Z</time></trkpt><trkpt lat="42.25214549695683" lon="12.099405888826897"><ele>440.25</ele><time>2026-04-11T09:42:06Z</time></trkpt><trkpt lat="42.251968691875135" lon="12.099385494339774"><ele>439.5</ele><time>2026-04-11T09:42:07Z</time></trkpt><trkpt lat="42.251840208107325" lon="12.099400261607297"><ele>438.75</ele><time>2026-04-11T09:42:08Z</time></trkpt><trkpt lat="42.25172240925131" lon="12.099485721822623"><ele>438.0</ele><time>2026-04-11T09:42:09Z</time></trkpt><trkpt lat="42.25162354863431" lon="12.099648573653742"><ele>438.0</ele><time>2026-04-11T09:42:10Z</time></trkpt><trkpt lat="42.25156749869217" lon="12.099842557183237"><ele>438.0</ele><time>2026-04-11T09:42:11Z</time></trkpt><trkpt lat="42.25153189851491" lon="12.100103216980672"><ele>438.0</ele><time>2026-04-11T09:42:12Z</time></trkpt><trkpt lat="42.25152542548736" lon="12.100378696175005"><ele>439.0</ele><time>2026-04-11T09:42:13Z</time></trkpt><trkpt lat="42.25149533923132" lon="12.100625883664772"><ele>440.0</ele><time>2026-04-11T09:42:14Z</time></trkpt><trkpt lat="42.25140925079828" lon="12.100866447157784"><ele>441.0</ele><time>2026-04-11T09:42:15Z</time></trkpt><trkpt lat="42.25133516012001" lon="12.10111875551765"><ele>440.25</ele><time>2026-04-11T09:42:16Z</time></trkpt><trkpt lat="42.251250555001214" lon="12.101329882699366"><ele>439.5</ele><time>2026-04-11T09:42:17Z</time></trkpt><trkpt lat="42.25117283626619" lon="12.101500878413077"><ele>438.75</ele><time>2026-04-11T09:42:18Z</time></trkpt><trkpt lat="42.251090286192884" lon="12.101606573292818"><ele>438.0</ele><time>2026-04-11T09:42:19Z</time></trkpt><trkpt lat="42.25096859185334" lon="12.101616832653628"><ele>437.0</ele><time>2026-04-11T09:42:20Z</time></trkpt><trkpt lat="42.250850836086094" lon="12.101565031270624"><ele>436.0</ele><time>2026-04-11T09:42:21Z</time></trkpt><trkpt lat="42.250735483022545" lon="12.101417005514975"><ele>435.0</ele><time>2026-04-11T09:42:22Z</time></trkpt><trkpt lat="42.25058882472176" lon="12.101286517583883"><ele>435.0</ele><time>2026-04-11T09:42:23Z</time></trkpt><trkpt lat="42.25044142472189" lon="12.101111397973323"><ele>435.0</ele><time>2026-04-11T09:42:24Z</time></trkpt><trkpt lat="42.2502633405087" lon="12.10094530706803"><ele>435.0</ele><time>2026-04-11T09:42:25Z</time></trkpt><trkpt lat="42.25006970505869" lon="12.100769105833551"><ele>430.5</ele><time>2026-04-11T09:42:26Z</time></trkpt><trkpt lat="42.24986875159757" lon="12.100586863988084"><ele>426.0</ele><time>2026-04-11T09:42:27Z</time></trkpt><trkpt lat="42.24967543689364" lon="12.100409996391056"><ele>426.0</ele><time>2026-04-11T09:42:28Z</time></trkpt><trkpt lat="42.24948243021732" lon="12.100221575382728"><ele>426.0</ele><time>2026-04-11T09:42:29Z</time></trkpt><trkpt lat="42.24928543555791" lon="12.100023906129348"><ele>426.0</ele><time>2026-04-11T09:42:30Z</time></trkpt><trkpt lat="42.249089100776686" lon="12.099826221754949"><ele>426.0</ele><time>2026-04-11T09:42:31Z</time></trkpt><trkpt lat="42.24892147032655" lon="12.099641092939425"><ele>426.0</ele><time>2026-04-11T09:42:32Z</time></trkpt><trkpt lat="42.248785621493234" lon="12.099430620091484"><ele>426.0</ele><time>2026-04-11T09:42:33Z</time></trkpt><trkpt lat="42.2486740842449" lon="12.099231773389054"><ele>426.0</ele><time>2026-04-11T09:42:34Z</time></trkpt><trkpt lat="42.24857770359032" lon="12.099063069619067"><ele>425.0</ele><time>2026-04-11T09:42:35Z</time></trkpt><trkpt lat="42.24846220180692" lon="12.098916020375475"><ele>424.0</ele><time>2026-04-11T09:42:36Z</time></trkpt><trkpt lat="42.248310085450385" lon="12.098790107116605"><ele>423.0</ele><time>2026-04-11T09:42:37Z</time></trkpt><trkpt lat="42.24810413823314" lon="12.098727869363215"><ele>423.0</ele><time>2026-04-11T09:42:38Z</time></trkpt><trkpt lat="42.24789350732995" lon="12.09864458883791"><ele>423.0</ele><time>2026-04-11T09:42:39Z</time></trkpt><trkpt lat="42.247681471350184" lon="12.098554201225204"><ele>423.0</ele><time>2026-04-11T09:42:40Z</time></trkpt><trkpt lat="42.24747266910425" lon="12.0984604690399"><ele>424.0</ele><time>2026-04-11T09:42:41Z</time></trkpt><trkpt lat="42.2472616001989" lon="12.098361928088194"><ele>425.0</ele><time>2026-04-11T09:42:42Z</time></trkpt><trkpt lat="42.24706243115334" lon="12.098269713484603"><ele>426.0</ele><time>2026-04-11T09:42:43Z</time></trkpt><trkpt lat="42.24689451114284" lon="12.098173767759667"><ele>426.0</ele><time>2026-04-11T09:42:44Z</time></trkpt><trkpt lat="42.24674272489817" lon="12.098084351853284"><ele>426.0</ele><time>2026-04-11T09:42:45Z</time></trkpt><trkpt lat="42.24661198773707" lon="12.09798159502997"><ele>426.0</ele><time>2026-04-11T09:42:46Z</time></trkpt><trkpt lat="42.246513232380046" lon="12.097852902619191"><ele>426.25</ele><time>2026-04-11T09:42:47Z</time></trkpt><trkpt lat="42.24644185939566" lon="12.097678365126725"><ele>426.5</ele><time>2026-04-11T09:42:48Z</time></trkpt><trkpt lat="42.246398124700164" lon="12.097481019938744"><ele>426.75</ele><time>2026-04-11T09:42:49Z</time></trkpt><trkpt lat="42.246348356616004" lon="12.097292222962988"><ele>427.0</ele><time>2026-04-11T09:42:50Z</time></trkpt><trkpt lat="42.24626026761802" lon="12.097166154047626"><ele>425.5</ele><time>2026-04-11T09:42:51Z</time></trkpt><trkpt lat="42.246143124523655" lon="12.097080798365969"><ele>424.0</ele><time>2026-04-11T09:42:52Z</time></trkpt><trkpt lat="42.24601063694248" lon="12.097047695232533"><ele>422.5</ele><time>2026-04-11T09:42:53Z</time></trkpt><trkpt lat="42.24586425397367" lon="12.097126033146793"><ele>421.0</ele><time>2026-04-11T09:42:54Z</time></trkpt><trkpt lat="42.24571306603761" lon="12.097224893485619"><ele>420.0</ele><time>2026-04-11T09:42:55Z</time></trkpt><trkpt lat="42.245554613607645" lon="12.09733780760436"><ele>419.0</ele><time>2026-04-11T09:42:56Z</time></trkpt><trkpt lat="42.24537026798" lon="12.097415134886214"><ele>418.0</ele><time>2026-04-11T09:42:57Z</time></trkpt><trkpt lat="42.24517427004422" lon="12.097474487306274"><ele>420.6666666666667</ele><time>2026-04-11T09:42:58Z</time></trkpt><trkpt lat="42.244978531463424" lon="12.097496451977191"><ele>423.33333333333337</ele><time>2026-04-11T09:42:59Z</time></trkpt><trkpt lat="42.244768108983614" lon="12.09749947751912"><ele>426.0</ele><time>2026-04-11T09:43:00Z</time></trkpt><trkpt lat="42.2445400910796" lon="12.097489359992846"><ele>426.0</ele><time>2026-04-11T09:43:01Z</time></trkpt><trkpt lat="42.244299312479995" lon="12.097449534462612"><ele>426.0</ele><time>2026-04-11T09:43:02Z</time></trkpt><trkpt lat="42.24406875155563" lon="12.097375634556911"><ele>422.5</ele><time>2026-04-11T09:43:03Z</time></trkpt><trkpt lat="42.24383778316131" lon="12.09731952463645"><ele>419.0</ele><time>2026-04-11T09:43:04Z</time></trkpt><trkpt lat="42.24361527528141" lon="12.097244123552366"><ele>419.0</ele><time>2026-04-11T09:43:05Z</time></trkpt><trkpt lat="42.24341177820076" lon="12.097168655649114"><ele>419.0</ele><time>2026-04-11T09:43:06Z</time></trkpt><trkpt lat="42.2432323502443" lon="12.097050244543839"><ele>419.0</ele><time>2026-04-11T09:43:07Z</time></trkpt><trkpt lat="42.24306653165174" lon="12.096937421393946"><ele>421.0</ele><time>2026-04-11T09:43:08Z</time></trkpt><trkpt lat="42.24293013753374" lon="12.096841458867617"><ele>423.0</ele><time>2026-04-11T09:43:09Z</time></trkpt><trkpt lat="42.24279942479974" lon="12.096751502547981"><ele>425.0</ele><time>2026-04-11T09:43:10Z</time></trkpt><trkpt lat="42.24267976390718" lon="12.096686250196823"><ele>427.0</ele><time>2026-04-11T09:43:11Z</time></trkpt><trkpt lat="42.242576651232504" lon="12.096602728808294"><ele>424.75</ele><time>2026-04-11T09:43:12Z</time></trkpt><trkpt lat="42.24246709896721" lon="12.096502121311898"><ele>422.5</ele><time>2026-04-11T09:43:13Z</time></trkpt><trkpt lat="42.242390337211525" lon="12.096351337566544"><ele>420.25</ele><time>2026-04-11T09:43:14Z</time></trkpt><trkpt lat="42.242345367418864" lon="12.096172030355556"><ele>418.0</ele><time>2026-04-11T09:43:15Z</time></trkpt><trkpt lat="42.24231118564372" lon="12.095971143920265"><ele>416.33333333333337</ele><time>2026-04-11T09:43:16Z</time></trkpt><trkpt lat="42.242328202932" lon="12.09574324252915"><ele>414.66666666666663</ele><time>2026-04-11T09:43:17Z</time></trkpt><trkpt lat="42.24232699468243" lon="12.09550755085935"><ele>413.0</ele><time>2026-04-11T09:43:18Z</time></trkpt><trkpt lat="42.24234869581064" lon="12.095288429802759"><ele>413.0</ele><time>2026-04-11T09:43:19Z</time></trkpt><trkpt lat="42.242370843870475" lon="12.095075507446554"><ele>413.0</ele><time>2026-04-11T09:43:20Z</time></trkpt><trkpt lat="42.24240057835128" lon="12.094872179315635"><ele>413.0</ele><time>2026-04-11T09:43:21Z</time></trkpt><trkpt lat="42.24244884538635" lon="12.094675086758688"><ele>411.3333333333333</ele><time>2026-04-11T09:43:22Z</time></trkpt><trkpt lat="42.24251125390951" lon="12.094467106164494"><ele>409.66666666666663</ele><time>2026-04-11T09:43:23Z</time></trkpt><trkpt lat="42.24257581962264" lon="12.094255328790725"><ele>408.0</ele><time>2026-04-11T09:43:24Z</time></trkpt><trkpt lat="42.24262494487079" lon="12.094048908828208"><ele>407.66666666666663</ele><time>2026-04-11T09:43:25Z</time></trkpt><trkpt lat="42.24265917923827" lon="12.093830155352167"><ele>407.3333333333333</ele><time>2026-04-11T09:43:26Z</time></trkpt><trkpt lat="42.242674270764" lon="12.09358436208694"><ele>407.0</ele><time>2026-04-11T09:43:27Z</time></trkpt><trkpt lat="42.24267020738517" lon="12.093291851439766"><ele>406.0</ele><time>2026-04-11T09:43:28Z</time></trkpt><trkpt lat="42.24266795762806" lon="12.09296143372741"><ele>405.0</ele><time>2026-04-11T09:43:29Z</time></trkpt><trkpt lat="42.242675642221954" lon="12.092608792317689"><ele>405.0</ele><time>2026-04-11T09:43:30Z</time></trkpt><trkpt lat="42.24268213645472" lon="12.092244931195637"><ele>405.0</ele><time>2026-04-11T09:43:31Z</time></trkpt><trkpt lat="42.24266959407605" lon="12.09188715023502"><ele>406.5</ele><time>2026-04-11T09:43:32Z</time></trkpt><trkpt lat="42.24265542796921" lon="12.09156407224723"><ele>408.0</ele><time>2026-04-11T09:43:33Z</time></trkpt><trkpt lat="42.24264304768449" lon="12.091263667086121"><ele>408.0</ele><time>2026-04-11T09:43:34Z</time></trkpt><trkpt lat="42.242627983090095" lon="12.090988361282072"><ele>408.0</ele><time>2026-04-11T09:43:35Z</time></trkpt><trkpt lat="42.24261472761962" lon="12.0907248640973"><ele>408.0</ele><time>2026-04-11T09:43:36Z</time></trkpt><trkpt lat="42.2426060234811" lon="12.090501370404084"><ele>408.0</ele><time>2026-04-11T09:43:37Z</time></trkpt><trkpt lat="42.24259898762336" lon="12.090315157087053"><ele>408.0</ele><time>2026-04-11T09:43:38Z</time></trkpt><trkpt lat="42.24259008898551" lon="12.090145836516305"><ele>408.0</ele><time>2026-04-11T09:43:39Z</time></trkpt><trkpt lat="42.24257632284501" lon="12.089980406215938"><ele>408.0</ele><time>2026-04-11T09:43:40Z</time></trkpt><trkpt lat="42.242561535987974" lon="12.08981250334011"><ele>408.0</ele><time>2026-04-11T09:43:41Z</time></trkpt><trkpt lat="42.24254072245729" lon="12.089640090984144"><ele>408.0</ele><time>2026-04-11T09:43:42Z</time></trkpt><trkpt lat="42.24250496836915" lon="12.089426530058976"><ele>408.0</ele><time>2026-04-11T09:43:43Z</time></trkpt><trkpt lat="42.24247179560877" lon="12.089193406117346"><ele>407.75</ele><time>2026-04-11T09:43:44Z</time></trkpt><trkpt lat="42.2424323012087" lon="12.08897884117578"><ele>407.5</ele><time>2026-04-11T09:43:45Z</time></trkpt><trkpt lat="42.24241204661101" lon="12.088801505782707"><ele>407.25</ele><time>2026-04-11T09:43:46Z</time></trkpt><trkpt lat="42.242378728031426" lon="12.08865097992164"><ele>407.0</ele><time>2026-04-11T09:43:47Z</time></trkpt><trkpt lat="42.24234346976032" lon="12.08851770056505"><ele>407.0</ele><time>2026-04-11T09:43:48Z</time></trkpt><trkpt lat="42.24231517895861" lon="12.08839616714606"><ele>407.0</ele><time>2026-04-11T09:43:49Z</time></trkpt><trkpt lat="42.242279053133196" lon="12.08828241667112"><ele>407.0</ele><time>2026-04-11T09:43:50Z</time></trkpt><trkpt lat="42.24224354674292" lon="12.088185815429682"><ele>407.0</ele><time>2026-04-11T09:43:51Z</time></trkpt><trkpt lat="42.24220316462393" lon="12.088103090057803"><ele>407.0</ele><time>2026-04-11T09:43:52Z</time></trkpt><trkpt lat="42.24213204032566" lon="12.087977664772943"><ele>407.0</ele><time>2026-04-11T09:43:54Z</time></trkpt><trkpt lat="42.2420418303044" lon="12.087928608590053"><ele>407.0</ele><time>2026-04-11T09:43:57Z</time></trkpt><trkpt lat="42.2419499275938" lon="12.088023093685582"><ele>407.0</ele><time>2026-04-11T09:43:58Z</time></trkpt><trkpt lat="42.24184870721848" lon="12.088124188838309"><ele>407.0</ele><time>2026-04-11T09:43:59Z</time></trkpt><trkpt lat="42.24172160648185" lon="12.088245498455207"><ele>407.0</ele><time>2026-04-11T09:44:00Z</time></trkpt><trkpt lat="42.24156730349206" lon="12.0883899722121"><ele>407.0</ele><time>2026-04-11T09:44:01Z</time></trkpt><trkpt lat="42.24140791894854" lon="12.08853831802235"><ele>407.0</ele><time>2026-04-11T09:44:02Z</time></trkpt><trkpt lat="42.241229242084835" lon="12.088704619828363"><ele>406.0</ele><time>2026-04-11T09:44:03Z</time></trkpt><trkpt lat="42.24106588535959" lon="12.088883143549522"><ele>405.0</ele><time>2026-04-11T09:44:04Z</time></trkpt><trkpt lat="42.240896386471285" lon="12.08901285024223"><ele>404.0</ele><time>2026-04-11T09:44:05Z</time></trkpt><trkpt lat="42.24074056446192" lon="12.089128208129571"><ele>405.0</ele><time>2026-04-11T09:44:06Z</time></trkpt><trkpt lat="42.24058018017005" lon="12.08917619465654"><ele>406.0</ele><time>2026-04-11T09:44:07Z</time></trkpt><trkpt lat="42.24041700696811" lon="12.089186327241313"><ele>407.0</ele><time>2026-04-11T09:44:08Z</time></trkpt><trkpt lat="42.24027768433141" lon="12.08920340119757"><ele>407.0</ele><time>2026-04-11T09:44:09Z</time></trkpt><trkpt lat="42.24013846258152" lon="12.089284007562707"><ele>407.0</ele><time>2026-04-11T09:44:10Z</time></trkpt><trkpt lat="42.24001691578873" lon="12.08938820514717"><ele>407.0</ele><time>2026-04-11T09:44:11Z</time></trkpt><trkpt lat="42.23991182276107" lon="12.089454549509684"><ele>407.0</ele><time>2026-04-11T09:44:12Z</time></trkpt><trkpt lat="42.23981254195809" lon="12.089525526008872"><ele>406.6</ele><time>2026-04-11T09:44:13Z</time></trkpt><trkpt lat="42.239724627797095" lon="12.089585440866692"><ele>406.20000000000005</ele><time>2026-04-11T09:44:14Z</time></trkpt><trkpt lat="42.23962450719196" lon="12.089618771022863"><ele>405.8</ele><time>2026-04-11T09:44:15Z</time></trkpt><trkpt lat="42.239518638786166" lon="12.089611030908264"><ele>405.4</ele><time>2026-04-11T09:44:16Z</time></trkpt><trkpt lat="42.239380788267404" lon="12.089592599364105"><ele>405.0</ele><time>2026-04-11T09:44:17Z</time></trkpt><trkpt lat="42.239192880977555" lon="12.089573994131458"><ele>405.0</ele><time>2026-04-11T09:44:18Z</time></trkpt><trkpt lat="42.2389864419501" lon="12.089555452666765"><ele>405.0</ele><time>2026-04-11T09:44:19Z</time></trkpt><trkpt lat="42.23878455240693" lon="12.089539738114656"><ele>405.0</ele><time>2026-04-11T09:44:20Z</time></trkpt><trkpt lat="42.23857470737846" lon="12.089545121927596"><ele>404.0</ele><time>2026-04-11T09:44:21Z</time></trkpt><trkpt lat="42.2383824919003" lon="12.089541218577716"><ele>403.0</ele><time>2026-04-11T09:44:22Z</time></trkpt><trkpt lat="42.23821934390354" lon="12.089531649760376"><ele>402.0</ele><time>2026-04-11T09:44:23Z</time></trkpt><trkpt lat="42.23807201819156" lon="12.089479100407065"><ele>400.33333333333337</ele><time>2026-04-11T09:44:24Z</time></trkpt><trkpt lat="42.23792620247373" lon="12.089373350815018"><ele>398.6666666666667</ele><time>2026-04-11T09:44:25Z</time></trkpt><trkpt lat="42.23778188095339" lon="12.08921358649051"><ele>397.0</ele><time>2026-04-11T09:44:26Z</time></trkpt><trkpt lat="42.23763376754214" lon="12.089037862487132"><ele>397.0</ele><time>2026-04-11T09:44:27Z</time></trkpt><trkpt lat="42.23746763980257" lon="12.088863548512998"><ele>397.0</ele><time>2026-04-11T09:44:28Z</time></trkpt><trkpt lat="42.23728596368383" lon="12.088679559225895"><ele>397.0</ele><time>2026-04-11T09:44:29Z</time></trkpt><trkpt lat="42.23710837321563" lon="12.088478943110434"><ele>395.6666666666667</ele><time>2026-04-11T09:44:30Z</time></trkpt><trkpt lat="42.23695512164875" lon="12.08831116253257"><ele>394.33333333333337</ele><time>2026-04-11T09:44:31Z</time></trkpt><trkpt lat="42.23682515028937" lon="12.088189296786847"><ele>393.0</ele><time>2026-04-11T09:44:32Z</time></trkpt><trkpt lat="42.23668377012557" lon="12.088089846257226"><ele>393.0</ele><time>2026-04-11T09:44:33Z</time></trkpt><trkpt lat="42.23651665893742" lon="12.088043951624096"><ele>393.0</ele><time>2026-04-11T09:44:34Z</time></trkpt><trkpt lat="42.23632917522572" lon="12.08804522906886"><ele>393.0</ele><time>2026-04-11T09:44:35Z</time></trkpt><trkpt lat="42.23611903896054" lon="12.088075966315088"><ele>391.5</ele><time>2026-04-11T09:44:36Z</time></trkpt><trkpt lat="42.235888359274334" lon="12.088137913628618"><ele>390.0</ele><time>2026-04-11T09:44:37Z</time></trkpt><trkpt lat="42.23563943173194" lon="12.0882099239227"><ele>388.0</ele><time>2026-04-11T09:44:38Z</time></trkpt><trkpt lat="42.235379229936484" lon="12.08827776704572"><ele>386.0</ele><time>2026-04-11T09:44:39Z</time></trkpt><trkpt lat="42.235134369595585" lon="12.088356424062264"><ele>386.0</ele><time>2026-04-11T09:44:40Z</time></trkpt><trkpt lat="42.23489527296582" lon="12.088428690709927"><ele>386.0</ele><time>2026-04-11T09:44:41Z</time></trkpt><trkpt lat="42.23466808115162" lon="12.088490706493241"><ele>385.0</ele><time>2026-04-11T09:44:42Z</time></trkpt><trkpt lat="42.234462180968656" lon="12.08855275333037"><ele>384.0</ele><time>2026-04-11T09:44:43Z</time></trkpt><trkpt lat="42.2342828764903" lon="12.08860277927386"><ele>383.0</ele><time>2026-04-11T09:44:44Z</time></trkpt><trkpt lat="42.23411453628404" lon="12.088644350940845"><ele>382.5</ele><time>2026-04-11T09:44:45Z</time></trkpt><trkpt lat="42.23396469727342" lon="12.088674634381269"><ele>382.0</ele><time>2026-04-11T09:44:46Z</time></trkpt><trkpt lat="42.23382249598703" lon="12.08870689353583"><ele>381.5</ele><time>2026-04-11T09:44:47Z</time></trkpt><trkpt lat="42.23367517449346" lon="12.088751320638561"><ele>381.0</ele><time>2026-04-11T09:44:48Z</time></trkpt><trkpt lat="42.23353064794968" lon="12.088796116489457"><ele>381.0</ele><time>2026-04-11T09:44:49Z</time></trkpt><trkpt lat="42.2333981748759" lon="12.088861081306662"><ele>381.0</ele><time>2026-04-11T09:44:50Z</time></trkpt><trkpt lat="42.23327716975682" lon="12.088962047463244"><ele>381.0</ele><time>2026-04-11T09:44:51Z</time></trkpt><trkpt lat="42.23317734449569" lon="12.089089986380154"><ele>381.0</ele><time>2026-04-11T09:44:52Z</time></trkpt><trkpt lat="42.23309804124544" lon="12.089267513400072"><ele>382.66666666666663</ele><time>2026-04-11T09:44:53Z</time></trkpt><trkpt lat="42.23297575117081" lon="12.089523029007951"><ele>384.3333333333333</ele><time>2026-04-11T09:44:54Z</time></trkpt><trkpt lat="42.23288065459115" lon="12.089709961834696"><ele>386.0</ele><time>2026-04-11T09:44:55Z</time></trkpt><trkpt lat="42.23279300720612" lon="12.089847827093063"><ele>384.5</ele><time>2026-04-11T09:44:56Z</time></trkpt><trkpt lat="42.23270963841768" lon="12.089984453266458"><ele>383.0</ele><time>2026-04-11T09:44:57Z</time></trkpt><trkpt lat="42.23260281167289" lon="12.090076870199715"><ele>381.5</ele><time>2026-04-11T09:44:58Z</time></trkpt><trkpt lat="42.232499238403584" lon="12.090173377263612"><ele>380.0</ele><time>2026-04-11T09:44:59Z</time></trkpt><trkpt lat="42.232353369234644" lon="12.09029414158554"><ele>381.6666666666667</ele><time>2026-04-11T09:45:00Z</time></trkpt><trkpt lat="42.23216589297433" lon="12.090420755141016"><ele>383.33333333333337</ele><time>2026-04-11T09:45:01Z</time></trkpt><trkpt lat="42.23196256609653" lon="12.090591627192515"><ele>385.0</ele><time>2026-04-11T09:45:02Z</time></trkpt><trkpt lat="42.23173477577105" lon="12.090756239441212"><ele>381.5</ele><time>2026-04-11T09:45:03Z</time></trkpt><trkpt lat="42.23152171295244" lon="12.090938336478018"><ele>378.0</ele><time>2026-04-11T09:45:04Z</time></trkpt><trkpt lat="42.23133124177538" lon="12.091098982730427"><ele>378.0</ele><time>2026-04-11T09:45:05Z</time></trkpt><trkpt lat="42.231171315122396" lon="12.091213862819036"><ele>378.0</ele><time>2026-04-11T09:45:06Z</time></trkpt><trkpt lat="42.23102956879653" lon="12.091300674878871"><ele>378.0</ele><time>2026-04-11T09:45:07Z</time></trkpt><trkpt lat="42.23088215105335" lon="12.091329566471993"><ele>378.0</ele><time>2026-04-11T09:45:08Z</time></trkpt><trkpt lat="42.23073156714895" lon="12.091248627803042"><ele>378.0</ele><time>2026-04-11T09:45:09Z</time></trkpt><trkpt lat="42.23059310726203" lon="12.091158074008478"><ele>378.0</ele><time>2026-04-11T09:45:10Z</time></trkpt><trkpt lat="42.23045402177279" lon="12.090995828016968"><ele>378.3333333333333</ele><time>2026-04-11T09:45:11Z</time></trkpt><trkpt lat="42.23029878921102" lon="12.09078149593616"><ele>378.66666666666663</ele><time>2026-04-11T09:45:12Z</time></trkpt><trkpt lat="42.23014157095884" lon="12.090573777039667"><ele>379.0</ele><time>2026-04-11T09:45:13Z</time></trkpt><trkpt lat="42.22996727845339" lon="12.090345516063955"><ele>384.0</ele><time>2026-04-11T09:45:14Z</time></trkpt><trkpt lat="42.22978083514793" lon="12.090126455140682"><ele>389.0</ele><time>2026-04-11T09:45:15Z</time></trkpt><trkpt lat="42.2295862243073" lon="12.08989253793539"><ele>389.5</ele><time>2026-04-11T09:45:16Z</time></trkpt><trkpt lat="42.22940027869294" lon="12.089632448345156"><ele>390.0</ele><time>2026-04-11T09:45:17Z</time></trkpt><trkpt lat="42.229217106567454" lon="12.0893618816507"><ele>390.5</ele><time>2026-04-11T09:45:18Z</time></trkpt><trkpt lat="42.229029127847774" lon="12.089085079292342"><ele>391.0</ele><time>2026-04-11T09:45:19Z</time></trkpt><trkpt lat="42.228849911007025" lon="12.088817954259074"><ele>394.0</ele><time>2026-04-11T09:45:20Z</time></trkpt><trkpt lat="42.22868884098486" lon="12.08857916283173"><ele>397.0</ele><time>2026-04-11T09:45:21Z</time></trkpt><trkpt lat="42.228550627921194" lon="12.088376692064644"><ele>400.0</ele><time>2026-04-11T09:45:22Z</time></trkpt><trkpt lat="42.2284115589813" lon="12.088216924591775"><ele>401.33333333333337</ele><time>2026-04-11T09:45:23Z</time></trkpt><trkpt lat="42.228251002392334" lon="12.088103751356156"><ele>402.66666666666663</ele><time>2026-04-11T09:45:24Z</time></trkpt><trkpt lat="42.22804897093694" lon="12.088012936420979"><ele>404.0</ele><time>2026-04-11T09:45:25Z</time></trkpt><trkpt lat="42.22783006180693" lon="12.087966931103265"><ele>406.5</ele><time>2026-04-11T09:45:26Z</time></trkpt><trkpt lat="42.22759635184116" lon="12.087952501749395"><ele>409.0</ele><time>2026-04-11T09:45:27Z</time></trkpt><trkpt lat="42.22736493271858" lon="12.08794396847935"><ele>409.33333333333337</ele><time>2026-04-11T09:45:28Z</time></trkpt><trkpt lat="42.22715896711296" lon="12.087922312803826"><ele>409.66666666666663</ele><time>2026-04-11T09:45:29Z</time></trkpt><trkpt lat="42.226962402155564" lon="12.087907972877971"><ele>410.0</ele><time>2026-04-11T09:45:30Z</time></trkpt><trkpt lat="42.22675879096996" lon="12.087898932242117"><ele>410.0</ele><time>2026-04-11T09:45:31Z</time></trkpt><trkpt lat="42.22655316892182" lon="12.087891746835632"><ele>410.0</ele><time>2026-04-11T09:45:32Z</time></trkpt><trkpt lat="42.226343300381195" lon="12.087882839161662"><ele>410.0</ele><time>2026-04-11T09:45:33Z</time></trkpt><trkpt lat="42.22612952318296" lon="12.087865992392096"><ele>410.3333333333333</ele><time>2026-04-11T09:45:34Z</time></trkpt><trkpt lat="42.225913138190975" lon="12.087847534323762"><ele>410.66666666666663</ele><time>2026-04-11T09:45:35Z</time></trkpt><trkpt lat="42.225688314439715" lon="12.087833339855722"><ele>411.0</ele><time>2026-04-11T09:45:36Z</time></trkpt><trkpt lat="42.22545933910877" lon="12.087816758111382"><ele>409.0</ele><time>2026-04-11T09:45:37Z</time></trkpt><trkpt lat="42.22521943776364" lon="12.087795203552806"><ele>407.0</ele><time>2026-04-11T09:45:38Z</time></trkpt><trkpt lat="42.22499371893657" lon="12.087772933220203"><ele>408.0</ele><time>2026-04-11T09:45:39Z</time></trkpt><trkpt lat="42.224784210187956" lon="12.087749335532504"><ele>409.0</ele><time>2026-04-11T09:45:40Z</time></trkpt><trkpt lat="42.224588213813085" lon="12.087737182714195"><ele>410.0</ele><time>2026-04-11T09:45:41Z</time></trkpt><trkpt lat="42.22439959683824" lon="12.087764288074824"><ele>410.0</ele><time>2026-04-11T09:45:42Z</time></trkpt><trkpt lat="42.22422760939867" lon="12.087854871965636"><ele>410.0</ele><time>2026-04-11T09:45:43Z</time></trkpt><trkpt lat="42.224058780773746" lon="12.088017521519532"><ele>410.0</ele><time>2026-04-11T09:45:44Z</time></trkpt><trkpt lat="42.223905931360505" lon="12.088205833536666"><ele>408.0</ele><time>2026-04-11T09:45:45Z</time></trkpt><trkpt lat="42.223764798511354" lon="12.088437642220551"><ele>406.0</ele><time>2026-04-11T09:45:46Z</time></trkpt><trkpt lat="42.223646664702706" lon="12.088709012047033"><ele>406.0</ele><time>2026-04-11T09:45:47Z</time></trkpt><trkpt lat="42.22353792680523" lon="12.089003109849127"><ele>406.0</ele><time>2026-04-11T09:45:48Z</time></trkpt><trkpt lat="42.22343606403655" lon="12.089286294968982"><ele>404.6666666666667</ele><time>2026-04-11T09:45:49Z</time></trkpt><trkpt lat="42.22333861187763" lon="12.089555157112605"><ele>403.33333333333337</ele><time>2026-04-11T09:45:50Z</time></trkpt><trkpt lat="42.223245630949826" lon="12.089808513896225"><ele>402.0</ele><time>2026-04-11T09:45:51Z</time></trkpt><trkpt lat="42.22315549376309" lon="12.09004793442975"><ele>401.66666666666663</ele><time>2026-04-11T09:45:52Z</time></trkpt><trkpt lat="42.223072644882244" lon="12.090274866069974"><ele>401.3333333333333</ele><time>2026-04-11T09:45:53Z</time></trkpt><trkpt lat="42.22299560960088" lon="12.09048922965734"><ele>401.0</ele><time>2026-04-11T09:45:54Z</time></trkpt><trkpt lat="42.22291593787731" lon="12.090695053227257"><ele>401.0</ele><time>2026-04-11T09:45:55Z</time></trkpt><trkpt lat="42.22283867192009" lon="12.09088463065539"><ele>401.0</ele><time>2026-04-11T09:45:56Z</time></trkpt><trkpt lat="42.22276578764309" lon="12.091078384538962"><ele>401.0</ele><time>2026-04-11T09:45:57Z</time></trkpt><trkpt lat="42.222696688512485" lon="12.091272781590682"><ele>401.0</ele><time>2026-04-11T09:45:58Z</time></trkpt><trkpt lat="42.22262645653355" lon="12.091459839922026"><ele>401.0</ele><time>2026-04-11T09:45:59Z</time></trkpt><trkpt lat="42.222557835438145" lon="12.09164807198759"><ele>401.0</ele><time>2026-04-11T09:46:00Z</time></trkpt><trkpt lat="42.222492221165616" lon="12.091833026074928"><ele>401.0</ele><time>2026-04-11T09:46:01Z</time></trkpt><trkpt lat="42.22242872528285" lon="12.092017671285273"><ele>401.0</ele><time>2026-04-11T09:46:02Z</time></trkpt><trkpt lat="42.2223642882432" lon="12.092203417988358"><ele>401.0</ele><time>2026-04-11T09:46:03Z</time></trkpt><trkpt lat="42.2222921838931" lon="12.092387517948639"><ele>400.75</ele><time>2026-04-11T09:46:04Z</time></trkpt><trkpt lat="42.22221507790676" lon="12.09256729109829"><ele>400.5</ele><time>2026-04-11T09:46:05Z</time></trkpt><trkpt lat="42.222135929685116" lon="12.09273685968457"><ele>400.25</ele><time>2026-04-11T09:46:06Z</time></trkpt><trkpt lat="42.22204455117224" lon="12.092883925731872"><ele>400.0</ele><time>2026-04-11T09:46:07Z</time></trkpt><trkpt lat="42.22194242234967" lon="12.093007464538605"><ele>400.0</ele><time>2026-04-11T09:46:08Z</time></trkpt><trkpt lat="42.22182335823816" lon="12.09311018122589"><ele>400.0</ele><time>2026-04-11T09:46:09Z</time></trkpt><trkpt lat="42.22168942289363" lon="12.09319873523397"><ele>400.0</ele><time>2026-04-11T09:46:10Z</time></trkpt><trkpt lat="42.221547902177036" lon="12.093272052881511"><ele>400.0</ele><time>2026-04-11T09:46:11Z</time></trkpt><trkpt lat="42.22139882674296" lon="12.093322004169261"><ele>400.0</ele><time>2026-04-11T09:46:12Z</time></trkpt><trkpt lat="42.221260391044495" lon="12.093372401737135"><ele>400.0</ele><time>2026-04-11T09:46:13Z</time></trkpt><trkpt lat="42.22113160333508" lon="12.093416273926707"><ele>400.0</ele><time>2026-04-11T09:46:14Z</time></trkpt><trkpt lat="42.22100306640882" lon="12.09344784666787"><ele>400.0</ele><time>2026-04-11T09:46:15Z</time></trkpt><trkpt lat="42.220865058812926" lon="12.093496030205658"><ele>400.0</ele><time>2026-04-11T09:46:16Z</time></trkpt><trkpt lat="42.22072621744034" lon="12.093556406145805"><ele>400.0</ele><time>2026-04-11T09:46:17Z</time></trkpt><trkpt lat="42.22057826484933" lon="12.0936157768398"><ele>400.0</ele><time>2026-04-11T09:46:18Z</time></trkpt><trkpt lat="42.220428672193385" lon="12.093676933767446"><ele>399.75</ele><time>2026-04-11T09:46:19Z</time></trkpt><trkpt lat="42.22028848399198" lon="12.093738563322166"><ele>399.5</ele><time>2026-04-11T09:46:20Z</time></trkpt><trkpt lat="42.22015054409979" lon="12.093792635513593"><ele>399.25</ele><time>2026-04-11T09:46:21Z</time></trkpt><trkpt lat="42.220019150738736" lon="12.093843457912097"><ele>399.0</ele><time>2026-04-11T09:46:22Z</time></trkpt><trkpt lat="42.219890470907586" lon="12.093893221530386"><ele>399.0</ele><time>2026-04-11T09:46:23Z</time></trkpt><trkpt lat="42.21976902833571" lon="12.093941848759421"><ele>399.0</ele><time>2026-04-11T09:46:24Z</time></trkpt><trkpt lat="42.21965917227964" lon="12.09398598259628"><ele>399.0</ele><time>2026-04-11T09:46:25Z</time></trkpt><trkpt lat="42.219558846602" lon="12.094023449844212"><ele>399.0</ele><time>2026-04-11T09:46:26Z</time></trkpt><trkpt lat="42.21946387403422" lon="12.094063742723405"><ele>399.0</ele><time>2026-04-11T09:46:27Z</time></trkpt><trkpt lat="42.21936890299846" lon="12.094098950206984"><ele>399.0</ele><time>2026-04-11T09:46:28Z</time></trkpt><trkpt lat="42.2192596300859" lon="12.094146171782699"><ele>399.0</ele><time>2026-04-11T09:46:29Z</time></trkpt><trkpt lat="42.219136465337726" lon="12.094194526151716"><ele>399.0</ele><time>2026-04-11T09:46:30Z</time></trkpt><trkpt lat="42.21901298299506" lon="12.094231558544921"><ele>399.0</ele><time>2026-04-11T09:46:31Z</time></trkpt><trkpt lat="42.21890387442338" lon="12.094266409278076"><ele>398.5</ele><time>2026-04-11T09:46:32Z</time></trkpt><trkpt lat="42.218805519719055" lon="12.094317674243296"><ele>398.0</ele><time>2026-04-11T09:46:33Z</time></trkpt><trkpt lat="42.218696533220026" lon="12.094397893341458"><ele>397.5</ele><time>2026-04-11T09:46:34Z</time></trkpt><trkpt lat="42.21854777366354" lon="12.09444601567063"><ele>397.0</ele><time>2026-04-11T09:46:35Z</time></trkpt><trkpt lat="42.21838805506971" lon="12.094491393047516"><ele>397.0</ele><time>2026-04-11T09:46:36Z</time></trkpt><trkpt lat="42.21824195069792" lon="12.094522886452689"><ele>397.0</ele><time>2026-04-11T09:46:37Z</time></trkpt><trkpt lat="42.2181426250418" lon="12.094573174499857"><ele>397.0</ele><time>2026-04-11T09:46:38Z</time></trkpt><trkpt lat="42.21805158220665" lon="12.094606420122771"><ele>397.0</ele><time>2026-04-11T09:46:39Z</time></trkpt><trkpt lat="42.217950981783616" lon="12.094654250372646"><ele>396.25</ele><time>2026-04-11T09:46:40Z</time></trkpt><trkpt lat="42.217823613902894" lon="12.09470784435335"><ele>395.5</ele><time>2026-04-11T09:46:41Z</time></trkpt><trkpt lat="42.21768469608837" lon="12.094767209754973"><ele>394.75</ele><time>2026-04-11T09:46:42Z</time></trkpt><trkpt lat="42.21755658358264" lon="12.094799323432852"><ele>394.0</ele><time>2026-04-11T09:46:43Z</time></trkpt><trkpt lat="42.21745580397029" lon="12.094845802320558"><ele>394.0</ele><time>2026-04-11T09:46:44Z</time></trkpt><trkpt lat="42.21735408523592" lon="12.094877163482439"><ele>394.0</ele><time>2026-04-11T09:46:45Z</time></trkpt><trkpt lat="42.21725829939036" lon="12.09491364636299"><ele>394.0</ele><time>2026-04-11T09:46:46Z</time></trkpt><trkpt lat="42.21717659908524" lon="12.094958585311506"><ele>394.0</ele><time>2026-04-11T09:46:47Z</time></trkpt><trkpt lat="42.21710385887908" lon="12.095020537171058"><ele>394.0</ele><time>2026-04-11T09:46:48Z</time></trkpt><trkpt lat="42.21703561822194" lon="12.095095811107964"><ele>392.6666666666667</ele><time>2026-04-11T09:46:49Z</time></trkpt><trkpt lat="42.21693388560316" lon="12.095225580897456"><ele>391.33333333333337</ele><time>2026-04-11T09:46:50Z</time></trkpt><trkpt lat="42.216837472367025" lon="12.095368936045142"><ele>390.0</ele><time>2026-04-11T09:46:51Z</time></trkpt><trkpt lat="42.21671437938673" lon="12.095550894130119"><ele>390.0</ele><time>2026-04-11T09:46:52Z</time></trkpt><trkpt lat="42.21657031139368" lon="12.095725443835944"><ele>390.0</ele><time>2026-04-11T09:46:53Z</time></trkpt><trkpt lat="42.2164643598288" lon="12.095901944406672"><ele>390.0</ele><time>2026-04-11T09:46:54Z</time></trkpt><trkpt lat="42.21637345107587" lon="12.096002980333548"><ele>388.75</ele><time>2026-04-11T09:46:55Z</time></trkpt><trkpt lat="42.21631485246768" lon="12.096114664224306"><ele>387.5</ele><time>2026-04-11T09:46:56Z</time></trkpt><trkpt lat="42.216294780361025" lon="12.096258645247119"><ele>386.25</ele><time>2026-04-11T09:46:57Z</time></trkpt><trkpt lat="42.21630708634885" lon="12.096439534933136"><ele>385.0</ele><time>2026-04-11T09:46:58Z</time></trkpt><trkpt lat="42.216358006425175" lon="12.096620038190684"><ele>382.4</ele><time>2026-04-11T09:46:59Z</time></trkpt><trkpt lat="42.2163893105278" lon="12.096761811720727"><ele>379.8</ele><time>2026-04-11T09:47:00Z</time></trkpt><trkpt lat="42.21637155771016" lon="12.096858194504204"><ele>377.20000000000005</ele><time>2026-04-11T09:47:01Z</time></trkpt><trkpt lat="42.21629514747607" lon="12.096942362562425"><ele>374.6</ele><time>2026-04-11T09:47:02Z</time></trkpt><trkpt lat="42.21619193981621" lon="12.096972475215862"><ele>372.0</ele><time>2026-04-11T09:47:03Z</time></trkpt><trkpt lat="42.216052405750496" lon="12.096910796818229"><ele>372.0</ele><time>2026-04-11T09:47:04Z</time></trkpt><trkpt lat="42.2159126423292" lon="12.096797462298262"><ele>372.0</ele><time>2026-04-11T09:47:05Z</time></trkpt><trkpt lat="42.21575665534824" lon="12.096617980085895"><ele>372.0</ele><time>2026-04-11T09:47:06Z</time></trkpt><trkpt lat="42.21564277554924" lon="12.096496778380192"><ele>370.8</ele><time>2026-04-11T09:47:07Z</time></trkpt><trkpt lat="42.21555145507912" lon="12.096427311937155"><ele>369.6</ele><time>2026-04-11T09:47:08Z</time></trkpt><trkpt lat="42.21546308553814" lon="12.096417474689346"><ele>368.40000000000003</ele><time>2026-04-11T09:47:09Z</time></trkpt><trkpt lat="42.21536738845577" lon="12.096444790214546"><ele>367.20000000000005</ele><time>2026-04-11T09:47:10Z</time></trkpt><trkpt lat="42.215264744261326" lon="12.096532088955136"><ele>366.0</ele><time>2026-04-11T09:47:11Z</time></trkpt><trkpt lat="42.21516885686795" lon="12.096708671475135"><ele>363.3333333333333</ele><time>2026-04-11T09:47:12Z</time></trkpt><trkpt lat="42.215079931516236" lon="12.096948832695576"><ele>360.66666666666663</ele><time>2026-04-11T09:47:13Z</time></trkpt><trkpt lat="42.21497387262718" lon="12.097174132550654"><ele>358.0</ele><time>2026-04-11T09:47:14Z</time></trkpt><trkpt lat="42.214861170546705" lon="12.097406685962268"><ele>356.25</ele><time>2026-04-11T09:47:15Z</time></trkpt><trkpt lat="42.21476065104093" lon="12.097613095432001"><ele>354.5</ele><time>2026-04-11T09:47:16Z</time></trkpt><trkpt lat="42.21467646780572" lon="12.09776757404291"><ele>352.75</ele><time>2026-04-11T09:47:17Z</time></trkpt><trkpt lat="42.21459422771274" lon="12.097879934221904"><ele>351.0</ele><time>2026-04-11T09:47:18Z</time></trkpt><trkpt lat="42.21446002460303" lon="12.097933206690696"><ele>351.0</ele><time>2026-04-11T09:47:19Z</time></trkpt><trkpt lat="42.21428004531136" lon="12.097949479939556"><ele>351.0</ele><time>2026-04-11T09:47:20Z</time></trkpt><trkpt lat="42.214067313030895" lon="12.098009953949656"><ele>351.0</ele><time>2026-04-11T09:47:21Z</time></trkpt><trkpt lat="42.213834125718" lon="12.0980414669176"><ele>351.0</ele><time>2026-04-11T09:47:22Z</time></trkpt><trkpt lat="42.21360385006518" lon="12.098115758218704"><ele>351.0</ele><time>2026-04-11T09:47:23Z</time></trkpt><trkpt lat="42.21339137318037" lon="12.098187211299164"><ele>351.0</ele><time>2026-04-11T09:47:24Z</time></trkpt><trkpt lat="42.21319369604101" lon="12.098244629838991"><ele>351.0</ele><time>2026-04-11T09:47:25Z</time></trkpt><trkpt lat="42.21301414850821" lon="12.098330338441768"><ele>351.0</ele><time>2026-04-11T09:47:26Z</time></trkpt><trkpt lat="42.21283622339784" lon="12.098445417746147"><ele>353.0</ele><time>2026-04-11T09:47:27Z</time></trkpt><trkpt lat="42.21265760808136" lon="12.0986104131385"><ele>355.0</ele><time>2026-04-11T09:47:28Z</time></trkpt><trkpt lat="42.21249748994688" lon="12.098818933786735"><ele>357.0</ele><time>2026-04-11T09:47:29Z</time></trkpt><trkpt lat="42.212366324574724" lon="12.099062501428735"><ele>349.5</ele><time>2026-04-11T09:47:30Z</time></trkpt><trkpt lat="42.21226362802954" lon="12.09933741601143"><ele>342.0</ele><time>2026-04-11T09:47:31Z</time></trkpt><trkpt lat="42.21215937391474" lon="12.09964905853297"><ele>342.0</ele><time>2026-04-11T09:47:32Z</time></trkpt><trkpt lat="42.2120510492603" lon="12.099971301285347"><ele>342.0</ele><time>2026-04-11T09:47:33Z</time></trkpt><trkpt lat="42.21192488059502" lon="12.10030376780322"><ele>342.0</ele><time>2026-04-11T09:47:34Z</time></trkpt><trkpt lat="42.211797116861476" lon="12.100641883405528"><ele>342.0</ele><time>2026-04-11T09:47:35Z</time></trkpt><trkpt lat="42.211666918815155" lon="12.10098695159903"><ele>343.5</ele><time>2026-04-11T09:47:36Z</time></trkpt><trkpt lat="42.211542239451305" lon="12.101330979008601"><ele>345.0</ele><time>2026-04-11T09:47:37Z</time></trkpt><trkpt lat="42.211416896988425" lon="12.101654833773516"><ele>357.0</ele><time>2026-04-11T09:47:38Z</time></trkpt><trkpt lat="42.211294482712944" lon="12.101983725417382"><ele>369.0</ele><time>2026-04-11T09:47:39Z</time></trkpt><trkpt lat="42.21117814995698" lon="12.102307961244149"><ele>372.5</ele><time>2026-04-11T09:47:40Z</time></trkpt><trkpt lat="42.2110460923054" lon="12.102588767091998"><ele>376.0</ele><time>2026-04-11T09:47:41Z</time></trkpt><trkpt lat="42.21090567557928" lon="12.102821865655343"><ele>376.0</ele><time>2026-04-11T09:47:42Z</time></trkpt><trkpt lat="42.210732400923504" lon="12.103036561617877"><ele>376.0</ele><time>2026-04-11T09:47:43Z</time></trkpt><trkpt lat="42.21052838163234" lon="12.10324290790568"><ele>382.0</ele><time>2026-04-11T09:47:44Z</time></trkpt><trkpt lat="42.210319802663356" lon="12.103447518836179"><ele>388.0</ele><time>2026-04-11T09:47:45Z</time></trkpt><trkpt lat="42.21013018758077" lon="12.103654427589529"><ele>388.0</ele><time>2026-04-11T09:47:46Z</time></trkpt><trkpt lat="42.20994467924406" lon="12.103820394211626"><ele>388.0</ele><time>2026-04-11T09:47:47Z</time></trkpt><trkpt lat="42.20976744676365" lon="12.103931555071515"><ele>388.0</ele><time>2026-04-11T09:47:48Z</time></trkpt><trkpt lat="42.20960339029466" lon="12.103950139101494"><ele>388.33333333333337</ele><time>2026-04-11T09:47:49Z</time></trkpt><trkpt lat="42.20946286069331" lon="12.103903231543176"><ele>388.66666666666663</ele><time>2026-04-11T09:47:50Z</time></trkpt><trkpt lat="42.209322467299494" lon="12.103814229058877"><ele>389.0</ele><time>2026-04-11T09:47:51Z</time></trkpt><trkpt lat="42.20919209861976" lon="12.103643283993515"><ele>389.0</ele><time>2026-04-11T09:47:52Z</time></trkpt><trkpt lat="42.20907069961275" lon="12.103431460458525"><ele>389.0</ele><time>2026-04-11T09:47:53Z</time></trkpt><trkpt lat="42.208906258315004" lon="12.10322540866068"><ele>389.0</ele><time>2026-04-11T09:47:54Z</time></trkpt><trkpt lat="42.20873929983418" lon="12.103070542769533"><ele>391.3333333333333</ele><time>2026-04-11T09:47:55Z</time></trkpt><trkpt lat="42.20854861714341" lon="12.102998926771296"><ele>393.66666666666663</ele><time>2026-04-11T09:47:56Z</time></trkpt><trkpt lat="42.208318227045595" lon="12.102974164945007"><ele>396.0</ele><time>2026-04-11T09:47:57Z</time></trkpt><trkpt lat="42.20806232261618" lon="12.102958897864426"><ele>397.33333333333337</ele><time>2026-04-11T09:47:58Z</time></trkpt><trkpt lat="42.207815010542014" lon="12.102941769704612"><ele>398.6666666666667</ele><time>2026-04-11T09:47:59Z</time></trkpt><trkpt lat="42.207634945796656" lon="12.10293085590762"><ele>400.0</ele><time>2026-04-11T09:48:00Z</time></trkpt><trkpt lat="42.207482224269356" lon="12.10295778158223"><ele>400.0</ele><time>2026-04-11T09:48:01Z</time></trkpt><trkpt lat="42.20734919514673" lon="12.103043033389419"><ele>400.0</ele><time>2026-04-11T09:48:02Z</time></trkpt><trkpt lat="42.20724031195952" lon="12.103203495305397"><ele>400.0</ele><time>2026-04-11T09:48:03Z</time></trkpt><trkpt lat="42.20719169712124" lon="12.103408058121563"><ele>402.0</ele><time>2026-04-11T09:48:04Z</time></trkpt><trkpt lat="42.20718095934939" lon="12.103653688420255"><ele>404.0</ele><time>2026-04-11T09:48:05Z</time></trkpt><trkpt lat="42.207197970492544" lon="12.103934115855557"><ele>406.0</ele><time>2026-04-11T09:48:06Z</time></trkpt><trkpt lat="42.20722638879366" lon="12.104226928066447"><ele>406.0</ele><time>2026-04-11T09:48:07Z</time></trkpt><trkpt lat="42.20720867946002" lon="12.104457369960652"><ele>406.0</ele><time>2026-04-11T09:48:08Z</time></trkpt><trkpt lat="42.20716021028467" lon="12.104682569012699"><ele>406.0</ele><time>2026-04-11T09:48:09Z</time></trkpt><trkpt lat="42.20706518998354" lon="12.10490849131416"><ele>407.5</ele><time>2026-04-11T09:48:10Z</time></trkpt><trkpt lat="42.20691664129611" lon="12.105112194437876"><ele>409.0</ele><time>2026-04-11T09:48:11Z</time></trkpt><trkpt lat="42.206730042448086" lon="12.105316059987697"><ele>409.0</ele><time>2026-04-11T09:48:12Z</time></trkpt><trkpt lat="42.20652171052487" lon="12.105538798509903"><ele>409.0</ele><time>2026-04-11T09:48:13Z</time></trkpt><trkpt lat="42.206307299057784" lon="12.105749802922933"><ele>407.5</ele><time>2026-04-11T09:48:14Z</time></trkpt><trkpt lat="42.20608843723197" lon="12.10598495248719"><ele>406.0</ele><time>2026-04-11T09:48:15Z</time></trkpt><trkpt lat="42.2058746140856" lon="12.106235612703582"><ele>404.0</ele><time>2026-04-11T09:48:16Z</time></trkpt><trkpt lat="42.20565899364471" lon="12.106498524780788"><ele>402.0</ele><time>2026-04-11T09:48:17Z</time></trkpt><trkpt lat="42.205445957291374" lon="12.106769919703817"><ele>400.0</ele><time>2026-04-11T09:48:18Z</time></trkpt><trkpt lat="42.20523393152096" lon="12.107042905080098"><ele>398.0</ele><time>2026-04-11T09:48:19Z</time></trkpt><trkpt lat="42.20501955657042" lon="12.107311556280647"><ele>398.5</ele><time>2026-04-11T09:48:20Z</time></trkpt><trkpt lat="42.20480405769791" lon="12.107583798221954"><ele>399.0</ele><time>2026-04-11T09:48:21Z</time></trkpt><trkpt lat="42.20459250104481" lon="12.107852954504525"><ele>399.0</ele><time>2026-04-11T09:48:22Z</time></trkpt><trkpt lat="42.204381107041016" lon="12.108120108668922"><ele>399.0</ele><time>2026-04-11T09:48:23Z</time></trkpt><trkpt lat="42.20417300702979" lon="12.108392384201158"><ele>399.0</ele><time>2026-04-11T09:48:24Z</time></trkpt><trkpt lat="42.203966363902325" lon="12.108654635773739"><ele>399.0</ele><time>2026-04-11T09:48:25Z</time></trkpt><trkpt lat="42.203756791768654" lon="12.108913569251131"><ele>400.5</ele><time>2026-04-11T09:48:26Z</time></trkpt><trkpt lat="42.203551239914304" lon="12.109166458264193"><ele>402.0</ele><time>2026-04-11T09:48:27Z</time></trkpt><trkpt lat="42.203349433561634" lon="12.109424983866484"><ele>402.5</ele><time>2026-04-11T09:48:28Z</time></trkpt><trkpt lat="42.20314272851076" lon="12.10969011176025"><ele>403.0</ele><time>2026-04-11T09:48:29Z</time></trkpt><trkpt lat="42.20293973043152" lon="12.109949613995541"><ele>403.0</ele><time>2026-04-11T09:48:30Z</time></trkpt><trkpt lat="42.20275415416829" lon="12.11020137929925"><ele>403.0</ele><time>2026-04-11T09:48:31Z</time></trkpt><trkpt lat="42.202594236863455" lon="12.110442514789462"><ele>403.0</ele><time>2026-04-11T09:48:32Z</time></trkpt><trkpt lat="42.202462270962606" lon="12.110687975760143"><ele>403.0</ele><time>2026-04-11T09:48:33Z</time></trkpt><trkpt lat="42.202356970813625" lon="12.110982345067214"><ele>403.0</ele><time>2026-04-11T09:48:34Z</time></trkpt><trkpt lat="42.202268607454734" lon="12.111318629514534"><ele>403.0</ele><time>2026-04-11T09:48:35Z</time></trkpt><trkpt lat="42.20219031227896" lon="12.111674736471008"><ele>403.0</ele><time>2026-04-11T09:48:36Z</time></trkpt><trkpt lat="42.202106692427236" lon="12.112034401776846"><ele>403.0</ele><time>2026-04-11T09:48:37Z</time></trkpt><trkpt lat="42.20201897458889" lon="12.112396820579443"><ele>401.5</ele><time>2026-04-11T09:48:38Z</time></trkpt><trkpt lat="42.201921005676795" lon="12.112766492676101"><ele>400.0</ele><time>2026-04-11T09:48:39Z</time></trkpt><trkpt lat="42.20182602278364" lon="12.113133070012752"><ele>400.5</ele><time>2026-04-11T09:48:40Z</time></trkpt><trkpt lat="42.20173535846831" lon="12.11349383829152"><ele>401.0</ele><time>2026-04-11T09:48:41Z</time></trkpt><trkpt lat="42.20164321456403" lon="12.1138514032485"><ele>400.0</ele><time>2026-04-11T09:48:42Z</time></trkpt><trkpt lat="42.20155123499387" lon="12.114203291474801"><ele>399.0</ele><time>2026-04-11T09:48:43Z</time></trkpt><trkpt lat="42.20145892606659" lon="12.114559264220224"><ele>399.0</ele><time>2026-04-11T09:48:44Z</time></trkpt><trkpt lat="42.20136651276162" lon="12.114917992072762"><ele>399.0</ele><time>2026-04-11T09:48:45Z</time></trkpt><trkpt lat="42.20127165370287" lon="12.115273752388806"><ele>399.0</ele><time>2026-04-11T09:48:46Z</time></trkpt><trkpt lat="42.20118062168811" lon="12.115630586766574"><ele>399.0</ele><time>2026-04-11T09:48:47Z</time></trkpt><trkpt lat="42.201091843709634" lon="12.115987994716336"><ele>400.5</ele><time>2026-04-11T09:48:48Z</time></trkpt><trkpt lat="42.20100493200657" lon="12.116339097748558"><ele>402.0</ele><time>2026-04-11T09:48:49Z</time></trkpt><trkpt lat="42.200929675690865" lon="12.116646376079013"><ele>402.33333333333337</ele><time>2026-04-11T09:48:50Z</time></trkpt><trkpt lat="42.20086020588315" lon="12.116922998983066"><ele>402.6666666666667</ele><time>2026-04-11T09:48:51Z</time></trkpt><trkpt lat="42.20079591754302" lon="12.117184296684943"><ele>403.0</ele><time>2026-04-11T09:48:52Z</time></trkpt><trkpt lat="42.20072881740059" lon="12.117460118680345"><ele>401.5</ele><time>2026-04-11T09:48:53Z</time></trkpt><trkpt lat="42.200642671451774" lon="12.117757875698368"><ele>400.0</ele><time>2026-04-11T09:48:54Z</time></trkpt><trkpt lat="42.20051264544182" lon="12.118055612166938"><ele>404.0</ele><time>2026-04-11T09:48:55Z</time></trkpt><trkpt lat="42.200350206140364" lon="12.118333876888077"><ele>408.0</ele><time>2026-04-11T09:48:56Z</time></trkpt><trkpt lat="42.20017666201048" lon="12.118580714358986"><ele>408.0</ele><time>2026-04-11T09:48:57Z</time></trkpt><trkpt lat="42.199979238826245" lon="12.118787308422839"><ele>408.0</ele><time>2026-04-11T09:48:58Z</time></trkpt><trkpt lat="42.19975069437739" lon="12.118967062774644"><ele>410.0</ele><time>2026-04-11T09:48:59Z</time></trkpt><trkpt lat="42.19950999265471" lon="12.119147491071697"><ele>412.0</ele><time>2026-04-11T09:49:00Z</time></trkpt><trkpt lat="42.199272662124955" lon="12.119329965733762"><ele>412.0</ele><time>2026-04-11T09:49:01Z</time></trkpt><trkpt lat="42.19904333029706" lon="12.119510898515134"><ele>412.0</ele><time>2026-04-11T09:49:02Z</time></trkpt><trkpt lat="42.198814511751955" lon="12.119689963645124"><ele>413.5</ele><time>2026-04-11T09:49:03Z</time></trkpt><trkpt lat="42.19857988770636" lon="12.119868953891194"><ele>415.0</ele><time>2026-04-11T09:49:04Z</time></trkpt><trkpt lat="42.198339801256424" lon="12.120045123831478"><ele>411.5</ele><time>2026-04-11T09:49:05Z</time></trkpt><trkpt lat="42.198095375685256" lon="12.120224659663203"><ele>408.0</ele><time>2026-04-11T09:49:06Z</time></trkpt><trkpt lat="42.197850276443816" lon="12.120405759616483"><ele>408.0</ele><time>2026-04-11T09:49:07Z</time></trkpt><trkpt lat="42.1976012773153" lon="12.120581190996463"><ele>408.0</ele><time>2026-04-11T09:49:08Z</time></trkpt><trkpt lat="42.19735054361861" lon="12.12075904731665"><ele>406.5</ele><time>2026-04-11T09:49:09Z</time></trkpt><trkpt lat="42.197112199970405" lon="12.120944081057578"><ele>405.0</ele><time>2026-04-11T09:49:10Z</time></trkpt><trkpt lat="42.1968970985489" lon="12.121121484264732"><ele>405.0</ele><time>2026-04-11T09:49:11Z</time></trkpt><trkpt lat="42.1967022714395" lon="12.121321521385326"><ele>405.0</ele><time>2026-04-11T09:49:12Z</time></trkpt><trkpt lat="42.196529026291486" lon="12.121548051812386"><ele>407.0</ele><time>2026-04-11T09:49:13Z</time></trkpt><trkpt lat="42.196385151733686" lon="12.121812018242867"><ele>409.0</ele><time>2026-04-11T09:49:14Z</time></trkpt><trkpt lat="42.19626450459996" lon="12.122107518548383"><ele>405.0</ele><time>2026-04-11T09:49:15Z</time></trkpt><trkpt lat="42.19616054921728" lon="12.122443659064611"><ele>401.0</ele><time>2026-04-11T09:49:16Z</time></trkpt><trkpt lat="42.19608262716656" lon="12.122822970040964"><ele>401.0</ele><time>2026-04-11T09:49:17Z</time></trkpt><trkpt lat="42.196018973564364" lon="12.12321216181346"><ele>401.0</ele><time>2026-04-11T09:49:18Z</time></trkpt><trkpt lat="42.19595876859053" lon="12.123606779799543"><ele>401.0</ele><time>2026-04-11T09:49:19Z</time></trkpt><trkpt lat="42.19589339707673" lon="12.124008839170473"><ele>401.0</ele><time>2026-04-11T09:49:20Z</time></trkpt><trkpt lat="42.19582988289624" lon="12.124399777910934"><ele>401.0</ele><time>2026-04-11T09:49:21Z</time></trkpt><trkpt lat="42.19577385801674" lon="12.124768704142316"><ele>401.0</ele><time>2026-04-11T09:49:22Z</time></trkpt><trkpt lat="42.19571797749893" lon="12.125120094338373"><ele>407.0</ele><time>2026-04-11T09:49:23Z</time></trkpt><trkpt lat="42.19566687738399" lon="12.12547775733377"><ele>413.0</ele><time>2026-04-11T09:49:24Z</time></trkpt><trkpt lat="42.195600162540934" lon="12.12583330933223"><ele>415.5</ele><time>2026-04-11T09:49:25Z</time></trkpt><trkpt lat="42.19554573155261" lon="12.126190602798617"><ele>418.0</ele><time>2026-04-11T09:49:26Z</time></trkpt><trkpt lat="42.19550351594911" lon="12.126555166057043"><ele>420.0</ele><time>2026-04-11T09:49:27Z</time></trkpt><trkpt lat="42.19544417212339" lon="12.126918338581486"><ele>422.0</ele><time>2026-04-11T09:49:28Z</time></trkpt><trkpt lat="42.195390576825424" lon="12.127276624290875"><ele>421.5</ele><time>2026-04-11T09:49:29Z</time></trkpt><trkpt lat="42.19533457135624" lon="12.127630149617874"><ele>421.0</ele><time>2026-04-11T09:49:30Z</time></trkpt><trkpt lat="42.195284115577756" lon="12.1279842982667"><ele>418.0</ele><time>2026-04-11T09:49:31Z</time></trkpt><trkpt lat="42.1952139628499" lon="12.128343399719572"><ele>415.0</ele><time>2026-04-11T09:49:32Z</time></trkpt><trkpt lat="42.19515608616357" lon="12.128713534958013"><ele>411.0</ele><time>2026-04-11T09:49:33Z</time></trkpt><trkpt lat="42.19509710913514" lon="12.129091250856844"><ele>407.0</ele><time>2026-04-11T09:49:34Z</time></trkpt><trkpt lat="42.19503873364264" lon="12.129465372648356"><ele>407.0</ele><time>2026-04-11T09:49:35Z</time></trkpt><trkpt lat="42.19497922780536" lon="12.129826844710385"><ele>407.0</ele><time>2026-04-11T09:49:36Z</time></trkpt><trkpt lat="42.194915587754814" lon="12.130177056454816"><ele>404.0</ele><time>2026-04-11T09:49:37Z</time></trkpt><trkpt lat="42.19484154293813" lon="12.130493594551782"><ele>401.0</ele><time>2026-04-11T09:49:38Z</time></trkpt><trkpt lat="42.19473362144474" lon="12.130819543434422"><ele>398.5</ele><time>2026-04-11T09:49:39Z</time></trkpt><trkpt lat="42.19460032694519" lon="12.131157171321483"><ele>396.0</ele><time>2026-04-11T09:49:40Z</time></trkpt><trkpt lat="42.19442243188483" lon="12.131481952586547"><ele>398.5</ele><time>2026-04-11T09:49:41Z</time></trkpt><trkpt lat="42.19423601396255" lon="12.131812267944786"><ele>401.0</ele><time>2026-04-11T09:49:42Z</time></trkpt><trkpt lat="42.194045839197834" lon="12.132150573085067"><ele>402.0</ele><time>2026-04-11T09:49:43Z</time></trkpt><trkpt lat="42.193853311178195" lon="12.132480674552628"><ele>403.0</ele><time>2026-04-11T09:49:44Z</time></trkpt><trkpt lat="42.19366381562462" lon="12.132816088297103"><ele>403.0</ele><time>2026-04-11T09:49:45Z</time></trkpt><trkpt lat="42.193472887801896" lon="12.133147649575537"><ele>403.0</ele><time>2026-04-11T09:49:46Z</time></trkpt><trkpt lat="42.19327039166485" lon="12.133469058329064"><ele>400.0</ele><time>2026-04-11T09:49:47Z</time></trkpt><trkpt lat="42.19308849427201" lon="12.133818141555532"><ele>397.0</ele><time>2026-04-11T09:49:48Z</time></trkpt><trkpt lat="42.19290888567622" lon="12.134132751155322"><ele>397.0</ele><time>2026-04-11T09:49:49Z</time></trkpt><trkpt lat="42.19273368380258" lon="12.134424353654254"><ele>397.0</ele><time>2026-04-11T09:49:50Z</time></trkpt><trkpt lat="42.19255286023128" lon="12.134691309774741"><ele>397.0</ele><time>2026-04-11T09:49:51Z</time></trkpt><trkpt lat="42.192358398462574" lon="12.134919494350333"><ele>397.0</ele><time>2026-04-11T09:49:52Z</time></trkpt><trkpt lat="42.19213609586361" lon="12.13512355375552"><ele>397.0</ele><time>2026-04-11T09:49:53Z</time></trkpt><trkpt lat="42.19189267071015" lon="12.135309206481462"><ele>397.0</ele><time>2026-04-11T09:49:54Z</time></trkpt><trkpt lat="42.19162935161924" lon="12.135471902045392"><ele>397.5</ele><time>2026-04-11T09:49:55Z</time></trkpt><trkpt lat="42.19135830900305" lon="12.135624273394727"><ele>398.0</ele><time>2026-04-11T09:49:56Z</time></trkpt><trkpt lat="42.19108366005465" lon="12.135774304009308"><ele>398.0</ele><time>2026-04-11T09:49:57Z</time></trkpt><trkpt lat="42.19081518771102" lon="12.13592446868058"><ele>398.0</ele><time>2026-04-11T09:49:58Z</time></trkpt><trkpt lat="42.19054872735826" lon="12.136072549665082"><ele>399.0</ele><time>2026-04-11T09:49:59Z</time></trkpt><trkpt lat="42.19028668051282" lon="12.136221199491239"><ele>400.0</ele><time>2026-04-11T09:50:00Z</time></trkpt><trkpt lat="42.19002612976075" lon="12.13637181155405"><ele>400.0</ele><time>2026-04-11T09:50:01Z</time></trkpt><trkpt lat="42.18976438248213" lon="12.136524844312074"><ele>400.0</ele><time>2026-04-11T09:50:02Z</time></trkpt><trkpt lat="42.18950088284235" lon="12.136676395603722"><ele>400.0</ele><time>2026-04-11T09:50:03Z</time></trkpt><trkpt lat="42.18923780646877" lon="12.136823235610692"><ele>400.0</ele><time>2026-04-11T09:50:04Z</time></trkpt><trkpt lat="42.188977915699596" lon="12.136960147528205"><ele>400.5</ele><time>2026-04-11T09:50:05Z</time></trkpt><trkpt lat="42.18872440465127" lon="12.137097013948432"><ele>401.0</ele><time>2026-04-11T09:50:06Z</time></trkpt><trkpt lat="42.18849135432079" lon="12.137223080512694"><ele>401.0</ele><time>2026-04-11T09:50:07Z</time></trkpt><trkpt lat="42.188259506628484" lon="12.137331586163429"><ele>401.0</ele><time>2026-04-11T09:50:08Z</time></trkpt><trkpt lat="42.18801601688748" lon="12.137420126145525"><ele>402.0</ele><time>2026-04-11T09:50:09Z</time></trkpt><trkpt lat="42.18778075282344" lon="12.137549240437735"><ele>403.0</ele><time>2026-04-11T09:50:10Z</time></trkpt><trkpt lat="42.18749428607419" lon="12.137510463777232"><ele>405.5</ele><time>2026-04-11T09:50:11Z</time></trkpt><trkpt lat="42.18721777063249" lon="12.137494416414743"><ele>408.0</ele><time>2026-04-11T09:50:12Z</time></trkpt><trkpt lat="42.186944500332245" lon="12.137441769209923"><ele>406.0</ele><time>2026-04-11T09:50:13Z</time></trkpt><trkpt lat="42.18669617187014" lon="12.137373149755181"><ele>404.0</ele><time>2026-04-11T09:50:14Z</time></trkpt><trkpt lat="42.186461325294125" lon="12.137308788292096"><ele>404.0</ele><time>2026-04-11T09:50:15Z</time></trkpt><trkpt lat="42.18623685801528" lon="12.137238768074369"><ele>404.0</ele><time>2026-04-11T09:50:16Z</time></trkpt><trkpt lat="42.185999687915526" lon="12.137178454431714"><ele>404.0</ele><time>2026-04-11T09:50:17Z</time></trkpt><trkpt lat="42.18575363768056" lon="12.137108851673483"><ele>404.0</ele><time>2026-04-11T09:50:18Z</time></trkpt><trkpt lat="42.18551355937835" lon="12.137050528195783"><ele>406.0</ele><time>2026-04-11T09:50:19Z</time></trkpt><trkpt lat="42.18526576007953" lon="12.13704998430205"><ele>408.0</ele><time>2026-04-11T09:50:20Z</time></trkpt><trkpt lat="42.18500760867907" lon="12.137050638641133"><ele>406.5</ele><time>2026-04-11T09:50:21Z</time></trkpt><trkpt lat="42.184739570094685" lon="12.137041555986567"><ele>405.0</ele><time>2026-04-11T09:50:22Z</time></trkpt><trkpt lat="42.18445893282421" lon="12.137045787007551"><ele>405.0</ele><time>2026-04-11T09:50:23Z</time></trkpt><trkpt lat="42.18417794187714" lon="12.137052312441542"><ele>405.0</ele><time>2026-04-11T09:50:24Z</time></trkpt><trkpt lat="42.183900150195115" lon="12.137062098639072"><ele>404.5</ele><time>2026-04-11T09:50:25Z</time></trkpt><trkpt lat="42.18363674357212" lon="12.137065625393785"><ele>404.0</ele><time>2026-04-11T09:50:26Z</time></trkpt><trkpt lat="42.18338769602412" lon="12.137069091278994"><ele>403.5</ele><time>2026-04-11T09:50:27Z</time></trkpt><trkpt lat="42.18314129965946" lon="12.137074074432155"><ele>403.0</ele><time>2026-04-11T09:50:28Z</time></trkpt><trkpt lat="42.182898333264156" lon="12.137075634008742"><ele>403.0</ele><time>2026-04-11T09:50:29Z</time></trkpt><trkpt lat="42.18266315719438" lon="12.137081731342652"><ele>403.0</ele><time>2026-04-11T09:50:30Z</time></trkpt><trkpt lat="42.18243943556516" lon="12.137090627206224"><ele>402.33333333333337</ele><time>2026-04-11T09:50:31Z</time></trkpt><trkpt lat="42.18222599042755" lon="12.137095302376293"><ele>401.66666666666663</ele><time>2026-04-11T09:50:32Z</time></trkpt><trkpt lat="42.18203249391455" lon="12.137097386208952"><ele>401.0</ele><time>2026-04-11T09:50:33Z</time></trkpt><trkpt lat="42.18185941962221" lon="12.137098670972867"><ele>401.0</ele><time>2026-04-11T09:50:34Z</time></trkpt><trkpt lat="42.18169249605197" lon="12.137099257292508"><ele>401.0</ele><time>2026-04-11T09:50:35Z</time></trkpt><trkpt lat="42.18152371451163" lon="12.13711897595715"><ele>401.0</ele><time>2026-04-11T09:50:36Z</time></trkpt><trkpt lat="42.181310711470225" lon="12.137139130402527"><ele>401.5</ele><time>2026-04-11T09:50:37Z</time></trkpt><trkpt lat="42.18106972170694" lon="12.137122563428443"><ele>402.0</ele><time>2026-04-11T09:50:38Z</time></trkpt><trkpt lat="42.18083739507556" lon="12.137104847435417"><ele>402.66666666666663</ele><time>2026-04-11T09:50:39Z</time></trkpt><trkpt lat="42.18062542935557" lon="12.137107527211333"><ele>403.3333333333333</ele><time>2026-04-11T09:50:40Z</time></trkpt><trkpt lat="42.180424861742914" lon="12.13711298326082"><ele>404.0</ele><time>2026-04-11T09:50:41Z</time></trkpt><trkpt lat="42.180236728727834" lon="12.137122035087692"><ele>404.0</ele><time>2026-04-11T09:50:42Z</time></trkpt><trkpt lat="42.18005968926493" lon="12.137126367038515"><ele>404.0</ele><time>2026-04-11T09:50:43Z</time></trkpt><trkpt lat="42.17985296955888" lon="12.137133108824996"><ele>404.0</ele><time>2026-04-11T09:50:44Z</time></trkpt><trkpt lat="42.17962537448147" lon="12.13713302706032"><ele>405.0</ele><time>2026-04-11T09:50:45Z</time></trkpt><trkpt lat="42.17937540508019" lon="12.137132487738253"><ele>406.0</ele><time>2026-04-11T09:50:46Z</time></trkpt><trkpt lat="42.179107410786536" lon="12.137135276489522"><ele>406.5</ele><time>2026-04-11T09:50:47Z</time></trkpt><trkpt lat="42.178829514995826" lon="12.137136302306088"><ele>407.0</ele><time>2026-04-11T09:50:48Z</time></trkpt><trkpt lat="42.17854023058667" lon="12.137139130899824"><ele>407.0</ele><time>2026-04-11T09:50:49Z</time></trkpt><trkpt lat="42.17824464962919" lon="12.137149184839437"><ele>407.0</ele><time>2026-04-11T09:50:50Z</time></trkpt><trkpt lat="42.17795186368278" lon="12.137153010168372"><ele>406.5</ele><time>2026-04-11T09:50:51Z</time></trkpt><trkpt lat="42.17766617772937" lon="12.13715712414426"><ele>406.0</ele><time>2026-04-11T09:50:52Z</time></trkpt><trkpt lat="42.177384134720484" lon="12.137164605752368"><ele>407.0</ele><time>2026-04-11T09:50:53Z</time></trkpt><trkpt lat="42.17710794248265" lon="12.137161350482824"><ele>408.0</ele><time>2026-04-11T09:50:54Z</time></trkpt><trkpt lat="42.176833876727294" lon="12.137164212813385"><ele>408.0</ele><time>2026-04-11T09:50:55Z</time></trkpt><trkpt lat="42.17656875230051" lon="12.137161374678568"><ele>408.0</ele><time>2026-04-11T09:50:56Z</time></trkpt><trkpt lat="42.17631027338282" lon="12.137169719302472"><ele>407.5</ele><time>2026-04-11T09:50:57Z</time></trkpt><trkpt lat="42.17605241708882" lon="12.137174103432667"><ele>407.0</ele><time>2026-04-11T09:50:58Z</time></trkpt><trkpt lat="42.17579519494259" lon="12.137177741540489"><ele>407.5</ele><time>2026-04-11T09:50:59Z</time></trkpt><trkpt lat="42.17553543197266" lon="12.13717737534903"><ele>408.0</ele><time>2026-04-11T09:51:00Z</time></trkpt><trkpt lat="42.17527438004024" lon="12.137179359883593"><ele>408.0</ele><time>2026-04-11T09:51:01Z</time></trkpt><trkpt lat="42.17501108441091" lon="12.137178617505104"><ele>408.0</ele><time>2026-04-11T09:51:02Z</time></trkpt><trkpt lat="42.17474651968202" lon="12.137188400558097"><ele>409.0</ele><time>2026-04-11T09:51:03Z</time></trkpt><trkpt lat="42.17448225319719" lon="12.137194941467284"><ele>410.0</ele><time>2026-04-11T09:51:04Z</time></trkpt><trkpt lat="42.174218213839" lon="12.137199716686512"><ele>408.5</ele><time>2026-04-11T09:51:05Z</time></trkpt><trkpt lat="42.173953167728385" lon="12.137199057952666"><ele>407.0</ele><time>2026-04-11T09:51:06Z</time></trkpt><trkpt lat="42.1736847637915" lon="12.137198920106487"><ele>407.0</ele><time>2026-04-11T09:51:07Z</time></trkpt><trkpt lat="42.17341557425013" lon="12.137200314029899"><ele>407.0</ele><time>2026-04-11T09:51:08Z</time></trkpt><trkpt lat="42.17314417782084" lon="12.137204073459623"><ele>407.0</ele><time>2026-04-11T09:51:09Z</time></trkpt><trkpt lat="42.172871422584144" lon="12.137208274741795"><ele>407.0</ele><time>2026-04-11T09:51:10Z</time></trkpt><trkpt lat="42.17259815173328" lon="12.13720999351935"><ele>407.5</ele><time>2026-04-11T09:51:11Z</time></trkpt><trkpt lat="42.172324788501975" lon="12.13721480240415"><ele>408.0</ele><time>2026-04-11T09:51:12Z</time></trkpt><trkpt lat="42.172049135861144" lon="12.137219745944567"><ele>408.0</ele><time>2026-04-11T09:51:13Z</time></trkpt><trkpt lat="42.17177916891478" lon="12.137221148490955"><ele>408.0</ele><time>2026-04-11T09:51:14Z</time></trkpt><trkpt lat="42.171506878356276" lon="12.137224856649185"><ele>408.5</ele><time>2026-04-11T09:51:15Z</time></trkpt><trkpt lat="42.17123613497194" lon="12.137229248051574"><ele>409.0</ele><time>2026-04-11T09:51:16Z</time></trkpt><trkpt lat="42.17099120423672" lon="12.1372337593929"><ele>409.0</ele><time>2026-04-11T09:51:17Z</time></trkpt><trkpt lat="42.17076226547617" lon="12.137237355449928"><ele>409.0</ele><time>2026-04-11T09:51:18Z</time></trkpt><trkpt lat="42.170544688583675" lon="12.137240165911646"><ele>409.0</ele><time>2026-04-11T09:51:19Z</time></trkpt><trkpt lat="42.17034137240971" lon="12.137243957546854"><ele>409.6666666666667</ele><time>2026-04-11T09:51:20Z</time></trkpt><trkpt lat="42.17016051281087" lon="12.137249582849481"><ele>410.33333333333337</ele><time>2026-04-11T09:51:21Z</time></trkpt><trkpt lat="42.169988959323454" lon="12.137261223530396"><ele>411.0</ele><time>2026-04-11T09:51:22Z</time></trkpt><trkpt lat="42.16982268908079" lon="12.137274689068859"><ele>411.66666666666663</ele><time>2026-04-11T09:51:23Z</time></trkpt><trkpt lat="42.169655280625186" lon="12.137300936468142"><ele>412.3333333333333</ele><time>2026-04-11T09:51:24Z</time></trkpt><trkpt lat="42.169496041806404" lon="12.137340975926302"><ele>413.0</ele><time>2026-04-11T09:51:25Z</time></trkpt><trkpt lat="42.169333926036124" lon="12.137365422318178"><ele>413.0</ele><time>2026-04-11T09:51:26Z</time></trkpt><trkpt lat="42.16917407998581" lon="12.137377751900532"><ele>413.0</ele><time>2026-04-11T09:51:27Z</time></trkpt><trkpt lat="42.169013995721784" lon="12.137411778101233"><ele>413.0</ele><time>2026-04-11T09:51:28Z</time></trkpt><trkpt lat="42.16885997887403" lon="12.137425611622607"><ele>411.66666666666663</ele><time>2026-04-11T09:51:29Z</time></trkpt><trkpt lat="42.16870117544019" lon="12.137457411631324"><ele>410.33333333333337</ele><time>2026-04-11T09:51:30Z</time></trkpt><trkpt lat="42.168546287561476" lon="12.13747258114505"><ele>409.0</ele><time>2026-04-11T09:51:31Z</time></trkpt><trkpt lat="42.168387659867015" lon="12.13749518492596"><ele>409.0</ele><time>2026-04-11T09:51:32Z</time></trkpt><trkpt lat="42.16823256020077" lon="12.137515570736356"><ele>409.0</ele><time>2026-04-11T09:51:33Z</time></trkpt><trkpt lat="42.16808702678518" lon="12.1375442726931"><ele>409.0</ele><time>2026-04-11T09:51:34Z</time></trkpt><trkpt lat="42.167948625407554" lon="12.13756865947528"><ele>409.0</ele><time>2026-04-11T09:51:35Z</time></trkpt><trkpt lat="42.167815887569965" lon="12.1375896504542"><ele>408.75</ele><time>2026-04-11T09:51:36Z</time></trkpt><trkpt lat="42.167687702822256" lon="12.1376086874058"><ele>408.5</ele><time>2026-04-11T09:51:37Z</time></trkpt><trkpt lat="42.16755693008919" lon="12.13762828855678"><ele>408.25</ele><time>2026-04-11T09:51:38Z</time></trkpt><trkpt lat="42.167427198169705" lon="12.137648658837955"><ele>408.0</ele><time>2026-04-11T09:51:39Z</time></trkpt><trkpt lat="42.167296898864436" lon="12.137669646202882"><ele>407.75</ele><time>2026-04-11T09:51:40Z</time></trkpt><trkpt lat="42.16716488721505" lon="12.137697099184127"><ele>407.5</ele><time>2026-04-11T09:51:41Z</time></trkpt><trkpt lat="42.16703152320036" lon="12.13772229249972"><ele>407.25</ele><time>2026-04-11T09:51:42Z</time></trkpt><trkpt lat="42.166897321171994" lon="12.13773604456546"><ele>407.0</ele><time>2026-04-11T09:51:43Z</time></trkpt><trkpt lat="42.16676055504848" lon="12.13776194576632"><ele>407.0</ele><time>2026-04-11T09:51:44Z</time></trkpt><trkpt lat="42.166624839049454" lon="12.137790635749752"><ele>407.0</ele><time>2026-04-11T09:51:45Z</time></trkpt><trkpt lat="42.166491286960266" lon="12.137813961302642"><ele>407.0</ele><time>2026-04-11T09:51:46Z</time></trkpt><trkpt lat="42.16635712272759" lon="12.137839054130168"><ele>407.0</ele><time>2026-04-11T09:51:47Z</time></trkpt><trkpt lat="42.16623166240485" lon="12.137861228353756"><ele>406.75</ele><time>2026-04-11T09:51:48Z</time></trkpt><trkpt lat="42.166109993837345" lon="12.137882836857822"><ele>406.5</ele><time>2026-04-11T09:51:49Z</time></trkpt><trkpt lat="42.165983207956174" lon="12.13790715148858"><ele>406.25</ele><time>2026-04-11T09:51:50Z</time></trkpt><trkpt lat="42.16584156297788" lon="12.137911887377832"><ele>406.0</ele><time>2026-04-11T09:51:51Z</time></trkpt><trkpt lat="42.165686057450486" lon="12.137923354756879"><ele>405.5</ele><time>2026-04-11T09:51:52Z</time></trkpt><trkpt lat="42.16552798208978" lon="12.13795292310178"><ele>405.0</ele><time>2026-04-11T09:51:53Z</time></trkpt><trkpt lat="42.16538565440581" lon="12.137982082501736"><ele>404.5</ele><time>2026-04-11T09:51:54Z</time></trkpt><trkpt lat="42.165260771875616" lon="12.138001561186499"><ele>404.0</ele><time>2026-04-11T09:51:55Z</time></trkpt><trkpt lat="42.16515293330195" lon="12.138027021032135"><ele>404.0</ele><time>2026-04-11T09:51:56Z</time></trkpt><trkpt lat="42.165047302992775" lon="12.138049385475977"><ele>404.0</ele><time>2026-04-11T09:51:57Z</time></trkpt><trkpt lat="42.16495250963705" lon="12.138062310606653"><ele>404.0</ele><time>2026-04-11T09:51:58Z</time></trkpt><trkpt lat="42.16487601009274" lon="12.138063717249272"><ele>404.0</ele><time>2026-04-11T09:51:59Z</time></trkpt><trkpt lat="42.16476813226164" lon="12.13809601930137"><ele>404.0</ele><time>2026-04-11T09:52:01Z</time></trkpt><trkpt lat="42.16470420095655" lon="12.138132847066428"><ele>404.4</ele><time>2026-04-11T09:52:03Z</time></trkpt><trkpt lat="42.16463972139302" lon="12.138165343318015"><ele>404.79999999999995</ele><time>2026-04-11T09:52:05Z</time></trkpt><trkpt lat="42.164570689938145" lon="12.138129918176409"><ele>405.20000000000005</ele><time>2026-04-11T09:52:08Z</time></trkpt><trkpt lat="42.16441165715406" lon="12.138127192932908"><ele>405.6</ele><time>2026-04-11T09:52:10Z</time></trkpt><trkpt lat="42.16429919348212" lon="12.13815268910771"><ele>406.0</ele><time>2026-04-11T09:52:11Z</time></trkpt><trkpt lat="42.1641504438494" lon="12.138188589467918"><ele>406.6666666666667</ele><time>2026-04-11T09:52:12Z</time></trkpt><trkpt lat="42.16399371378867" lon="12.138198802668988"><ele>407.33333333333337</ele><time>2026-04-11T09:52:13Z</time></trkpt><trkpt lat="42.16382876579999" lon="12.13822254429086"><ele>408.0</ele><time>2026-04-11T09:52:14Z</time></trkpt><trkpt lat="42.16366896317061" lon="12.138240699391824"><ele>408.0</ele><time>2026-04-11T09:52:15Z</time></trkpt><trkpt lat="42.16350947498852" lon="12.138262435568198"><ele>408.0</ele><time>2026-04-11T09:52:16Z</time></trkpt><trkpt lat="42.16334942796414" lon="12.13829973444214"><ele>408.0</ele><time>2026-04-11T09:52:17Z</time></trkpt><trkpt lat="42.16318525461674" lon="12.138322884890913"><ele>410.33333333333337</ele><time>2026-04-11T09:52:18Z</time></trkpt><trkpt lat="42.16302290884326" lon="12.13835197373086"><ele>412.6666666666667</ele><time>2026-04-11T09:52:19Z</time></trkpt><trkpt lat="42.16285570395713" lon="12.138378428631448"><ele>415.0</ele><time>2026-04-11T09:52:20Z</time></trkpt><trkpt lat="42.162687541216386" lon="12.138408920757902"><ele>415.0</ele><time>2026-04-11T09:52:21Z</time></trkpt><trkpt lat="42.16251632152651" lon="12.138439854446801"><ele>415.0</ele><time>2026-04-11T09:52:22Z</time></trkpt><trkpt lat="42.16234126350722" lon="12.138466767106715"><ele>415.0</ele><time>2026-04-11T09:52:23Z</time></trkpt><trkpt lat="42.16216035110417" lon="12.138496335109394"><ele>415.0</ele><time>2026-04-11T09:52:24Z</time></trkpt><trkpt lat="42.16198999489541" lon="12.138526458512606"><ele>415.0</ele><time>2026-04-11T09:52:25Z</time></trkpt><trkpt lat="42.16182976246934" lon="12.138546305753009"><ele>415.0</ele><time>2026-04-11T09:52:26Z</time></trkpt><trkpt lat="42.16166461488591" lon="12.13856827200094"><ele>415.6666666666667</ele><time>2026-04-11T09:52:27Z</time></trkpt><trkpt lat="42.16150413600175" lon="12.138600006955693"><ele>416.33333333333337</ele><time>2026-04-11T09:52:28Z</time></trkpt><trkpt lat="42.16135047526955" lon="12.138624812031653"><ele>417.0</ele><time>2026-04-11T09:52:29Z</time></trkpt><trkpt lat="42.16119975580025" lon="12.138647844100486"><ele>417.0</ele><time>2026-04-11T09:52:30Z</time></trkpt><trkpt lat="42.1610411300645" lon="12.138668811501237"><ele>417.0</ele><time>2026-04-11T09:52:31Z</time></trkpt><trkpt lat="42.16087981185944" lon="12.138692608339333"><ele>417.0</ele><time>2026-04-11T09:52:32Z</time></trkpt><trkpt lat="42.16071233096591" lon="12.138714165798481"><ele>419.33333333333337</ele><time>2026-04-11T09:52:33Z</time></trkpt><trkpt lat="42.16053890731093" lon="12.138732729477566"><ele>421.6666666666667</ele><time>2026-04-11T09:52:34Z</time></trkpt><trkpt lat="42.16036879464479" lon="12.138747756211748"><ele>424.0</ele><time>2026-04-11T09:52:35Z</time></trkpt><trkpt lat="42.160202953395405" lon="12.138755405305302"><ele>424.0</ele><time>2026-04-11T09:52:36Z</time></trkpt><trkpt lat="42.160057230616495" lon="12.138750962574115"><ele>424.0</ele><time>2026-04-11T09:52:37Z</time></trkpt><trkpt lat="42.15994421859797" lon="12.138755868336693"><ele>424.0</ele><time>2026-04-11T09:52:38Z</time></trkpt><trkpt lat="42.15986375891569" lon="12.138749881850904"><ele>424.0</ele><time>2026-04-11T09:52:39Z</time></trkpt><trkpt lat="42.15977010626497" lon="12.13873915502956"><ele>424.0</ele><time>2026-04-11T09:52:41Z</time></trkpt><trkpt lat="42.15969359381521" lon="12.138761565332306"><ele>424.4</ele><time>2026-04-11T09:52:42Z</time></trkpt><trkpt lat="42.159588468395036" lon="12.138758866448574"><ele>424.79999999999995</ele><time>2026-04-11T09:52:43Z</time></trkpt><trkpt lat="42.15947453565658" lon="12.138797940586372"><ele>425.20000000000005</ele><time>2026-04-11T09:52:44Z</time></trkpt><trkpt lat="42.15935776589474" lon="12.138852678741422"><ele>425.6</ele><time>2026-04-11T09:52:45Z</time></trkpt><trkpt lat="42.159281158999825" lon="12.138822235233732"><ele>426.0</ele><time>2026-04-11T09:52:46Z</time></trkpt><trkpt lat="42.1591851475527" lon="12.138830521393544"><ele>426.0</ele><time>2026-04-11T09:52:47Z</time></trkpt><trkpt lat="42.15909445239235" lon="12.13883289594375"><ele>426.0</ele><time>2026-04-11T09:52:48Z</time></trkpt><trkpt lat="42.159004172303185" lon="12.138842538104164"><ele>426.0</ele><time>2026-04-11T09:52:49Z</time></trkpt><trkpt lat="42.158880256236785" lon="12.138839452134716"><ele>426.0</ele><time>2026-04-11T09:52:50Z</time></trkpt><trkpt lat="42.158728551092025" lon="12.138827676203418"><ele>426.5</ele><time>2026-04-11T09:52:51Z</time></trkpt><trkpt lat="42.15859287384763" lon="12.138812241330632"><ele>427.0</ele><time>2026-04-11T09:52:52Z</time></trkpt><trkpt lat="42.158459464106265" lon="12.138801597858805"><ele>427.5</ele><time>2026-04-11T09:52:53Z</time></trkpt><trkpt lat="42.158319082220885" lon="12.138793078356155"><ele>428.0</ele><time>2026-04-11T09:52:54Z</time></trkpt><trkpt lat="42.15817486372491" lon="12.13878714262309"><ele>428.25</ele><time>2026-04-11T09:52:55Z</time></trkpt><trkpt lat="42.15803505434783" lon="12.138768006748473"><ele>428.5</ele><time>2026-04-11T09:52:56Z</time></trkpt><trkpt lat="42.15788296797965" lon="12.138762552277546"><ele>428.75</ele><time>2026-04-11T09:52:57Z</time></trkpt><trkpt lat="42.15773405054532" lon="12.138753603449924"><ele>429.0</ele><time>2026-04-11T09:52:58Z</time></trkpt><trkpt lat="42.1575952323095" lon="12.138746293032264"><ele>429.0</ele><time>2026-04-11T09:52:59Z</time></trkpt><trkpt lat="42.157459568637734" lon="12.138742300414485"><ele>429.0</ele><time>2026-04-11T09:53:00Z</time></trkpt><trkpt lat="42.15733753560304" lon="12.138733503637155"><ele>429.0</ele><time>2026-04-11T09:53:01Z</time></trkpt><trkpt lat="42.15723698443034" lon="12.138733152393382"><ele>429.0</ele><time>2026-04-11T09:53:02Z</time></trkpt><trkpt lat="42.15713153317904" lon="12.138665648524146"><ele>428.0</ele><time>2026-04-11T09:53:03Z</time></trkpt><trkpt lat="42.15702853092134" lon="12.138550821613332"><ele>427.0</ele><time>2026-04-11T09:53:04Z</time></trkpt><trkpt lat="42.15691139089776" lon="12.138454824991891"><ele>426.0</ele><time>2026-04-11T09:53:05Z</time></trkpt><trkpt lat="42.156785741012904" lon="12.138362996546975"><ele>425.0</ele><time>2026-04-11T09:53:06Z</time></trkpt><trkpt lat="42.15665342222289" lon="12.138274496754512"><ele>424.66666666666663</ele><time>2026-04-11T09:53:07Z</time></trkpt><trkpt lat="42.15651393253537" lon="12.13818149822387"><ele>424.33333333333337</ele><time>2026-04-11T09:53:08Z</time></trkpt><trkpt lat="42.156370052489706" lon="12.138083304129719"><ele>424.0</ele><time>2026-04-11T09:53:09Z</time></trkpt><trkpt lat="42.156229210733635" lon="12.13799277753621"><ele>424.0</ele><time>2026-04-11T09:53:10Z</time></trkpt><trkpt lat="42.156102700728454" lon="12.137885563490793"><ele>424.0</ele><time>2026-04-11T09:53:11Z</time></trkpt><trkpt lat="42.15597555288062" lon="12.13779661063265"><ele>424.0</ele><time>2026-04-11T09:53:12Z</time></trkpt><trkpt lat="42.15584911701839" lon="12.137711946927045"><ele>424.0</ele><time>2026-04-11T09:53:13Z</time></trkpt><trkpt lat="42.15571601273134" lon="12.13763510943692"><ele>422.75</ele><time>2026-04-11T09:53:14Z</time></trkpt><trkpt lat="42.155590176249554" lon="12.137565022098968"><ele>421.5</ele><time>2026-04-11T09:53:15Z</time></trkpt><trkpt lat="42.15546631169056" lon="12.137495266783551"><ele>420.25</ele><time>2026-04-11T09:53:16Z</time></trkpt><trkpt lat="42.15534990028164" lon="12.137420472623877"><ele>419.0</ele><time>2026-04-11T09:53:17Z</time></trkpt><trkpt lat="42.155263108491475" lon="12.137346908253363"><ele>418.79999999999995</ele><time>2026-04-11T09:53:18Z</time></trkpt><trkpt lat="42.155199434244345" lon="12.137309563503111"><ele>418.59999999999997</ele><time>2026-04-11T09:53:19Z</time></trkpt><trkpt lat="42.15511398385669" lon="12.137243224099821"><ele>418.4</ele><time>2026-04-11T09:53:21Z</time></trkpt><trkpt lat="42.15502544087954" lon="12.13719334561203"><ele>418.2</ele><time>2026-04-11T09:53:26Z</time></trkpt><trkpt lat="42.154944260206825" lon="12.137132414691388"><ele>418.0</ele><time>2026-04-11T09:53:27Z</time></trkpt><trkpt lat="42.154857357858305" lon="12.137058144903957"><ele>417.5</ele><time>2026-04-11T09:53:28Z</time></trkpt><trkpt lat="42.154755847206545" lon="12.136981437334086"><ele>417.0</ele><time>2026-04-11T09:53:29Z</time></trkpt><trkpt lat="42.15463696157883" lon="12.136892709357435"><ele>416.5</ele><time>2026-04-11T09:53:30Z</time></trkpt><trkpt lat="42.15449824790681" lon="12.136787072152009"><ele>416.0</ele><time>2026-04-11T09:53:31Z</time></trkpt><trkpt lat="42.154356780653735" lon="12.136674619384042"><ele>416.0</ele><time>2026-04-11T09:53:32Z</time></trkpt><trkpt lat="42.15420486692326" lon="12.136561239641585"><ele>416.0</ele><time>2026-04-11T09:53:33Z</time></trkpt><trkpt lat="42.15404815891581" lon="12.136446998884209"><ele>416.0</ele><time>2026-04-11T09:53:34Z</time></trkpt><trkpt lat="42.153892007828844" lon="12.136322638380152"><ele>415.0</ele><time>2026-04-11T09:53:35Z</time></trkpt><trkpt lat="42.153740601941216" lon="12.136194065317282"><ele>414.0</ele><time>2026-04-11T09:53:36Z</time></trkpt><trkpt lat="42.153584948909234" lon="12.136071884495783"><ele>413.0</ele><time>2026-04-11T09:53:37Z</time></trkpt><trkpt lat="42.153421598169025" lon="12.135950410365991"><ele>413.0</ele><time>2026-04-11T09:53:38Z</time></trkpt><trkpt lat="42.15325528718177" lon="12.135825893602787"><ele>413.0</ele><time>2026-04-11T09:53:39Z</time></trkpt><trkpt lat="42.153089538977035" lon="12.135701066102957"><ele>413.0</ele><time>2026-04-11T09:53:40Z</time></trkpt><trkpt lat="42.15292398922964" lon="12.135574246621562"><ele>413.0</ele><time>2026-04-11T09:53:41Z</time></trkpt><trkpt lat="42.15276362014877" lon="12.135447236089304"><ele>413.0</ele><time>2026-04-11T09:53:42Z</time></trkpt><trkpt lat="42.15259855884822" lon="12.135323894602868"><ele>413.0</ele><time>2026-04-11T09:53:43Z</time></trkpt><trkpt lat="42.15243298247131" lon="12.13520101738906"><ele>413.0</ele><time>2026-04-11T09:53:44Z</time></trkpt><trkpt lat="42.15227164451614" lon="12.13507664191014"><ele>413.0</ele><time>2026-04-11T09:53:45Z</time></trkpt><trkpt lat="42.152099430565876" lon="12.134940932599447"><ele>413.0</ele><time>2026-04-11T09:53:46Z</time></trkpt><trkpt lat="42.15190199799415" lon="12.134780866055927"><ele>413.5</ele><time>2026-04-11T09:53:47Z</time></trkpt><trkpt lat="42.15170113783532" lon="12.134622683231859"><ele>414.0</ele><time>2026-04-11T09:53:48Z</time></trkpt><trkpt lat="42.1515106932439" lon="12.134473688319947"><ele>414.0</ele><time>2026-04-11T09:53:49Z</time></trkpt><trkpt lat="42.15132209219387" lon="12.134329698459592"><ele>414.0</ele><time>2026-04-11T09:53:50Z</time></trkpt><trkpt lat="42.1511417326813" lon="12.134189689363327"><ele>414.0</ele><time>2026-04-11T09:53:51Z</time></trkpt><trkpt lat="42.15097180434138" lon="12.134056454642916"><ele>414.0</ele><time>2026-04-11T09:53:52Z</time></trkpt><trkpt lat="42.15080386497749" lon="12.133939361725066"><ele>414.0</ele><time>2026-04-11T09:53:53Z</time></trkpt><trkpt lat="42.15064915173095" lon="12.133836699348398"><ele>414.0</ele><time>2026-04-11T09:53:54Z</time></trkpt><trkpt lat="42.150506321676446" lon="12.133743503567189"><ele>414.0</ele><time>2026-04-11T09:53:55Z</time></trkpt><trkpt lat="42.15035910819358" lon="12.133648954361243"><ele>414.0</ele><time>2026-04-11T09:53:56Z</time></trkpt><trkpt lat="42.15019404344428" lon="12.133538332488005"><ele>414.0</ele><time>2026-04-11T09:53:57Z</time></trkpt><trkpt lat="42.150023211183644" lon="12.133415297851863"><ele>415.0</ele><time>2026-04-11T09:53:58Z</time></trkpt><trkpt lat="42.14985411109625" lon="12.133298805209952"><ele>416.0</ele><time>2026-04-11T09:53:59Z</time></trkpt><trkpt lat="42.14968157139177" lon="12.133179066870486"><ele>417.0</ele><time>2026-04-11T09:54:00Z</time></trkpt><trkpt lat="42.14952045296275" lon="12.133067220516441"><ele>417.0</ele><time>2026-04-11T09:54:01Z</time></trkpt><trkpt lat="42.149369929757874" lon="12.132973689693259"><ele>417.0</ele><time>2026-04-11T09:54:02Z</time></trkpt><trkpt lat="42.149213186413704" lon="12.13286977481443"><ele>417.0</ele><time>2026-04-11T09:54:03Z</time></trkpt><trkpt lat="42.149041432133096" lon="12.132732809554005"><ele>417.0</ele><time>2026-04-11T09:54:04Z</time></trkpt><trkpt lat="42.14885393289339" lon="12.132571556894423"><ele>417.0</ele><time>2026-04-11T09:54:05Z</time></trkpt><trkpt lat="42.14865397866624" lon="12.132379441055901"><ele>417.0</ele><time>2026-04-11T09:54:06Z</time></trkpt><trkpt lat="42.14844438549923" lon="12.13218396721166"><ele>417.0</ele><time>2026-04-11T09:54:07Z</time></trkpt><trkpt lat="42.14824292666179" lon="12.132007431193673"><ele>414.5</ele><time>2026-04-11T09:54:08Z</time></trkpt><trkpt lat="42.14803432337304" lon="12.131833217370819"><ele>412.0</ele><time>2026-04-11T09:54:09Z</time></trkpt><trkpt lat="42.14781002552352" lon="12.131656860864773"><ele>413.5</ele><time>2026-04-11T09:54:10Z</time></trkpt><trkpt lat="42.147570085334856" lon="12.13147443513657"><ele>415.0</ele><time>2026-04-11T09:54:11Z</time></trkpt><trkpt lat="42.14734732704258" lon="12.13127541681373"><ele>415.0</ele><time>2026-04-11T09:54:12Z</time></trkpt><trkpt lat="42.14712608890767" lon="12.131068424336792"><ele>415.0</ele><time>2026-04-11T09:54:13Z</time></trkpt><trkpt lat="42.14690529509264" lon="12.130847238364607"><ele>416.0</ele><time>2026-04-11T09:54:14Z</time></trkpt><trkpt lat="42.146694285461095" lon="12.130628134472715"><ele>417.0</ele><time>2026-04-11T09:54:15Z</time></trkpt><trkpt lat="42.146507211256115" lon="12.130436107981406"><ele>418.66666666666663</ele><time>2026-04-11T09:54:16Z</time></trkpt><trkpt lat="42.14632109343663" lon="12.130275861778554"><ele>420.3333333333333</ele><time>2026-04-11T09:54:17Z</time></trkpt><trkpt lat="42.146116166901166" lon="12.130154305882456"><ele>422.0</ele><time>2026-04-11T09:54:18Z</time></trkpt><trkpt lat="42.145889024300125" lon="12.130075529637098"><ele>425.5</ele><time>2026-04-11T09:54:19Z</time></trkpt><trkpt lat="42.145644409424634" lon="12.130052835594874"><ele>429.0</ele><time>2026-04-11T09:54:20Z</time></trkpt><trkpt lat="42.14538968888209" lon="12.13006234025163"><ele>429.0</ele><time>2026-04-11T09:54:21Z</time></trkpt><trkpt lat="42.145135487736994" lon="12.130056782330607"><ele>429.0</ele><time>2026-04-11T09:54:22Z</time></trkpt><trkpt lat="42.1448775315373" lon="12.13003153988715"><ele>428.0</ele><time>2026-04-11T09:54:23Z</time></trkpt><trkpt lat="42.144639642926194" lon="12.12998887050872"><ele>427.0</ele><time>2026-04-11T09:54:24Z</time></trkpt><trkpt lat="42.1444079098884" lon="12.129938325168204"><ele>429.0</ele><time>2026-04-11T09:54:25Z</time></trkpt><trkpt lat="42.144177042223454" lon="12.129885360848524"><ele>431.0</ele><time>2026-04-11T09:54:26Z</time></trkpt><trkpt lat="42.14393949226952" lon="12.12985157375334"><ele>427.0</ele><time>2026-04-11T09:54:27Z</time></trkpt><trkpt lat="42.143709999064214" lon="12.129839701523965"><ele>423.0</ele><time>2026-04-11T09:54:28Z</time></trkpt><trkpt lat="42.143481863622135" lon="12.129847508054388"><ele>423.0</ele><time>2026-04-11T09:54:29Z</time></trkpt><trkpt lat="42.143247068678654" lon="12.129880671778368"><ele>423.0</ele><time>2026-04-11T09:54:30Z</time></trkpt><trkpt lat="42.143011512475205" lon="12.129941174785879"><ele>420.5</ele><time>2026-04-11T09:54:31Z</time></trkpt><trkpt lat="42.142774584490134" lon="12.130024145296366"><ele>418.0</ele><time>2026-04-11T09:54:32Z</time></trkpt><trkpt lat="42.14254931104889" lon="12.130109053996142"><ele>417.6666666666667</ele><time>2026-04-11T09:54:33Z</time></trkpt><trkpt lat="42.1423365826962" lon="12.130189752048576"><ele>417.33333333333337</ele><time>2026-04-11T09:54:34Z</time></trkpt><trkpt lat="42.14213394670459" lon="12.130266036997968"><ele>417.0</ele><time>2026-04-11T09:54:35Z</time></trkpt><trkpt lat="42.14193696542364" lon="12.130328941435991"><ele>417.0</ele><time>2026-04-11T09:54:36Z</time></trkpt><trkpt lat="42.14174596272786" lon="12.130363969605884"><ele>417.0</ele><time>2026-04-11T09:54:37Z</time></trkpt><trkpt lat="42.14156194757138" lon="12.13034983763176"><ele>417.0</ele><time>2026-04-11T09:54:38Z</time></trkpt><trkpt lat="42.14138832075572" lon="12.13025915000668"><ele>416.0</ele><time>2026-04-11T09:54:39Z</time></trkpt><trkpt lat="42.14123160874663" lon="12.130130799107292"><ele>415.0</ele><time>2026-04-11T09:54:40Z</time></trkpt><trkpt lat="42.141104773326525" lon="12.129940648936952"><ele>414.0</ele><time>2026-04-11T09:54:41Z</time></trkpt><trkpt lat="42.14097613904509" lon="12.129735101567592"><ele>414.0</ele><time>2026-04-11T09:54:42Z</time></trkpt><trkpt lat="42.14086569581335" lon="12.129517347098032"><ele>414.0</ele><time>2026-04-11T09:54:43Z</time></trkpt><trkpt lat="42.14075197907002" lon="12.129309314807426"><ele>414.0</ele><time>2026-04-11T09:54:44Z</time></trkpt><trkpt lat="42.140655482879005" lon="12.129120181618939"><ele>413.0</ele><time>2026-04-11T09:54:45Z</time></trkpt><trkpt lat="42.14055145005123" lon="12.128940153871064"><ele>412.0</ele><time>2026-04-11T09:54:46Z</time></trkpt><trkpt lat="42.140437266104314" lon="12.128772386269922"><ele>411.0</ele><time>2026-04-11T09:54:47Z</time></trkpt><trkpt lat="42.14031326222523" lon="12.128630430847103"><ele>411.0</ele><time>2026-04-11T09:54:48Z</time></trkpt><trkpt lat="42.140171728064004" lon="12.128510310439763"><ele>411.0</ele><time>2026-04-11T09:54:49Z</time></trkpt><trkpt lat="42.14000851018345" lon="12.128418951795986"><ele>411.0</ele><time>2026-04-11T09:54:50Z</time></trkpt><trkpt lat="42.13981493347407" lon="12.12833385318393"><ele>408.5</ele><time>2026-04-11T09:54:51Z</time></trkpt><trkpt lat="42.13960389139423" lon="12.12824622294903"><ele>406.0</ele><time>2026-04-11T09:54:52Z</time></trkpt><trkpt lat="42.13937781672673" lon="12.128155206621624"><ele>405.6666666666667</ele><time>2026-04-11T09:54:53Z</time></trkpt><trkpt lat="42.13916242531288" lon="12.128068945138757"><ele>405.33333333333337</ele><time>2026-04-11T09:54:54Z</time></trkpt><trkpt lat="42.13894941574732" lon="12.127988394283802"><ele>405.0</ele><time>2026-04-11T09:54:55Z</time></trkpt><trkpt lat="42.13873356447348" lon="12.127907438719298"><ele>405.0</ele><time>2026-04-11T09:54:56Z</time></trkpt><trkpt lat="42.13853143079961" lon="12.127827316827275"><ele>405.0</ele><time>2026-04-11T09:54:57Z</time></trkpt><trkpt lat="42.13834613252619" lon="12.127755900986312"><ele>405.0</ele><time>2026-04-11T09:54:58Z</time></trkpt><trkpt lat="42.138136666332166" lon="12.12768909205651"><ele>400.5</ele><time>2026-04-11T09:54:59Z</time></trkpt><trkpt lat="42.13791786503242" lon="12.127615483967576"><ele>396.0</ele><time>2026-04-11T09:55:00Z</time></trkpt><trkpt lat="42.13769405550716" lon="12.127517162953025"><ele>396.0</ele><time>2026-04-11T09:55:01Z</time></trkpt><trkpt lat="42.13745905144444" lon="12.127415323861829"><ele>396.0</ele><time>2026-04-11T09:55:02Z</time></trkpt><trkpt lat="42.13722523041776" lon="12.127336798313555"><ele>397.66666666666663</ele><time>2026-04-11T09:55:03Z</time></trkpt><trkpt lat="42.13700729348367" lon="12.127254509349399"><ele>399.3333333333333</ele><time>2026-04-11T09:55:04Z</time></trkpt><trkpt lat="42.13680669487739" lon="12.127179336587481"><ele>401.0</ele><time>2026-04-11T09:55:05Z</time></trkpt><trkpt lat="42.13661052924233" lon="12.127106952464208"><ele>398.66666666666663</ele><time>2026-04-11T09:55:06Z</time></trkpt><trkpt lat="42.136400279532516" lon="12.127031700370752"><ele>396.33333333333337</ele><time>2026-04-11T09:55:07Z</time></trkpt><trkpt lat="42.13617662937468" lon="12.126959044111391"><ele>394.0</ele><time>2026-04-11T09:55:08Z</time></trkpt><trkpt lat="42.13594951834566" lon="12.126896365383226"><ele>394.0</ele><time>2026-04-11T09:55:09Z</time></trkpt><trkpt lat="42.135737542732784" lon="12.126829390417912"><ele>394.0</ele><time>2026-04-11T09:55:10Z</time></trkpt><trkpt lat="42.135536916685965" lon="12.126759240820729"><ele>394.0</ele><time>2026-04-11T09:55:11Z</time></trkpt><trkpt lat="42.13535805262726" lon="12.126700119679263"><ele>391.6666666666667</ele><time>2026-04-11T09:55:12Z</time></trkpt><trkpt lat="42.13518184012596" lon="12.126652861022615"><ele>389.33333333333337</ele><time>2026-04-11T09:55:13Z</time></trkpt><trkpt lat="42.13501225240989" lon="12.12660560347715"><ele>387.0</ele><time>2026-04-11T09:55:14Z</time></trkpt><trkpt lat="42.134864968212355" lon="12.126564761599006"><ele>383.6666666666667</ele><time>2026-04-11T09:55:15Z</time></trkpt><trkpt lat="42.13472063836829" lon="12.126526681705522"><ele>380.33333333333337</ele><time>2026-04-11T09:55:16Z</time></trkpt><trkpt lat="42.1345374247087" lon="12.12646156083532"><ele>377.0</ele><time>2026-04-11T09:55:17Z</time></trkpt><trkpt lat="42.13438028864668" lon="12.126416277873176"><ele>377.0</ele><time>2026-04-11T09:55:18Z</time></trkpt><trkpt lat="42.13423837593607" lon="12.12637364878978"><ele>377.0</ele><time>2026-04-11T09:55:19Z</time></trkpt><trkpt lat="42.13409511517748" lon="12.12633004768924"><ele>377.0</ele><time>2026-04-11T09:55:20Z</time></trkpt><trkpt lat="42.13395141359504" lon="12.126297884362764"><ele>377.0</ele><time>2026-04-11T09:55:21Z</time></trkpt><trkpt lat="42.13381262945483" lon="12.126279336122822"><ele>376.25</ele><time>2026-04-11T09:55:22Z</time></trkpt><trkpt lat="42.133675126124565" lon="12.126281775608057"><ele>375.5</ele><time>2026-04-11T09:55:23Z</time></trkpt><trkpt lat="42.13354410240372" lon="12.126312824668242"><ele>374.75</ele><time>2026-04-11T09:55:24Z</time></trkpt><trkpt lat="42.133404200712825" lon="12.1263431994244"><ele>374.0</ele><time>2026-04-11T09:55:25Z</time></trkpt><trkpt lat="42.13325393237034" lon="12.126367032232233"><ele>372.33333333333337</ele><time>2026-04-11T09:55:26Z</time></trkpt><trkpt lat="42.13308295612281" lon="12.126388267375795"><ele>370.6666666666667</ele><time>2026-04-11T09:55:27Z</time></trkpt><trkpt lat="42.13291388749621" lon="12.126415744426783"><ele>369.0</ele><time>2026-04-11T09:55:28Z</time></trkpt><trkpt lat="42.132761526961936" lon="12.126427289165843"><ele>369.0</ele><time>2026-04-11T09:55:29Z</time></trkpt><trkpt lat="42.132623068541434" lon="12.126430157976014"><ele>369.0</ele><time>2026-04-11T09:55:30Z</time></trkpt><trkpt lat="42.1324992640834" lon="12.126438248101332"><ele>369.0</ele><time>2026-04-11T09:55:31Z</time></trkpt><trkpt lat="42.13235348569034" lon="12.126450114136436"><ele>369.0</ele><time>2026-04-11T09:55:32Z</time></trkpt><trkpt lat="42.132194129781084" lon="12.126460715029694"><ele>369.0</ele><time>2026-04-11T09:55:33Z</time></trkpt><trkpt lat="42.13207367446627" lon="12.12647769351655"><ele>369.0</ele><time>2026-04-11T09:55:34Z</time></trkpt><trkpt lat="42.132003833521686" lon="12.12649507041416"><ele>369.0</ele><time>2026-04-11T09:55:35Z</time></trkpt><trkpt lat="42.13187124526175" lon="12.126505283946118"><ele>369.0</ele><time>2026-04-11T09:55:38Z</time></trkpt><trkpt lat="42.13175296856247" lon="12.126532146589872"><ele>369.0</ele><time>2026-04-11T09:55:39Z</time></trkpt><trkpt lat="42.1316010218491" lon="12.126570491238365"><ele>367.6666666666667</ele><time>2026-04-11T09:55:40Z</time></trkpt><trkpt lat="42.13145979330769" lon="12.12658770578827"><ele>366.33333333333337</ele><time>2026-04-11T09:55:41Z</time></trkpt><trkpt lat="42.13131550775947" lon="12.126607062506734"><ele>365.0</ele><time>2026-04-11T09:55:42Z</time></trkpt><trkpt lat="42.13115204081711" lon="12.126637232359059"><ele>365.0</ele><time>2026-04-11T09:55:43Z</time></trkpt><trkpt lat="42.13096452544464" lon="12.126662732290537"><ele>365.0</ele><time>2026-04-11T09:55:44Z</time></trkpt><trkpt lat="42.13076454836" lon="12.126683578580929"><ele>365.0</ele><time>2026-04-11T09:55:45Z</time></trkpt><trkpt lat="42.13057739196262" lon="12.126693110939048"><ele>364.33333333333337</ele><time>2026-04-11T09:55:46Z</time></trkpt><trkpt lat="42.130403602679195" lon="12.126710193556535"><ele>363.6666666666667</ele><time>2026-04-11T09:55:47Z</time></trkpt><trkpt lat="42.13024494189913" lon="12.12672281769875"><ele>363.0</ele><time>2026-04-11T09:55:48Z</time></trkpt><trkpt lat="42.13008647809553" lon="12.126745515560682"><ele>363.0</ele><time>2026-04-11T09:55:49Z</time></trkpt><trkpt lat="42.12993990278722" lon="12.126757195262298"><ele>363.0</ele><time>2026-04-11T09:55:50Z</time></trkpt><trkpt lat="42.129787136875926" lon="12.126751579484901"><ele>363.0</ele><time>2026-04-11T09:55:51Z</time></trkpt><trkpt lat="42.12965369928211" lon="12.126723728415257"><ele>363.0</ele><time>2026-04-11T09:55:52Z</time></trkpt><trkpt lat="42.129511752033196" lon="12.126698677339094"><ele>362.25</ele><time>2026-04-11T09:55:53Z</time></trkpt><trkpt lat="42.12937107731259" lon="12.12665838286591"><ele>361.5</ele><time>2026-04-11T09:55:54Z</time></trkpt><trkpt lat="42.129242427851146" lon="12.12661868142327"><ele>360.75</ele><time>2026-04-11T09:55:55Z</time></trkpt><trkpt lat="42.129120909023285" lon="12.1265756462841"><ele>360.0</ele><time>2026-04-11T09:55:56Z</time></trkpt><trkpt lat="42.12899275861357" lon="12.126533587565788"><ele>358.6666666666667</ele><time>2026-04-11T09:55:57Z</time></trkpt><trkpt lat="42.128850324580554" lon="12.126488968299133"><ele>357.33333333333337</ele><time>2026-04-11T09:55:58Z</time></trkpt><trkpt lat="42.128700667016474" lon="12.126432548344962"><ele>356.0</ele><time>2026-04-11T09:55:59Z</time></trkpt><trkpt lat="42.1285333205447" lon="12.126370934884328"><ele>356.0</ele><time>2026-04-11T09:56:00Z</time></trkpt><trkpt lat="42.1283613843201" lon="12.126307819221152"><ele>356.0</ele><time>2026-04-11T09:56:01Z</time></trkpt><trkpt lat="42.128204847335326" lon="12.126231113426119"><ele>356.0</ele><time>2026-04-11T09:56:02Z</time></trkpt><trkpt lat="42.128045618833326" lon="12.126124504626551"><ele>355.33333333333337</ele><time>2026-04-11T09:56:03Z</time></trkpt><trkpt lat="42.12790390980548" lon="12.126003046838152"><ele>354.6666666666667</ele><time>2026-04-11T09:56:04Z</time></trkpt><trkpt lat="42.12777433896958" lon="12.125878172055312"><ele>354.0</ele><time>2026-04-11T09:56:05Z</time></trkpt><trkpt lat="42.12765221641456" lon="12.125764365218831"><ele>353.75</ele><time>2026-04-11T09:56:06Z</time></trkpt><trkpt lat="42.12754381547809" lon="12.125654869881506"><ele>353.5</ele><time>2026-04-11T09:56:07Z</time></trkpt><trkpt lat="42.12743592403588" lon="12.125551730889512"><ele>353.25</ele><time>2026-04-11T09:56:08Z</time></trkpt><trkpt lat="42.12731771839916" lon="12.125436629305883"><ele>353.0</ele><time>2026-04-11T09:56:09Z</time></trkpt><trkpt lat="42.127197613815795" lon="12.125301406625635"><ele>353.6666666666667</ele><time>2026-04-11T09:56:10Z</time></trkpt><trkpt lat="42.1270649461304" lon="12.125151836369769"><ele>354.3333333333333</ele><time>2026-04-11T09:56:11Z</time></trkpt><trkpt lat="42.12693444166338" lon="12.125019618801101"><ele>355.0</ele><time>2026-04-11T09:56:12Z</time></trkpt><trkpt lat="42.12680931434407" lon="12.12490136321038"><ele>355.0</ele><time>2026-04-11T09:56:13Z</time></trkpt><trkpt lat="42.12670340225853" lon="12.124790461969674"><ele>355.0</ele><time>2026-04-11T09:56:14Z</time></trkpt><trkpt lat="42.12659976896186" lon="12.124683826285247"><ele>355.0</ele><time>2026-04-11T09:56:15Z</time></trkpt><trkpt lat="42.12650379705962" lon="12.124578787490535"><ele>355.0</ele><time>2026-04-11T09:56:16Z</time></trkpt><trkpt lat="42.12640679685033" lon="12.124476614985591"><ele>355.0</ele><time>2026-04-11T09:56:17Z</time></trkpt><trkpt lat="42.126317088358896" lon="12.124385043500732"><ele>355.0</ele><time>2026-04-11T09:56:18Z</time></trkpt><trkpt lat="42.126233665415455" lon="12.124297619894211"><ele>355.0</ele><time>2026-04-11T09:56:19Z</time></trkpt><trkpt lat="42.1261396400892" lon="12.124194175826855"><ele>355.0</ele><time>2026-04-11T09:56:20Z</time></trkpt><trkpt lat="42.126035528161104" lon="12.124090164921787"><ele>355.0</ele><time>2026-04-11T09:56:21Z</time></trkpt><trkpt lat="42.12590779650608" lon="12.123968507023115"><ele>355.0</ele><time>2026-04-11T09:56:22Z</time></trkpt><trkpt lat="42.125745843579175" lon="12.12383956506462"><ele>355.0</ele><time>2026-04-11T09:56:23Z</time></trkpt><trkpt lat="42.125572446735575" lon="12.12369817737056"><ele>355.0</ele><time>2026-04-11T09:56:24Z</time></trkpt><trkpt lat="42.12540696928819" lon="12.123569976798189"><ele>355.0</ele><time>2026-04-11T09:56:25Z</time></trkpt><trkpt lat="42.12525107285559" lon="12.12348046704455"><ele>355.0</ele><time>2026-04-11T09:56:26Z</time></trkpt><trkpt lat="42.12512496868484" lon="12.123407003458853"><ele>355.0</ele><time>2026-04-11T09:56:27Z</time></trkpt><trkpt lat="42.1250067652483" lon="12.12333239310786"><ele>355.0</ele><time>2026-04-11T09:56:28Z</time></trkpt><trkpt lat="42.12489008456658" lon="12.123261212746112"><ele>355.0</ele><time>2026-04-11T09:56:29Z</time></trkpt><trkpt lat="42.12476437863944" lon="12.12318231602099"><ele>355.0</ele><time>2026-04-11T09:56:30Z</time></trkpt><trkpt lat="42.12460105498683" lon="12.123090718940897"><ele>356.66666666666663</ele><time>2026-04-11T09:56:31Z</time></trkpt><trkpt lat="42.124412732675516" lon="12.122995822425722"><ele>358.3333333333333</ele><time>2026-04-11T09:56:32Z</time></trkpt><trkpt lat="42.12423844097655" lon="12.122919056825681"><ele>360.0</ele><time>2026-04-11T09:56:33Z</time></trkpt><trkpt lat="42.124066621773615" lon="12.122888046524572"><ele>362.0</ele><time>2026-04-11T09:56:34Z</time></trkpt><trkpt lat="42.123896824870684" lon="12.122875807853639"><ele>364.0</ele><time>2026-04-11T09:56:35Z</time></trkpt><trkpt lat="42.12375296366808" lon="12.122873977176226"><ele>366.0</ele><time>2026-04-11T09:56:36Z</time></trkpt><trkpt lat="42.12362289934788" lon="12.12289910803282"><ele>368.0</ele><time>2026-04-11T09:56:37Z</time></trkpt><trkpt lat="42.1235055741821" lon="12.12292914406755"><ele>368.0</ele><time>2026-04-11T09:56:38Z</time></trkpt><trkpt lat="42.123375322880555" lon="12.122984862520303"><ele>368.0</ele><time>2026-04-11T09:56:39Z</time></trkpt><trkpt lat="42.123215488704034" lon="12.1230538136256"><ele>368.0</ele><time>2026-04-11T09:56:40Z</time></trkpt><trkpt lat="42.12301904823853" lon="12.123168013653705"><ele>369.0</ele><time>2026-04-11T09:56:41Z</time></trkpt><trkpt lat="42.12282932022893" lon="12.123324998728947"><ele>370.0</ele><time>2026-04-11T09:56:42Z</time></trkpt><trkpt lat="42.12264762506154" lon="12.123526738818057"><ele>370.0</ele><time>2026-04-11T09:56:43Z</time></trkpt><trkpt lat="42.122484585193504" lon="12.123739233132014"><ele>370.0</ele><time>2026-04-11T09:56:44Z</time></trkpt><trkpt lat="42.122325848394006" lon="12.123949141830671"><ele>370.0</ele><time>2026-04-11T09:56:45Z</time></trkpt><trkpt lat="42.122164806159944" lon="12.12415188737318"><ele>369.3333333333333</ele><time>2026-04-11T09:56:46Z</time></trkpt><trkpt lat="42.121998498733845" lon="12.124360621076702"><ele>368.6666666666667</ele><time>2026-04-11T09:56:47Z</time></trkpt><trkpt lat="42.121845263855334" lon="12.124562808031223"><ele>368.0</ele><time>2026-04-11T09:56:48Z</time></trkpt><trkpt lat="42.12169092083528" lon="12.124748493394927"><ele>369.0</ele><time>2026-04-11T09:56:49Z</time></trkpt><trkpt lat="42.12156479303955" lon="12.124879381171935"><ele>370.0</ele><time>2026-04-11T09:56:50Z</time></trkpt><trkpt lat="42.12145740779462" lon="12.125005427000538"><ele>371.0</ele><time>2026-04-11T09:56:51Z</time></trkpt><trkpt lat="42.121361948345395" lon="12.12515449763311"><ele>372.0</ele><time>2026-04-11T09:56:52Z</time></trkpt><trkpt lat="42.12124147668351" lon="12.125326894111778"><ele>369.3333333333333</ele><time>2026-04-11T09:56:53Z</time></trkpt><trkpt lat="42.1211273362461" lon="12.125494481932067"><ele>366.66666666666663</ele><time>2026-04-11T09:56:54Z</time></trkpt><trkpt lat="42.1210125645025" lon="12.125627899387503"><ele>364.0</ele><time>2026-04-11T09:56:55Z</time></trkpt><trkpt lat="42.12089898260792" lon="12.125733417383726"><ele>362.0</ele><time>2026-04-11T09:56:56Z</time></trkpt><trkpt lat="42.12079060698525" lon="12.125815644686083"><ele>360.0</ele><time>2026-04-11T09:56:57Z</time></trkpt><trkpt lat="42.120686278692226" lon="12.125872836558628"><ele>358.0</ele><time>2026-04-11T09:56:58Z</time></trkpt><trkpt lat="42.120553143968955" lon="12.125914565568378"><ele>356.0</ele><time>2026-04-11T09:56:59Z</time></trkpt><trkpt lat="42.120393692784404" lon="12.125943814313853"><ele>355.33333333333337</ele><time>2026-04-11T09:57:00Z</time></trkpt><trkpt lat="42.120243397941906" lon="12.125961232756694"><ele>354.6666666666667</ele><time>2026-04-11T09:57:01Z</time></trkpt><trkpt lat="42.12008304654774" lon="12.125958288091967"><ele>354.0</ele><time>2026-04-11T09:57:02Z</time></trkpt><trkpt lat="42.11992169011977" lon="12.125934557253505"><ele>352.3333333333333</ele><time>2026-04-11T09:57:03Z</time></trkpt><trkpt lat="42.11974191731" lon="12.125890699009988"><ele>350.66666666666663</ele><time>2026-04-11T09:57:04Z</time></trkpt><trkpt lat="42.11952703342436" lon="12.12583709744102"><ele>349.0</ele><time>2026-04-11T09:57:05Z</time></trkpt><trkpt lat="42.11928730038112" lon="12.12575700683978"><ele>350.3333333333333</ele><time>2026-04-11T09:57:06Z</time></trkpt><trkpt lat="42.119072331461126" lon="12.125684350284523"><ele>351.6666666666667</ele><time>2026-04-11T09:57:07Z</time></trkpt><trkpt lat="42.11887695999943" lon="12.125620684232747"><ele>353.0</ele><time>2026-04-11T09:57:08Z</time></trkpt><trkpt lat="42.11869538227029" lon="12.125567743810373"><ele>353.0</ele><time>2026-04-11T09:57:09Z</time></trkpt><trkpt lat="42.118513669405935" lon="12.125524946223015"><ele>353.0</ele><time>2026-04-11T09:57:10Z</time></trkpt><trkpt lat="42.11834215799796" lon="12.125484628423239"><ele>353.0</ele><time>2026-04-11T09:57:11Z</time></trkpt><trkpt lat="42.11817609179436" lon="12.12543634626474"><ele>351.33333333333337</ele><time>2026-04-11T09:57:12Z</time></trkpt><trkpt lat="42.11800764869855" lon="12.125381606217228"><ele>349.6666666666667</ele><time>2026-04-11T09:57:13Z</time></trkpt><trkpt lat="42.11780706303065" lon="12.125331267774659"><ele>348.0</ele><time>2026-04-11T09:57:14Z</time></trkpt><trkpt lat="42.11758950517508" lon="12.125277809161862"><ele>343.0</ele><time>2026-04-11T09:57:15Z</time></trkpt><trkpt lat="42.117348958955226" lon="12.125200764997837"><ele>338.0</ele><time>2026-04-11T09:57:16Z</time></trkpt><trkpt lat="42.11712326805215" lon="12.125127792942509"><ele>338.0</ele><time>2026-04-11T09:57:17Z</time></trkpt><trkpt lat="42.11691710794494" lon="12.125067761378721"><ele>338.0</ele><time>2026-04-11T09:57:18Z</time></trkpt><trkpt lat="42.11673181337937" lon="12.1250141537977"><ele>338.0</ele><time>2026-04-11T09:57:19Z</time></trkpt><trkpt lat="42.11655837954278" lon="12.124957460601726"><ele>336.6666666666667</ele><time>2026-04-11T09:57:20Z</time></trkpt><trkpt lat="42.116366727179134" lon="12.124913422149634"><ele>335.3333333333333</ele><time>2026-04-11T09:57:21Z</time></trkpt><trkpt lat="42.11618084656456" lon="12.124869437728922"><ele>334.0</ele><time>2026-04-11T09:57:22Z</time></trkpt><trkpt lat="42.1160062002941" lon="12.124826236611508"><ele>333.3333333333333</ele><time>2026-04-11T09:57:23Z</time></trkpt><trkpt lat="42.11583849709043" lon="12.12478588481424"><ele>332.6666666666667</ele><time>2026-04-11T09:57:24Z</time></trkpt><trkpt lat="42.11568114938612" lon="12.124743275334476"><ele>332.0</ele><time>2026-04-11T09:57:25Z</time></trkpt><trkpt lat="42.115521614519295" lon="12.124695271410447"><ele>331.33333333333337</ele><time>2026-04-11T09:57:26Z</time></trkpt><trkpt lat="42.11535207252338" lon="12.124645972678492"><ele>330.6666666666667</ele><time>2026-04-11T09:57:27Z</time></trkpt><trkpt lat="42.11516425981479" lon="12.124600996854427"><ele>330.0</ele><time>2026-04-11T09:57:28Z</time></trkpt><trkpt lat="42.1149491911837" lon="12.124549125992255"><ele>331.0</ele><time>2026-04-11T09:57:29Z</time></trkpt><trkpt lat="42.114725111608855" lon="12.124482892566377"><ele>332.0</ele><time>2026-04-11T09:57:30Z</time></trkpt><trkpt lat="42.11450841622375" lon="12.124432166838728"><ele>333.0</ele><time>2026-04-11T09:57:31Z</time></trkpt><trkpt lat="42.11428004046388" lon="12.12442578868839"><ele>332.6666666666667</ele><time>2026-04-11T09:57:32Z</time></trkpt><trkpt lat="42.11406299666543" lon="12.124456143835415"><ele>332.33333333333337</ele><time>2026-04-11T09:57:32.999Z</time></trkpt><trkpt lat="42.11387425819826" lon="12.124515296728337"><ele>332.0</ele><time>2026-04-11T09:57:33.999Z</time></trkpt><trkpt lat="42.11370015810131" lon="12.12458779867896"><ele>332.0</ele><time>2026-04-11T09:57:34.999Z</time></trkpt><trkpt lat="42.11353900830668" lon="12.124681299731106"><ele>332.0</ele><time>2026-04-11T09:57:35.999Z</time></trkpt><trkpt lat="42.11338893533941" lon="12.124800071985197"><ele>332.0</ele><time>2026-04-11T09:57:36.999Z</time></trkpt><trkpt lat="42.113244386123206" lon="12.124935665843935"><ele>336.0</ele><time>2026-04-11T09:57:37.999Z</time></trkpt><trkpt lat="42.11308342815606" lon="12.125072823927296"><ele>340.0</ele><time>2026-04-11T09:57:38.999Z</time></trkpt><trkpt lat="42.112907840001895" lon="12.125225796432314"><ele>344.0</ele><time>2026-04-11T09:57:39.999Z</time></trkpt><trkpt lat="42.112709068420074" lon="12.125403226034356"><ele>344.0</ele><time>2026-04-11T09:57:40.999Z</time></trkpt><trkpt lat="42.112495891982945" lon="12.125603447401417"><ele>344.0</ele><time>2026-04-11T09:57:41.999Z</time></trkpt><trkpt lat="42.1122620634822" lon="12.125794121361679"><ele>349.5</ele><time>2026-04-11T09:57:42.999Z</time></trkpt><trkpt lat="42.11205351185137" lon="12.125980308582221"><ele>355.0</ele><time>2026-04-11T09:57:43.999Z</time></trkpt><trkpt lat="42.111881840617805" lon="12.126146486318138"><ele>355.0</ele><time>2026-04-11T09:57:44.999Z</time></trkpt><trkpt lat="42.11170340118926" lon="12.126297344419648"><ele>355.0</ele><time>2026-04-11T09:57:45.999Z</time></trkpt><trkpt lat="42.111524944605186" lon="12.126452144800885"><ele>355.0</ele><time>2026-04-11T09:57:46.999Z</time></trkpt><trkpt lat="42.111332468777285" lon="12.126624757311633"><ele>350.5</ele><time>2026-04-11T09:57:47.999Z</time></trkpt><trkpt lat="42.1111193018264" lon="12.126809299748952"><ele>346.0</ele><time>2026-04-11T09:57:48.999Z</time></trkpt><trkpt lat="42.11089587562847" lon="12.127007854219219"><ele>346.0</ele><time>2026-04-11T09:57:49.999Z</time></trkpt><trkpt lat="42.11066166340031" lon="12.127208170331887"><ele>346.0</ele><time>2026-04-11T09:57:50.999Z</time></trkpt><trkpt lat="42.1104475091966" lon="12.127412204944397"><ele>347.0</ele><time>2026-04-11T09:57:51.999Z</time></trkpt><trkpt lat="42.11024425596658" lon="12.127625916347718"><ele>348.0</ele><time>2026-04-11T09:57:52.999Z</time></trkpt><trkpt lat="42.110053690388085" lon="12.127854796571773"><ele>349.0</ele><time>2026-04-11T09:57:53.999Z</time></trkpt><trkpt lat="42.10986442457342" lon="12.128121281406752"><ele>350.0</ele><time>2026-04-11T09:57:54.999Z</time></trkpt><trkpt lat="42.10969141860443" lon="12.128412569896257"><ele>351.5</ele><time>2026-04-11T09:57:55.999Z</time></trkpt><trkpt lat="42.10954389527223" lon="12.128709385580805"><ele>353.0</ele><time>2026-04-11T09:57:56.999Z</time></trkpt><trkpt lat="42.10941947548084" lon="12.129019644188276"><ele>354.0</ele><time>2026-04-11T09:57:58Z</time></trkpt><trkpt lat="42.10929224365356" lon="12.129326583563401"><ele>355.0</ele><time>2026-04-11T09:57:59Z</time></trkpt><trkpt lat="42.10920996345799" lon="12.129652931227973"><ele>355.0</ele><time>2026-04-11T09:58:00Z</time></trkpt><trkpt lat="42.10913090121244" lon="12.129970700652505"><ele>355.0</ele><time>2026-04-11T09:58:01Z</time></trkpt><trkpt lat="42.10907049867428" lon="12.130288721386538"><ele>352.5</ele><time>2026-04-11T09:58:02Z</time></trkpt><trkpt lat="42.10901332214646" lon="12.13062916440566"><ele>350.0</ele><time>2026-04-11T09:58:03Z</time></trkpt><trkpt lat="42.108982206093124" lon="12.131003118184806"><ele>350.0</ele><time>2026-04-11T09:58:04Z</time></trkpt><trkpt lat="42.1089501044418" lon="12.131398232013545"><ele>350.0</ele><time>2026-04-11T09:58:05Z</time></trkpt><trkpt lat="42.108922818835865" lon="12.13177857059149"><ele>352.0</ele><time>2026-04-11T09:58:06Z</time></trkpt><trkpt lat="42.10898063476607" lon="12.13215799117634"><ele>354.0</ele><time>2026-04-11T09:58:07Z</time></trkpt><trkpt lat="42.10895178125194" lon="12.132531893750034"><ele>356.0</ele><time>2026-04-11T09:58:08Z</time></trkpt><trkpt lat="42.108896909348005" lon="12.132897628362032"><ele>358.0</ele><time>2026-04-11T09:58:09Z</time></trkpt><trkpt lat="42.10881387962588" lon="12.133261192061747"><ele>353.5</ele><time>2026-04-11T09:58:10Z</time></trkpt><trkpt lat="42.108698433797656" lon="12.133628779059348"><ele>349.0</ele><time>2026-04-11T09:58:11Z</time></trkpt><trkpt lat="42.10856693170739" lon="12.13399849862113"><ele>346.5</ele><time>2026-04-11T09:58:12Z</time></trkpt><trkpt lat="42.10843896517736" lon="12.134364628941269"><ele>344.0</ele><time>2026-04-11T09:58:13Z</time></trkpt><trkpt lat="42.10833874862933" lon="12.134719635435697"><ele>344.0</ele><time>2026-04-11T09:58:14Z</time></trkpt><trkpt lat="42.10828088430136" lon="12.135091508844337"><ele>344.0</ele><time>2026-04-11T09:58:15Z</time></trkpt><trkpt lat="42.10825985383995" lon="12.135496063270008"><ele>345.0</ele><time>2026-04-11T09:58:16Z</time></trkpt><trkpt lat="42.108251487480274" lon="12.1359051468844"><ele>346.0</ele><time>2026-04-11T09:58:17Z</time></trkpt><trkpt lat="42.108244811698306" lon="12.136286810553596"><ele>349.5</ele><time>2026-04-11T09:58:18Z</time></trkpt><trkpt lat="42.10824298528277" lon="12.136619279755381"><ele>353.0</ele><time>2026-04-11T09:58:19Z</time></trkpt><trkpt lat="42.10823073323115" lon="12.136945646511842"><ele>353.0</ele><time>2026-04-11T09:58:20Z</time></trkpt><trkpt lat="42.10821484215432" lon="12.137265780091578"><ele>353.0</ele><time>2026-04-11T09:58:21Z</time></trkpt><trkpt lat="42.108170576040195" lon="12.137596480598651"><ele>355.0</ele><time>2026-04-11T09:58:22Z</time></trkpt><trkpt lat="42.108086453980945" lon="12.13793429720709"><ele>357.0</ele><time>2026-04-11T09:58:23Z</time></trkpt><trkpt lat="42.10798987075445" lon="12.138264708865382"><ele>357.0</ele><time>2026-04-11T09:58:24Z</time></trkpt><trkpt lat="42.10789368487396" lon="12.138612822921274"><ele>357.0</ele><time>2026-04-11T09:58:25Z</time></trkpt><trkpt lat="42.10779381594316" lon="12.138979222153113"><ele>356.5</ele><time>2026-04-11T09:58:26Z</time></trkpt><trkpt lat="42.10771044582634" lon="12.139321273246315"><ele>356.0</ele><time>2026-04-11T09:58:27Z</time></trkpt><trkpt lat="42.10765707741894" lon="12.139642556318014"><ele>354.5</ele><time>2026-04-11T09:58:28Z</time></trkpt><trkpt lat="42.1076416158874" lon="12.139961428023163"><ele>353.0</ele><time>2026-04-11T09:58:29Z</time></trkpt><trkpt lat="42.10766688262036" lon="12.140286266227287"><ele>353.0</ele><time>2026-04-11T09:58:30Z</time></trkpt><trkpt lat="42.107720322385696" lon="12.140634181699772"><ele>353.0</ele><time>2026-04-11T09:58:31Z</time></trkpt><trkpt lat="42.107795447254276" lon="12.1409945824726"><ele>352.0</ele><time>2026-04-11T09:58:32Z</time></trkpt><trkpt lat="42.107866779647566" lon="12.141352182643026"><ele>351.0</ele><time>2026-04-11T09:58:33Z</time></trkpt><trkpt lat="42.10792069920525" lon="12.141690792056009"><ele>351.0</ele><time>2026-04-11T09:58:34Z</time></trkpt><trkpt lat="42.107959006736095" lon="12.142028552795086"><ele>351.0</ele><time>2026-04-11T09:58:35Z</time></trkpt><trkpt lat="42.107988467507106" lon="12.142373676944999"><ele>350.0</ele><time>2026-04-11T09:58:36Z</time></trkpt><trkpt lat="42.107985373664675" lon="12.142747475095538"><ele>349.0</ele><time>2026-04-11T09:58:37Z</time></trkpt><trkpt lat="42.107974785544116" lon="12.143089041575777"><ele>346.0</ele><time>2026-04-11T09:58:38Z</time></trkpt><trkpt lat="42.10797466653422" lon="12.143410832434316"><ele>343.0</ele><time>2026-04-11T09:58:39Z</time></trkpt><trkpt lat="42.10796214593296" lon="12.143718700300344"><ele>343.0</ele><time>2026-04-11T09:58:40Z</time></trkpt><trkpt lat="42.10791017262554" lon="12.144016135438527"><ele>343.0</ele><time>2026-04-11T09:58:41Z</time></trkpt><trkpt lat="42.10782801364511" lon="12.1443335333275"><ele>342.5</ele><time>2026-04-11T09:58:42Z</time></trkpt><trkpt lat="42.10773781595235" lon="12.144676691352949"><ele>342.0</ele><time>2026-04-11T09:58:43Z</time></trkpt><trkpt lat="42.107651583474606" lon="12.145032605002063"><ele>342.0</ele><time>2026-04-11T09:58:44Z</time></trkpt><trkpt lat="42.10757960890703" lon="12.145384343800409"><ele>342.0</ele><time>2026-04-11T09:58:45Z</time></trkpt><trkpt lat="42.10752662064077" lon="12.145751455279397"><ele>339.5</ele><time>2026-04-11T09:58:46Z</time></trkpt><trkpt lat="42.10748532020419" lon="12.14613920378792"><ele>337.0</ele><time>2026-04-11T09:58:47Z</time></trkpt><trkpt lat="42.107443218503334" lon="12.146537144623247"><ele>332.5</ele><time>2026-04-11T09:58:48Z</time></trkpt><trkpt lat="42.107402551844274" lon="12.146904755780334"><ele>328.0</ele><time>2026-04-11T09:58:49Z</time></trkpt><trkpt lat="42.107364434747794" lon="12.147255327997092"><ele>327.0</ele><time>2026-04-11T09:58:50Z</time></trkpt><trkpt lat="42.10732766096684" lon="12.147587467982499"><ele>326.0</ele><time>2026-04-11T09:58:51Z</time></trkpt><trkpt lat="42.10728488874252" lon="12.147902706609694"><ele>326.0</ele><time>2026-04-11T09:58:52Z</time></trkpt><trkpt lat="42.107223260140344" lon="12.148205703694256"><ele>326.0</ele><time>2026-04-11T09:58:53Z</time></trkpt><trkpt lat="42.10713287479564" lon="12.148527374437759"><ele>324.5</ele><time>2026-04-11T09:58:54Z</time></trkpt><trkpt lat="42.10702064593832" lon="12.14885537634552"><ele>323.0</ele><time>2026-04-11T09:58:55Z</time></trkpt><trkpt lat="42.106906519833394" lon="12.149174609765332"><ele>323.0</ele><time>2026-04-11T09:58:56Z</time></trkpt><trkpt lat="42.10680062978658" lon="12.149489917766251"><ele>323.0</ele><time>2026-04-11T09:58:57Z</time></trkpt><trkpt lat="42.10670153922" lon="12.149807027883202"><ele>322.0</ele><time>2026-04-11T09:58:58Z</time></trkpt><trkpt lat="42.106604732320484" lon="12.150104699300037"><ele>321.0</ele><time>2026-04-11T09:58:59Z</time></trkpt><trkpt lat="42.106509751191695" lon="12.150370543680554"><ele>320.6666666666667</ele><time>2026-04-11T09:59:00Z</time></trkpt><trkpt lat="42.106414066512386" lon="12.15060109546159"><ele>320.33333333333337</ele><time>2026-04-11T09:59:01Z</time></trkpt><trkpt lat="42.10629979616614" lon="12.150796657444417"><ele>320.0</ele><time>2026-04-11T09:59:02Z</time></trkpt><trkpt lat="42.106161662986416" lon="12.150951287234074"><ele>318.33333333333337</ele><time>2026-04-11T09:59:03Z</time></trkpt><trkpt lat="42.106011490224574" lon="12.151070135771187"><ele>316.6666666666667</ele><time>2026-04-11T09:59:04Z</time></trkpt><trkpt lat="42.10586197953641" lon="12.15115431804631"><ele>315.0</ele><time>2026-04-11T09:59:05Z</time></trkpt><trkpt lat="42.10572893191839" lon="12.151230863074721"><ele>314.5</ele><time>2026-04-11T09:59:06Z</time></trkpt><trkpt lat="42.10561031425923" lon="12.15131999313544"><ele>314.0</ele><time>2026-04-11T09:59:07Z</time></trkpt><trkpt lat="42.105505487943624" lon="12.151414284777047"><ele>313.5</ele><time>2026-04-11T09:59:08Z</time></trkpt><trkpt lat="42.105417842514974" lon="12.151532407837335"><ele>313.0</ele><time>2026-04-11T09:59:09Z</time></trkpt><trkpt lat="42.105341436628244" lon="12.151683742987109"><ele>312.3333333333333</ele><time>2026-04-11T09:59:10Z</time></trkpt><trkpt lat="42.1052554171433" lon="12.1518477603655"><ele>311.6666666666667</ele><time>2026-04-11T09:59:11Z</time></trkpt><trkpt lat="42.10516960073624" lon="12.152031812982758"><ele>311.0</ele><time>2026-04-11T09:59:12Z</time></trkpt><trkpt lat="42.105091382637426" lon="12.152235262955529"><ele>310.6666666666667</ele><time>2026-04-11T09:59:13Z</time></trkpt><trkpt lat="42.105027722615056" lon="12.152450261425868"><ele>310.3333333333333</ele><time>2026-04-11T09:59:14Z</time></trkpt><trkpt lat="42.10496809361119" lon="12.152654176510044"><ele>310.0</ele><time>2026-04-11T09:59:15Z</time></trkpt><trkpt lat="42.10491114043715" lon="12.152865625780235"><ele>310.0</ele><time>2026-04-11T09:59:16Z</time></trkpt><trkpt lat="42.10484981298869" lon="12.153105427951882"><ele>310.0</ele><time>2026-04-11T09:59:17Z</time></trkpt><trkpt lat="42.10479187901245" lon="12.153329063698978"><ele>310.0</ele><time>2026-04-11T09:59:18Z</time></trkpt><trkpt lat="42.104741787831415" lon="12.153537244192277"><ele>307.66666666666663</ele><time>2026-04-11T09:59:19Z</time></trkpt><trkpt lat="42.104690021886626" lon="12.153740986751394"><ele>305.3333333333333</ele><time>2026-04-11T09:59:20Z</time></trkpt><trkpt lat="42.104634602625595" lon="12.153936808048291"><ele>303.0</ele><time>2026-04-11T09:59:21Z</time></trkpt><trkpt lat="42.1045762789516" lon="12.154115916468866"><ele>302.25</ele><time>2026-04-11T09:59:22Z</time></trkpt><trkpt lat="42.10451288400623" lon="12.154277879260873"><ele>301.5</ele><time>2026-04-11T09:59:23Z</time></trkpt><trkpt lat="42.10446131629789" lon="12.15443735254242"><ele>300.75</ele><time>2026-04-11T09:59:24Z</time></trkpt><trkpt lat="42.10442521920766" lon="12.154572115816041"><ele>300.0</ele><time>2026-04-11T09:59:25Z</time></trkpt><trkpt lat="42.10439470534995" lon="12.154685921553906"><ele>300.0</ele><time>2026-04-11T09:59:26Z</time></trkpt><trkpt lat="42.10436692298452" lon="12.154783816941537"><ele>300.0</ele><time>2026-04-11T09:59:27Z</time></trkpt><trkpt lat="42.10433816722206" lon="12.15488214330594"><ele>300.0</ele><time>2026-04-11T09:59:28Z</time></trkpt><trkpt lat="42.104300528838124" lon="12.154977324457347"><ele>300.0</ele><time>2026-04-11T09:59:29Z</time></trkpt><trkpt lat="42.104245558494334" lon="12.155052298516203"><ele>300.0</ele><time>2026-04-11T09:59:30Z</time></trkpt><trkpt lat="42.10410725758682" lon="12.155135723295674"><ele>299.8</ele><time>2026-04-11T09:59:32Z</time></trkpt><trkpt lat="42.1040461146266" lon="12.15515649584441"><ele>299.6</ele><time>2026-04-11T09:59:33Z</time></trkpt><trkpt lat="42.10393658134884" lon="12.15510947931867"><ele>299.4</ele><time>2026-04-11T09:59:35Z</time></trkpt><trkpt lat="42.10388886333328" lon="12.155045587281041"><ele>299.2</ele><time>2026-04-11T09:59:37Z</time></trkpt><trkpt lat="42.10377531544017" lon="12.155017731550165"><ele>299.0</ele><time>2026-04-11T09:59:39Z</time></trkpt><trkpt lat="42.10367734329285" lon="12.155063525994532"><ele>299.0</ele><time>2026-04-11T09:59:40Z</time></trkpt><trkpt lat="42.1035672983292" lon="12.155104278845393"><ele>299.0</ele><time>2026-04-11T09:59:41Z</time></trkpt><trkpt lat="42.10347999259156" lon="12.155122812361524"><ele>299.0</ele><time>2026-04-11T09:59:42Z</time></trkpt><trkpt lat="42.1034007535408" lon="12.155151413819793"><ele>299.0</ele><time>2026-04-11T09:59:43Z</time></trkpt><trkpt lat="42.10334073694345" lon="12.155182629413629"><ele>299.0</ele><time>2026-04-11T09:59:44Z</time></trkpt><trkpt lat="42.103267444694204" lon="12.155238799209153"><ele>299.0</ele><time>2026-04-11T09:59:45Z</time></trkpt><trkpt lat="42.10316395895828" lon="12.155277380427115"><ele>298.75</ele><time>2026-04-11T09:59:46Z</time></trkpt><trkpt lat="42.103045912196" lon="12.155355551705789"><ele>298.5</ele><time>2026-04-11T09:59:47Z</time></trkpt><trkpt lat="42.10291472204912" lon="12.155395396496429"><ele>298.25</ele><time>2026-04-11T09:59:48Z</time></trkpt><trkpt lat="42.10278214000349" lon="12.155461165145896"><ele>298.0</ele><time>2026-04-11T09:59:49Z</time></trkpt><trkpt lat="42.10266854650902" lon="12.155569932284699"><ele>298.0</ele><time>2026-04-11T09:59:50Z</time></trkpt><trkpt lat="42.10257084088806" lon="12.155707253144627"><ele>298.0</ele><time>2026-04-11T09:59:51Z</time></trkpt><trkpt lat="42.10248914081459" lon="12.155850733170348"><ele>298.0</ele><time>2026-04-11T09:59:52Z</time></trkpt><trkpt lat="42.10241431997629" lon="12.155980148413546"><ele>298.0</ele><time>2026-04-11T09:59:53Z</time></trkpt><trkpt lat="42.10233992702538" lon="12.15608849545013"><ele>298.5</ele><time>2026-04-11T09:59:54Z</time></trkpt><trkpt lat="42.10227345852108" lon="12.156176512816439"><ele>299.0</ele><time>2026-04-11T09:59:55Z</time></trkpt><trkpt lat="42.10221192789565" lon="12.156233129375927"><ele>299.5</ele><time>2026-04-11T09:59:56Z</time></trkpt><trkpt lat="42.10214442623781" lon="12.156238943049143"><ele>300.0</ele><time>2026-04-11T09:59:57Z</time></trkpt><trkpt lat="42.1020840068728" lon="12.156200604268736"><ele>300.5</ele><time>2026-04-11T09:59:58Z</time></trkpt><trkpt lat="42.102066328877825" lon="12.156114657122863"><ele>301.0</ele><time>2026-04-11T10:00:03Z</time></trkpt><trkpt lat="42.10199557621398" lon="12.156038594928248"><ele>301.0</ele><time>2026-04-11T10:00:05Z</time></trkpt><trkpt lat="42.101937504521686" lon="12.15598651656029"><ele>301.0</ele><time>2026-04-11T10:00:06Z</time></trkpt><trkpt lat="42.10188198259388" lon="12.155932018670974"><ele>301.0</ele><time>2026-04-11T10:00:07Z</time></trkpt><trkpt lat="42.1018252609657" lon="12.155859431627826"><ele>301.0</ele><time>2026-04-11T10:00:08Z</time></trkpt><trkpt lat="42.10175072114823" lon="12.155755201043606"><ele>301.0</ele><time>2026-04-11T10:00:09Z</time></trkpt><trkpt lat="42.10165337000448" lon="12.155626982194372"><ele>302.0</ele><time>2026-04-11T10:00:10Z</time></trkpt><trkpt lat="42.10154202452244" lon="12.155484093214424"><ele>303.0</ele><time>2026-04-11T10:00:11Z</time></trkpt><trkpt lat="42.10141208239353" lon="12.155287933183637"><ele>304.0</ele><time>2026-04-11T10:00:12Z</time></trkpt><trkpt lat="42.1012726222439" lon="12.15509742385743"><ele>304.0</ele><time>2026-04-11T10:00:13Z</time></trkpt><trkpt lat="42.101184332286365" lon="12.15495468383637"><ele>304.0</ele><time>2026-04-11T10:00:14Z</time></trkpt><trkpt lat="42.10111206393014" lon="12.15488774183483"><ele>304.0</ele><time>2026-04-11T10:00:15Z</time></trkpt><trkpt lat="42.101038883552526" lon="12.154882104662343"><ele>304.0</ele><time>2026-04-11T10:00:16Z</time></trkpt><trkpt lat="42.10093765692639" lon="12.154914510297667"><ele>304.0</ele><time>2026-04-11T10:00:17Z</time></trkpt><trkpt lat="42.10080788767373" lon="12.155005345897507"><ele>303.75</ele><time>2026-04-11T10:00:18Z</time></trkpt><trkpt lat="42.10067304463193" lon="12.155104072911529"><ele>303.5</ele><time>2026-04-11T10:00:19Z</time></trkpt><trkpt lat="42.1005419085219" lon="12.155191315599307"><ele>303.25</ele><time>2026-04-11T10:00:20Z</time></trkpt><trkpt lat="42.100430907396685" lon="12.15527654022216"><ele>303.0</ele><time>2026-04-11T10:00:21Z</time></trkpt><trkpt lat="42.10034008549009" lon="12.15535384421355"><ele>303.0</ele><time>2026-04-11T10:00:22Z</time></trkpt><trkpt lat="42.10024810540391" lon="12.155452769023276"><ele>303.0</ele><time>2026-04-11T10:00:23Z</time></trkpt><trkpt lat="42.10015125468884" lon="12.155552252300364"><ele>303.0</ele><time>2026-04-11T10:00:24Z</time></trkpt><trkpt lat="42.100050498189596" lon="12.155643217554617"><ele>303.0</ele><time>2026-04-11T10:00:25Z</time></trkpt><trkpt lat="42.09994940704814" lon="12.155745153231317"><ele>303.6</ele><time>2026-04-11T10:00:26Z</time></trkpt><trkpt lat="42.09985292184914" lon="12.155847642832558"><ele>304.20000000000005</ele><time>2026-04-11T10:00:27Z</time></trkpt><trkpt lat="42.099759411433894" lon="12.155937977221129"><ele>304.8</ele><time>2026-04-11T10:00:28Z</time></trkpt><trkpt lat="42.099675539731216" lon="12.156024466396172"><ele>305.40000000000003</ele><time>2026-04-11T10:00:29Z</time></trkpt><trkpt lat="42.09960095430609" lon="12.156100311937337"><ele>306.0</ele><time>2026-04-11T10:00:30Z</time></trkpt><trkpt lat="42.09951804088649" lon="12.156175326805364"><ele>306.0</ele><time>2026-04-11T10:00:31Z</time></trkpt><trkpt lat="42.09942231565044" lon="12.156260431691083"><ele>306.0</ele><time>2026-04-11T10:00:32Z</time></trkpt><trkpt lat="42.09932245668138" lon="12.15636615998761"><ele>306.0</ele><time>2026-04-11T10:00:33Z</time></trkpt><trkpt lat="42.0992196897519" lon="12.15646373584333"><ele>306.0</ele><time>2026-04-11T10:00:34Z</time></trkpt><trkpt lat="42.09913845351624" lon="12.156566374053691"><ele>306.6</ele><time>2026-04-11T10:00:35Z</time></trkpt><trkpt lat="42.09906924955972" lon="12.156650823044858"><ele>307.20000000000005</ele><time>2026-04-11T10:00:36Z</time></trkpt><trkpt lat="42.09900114570217" lon="12.156731587948313"><ele>307.79999999999995</ele><time>2026-04-11T10:00:37Z</time></trkpt><trkpt lat="42.09892150308141" lon="12.156837294950556"><ele>308.4</ele><time>2026-04-11T10:00:39Z</time></trkpt><trkpt lat="42.09886263066856" lon="12.156913747553448"><ele>309.0</ele><time>2026-04-11T10:00:40Z</time></trkpt><trkpt lat="42.09877473872103" lon="12.15703455643142"><ele>309.0</ele><time>2026-04-11T10:00:41Z</time></trkpt><trkpt lat="42.09865340185837" lon="12.157135675321815"><ele>309.0</ele><time>2026-04-11T10:00:42Z</time></trkpt><trkpt lat="42.09854746612742" lon="12.15724321381726"><ele>309.0</ele><time>2026-04-11T10:00:43Z</time></trkpt><trkpt lat="42.098481286405914" lon="12.157332737701223"><ele>309.0</ele><time>2026-04-11T10:00:44Z</time></trkpt><trkpt lat="42.09842029234351" lon="12.157377039378195"><ele>309.0</ele><time>2026-04-11T10:00:45Z</time></trkpt><trkpt lat="42.09831420643515" lon="12.157441633302087"><ele>308.8</ele><time>2026-04-11T10:00:47Z</time></trkpt><trkpt lat="42.098194070156005" lon="12.157490681075236"><ele>308.59999999999997</ele><time>2026-04-11T10:00:49Z</time></trkpt><trkpt lat="42.09813016703894" lon="12.157495757689212"><ele>308.4</ele><time>2026-04-11T10:00:50Z</time></trkpt><trkpt lat="42.09800847245727" lon="12.157489735033623"><ele>308.2</ele><time>2026-04-11T10:00:52Z</time></trkpt><trkpt lat="42.097895736597096" lon="12.157453789454198"><ele>308.0</ele><time>2026-04-11T10:00:54Z</time></trkpt><trkpt lat="42.09779615938215" lon="12.157419941854233"><ele>307.6</ele><time>2026-04-11T10:00:56Z</time></trkpt><trkpt lat="42.09774453318845" lon="12.157362351299087"><ele>307.20000000000005</ele><time>2026-04-11T10:00:57Z</time></trkpt><trkpt lat="42.09768618902209" lon="12.157292077117518"><ele>306.8</ele><time>2026-04-11T10:00:58Z</time></trkpt><trkpt lat="42.09761034762852" lon="12.157246669979365"><ele>306.40000000000003</ele><time>2026-04-11T10:00:59Z</time></trkpt><trkpt lat="42.097492935434246" lon="12.157253279540532"><ele>306.0</ele><time>2026-04-11T10:01:00Z</time></trkpt><trkpt lat="42.09736845855965" lon="12.157250304870127"><ele>305.6666666666667</ele><time>2026-04-11T10:01:01Z</time></trkpt><trkpt lat="42.09723224414167" lon="12.157164279939629"><ele>305.33333333333337</ele><time>2026-04-11T10:01:02Z</time></trkpt><trkpt lat="42.09708857503536" lon="12.15704116343082"><ele>305.0</ele><time>2026-04-11T10:01:03Z</time></trkpt><trkpt lat="42.096925695889716" lon="12.156929647706068"><ele>305.0</ele><time>2026-04-11T10:01:04Z</time></trkpt><trkpt lat="42.0967466390408" lon="12.156850550207361"><ele>305.0</ele><time>2026-04-11T10:01:05Z</time></trkpt><trkpt lat="42.09655638582191" lon="12.156754333335966"><ele>305.0</ele><time>2026-04-11T10:01:06Z</time></trkpt><trkpt lat="42.09634051896147" lon="12.156653070489114"><ele>304.5</ele><time>2026-04-11T10:01:07Z</time></trkpt><trkpt lat="42.096107498422946" lon="12.156548051957055"><ele>304.0</ele><time>2026-04-11T10:01:08Z</time></trkpt><trkpt lat="42.09587294531877" lon="12.156423625460695"><ele>303.5</ele><time>2026-04-11T10:01:09.001Z</time></trkpt><trkpt lat="42.095624085082505" lon="12.156310976546717"><ele>303.0</ele><time>2026-04-11T10:01:10.001Z</time></trkpt><trkpt lat="42.095375160859284" lon="12.156197190402256"><ele>303.0</ele><time>2026-04-11T10:01:11.001Z</time></trkpt><trkpt lat="42.095142303668275" lon="12.15609154809319"><ele>303.0</ele><time>2026-04-11T10:01:12.001Z</time></trkpt><trkpt lat="42.094917048914844" lon="12.155981012843176"><ele>302.5</ele><time>2026-04-11T10:01:13.001Z</time></trkpt><trkpt lat="42.0946972623425" lon="12.155875474601066"><ele>302.0</ele><time>2026-04-11T10:01:14.001Z</time></trkpt><trkpt lat="42.09447870972447" lon="12.155772738680033"><ele>302.0</ele><time>2026-04-11T10:01:15.001Z</time></trkpt><trkpt lat="42.09426494735072" lon="12.155675629143568"><ele>302.0</ele><time>2026-04-11T10:01:16.001Z</time></trkpt><trkpt lat="42.094058941687955" lon="12.155583985513966"><ele>302.0</ele><time>2026-04-11T10:01:17.001Z</time></trkpt><trkpt lat="42.093862767568844" lon="12.155487424633858"><ele>302.0</ele><time>2026-04-11T10:01:18.001Z</time></trkpt><trkpt lat="42.09367066165835" lon="12.155393565867582"><ele>302.0</ele><time>2026-04-11T10:01:19.001Z</time></trkpt><trkpt lat="42.09347837417839" lon="12.155305340595064"><ele>302.0</ele><time>2026-04-11T10:01:20.001Z</time></trkpt><trkpt lat="42.0932950835404" lon="12.155215542923797"><ele>301.6666666666667</ele><time>2026-04-11T10:01:21.001Z</time></trkpt><trkpt lat="42.093116013896775" lon="12.155126759904611"><ele>301.3333333333333</ele><time>2026-04-11T10:01:22.001Z</time></trkpt><trkpt lat="42.0929332214243" lon="12.155038580879754"><ele>301.0</ele><time>2026-04-11T10:01:23.001Z</time></trkpt><trkpt lat="42.092745670663014" lon="12.154945738184962"><ele>300.3333333333333</ele><time>2026-04-11T10:01:24.001Z</time></trkpt><trkpt lat="42.09255558028008" lon="12.15485496432769"><ele>299.6666666666667</ele><time>2026-04-11T10:01:25.001Z</time></trkpt><trkpt lat="42.09236670809291" lon="12.154768283542214"><ele>299.0</ele><time>2026-04-11T10:01:26.001Z</time></trkpt><trkpt lat="42.092176142961776" lon="12.154678070346314"><ele>298.0</ele><time>2026-04-11T10:01:27.001Z</time></trkpt><trkpt lat="42.09198907465203" lon="12.15458985390368"><ele>297.0</ele><time>2026-04-11T10:01:28.001Z</time></trkpt><trkpt lat="42.09179677150259" lon="12.154500749926848"><ele>296.0</ele><time>2026-04-11T10:01:29.001Z</time></trkpt><trkpt lat="42.091610835393176" lon="12.15442318725403"><ele>296.33333333333337</ele><time>2026-04-11T10:01:30.001Z</time></trkpt><trkpt lat="42.09141763929235" lon="12.154327982525643"><ele>296.6666666666667</ele><time>2026-04-11T10:01:31.001Z</time></trkpt><trkpt lat="42.09121547593329" lon="12.154235211658374"><ele>297.0</ele><time>2026-04-11T10:01:32.001Z</time></trkpt><trkpt lat="42.09100716744148" lon="12.154135903122082"><ele>295.0</ele><time>2026-04-11T10:01:33.001Z</time></trkpt><trkpt lat="42.09079159663485" lon="12.154027730516434"><ele>293.0</ele><time>2026-04-11T10:01:34.001Z</time></trkpt><trkpt lat="42.09057246749901" lon="12.153927505589833"><ele>293.0</ele><time>2026-04-11T10:01:35.001Z</time></trkpt><trkpt lat="42.090347416105075" lon="12.15381929589256"><ele>293.0</ele><time>2026-04-11T10:01:36.001Z</time></trkpt><trkpt lat="42.090114923859566" lon="12.153703532176836"><ele>291.5</ele><time>2026-04-11T10:01:37.001Z</time></trkpt><trkpt lat="42.08987787029279" lon="12.153597124678292"><ele>290.0</ele><time>2026-04-11T10:01:38.001Z</time></trkpt><trkpt lat="42.08963573622069" lon="12.153482570412319"><ele>290.0</ele><time>2026-04-11T10:01:39.001Z</time></trkpt><trkpt lat="42.08939367923628" lon="12.153367649138858"><ele>290.0</ele><time>2026-04-11T10:01:40.001Z</time></trkpt><trkpt lat="42.089147051018976" lon="12.153255744386323"><ele>289.0</ele><time>2026-04-11T10:01:41.001Z</time></trkpt><trkpt lat="42.08889834440371" lon="12.15314055662658"><ele>288.0</ele><time>2026-04-11T10:01:42.001Z</time></trkpt><trkpt lat="42.08864679700456" lon="12.153025817051807"><ele>288.0</ele><time>2026-04-11T10:01:43.001Z</time></trkpt><trkpt lat="42.08839481766308" lon="12.152911140801358"><ele>288.0</ele><time>2026-04-11T10:01:44.001Z</time></trkpt><trkpt lat="42.08814950868579" lon="12.152797656052838"><ele>286.0</ele><time>2026-04-11T10:01:45Z</time></trkpt><trkpt lat="42.08791469248376" lon="12.152667633179929"><ele>284.0</ele><time>2026-04-11T10:01:46Z</time></trkpt><trkpt lat="42.08769249943446" lon="12.152575422054065"><ele>284.0</ele><time>2026-04-11T10:01:47Z</time></trkpt></trkseg></trk></gpx>